<?xml version='1.0' encoding='UTF-8'?><gpx version="1.1" creator="JPX - https://github.com/jenetics/jpx" xmlns="http://www.topografix.com/GPX/1/1"><trk><trkseg><trkpt lat="45.05437083333951" lon="9.65849405217079"><ele>57.99999999999999</ele><time>2026-05-01T10:27:05Z</time></trkpt><trkpt lat="45.05440188721212" lon="9.658574213712207"><ele>58.0</ele><time>2026-05-01T10:27:07Z</time></trkpt><trkpt lat="45.054412937761526" lon="9.658675982229942"><ele>58.0</ele><time>2026-05-01T10:27:11Z</time></trkpt><trkpt lat="45.054341563122804" lon="9.658803468091827"><ele>58.0</ele><time>2026-05-01T10:27:15Z</time></trkpt><trkpt lat="45.05428430092518" lon="9.658863991479388"><ele>57.99999999999999</ele><time>2026-05-01T10:27:16Z</time></trkpt><trkpt lat="45.0542026254788" lon="9.658927606514473"><ele>58.0</ele><time>2026-05-01T10:27:17Z</time></trkpt><trkpt lat="45.054115770223575" lon="9.659000834566958"><ele>58.33333333333333</ele><time>2026-05-01T10:27:18Z</time></trkpt><trkpt lat="45.05404586821103" lon="9.659063082631308"><ele>58.666666666666664</ele><time>2026-05-01T10:27:19Z</time></trkpt><trkpt lat="45.05399193561858" lon="9.659119620634451"><ele>59.0</ele><time>2026-05-01T10:27:20Z</time></trkpt><trkpt lat="45.05399259807322" lon="9.659209067843774"><ele>59.33333333333333</ele><time>2026-05-01T10:27:22Z</time></trkpt><trkpt lat="45.05409630232272" lon="9.659169975794859"><ele>59.666666666666664</ele><time>2026-05-01T10:27:24Z</time></trkpt><trkpt lat="45.05415811870995" lon="9.659100126307715"><ele>60.0</ele><time>2026-05-01T10:27:25Z</time></trkpt><trkpt lat="45.05423753356189" lon="9.658996378363023"><ele>59.2</ele><time>2026-05-01T10:27:26Z</time></trkpt><trkpt lat="45.05430790669843" lon="9.658931560886986"><ele>58.4</ele><time>2026-05-01T10:27:27Z</time></trkpt><trkpt lat="45.05438666144882" lon="9.658878468506423"><ele>57.599999999999994</ele><time>2026-05-01T10:27:28Z</time></trkpt><trkpt lat="45.05455288603217" lon="9.658836260931064"><ele>56.8</ele><time>2026-05-01T10:27:30Z</time></trkpt><trkpt lat="45.05463408441428" lon="9.658861965592305"><ele>56.0</ele><time>2026-05-01T10:27:31Z</time></trkpt><trkpt lat="45.054711798456665" lon="9.658900681589442"><ele>56.00000000000001</ele><time>2026-05-01T10:27:32Z</time></trkpt><trkpt lat="45.05477792359432" lon="9.658934936544867"><ele>56.0</ele><time>2026-05-01T10:27:33Z</time></trkpt><trkpt lat="45.054875379235064" lon="9.658861749215378"><ele>56.0</ele><time>2026-05-01T10:27:35Z</time></trkpt><trkpt lat="45.05490004736361" lon="9.658778048800848"><ele>56.0</ele><time>2026-05-01T10:27:35.999Z</time></trkpt><trkpt lat="45.0548941633224" lon="9.658682194604358"><ele>56.00000000000001</ele><time>2026-05-01T10:27:36.999Z</time></trkpt><trkpt lat="45.054867216612095" lon="9.658583634327288"><ele>56.0</ele><time>2026-05-01T10:27:37.999Z</time></trkpt><trkpt lat="45.054838526457125" lon="9.658479723337983"><ele>56.199999999999996</ele><time>2026-05-01T10:27:38.999Z</time></trkpt><trkpt lat="45.05482319788397" lon="9.65835926614854"><ele>56.39999999999999</ele><time>2026-05-01T10:27:39.999Z</time></trkpt><trkpt lat="45.054815344789205" lon="9.658226938333156"><ele>56.6</ele><time>2026-05-01T10:27:40.999Z</time></trkpt><trkpt lat="45.054803766537475" lon="9.658059935220791"><ele>56.8</ele><time>2026-05-01T10:27:41.999Z</time></trkpt><trkpt lat="45.05479540516285" lon="9.657869881617414"><ele>57.0</ele><time>2026-05-01T10:27:42.999Z</time></trkpt><trkpt lat="45.054794757991516" lon="9.657654296139647"><ele>57.0</ele><time>2026-05-01T10:27:43.999Z</time></trkpt><trkpt lat="45.05479859011142" lon="9.657433856178384"><ele>57.0</ele><time>2026-05-01T10:27:44.999Z</time></trkpt><trkpt lat="45.05479973398622" lon="9.657195607132918"><ele>57.0</ele><time>2026-05-01T10:27:45.999Z</time></trkpt><trkpt lat="45.0548014781159" lon="9.656934813995715"><ele>56.66666666666667</ele><time>2026-05-01T10:27:46.999Z</time></trkpt><trkpt lat="45.05480411436331" lon="9.656676766977084"><ele>56.333333333333336</ele><time>2026-05-01T10:27:47.999Z</time></trkpt><trkpt lat="45.054809757215914" lon="9.656404745201279"><ele>56.0</ele><time>2026-05-01T10:27:48.999Z</time></trkpt><trkpt lat="45.0548193415367" lon="9.656124425180746"><ele>56.333333333333336</ele><time>2026-05-01T10:27:49.999Z</time></trkpt><trkpt lat="45.05482756832157" lon="9.65587569446927"><ele>56.66666666666667</ele><time>2026-05-01T10:27:50.999Z</time></trkpt><trkpt lat="45.05483322336561" lon="9.65565164007139"><ele>57.0</ele><time>2026-05-01T10:27:51.999Z</time></trkpt><trkpt lat="45.05483535534709" lon="9.655454785814488"><ele>57.5</ele><time>2026-05-01T10:27:52.999Z</time></trkpt><trkpt lat="45.054838022748726" lon="9.65527303719115"><ele>58.0</ele><time>2026-05-01T10:27:53.999Z</time></trkpt><trkpt lat="45.05484005344264" lon="9.655102488056844"><ele>58.5</ele><time>2026-05-01T10:27:54.999Z</time></trkpt><trkpt lat="45.05484491241468" lon="9.654938754766293"><ele>59.0</ele><time>2026-05-01T10:27:55.998Z</time></trkpt><trkpt lat="45.05485048877325" lon="9.654788427637602"><ele>59.0</ele><time>2026-05-01T10:27:56.999Z</time></trkpt><trkpt lat="45.05485368651394" lon="9.654647974386913"><ele>59.00000000000001</ele><time>2026-05-01T10:27:57.999Z</time></trkpt><trkpt lat="45.054856197759904" lon="9.654527148857413"><ele>59.00000000000001</ele><time>2026-05-01T10:27:58.999Z</time></trkpt><trkpt lat="45.054850652897144" lon="9.654392728816354"><ele>59.0</ele><time>2026-05-01T10:28:00.999Z</time></trkpt><trkpt lat="45.05476497598587" lon="9.654415938116617"><ele>59.0</ele><time>2026-05-01T10:28:08.999Z</time></trkpt><trkpt lat="45.05478356524874" lon="9.654633136928942"><ele>59.0</ele><time>2026-05-01T10:28:13.999Z</time></trkpt><trkpt lat="45.05478006931006" lon="9.65477576327878"><ele>59.00000000000001</ele><time>2026-05-01T10:28:14.999Z</time></trkpt><trkpt lat="45.054773303429535" lon="9.65496696781489"><ele>59.00000000000001</ele><time>2026-05-01T10:28:15.999Z</time></trkpt><trkpt lat="45.05476602596029" lon="9.655124847904238"><ele>59.0</ele><time>2026-05-01T10:28:16.999Z</time></trkpt><trkpt lat="45.05476184017993" lon="9.65521821922439"><ele>59.0</ele><time>2026-05-01T10:28:17.999Z</time></trkpt><trkpt lat="45.05471422647242" lon="9.655278187951076"><ele>59.0</ele><time>2026-05-01T10:28:19.999Z</time></trkpt><trkpt lat="45.054589230589464" lon="9.655254237925563"><ele>59.00000000000001</ele><time>2026-05-01T10:28:21.999Z</time></trkpt><trkpt lat="45.05449380105041" lon="9.655234992704216"><ele>59.00000000000001</ele><time>2026-05-01T10:28:22.999Z</time></trkpt><trkpt lat="45.05437993815329" lon="9.655214353748478"><ele>59.0</ele><time>2026-05-01T10:28:23.999Z</time></trkpt><trkpt lat="45.05430915075346" lon="9.655209712556676"><ele>59.0</ele><time>2026-05-01T10:28:24.999Z</time></trkpt><trkpt lat="45.05422810826796" lon="9.655436874695619"><ele>58.66666666666667</ele><time>2026-05-01T10:28:27.999Z</time></trkpt><trkpt lat="45.05419999868915" lon="9.655552660805691"><ele>58.333333333333336</ele><time>2026-05-01T10:28:28.999Z</time></trkpt><trkpt lat="45.05416457033188" lon="9.65569821408342"><ele>58.0</ele><time>2026-05-01T10:28:29.999Z</time></trkpt><trkpt lat="45.05416569831057" lon="9.655834756761609"><ele>57.66666666666667</ele><time>2026-05-01T10:28:30.999Z</time></trkpt><trkpt lat="45.054135007197274" lon="9.655951345697485"><ele>57.333333333333336</ele><time>2026-05-01T10:28:31.999Z</time></trkpt><trkpt lat="45.054112138401" lon="9.656044377162258"><ele>57.0</ele><time>2026-05-01T10:28:32.999Z</time></trkpt><trkpt lat="45.0540877718244" lon="9.656138249438648"><ele>57.0</ele><time>2026-05-01T10:28:33.999Z</time></trkpt><trkpt lat="45.054040509831545" lon="9.65620108952805"><ele>57.0</ele><time>2026-05-01T10:28:34.999Z</time></trkpt><trkpt lat="45.05400053924524" lon="9.65631348844718"><ele>57.0</ele><time>2026-05-01T10:28:36.999Z</time></trkpt><trkpt lat="45.053857762642686" lon="9.656299464317156"><ele>57.0</ele><time>2026-05-01T10:28:38.999Z</time></trkpt><trkpt lat="45.053739924779" lon="9.656285800350206"><ele>57.0</ele><time>2026-05-01T10:28:39.999Z</time></trkpt><trkpt lat="45.05361002526737" lon="9.656253385893233"><ele>57.0</ele><time>2026-05-01T10:28:40.999Z</time></trkpt><trkpt lat="45.053476359149585" lon="9.656235053163465"><ele>57.0</ele><time>2026-05-01T10:28:41.999Z</time></trkpt><trkpt lat="45.05336416723966" lon="9.656219459678034"><ele>57.0</ele><time>2026-05-01T10:28:42.999Z</time></trkpt><trkpt lat="45.05325429396317" lon="9.656204990420475"><ele>57.0</ele><time>2026-05-01T10:28:43.999Z</time></trkpt><trkpt lat="45.05314448069733" lon="9.65618585950288"><ele>57.2</ele><time>2026-05-01T10:28:44.999Z</time></trkpt><trkpt lat="45.053051371626545" lon="9.656163282647253"><ele>57.400000000000006</ele><time>2026-05-01T10:28:45.999Z</time></trkpt><trkpt lat="45.052962405854615" lon="9.65614620936565"><ele>57.599999999999994</ele><time>2026-05-01T10:28:46.999Z</time></trkpt><trkpt lat="45.05286969418001" lon="9.656128693523232"><ele>57.8</ele><time>2026-05-01T10:28:47.999Z</time></trkpt><trkpt lat="45.05276756716478" lon="9.656116560588062"><ele>58.0</ele><time>2026-05-01T10:28:48.999Z</time></trkpt><trkpt lat="45.05264992606323" lon="9.656100968319246"><ele>58.0</ele><time>2026-05-01T10:28:49.999Z</time></trkpt><trkpt lat="45.05252605873228" lon="9.656082720777656"><ele>58.0</ele><time>2026-05-01T10:28:51Z</time></trkpt><trkpt lat="45.05238963822147" lon="9.65606096667182"><ele>58.0</ele><time>2026-05-01T10:28:52Z</time></trkpt><trkpt lat="45.05224659833605" lon="9.656039722683305"><ele>58.0</ele><time>2026-05-01T10:28:53Z</time></trkpt><trkpt lat="45.05211407895214" lon="9.656020195535431"><ele>58.0</ele><time>2026-05-01T10:28:54Z</time></trkpt><trkpt lat="45.05199895783203" lon="9.656001176778322"><ele>58.0</ele><time>2026-05-01T10:28:55Z</time></trkpt><trkpt lat="45.051905134279004" lon="9.655983395773404"><ele>58.0</ele><time>2026-05-01T10:28:56Z</time></trkpt><trkpt lat="45.05182675870904" lon="9.655968702235578"><ele>58.0</ele><time>2026-05-01T10:28:57Z</time></trkpt><trkpt lat="45.0517609443224" lon="9.65596782841615"><ele>58.0</ele><time>2026-05-01T10:28:58Z</time></trkpt><trkpt lat="45.05168671753238" lon="9.656225485270488"><ele>58.4</ele><time>2026-05-01T10:29:01Z</time></trkpt><trkpt lat="45.05168947941307" lon="9.656387749633307"><ele>58.8</ele><time>2026-05-01T10:29:02Z</time></trkpt><trkpt lat="45.05166339878398" lon="9.656544521239828"><ele>59.2</ele><time>2026-05-01T10:29:03Z</time></trkpt><trkpt lat="45.05166297397009" lon="9.656683580640616"><ele>59.6</ele><time>2026-05-01T10:29:04Z</time></trkpt><trkpt lat="45.05165647693679" lon="9.65680441142798"><ele>60.0</ele><time>2026-05-01T10:29:05Z</time></trkpt><trkpt lat="45.05164764704006" lon="9.65691474850529"><ele>60.0</ele><time>2026-05-01T10:29:06Z</time></trkpt><trkpt lat="45.05163237598183" lon="9.65701227826923"><ele>60.0</ele><time>2026-05-01T10:29:07Z</time></trkpt><trkpt lat="45.051617027417336" lon="9.657113098369917"><ele>60.0</ele><time>2026-05-01T10:29:10Z</time></trkpt><trkpt lat="45.05160957488315" lon="9.65720302309113"><ele>60.0</ele><time>2026-05-01T10:29:11Z</time></trkpt><trkpt lat="45.05159577064308" lon="9.657332330627064"><ele>60.0</ele><time>2026-05-01T10:29:12Z</time></trkpt><trkpt lat="45.05158001577329" lon="9.657501322293738"><ele>60.0</ele><time>2026-05-01T10:29:13Z</time></trkpt><trkpt lat="45.051561984201456" lon="9.657694734364416"><ele>59.33333333333333</ele><time>2026-05-01T10:29:14Z</time></trkpt><trkpt lat="45.05154266453861" lon="9.657901962934835"><ele>58.666666666666664</ele><time>2026-05-01T10:29:15Z</time></trkpt><trkpt lat="45.05152404655701" lon="9.658120232907217"><ele>58.0</ele><time>2026-05-01T10:29:16Z</time></trkpt><trkpt lat="45.05150574616797" lon="9.658336711727118"><ele>58.0</ele><time>2026-05-01T10:29:17Z</time></trkpt><trkpt lat="45.05152678748866" lon="9.658523157479609"><ele>58.0</ele><time>2026-05-01T10:29:18Z</time></trkpt><trkpt lat="45.05150581871389" lon="9.658693658388826"><ele>58.0</ele><time>2026-05-01T10:29:19Z</time></trkpt><trkpt lat="45.05148142367501" lon="9.658872873526757"><ele>58.0</ele><time>2026-05-01T10:29:20Z</time></trkpt><trkpt lat="45.05146190170337" lon="9.659034660785954"><ele>58.166666666666664</ele><time>2026-05-01T10:29:21Z</time></trkpt><trkpt lat="45.05144710884432" lon="9.65918485620596"><ele>58.33333333333333</ele><time>2026-05-01T10:29:22Z</time></trkpt><trkpt lat="45.05143951235906" lon="9.659307263446632"><ele>58.5</ele><time>2026-05-01T10:29:23Z</time></trkpt><trkpt lat="45.05143048805697" lon="9.659426126436392"><ele>58.66666666666667</ele><time>2026-05-01T10:29:24Z</time></trkpt><trkpt lat="45.05142142386254" lon="9.659531818616589"><ele>58.833333333333336</ele><time>2026-05-01T10:29:25Z</time></trkpt><trkpt lat="45.05141400124371" lon="9.659630066233738"><ele>59.0</ele><time>2026-05-01T10:29:26Z</time></trkpt><trkpt lat="45.05139545345635" lon="9.659737420478923"><ele>59.5</ele><time>2026-05-01T10:29:27Z</time></trkpt><trkpt lat="45.05136929869432" lon="9.659848283460118"><ele>60.0</ele><time>2026-05-01T10:29:28Z</time></trkpt><trkpt lat="45.051363326926634" lon="9.659938513796156"><ele>60.5</ele><time>2026-05-01T10:29:29Z</time></trkpt><trkpt lat="45.0513410211884" lon="9.660088058548144"><ele>61.0</ele><time>2026-05-01T10:29:31Z</time></trkpt><trkpt lat="45.05102607259451" lon="9.660105636186586"><ele>60.99999999999999</ele><time>2026-05-01T10:29:32Z</time></trkpt><trkpt lat="45.05094614712794" lon="9.660121254787526"><ele>61.0</ele><time>2026-05-01T10:29:33Z</time></trkpt><trkpt lat="45.0508683556389" lon="9.66010929570511"><ele>61.0</ele><time>2026-05-01T10:29:34Z</time></trkpt><trkpt lat="45.050801837192935" lon="9.660083984671267"><ele>61.0</ele><time>2026-05-01T10:29:35Z</time></trkpt><trkpt lat="45.05070934858014" lon="9.660052625418473"><ele>60.99999999999999</ele><time>2026-05-01T10:29:37Z</time></trkpt><trkpt lat="45.05062386873994" lon="9.660039472375898"><ele>61.0</ele><time>2026-05-01T10:29:40Z</time></trkpt><trkpt lat="45.05055810271327" lon="9.660018275376984"><ele>60.83333333333333</ele><time>2026-05-01T10:29:43Z</time></trkpt><trkpt lat="45.05045698628814" lon="9.660029756842249"><ele>60.666666666666664</ele><time>2026-05-01T10:29:45Z</time></trkpt><trkpt lat="45.05039312925976" lon="9.660022111242121"><ele>60.5</ele><time>2026-05-01T10:29:46Z</time></trkpt><trkpt lat="45.05029635867046" lon="9.660000633276189"><ele>60.33333333333333</ele><time>2026-05-01T10:29:47Z</time></trkpt><trkpt lat="45.050219302134515" lon="9.659990250163982"><ele>60.166666666666664</ele><time>2026-05-01T10:29:48Z</time></trkpt><trkpt lat="45.05014822147402" lon="9.659978177656109"><ele>60.0</ele><time>2026-05-01T10:29:49Z</time></trkpt><trkpt lat="45.050059856130694" lon="9.65995722604747"><ele>60.0</ele><time>2026-05-01T10:29:50Z</time></trkpt><trkpt lat="45.049973397875355" lon="9.659937154505863"><ele>60.0</ele><time>2026-05-01T10:29:51Z</time></trkpt><trkpt lat="45.04988767788926" lon="9.659915622092251"><ele>60.0</ele><time>2026-05-01T10:29:52Z</time></trkpt><trkpt lat="45.049787270950986" lon="9.659899241652168"><ele>60.0</ele><time>2026-05-01T10:29:53Z</time></trkpt><trkpt lat="45.04967375606854" lon="9.659887697048637"><ele>60.0</ele><time>2026-05-01T10:29:54Z</time></trkpt><trkpt lat="45.049549659760146" lon="9.659868498413994"><ele>60.0</ele><time>2026-05-01T10:29:55Z</time></trkpt><trkpt lat="45.049414456454016" lon="9.659850124591747"><ele>60.0</ele><time>2026-05-01T10:29:56Z</time></trkpt><trkpt lat="45.049270189574834" lon="9.659829594769073"><ele>60.0</ele><time>2026-05-01T10:29:57Z</time></trkpt><trkpt lat="45.04910750918464" lon="9.659804050745729"><ele>60.0</ele><time>2026-05-01T10:29:58Z</time></trkpt><trkpt lat="45.04895252671574" lon="9.659778341762557"><ele>60.0</ele><time>2026-05-01T10:29:59Z</time></trkpt><trkpt lat="45.04882452377776" lon="9.65976045286138"><ele>60.0</ele><time>2026-05-01T10:30:00Z</time></trkpt><trkpt lat="45.04870937950589" lon="9.65973992520103"><ele>60.0</ele><time>2026-05-01T10:30:00.997Z</time></trkpt><trkpt lat="45.04859665715868" lon="9.65971912819834"><ele>60.0</ele><time>2026-05-01T10:30:01.997Z</time></trkpt><trkpt lat="45.04849134114053" lon="9.65971193122165"><ele>60.0</ele><time>2026-05-01T10:30:02.997Z</time></trkpt><trkpt lat="45.04837286457282" lon="9.659669574797345"><ele>60.0</ele><time>2026-05-01T10:30:03.997Z</time></trkpt><trkpt lat="45.0482272254196" lon="9.65964328936529"><ele>60.0</ele><time>2026-05-01T10:30:04.997Z</time></trkpt><trkpt lat="45.04804454905407" lon="9.659625952852362"><ele>60.0</ele><time>2026-05-01T10:30:05.997Z</time></trkpt><trkpt lat="45.04783834480309" lon="9.659611173077732"><ele>60.0</ele><time>2026-05-01T10:30:06.997Z</time></trkpt><trkpt lat="45.04764769403871" lon="9.659636245952354"><ele>60.0</ele><time>2026-05-01T10:30:07.997Z</time></trkpt><trkpt lat="45.04748638196872" lon="9.659663219049621"><ele>60.0</ele><time>2026-05-01T10:30:08.998Z</time></trkpt><trkpt lat="45.047347836314955" lon="9.659691555144121"><ele>60.0</ele><time>2026-05-01T10:30:09.998Z</time></trkpt><trkpt lat="45.04722672232846" lon="9.659709285289313"><ele>60.0</ele><time>2026-05-01T10:30:10.998Z</time></trkpt><trkpt lat="45.047122960899806" lon="9.659740257746476"><ele>60.0</ele><time>2026-05-01T10:30:11.998Z</time></trkpt><trkpt lat="45.047046812919476" lon="9.65976283039746"><ele>60.0</ele><time>2026-05-01T10:30:12.998Z</time></trkpt><trkpt lat="45.04698063230302" lon="9.659782277605402"><ele>60.0</ele><time>2026-05-01T10:30:14.998Z</time></trkpt><trkpt lat="45.04694354478451" lon="9.659565548660156"><ele>60.0</ele><time>2026-05-01T10:30:16.998Z</time></trkpt><trkpt lat="45.04690864818256" lon="9.659399893982295"><ele>60.0</ele><time>2026-05-01T10:30:17.998Z</time></trkpt><trkpt lat="45.046849692822484" lon="9.659201728669796"><ele>60.0</ele><time>2026-05-01T10:30:18.998Z</time></trkpt><trkpt lat="45.04680818276262" lon="9.658956101827652"><ele>60.33333333333333</ele><time>2026-05-01T10:30:19.998Z</time></trkpt><trkpt lat="45.0467450515664" lon="9.65867997701883"><ele>60.666666666666664</ele><time>2026-05-01T10:30:20.998Z</time></trkpt><trkpt lat="45.04667415148556" lon="9.658386770864235"><ele>61.0</ele><time>2026-05-01T10:30:21.998Z</time></trkpt><trkpt lat="45.046602552431594" lon="9.658088192154823"><ele>60.666666666666664</ele><time>2026-05-01T10:30:22.998Z</time></trkpt><trkpt lat="45.04655052172157" lon="9.657832403493876"><ele>60.33333333333333</ele><time>2026-05-01T10:30:23.998Z</time></trkpt><trkpt lat="45.0465023530757" lon="9.657601078362246"><ele>60.0</ele><time>2026-05-01T10:30:24.999Z</time></trkpt><trkpt lat="45.0464661678416" lon="9.657418351664703"><ele>60.0</ele><time>2026-05-01T10:30:25.999Z</time></trkpt><trkpt lat="45.04643583525624" lon="9.65726014761391"><ele>60.0</ele><time>2026-05-01T10:30:26.999Z</time></trkpt><trkpt lat="45.046412450608834" lon="9.657141551439395"><ele>60.0</ele><time>2026-05-01T10:30:27.999Z</time></trkpt><trkpt lat="45.046398201276645" lon="9.65703360244514"><ele>60.0</ele><time>2026-05-01T10:30:28.999Z</time></trkpt><trkpt lat="45.04638995752258" lon="9.656923289940176"><ele>60.0</ele><time>2026-05-01T10:30:29.999Z</time></trkpt><trkpt lat="45.04639140394188" lon="9.656783458670093"><ele>60.5</ele><time>2026-05-01T10:30:30.999Z</time></trkpt><trkpt lat="45.046389020296715" lon="9.656654504224253"><ele>61.0</ele><time>2026-05-01T10:30:31.999Z</time></trkpt><trkpt lat="45.046358743937326" lon="9.6565539167711"><ele>61.5</ele><time>2026-05-01T10:30:32.999Z</time></trkpt><trkpt lat="45.046297483531006" lon="9.656505608013282"><ele>62.0</ele><time>2026-05-01T10:30:33.999Z</time></trkpt><trkpt lat="45.04622393812053" lon="9.656492719863644"><ele>62.5</ele><time>2026-05-01T10:30:34.999Z</time></trkpt><trkpt lat="45.046147037445046" lon="9.65651186913019"><ele>63.0</ele><time>2026-05-01T10:30:35.999Z</time></trkpt><trkpt lat="45.04607638392406" lon="9.656549147579772"><ele>63.0</ele><time>2026-05-01T10:30:36.999Z</time></trkpt><trkpt lat="45.04601093996877" lon="9.656631438451218"><ele>63.0</ele><time>2026-05-01T10:30:38.999Z</time></trkpt><trkpt lat="45.04597875796283" lon="9.656797374606835"><ele>63.0</ele><time>2026-05-01T10:30:40.999Z</time></trkpt><trkpt lat="45.045848607876955" lon="9.656780834421971"><ele>63.0</ele><time>2026-05-01T10:30:41.999Z</time></trkpt><trkpt lat="45.04576377296287" lon="9.65681462915358"><ele>63.0</ele><time>2026-05-01T10:30:42.999Z</time></trkpt><trkpt lat="45.04567947837796" lon="9.656850195012955"><ele>62.833333333333336</ele><time>2026-05-01T10:30:43.999Z</time></trkpt><trkpt lat="45.04560509113527" lon="9.656882113934287"><ele>62.66666666666667</ele><time>2026-05-01T10:30:44.999Z</time></trkpt><trkpt lat="45.04554558519535" lon="9.656911715840838"><ele>62.5</ele><time>2026-05-01T10:30:45.999Z</time></trkpt><trkpt lat="45.04548285652491" lon="9.656974778519238"><ele>62.333333333333336</ele><time>2026-05-01T10:30:47.999Z</time></trkpt><trkpt lat="45.04552245997043" lon="9.657145651692439"><ele>62.16666666666667</ele><time>2026-05-01T10:30:52.999Z</time></trkpt><trkpt lat="45.045585171258175" lon="9.657093907729314"><ele>62.0</ele><time>2026-05-01T10:30:55.999Z</time></trkpt><trkpt lat="45.04557093191028" lon="9.656998982774343"><ele>62.0</ele><time>2026-05-01T10:31:27Z</time></trkpt><trkpt lat="45.04563820409378" lon="9.656905210199536"><ele>62.0</ele><time>2026-05-01T10:31:40Z</time></trkpt><trkpt lat="45.0457311456366" lon="9.656878705849905"><ele>62.0</ele><time>2026-05-01T10:31:41Z</time></trkpt><trkpt lat="45.04583772825219" lon="9.656845803648556"><ele>62.0</ele><time>2026-05-01T10:31:42Z</time></trkpt><trkpt lat="45.04593925424575" lon="9.656821601246618"><ele>62.0</ele><time>2026-05-01T10:31:43Z</time></trkpt><trkpt lat="45.04602288872522" lon="9.656835901001882"><ele>62.16666666666667</ele><time>2026-05-01T10:31:44Z</time></trkpt><trkpt lat="45.0461118769757" lon="9.656887407409739"><ele>62.333333333333336</ele><time>2026-05-01T10:31:45Z</time></trkpt><trkpt lat="45.046201410184786" lon="9.65694142563282"><ele>62.5</ele><time>2026-05-01T10:31:46Z</time></trkpt><trkpt lat="45.04627666439754" lon="9.656942092156406"><ele>62.66666666666667</ele><time>2026-05-01T10:31:47Z</time></trkpt><trkpt lat="45.04633318114904" lon="9.65688324649466"><ele>62.833333333333336</ele><time>2026-05-01T10:31:48Z</time></trkpt><trkpt lat="45.0463645523903" lon="9.656791861553359"><ele>63.0</ele><time>2026-05-01T10:31:49Z</time></trkpt><trkpt lat="45.04637139328763" lon="9.656686339733914"><ele>63.0</ele><time>2026-05-01T10:31:50Z</time></trkpt><trkpt lat="45.04635133350723" lon="9.656577895102863"><ele>63.0</ele><time>2026-05-01T10:31:51Z</time></trkpt><trkpt lat="45.046294996531074" lon="9.656490197140762"><ele>63.0</ele><time>2026-05-01T10:31:52Z</time></trkpt><trkpt lat="45.046208644226276" lon="9.656440015688013"><ele>63.0</ele><time>2026-05-01T10:31:53Z</time></trkpt><trkpt lat="45.04611251822226" lon="9.65648214426848"><ele>63.0</ele><time>2026-05-01T10:31:54Z</time></trkpt><trkpt lat="45.04601330307005" lon="9.656438975999588"><ele>63.0</ele><time>2026-05-01T10:31:55Z</time></trkpt><trkpt lat="45.0459071517447" lon="9.656465950714612"><ele>63.0</ele><time>2026-05-01T10:31:56Z</time></trkpt><trkpt lat="45.04579338180801" lon="9.65649541271681"><ele>63.0</ele><time>2026-05-01T10:31:57Z</time></trkpt><trkpt lat="45.0456744132757" lon="9.656520640000124"><ele>63.0</ele><time>2026-05-01T10:31:58Z</time></trkpt><trkpt lat="45.045548230888464" lon="9.65653456375371"><ele>62.75</ele><time>2026-05-01T10:31:59Z</time></trkpt><trkpt lat="45.04541837557437" lon="9.656560629930716"><ele>62.5</ele><time>2026-05-01T10:32:00Z</time></trkpt><trkpt lat="45.04527903421645" lon="9.656578024322426"><ele>62.25</ele><time>2026-05-01T10:32:01Z</time></trkpt><trkpt lat="45.04513312908939" lon="9.656606461762186"><ele>62.0</ele><time>2026-05-01T10:32:02Z</time></trkpt><trkpt lat="45.04498153845858" lon="9.656642195342743"><ele>62.0</ele><time>2026-05-01T10:32:03Z</time></trkpt><trkpt lat="45.044822355071446" lon="9.656680555769045"><ele>62.0</ele><time>2026-05-01T10:32:04Z</time></trkpt><trkpt lat="45.0446611427142" lon="9.656722896389144"><ele>62.0</ele><time>2026-05-01T10:32:05Z</time></trkpt><trkpt lat="45.04448974830442" lon="9.656767320559341"><ele>62.0</ele><time>2026-05-01T10:32:06Z</time></trkpt><trkpt lat="45.04430943642164" lon="9.656822373445092"><ele>62.0</ele><time>2026-05-01T10:32:06.998Z</time></trkpt><trkpt lat="45.04412600804706" lon="9.656880194110304"><ele>62.0</ele><time>2026-05-01T10:32:07.998Z</time></trkpt><trkpt lat="45.04392914337827" lon="9.656934038869943"><ele>61.333333333333336</ele><time>2026-05-01T10:32:08.998Z</time></trkpt><trkpt lat="45.04372931103543" lon="9.656985775919239"><ele>60.66666666666667</ele><time>2026-05-01T10:32:09.998Z</time></trkpt><trkpt lat="45.04351951176114" lon="9.657041516457385"><ele>60.0</ele><time>2026-05-01T10:32:10.998Z</time></trkpt><trkpt lat="45.043313631356106" lon="9.657096537361577"><ele>60.33333333333333</ele><time>2026-05-01T10:32:11.998Z</time></trkpt><trkpt lat="45.04312900078642" lon="9.657150888970884"><ele>60.666666666666664</ele><time>2026-05-01T10:32:12.998Z</time></trkpt><trkpt lat="45.04296806349817" lon="9.657194605033148"><ele>61.0</ele><time>2026-05-01T10:32:13.998Z</time></trkpt><trkpt lat="45.04282767373435" lon="9.657231136930205"><ele>60.99999999999999</ele><time>2026-05-01T10:32:14.998Z</time></trkpt><trkpt lat="45.04271670313933" lon="9.657260955721329"><ele>61.0</ele><time>2026-05-01T10:32:15.998Z</time></trkpt><trkpt lat="45.042638088934886" lon="9.657284426481992"><ele>61.0</ele><time>2026-05-01T10:32:16.998Z</time></trkpt><trkpt lat="45.04256819449269" lon="9.65729231157367"><ele>61.0</ele><time>2026-05-01T10:32:18.998Z</time></trkpt><trkpt lat="45.04253666413695" lon="9.657162407446407"><ele>60.99999999999999</ele><time>2026-05-01T10:32:20.998Z</time></trkpt><trkpt lat="45.04250555621227" lon="9.657059448530664"><ele>61.0</ele><time>2026-05-01T10:32:21.998Z</time></trkpt><trkpt lat="45.042466112395154" lon="9.65694148604381"><ele>61.75</ele><time>2026-05-01T10:32:22.999Z</time></trkpt><trkpt lat="45.04242044012976" lon="9.656811391484807"><ele>62.5</ele><time>2026-05-01T10:32:23.999Z</time></trkpt><trkpt lat="45.042357306235886" lon="9.656665287676395"><ele>63.25</ele><time>2026-05-01T10:32:24.999Z</time></trkpt><trkpt lat="45.04229658592427" lon="9.656499634996548"><ele>64.0</ele><time>2026-05-01T10:32:25.999Z</time></trkpt><trkpt lat="45.04223421217146" lon="9.656319126009459"><ele>64.0</ele><time>2026-05-01T10:32:26.999Z</time></trkpt><trkpt lat="45.042167178232496" lon="9.65613263406552"><ele>64.0</ele><time>2026-05-01T10:32:27.999Z</time></trkpt><trkpt lat="45.04209812600957" lon="9.65593695507874"><ele>64.0</ele><time>2026-05-01T10:32:28.999Z</time></trkpt><trkpt lat="45.042023130458304" lon="9.655731557069599"><ele>64.0</ele><time>2026-05-01T10:32:29.999Z</time></trkpt><trkpt lat="45.04195134232531" lon="9.655522368588796"><ele>64.0</ele><time>2026-05-01T10:32:30.999Z</time></trkpt><trkpt lat="45.04188090025966" lon="9.655306267521038"><ele>64.0</ele><time>2026-05-01T10:32:31.999Z</time></trkpt><trkpt lat="45.04180204197032" lon="9.655079467075385"><ele>64.0</ele><time>2026-05-01T10:32:32.999Z</time></trkpt><trkpt lat="45.041722757098064" lon="9.654850530190414"><ele>64.0</ele><time>2026-05-01T10:32:33.999Z</time></trkpt><trkpt lat="45.04164163688028" lon="9.654626447622698"><ele>64.0</ele><time>2026-05-01T10:32:34.999Z</time></trkpt><trkpt lat="45.041565369308444" lon="9.654415470082276"><ele>62.33333333333333</ele><time>2026-05-01T10:32:35.999Z</time></trkpt><trkpt lat="45.04148759756874" lon="9.65420040268947"><ele>60.66666666666667</ele><time>2026-05-01T10:32:36.999Z</time></trkpt><trkpt lat="45.04141056468717" lon="9.653993815530754"><ele>59.0</ele><time>2026-05-01T10:32:37.999Z</time></trkpt><trkpt lat="45.04133718554306" lon="9.653790608616168"><ele>59.333333333333336</ele><time>2026-05-01T10:32:38.999Z</time></trkpt><trkpt lat="45.04126658836632" lon="9.653589868764868"><ele>59.66666666666667</ele><time>2026-05-01T10:32:39.999Z</time></trkpt><trkpt lat="45.041191848348994" lon="9.653390352988714"><ele>60.0</ele><time>2026-05-01T10:32:40.999Z</time></trkpt><trkpt lat="45.041139801135266" lon="9.653201177322778"><ele>60.0</ele><time>2026-05-01T10:32:41.999Z</time></trkpt><trkpt lat="45.04106816029426" lon="9.653004941800827"><ele>60.0</ele><time>2026-05-01T10:32:42.999Z</time></trkpt><trkpt lat="45.04099312961656" lon="9.652799420814711"><ele>60.0</ele><time>2026-05-01T10:32:43.999Z</time></trkpt><trkpt lat="45.040918176841615" lon="9.652594113478159"><ele>60.0</ele><time>2026-05-01T10:32:44.999Z</time></trkpt><trkpt lat="45.04084124843132" lon="9.652383394395683"><ele>60.0</ele><time>2026-05-01T10:32:46Z</time></trkpt><trkpt lat="45.04075834270917" lon="9.652156302398978"><ele>60.0</ele><time>2026-05-01T10:32:47Z</time></trkpt><trkpt lat="45.04066256205464" lon="9.651893944047595"><ele>60.0</ele><time>2026-05-01T10:32:48Z</time></trkpt><trkpt lat="45.04057134408966" lon="9.651642203770512"><ele>60.0</ele><time>2026-05-01T10:32:49Z</time></trkpt><trkpt lat="45.04048438822722" lon="9.6514011177675"><ele>60.0</ele><time>2026-05-01T10:32:50Z</time></trkpt><trkpt lat="45.04040294574712" lon="9.6511748609023"><ele>60.33333333333333</ele><time>2026-05-01T10:32:51Z</time></trkpt><trkpt lat="45.04031209875481" lon="9.650920705067692"><ele>60.666666666666664</ele><time>2026-05-01T10:32:52Z</time></trkpt><trkpt lat="45.04022402521106" lon="9.650674308196045"><ele>61.0</ele><time>2026-05-01T10:32:53Z</time></trkpt><trkpt lat="45.04013331305369" lon="9.650420529447507"><ele>61.33333333333333</ele><time>2026-05-01T10:32:54Z</time></trkpt><trkpt lat="45.04004534328628" lon="9.650174275946561"><ele>61.66666666666667</ele><time>2026-05-01T10:32:55Z</time></trkpt><trkpt lat="45.0399472481935" lon="9.64989708546562"><ele>62.0</ele><time>2026-05-01T10:32:56Z</time></trkpt><trkpt lat="45.039840986230814" lon="9.649596817613228"><ele>61.5</ele><time>2026-05-01T10:32:57Z</time></trkpt><trkpt lat="45.03973275956158" lon="9.649289409260398"><ele>61.0</ele><time>2026-05-01T10:32:58Z</time></trkpt><trkpt lat="45.039614946202" lon="9.648947756245924"><ele>61.0</ele><time>2026-05-01T10:32:59Z</time></trkpt><trkpt lat="45.03949558173815" lon="9.64859907935847"><ele>61.0</ele><time>2026-05-01T10:33:00Z</time></trkpt><trkpt lat="45.039372694998576" lon="9.648245466402688"><ele>61.0</ele><time>2026-05-01T10:33:01Z</time></trkpt><trkpt lat="45.03924630786215" lon="9.647887809371497"><ele>61.0</ele><time>2026-05-01T10:33:02Z</time></trkpt><trkpt lat="45.03911555847866" lon="9.647521519594454"><ele>62.5</ele><time>2026-05-01T10:33:03Z</time></trkpt><trkpt lat="45.03898598987712" lon="9.647166496423166"><ele>64.0</ele><time>2026-05-01T10:33:04Z</time></trkpt><trkpt lat="45.03887036043642" lon="9.646851970986688"><ele>64.0</ele><time>2026-05-01T10:33:05Z</time></trkpt><trkpt lat="45.038750038394966" lon="9.646518582696665"><ele>64.0</ele><time>2026-05-01T10:33:06Z</time></trkpt><trkpt lat="45.03863574209501" lon="9.646190948773825"><ele>64.5</ele><time>2026-05-01T10:33:07Z</time></trkpt><trkpt lat="45.03852766322006" lon="9.645873456626559"><ele>65.0</ele><time>2026-05-01T10:33:08Z</time></trkpt><trkpt lat="45.03843106191078" lon="9.645587089472047"><ele>65.0</ele><time>2026-05-01T10:33:09Z</time></trkpt><trkpt lat="45.03833812743149" lon="9.645311591467559"><ele>65.0</ele><time>2026-05-01T10:33:10Z</time></trkpt><trkpt lat="45.03824210660036" lon="9.645035044278483"><ele>65.0</ele><time>2026-05-01T10:33:11Z</time></trkpt><trkpt lat="45.03814380181487" lon="9.644754493720425"><ele>65.0</ele><time>2026-05-01T10:33:12Z</time></trkpt><trkpt lat="45.03804319593124" lon="9.644467376163869"><ele>65.0</ele><time>2026-05-01T10:33:13Z</time></trkpt><trkpt lat="45.03793638594398" lon="9.644163911276767"><ele>65.0</ele><time>2026-05-01T10:33:14Z</time></trkpt><trkpt lat="45.03782615947513" lon="9.643850860318821"><ele>65.0</ele><time>2026-05-01T10:33:15Z</time></trkpt><trkpt lat="45.037715784643275" lon="9.64353738822789"><ele>65.33333333333334</ele><time>2026-05-01T10:33:16Z</time></trkpt><trkpt lat="45.037611034929945" lon="9.6432398918887"><ele>65.66666666666667</ele><time>2026-05-01T10:33:17Z</time></trkpt><trkpt lat="45.03751709275837" lon="9.642973089610987"><ele>66.0</ele><time>2026-05-01T10:33:18Z</time></trkpt><trkpt lat="45.03742694034037" lon="9.642717050469392"><ele>66.0</ele><time>2026-05-01T10:33:19Z</time></trkpt><trkpt lat="45.03734438710529" lon="9.642482593493185"><ele>66.0</ele><time>2026-05-01T10:33:20Z</time></trkpt><trkpt lat="45.03727127053088" lon="9.64227493218831"><ele>66.0</ele><time>2026-05-01T10:33:21Z</time></trkpt><trkpt lat="45.03719349901172" lon="9.642054049921152"><ele>66.66666666666667</ele><time>2026-05-01T10:33:22Z</time></trkpt><trkpt lat="45.037118666500646" lon="9.641841514858564"><ele>67.33333333333334</ele><time>2026-05-01T10:33:23Z</time></trkpt><trkpt lat="45.03701829622564" lon="9.64164486412474"><ele>68.0</ele><time>2026-05-01T10:33:24Z</time></trkpt><trkpt lat="45.036942674156435" lon="9.641435911733925"><ele>68.0</ele><time>2026-05-01T10:33:25Z</time></trkpt><trkpt lat="45.03686948993879" lon="9.641231186642804"><ele>68.0</ele><time>2026-05-01T10:33:26Z</time></trkpt><trkpt lat="45.0367981459292" lon="9.641024493052525"><ele>68.0</ele><time>2026-05-01T10:33:27Z</time></trkpt><trkpt lat="45.03672280332181" lon="9.640808641792265"><ele>68.33333333333334</ele><time>2026-05-01T10:33:28Z</time></trkpt><trkpt lat="45.03664293913726" lon="9.64058346619335"><ele>68.66666666666667</ele><time>2026-05-01T10:33:29Z</time></trkpt><trkpt lat="45.03656093983927" lon="9.640351414004863"><ele>69.0</ele><time>2026-05-01T10:33:30Z</time></trkpt><trkpt lat="45.03647259951617" lon="9.640091518873737"><ele>68.0</ele><time>2026-05-01T10:33:31Z</time></trkpt><trkpt lat="45.036380497872365" lon="9.639833926466055"><ele>67.0</ele><time>2026-05-01T10:33:32Z</time></trkpt><trkpt lat="45.03628939894005" lon="9.639574278410532"><ele>66.0</ele><time>2026-05-01T10:33:33Z</time></trkpt><trkpt lat="45.03619593422902" lon="9.639304770162923"><ele>66.0</ele><time>2026-05-01T10:33:34Z</time></trkpt><trkpt lat="45.036110236190844" lon="9.639043663511144"><ele>66.0</ele><time>2026-05-01T10:33:35Z</time></trkpt><trkpt lat="45.036010318068335" lon="9.638791264751765"><ele>66.0</ele><time>2026-05-01T10:33:36Z</time></trkpt><trkpt lat="45.035918984764656" lon="9.638526362402999"><ele>66.0</ele><time>2026-05-01T10:33:37.001Z</time></trkpt><trkpt lat="45.035830252610616" lon="9.63826796841164"><ele>66.0</ele><time>2026-05-01T10:33:38.001Z</time></trkpt><trkpt lat="45.03574080271272" lon="9.638006183325594"><ele>66.0</ele><time>2026-05-01T10:33:39.001Z</time></trkpt><trkpt lat="45.03564800413453" lon="9.637744664363145"><ele>66.5</ele><time>2026-05-01T10:33:40.001Z</time></trkpt><trkpt lat="45.0355444961042" lon="9.63745883479931"><ele>67.0</ele><time>2026-05-01T10:33:41.001Z</time></trkpt><trkpt lat="45.0354355024406" lon="9.637164330815647"><ele>67.0</ele><time>2026-05-01T10:33:42.001Z</time></trkpt><trkpt lat="45.03532993861671" lon="9.636890782809711"><ele>67.0</ele><time>2026-05-01T10:33:43.001Z</time></trkpt><trkpt lat="45.03523387365814" lon="9.636634221668144"><ele>67.0</ele><time>2026-05-01T10:33:44.001Z</time></trkpt><trkpt lat="45.035146327960106" lon="9.636393479785124"><ele>67.0</ele><time>2026-05-01T10:33:45.001Z</time></trkpt><trkpt lat="45.035061120043146" lon="9.636157098640059"><ele>67.0</ele><time>2026-05-01T10:33:46.001Z</time></trkpt><trkpt lat="45.03497812694267" lon="9.635930157579883"><ele>67.0</ele><time>2026-05-01T10:33:47.001Z</time></trkpt><trkpt lat="45.034897342862195" lon="9.635706490319292"><ele>67.0</ele><time>2026-05-01T10:33:48.001Z</time></trkpt><trkpt lat="45.03482450878909" lon="9.635512047419956"><ele>67.0</ele><time>2026-05-01T10:33:49.001Z</time></trkpt><trkpt lat="45.03475868921264" lon="9.635327671373414"><ele>67.0</ele><time>2026-05-01T10:33:50.001Z</time></trkpt><trkpt lat="45.03469775317701" lon="9.635158957897737"><ele>67.0</ele><time>2026-05-01T10:33:51.001Z</time></trkpt><trkpt lat="45.03464312157095" lon="9.63500540398504"><ele>67.0</ele><time>2026-05-01T10:33:52.001Z</time></trkpt><trkpt lat="45.034600989353315" lon="9.634881760561603"><ele>67.0</ele><time>2026-05-01T10:33:53.001Z</time></trkpt><trkpt lat="45.03457535887291" lon="9.634792095191882"><ele>67.0</ele><time>2026-05-01T10:33:54.001Z</time></trkpt><trkpt lat="45.034605370567604" lon="9.634695671652517"><ele>67.0</ele><time>2026-05-01T10:33:56.001Z</time></trkpt><trkpt lat="45.03467151328807" lon="9.634657469699755"><ele>67.0</ele><time>2026-05-01T10:33:57.001Z</time></trkpt><trkpt lat="45.03477884438916" lon="9.634641400071894"><ele>67.0</ele><time>2026-05-01T10:33:58.001Z</time></trkpt><trkpt lat="45.03492000538035" lon="9.634638045727772"><ele>66.0</ele><time>2026-05-01T10:33:59.001Z</time></trkpt><trkpt lat="45.035073859052794" lon="9.6346304488983"><ele>65.0</ele><time>2026-05-01T10:34:00.001Z</time></trkpt><trkpt lat="45.03523722999405" lon="9.634614515756905"><ele>64.0</ele><time>2026-05-01T10:34:01.001Z</time></trkpt><trkpt lat="45.035419879511025" lon="9.634588538036214"><ele>64.0</ele><time>2026-05-01T10:34:02.001Z</time></trkpt><trkpt lat="45.03561057025828" lon="9.634560019717053"><ele>64.0</ele><time>2026-05-01T10:34:03.001Z</time></trkpt><trkpt lat="45.0358144598775" lon="9.634531522337864"><ele>64.0</ele><time>2026-05-01T10:34:04.001Z</time></trkpt><trkpt lat="45.03603063160453" lon="9.63450964703217"><ele>64.5</ele><time>2026-05-01T10:34:05.001Z</time></trkpt><trkpt lat="45.036254480815394" lon="9.634489884311964"><ele>65.0</ele><time>2026-05-01T10:34:06.001Z</time></trkpt><trkpt lat="45.03648401054787" lon="9.634463585905433"><ele>64.33333333333334</ele><time>2026-05-01T10:34:07.001Z</time></trkpt><trkpt lat="45.0366927302468" lon="9.634437492559396"><ele>63.66666666666667</ele><time>2026-05-01T10:34:08.001Z</time></trkpt><trkpt lat="45.03689341974937" lon="9.634410587129025"><ele>63.0</ele><time>2026-05-01T10:34:09.001Z</time></trkpt><trkpt lat="45.03707668358911" lon="9.634386835570394"><ele>63.0</ele><time>2026-05-01T10:34:10.001Z</time></trkpt><trkpt lat="45.037255554505265" lon="9.634366787170514"><ele>63.0</ele><time>2026-05-01T10:34:11.001Z</time></trkpt><trkpt lat="45.037401856342186" lon="9.634351632583305"><ele>63.0</ele><time>2026-05-01T10:34:12.001Z</time></trkpt><trkpt lat="45.03752758972045" lon="9.634338676711304"><ele>62.833333333333336</ele><time>2026-05-01T10:34:12.999Z</time></trkpt><trkpt lat="45.03762821474429" lon="9.634324867447571"><ele>62.66666666666667</ele><time>2026-05-01T10:34:13.999Z</time></trkpt><trkpt lat="45.03770423213915" lon="9.634286519956849"><ele>62.5</ele><time>2026-05-01T10:34:15.999Z</time></trkpt><trkpt lat="45.03771649006324" lon="9.634187408774212"><ele>62.333333333333336</ele><time>2026-05-01T10:34:17.999Z</time></trkpt><trkpt lat="45.03770636161392" lon="9.63406685453441"><ele>62.16666666666667</ele><time>2026-05-01T10:34:19.999Z</time></trkpt><trkpt lat="45.0377035475144" lon="9.633969161059632"><ele>62.0</ele><time>2026-05-01T10:34:21.999Z</time></trkpt><trkpt lat="45.03770015425494" lon="9.633846478051437"><ele>62.0</ele><time>2026-05-01T10:34:24.999Z</time></trkpt><trkpt lat="45.03769617595632" lon="9.633723795118081"><ele>62.0</ele><time>2026-05-01T10:34:26.999Z</time></trkpt><trkpt lat="45.037692629162606" lon="9.633584709271345"><ele>62.0</ele><time>2026-05-01T10:34:27.999Z</time></trkpt><trkpt lat="45.03768573231881" lon="9.633431888705827"><ele>62.0</ele><time>2026-05-01T10:34:28.999Z</time></trkpt><trkpt lat="45.037677004909746" lon="9.633259803052894"><ele>62.0</ele><time>2026-05-01T10:34:29.999Z</time></trkpt><trkpt lat="45.03767313980801" lon="9.633082911951211"><ele>62.5</ele><time>2026-05-01T10:34:30.999Z</time></trkpt><trkpt lat="45.0376677660964" lon="9.632900580790077"><ele>63.0</ele><time>2026-05-01T10:34:31.999Z</time></trkpt><trkpt lat="45.03765940687704" lon="9.63270780452719"><ele>63.5</ele><time>2026-05-01T10:34:32.999Z</time></trkpt><trkpt lat="45.03765194776492" lon="9.632515460377991"><ele>64.0</ele><time>2026-05-01T10:34:34Z</time></trkpt><trkpt lat="45.03764496589043" lon="9.632322625570431"><ele>64.5</ele><time>2026-05-01T10:34:35Z</time></trkpt><trkpt lat="45.037636104957116" lon="9.632147200250754"><ele>65.0</ele><time>2026-05-01T10:34:36Z</time></trkpt><trkpt lat="45.03763007080003" lon="9.631984445896144"><ele>65.5</ele><time>2026-05-01T10:34:37Z</time></trkpt><trkpt lat="45.03762407219899" lon="9.631817305911543"><ele>66.0</ele><time>2026-05-01T10:34:38Z</time></trkpt><trkpt lat="45.03762374342143" lon="9.631668056642667"><ele>66.0</ele><time>2026-05-01T10:34:39Z</time></trkpt><trkpt lat="45.03761462050641" lon="9.63151227610865"><ele>66.0</ele><time>2026-05-01T10:34:40Z</time></trkpt><trkpt lat="45.03761064230938" lon="9.631360616574463"><ele>66.0</ele><time>2026-05-01T10:34:41Z</time></trkpt><trkpt lat="45.03760877811033" lon="9.631213407476462"><ele>66.0</ele><time>2026-05-01T10:34:42Z</time></trkpt><trkpt lat="45.03760498823968" lon="9.63106180822881"><ele>66.0</ele><time>2026-05-01T10:34:43Z</time></trkpt><trkpt lat="45.037600910741496" lon="9.630915245831233"><ele>66.0</ele><time>2026-05-01T10:34:44Z</time></trkpt><trkpt lat="45.03759758889707" lon="9.630774561002058"><ele>66.0</ele><time>2026-05-01T10:34:45Z</time></trkpt><trkpt lat="45.03759884016341" lon="9.63063645306096"><ele>66.0</ele><time>2026-05-01T10:34:46Z</time></trkpt><trkpt lat="45.037596823707936" lon="9.63049621622457"><ele>66.0</ele><time>2026-05-01T10:34:47Z</time></trkpt><trkpt lat="45.03759582614832" lon="9.630342908189233"><ele>66.0</ele><time>2026-05-01T10:34:48Z</time></trkpt><trkpt lat="45.037591769619134" lon="9.630193679607576"><ele>66.0</ele><time>2026-05-01T10:34:49Z</time></trkpt><trkpt lat="45.037602819028194" lon="9.63004404261422"><ele>66.0</ele><time>2026-05-01T10:34:50Z</time></trkpt><trkpt lat="45.037598820183575" lon="9.629894149150696"><ele>66.0</ele><time>2026-05-01T10:34:51Z</time></trkpt><trkpt lat="45.0375946664549" lon="9.629738449811141"><ele>66.0</ele><time>2026-05-01T10:34:52Z</time></trkpt><trkpt lat="45.03757842655667" lon="9.629568557021784"><ele>66.0</ele><time>2026-05-01T10:34:53Z</time></trkpt><trkpt lat="45.03757784929485" lon="9.629401383533901"><ele>66.0</ele><time>2026-05-01T10:34:54Z</time></trkpt><trkpt lat="45.0375769517544" lon="9.629257555694325"><ele>66.0</ele><time>2026-05-01T10:34:55Z</time></trkpt><trkpt lat="45.03759047694188" lon="9.629151811592857"><ele>66.0</ele><time>2026-05-01T10:34:56Z</time></trkpt><trkpt lat="45.037592403300096" lon="9.628989416842009"><ele>66.0</ele><time>2026-05-01T10:34:58Z</time></trkpt><trkpt lat="45.03759417964669" lon="9.628886284283587"><ele>66.0</ele><time>2026-05-01T10:35:00Z</time></trkpt><trkpt lat="45.037596795277466" lon="9.62873442376703"><ele>65.8</ele><time>2026-05-01T10:35:02Z</time></trkpt><trkpt lat="45.0375986140517" lon="9.628628827881744"><ele>65.6</ele><time>2026-05-01T10:35:03Z</time></trkpt><trkpt lat="45.037601572189836" lon="9.62850263592615"><ele>65.4</ele><time>2026-05-01T10:35:04Z</time></trkpt><trkpt lat="45.03760666535641" lon="9.628360702719027"><ele>65.2</ele><time>2026-05-01T10:35:05Z</time></trkpt><trkpt lat="45.037615813004265" lon="9.628206577924864"><ele>65.0</ele><time>2026-05-01T10:35:06Z</time></trkpt><trkpt lat="45.03763038578637" lon="9.62803460667543"><ele>65.0</ele><time>2026-05-01T10:35:07Z</time></trkpt><trkpt lat="45.03764739881365" lon="9.627855155902813"><ele>65.0</ele><time>2026-05-01T10:35:08Z</time></trkpt><trkpt lat="45.037660249908946" lon="9.627664544229258"><ele>65.0</ele><time>2026-05-01T10:35:09Z</time></trkpt><trkpt lat="45.03767137107491" lon="9.627460877200802"><ele>65.0</ele><time>2026-05-01T10:35:10Z</time></trkpt><trkpt lat="45.037681575654986" lon="9.627244918408005"><ele>65.0</ele><time>2026-05-01T10:35:11Z</time></trkpt><trkpt lat="45.03769133950663" lon="9.627027712440936"><ele>65.0</ele><time>2026-05-01T10:35:12Z</time></trkpt><trkpt lat="45.037700788755394" lon="9.62681750503161"><ele>65.0</ele><time>2026-05-01T10:35:13Z</time></trkpt><trkpt lat="45.03771081105023" lon="9.626594549591086"><ele>65.0</ele><time>2026-05-01T10:35:14.001Z</time></trkpt><trkpt lat="45.03770452798649" lon="9.626367890986012"><ele>65.0</ele><time>2026-05-01T10:35:15.001Z</time></trkpt><trkpt lat="45.03771837133756" lon="9.626136480249665"><ele>65.0</ele><time>2026-05-01T10:35:16.001Z</time></trkpt><trkpt lat="45.03773652120073" lon="9.625896378019474"><ele>65.0</ele><time>2026-05-01T10:35:17.001Z</time></trkpt><trkpt lat="45.037764257270325" lon="9.625660212111386"><ele>65.0</ele><time>2026-05-01T10:35:18.001Z</time></trkpt><trkpt lat="45.03777994009104" lon="9.625426562878188"><ele>65.0</ele><time>2026-05-01T10:35:19.001Z</time></trkpt><trkpt lat="45.03779100192555" lon="9.62517284229972"><ele>64.66666666666667</ele><time>2026-05-01T10:35:20.001Z</time></trkpt><trkpt lat="45.037803100193386" lon="9.624931740632993"><ele>64.33333333333333</ele><time>2026-05-01T10:35:21.001Z</time></trkpt><trkpt lat="45.037817258429754" lon="9.624679926211842"><ele>64.0</ele><time>2026-05-01T10:35:22.001Z</time></trkpt><trkpt lat="45.03781723285745" lon="9.624427961153513"><ele>64.0</ele><time>2026-05-01T10:35:23.001Z</time></trkpt><trkpt lat="45.037851497693744" lon="9.624186546249096"><ele>64.0</ele><time>2026-05-01T10:35:24.001Z</time></trkpt><trkpt lat="45.037879467157964" lon="9.623938674693097"><ele>64.0</ele><time>2026-05-01T10:35:25.001Z</time></trkpt><trkpt lat="45.03791211096359" lon="9.623689116597932"><ele>65.0</ele><time>2026-05-01T10:35:26.001Z</time></trkpt><trkpt lat="45.03794503112753" lon="9.623445688163512"><ele>66.0</ele><time>2026-05-01T10:35:27.001Z</time></trkpt><trkpt lat="45.03797871074876" lon="9.623196643705098"><ele>67.0</ele><time>2026-05-01T10:35:28.001Z</time></trkpt><trkpt lat="45.03800750601685" lon="9.622983717064578"><ele>67.0</ele><time>2026-05-01T10:35:29.001Z</time></trkpt><trkpt lat="45.03803333802317" lon="9.622793835599865"><ele>67.0</ele><time>2026-05-01T10:35:30.001Z</time></trkpt><trkpt lat="45.038061737993026" lon="9.622619392167687"><ele>67.0</ele><time>2026-05-01T10:35:31.001Z</time></trkpt><trkpt lat="45.03805623457316" lon="9.622449963553887"><ele>67.0</ele><time>2026-05-01T10:35:32.001Z</time></trkpt><trkpt lat="45.03805699011618" lon="9.622293092421348"><ele>67.0</ele><time>2026-05-01T10:35:33.001Z</time></trkpt><trkpt lat="45.03804684810326" lon="9.62214309376426"><ele>67.0</ele><time>2026-05-01T10:35:34.001Z</time></trkpt><trkpt lat="45.03813094393776" lon="9.621958563743856"><ele>67.0</ele><time>2026-05-01T10:35:35.001Z</time></trkpt><trkpt lat="45.038162192157515" lon="9.62177214119292"><ele>67.0</ele><time>2026-05-01T10:35:36.001Z</time></trkpt><trkpt lat="45.03819886748826" lon="9.621575289619157"><ele>66.33333333333333</ele><time>2026-05-01T10:35:37.001Z</time></trkpt><trkpt lat="45.038252699651586" lon="9.621366195919965"><ele>65.66666666666667</ele><time>2026-05-01T10:35:38.001Z</time></trkpt><trkpt lat="45.03832041667491" lon="9.621138988007825"><ele>65.0</ele><time>2026-05-01T10:35:39.001Z</time></trkpt><trkpt lat="45.0383831189844" lon="9.620908625455332"><ele>64.0</ele><time>2026-05-01T10:35:40.001Z</time></trkpt><trkpt lat="45.03844228437988" lon="9.620674098120379"><ele>63.0</ele><time>2026-05-01T10:35:41.001Z</time></trkpt><trkpt lat="45.038505176587556" lon="9.62043397999403"><ele>62.0</ele><time>2026-05-01T10:35:42.001Z</time></trkpt><trkpt lat="45.03857105970182" lon="9.620190783696538"><ele>62.0</ele><time>2026-05-01T10:35:43.001Z</time></trkpt><trkpt lat="45.038637439911994" lon="9.61994426234113"><ele>62.0</ele><time>2026-05-01T10:35:44.001Z</time></trkpt><trkpt lat="45.038702775023616" lon="9.619685374906958"><ele>62.0</ele><time>2026-05-01T10:35:45.001Z</time></trkpt><trkpt lat="45.03877415044573" lon="9.619414191910113"><ele>62.333333333333336</ele><time>2026-05-01T10:35:46.001Z</time></trkpt><trkpt lat="45.038856833058205" lon="9.61913723279391"><ele>62.66666666666667</ele><time>2026-05-01T10:35:47.001Z</time></trkpt><trkpt lat="45.038942853251854" lon="9.618872675411518"><ele>63.0</ele><time>2026-05-01T10:35:48.001Z</time></trkpt><trkpt lat="45.039037093813874" lon="9.618623116606242"><ele>63.66666666666667</ele><time>2026-05-01T10:35:49.001Z</time></trkpt><trkpt lat="45.03913428436939" lon="9.618371464676338"><ele>64.33333333333334</ele><time>2026-05-01T10:35:50.001Z</time></trkpt><trkpt lat="45.03923601188197" lon="9.618096299900023"><ele>65.0</ele><time>2026-05-01T10:35:51.001Z</time></trkpt><trkpt lat="45.03931953872273" lon="9.617887361764646"><ele>64.33333333333334</ele><time>2026-05-01T10:35:52.001Z</time></trkpt><trkpt lat="45.03940772714117" lon="9.617652649292879"><ele>63.66666666666667</ele><time>2026-05-01T10:35:53.001Z</time></trkpt><trkpt lat="45.039494848710184" lon="9.617417372543509"><ele>63.0</ele><time>2026-05-01T10:35:54.001Z</time></trkpt><trkpt lat="45.03957522575384" lon="9.61720900588206"><ele>63.0</ele><time>2026-05-01T10:35:55.001Z</time></trkpt><trkpt lat="45.03966461062131" lon="9.616993272735304"><ele>63.0</ele><time>2026-05-01T10:35:56.001Z</time></trkpt><trkpt lat="45.03974691876279" lon="9.616802235180845"><ele>63.0</ele><time>2026-05-01T10:35:57.001Z</time></trkpt><trkpt lat="45.0398291716154" lon="9.616625537468192"><ele>62.599999999999994</ele><time>2026-05-01T10:35:58.001Z</time></trkpt><trkpt lat="45.03989548800889" lon="9.61648574273885"><ele>62.199999999999996</ele><time>2026-05-01T10:35:59.001Z</time></trkpt><trkpt lat="45.03994081248513" lon="9.61638414323721"><ele>61.8</ele><time>2026-05-01T10:36:00.001Z</time></trkpt><trkpt lat="45.039971798239655" lon="9.616301962918092"><ele>61.4</ele><time>2026-05-01T10:36:01.001Z</time></trkpt><trkpt lat="45.04002773711736" lon="9.616162621756764"><ele>61.0</ele><time>2026-05-01T10:36:03.001Z</time></trkpt><trkpt lat="45.040070934750254" lon="9.61604598789665"><ele>61.0</ele><time>2026-05-01T10:36:05.002Z</time></trkpt><trkpt lat="45.04006169419584" lon="9.615955692909596"><ele>60.99999999999999</ele><time>2026-05-01T10:36:12.002Z</time></trkpt><trkpt lat="45.04000934616559" lon="9.615819039388667"><ele>60.99999999999999</ele><time>2026-05-01T10:36:14.002Z</time></trkpt><trkpt lat="45.039981950713766" lon="9.615655725501506"><ele>61.0</ele><time>2026-05-01T10:36:16.002Z</time></trkpt><trkpt lat="45.03996684436865" lon="9.615564873116515"><ele>61.0</ele><time>2026-05-01T10:36:17.002Z</time></trkpt><trkpt lat="45.03993874435878" lon="9.615418930001907"><ele>61.199999999999996</ele><time>2026-05-01T10:36:19Z</time></trkpt><trkpt lat="45.03991640349774" lon="9.615281695515721"><ele>61.39999999999999</ele><time>2026-05-01T10:36:21Z</time></trkpt><trkpt lat="45.0398937120652" lon="9.615112471902714"><ele>61.6</ele><time>2026-05-01T10:36:23Z</time></trkpt><trkpt lat="45.03986493224968" lon="9.614961679078599"><ele>61.8</ele><time>2026-05-01T10:36:25Z</time></trkpt><trkpt lat="45.03981210225148" lon="9.614832609430973"><ele>62.0</ele><time>2026-05-01T10:36:27Z</time></trkpt><trkpt lat="45.039756092514786" lon="9.614745402393323"><ele>62.00000000000001</ele><time>2026-05-01T10:36:30Z</time></trkpt><trkpt lat="45.03971022789474" lon="9.614668319468063"><ele>62.0</ele><time>2026-05-01T10:36:32Z</time></trkpt><trkpt lat="45.03965310145874" lon="9.614622558748897"><ele>62.0</ele><time>2026-05-01T10:36:34Z</time></trkpt><trkpt lat="45.03957963224836" lon="9.614583138309632"><ele>62.0</ele><time>2026-05-01T10:36:36Z</time></trkpt><trkpt lat="45.0395217074983" lon="9.61453647805637"><ele>62.00000000000001</ele><time>2026-05-01T10:36:38Z</time></trkpt><trkpt lat="45.039431642910664" lon="9.614475451773426"><ele>62.0</ele><time>2026-05-01T10:36:42Z</time></trkpt><trkpt lat="45.03935767847518" lon="9.614532696057251"><ele>62.00000000000001</ele><time>2026-05-01T10:36:44Z</time></trkpt><trkpt lat="45.039281236020074" lon="9.614586981157078"><ele>62.0</ele><time>2026-05-01T10:36:46Z</time></trkpt><trkpt lat="45.0392048104131" lon="9.614618488146666"><ele>62.0</ele><time>2026-05-01T10:36:48Z</time></trkpt><trkpt lat="45.03910122545468" lon="9.614619999690579"><ele>62.0</ele><time>2026-05-01T10:36:50Z</time></trkpt><trkpt lat="45.03901875576842" lon="9.614623707948372"><ele>62.00000000000001</ele><time>2026-05-01T10:36:52Z</time></trkpt><trkpt lat="45.038957915502884" lon="9.61457633127275"><ele>62.0</ele><time>2026-05-01T10:37:37.001Z</time></trkpt><trkpt lat="45.03896195225901" lon="9.614480210239963"><ele>61.833333333333336</ele><time>2026-05-01T10:37:41.001Z</time></trkpt><trkpt lat="45.038994540900255" lon="9.614386966417724"><ele>61.66666666666667</ele><time>2026-05-01T10:37:44.001Z</time></trkpt><trkpt lat="45.03906588958674" lon="9.614331591683252"><ele>61.5</ele><time>2026-05-01T10:37:48.001Z</time></trkpt><trkpt lat="45.03912217126091" lon="9.614257178156077"><ele>61.33333333333333</ele><time>2026-05-01T10:37:50.001Z</time></trkpt><trkpt lat="45.039148860086776" lon="9.614101147437092"><ele>61.166666666666664</ele><time>2026-05-01T10:37:52.002Z</time></trkpt><trkpt lat="45.03916496822018" lon="9.613962045775226"><ele>61.0</ele><time>2026-05-01T10:37:54.002Z</time></trkpt><trkpt lat="45.039161591330384" lon="9.613804842746609"><ele>60.99999999999999</ele><time>2026-05-01T10:37:56.002Z</time></trkpt><trkpt lat="45.039148727714796" lon="9.613697461210059"><ele>61.0</ele><time>2026-05-01T10:37:57.002Z</time></trkpt><trkpt lat="45.03912908966705" lon="9.61356827763018"><ele>61.0</ele><time>2026-05-01T10:37:58.002Z</time></trkpt><trkpt lat="45.03911204880215" lon="9.613420819231536"><ele>61.0</ele><time>2026-05-01T10:37:59.002Z</time></trkpt><trkpt lat="45.03912822688843" lon="9.613313068981412"><ele>60.99999999999999</ele><time>2026-05-01T10:38:03.002Z</time></trkpt><trkpt lat="45.03913304108103" lon="9.613218430385917"><ele>61.0</ele><time>2026-05-01T10:38:13.002Z</time></trkpt><trkpt lat="45.0391597938743" lon="9.613109865363919"><ele>60.99999999999999</ele><time>2026-05-01T10:38:34Z</time></trkpt><trkpt lat="45.03915319614072" lon="9.613021007629591"><ele>61.0</ele><time>2026-05-01T10:39:06.001Z</time></trkpt><trkpt lat="45.03910323962178" lon="9.612965086989325"><ele>61.0</ele><time>2026-05-01T10:39:08.001Z</time></trkpt><trkpt lat="45.03903433276077" lon="9.612943811490526"><ele>61.0</ele><time>2026-05-01T10:39:11.001Z</time></trkpt><trkpt lat="45.03896801116076" lon="9.612920485980599"><ele>60.99999999999999</ele><time>2026-05-01T10:39:14.001Z</time></trkpt><trkpt lat="45.03884613737132" lon="9.612908200872102"><ele>61.0</ele><time>2026-05-01T10:39:16.001Z</time></trkpt><trkpt lat="45.0387298693217" lon="9.612907322752033"><ele>60.99999999999999</ele><time>2026-05-01T10:39:18.001Z</time></trkpt><trkpt lat="45.03865950530814" lon="9.61291448685658"><ele>61.0</ele><time>2026-05-01T10:39:19.001Z</time></trkpt><trkpt lat="45.038557732426085" lon="9.6129146410189"><ele>61.0</ele><time>2026-05-01T10:39:21.001Z</time></trkpt><trkpt lat="45.038478971404906" lon="9.612885505653209"><ele>61.0</ele><time>2026-05-01T10:39:23.001Z</time></trkpt><trkpt lat="45.03840130822851" lon="9.61281722938313"><ele>60.99999999999999</ele><time>2026-05-01T10:39:26.001Z</time></trkpt><trkpt lat="45.03835363391646" lon="9.612875783749264"><ele>61.0</ele><time>2026-05-01T10:39:30.001Z</time></trkpt><trkpt lat="45.0384221562635" lon="9.612961053800925"><ele>60.99999999999999</ele><time>2026-05-01T10:39:33.001Z</time></trkpt><trkpt lat="45.03849939252164" lon="9.612944946228247"><ele>61.0</ele><time>2026-05-01T10:39:35.001Z</time></trkpt><trkpt lat="45.03851834917586" lon="9.612844462117677"><ele>60.99999999999999</ele><time>2026-05-01T10:39:37.001Z</time></trkpt><trkpt lat="45.03850542531258" lon="9.612754701018895"><ele>60.99999999999999</ele><time>2026-05-01T10:39:38.001Z</time></trkpt><trkpt lat="45.03847701892892" lon="9.612656760903459"><ele>61.0</ele><time>2026-05-01T10:39:40.001Z</time></trkpt><trkpt lat="45.03849004884571" lon="9.61254514150503"><ele>60.99999999999999</ele><time>2026-05-01T10:39:43.001Z</time></trkpt><trkpt lat="45.03849373300823" lon="9.612452281722222"><ele>60.99999999999999</ele><time>2026-05-01T10:39:46.002Z</time></trkpt><trkpt lat="45.0384825563634" lon="9.61235836444258"><ele>61.0</ele><time>2026-05-01T10:39:51.002Z</time></trkpt><trkpt lat="45.038540287866994" lon="9.612155853977203"><ele>60.99999999999999</ele><time>2026-05-01T10:39:54.002Z</time></trkpt><trkpt lat="45.03847442983645" lon="9.61207907750921"><ele>60.99999999999999</ele><time>2026-05-01T10:39:58.002Z</time></trkpt><trkpt lat="45.03842493965497" lon="9.612021382508525"><ele>61.0</ele><time>2026-05-01T10:40:00.002Z</time></trkpt><trkpt lat="45.03836840608345" lon="9.611955476115075"><ele>61.0</ele><time>2026-05-01T10:40:04.002Z</time></trkpt><trkpt lat="45.03830697959527" lon="9.611883066196041"><ele>61.33333333333333</ele><time>2026-05-01T10:40:07.002Z</time></trkpt><trkpt lat="45.038253910589816" lon="9.611820587454183"><ele>61.666666666666664</ele><time>2026-05-01T10:40:10.002Z</time></trkpt><trkpt lat="45.03819654177091" lon="9.611746513998968"><ele>62.0</ele><time>2026-05-01T10:40:13.002Z</time></trkpt><trkpt lat="45.03810958017655" lon="9.611620687860553"><ele>62.33333333333333</ele><time>2026-05-01T10:40:15.002Z</time></trkpt><trkpt lat="45.03803678808449" lon="9.611548008649374"><ele>62.666666666666664</ele><time>2026-05-01T10:40:17.002Z</time></trkpt><trkpt lat="45.037973510201425" lon="9.61150310534558"><ele>63.0</ele><time>2026-05-01T10:40:18.002Z</time></trkpt><trkpt lat="45.03789225319722" lon="9.611458915364521"><ele>63.0</ele><time>2026-05-01T10:40:20.002Z</time></trkpt><trkpt lat="45.037823692472536" lon="9.611423818271167"><ele>63.0</ele><time>2026-05-01T10:40:22.002Z</time></trkpt><trkpt lat="45.03776076507948" lon="9.611390532382035"><ele>63.0</ele><time>2026-05-01T10:40:25.002Z</time></trkpt><trkpt lat="45.03769252335666" lon="9.611360050132602"><ele>63.0</ele><time>2026-05-01T10:40:29.002Z</time></trkpt><trkpt lat="45.03762287610549" lon="9.611293044293657"><ele>63.0</ele><time>2026-05-01T10:40:32Z</time></trkpt><trkpt lat="45.037555466939054" lon="9.611244224129285"><ele>63.0</ele><time>2026-05-01T10:40:34Z</time></trkpt><trkpt lat="45.037481512142236" lon="9.611187976704745"><ele>63.33333333333333</ele><time>2026-05-01T10:40:36Z</time></trkpt><trkpt lat="45.0374128069641" lon="9.611128520362225"><ele>63.666666666666664</ele><time>2026-05-01T10:40:39Z</time></trkpt><trkpt lat="45.03734516125059" lon="9.611119026901283"><ele>64.0</ele><time>2026-05-01T10:40:42Z</time></trkpt><trkpt lat="45.0369325091198" lon="9.611879261350916"><ele>63.99999999999999</ele><time>2026-05-01T10:40:45Z</time></trkpt><trkpt lat="45.03686719288253" lon="9.61177741514298"><ele>64.0</ele><time>2026-05-01T10:40:48Z</time></trkpt><trkpt lat="45.03679514928897" lon="9.611688530286997"><ele>64.0</ele><time>2026-05-01T10:40:51Z</time></trkpt><trkpt lat="45.036741204746804" lon="9.61162451004371"><ele>64.0</ele><time>2026-05-01T10:40:53Z</time></trkpt><trkpt lat="45.03668019796511" lon="9.61154967171091"><ele>63.99999999999999</ele><time>2026-05-01T10:40:55Z</time></trkpt><trkpt lat="45.036598179426846" lon="9.611458469881597"><ele>64.0</ele><time>2026-05-01T10:40:58Z</time></trkpt><trkpt lat="45.03652930663753" lon="9.611397446494703"><ele>64.0</ele><time>2026-05-01T10:41:00Z</time></trkpt><trkpt lat="45.03647711354087" lon="9.61130367972391"><ele>63.99999999999999</ele><time>2026-05-01T10:41:03Z</time></trkpt><trkpt lat="45.036437521138225" lon="9.611207166884185"><ele>64.0</ele><time>2026-05-01T10:41:05.001Z</time></trkpt><trkpt lat="45.03641986918297" lon="9.611113126347261"><ele>64.0</ele><time>2026-05-01T10:41:07.001Z</time></trkpt><trkpt lat="45.036411956465315" lon="9.611011033081542"><ele>63.99999999999999</ele><time>2026-05-01T10:41:09.001Z</time></trkpt><trkpt lat="45.03638971376337" lon="9.610905866156388"><ele>64.0</ele><time>2026-05-01T10:41:11.001Z</time></trkpt><trkpt lat="45.036365331489684" lon="9.610817885427396"><ele>64.0</ele><time>2026-05-01T10:41:13.001Z</time></trkpt><trkpt lat="45.03635781177259" lon="9.610723030066646"><ele>63.99999999999999</ele><time>2026-05-01T10:41:16.001Z</time></trkpt><trkpt lat="45.03631692827875" lon="9.610637328770352"><ele>64.0</ele><time>2026-05-01T10:41:18.001Z</time></trkpt><trkpt lat="45.036286609206954" lon="9.610519518739423"><ele>64.0</ele><time>2026-05-01T10:41:21.001Z</time></trkpt><trkpt lat="45.036246231406565" lon="9.610390576728122"><ele>64.0</ele><time>2026-05-01T10:41:23.001Z</time></trkpt><trkpt lat="45.036219474242664" lon="9.610289229592274"><ele>63.99999999999999</ele><time>2026-05-01T10:41:24.001Z</time></trkpt><trkpt lat="45.036195836166925" lon="9.610165430974186"><ele>64.0</ele><time>2026-05-01T10:41:25.001Z</time></trkpt><trkpt lat="45.036188085491666" lon="9.610064531149433"><ele>63.99999999999999</ele><time>2026-05-01T10:41:26.001Z</time></trkpt><trkpt lat="45.03617604737911" lon="9.609919240001496"><ele>64.0</ele><time>2026-05-01T10:41:28.001Z</time></trkpt><trkpt lat="45.03616322970849" lon="9.609794048859937"><ele>64.0</ele><time>2026-05-01T10:41:30.001Z</time></trkpt><trkpt lat="45.03613808426503" lon="9.609711281448302"><ele>64.0</ele><time>2026-05-01T10:41:31.001Z</time></trkpt><trkpt lat="45.03609357316292" lon="9.609566766386129"><ele>63.99999999999999</ele><time>2026-05-01T10:41:33.001Z</time></trkpt><trkpt lat="45.03607254516807" lon="9.60947766837472"><ele>64.0</ele><time>2026-05-01T10:41:34.001Z</time></trkpt><trkpt lat="45.03605101716951" lon="9.609389110161095"><ele>64.0</ele><time>2026-05-01T10:41:35.001Z</time></trkpt><trkpt lat="45.03602116672846" lon="9.609292505576885"><ele>64.0</ele><time>2026-05-01T10:41:36.001Z</time></trkpt><trkpt lat="45.03598148107149" lon="9.60914342791981"><ele>64.0</ele><time>2026-05-01T10:41:38.001Z</time></trkpt><trkpt lat="45.03597590044736" lon="9.609005831049036"><ele>64.0</ele><time>2026-05-01T10:41:40.001Z</time></trkpt><trkpt lat="45.0359555309116" lon="9.608853292684172"><ele>64.0</ele><time>2026-05-01T10:41:42.001Z</time></trkpt><trkpt lat="45.03592224659934" lon="9.608771131484762"><ele>64.0</ele><time>2026-05-01T10:41:44.001Z</time></trkpt><trkpt lat="45.03584158050724" lon="9.608671956366052"><ele>64.0</ele><time>2026-05-01T10:41:46.001Z</time></trkpt><trkpt lat="45.035753706343854" lon="9.608584165718678"><ele>64.0</ele><time>2026-05-01T10:41:48.001Z</time></trkpt><trkpt lat="45.03568577746238" lon="9.608505998554804"><ele>64.0</ele><time>2026-05-01T10:41:50.001Z</time></trkpt><trkpt lat="45.03552678128902" lon="9.608647529425937"><ele>63.75</ele><time>2026-05-01T10:41:54.001Z</time></trkpt><trkpt lat="45.035460211148965" lon="9.60865425646664"><ele>63.5</ele><time>2026-05-01T10:41:56.001Z</time></trkpt><trkpt lat="45.03551511408807" lon="9.608316655593542"><ele>63.25</ele><time>2026-05-01T10:41:58.001Z</time></trkpt><trkpt lat="45.035459899391626" lon="9.608255397453172"><ele>63.0</ele><time>2026-05-01T10:41:59.001Z</time></trkpt><trkpt lat="45.03535372629602" lon="9.608137603434523"><ele>63.0</ele><time>2026-05-01T10:42:01.001Z</time></trkpt><trkpt lat="45.03527593354527" lon="9.608051295967831"><ele>63.0</ele><time>2026-05-01T10:42:02.002Z</time></trkpt><trkpt lat="45.03517091562214" lon="9.607947715829468"><ele>63.0</ele><time>2026-05-01T10:42:03.002Z</time></trkpt><trkpt lat="45.035071059264304" lon="9.607842129036598"><ele>63.0</ele><time>2026-05-01T10:42:04.002Z</time></trkpt><trkpt lat="45.03495989085124" lon="9.607730131442064"><ele>63.33333333333333</ele><time>2026-05-01T10:42:05.002Z</time></trkpt><trkpt lat="45.03482740595102" lon="9.60763781540355"><ele>63.666666666666664</ele><time>2026-05-01T10:42:06.002Z</time></trkpt><trkpt lat="45.034683008284446" lon="9.607523302046992"><ele>64.0</ele><time>2026-05-01T10:42:07.002Z</time></trkpt><trkpt lat="45.034511664396945" lon="9.607387393596976"><ele>64.0</ele><time>2026-05-01T10:42:08.002Z</time></trkpt><trkpt lat="45.03434501835829" lon="9.60725010691252"><ele>64.0</ele><time>2026-05-01T10:42:09.002Z</time></trkpt><trkpt lat="45.03420395626907" lon="9.607122402325203"><ele>64.0</ele><time>2026-05-01T10:42:10.002Z</time></trkpt><trkpt lat="45.03405854665379" lon="9.607012724428822"><ele>64.66666666666666</ele><time>2026-05-01T10:42:11.002Z</time></trkpt><trkpt lat="45.03390025240482" lon="9.606831496094824"><ele>65.33333333333333</ele><time>2026-05-01T10:42:12.002Z</time></trkpt><trkpt lat="45.033699625088005" lon="9.606650551251072"><ele>66.0</ele><time>2026-05-01T10:42:13.002Z</time></trkpt><trkpt lat="45.033481178867646" lon="9.606468562185194"><ele>66.0</ele><time>2026-05-01T10:42:14.002Z</time></trkpt><trkpt lat="45.03330594052972" lon="9.606304361654816"><ele>66.0</ele><time>2026-05-01T10:42:15.002Z</time></trkpt><trkpt lat="45.03315207226157" lon="9.606131370409964"><ele>66.0</ele><time>2026-05-01T10:42:16.002Z</time></trkpt><trkpt lat="45.03301094617302" lon="9.605939479633124"><ele>65.66666666666667</ele><time>2026-05-01T10:42:17.002Z</time></trkpt><trkpt lat="45.03286496028739" lon="9.60573794507851"><ele>65.33333333333334</ele><time>2026-05-01T10:42:18.002Z</time></trkpt><trkpt lat="45.03272175860226" lon="9.605547922906755"><ele>65.0</ele><time>2026-05-01T10:42:19.002Z</time></trkpt><trkpt lat="45.03257124272538" lon="9.605357151542284"><ele>65.33333333333334</ele><time>2026-05-01T10:42:20.002Z</time></trkpt><trkpt lat="45.03242466428631" lon="9.605167279544792"><ele>65.66666666666667</ele><time>2026-05-01T10:42:21.002Z</time></trkpt><trkpt lat="45.03226185570573" lon="9.604971382262868"><ele>66.0</ele><time>2026-05-01T10:42:22.002Z</time></trkpt><trkpt lat="45.03210461261884" lon="9.604796971694197"><ele>66.0</ele><time>2026-05-01T10:42:23.002Z</time></trkpt><trkpt lat="45.031956184180146" lon="9.604621470071665"><ele>66.0</ele><time>2026-05-01T10:42:24.002Z</time></trkpt><trkpt lat="45.03181936994367" lon="9.604458320514217"><ele>66.0</ele><time>2026-05-01T10:42:25.002Z</time></trkpt><trkpt lat="45.031672576601025" lon="9.604313128164046"><ele>66.33333333333333</ele><time>2026-05-01T10:42:26.002Z</time></trkpt><trkpt lat="45.031518733859315" lon="9.604181342528582"><ele>66.66666666666666</ele><time>2026-05-01T10:42:27.002Z</time></trkpt><trkpt lat="45.031368825956264" lon="9.604083562064838"><ele>67.0</ele><time>2026-05-01T10:42:28.002Z</time></trkpt><trkpt lat="45.03122728364964" lon="9.603999901060906"><ele>67.0</ele><time>2026-05-01T10:42:29.002Z</time></trkpt><trkpt lat="45.031088415115065" lon="9.60389265370849"><ele>67.0</ele><time>2026-05-01T10:42:30.002Z</time></trkpt><trkpt lat="45.03094606293859" lon="9.6037770193735"><ele>67.0</ele><time>2026-05-01T10:42:31.002Z</time></trkpt><trkpt lat="45.0308154225159" lon="9.603680789881075"><ele>66.75</ele><time>2026-05-01T10:42:32.002Z</time></trkpt><trkpt lat="45.030700832032835" lon="9.603593736998471"><ele>66.5</ele><time>2026-05-01T10:42:33.002Z</time></trkpt><trkpt lat="45.03057011174492" lon="9.603521149579144"><ele>66.25</ele><time>2026-05-01T10:42:34.002Z</time></trkpt><trkpt lat="45.030446085500394" lon="9.603442656155154"><ele>66.0</ele><time>2026-05-01T10:42:35.002Z</time></trkpt><trkpt lat="45.03033608672619" lon="9.603367673422898"><ele>66.0</ele><time>2026-05-01T10:42:36.002Z</time></trkpt><trkpt lat="45.030241878768294" lon="9.603302416294026"><ele>66.0</ele><time>2026-05-01T10:42:37Z</time></trkpt><trkpt lat="45.030163150538634" lon="9.603270577177728"><ele>66.0</ele><time>2026-05-01T10:42:38Z</time></trkpt><trkpt lat="45.03010471672952" lon="9.603211640246524"><ele>66.0</ele><time>2026-05-01T10:42:39Z</time></trkpt><trkpt lat="45.03004429345925" lon="9.603171684469306"><ele>66.0</ele><time>2026-05-01T10:42:41Z</time></trkpt><trkpt lat="45.029934431759486" lon="9.603097706437225"><ele>66.0</ele><time>2026-05-01T10:42:44Z</time></trkpt><trkpt lat="45.02982676718244" lon="9.603027378274284"><ele>66.75</ele><time>2026-05-01T10:42:45Z</time></trkpt><trkpt lat="45.02971421904064" lon="9.602963941235084"><ele>67.5</ele><time>2026-05-01T10:42:46Z</time></trkpt><trkpt lat="45.02957747838028" lon="9.602895149526912"><ele>68.25</ele><time>2026-05-01T10:42:47Z</time></trkpt><trkpt lat="45.02942788498323" lon="9.602827816167272"><ele>69.0</ele><time>2026-05-01T10:42:48Z</time></trkpt><trkpt lat="45.029289846091075" lon="9.60276190463326"><ele>69.0</ele><time>2026-05-01T10:42:49Z</time></trkpt><trkpt lat="45.02917248079243" lon="9.602700849614621"><ele>69.0</ele><time>2026-05-01T10:42:50Z</time></trkpt><trkpt lat="45.02906646940292" lon="9.602688499190204"><ele>69.0</ele><time>2026-05-01T10:42:51Z</time></trkpt><trkpt lat="45.02896674869565" lon="9.60256530786957"><ele>69.0</ele><time>2026-05-01T10:42:52Z</time></trkpt><trkpt lat="45.02887596676258" lon="9.602461858825194"><ele>69.0</ele><time>2026-05-01T10:42:53Z</time></trkpt><trkpt lat="45.028780465417455" lon="9.602366101866062"><ele>69.0</ele><time>2026-05-01T10:42:54Z</time></trkpt><trkpt lat="45.028671033847814" lon="9.602262966284068"><ele>69.0</ele><time>2026-05-01T10:42:55Z</time></trkpt><trkpt lat="45.028562201151274" lon="9.602164388827818"><ele>69.0</ele><time>2026-05-01T10:42:56Z</time></trkpt><trkpt lat="45.02844613667149" lon="9.60206182466528"><ele>69.25</ele><time>2026-05-01T10:42:57Z</time></trkpt><trkpt lat="45.028324530766" lon="9.601958789089952"><ele>69.5</ele><time>2026-05-01T10:42:58Z</time></trkpt><trkpt lat="45.02820069278295" lon="9.6018613231425"><ele>69.75</ele><time>2026-05-01T10:42:59Z</time></trkpt><trkpt lat="45.02807882217194" lon="9.601771921978584"><ele>70.0</ele><time>2026-05-01T10:43:00Z</time></trkpt><trkpt lat="45.02796761415893" lon="9.601686028571825"><ele>70.0</ele><time>2026-05-01T10:43:01Z</time></trkpt><trkpt lat="45.02786117093484" lon="9.601594608350839"><ele>70.0</ele><time>2026-05-01T10:43:02Z</time></trkpt><trkpt lat="45.02777325947263" lon="9.601503583314276"><ele>70.0</ele><time>2026-05-01T10:43:03Z</time></trkpt><trkpt lat="45.02767073530433" lon="9.601373478164824"><ele>70.0</ele><time>2026-05-01T10:43:04Z</time></trkpt><trkpt lat="45.02756065429801" lon="9.601226570753907"><ele>69.5</ele><time>2026-05-01T10:43:05Z</time></trkpt><trkpt lat="45.02744900552334" lon="9.601113086689601"><ele>69.0</ele><time>2026-05-01T10:43:06Z</time></trkpt><trkpt lat="45.027326504296475" lon="9.600993743070589"><ele>68.5</ele><time>2026-05-01T10:43:07Z</time></trkpt><trkpt lat="45.02719493390385" lon="9.600906994610575"><ele>68.0</ele><time>2026-05-01T10:43:08Z</time></trkpt><trkpt lat="45.02703426237036" lon="9.600818914472601"><ele>68.0</ele><time>2026-05-01T10:43:09Z</time></trkpt><trkpt lat="45.026872415365084" lon="9.600765056289598"><ele>68.0</ele><time>2026-05-01T10:43:10Z</time></trkpt><trkpt lat="45.02672231754974" lon="9.600728679752402"><ele>68.0</ele><time>2026-05-01T10:43:11Z</time></trkpt><trkpt lat="45.0265565173444" lon="9.600714699753176"><ele>68.0</ele><time>2026-05-01T10:43:12Z</time></trkpt><trkpt lat="45.02641629082518" lon="9.600737903559397"><ele>68.0</ele><time>2026-05-01T10:43:13Z</time></trkpt><trkpt lat="45.02627709896619" lon="9.600788213309457"><ele>68.0</ele><time>2026-05-01T10:43:14Z</time></trkpt><trkpt lat="45.0261425700074" lon="9.600867288774825"><ele>68.0</ele><time>2026-05-01T10:43:15Z</time></trkpt><trkpt lat="45.02598309142553" lon="9.600960444664949"><ele>68.0</ele><time>2026-05-01T10:43:16Z</time></trkpt><trkpt lat="45.02582786631617" lon="9.60106531490761"><ele>68.0</ele><time>2026-05-01T10:43:17Z</time></trkpt><trkpt lat="45.02569220576839" lon="9.601167637376648"><ele>68.0</ele><time>2026-05-01T10:43:18Z</time></trkpt><trkpt lat="45.025567420515216" lon="9.601251205674245"><ele>68.5</ele><time>2026-05-01T10:43:19Z</time></trkpt><trkpt lat="45.025443945542094" lon="9.601309955110018"><ele>69.0</ele><time>2026-05-01T10:43:20Z</time></trkpt><trkpt lat="45.02531078632636" lon="9.6013424238253"><ele>69.5</ele><time>2026-05-01T10:43:21.001Z</time></trkpt><trkpt lat="45.02516815936363" lon="9.601349887646869"><ele>70.0</ele><time>2026-05-01T10:43:22.001Z</time></trkpt><trkpt lat="45.02501889806149" lon="9.601350753101608"><ele>69.66666666666666</ele><time>2026-05-01T10:43:23.001Z</time></trkpt><trkpt lat="45.024885275389884" lon="9.601354276947397"><ele>69.33333333333333</ele><time>2026-05-01T10:43:24.001Z</time></trkpt><trkpt lat="45.024718809789476" lon="9.601359609968693"><ele>69.0</ele><time>2026-05-01T10:43:25.001Z</time></trkpt><trkpt lat="45.02455840151301" lon="9.6013766004882"><ele>69.0</ele><time>2026-05-01T10:43:26.001Z</time></trkpt><trkpt lat="45.02438508262085" lon="9.601391476005812"><ele>69.0</ele><time>2026-05-01T10:43:27.001Z</time></trkpt><trkpt lat="45.02420879141992" lon="9.601390892953695"><ele>69.0</ele><time>2026-05-01T10:43:28.001Z</time></trkpt><trkpt lat="45.0240474689812" lon="9.601363699427658"><ele>69.0</ele><time>2026-05-01T10:43:29.001Z</time></trkpt><trkpt lat="45.02390768875704" lon="9.601342662294028"><ele>69.0</ele><time>2026-05-01T10:43:30.001Z</time></trkpt><trkpt lat="45.02378007061408" lon="9.601352044750412"><ele>69.0</ele><time>2026-05-01T10:43:31.001Z</time></trkpt><trkpt lat="45.02365922534863" lon="9.601384628570012"><ele>69.0</ele><time>2026-05-01T10:43:32.001Z</time></trkpt><trkpt lat="45.023556809045374" lon="9.601436141120082"><ele>69.0</ele><time>2026-05-01T10:43:33.001Z</time></trkpt><trkpt lat="45.02347439326842" lon="9.601499858221581"><ele>69.0</ele><time>2026-05-01T10:43:34.001Z</time></trkpt><trkpt lat="45.023394974560986" lon="9.601521896630286"><ele>69.0</ele><time>2026-05-01T10:43:36.001Z</time></trkpt><trkpt lat="45.02345029762183" lon="9.60147338319784"><ele>69.0</ele><time>2026-05-01T10:44:00.001Z</time></trkpt><trkpt lat="45.02351458867457" lon="9.601445542456496"><ele>69.0</ele><time>2026-05-01T10:44:03.001Z</time></trkpt><trkpt lat="45.02360627076741" lon="9.601395463108691"><ele>69.0</ele><time>2026-05-01T10:44:05.001Z</time></trkpt><trkpt lat="45.02368005778288" lon="9.601409640214253"><ele>69.0</ele><time>2026-05-01T10:44:06.001Z</time></trkpt><trkpt lat="45.02377470981296" lon="9.601371422523536"><ele>69.0</ele><time>2026-05-01T10:44:08.001Z</time></trkpt><trkpt lat="45.023845642958214" lon="9.601355306796352"><ele>69.0</ele><time>2026-05-01T10:44:14.001Z</time></trkpt><trkpt lat="45.02368184250954" lon="9.60175238372007"><ele>69.0</ele><time>2026-05-01T10:44:26.002Z</time></trkpt><trkpt lat="45.02360692749631" lon="9.60179622846767"><ele>69.0</ele><time>2026-05-01T10:44:27.002Z</time></trkpt><trkpt lat="45.02354398167122" lon="9.601821843660659"><ele>69.0</ele><time>2026-05-01T10:44:29.002Z</time></trkpt><trkpt lat="45.02347899985485" lon="9.601810346868051"><ele>69.0</ele><time>2026-05-01T10:44:34.002Z</time></trkpt><trkpt lat="45.02343385989812" lon="9.60190373734353"><ele>69.0</ele><time>2026-05-01T10:44:36.002Z</time></trkpt><trkpt lat="45.023403124630285" lon="9.60199151505536"><ele>69.0</ele><time>2026-05-01T10:44:37.002Z</time></trkpt><trkpt lat="45.02337889750398" lon="9.602101050650448"><ele>69.0</ele><time>2026-05-01T10:44:38.002Z</time></trkpt><trkpt lat="45.02337515065696" lon="9.602238569818237"><ele>69.16666666666667</ele><time>2026-05-01T10:44:39.002Z</time></trkpt><trkpt lat="45.023386438084714" lon="9.602374843232749"><ele>69.33333333333333</ele><time>2026-05-01T10:44:40.002Z</time></trkpt><trkpt lat="45.023388432861026" lon="9.602508580953257"><ele>69.5</ele><time>2026-05-01T10:44:42.002Z</time></trkpt><trkpt lat="45.023342082239395" lon="9.602572617643785"><ele>69.66666666666666</ele><time>2026-05-01T10:44:44Z</time></trkpt><trkpt lat="45.02326485979789" lon="9.60262472128272"><ele>69.83333333333333</ele><time>2026-05-01T10:44:46Z</time></trkpt><trkpt lat="45.02319972212311" lon="9.602671620071087"><ele>70.0</ele><time>2026-05-01T10:44:47Z</time></trkpt><trkpt lat="45.02311988239485" lon="9.60271479565364"><ele>70.0</ele><time>2026-05-01T10:44:48Z</time></trkpt><trkpt lat="45.02303231022145" lon="9.602745079052724"><ele>70.0</ele><time>2026-05-01T10:44:49Z</time></trkpt><trkpt lat="45.02293123969696" lon="9.602776366970318"><ele>70.0</ele><time>2026-05-01T10:44:50Z</time></trkpt><trkpt lat="45.02282960432157" lon="9.602811627313523"><ele>70.0</ele><time>2026-05-01T10:44:51Z</time></trkpt><trkpt lat="45.02274228869898" lon="9.602831947744033"><ele>70.0</ele><time>2026-05-01T10:44:52Z</time></trkpt><trkpt lat="45.02264987657586" lon="9.602849572250385"><ele>70.25</ele><time>2026-05-01T10:44:53Z</time></trkpt><trkpt lat="45.022565381343256" lon="9.60285443404608"><ele>70.5</ele><time>2026-05-01T10:44:54Z</time></trkpt><trkpt lat="45.022465216211216" lon="9.602839067020025"><ele>70.75</ele><time>2026-05-01T10:44:55Z</time></trkpt><trkpt lat="45.022343726908296" lon="9.602807123398376"><ele>71.0</ele><time>2026-05-01T10:44:56Z</time></trkpt><trkpt lat="45.02219174004954" lon="9.602763774187856"><ele>71.0</ele><time>2026-05-01T10:44:57Z</time></trkpt><trkpt lat="45.02200847788065" lon="9.602733570181355"><ele>71.0</ele><time>2026-05-01T10:44:58Z</time></trkpt><trkpt lat="45.021810882877084" lon="9.602708068179163"><ele>71.0</ele><time>2026-05-01T10:44:59Z</time></trkpt><trkpt lat="45.02160481591857" lon="9.602710560618467"><ele>71.0</ele><time>2026-05-01T10:45:00Z</time></trkpt><trkpt lat="45.02141592215758" lon="9.602739430268928"><ele>71.0</ele><time>2026-05-01T10:45:01Z</time></trkpt><trkpt lat="45.02126938796463" lon="9.602791216152115"><ele>71.0</ele><time>2026-05-01T10:45:02Z</time></trkpt><trkpt lat="45.0211210787434" lon="9.602861392045062"><ele>71.0</ele><time>2026-05-01T10:45:03Z</time></trkpt><trkpt lat="45.020965263283465" lon="9.602929003315662"><ele>71.0</ele><time>2026-05-01T10:45:04Z</time></trkpt><trkpt lat="45.02082626415683" lon="9.602955558038904"><ele>71.0</ele><time>2026-05-01T10:45:05Z</time></trkpt><trkpt lat="45.02069373453602" lon="9.602952009830185"><ele>71.0</ele><time>2026-05-01T10:45:06Z</time></trkpt><trkpt lat="45.02055002785276" lon="9.602922742548508"><ele>70.66666666666667</ele><time>2026-05-01T10:45:07Z</time></trkpt><trkpt lat="45.02039164113008" lon="9.60287823046899"><ele>70.33333333333333</ele><time>2026-05-01T10:45:08Z</time></trkpt><trkpt lat="45.02021298121704" lon="9.602836639170784"><ele>70.0</ele><time>2026-05-01T10:45:09Z</time></trkpt><trkpt lat="45.02000387143005" lon="9.602814546837317"><ele>69.66666666666666</ele><time>2026-05-01T10:45:10Z</time></trkpt><trkpt lat="45.019786624141794" lon="9.60279546684719"><ele>69.33333333333333</ele><time>2026-05-01T10:45:11Z</time></trkpt><trkpt lat="45.01959227014355" lon="9.602748584496146"><ele>69.0</ele><time>2026-05-01T10:45:12Z</time></trkpt><trkpt lat="45.01942468476602" lon="9.602706191348716"><ele>69.0</ele><time>2026-05-01T10:45:13Z</time></trkpt><trkpt lat="45.01926043717177" lon="9.602700512522743"><ele>69.0</ele><time>2026-05-01T10:45:14Z</time></trkpt><trkpt lat="45.01905887717726" lon="9.60271204587086"><ele>69.0</ele><time>2026-05-01T10:45:15Z</time></trkpt><trkpt lat="45.018841455580414" lon="9.602753619631569"><ele>70.0</ele><time>2026-05-01T10:45:16Z</time></trkpt><trkpt lat="45.01861553001866" lon="9.602797284204156"><ele>71.0</ele><time>2026-05-01T10:45:17Z</time></trkpt><trkpt lat="45.01841480224064" lon="9.602826327545765"><ele>72.0</ele><time>2026-05-01T10:45:18Z</time></trkpt><trkpt lat="45.01822786721224" lon="9.602846225794686"><ele>72.5</ele><time>2026-05-01T10:45:19Z</time></trkpt><trkpt lat="45.018048522336045" lon="9.602854435367439"><ele>73.0</ele><time>2026-05-01T10:45:20Z</time></trkpt><trkpt lat="45.01794254044018" lon="9.602853261284023"><ele>73.5</ele><time>2026-05-01T10:45:21Z</time></trkpt><trkpt lat="45.01785335898077" lon="9.602837024512533"><ele>74.0</ele><time>2026-05-01T10:45:22Z</time></trkpt><trkpt lat="45.01775543620311" lon="9.602790533969113"><ele>74.0</ele><time>2026-05-01T10:45:23Z</time></trkpt><trkpt lat="45.017654236092746" lon="9.60271342189476"><ele>74.0</ele><time>2026-05-01T10:45:24Z</time></trkpt><trkpt lat="45.01752030513543" lon="9.602610381674149"><ele>74.0</ele><time>2026-05-01T10:45:25.001Z</time></trkpt><trkpt lat="45.017367962034676" lon="9.60251405772881"><ele>74.0</ele><time>2026-05-01T10:45:26.001Z</time></trkpt><trkpt lat="45.01719747369089" lon="9.60242713395938"><ele>73.66666666666667</ele><time>2026-05-01T10:45:27.001Z</time></trkpt><trkpt lat="45.016991158214765" lon="9.60233795580299"><ele>73.33333333333333</ele><time>2026-05-01T10:45:28.001Z</time></trkpt><trkpt lat="45.0167976857012" lon="9.602272559928549"><ele>73.0</ele><time>2026-05-01T10:45:29.001Z</time></trkpt><trkpt lat="45.016630167475384" lon="9.602227188229739"><ele>73.0</ele><time>2026-05-01T10:45:30.001Z</time></trkpt><trkpt lat="45.01647220475496" lon="9.602193070406738"><ele>73.0</ele><time>2026-05-01T10:45:31.001Z</time></trkpt><trkpt lat="45.01633718870772" lon="9.602170328547635"><ele>73.0</ele><time>2026-05-01T10:45:32.001Z</time></trkpt><trkpt lat="45.016209835469766" lon="9.60214417956716"><ele>73.0</ele><time>2026-05-01T10:45:33.001Z</time></trkpt><trkpt lat="45.01609376858345" lon="9.602139707258253"><ele>73.0</ele><time>2026-05-01T10:45:34.001Z</time></trkpt><trkpt lat="45.015991179687575" lon="9.602178446023933"><ele>73.0</ele><time>2026-05-01T10:45:35.001Z</time></trkpt><trkpt lat="45.0158943838628" lon="9.60223219829419"><ele>73.0</ele><time>2026-05-01T10:45:36.001Z</time></trkpt><trkpt lat="45.01581386588249" lon="9.602254374292892"><ele>73.0</ele><time>2026-05-01T10:45:37.001Z</time></trkpt><trkpt lat="45.01572425931921" lon="9.602237729834847"><ele>73.0</ele><time>2026-05-01T10:45:38.001Z</time></trkpt><trkpt lat="45.01562748063007" lon="9.602195394011487"><ele>73.5</ele><time>2026-05-01T10:45:39.001Z</time></trkpt><trkpt lat="45.01552839679538" lon="9.602127690721158"><ele>74.0</ele><time>2026-05-01T10:45:40.001Z</time></trkpt><trkpt lat="45.01544355646418" lon="9.60203799246541"><ele>74.5</ele><time>2026-05-01T10:45:41.001Z</time></trkpt><trkpt lat="45.015351262367545" lon="9.601908806150142"><ele>75.0</ele><time>2026-05-01T10:45:42.001Z</time></trkpt><trkpt lat="45.01525167015889" lon="9.601765522442081"><ele>75.33333333333333</ele><time>2026-05-01T10:45:43.001Z</time></trkpt><trkpt lat="45.01514229721211" lon="9.60160726318237"><ele>75.66666666666666</ele><time>2026-05-01T10:45:44.001Z</time></trkpt><trkpt lat="45.01502622873674" lon="9.601428686062453"><ele>76.0</ele><time>2026-05-01T10:45:45.001Z</time></trkpt><trkpt lat="45.01491654288709" lon="9.601244052805301"><ele>75.75</ele><time>2026-05-01T10:45:46.001Z</time></trkpt><trkpt lat="45.01481582349583" lon="9.60108736288819"><ele>75.5</ele><time>2026-05-01T10:45:47.001Z</time></trkpt><trkpt lat="45.014726855343056" lon="9.600959375616897"><ele>75.25</ele><time>2026-05-01T10:45:48.001Z</time></trkpt><trkpt lat="45.01465142500284" lon="9.600829575549064"><ele>75.0</ele><time>2026-05-01T10:45:49.001Z</time></trkpt><trkpt lat="45.01457912727987" lon="9.600707652797306"><ele>75.0</ele><time>2026-05-01T10:45:50.001Z</time></trkpt><trkpt lat="45.01448029051341" lon="9.6006055384981"><ele>75.0</ele><time>2026-05-01T10:45:51.001Z</time></trkpt><trkpt lat="45.01435436071382" lon="9.600512665336705"><ele>75.0</ele><time>2026-05-01T10:45:52.001Z</time></trkpt><trkpt lat="45.01422238936295" lon="9.600439851966545"><ele>75.0</ele><time>2026-05-01T10:45:53.001Z</time></trkpt><trkpt lat="45.01408526479785" lon="9.600376270430978"><ele>74.66666666666667</ele><time>2026-05-01T10:45:54.001Z</time></trkpt><trkpt lat="45.013934909697234" lon="9.600320519287179"><ele>74.33333333333334</ele><time>2026-05-01T10:45:55.001Z</time></trkpt><trkpt lat="45.0137697331498" lon="9.600265108638897"><ele>74.0</ele><time>2026-05-01T10:45:56.001Z</time></trkpt><trkpt lat="45.013604628996525" lon="9.600201045990099"><ele>74.0</ele><time>2026-05-01T10:45:57.001Z</time></trkpt><trkpt lat="45.01347959923159" lon="9.600133050877256"><ele>74.0</ele><time>2026-05-01T10:45:58.001Z</time></trkpt><trkpt lat="45.0133843806764" lon="9.600078554522266"><ele>74.0</ele><time>2026-05-01T10:45:59.001Z</time></trkpt><trkpt lat="45.01331527845212" lon="9.60003656361992"><ele>74.0</ele><time>2026-05-01T10:46:00.001Z</time></trkpt><trkpt lat="45.013218639526926" lon="9.599947255964354"><ele>74.0</ele><time>2026-05-01T10:46:02.001Z</time></trkpt><trkpt lat="45.013131574118965" lon="9.599934017605728"><ele>74.0</ele><time>2026-05-01T10:46:05.001Z</time></trkpt><trkpt lat="45.013206923998744" lon="9.599891844355486"><ele>74.0</ele><time>2026-05-01T10:48:23.002Z</time></trkpt><trkpt lat="45.0132909484154" lon="9.599977066688579"><ele>74.0</ele><time>2026-05-01T10:48:24.002Z</time></trkpt><trkpt lat="45.01338996285212" lon="9.600076199727711"><ele>74.0</ele><time>2026-05-01T10:48:25.002Z</time></trkpt><trkpt lat="45.01352810358785" lon="9.600161802280008"><ele>74.0</ele><time>2026-05-01T10:48:26.002Z</time></trkpt><trkpt lat="45.01369719334126" lon="9.600234887392668"><ele>74.0</ele><time>2026-05-01T10:48:27.002Z</time></trkpt><trkpt lat="45.013900183751105" lon="9.600312123560382"><ele>74.0</ele><time>2026-05-01T10:48:28.002Z</time></trkpt><trkpt lat="45.01408479882365" lon="9.600400513405098"><ele>74.33333333333334</ele><time>2026-05-01T10:48:29.002Z</time></trkpt><trkpt lat="45.01424431808145" lon="9.600491038965997"><ele>74.66666666666667</ele><time>2026-05-01T10:48:30.002Z</time></trkpt><trkpt lat="45.014381900262904" lon="9.600573791001478"><ele>75.0</ele><time>2026-05-01T10:48:31.002Z</time></trkpt><trkpt lat="45.01450087438716" lon="9.60065763596403"><ele>75.0</ele><time>2026-05-01T10:48:32.002Z</time></trkpt><trkpt lat="45.01458374827551" lon="9.600733562364313"><ele>75.0</ele><time>2026-05-01T10:48:33.002Z</time></trkpt><trkpt lat="45.01463312847981" lon="9.600797539254303"><ele>75.0</ele><time>2026-05-01T10:48:34.002Z</time></trkpt><trkpt lat="45.01465568528739" lon="9.600709910537804"><ele>75.0</ele><time>2026-05-01T10:48:39.002Z</time></trkpt><trkpt lat="45.0145867821496" lon="9.600670266986361"><ele>75.0</ele><time>2026-05-01T10:48:41.002Z</time></trkpt><trkpt lat="45.01446402029956" lon="9.600631223108428"><ele>75.0</ele><time>2026-05-01T10:49:01Z</time></trkpt><trkpt lat="45.014398074565975" lon="9.600585074527604"><ele>75.0</ele><time>2026-05-01T10:49:02Z</time></trkpt><trkpt lat="45.01431536747446" lon="9.600520245701448"><ele>75.0</ele><time>2026-05-01T10:49:03Z</time></trkpt><trkpt lat="45.0141958685698" lon="9.60044258653419"><ele>75.0</ele><time>2026-05-01T10:49:04Z</time></trkpt><trkpt lat="45.01406232278966" lon="9.60038116775263"><ele>75.0</ele><time>2026-05-01T10:49:05Z</time></trkpt><trkpt lat="45.01390982848251" lon="9.600328995239536"><ele>74.75</ele><time>2026-05-01T10:49:06Z</time></trkpt><trkpt lat="45.01375850760687" lon="9.600273038138612"><ele>74.5</ele><time>2026-05-01T10:49:07Z</time></trkpt><trkpt lat="45.01361565216097" lon="9.600194184743067"><ele>74.25</ele><time>2026-05-01T10:49:08Z</time></trkpt><trkpt lat="45.01349632043336" lon="9.60012569082268"><ele>74.0</ele><time>2026-05-01T10:49:09Z</time></trkpt><trkpt lat="45.01338924142567" lon="9.600058591737522"><ele>74.0</ele><time>2026-05-01T10:49:10Z</time></trkpt><trkpt lat="45.013294540934965" lon="9.600001524846084"><ele>74.0</ele><time>2026-05-01T10:49:11Z</time></trkpt><trkpt lat="45.01320910797408" lon="9.599954307496008"><ele>74.0</ele><time>2026-05-01T10:49:12Z</time></trkpt><trkpt lat="45.01313701433533" lon="9.599920928770638"><ele>74.0</ele><time>2026-05-01T10:49:13Z</time></trkpt><trkpt lat="45.013038400918504" lon="9.599889078835872"><ele>74.0</ele><time>2026-05-01T10:49:14Z</time></trkpt><trkpt lat="45.01295853687389" lon="9.599887308926998"><ele>74.0</ele><time>2026-05-01T10:49:15Z</time></trkpt><trkpt lat="45.012870636124354" lon="9.599865595073812"><ele>74.0</ele><time>2026-05-01T10:49:16Z</time></trkpt><trkpt lat="45.01276772008961" lon="9.599793921522966"><ele>74.0</ele><time>2026-05-01T10:49:18Z</time></trkpt><trkpt lat="45.01269604264957" lon="9.599746272236894"><ele>74.0</ele><time>2026-05-01T10:49:19Z</time></trkpt><trkpt lat="45.01262275812256" lon="9.599749245379474"><ele>74.0</ele><time>2026-05-01T10:49:20Z</time></trkpt><trkpt lat="45.01253238468299" lon="9.599778532832053"><ele>74.0</ele><time>2026-05-01T10:49:21Z</time></trkpt><trkpt lat="45.01244138201896" lon="9.59979632376471"><ele>74.0</ele><time>2026-05-01T10:49:22Z</time></trkpt><trkpt lat="45.01236181468589" lon="9.599804827447842"><ele>74.0</ele><time>2026-05-01T10:49:23.001Z</time></trkpt><trkpt lat="45.01226698043603" lon="9.599834989492443"><ele>74.0</ele><time>2026-05-01T10:49:25.001Z</time></trkpt><trkpt lat="45.01216701147486" lon="9.599910566806994"><ele>74.0</ele><time>2026-05-01T10:49:27.001Z</time></trkpt><trkpt lat="45.0121007505737" lon="9.599889220851091"><ele>74.0</ele><time>2026-05-01T10:49:28.001Z</time></trkpt><trkpt lat="45.012021481923064" lon="9.59984775341889"><ele>74.0</ele><time>2026-05-01T10:49:29.001Z</time></trkpt><trkpt lat="45.01192461577122" lon="9.599784736137025"><ele>74.0</ele><time>2026-05-01T10:49:31.001Z</time></trkpt><trkpt lat="45.01185585736821" lon="9.599749083792"><ele>74.0</ele><time>2026-05-01T10:49:32.001Z</time></trkpt><trkpt lat="45.01177537558317" lon="9.59973445703625"><ele>74.0</ele><time>2026-05-01T10:49:33.001Z</time></trkpt><trkpt lat="45.011671782686605" lon="9.599740193751526"><ele>74.0</ele><time>2026-05-01T10:49:34.001Z</time></trkpt><trkpt lat="45.01156337892273" lon="9.599743712115822"><ele>74.0</ele><time>2026-05-01T10:49:35.001Z</time></trkpt><trkpt lat="45.011494370140575" lon="9.59974367602446"><ele>74.0</ele><time>2026-05-01T10:49:36.001Z</time></trkpt><trkpt lat="45.011419667557675" lon="9.599710958858752"><ele>74.33333333333334</ele><time>2026-05-01T10:49:37.001Z</time></trkpt><trkpt lat="45.01134153137456" lon="9.599675861463986"><ele>74.66666666666667</ele><time>2026-05-01T10:49:38.001Z</time></trkpt><trkpt lat="45.01126494748592" lon="9.59964460430276"><ele>75.0</ele><time>2026-05-01T10:49:39.001Z</time></trkpt><trkpt lat="45.01117228225953" lon="9.599575367509452"><ele>75.33333333333333</ele><time>2026-05-01T10:49:41.001Z</time></trkpt><trkpt lat="45.01108973269513" lon="9.599603238752696"><ele>75.66666666666666</ele><time>2026-05-01T10:49:44.001Z</time></trkpt><trkpt lat="45.01100504390681" lon="9.599622071819953"><ele>76.0</ele><time>2026-05-01T10:49:46.001Z</time></trkpt><trkpt lat="45.010942253720195" lon="9.5995670725764"><ele>76.0</ele><time>2026-05-01T10:49:50.001Z</time></trkpt><trkpt lat="45.01084080939422" lon="9.599629021095721"><ele>76.0</ele><time>2026-05-01T10:49:53.001Z</time></trkpt><trkpt lat="45.01079081499863" lon="9.599712461943353"><ele>76.0</ele><time>2026-05-01T10:49:54.001Z</time></trkpt><trkpt lat="45.01071602138268" lon="9.599822184513355"><ele>76.0</ele><time>2026-05-01T10:49:55.001Z</time></trkpt><trkpt lat="45.010651119495634" lon="9.59990264462264"><ele>76.0</ele><time>2026-05-01T10:49:56.001Z</time></trkpt><trkpt lat="45.010590436616305" lon="9.59992994320599"><ele>76.0</ele><time>2026-05-01T10:49:57.001Z</time></trkpt><trkpt lat="45.010500807473505" lon="9.599942412697372"><ele>76.16666666666666</ele><time>2026-05-01T10:49:58.001Z</time></trkpt><trkpt lat="45.010430456384235" lon="9.599940154060558"><ele>76.33333333333333</ele><time>2026-05-01T10:49:59.001Z</time></trkpt><trkpt lat="45.01034153827636" lon="9.599927842293894"><ele>76.5</ele><time>2026-05-01T10:50:00.001Z</time></trkpt><trkpt lat="45.0102454283133" lon="9.599929494800124"><ele>76.66666666666667</ele><time>2026-05-01T10:50:01.001Z</time></trkpt><trkpt lat="45.01015086208628" lon="9.599936404748245"><ele>76.83333333333334</ele><time>2026-05-01T10:50:02.001Z</time></trkpt><trkpt lat="45.0100672147693" lon="9.599935241689966"><ele>77.0</ele><time>2026-05-01T10:50:03.001Z</time></trkpt><trkpt lat="45.00995652034554" lon="9.599937522853722"><ele>77.0</ele><time>2026-05-01T10:50:05.001Z</time></trkpt><trkpt lat="45.00987764107604" lon="9.59987823489205"><ele>77.0</ele><time>2026-05-01T10:50:08.001Z</time></trkpt><trkpt lat="45.00980842580723" lon="9.599824361865526"><ele>77.0</ele><time>2026-05-01T10:50:10.001Z</time></trkpt><trkpt lat="45.00976058585512" lon="9.599715329043347"><ele>77.0</ele><time>2026-05-01T10:50:12.001Z</time></trkpt><trkpt lat="45.009749942766646" lon="9.59952221360251"><ele>77.0</ele><time>2026-05-01T10:50:14.001Z</time></trkpt><trkpt lat="45.00974354533093" lon="9.599370905850034"><ele>77.0</ele><time>2026-05-01T10:50:16.001Z</time></trkpt><trkpt lat="45.009718978705756" lon="9.599272455298635"><ele>77.0</ele><time>2026-05-01T10:50:18.001Z</time></trkpt><trkpt lat="45.00970474803611" lon="9.599173982496048"><ele>77.0</ele><time>2026-05-01T10:50:20.001Z</time></trkpt><trkpt lat="45.00969353751521" lon="9.599079033726545"><ele>77.0</ele><time>2026-05-01T10:50:22.001Z</time></trkpt><trkpt lat="45.009635245648354" lon="9.599003304811466"><ele>77.0</ele><time>2026-05-01T10:50:25.001Z</time></trkpt><trkpt lat="45.00957183510653" lon="9.599040680996268"><ele>77.0</ele><time>2026-05-01T10:50:29.001Z</time></trkpt><trkpt lat="45.009510388714574" lon="9.599081717992167"><ele>77.0</ele><time>2026-05-01T10:50:34.002Z</time></trkpt><trkpt lat="45.009403126138864" lon="9.599075337481702"><ele>77.0</ele><time>2026-05-01T10:50:36.002Z</time></trkpt><trkpt lat="45.009318302233446" lon="9.59907262120429"><ele>77.0</ele><time>2026-05-01T10:50:37.002Z</time></trkpt><trkpt lat="45.00923287443373" lon="9.599102500143507"><ele>77.0</ele><time>2026-05-01T10:50:38.002Z</time></trkpt><trkpt lat="45.00914756167374" lon="9.599140785327426"><ele>77.0</ele><time>2026-05-01T10:50:39.002Z</time></trkpt><trkpt lat="45.00905712995996" lon="9.599183825734693"><ele>77.0</ele><time>2026-05-01T10:50:41.002Z</time></trkpt><trkpt lat="45.009012410379704" lon="9.599112750523684"><ele>77.0</ele><time>2026-05-01T10:50:44.002Z</time></trkpt><trkpt lat="45.00907116352159" lon="9.599025822430782"><ele>77.0</ele><time>2026-05-01T10:50:47.002Z</time></trkpt><trkpt lat="45.00916769282404" lon="9.5990541261543"><ele>77.0</ele><time>2026-05-01T10:50:49.002Z</time></trkpt><trkpt lat="45.00924866004249" lon="9.599080801799438"><ele>77.0</ele><time>2026-05-01T10:50:50.002Z</time></trkpt><trkpt lat="45.009373265269396" lon="9.59908239452609"><ele>77.0</ele><time>2026-05-01T10:50:51.002Z</time></trkpt><trkpt lat="45.00947960868665" lon="9.599061108725019"><ele>77.0</ele><time>2026-05-01T10:50:52.002Z</time></trkpt><trkpt lat="45.00955748072718" lon="9.599057551960666"><ele>77.0</ele><time>2026-05-01T10:50:53.002Z</time></trkpt><trkpt lat="45.00961327903395" lon="9.598994840386709"><ele>77.0</ele><time>2026-05-01T10:50:55.002Z</time></trkpt><trkpt lat="45.009604959229726" lon="9.598875758998465"><ele>77.0</ele><time>2026-05-01T10:50:57.002Z</time></trkpt><trkpt lat="45.00953569237545" lon="9.598790915999812"><ele>77.0</ele><time>2026-05-01T10:50:59.002Z</time></trkpt><trkpt lat="45.009428120455524" lon="9.598734842111897"><ele>77.0</ele><time>2026-05-01T10:51:01Z</time></trkpt><trkpt lat="45.00935266605895" lon="9.598696347323635"><ele>77.0</ele><time>2026-05-01T10:51:02Z</time></trkpt><trkpt lat="45.009258279252414" lon="9.598639039685354"><ele>77.0</ele><time>2026-05-01T10:51:03Z</time></trkpt><trkpt lat="45.00917037058911" lon="9.598587003575004"><ele>77.0</ele><time>2026-05-01T10:51:04Z</time></trkpt><trkpt lat="45.00905765242153" lon="9.598516505837102"><ele>77.0</ele><time>2026-05-01T10:51:05Z</time></trkpt><trkpt lat="45.00895243990325" lon="9.598447006771853"><ele>77.0</ele><time>2026-05-01T10:51:06Z</time></trkpt><trkpt lat="45.00886273908354" lon="9.598381320021304"><ele>77.0</ele><time>2026-05-01T10:51:07Z</time></trkpt><trkpt lat="45.00877571100581" lon="9.598310620232073"><ele>77.0</ele><time>2026-05-01T10:51:08Z</time></trkpt><trkpt lat="45.00869119553037" lon="9.598270499743101"><ele>77.0</ele><time>2026-05-01T10:51:09Z</time></trkpt><trkpt lat="45.008599530296145" lon="9.598246022803796"><ele>77.0</ele><time>2026-05-01T10:51:10Z</time></trkpt><trkpt lat="45.00850099293243" lon="9.5982427997076"><ele>77.0</ele><time>2026-05-01T10:51:11Z</time></trkpt><trkpt lat="45.00841895400077" lon="9.598232527301029"><ele>77.0</ele><time>2026-05-01T10:51:12Z</time></trkpt><trkpt lat="45.00833829686069" lon="9.598188800584705"><ele>77.16666666666667</ele><time>2026-05-01T10:51:13Z</time></trkpt><trkpt lat="45.00827328812902" lon="9.598119617476227"><ele>77.33333333333334</ele><time>2026-05-01T10:51:14Z</time></trkpt><trkpt lat="45.00821554479271" lon="9.59805985985349"><ele>77.5</ele><time>2026-05-01T10:51:15Z</time></trkpt><trkpt lat="45.0080872178512" lon="9.598019870407446"><ele>77.66666666666667</ele><time>2026-05-01T10:51:17Z</time></trkpt><trkpt lat="45.008021918581086" lon="9.597987266788394"><ele>77.83333333333333</ele><time>2026-05-01T10:51:18Z</time></trkpt><trkpt lat="45.00792734073909" lon="9.597972650447476"><ele>78.0</ele><time>2026-05-01T10:51:19Z</time></trkpt><trkpt lat="45.00783902265827" lon="9.59796663579637"><ele>78.0</ele><time>2026-05-01T10:51:20Z</time></trkpt><trkpt lat="45.0077528084328" lon="9.597935840883096"><ele>78.0</ele><time>2026-05-01T10:51:21Z</time></trkpt><trkpt lat="45.00766517626128" lon="9.597890267004964"><ele>78.0</ele><time>2026-05-01T10:51:22Z</time></trkpt><trkpt lat="45.00759133518298" lon="9.597840895518607"><ele>78.0</ele><time>2026-05-01T10:51:23Z</time></trkpt><trkpt lat="45.007488993345966" lon="9.5978382660144"><ele>78.0</ele><time>2026-05-01T10:51:25Z</time></trkpt><trkpt lat="45.0073749110263" lon="9.597912113229523"><ele>77.6</ele><time>2026-05-01T10:51:27Z</time></trkpt><trkpt lat="45.007262180216735" lon="9.597898230227589"><ele>77.19999999999999</ele><time>2026-05-01T10:51:29Z</time></trkpt><trkpt lat="45.00719559438601" lon="9.597909344942341"><ele>76.8</ele><time>2026-05-01T10:51:33Z</time></trkpt><trkpt lat="45.007111560648006" lon="9.597956258719567"><ele>76.39999999999999</ele><time>2026-05-01T10:51:35Z</time></trkpt><trkpt lat="45.00699016632695" lon="9.597914085712839"><ele>76.0</ele><time>2026-05-01T10:51:37Z</time></trkpt><trkpt lat="45.006919019275436" lon="9.5978848901924"><ele>76.0</ele><time>2026-05-01T10:51:38Z</time></trkpt><trkpt lat="45.00685043871188" lon="9.597873369955778"><ele>76.0</ele><time>2026-05-01T10:51:39Z</time></trkpt><trkpt lat="45.00679390656295" lon="9.597821937515093"><ele>76.0</ele><time>2026-05-01T10:51:43.001Z</time></trkpt><trkpt lat="45.006720338815526" lon="9.597859018738967"><ele>76.0</ele><time>2026-05-01T10:51:48.001Z</time></trkpt><trkpt lat="45.00678850756825" lon="9.597842830665845"><ele>76.0</ele><time>2026-05-01T10:54:31.001Z</time></trkpt><trkpt lat="45.00683183456881" lon="9.597912467064702"><ele>76.0</ele><time>2026-05-01T10:54:35.001Z</time></trkpt><trkpt lat="45.00692528560187" lon="9.597903690538343"><ele>76.0</ele><time>2026-05-01T10:54:49.001Z</time></trkpt><trkpt lat="45.006995718568426" lon="9.59791268893909"><ele>76.0</ele><time>2026-05-01T10:54:54.001Z</time></trkpt><trkpt lat="45.007065708402436" lon="9.597933244272783"><ele>76.0</ele><time>2026-05-01T10:54:55.001Z</time></trkpt><trkpt lat="45.007130658620724" lon="9.597944716182006"><ele>76.0</ele><time>2026-05-01T10:54:56.001Z</time></trkpt><trkpt lat="45.007232681300934" lon="9.597912765142151"><ele>76.0</ele><time>2026-05-01T10:54:58.002Z</time></trkpt><trkpt lat="45.00735315057452" lon="9.597887716481619"><ele>76.0</ele><time>2026-05-01T10:55:00.002Z</time></trkpt><trkpt lat="45.007464405480405" lon="9.597893783602421"><ele>76.39999999999999</ele><time>2026-05-01T10:55:02.002Z</time></trkpt><trkpt lat="45.00755796048084" lon="9.597838994924839"><ele>76.8</ele><time>2026-05-01T10:55:04.002Z</time></trkpt><trkpt lat="45.00763212074911" lon="9.597855844016571"><ele>77.19999999999999</ele><time>2026-05-01T10:55:06.002Z</time></trkpt><trkpt lat="45.00772160673034" lon="9.597904792579284"><ele>77.6</ele><time>2026-05-01T10:56:23.001Z</time></trkpt><trkpt lat="45.007812415903516" lon="9.597942975565333"><ele>78.0</ele><time>2026-05-01T10:56:24.001Z</time></trkpt><trkpt lat="45.00791175307932" lon="9.597981626760426"><ele>78.0</ele><time>2026-05-01T10:56:25.001Z</time></trkpt><trkpt lat="45.00798349410402" lon="9.59799247658151"><ele>78.0</ele><time>2026-05-01T10:56:26.001Z</time></trkpt><trkpt lat="45.00805470720959" lon="9.597998611432482"><ele>78.0</ele><time>2026-05-01T10:56:27.001Z</time></trkpt><trkpt lat="45.00813701262293" lon="9.59801967545218"><ele>78.0</ele><time>2026-05-01T10:56:28.001Z</time></trkpt><trkpt lat="45.00825094509605" lon="9.598088088479933"><ele>78.0</ele><time>2026-05-01T10:56:30.001Z</time></trkpt><trkpt lat="45.0083642504559" lon="9.598184049450495"><ele>77.83333333333333</ele><time>2026-05-01T10:56:32.001Z</time></trkpt><trkpt lat="45.00845434540594" lon="9.598253249254475"><ele>77.66666666666667</ele><time>2026-05-01T10:56:33.001Z</time></trkpt><trkpt lat="45.00853910498357" lon="9.598275735444606"><ele>77.5</ele><time>2026-05-01T10:56:34.001Z</time></trkpt><trkpt lat="45.00864004950888" lon="9.598277199594923"><ele>77.33333333333334</ele><time>2026-05-01T10:56:35.001Z</time></trkpt><trkpt lat="45.00871926455488" lon="9.598287021792958"><ele>77.16666666666667</ele><time>2026-05-01T10:56:36.001Z</time></trkpt><trkpt lat="45.00879428267752" lon="9.598317819436836"><ele>77.0</ele><time>2026-05-01T10:56:37.001Z</time></trkpt><trkpt lat="45.00886185420516" lon="9.59836050657374"><ele>77.0</ele><time>2026-05-01T10:56:38.001Z</time></trkpt><trkpt lat="45.00893027489195" lon="9.59842420227772"><ele>77.0</ele><time>2026-05-01T10:56:39.001Z</time></trkpt><trkpt lat="45.00901382508394" lon="9.598488331679789"><ele>77.0</ele><time>2026-05-01T10:56:40.001Z</time></trkpt><trkpt lat="45.00910671556702" lon="9.598545563170243"><ele>77.0</ele><time>2026-05-01T10:56:41.001Z</time></trkpt><trkpt lat="45.0092088847125" lon="9.598606579106725"><ele>77.0</ele><time>2026-05-01T10:56:42.001Z</time></trkpt><trkpt lat="45.00931554962988" lon="9.598664798526327"><ele>77.0</ele><time>2026-05-01T10:56:43.001Z</time></trkpt><trkpt lat="45.00940365269578" lon="9.598715067280331"><ele>77.0</ele><time>2026-05-01T10:56:44.001Z</time></trkpt><trkpt lat="45.00947478785327" lon="9.598762868025167"><ele>77.0</ele><time>2026-05-01T10:56:45.001Z</time></trkpt><trkpt lat="45.00956337296741" lon="9.59885360115912"><ele>77.0</ele><time>2026-05-01T10:56:47.001Z</time></trkpt><trkpt lat="45.00961738770667" lon="9.598962829548384"><ele>77.0</ele><time>2026-05-01T10:56:49.001Z</time></trkpt><trkpt lat="45.00963395791708" lon="9.599061907518907"><ele>77.0</ele><time>2026-05-01T10:56:51.001Z</time></trkpt></trkseg><trkseg><trkpt lat="45.009572940340256" lon="9.599134654369026"><ele>77.0</ele><time>2026-05-01T11:07:40Z</time></trkpt><trkpt lat="45.00949056626383" lon="9.59906446214788"><ele>77.0</ele><time>2026-05-01T11:07:41Z</time></trkpt><trkpt lat="45.009405288136406" lon="9.59903816596889"><ele>77.0</ele><time>2026-05-01T11:07:42Z</time></trkpt><trkpt lat="45.00931738661771" lon="9.599043778997476"><ele>77.0</ele><time>2026-05-01T11:07:43Z</time></trkpt><trkpt lat="45.00921624215183" lon="9.599079309388312"><ele>77.0</ele><time>2026-05-01T11:07:44Z</time></trkpt><trkpt lat="45.009107365363505" lon="9.599141340439786"><ele>77.16666666666667</ele><time>2026-05-01T11:07:45Z</time></trkpt><trkpt lat="45.00904755780499" lon="9.599178960863451"><ele>77.33333333333334</ele><time>2026-05-01T11:07:46Z</time></trkpt><trkpt lat="45.0089318329602" lon="9.599135206525368"><ele>77.5</ele><time>2026-05-01T11:07:48Z</time></trkpt><trkpt lat="45.008851574380365" lon="9.599091606350274"><ele>77.66666666666667</ele><time>2026-05-01T11:07:49Z</time></trkpt><trkpt lat="45.008753898068356" lon="9.599107136051515"><ele>77.83333333333333</ele><time>2026-05-01T11:07:51Z</time></trkpt><trkpt lat="45.00869087784599" lon="9.599052430577784"><ele>78.0</ele><time>2026-05-01T11:07:52Z</time></trkpt><trkpt lat="45.0085943643485" lon="9.598963568661569"><ele>78.0</ele><time>2026-05-01T11:07:53Z</time></trkpt><trkpt lat="45.008494547906906" lon="9.59888208493562"><ele>78.0</ele><time>2026-05-01T11:07:54Z</time></trkpt><trkpt lat="45.00840283665509" lon="9.59882916882252"><ele>78.0</ele><time>2026-05-01T11:07:55.001Z</time></trkpt><trkpt lat="45.00832618078871" lon="9.598778952428011"><ele>78.0</ele><time>2026-05-01T11:07:56.001Z</time></trkpt><trkpt lat="45.0082574122665" lon="9.59882547265214"><ele>78.0</ele><time>2026-05-01T11:08:00.001Z</time></trkpt><trkpt lat="45.0082126256439" lon="9.598909037310502"><ele>78.0</ele><time>2026-05-01T11:08:01.001Z</time></trkpt><trkpt lat="45.008106599220206" lon="9.598966882478631"><ele>78.0</ele><time>2026-05-01T11:08:03.001Z</time></trkpt><trkpt lat="45.008035048833285" lon="9.598956926304773"><ele>78.0</ele><time>2026-05-01T11:08:04.001Z</time></trkpt><trkpt lat="45.00797749004811" lon="9.59891845635301"><ele>78.0</ele><time>2026-05-01T11:08:05.001Z</time></trkpt><trkpt lat="45.00790847041544" lon="9.598848119512292"><ele>78.0</ele><time>2026-05-01T11:08:06.001Z</time></trkpt><trkpt lat="45.00784080757148" lon="9.598774362889328"><ele>78.0</ele><time>2026-05-01T11:08:07.001Z</time></trkpt><trkpt lat="45.0077789862364" lon="9.598721956310598"><ele>78.0</ele><time>2026-05-01T11:08:08.001Z</time></trkpt><trkpt lat="45.00769342374022" lon="9.598663120978301"><ele>78.0</ele><time>2026-05-01T11:08:09.001Z</time></trkpt><trkpt lat="45.007612922930235" lon="9.598599434325875"><ele>78.0</ele><time>2026-05-01T11:08:10.001Z</time></trkpt><trkpt lat="45.00754604415135" lon="9.598540005927536"><ele>78.0</ele><time>2026-05-01T11:08:11.001Z</time></trkpt><trkpt lat="45.00748025327615" lon="9.598502626184382"><ele>78.0</ele><time>2026-05-01T11:08:12.001Z</time></trkpt><trkpt lat="45.00741160476688" lon="9.598478636902911"><ele>78.0</ele><time>2026-05-01T11:08:13.001Z</time></trkpt><trkpt lat="45.00731576039521" lon="9.59842378023418"><ele>78.0</ele><time>2026-05-01T11:08:15.001Z</time></trkpt><trkpt lat="45.00724765436556" lon="9.598377933187576"><ele>77.66666666666667</ele><time>2026-05-01T11:08:16.001Z</time></trkpt><trkpt lat="45.00713854267903" lon="9.59842757445025"><ele>77.33333333333333</ele><time>2026-05-01T11:08:18.001Z</time></trkpt><trkpt lat="45.00707810113433" lon="9.59846222425627"><ele>77.0</ele><time>2026-05-01T11:08:19.001Z</time></trkpt><trkpt lat="45.007012508011734" lon="9.598477004048952"><ele>76.66666666666666</ele><time>2026-05-01T11:08:20.001Z</time></trkpt><trkpt lat="45.006945141456434" lon="9.598471053417512"><ele>76.33333333333333</ele><time>2026-05-01T11:08:21.001Z</time></trkpt><trkpt lat="45.006869390268896" lon="9.598462402450336"><ele>76.0</ele><time>2026-05-01T11:08:22.001Z</time></trkpt><trkpt lat="45.006774509174086" lon="9.598443850521534"><ele>76.0</ele><time>2026-05-01T11:08:23.001Z</time></trkpt><trkpt lat="45.0066949330169" lon="9.59843298071953"><ele>76.0</ele><time>2026-05-01T11:08:24.001Z</time></trkpt><trkpt lat="45.00660924873547" lon="9.598424486927277"><ele>76.0</ele><time>2026-05-01T11:08:25.001Z</time></trkpt><trkpt lat="45.00652967294986" lon="9.598412271270872"><ele>76.0</ele><time>2026-05-01T11:08:26.001Z</time></trkpt><trkpt lat="45.006463413164674" lon="9.598386909426624"><ele>76.0</ele><time>2026-05-01T11:08:27.001Z</time></trkpt><trkpt lat="45.00639357412731" lon="9.598327693194426"><ele>76.0</ele><time>2026-05-01T11:08:28.001Z</time></trkpt><trkpt lat="45.00632389612494" lon="9.598267109437286"><ele>76.33333333333333</ele><time>2026-05-01T11:08:29.001Z</time></trkpt><trkpt lat="45.00623796619368" lon="9.598222826500244"><ele>76.66666666666666</ele><time>2026-05-01T11:08:30.001Z</time></trkpt><trkpt lat="45.00615224158618" lon="9.598174929710819"><ele>77.0</ele><time>2026-05-01T11:08:31.002Z</time></trkpt><trkpt lat="45.00606624364281" lon="9.598127812728809"><ele>77.33333333333333</ele><time>2026-05-01T11:08:32.002Z</time></trkpt><trkpt lat="45.00598717588163" lon="9.598098785792544"><ele>77.66666666666667</ele><time>2026-05-01T11:08:33.002Z</time></trkpt><trkpt lat="45.00590518745923" lon="9.598077663889939"><ele>78.0</ele><time>2026-05-01T11:08:34.002Z</time></trkpt><trkpt lat="45.00581288679635" lon="9.598030502662652"><ele>78.25</ele><time>2026-05-01T11:08:35.002Z</time></trkpt><trkpt lat="45.005726034680904" lon="9.597993029036802"><ele>78.5</ele><time>2026-05-01T11:08:36.002Z</time></trkpt><trkpt lat="45.005600370089454" lon="9.597960677159291"><ele>78.75</ele><time>2026-05-01T11:08:37.002Z</time></trkpt><trkpt lat="45.005468333168814" lon="9.597914552912817"><ele>79.0</ele><time>2026-05-01T11:08:38.002Z</time></trkpt><trkpt lat="45.00533683898465" lon="9.597852425879491"><ele>78.75</ele><time>2026-05-01T11:08:39.002Z</time></trkpt><trkpt lat="45.00520122636118" lon="9.597786832114009"><ele>78.5</ele><time>2026-05-01T11:08:40.002Z</time></trkpt><trkpt lat="45.00508576516758" lon="9.597742664162581"><ele>78.25</ele><time>2026-05-01T11:08:41.002Z</time></trkpt><trkpt lat="45.004986829103736" lon="9.597703159582489"><ele>78.0</ele><time>2026-05-01T11:08:42.002Z</time></trkpt><trkpt lat="45.004888476941304" lon="9.597657507557358"><ele>77.8</ele><time>2026-05-01T11:08:43.002Z</time></trkpt><trkpt lat="45.00476624211341" lon="9.59761455123979"><ele>77.6</ele><time>2026-05-01T11:08:44.002Z</time></trkpt><trkpt lat="45.0046535514983" lon="9.597568647050947"><ele>77.4</ele><time>2026-05-01T11:08:45.002Z</time></trkpt><trkpt lat="45.004564379805416" lon="9.597537689113306"><ele>77.2</ele><time>2026-05-01T11:08:46.002Z</time></trkpt><trkpt lat="45.00445728506963" lon="9.597482048005146"><ele>77.0</ele><time>2026-05-01T11:08:48.002Z</time></trkpt><trkpt lat="45.00438960714333" lon="9.597401757635287"><ele>77.0</ele><time>2026-05-01T11:08:49.002Z</time></trkpt><trkpt lat="45.00429510489178" lon="9.597344514796397"><ele>77.0</ele><time>2026-05-01T11:08:50.002Z</time></trkpt><trkpt lat="45.00421800597113" lon="9.597271769788925"><ele>77.0</ele><time>2026-05-01T11:08:51.002Z</time></trkpt><trkpt lat="45.00414705299645" lon="9.597198288682497"><ele>77.0</ele><time>2026-05-01T11:08:52.002Z</time></trkpt><trkpt lat="45.00405525435803" lon="9.597156530282822"><ele>77.0</ele><time>2026-05-01T11:08:53.002Z</time></trkpt><trkpt lat="45.00392202306075" lon="9.597142621049837"><ele>77.33333333333334</ele><time>2026-05-01T11:08:54.002Z</time></trkpt><trkpt lat="45.003758808127714" lon="9.597155782234388"><ele>77.66666666666667</ele><time>2026-05-01T11:08:55.002Z</time></trkpt><trkpt lat="45.003588848797754" lon="9.597170256614062"><ele>78.0</ele><time>2026-05-01T11:08:56.002Z</time></trkpt><trkpt lat="45.003419726083784" lon="9.597162027066984"><ele>78.25</ele><time>2026-05-01T11:08:57.002Z</time></trkpt><trkpt lat="45.003289724410045" lon="9.597151376206249"><ele>78.5</ele><time>2026-05-01T11:08:58.002Z</time></trkpt><trkpt lat="45.003164138957516" lon="9.597125267800195"><ele>78.75</ele><time>2026-05-01T11:08:59.002Z</time></trkpt><trkpt lat="45.00304178088327" lon="9.597090262503448"><ele>79.0</ele><time>2026-05-01T11:09:00.002Z</time></trkpt><trkpt lat="45.002930907298094" lon="9.597043084235978"><ele>79.0</ele><time>2026-05-01T11:09:01.002Z</time></trkpt><trkpt lat="45.0028382694679" lon="9.596987179854086"><ele>79.0</ele><time>2026-05-01T11:09:02.002Z</time></trkpt><trkpt lat="45.00276080754584" lon="9.596933458253696"><ele>79.0</ele><time>2026-05-01T11:09:03.002Z</time></trkpt><trkpt lat="45.00267635914606" lon="9.596901131283948"><ele>79.0</ele><time>2026-05-01T11:09:04.002Z</time></trkpt><trkpt lat="45.00260218710734" lon="9.596894530113676"><ele>79.0</ele><time>2026-05-01T11:09:05.002Z</time></trkpt><trkpt lat="45.00252976711461" lon="9.596859570613027"><ele>79.0</ele><time>2026-05-01T11:09:06.002Z</time></trkpt><trkpt lat="45.00245569615196" lon="9.596822302659564"><ele>79.0</ele><time>2026-05-01T11:09:07.002Z</time></trkpt><trkpt lat="45.002350332207264" lon="9.596786874202307"><ele>79.0</ele><time>2026-05-01T11:09:09.003Z</time></trkpt><trkpt lat="45.00227138989439" lon="9.596755703484389"><ele>79.0</ele><time>2026-05-01T11:09:12.003Z</time></trkpt><trkpt lat="45.002205151696906" lon="9.596752224077859"><ele>79.0</ele><time>2026-05-01T11:09:29.999Z</time></trkpt><trkpt lat="45.002078789488216" lon="9.59670981039456"><ele>79.0</ele><time>2026-05-01T11:09:31.999Z</time></trkpt><trkpt lat="45.00200037414098" lon="9.596675740618371"><ele>79.0</ele><time>2026-05-01T11:09:32.999Z</time></trkpt><trkpt lat="45.00192843695504" lon="9.596634617729684"><ele>79.0</ele><time>2026-05-01T11:09:33.999Z</time></trkpt><trkpt lat="45.00186009774395" lon="9.596609619967458"><ele>79.0</ele><time>2026-05-01T11:09:34.999Z</time></trkpt><trkpt lat="45.001785607479384" lon="9.596593939379229"><ele>79.0</ele><time>2026-05-01T11:09:35.999Z</time></trkpt><trkpt lat="45.00171026398952" lon="9.596561438068807"><ele>79.0</ele><time>2026-05-01T11:09:37Z</time></trkpt><trkpt lat="45.00162475101469" lon="9.596512808358488"><ele>79.0</ele><time>2026-05-01T11:09:38Z</time></trkpt><trkpt lat="45.001534984004955" lon="9.596473020687519"><ele>79.33333333333333</ele><time>2026-05-01T11:09:39Z</time></trkpt><trkpt lat="45.00144520282446" lon="9.596431168197565"><ele>79.66666666666666</ele><time>2026-05-01T11:09:40Z</time></trkpt><trkpt lat="45.00135143991152" lon="9.596384699971033"><ele>80.0</ele><time>2026-05-01T11:09:41Z</time></trkpt><trkpt lat="45.00127808670291" lon="9.596348275358991"><ele>80.33333333333333</ele><time>2026-05-01T11:09:42Z</time></trkpt><trkpt lat="45.00120370359931" lon="9.596298390094537"><ele>80.66666666666667</ele><time>2026-05-01T11:09:43Z</time></trkpt><trkpt lat="45.00112137178516" lon="9.596241828325295"><ele>81.0</ele><time>2026-05-01T11:09:44Z</time></trkpt><trkpt lat="45.00105710938344" lon="9.596207095877347"><ele>81.0</ele><time>2026-05-01T11:09:45Z</time></trkpt><trkpt lat="45.00098149773801" lon="9.596178296939708"><ele>81.0</ele><time>2026-05-01T11:09:46Z</time></trkpt><trkpt lat="45.00087192660733" lon="9.596150066006947"><ele>81.0</ele><time>2026-05-01T11:09:48Z</time></trkpt><trkpt lat="45.00078381846127" lon="9.596110302674349"><ele>81.0</ele><time>2026-05-01T11:09:50Z</time></trkpt><trkpt lat="45.00071739139253" lon="9.596044939717421"><ele>81.0</ele><time>2026-05-01T11:09:52Z</time></trkpt><trkpt lat="45.000640996111954" lon="9.596026142545055"><ele>81.0</ele><time>2026-05-01T11:09:54Z</time></trkpt><trkpt lat="45.00052646276767" lon="9.595987458252521"><ele>81.16666666666667</ele><time>2026-05-01T11:09:56Z</time></trkpt><trkpt lat="45.00046129888621" lon="9.595968593423253"><ele>81.33333333333333</ele><time>2026-05-01T11:09:57Z</time></trkpt><trkpt lat="45.00035408893857" lon="9.595972422619832"><ele>81.5</ele><time>2026-05-01T11:09:59Z</time></trkpt><trkpt lat="45.000258396791224" lon="9.59597446866218"><ele>81.66666666666666</ele><time>2026-05-01T11:10:01Z</time></trkpt><trkpt lat="45.000195445346314" lon="9.595963543464523"><ele>81.83333333333333</ele><time>2026-05-01T11:10:03.001Z</time></trkpt><trkpt lat="45.00013346967397" lon="9.595986506481571"><ele>82.0</ele><time>2026-05-01T11:10:05.001Z</time></trkpt><trkpt lat="45.00003779715327" lon="9.596069148068768"><ele>82.0</ele><time>2026-05-01T11:10:07.001Z</time></trkpt><trkpt lat="44.99992679998415" lon="9.596120622720854"><ele>82.0</ele><time>2026-05-01T11:10:09.001Z</time></trkpt><trkpt lat="44.99980467324404" lon="9.596081521805427"><ele>82.0</ele><time>2026-05-01T11:10:11.001Z</time></trkpt><trkpt lat="44.999748596323336" lon="9.59603314709553"><ele>82.0</ele><time>2026-05-01T11:10:12.001Z</time></trkpt><trkpt lat="44.99960147410861" lon="9.595975433860803"><ele>81.99999999999999</ele><time>2026-05-01T11:10:14.001Z</time></trkpt><trkpt lat="44.99953451309506" lon="9.595948781210467"><ele>82.0</ele><time>2026-05-01T11:10:15.001Z</time></trkpt><trkpt lat="44.99947289491074" lon="9.595914651549908"><ele>82.0</ele><time>2026-05-01T11:10:16.001Z</time></trkpt><trkpt lat="44.999411097877015" lon="9.595886452426482"><ele>82.0</ele><time>2026-05-01T11:10:18.001Z</time></trkpt><trkpt lat="44.99934652897793" lon="9.59586158991521"><ele>82.0</ele><time>2026-05-01T11:10:21.001Z</time></trkpt><trkpt lat="44.99928164401354" lon="9.5958445959355"><ele>81.99999999999999</ele><time>2026-05-01T11:10:23.001Z</time></trkpt><trkpt lat="44.99921147392293" lon="9.595830723784259"><ele>82.0</ele><time>2026-05-01T11:10:25.001Z</time></trkpt><trkpt lat="44.99914680746606" lon="9.595833209853629"><ele>82.0</ele><time>2026-05-01T11:10:27.001Z</time></trkpt><trkpt lat="44.99907507237932" lon="9.59585218897066"><ele>82.0</ele><time>2026-05-01T11:10:48.002Z</time></trkpt><trkpt lat="44.99900445693445" lon="9.595885176027261"><ele>82.0</ele><time>2026-05-01T11:10:51.002Z</time></trkpt><trkpt lat="44.99893402624727" lon="9.596017876637033"><ele>82.0</ele><time>2026-05-01T11:10:55.002Z</time></trkpt><trkpt lat="44.99885672721891" lon="9.59603636932818"><ele>82.0</ele><time>2026-05-01T11:10:58.002Z</time></trkpt><trkpt lat="44.998786461813104" lon="9.596030472053464"><ele>82.0</ele><time>2026-05-01T11:11:01.002Z</time></trkpt><trkpt lat="44.99873294627988" lon="9.596143791103056"><ele>82.16666666666666</ele><time>2026-05-01T11:11:04.002Z</time></trkpt><trkpt lat="44.998696176286806" lon="9.596245246045674"><ele>82.33333333333333</ele><time>2026-05-01T11:11:06.002Z</time></trkpt><trkpt lat="44.99863607589101" lon="9.596272779213372"><ele>82.5</ele><time>2026-05-01T11:11:08.002Z</time></trkpt><trkpt lat="44.9985633842451" lon="9.596294221589659"><ele>82.66666666666667</ele><time>2026-05-01T11:11:11.003Z</time></trkpt><trkpt lat="44.99851354780567" lon="9.596349535838048"><ele>82.83333333333334</ele><time>2026-05-01T11:11:14.003Z</time></trkpt><trkpt lat="44.99851163948561" lon="9.596485877460292"><ele>83.0</ele><time>2026-05-01T11:11:19.003Z</time></trkpt><trkpt lat="44.99850347065551" lon="9.596604363899756"><ele>83.0</ele><time>2026-05-01T11:11:21.003Z</time></trkpt><trkpt lat="44.998473790499524" lon="9.596687698637952"><ele>83.0</ele><time>2026-05-01T11:11:23.003Z</time></trkpt><trkpt lat="44.99845498827813" lon="9.596784792236411"><ele>83.0</ele><time>2026-05-01T11:11:25.003Z</time></trkpt><trkpt lat="44.998460513382824" lon="9.596877752664376"><ele>83.0</ele><time>2026-05-01T11:11:28Z</time></trkpt><trkpt lat="44.99844384941169" lon="9.59697808438423"><ele>83.0</ele><time>2026-05-01T11:11:31Z</time></trkpt><trkpt lat="44.998361300323495" lon="9.597080646552085"><ele>83.0</ele><time>2026-05-01T11:11:33Z</time></trkpt><trkpt lat="44.99824554036258" lon="9.59715869100292"><ele>82.80000000000001</ele><time>2026-05-01T11:11:35Z</time></trkpt><trkpt lat="44.998141012698554" lon="9.59722491480959"><ele>82.6</ele><time>2026-05-01T11:11:37Z</time></trkpt><trkpt lat="44.998001987634424" lon="9.597248573228207"><ele>82.4</ele><time>2026-05-01T11:11:39Z</time></trkpt><trkpt lat="44.99791422511466" lon="9.597266516175534"><ele>82.19999999999999</ele><time>2026-05-01T11:11:40Z</time></trkpt><trkpt lat="44.99782183644531" lon="9.597291070758365"><ele>82.0</ele><time>2026-05-01T11:11:41Z</time></trkpt><trkpt lat="44.99773810646797" lon="9.597305305517084"><ele>82.0</ele><time>2026-05-01T11:11:42Z</time></trkpt><trkpt lat="44.997646760516076" lon="9.597305870361717"><ele>82.0</ele><time>2026-05-01T11:11:43Z</time></trkpt><trkpt lat="44.997539068404194" lon="9.597286822515093"><ele>82.0</ele><time>2026-05-01T11:11:44Z</time></trkpt><trkpt lat="44.99744663932402" lon="9.597289465148608"><ele>82.0</ele><time>2026-05-01T11:11:45.001Z</time></trkpt><trkpt lat="44.99737208653938" lon="9.597272724552205"><ele>82.0</ele><time>2026-05-01T11:11:46.001Z</time></trkpt><trkpt lat="44.99731297286745" lon="9.597236911585844"><ele>82.0</ele><time>2026-05-01T11:11:47.001Z</time></trkpt><trkpt lat="44.997207726750446" lon="9.59724918985524"><ele>81.83333333333333</ele><time>2026-05-01T11:11:49.001Z</time></trkpt><trkpt lat="44.99715884634916" lon="9.59730984640483"><ele>81.66666666666666</ele><time>2026-05-01T11:11:50.001Z</time></trkpt><trkpt lat="44.99708852488002" lon="9.597350233187804"><ele>81.5</ele><time>2026-05-01T11:11:51.001Z</time></trkpt><trkpt lat="44.997011099098906" lon="9.597362728040569"><ele>81.33333333333333</ele><time>2026-05-01T11:11:52.001Z</time></trkpt><trkpt lat="44.996937858613464" lon="9.597339044238788"><ele>81.16666666666667</ele><time>2026-05-01T11:11:53.001Z</time></trkpt><trkpt lat="44.99683816778577" lon="9.59731760594983"><ele>81.0</ele><time>2026-05-01T11:11:54.001Z</time></trkpt><trkpt lat="44.99672205204499" lon="9.597327026120787"><ele>81.16666666666667</ele><time>2026-05-01T11:11:55.001Z</time></trkpt><trkpt lat="44.996608198495366" lon="9.597343495766838"><ele>81.33333333333333</ele><time>2026-05-01T11:11:56.001Z</time></trkpt><trkpt lat="44.996520687716256" lon="9.59733266915051"><ele>81.5</ele><time>2026-05-01T11:11:57.001Z</time></trkpt><trkpt lat="44.99643666691973" lon="9.597310504880408"><ele>81.66666666666666</ele><time>2026-05-01T11:11:58.001Z</time></trkpt><trkpt lat="44.996345922652274" lon="9.597273296981776"><ele>81.83333333333333</ele><time>2026-05-01T11:12:00.001Z</time></trkpt><trkpt lat="44.99630318321464" lon="9.597207689882964"><ele>82.0</ele><time>2026-05-01T11:12:05.001Z</time></trkpt><trkpt lat="44.99628906060058" lon="9.59710975484846"><ele>82.0</ele><time>2026-05-01T11:12:08.001Z</time></trkpt><trkpt lat="44.99634326257355" lon="9.597006971550396"><ele>82.0</ele><time>2026-05-01T11:12:10.001Z</time></trkpt><trkpt lat="44.996392627479054" lon="9.59694031349157"><ele>82.0</ele><time>2026-05-01T11:12:11.001Z</time></trkpt><trkpt lat="44.99643503528588" lon="9.59676619942441"><ele>82.0</ele><time>2026-05-01T11:12:13.001Z</time></trkpt><trkpt lat="44.996428025724555" lon="9.596653760154306"><ele>82.0</ele><time>2026-05-01T11:12:14.001Z</time></trkpt><trkpt lat="44.99641202194096" lon="9.596531541934839"><ele>82.16666666666666</ele><time>2026-05-01T11:12:15.001Z</time></trkpt><trkpt lat="44.99638592020477" lon="9.596408119221607"><ele>82.33333333333333</ele><time>2026-05-01T11:12:16.001Z</time></trkpt><trkpt lat="44.99634803430244" lon="9.596318677155445"><ele>82.5</ele><time>2026-05-01T11:12:17.001Z</time></trkpt><trkpt lat="44.996306374574544" lon="9.596247676248943"><ele>82.66666666666667</ele><time>2026-05-01T11:12:18.001Z</time></trkpt><trkpt lat="44.99625713297141" lon="9.596171459692956"><ele>82.83333333333334</ele><time>2026-05-01T11:12:19.001Z</time></trkpt><trkpt lat="44.996196946381666" lon="9.596082633440119"><ele>83.0</ele><time>2026-05-01T11:12:20.001Z</time></trkpt><trkpt lat="44.99614637812143" lon="9.59601303345688"><ele>83.2</ele><time>2026-05-01T11:12:21.001Z</time></trkpt><trkpt lat="44.996057602316064" lon="9.595952333218946"><ele>83.4</ele><time>2026-05-01T11:12:23.001Z</time></trkpt><trkpt lat="44.99599056763877" lon="9.595990399544473"><ele>83.60000000000001</ele><time>2026-05-01T11:12:25.001Z</time></trkpt><trkpt lat="44.9959362182329" lon="9.596043423474091"><ele>83.80000000000001</ele><time>2026-05-01T11:12:28.002Z</time></trkpt><trkpt lat="44.99584472241134" lon="9.59607478760759"><ele>84.0</ele><time>2026-05-01T11:12:36.002Z</time></trkpt><trkpt lat="44.995727714867805" lon="9.596033117851219"><ele>84.4</ele><time>2026-05-01T11:12:38.002Z</time></trkpt><trkpt lat="44.995640633463005" lon="9.595974924222249"><ele>84.80000000000001</ele><time>2026-05-01T11:12:39.002Z</time></trkpt><trkpt lat="44.9955574345602" lon="9.595923028591706"><ele>85.19999999999999</ele><time>2026-05-01T11:12:40.002Z</time></trkpt><trkpt lat="44.99545792882439" lon="9.595866181899277"><ele>85.6</ele><time>2026-05-01T11:12:41.002Z</time></trkpt><trkpt lat="44.99535765313301" lon="9.595802427239096"><ele>86.0</ele><time>2026-05-01T11:12:42.002Z</time></trkpt><trkpt lat="44.9952798977245" lon="9.595754060669147"><ele>86.0</ele><time>2026-05-01T11:12:43.002Z</time></trkpt><trkpt lat="44.99520192101547" lon="9.595729606963756"><ele>86.0</ele><time>2026-05-01T11:12:44.002Z</time></trkpt><trkpt lat="44.995136138815106" lon="9.595728755238444"><ele>86.0</ele><time>2026-05-01T11:12:45.002Z</time></trkpt><trkpt lat="44.99507694386916" lon="9.59576086049618"><ele>86.0</ele><time>2026-05-01T11:12:46.002Z</time></trkpt><trkpt lat="44.9950079801835" lon="9.595821150804866"><ele>86.0</ele><time>2026-05-01T11:12:47.002Z</time></trkpt><trkpt lat="44.99491535369923" lon="9.595898089460078"><ele>86.0</ele><time>2026-05-01T11:12:48.002Z</time></trkpt><trkpt lat="44.994835796373785" lon="9.59593653499262"><ele>85.83333333333334</ele><time>2026-05-01T11:12:49.002Z</time></trkpt><trkpt lat="44.994762898384415" lon="9.59594613925126"><ele>85.66666666666667</ele><time>2026-05-01T11:12:50.002Z</time></trkpt><trkpt lat="44.994697529640476" lon="9.595929337587267"><ele>85.5</ele><time>2026-05-01T11:12:51.002Z</time></trkpt><trkpt lat="44.99461042779604" lon="9.595810898461876"><ele>85.33333333333333</ele><time>2026-05-01T11:12:53.002Z</time></trkpt><trkpt lat="44.99456735510944" lon="9.595714587646714"><ele>85.16666666666666</ele><time>2026-05-01T11:12:54.002Z</time></trkpt><trkpt lat="44.99453517986224" lon="9.59563274481043"><ele>85.0</ele><time>2026-05-01T11:12:55.002Z</time></trkpt><trkpt lat="44.99446755288636" lon="9.595631751242594"><ele>85.0</ele><time>2026-05-01T11:12:57.002Z</time></trkpt><trkpt lat="44.99437322876042" lon="9.595757704027138"><ele>85.0</ele><time>2026-05-01T11:12:59.002Z</time></trkpt><trkpt lat="44.99429254113713" lon="9.595875911811605"><ele>85.0</ele><time>2026-05-01T11:13:00.002Z</time></trkpt><trkpt lat="44.994190054651305" lon="9.595978462841465"><ele>85.0</ele><time>2026-05-01T11:13:01.002Z</time></trkpt><trkpt lat="44.99406183269246" lon="9.59605410018452"><ele>85.33333333333333</ele><time>2026-05-01T11:13:02.003Z</time></trkpt><trkpt lat="44.993903046795864" lon="9.596075557161933"><ele>85.66666666666667</ele><time>2026-05-01T11:13:03.003Z</time></trkpt><trkpt lat="44.993750551446865" lon="9.596072860144494"><ele>86.0</ele><time>2026-05-01T11:13:04.003Z</time></trkpt><trkpt lat="44.99360126588424" lon="9.596072970947487"><ele>86.0</ele><time>2026-05-01T11:13:05.003Z</time></trkpt><trkpt lat="44.993432758559806" lon="9.596111124275906"><ele>86.0</ele><time>2026-05-01T11:13:06.003Z</time></trkpt><trkpt lat="44.993267589615215" lon="9.596173530618199"><ele>86.0</ele><time>2026-05-01T11:13:07.003Z</time></trkpt><trkpt lat="44.993108822228024" lon="9.596214459124205"><ele>85.75</ele><time>2026-05-01T11:13:08.003Z</time></trkpt><trkpt lat="44.99296395432038" lon="9.596228433324347"><ele>85.5</ele><time>2026-05-01T11:13:09.003Z</time></trkpt><trkpt lat="44.99282929003713" lon="9.596227360122988"><ele>85.25</ele><time>2026-05-01T11:13:10.003Z</time></trkpt><trkpt lat="44.99269981829971" lon="9.596219991770495"><ele>85.0</ele><time>2026-05-01T11:13:11.003Z</time></trkpt><trkpt lat="44.99257508447813" lon="9.596195251679374"><ele>85.25</ele><time>2026-05-01T11:13:12.003Z</time></trkpt><trkpt lat="44.992448577312516" lon="9.5961286013681"><ele>85.5</ele><time>2026-05-01T11:13:13.003Z</time></trkpt><trkpt lat="44.992326704123684" lon="9.596042281823538"><ele>85.75</ele><time>2026-05-01T11:13:14.003Z</time></trkpt><trkpt lat="44.99220336147057" lon="9.595941508251995"><ele>86.0</ele><time>2026-05-01T11:13:15.003Z</time></trkpt><trkpt lat="44.992065434678366" lon="9.595858920786503"><ele>86.0</ele><time>2026-05-01T11:13:16.003Z</time></trkpt><trkpt lat="44.99193027694784" lon="9.595810464213544"><ele>86.0</ele><time>2026-05-01T11:13:17.003Z</time></trkpt><trkpt lat="44.9917963648319" lon="9.595791771371276"><ele>86.0</ele><time>2026-05-01T11:13:18.003Z</time></trkpt><trkpt lat="44.99168140757351" lon="9.59580589134445"><ele>86.0</ele><time>2026-05-01T11:13:19.003Z</time></trkpt><trkpt lat="44.99159519785097" lon="9.595844934624886"><ele>86.19999999999999</ele><time>2026-05-01T11:13:20.003Z</time></trkpt><trkpt lat="44.99152371951246" lon="9.59591929192622"><ele>86.39999999999999</ele><time>2026-05-01T11:13:21.003Z</time></trkpt><trkpt lat="44.99147391715744" lon="9.596017963683266"><ele>86.6</ele><time>2026-05-01T11:13:22.003Z</time></trkpt><trkpt lat="44.99142376694266" lon="9.596164155171177"><ele>86.8</ele><time>2026-05-01T11:13:23.003Z</time></trkpt><trkpt lat="44.99137798300449" lon="9.596315005382197"><ele>87.0</ele><time>2026-05-01T11:13:24.003Z</time></trkpt><trkpt lat="44.99131426675058" lon="9.596468127691145"><ele>87.25</ele><time>2026-05-01T11:13:25.003Z</time></trkpt><trkpt lat="44.99124843654235" lon="9.596611222312085"><ele>87.5</ele><time>2026-05-01T11:13:26.003Z</time></trkpt><trkpt lat="44.991185388879906" lon="9.596742641505829"><ele>87.75</ele><time>2026-05-01T11:13:27.003Z</time></trkpt><trkpt lat="44.99111809368553" lon="9.596881974364907"><ele>88.0</ele><time>2026-05-01T11:13:28.003Z</time></trkpt><trkpt lat="44.991043756140876" lon="9.596999720782955"><ele>88.0</ele><time>2026-05-01T11:13:29.003Z</time></trkpt><trkpt lat="44.99094362497484" lon="9.597105948015061"><ele>88.0</ele><time>2026-05-01T11:13:30.003Z</time></trkpt><trkpt lat="44.9908336592198" lon="9.597188308637186"><ele>88.0</ele><time>2026-05-01T11:13:31.003Z</time></trkpt><trkpt lat="44.99070807551753" lon="9.59725358416886"><ele>88.0</ele><time>2026-05-01T11:13:32.003Z</time></trkpt><trkpt lat="44.99058052097523" lon="9.597314652055301"><ele>87.75</ele><time>2026-05-01T11:13:33.001Z</time></trkpt><trkpt lat="44.99044254732235" lon="9.597372098792487"><ele>87.5</ele><time>2026-05-01T11:13:34.001Z</time></trkpt><trkpt lat="44.99030533414629" lon="9.597439362308194"><ele>87.25</ele><time>2026-05-01T11:13:35.001Z</time></trkpt><trkpt lat="44.99016695532926" lon="9.597517391227385"><ele>87.0</ele><time>2026-05-01T11:13:36.001Z</time></trkpt><trkpt lat="44.99002988352682" lon="9.597604254874701"><ele>87.0</ele><time>2026-05-01T11:13:37.001Z</time></trkpt><trkpt lat="44.98989513470695" lon="9.597692045945225"><ele>87.0</ele><time>2026-05-01T11:13:38.001Z</time></trkpt><trkpt lat="44.98977521193794" lon="9.59775505829845"><ele>87.0</ele><time>2026-05-01T11:13:39.001Z</time></trkpt><trkpt lat="44.989649663264544" lon="9.597793781106382"><ele>87.0</ele><time>2026-05-01T11:13:40.001Z</time></trkpt><trkpt lat="44.98953638737065" lon="9.597814960093338"><ele>87.0</ele><time>2026-05-01T11:13:41.001Z</time></trkpt><trkpt lat="44.98943106395656" lon="9.597827717056195"><ele>87.0</ele><time>2026-05-01T11:13:42.001Z</time></trkpt><trkpt lat="44.989335851563304" lon="9.59781142720672"><ele>87.0</ele><time>2026-05-01T11:13:43.001Z</time></trkpt><trkpt lat="44.98925566970247" lon="9.59777508852325"><ele>87.0</ele><time>2026-05-01T11:13:44.001Z</time></trkpt><trkpt lat="44.98916164828683" lon="9.597767460180162"><ele>87.0</ele><time>2026-05-01T11:13:46.001Z</time></trkpt><trkpt lat="44.98908824008079" lon="9.597832090443422"><ele>87.33333333333333</ele><time>2026-05-01T11:13:48.001Z</time></trkpt><trkpt lat="44.989001427931335" lon="9.597906606552296"><ele>87.66666666666667</ele><time>2026-05-01T11:13:50.001Z</time></trkpt><trkpt lat="44.98894649854048" lon="9.597963034943717"><ele>88.0</ele><time>2026-05-01T11:13:51.001Z</time></trkpt><trkpt lat="44.98886250179625" lon="9.598022612921438"><ele>88.33333333333334</ele><time>2026-05-01T11:18:32.001Z</time></trkpt><trkpt lat="44.98880089324271" lon="9.59807269130284"><ele>88.66666666666667</ele><time>2026-05-01T11:18:33.001Z</time></trkpt><trkpt lat="44.98872571978842" lon="9.598133208697941"><ele>89.0</ele><time>2026-05-01T11:18:34.001Z</time></trkpt><trkpt lat="44.98863554634166" lon="9.598191951450502"><ele>89.0</ele><time>2026-05-01T11:18:35.001Z</time></trkpt><trkpt lat="44.98852445662928" lon="9.598254054608573"><ele>89.0</ele><time>2026-05-01T11:18:36.001Z</time></trkpt><trkpt lat="44.98839333720583" lon="9.598328858456654"><ele>89.0</ele><time>2026-05-01T11:18:37.001Z</time></trkpt><trkpt lat="44.98827939543963" lon="9.59841729471844"><ele>89.0</ele><time>2026-05-01T11:18:38.001Z</time></trkpt><trkpt lat="44.988181435517546" lon="9.598521236620293"><ele>88.66666666666667</ele><time>2026-05-01T11:18:39.001Z</time></trkpt><trkpt lat="44.988067478275944" lon="9.59864835163095"><ele>88.33333333333333</ele><time>2026-05-01T11:18:40.001Z</time></trkpt><trkpt lat="44.98795217764167" lon="9.598791986168488"><ele>88.0</ele><time>2026-05-01T11:18:41.001Z</time></trkpt><trkpt lat="44.98783536709402" lon="9.59893957030209"><ele>88.0</ele><time>2026-05-01T11:18:42.001Z</time></trkpt><trkpt lat="44.98773106843822" lon="9.599064726239359"><ele>88.0</ele><time>2026-05-01T11:18:43.001Z</time></trkpt><trkpt lat="44.98763808760498" lon="9.599171669841946"><ele>88.0</ele><time>2026-05-01T11:18:44.001Z</time></trkpt><trkpt lat="44.98753487302667" lon="9.59928049951598"><ele>88.0</ele><time>2026-05-01T11:18:45.001Z</time></trkpt><trkpt lat="44.987421351538" lon="9.599384002491126"><ele>88.16666666666666</ele><time>2026-05-01T11:18:46.001Z</time></trkpt><trkpt lat="44.98732253045746" lon="9.599452793317809"><ele>88.33333333333333</ele><time>2026-05-01T11:18:47.001Z</time></trkpt><trkpt lat="44.98725405989221" lon="9.59949574406473"><ele>88.5</ele><time>2026-05-01T11:18:48.001Z</time></trkpt><trkpt lat="44.98718925140555" lon="9.599542624232047"><ele>88.66666666666667</ele><time>2026-05-01T11:18:50.001Z</time></trkpt><trkpt lat="44.98712522655527" lon="9.599504279231045"><ele>88.83333333333334</ele><time>2026-05-01T11:18:53.001Z</time></trkpt><trkpt lat="44.98705993404055" lon="9.599553239162528"><ele>89.0</ele><time>2026-05-01T11:19:00.001Z</time></trkpt><trkpt lat="44.98696990144748" lon="9.599543256785404"><ele>89.0</ele><time>2026-05-01T11:19:16.002Z</time></trkpt><trkpt lat="44.98687572850143" lon="9.599532838643858"><ele>89.0</ele><time>2026-05-01T11:19:18.002Z</time></trkpt><trkpt lat="44.986815913281944" lon="9.599598417064554"><ele>89.0</ele><time>2026-05-01T11:19:21.002Z</time></trkpt><trkpt lat="44.986798171896794" lon="9.599740089989478"><ele>89.0</ele><time>2026-05-01T11:19:27.002Z</time></trkpt><trkpt lat="44.98678623808488" lon="9.599856945298177"><ele>89.0</ele><time>2026-05-01T11:19:28.002Z</time></trkpt><trkpt lat="44.98676499414449" lon="9.59998335787185"><ele>89.0</ele><time>2026-05-01T11:19:29.002Z</time></trkpt><trkpt lat="44.98674029190152" lon="9.600118550228373"><ele>89.0</ele><time>2026-05-01T11:19:30.002Z</time></trkpt><trkpt lat="44.986716405727734" lon="9.60026519579264"><ele>89.0</ele><time>2026-05-01T11:19:31.002Z</time></trkpt><trkpt lat="44.98668742655987" lon="9.600413390711548"><ele>89.0</ele><time>2026-05-01T11:19:32.002Z</time></trkpt><trkpt lat="44.9866702061798" lon="9.60051899823821"><ele>89.0</ele><time>2026-05-01T11:19:33.002Z</time></trkpt><trkpt lat="44.98665278911749" lon="9.600607819012554"><ele>89.0</ele><time>2026-05-01T11:19:34.002Z</time></trkpt><trkpt lat="44.986566863802295" lon="9.600692224566364"><ele>89.4</ele><time>2026-05-01T11:19:36.002Z</time></trkpt><trkpt lat="44.98649689757464" lon="9.60062783603876"><ele>89.80000000000001</ele><time>2026-05-01T11:19:37.002Z</time></trkpt><trkpt lat="44.98641260478547" lon="9.60063245080598"><ele>90.19999999999999</ele><time>2026-05-01T11:19:38.002Z</time></trkpt><trkpt lat="44.9863146727859" lon="9.600644875368069"><ele>90.6</ele><time>2026-05-01T11:19:39.002Z</time></trkpt><trkpt lat="44.98619533560183" lon="9.60066014701393"><ele>91.0</ele><time>2026-05-01T11:19:40.002Z</time></trkpt><trkpt lat="44.98607758548013" lon="9.600666231788077"><ele>91.0</ele><time>2026-05-01T11:19:41.002Z</time></trkpt><trkpt lat="44.98597467471856" lon="9.600642599488035"><ele>91.0</ele><time>2026-05-01T11:19:42.003Z</time></trkpt><trkpt lat="44.98588909633675" lon="9.60067820788816"><ele>91.0</ele><time>2026-05-01T11:19:43.003Z</time></trkpt><trkpt lat="44.9857742148233" lon="9.600742057888835"><ele>91.0</ele><time>2026-05-01T11:19:45.003Z</time></trkpt><trkpt lat="44.985749196309655" lon="9.60083116761572"><ele>91.0</ele><time>2026-05-01T11:19:46.003Z</time></trkpt><trkpt lat="44.98574156118224" lon="9.600949456266497"><ele>91.0</ele><time>2026-05-01T11:19:47.003Z</time></trkpt><trkpt lat="44.98573807298178" lon="9.601090556494626"><ele>91.0</ele><time>2026-05-01T11:19:48.003Z</time></trkpt><trkpt lat="44.985719709033155" lon="9.601231029802355"><ele>91.0</ele><time>2026-05-01T11:19:49.003Z</time></trkpt><trkpt lat="44.98571249663888" lon="9.601378058414742"><ele>91.0</ele><time>2026-05-01T11:19:50.003Z</time></trkpt><trkpt lat="44.98570122389426" lon="9.601514107398389"><ele>91.0</ele><time>2026-05-01T11:19:50.998Z</time></trkpt><trkpt lat="44.9856868101815" lon="9.601645520624745"><ele>91.0</ele><time>2026-05-01T11:19:51.998Z</time></trkpt><trkpt lat="44.985677458829784" lon="9.601757495798964"><ele>91.0</ele><time>2026-05-01T11:19:52.998Z</time></trkpt><trkpt lat="44.98566819604644" lon="9.60187522158804"><ele>91.0</ele><time>2026-05-01T11:19:53.998Z</time></trkpt><trkpt lat="44.985645478428154" lon="9.601992240300131"><ele>91.0</ele><time>2026-05-01T11:19:54.998Z</time></trkpt><trkpt lat="44.98564872731361" lon="9.60210005021842"><ele>91.0</ele><time>2026-05-01T11:19:55.999Z</time></trkpt><trkpt lat="44.98563374346389" lon="9.6022184100491"><ele>91.0</ele><time>2026-05-01T11:19:56.999Z</time></trkpt><trkpt lat="44.98562312630787" lon="9.602346628812258"><ele>91.16666666666666</ele><time>2026-05-01T11:19:57.999Z</time></trkpt><trkpt lat="44.985610776602726" lon="9.602472983826743"><ele>91.33333333333333</ele><time>2026-05-01T11:19:58.999Z</time></trkpt><trkpt lat="44.9855973113032" lon="9.602597613977318"><ele>91.5</ele><time>2026-05-01T11:19:59.999Z</time></trkpt><trkpt lat="44.985583910541024" lon="9.60271383724795"><ele>91.66666666666667</ele><time>2026-05-01T11:20:00.999Z</time></trkpt><trkpt lat="44.98557147445199" lon="9.602826905882955"><ele>91.83333333333334</ele><time>2026-05-01T11:20:01.999Z</time></trkpt><trkpt lat="44.98555086586023" lon="9.60293174048219"><ele>92.0</ele><time>2026-05-01T11:20:02.999Z</time></trkpt><trkpt lat="44.98554201443614" lon="9.603024512103456"><ele>92.0</ele><time>2026-05-01T11:20:03.999Z</time></trkpt><trkpt lat="44.98555434084757" lon="9.603186789422933"><ele>92.0</ele><time>2026-05-01T11:20:05.999Z</time></trkpt><trkpt lat="44.98562330052824" lon="9.603222833605678"><ele>92.0</ele><time>2026-05-01T11:20:06.999Z</time></trkpt><trkpt lat="44.98576052015526" lon="9.603228783906347"><ele>92.0</ele><time>2026-05-01T11:20:08.999Z</time></trkpt><trkpt lat="44.98583424763868" lon="9.603248599519672"><ele>92.0</ele><time>2026-05-01T11:20:09.999Z</time></trkpt><trkpt lat="44.98590890681073" lon="9.603255492367493"><ele>91.6</ele><time>2026-05-01T11:20:11.999Z</time></trkpt><trkpt lat="44.98602236963086" lon="9.603255309595522"><ele>91.19999999999999</ele><time>2026-05-01T11:20:19Z</time></trkpt><trkpt lat="44.98611037007198" lon="9.603260492551792"><ele>90.8</ele><time>2026-05-01T11:20:21Z</time></trkpt><trkpt lat="44.98617442655853" lon="9.60332539771851"><ele>90.4</ele><time>2026-05-01T11:20:24Z</time></trkpt><trkpt lat="44.98613677243666" lon="9.603485789708026"><ele>90.0</ele><time>2026-05-01T11:20:28Z</time></trkpt><trkpt lat="44.986123007215966" lon="9.603576284871885"><ele>90.2</ele><time>2026-05-01T11:20:29Z</time></trkpt><trkpt lat="44.98610529382389" lon="9.603702554600384"><ele>90.4</ele><time>2026-05-01T11:20:30Z</time></trkpt><trkpt lat="44.98609122764174" lon="9.60384496297819"><ele>90.6</ele><time>2026-05-01T11:20:31Z</time></trkpt><trkpt lat="44.9860610687429" lon="9.603999219708943"><ele>90.8</ele><time>2026-05-01T11:20:32Z</time></trkpt><trkpt lat="44.98603674321918" lon="9.604151074234844"><ele>91.0</ele><time>2026-05-01T11:20:33Z</time></trkpt><trkpt lat="44.98601463473175" lon="9.604286196723367"><ele>91.0</ele><time>2026-05-01T11:20:34Z</time></trkpt><trkpt lat="44.985994747722394" lon="9.604414221108012"><ele>91.0</ele><time>2026-05-01T11:20:35Z</time></trkpt><trkpt lat="44.985967999577824" lon="9.604543300650391"><ele>91.0</ele><time>2026-05-01T11:20:36Z</time></trkpt><trkpt lat="44.985950904403154" lon="9.604637982094044"><ele>91.0</ele><time>2026-05-01T11:20:37Z</time></trkpt><trkpt lat="44.985909306893205" lon="9.604797114175783"><ele>91.0</ele><time>2026-05-01T11:20:39Z</time></trkpt><trkpt lat="44.9858890659008" lon="9.604906993826933"><ele>91.0</ele><time>2026-05-01T11:20:40.001Z</time></trkpt><trkpt lat="44.985864614837595" lon="9.605036649822909"><ele>91.0</ele><time>2026-05-01T11:20:41.001Z</time></trkpt><trkpt lat="44.98583853638732" lon="9.60517129678794"><ele>91.0</ele><time>2026-05-01T11:20:42.001Z</time></trkpt><trkpt lat="44.98581450182445" lon="9.605295390896794"><ele>91.0</ele><time>2026-05-01T11:20:43.001Z</time></trkpt><trkpt lat="44.98579265731283" lon="9.60540817749309"><ele>91.0</ele><time>2026-05-01T11:20:44.001Z</time></trkpt><trkpt lat="44.985770639341304" lon="9.605521859607908"><ele>91.33333333333333</ele><time>2026-05-01T11:20:45.001Z</time></trkpt><trkpt lat="44.985768642569035" lon="9.60564462774181"><ele>91.66666666666666</ele><time>2026-05-01T11:20:46.001Z</time></trkpt><trkpt lat="44.98574918707549" lon="9.605742352984068"><ele>92.0</ele><time>2026-05-01T11:20:47.001Z</time></trkpt><trkpt lat="44.985729776556056" lon="9.605829479033574"><ele>92.33333333333333</ele><time>2026-05-01T11:20:48.001Z</time></trkpt><trkpt lat="44.985707523145074" lon="9.60598392937512"><ele>92.66666666666667</ele><time>2026-05-01T11:20:50.001Z</time></trkpt><trkpt lat="44.985692601871605" lon="9.606115079036305"><ele>93.0</ele><time>2026-05-01T11:20:52.001Z</time></trkpt><trkpt lat="44.9856521017888" lon="9.606262355155538"><ele>93.0</ele><time>2026-05-01T11:20:54.001Z</time></trkpt><trkpt lat="44.98563443500394" lon="9.60637463578891"><ele>93.0</ele><time>2026-05-01T11:20:55.001Z</time></trkpt><trkpt lat="44.985611648564486" lon="9.606510189370333"><ele>93.0</ele><time>2026-05-01T11:20:56.001Z</time></trkpt><trkpt lat="44.98558454040801" lon="9.606651331093758"><ele>93.0</ele><time>2026-05-01T11:20:57.001Z</time></trkpt><trkpt lat="44.98553908028379" lon="9.606786695475805"><ele>93.0</ele><time>2026-05-01T11:20:58.001Z</time></trkpt><trkpt lat="44.98553386257688" lon="9.60688109030739"><ele>93.0</ele><time>2026-05-01T11:20:59.001Z</time></trkpt><trkpt lat="44.985515439241055" lon="9.606987932993452"><ele>93.0</ele><time>2026-05-01T11:21:04.001Z</time></trkpt><trkpt lat="44.98546494325801" lon="9.607167837086623"><ele>93.0</ele><time>2026-05-01T11:21:06.001Z</time></trkpt><trkpt lat="44.985434634631766" lon="9.607305431523736"><ele>93.0</ele><time>2026-05-01T11:21:07.001Z</time></trkpt><trkpt lat="44.985415125361456" lon="9.607449923370075"><ele>93.0</ele><time>2026-05-01T11:21:08.001Z</time></trkpt><trkpt lat="44.985385017054675" lon="9.607568070350062"><ele>93.0</ele><time>2026-05-01T11:21:09.001Z</time></trkpt><trkpt lat="44.98536154880363" lon="9.607665751209588"><ele>93.0</ele><time>2026-05-01T11:21:10.001Z</time></trkpt><trkpt lat="44.9853426543956" lon="9.607750689047034"><ele>93.0</ele><time>2026-05-01T11:21:11.002Z</time></trkpt><trkpt lat="44.985318381875956" lon="9.60785161425346"><ele>93.0</ele><time>2026-05-01T11:21:12.002Z</time></trkpt><trkpt lat="44.98529510819437" lon="9.607953902586404"><ele>93.0</ele><time>2026-05-01T11:21:13.002Z</time></trkpt><trkpt lat="44.9852723908006" lon="9.608065555348324"><ele>93.0</ele><time>2026-05-01T11:21:14.002Z</time></trkpt><trkpt lat="44.98521393620845" lon="9.608240258488639"><ele>93.0</ele><time>2026-05-01T11:21:16.002Z</time></trkpt><trkpt lat="44.98518758869408" lon="9.608333169160732"><ele>93.0</ele><time>2026-05-01T11:21:17.002Z</time></trkpt><trkpt lat="44.985046247347725" lon="9.608413411258713"><ele>93.0</ele><time>2026-05-01T11:21:18.002Z</time></trkpt><trkpt lat="44.98501916621856" lon="9.608508406882539"><ele>93.0</ele><time>2026-05-01T11:21:19.002Z</time></trkpt><trkpt lat="44.98496530246331" lon="9.608573188751352"><ele>93.0</ele><time>2026-05-01T11:21:20.002Z</time></trkpt><trkpt lat="44.984918677360746" lon="9.608693224879884"><ele>93.0</ele><time>2026-05-01T11:21:21.002Z</time></trkpt><trkpt lat="44.985070785070874" lon="9.608975149633002"><ele>93.0</ele><time>2026-05-01T11:21:22.002Z</time></trkpt><trkpt lat="44.98504174630928" lon="9.609094903667343"><ele>93.0</ele><time>2026-05-01T11:21:23.002Z</time></trkpt><trkpt lat="44.985015757036884" lon="9.609199924212378"><ele>93.0</ele><time>2026-05-01T11:21:24.002Z</time></trkpt><trkpt lat="44.98498800462707" lon="9.609365632513258"><ele>93.4</ele><time>2026-05-01T11:21:26.002Z</time></trkpt><trkpt lat="44.984974527138576" lon="9.609545738849748"><ele>93.80000000000001</ele><time>2026-05-01T11:21:28.002Z</time></trkpt><trkpt lat="44.98497507417608" lon="9.609730030115864"><ele>94.2</ele><time>2026-05-01T11:21:30.002Z</time></trkpt><trkpt lat="44.984957279268535" lon="9.609850364834955"><ele>94.6</ele><time>2026-05-01T11:21:31.002Z</time></trkpt><trkpt lat="44.98493390867085" lon="9.609951166610568"><ele>95.0</ele><time>2026-05-01T11:21:32.002Z</time></trkpt><trkpt lat="44.98491436161456" lon="9.61007734594328"><ele>95.0</ele><time>2026-05-01T11:21:33.002Z</time></trkpt><trkpt lat="44.984876220148735" lon="9.61027675698518"><ele>95.0</ele><time>2026-05-01T11:21:35.002Z</time></trkpt><trkpt lat="44.984856644209565" lon="9.610416484514623"><ele>95.0</ele><time>2026-05-01T11:21:36.002Z</time></trkpt><trkpt lat="44.98484960009875" lon="9.610547663615849"><ele>95.0</ele><time>2026-05-01T11:21:37.002Z</time></trkpt><trkpt lat="44.98482584418906" lon="9.61065258204033"><ele>95.0</ele><time>2026-05-01T11:21:38.002Z</time></trkpt><trkpt lat="44.98481244795251" lon="9.610785746293594"><ele>95.0</ele><time>2026-05-01T11:21:39.002Z</time></trkpt><trkpt lat="44.98479434814718" lon="9.610902884221494"><ele>95.0</ele><time>2026-05-01T11:21:40.002Z</time></trkpt><trkpt lat="44.9847817464015" lon="9.61102992407484"><ele>95.0</ele><time>2026-05-01T11:21:41.002Z</time></trkpt><trkpt lat="44.984763532397174" lon="9.611150649998546"><ele>95.0</ele><time>2026-05-01T11:21:42.002Z</time></trkpt><trkpt lat="44.98475265639146" lon="9.611273205340268"><ele>95.0</ele><time>2026-05-01T11:21:43.002Z</time></trkpt><trkpt lat="44.984726544921244" lon="9.611370669226721"><ele>95.0</ele><time>2026-05-01T11:21:44.003Z</time></trkpt><trkpt lat="44.984721111497734" lon="9.611464615379825"><ele>95.0</ele><time>2026-05-01T11:21:45.003Z</time></trkpt><trkpt lat="44.98471214277268" lon="9.61157033495757"><ele>95.0</ele><time>2026-05-01T11:21:46.003Z</time></trkpt><trkpt lat="44.98468911474566" lon="9.61167732449888"><ele>95.0</ele><time>2026-05-01T11:21:47.003Z</time></trkpt><trkpt lat="44.98468031650653" lon="9.61178935999244"><ele>95.0</ele><time>2026-05-01T11:21:48.003Z</time></trkpt><trkpt lat="44.98466003491475" lon="9.611888321559274"><ele>95.0</ele><time>2026-05-01T11:21:49.003Z</time></trkpt><trkpt lat="44.98465194807322" lon="9.611992490791444"><ele>95.0</ele><time>2026-05-01T11:21:50.003Z</time></trkpt><trkpt lat="44.98463995253154" lon="9.61209439465604"><ele>95.0</ele><time>2026-05-01T11:21:51.003Z</time></trkpt><trkpt lat="44.98461452021759" lon="9.612194659605022"><ele>95.0</ele><time>2026-05-01T11:21:52.003Z</time></trkpt><trkpt lat="44.984604794150265" lon="9.612296896732447"><ele>95.0</ele><time>2026-05-01T11:21:53.003Z</time></trkpt><trkpt lat="44.98458106655077" lon="9.61239671708309"><ele>95.0</ele><time>2026-05-01T11:21:54.003Z</time></trkpt><trkpt lat="44.98458603258536" lon="9.612513239177169"><ele>95.0</ele><time>2026-05-01T11:21:55.003Z</time></trkpt><trkpt lat="44.98456151618163" lon="9.61261935618249"><ele>95.0</ele><time>2026-05-01T11:21:56.003Z</time></trkpt><trkpt lat="44.98456045255158" lon="9.612720388673829"><ele>95.2</ele><time>2026-05-01T11:21:57Z</time></trkpt><trkpt lat="44.98452082748633" lon="9.612825485655616"><ele>95.4</ele><time>2026-05-01T11:21:58Z</time></trkpt><trkpt lat="44.9844874993308" lon="9.61295041878619"><ele>95.6</ele><time>2026-05-01T11:21:59Z</time></trkpt><trkpt lat="44.9844675039902" lon="9.613082960176751"><ele>95.8</ele><time>2026-05-01T11:22:00Z</time></trkpt><trkpt lat="44.98444028924963" lon="9.613225954521067"><ele>96.0</ele><time>2026-05-01T11:22:01Z</time></trkpt><trkpt lat="44.984421838435026" lon="9.613402866822838"><ele>96.0</ele><time>2026-05-01T11:22:02Z</time></trkpt><trkpt lat="44.9844099516747" lon="9.613559925005157"><ele>96.0</ele><time>2026-05-01T11:22:03Z</time></trkpt><trkpt lat="44.984389148977385" lon="9.613647677709297"><ele>96.0</ele><time>2026-05-01T11:22:04Z</time></trkpt><trkpt lat="44.98437250207287" lon="9.613766674110781"><ele>96.0</ele><time>2026-05-01T11:22:05Z</time></trkpt><trkpt lat="44.98434995501913" lon="9.613892188762197"><ele>96.0</ele><time>2026-05-01T11:22:06Z</time></trkpt><trkpt lat="44.98433691826832" lon="9.614021119982224"><ele>96.0</ele><time>2026-05-01T11:22:07Z</time></trkpt><trkpt lat="44.98432815857792" lon="9.6141226813958"><ele>96.0</ele><time>2026-05-01T11:22:08Z</time></trkpt><trkpt lat="44.98434006898894" lon="9.614280061896482"><ele>96.0</ele><time>2026-05-01T11:22:10Z</time></trkpt><trkpt lat="44.98442517088267" lon="9.614389183708765"><ele>96.0</ele><time>2026-05-01T11:22:12Z</time></trkpt><trkpt lat="44.98449857228052" lon="9.614448049096987"><ele>96.0</ele><time>2026-05-01T11:22:13Z</time></trkpt><trkpt lat="44.98457707581926" lon="9.614511783373661"><ele>96.0</ele><time>2026-05-01T11:22:14Z</time></trkpt><trkpt lat="44.98464748606306" lon="9.61458667403529"><ele>96.0</ele><time>2026-05-01T11:22:15Z</time></trkpt><trkpt lat="44.984714015544654" lon="9.614669431649755"><ele>96.0</ele><time>2026-05-01T11:22:16Z</time></trkpt><trkpt lat="44.98476808041383" lon="9.61477817711026"><ele>96.0</ele><time>2026-05-01T11:22:17Z</time></trkpt><trkpt lat="44.98480984017676" lon="9.614886568104437"><ele>96.0</ele><time>2026-05-01T11:22:18Z</time></trkpt><trkpt lat="44.98485932069209" lon="9.615011966020834"><ele>96.0</ele><time>2026-05-01T11:22:19Z</time></trkpt><trkpt lat="44.984907960954416" lon="9.615123880733385"><ele>96.0</ele><time>2026-05-01T11:22:20Z</time></trkpt><trkpt lat="44.98497531840889" lon="9.61526966636141"><ele>96.0</ele><time>2026-05-01T11:22:21Z</time></trkpt><trkpt lat="44.98504305287152" lon="9.61540645905243"><ele>96.0</ele><time>2026-05-01T11:22:22Z</time></trkpt><trkpt lat="44.985116402896764" lon="9.615529268741035"><ele>96.0</ele><time>2026-05-01T11:22:23Z</time></trkpt><trkpt lat="44.985207408048005" lon="9.615634926864844"><ele>95.5</ele><time>2026-05-01T11:22:24Z</time></trkpt><trkpt lat="44.98531271271565" lon="9.615712380430205"><ele>95.0</ele><time>2026-05-01T11:22:25Z</time></trkpt><trkpt lat="44.98543414794378" lon="9.615777079063491"><ele>94.5</ele><time>2026-05-01T11:22:26Z</time></trkpt><trkpt lat="44.98556106528083" lon="9.615842247515275"><ele>94.0</ele><time>2026-05-01T11:22:27.001Z</time></trkpt><trkpt lat="44.98569366336892" lon="9.615919943292607"><ele>94.0</ele><time>2026-05-01T11:22:28.001Z</time></trkpt><trkpt lat="44.98582824761348" lon="9.615995940468013"><ele>94.0</ele><time>2026-05-01T11:22:29.001Z</time></trkpt><trkpt lat="44.98596202122552" lon="9.61608422477156"><ele>94.0</ele><time>2026-05-01T11:22:30.001Z</time></trkpt><trkpt lat="44.98608751440207" lon="9.616213126394356"><ele>94.0</ele><time>2026-05-01T11:22:31.001Z</time></trkpt><trkpt lat="44.986203247165356" lon="9.616320088110163"><ele>94.0</ele><time>2026-05-01T11:22:32.001Z</time></trkpt><trkpt lat="44.98633490195743" lon="9.616401389715312"><ele>94.0</ele><time>2026-05-01T11:22:33.001Z</time></trkpt><trkpt lat="44.98644516566119" lon="9.616507799961525"><ele>94.0</ele><time>2026-05-01T11:22:34.001Z</time></trkpt><trkpt lat="44.98657537077788" lon="9.616592337283107"><ele>94.0</ele><time>2026-05-01T11:22:35.001Z</time></trkpt><trkpt lat="44.986697664497676" lon="9.616682533834657"><ele>93.75</ele><time>2026-05-01T11:22:36.001Z</time></trkpt><trkpt lat="44.98682023286018" lon="9.616781892933476"><ele>93.5</ele><time>2026-05-01T11:22:37.001Z</time></trkpt><trkpt lat="44.98694128401659" lon="9.616887269033517"><ele>93.25</ele><time>2026-05-01T11:22:38.001Z</time></trkpt><trkpt lat="44.987057018870615" lon="9.616988942647932"><ele>93.0</ele><time>2026-05-01T11:22:39.001Z</time></trkpt><trkpt lat="44.9871733870151" lon="9.617091253881187"><ele>93.0</ele><time>2026-05-01T11:22:40.001Z</time></trkpt><trkpt lat="44.9872889740139" lon="9.617204917800622"><ele>93.0</ele><time>2026-05-01T11:22:41.001Z</time></trkpt><trkpt lat="44.98740433910012" lon="9.617328837671613"><ele>93.0</ele><time>2026-05-01T11:22:42.001Z</time></trkpt><trkpt lat="44.98750005225308" lon="9.617454477941994"><ele>93.0</ele><time>2026-05-01T11:22:43.001Z</time></trkpt><trkpt lat="44.9876234741991" lon="9.617589748084821"><ele>93.0</ele><time>2026-05-01T11:22:44.001Z</time></trkpt><trkpt lat="44.987714020694945" lon="9.617687881292525"><ele>93.0</ele><time>2026-05-01T11:22:45.001Z</time></trkpt><trkpt lat="44.987835756328145" lon="9.617832377479642"><ele>93.0</ele><time>2026-05-01T11:22:46.001Z</time></trkpt><trkpt lat="44.987937965467594" lon="9.61793330637285"><ele>93.0</ele><time>2026-05-01T11:22:47.001Z</time></trkpt><trkpt lat="44.98804115736633" lon="9.618033896047589"><ele>93.2</ele><time>2026-05-01T11:22:48.001Z</time></trkpt><trkpt lat="44.98814750908392" lon="9.618111766353065"><ele>93.4</ele><time>2026-05-01T11:22:49.001Z</time></trkpt><trkpt lat="44.988243250134104" lon="9.618184123792261"><ele>93.60000000000001</ele><time>2026-05-01T11:22:50.001Z</time></trkpt><trkpt lat="44.98832797229013" lon="9.618240616237465"><ele>93.80000000000001</ele><time>2026-05-01T11:22:51.001Z</time></trkpt><trkpt lat="44.98840680345643" lon="9.618335354216198"><ele>94.0</ele><time>2026-05-01T11:22:52.001Z</time></trkpt><trkpt lat="44.98848891771931" lon="9.618393779623284"><ele>94.0</ele><time>2026-05-01T11:22:53.001Z</time></trkpt><trkpt lat="44.98856539254744" lon="9.61842962050973"><ele>94.0</ele><time>2026-05-01T11:22:54.001Z</time></trkpt><trkpt lat="44.98863085719257" lon="9.618449691381379"><ele>94.0</ele><time>2026-05-01T11:22:55.001Z</time></trkpt><trkpt lat="44.98870236461311" lon="9.618461561475243"><ele>94.0</ele><time>2026-05-01T11:22:56.001Z</time></trkpt><trkpt lat="44.98876054508635" lon="9.6184978802079"><ele>94.0</ele><time>2026-05-01T11:22:57.001Z</time></trkpt><trkpt lat="44.98881360013757" lon="9.61859042790996"><ele>94.0</ele><time>2026-05-01T11:22:59.001Z</time></trkpt><trkpt lat="44.98874001154306" lon="9.618739998964665"><ele>94.0</ele><time>2026-05-01T11:23:00.001Z</time></trkpt><trkpt lat="44.988724345426775" lon="9.618865352695549"><ele>94.0</ele><time>2026-05-01T11:23:01.001Z</time></trkpt><trkpt lat="44.988693147960966" lon="9.619000096605333"><ele>94.0</ele><time>2026-05-01T11:23:02.001Z</time></trkpt><trkpt lat="44.988673674646215" lon="9.61916710161975"><ele>94.0</ele><time>2026-05-01T11:23:03.002Z</time></trkpt><trkpt lat="44.9886484418958" lon="9.619339631114183"><ele>94.0</ele><time>2026-05-01T11:23:04.002Z</time></trkpt><trkpt lat="44.988629700629154" lon="9.61953446307855"><ele>93.0</ele><time>2026-05-01T11:23:05.002Z</time></trkpt><trkpt lat="44.988610686747975" lon="9.619737511663283"><ele>92.0</ele><time>2026-05-01T11:23:06.002Z</time></trkpt><trkpt lat="44.98858094017912" lon="9.619963737668298"><ele>91.0</ele><time>2026-05-01T11:23:07.002Z</time></trkpt><trkpt lat="44.98855435596833" lon="9.620198851630354"><ele>90.33333333333333</ele><time>2026-05-01T11:23:08.002Z</time></trkpt><trkpt lat="44.98852276462579" lon="9.62044420577577"><ele>89.66666666666667</ele><time>2026-05-01T11:23:09.002Z</time></trkpt><trkpt lat="44.98849080984892" lon="9.62070139986045"><ele>89.0</ele><time>2026-05-01T11:23:10.002Z</time></trkpt><trkpt lat="44.988460213781366" lon="9.620957660821373"><ele>89.66666666666667</ele><time>2026-05-01T11:23:11.002Z</time></trkpt><trkpt lat="44.98842940514517" lon="9.621230013797701"><ele>90.33333333333333</ele><time>2026-05-01T11:23:12.002Z</time></trkpt><trkpt lat="44.98840083909429" lon="9.62150300636142"><ele>91.0</ele><time>2026-05-01T11:23:13.002Z</time></trkpt><trkpt lat="44.98837001887848" lon="9.621785124223901"><ele>91.0</ele><time>2026-05-01T11:23:14.002Z</time></trkpt><trkpt lat="44.98834906693885" lon="9.622044262347359"><ele>91.0</ele><time>2026-05-01T11:23:15.002Z</time></trkpt><trkpt lat="44.98832081829772" lon="9.622278512483012"><ele>91.0</ele><time>2026-05-01T11:23:16.002Z</time></trkpt><trkpt lat="44.98829395950014" lon="9.622520809851718"><ele>91.0</ele><time>2026-05-01T11:23:17.002Z</time></trkpt><trkpt lat="44.98826586998869" lon="9.622780181693093"><ele>91.0</ele><time>2026-05-01T11:23:18.002Z</time></trkpt><trkpt lat="44.988241903620214" lon="9.623025547168737"><ele>91.0</ele><time>2026-05-01T11:23:19.002Z</time></trkpt><trkpt lat="44.988219775645916" lon="9.623257200670865"><ele>91.4</ele><time>2026-05-01T11:23:20.002Z</time></trkpt><trkpt lat="44.988194966201405" lon="9.623467194777705"><ele>91.8</ele><time>2026-05-01T11:23:21.002Z</time></trkpt><trkpt lat="44.98816987560172" lon="9.623644507159577"><ele>92.2</ele><time>2026-05-01T11:23:22.002Z</time></trkpt><trkpt lat="44.98815293533929" lon="9.623773874214924"><ele>92.60000000000001</ele><time>2026-05-01T11:23:23.002Z</time></trkpt><trkpt lat="44.98814811114826" lon="9.623868583117007"><ele>93.0</ele><time>2026-05-01T11:23:24.002Z</time></trkpt><trkpt lat="44.98816554639204" lon="9.6240687572958"><ele>93.0</ele><time>2026-05-01T11:23:26.002Z</time></trkpt><trkpt lat="44.988164439333616" lon="9.6242225113407"><ele>93.0</ele><time>2026-05-01T11:23:27.002Z</time></trkpt><trkpt lat="44.98813574855177" lon="9.624406857766111"><ele>93.0</ele><time>2026-05-01T11:23:28.002Z</time></trkpt><trkpt lat="44.98810064000021" lon="9.624615183499417"><ele>93.0</ele><time>2026-05-01T11:23:29.002Z</time></trkpt><trkpt lat="44.988073940201296" lon="9.624839909981185"><ele>93.0</ele><time>2026-05-01T11:23:30.002Z</time></trkpt><trkpt lat="44.988046533213236" lon="9.625089181067533"><ele>93.0</ele><time>2026-05-01T11:23:31.002Z</time></trkpt><trkpt lat="44.988017283203455" lon="9.625349133576965"><ele>93.0</ele><time>2026-05-01T11:23:32.002Z</time></trkpt><trkpt lat="44.987986333862835" lon="9.625611575949328"><ele>93.0</ele><time>2026-05-01T11:23:33.002Z</time></trkpt><trkpt lat="44.98795367648753" lon="9.625896300697303"><ele>93.0</ele><time>2026-05-01T11:23:34.002Z</time></trkpt><trkpt lat="44.987916380365434" lon="9.626219255831263"><ele>93.0</ele><time>2026-05-01T11:23:35.002Z</time></trkpt><trkpt lat="44.987874496645865" lon="9.626581463989854"><ele>92.0</ele><time>2026-05-01T11:23:36.002Z</time></trkpt><trkpt lat="44.9878333742155" lon="9.626947020798301"><ele>91.0</ele><time>2026-05-01T11:23:37.002Z</time></trkpt><trkpt lat="44.98779167848787" lon="9.62730582167425"><ele>91.0</ele><time>2026-05-01T11:23:38.003Z</time></trkpt><trkpt lat="44.987746993847225" lon="9.627655964980352"><ele>91.0</ele><time>2026-05-01T11:23:39.003Z</time></trkpt><trkpt lat="44.98770508989206" lon="9.627995778929405"><ele>91.0</ele><time>2026-05-01T11:23:40.003Z</time></trkpt><trkpt lat="44.987661616438366" lon="9.628341965705994"><ele>91.0</ele><time>2026-05-01T11:23:41.003Z</time></trkpt><trkpt lat="44.98762061766779" lon="9.628679268103733"><ele>91.0</ele><time>2026-05-01T11:23:42.003Z</time></trkpt><trkpt lat="44.98758073624384" lon="9.629017924223737"><ele>91.0</ele><time>2026-05-01T11:23:43.003Z</time></trkpt><trkpt lat="44.987538992593784" lon="9.629352462463784"><ele>92.0</ele><time>2026-05-01T11:23:44.003Z</time></trkpt><trkpt lat="44.98749039765596" lon="9.629675301520102"><ele>93.0</ele><time>2026-05-01T11:23:45.003Z</time></trkpt><trkpt lat="44.98743130095178" lon="9.630005452834851"><ele>93.0</ele><time>2026-05-01T11:23:46.003Z</time></trkpt><trkpt lat="44.98737226284959" lon="9.630342512379563"><ele>93.0</ele><time>2026-05-01T11:23:47.003Z</time></trkpt><trkpt lat="44.987316842769914" lon="9.63070809172541"><ele>93.0</ele><time>2026-05-01T11:23:48.003Z</time></trkpt><trkpt lat="44.98726759532046" lon="9.631077040043232"><ele>93.0</ele><time>2026-05-01T11:23:49.003Z</time></trkpt><trkpt lat="44.98722192883048" lon="9.631434572685677"><ele>92.0</ele><time>2026-05-01T11:23:50.003Z</time></trkpt><trkpt lat="44.98717794503927" lon="9.631776645642864"><ele>91.0</ele><time>2026-05-01T11:23:51.003Z</time></trkpt><trkpt lat="44.98712911962153" lon="9.632126246270687"><ele>91.0</ele><time>2026-05-01T11:23:52.003Z</time></trkpt><trkpt lat="44.98707983281127" lon="9.632472149877342"><ele>91.0</ele><time>2026-05-01T11:23:53.003Z</time></trkpt><trkpt lat="44.98703632173887" lon="9.632809313289615"><ele>91.5</ele><time>2026-05-01T11:23:54.003Z</time></trkpt><trkpt lat="44.986993601418234" lon="9.633138631145703"><ele>92.0</ele><time>2026-05-01T11:23:55.003Z</time></trkpt><trkpt lat="44.986944717610186" lon="9.633483252789501"><ele>92.5</ele><time>2026-05-01T11:23:56.003Z</time></trkpt><trkpt lat="44.98690111183983" lon="9.633811056963845"><ele>93.0</ele><time>2026-05-01T11:23:57.003Z</time></trkpt><trkpt lat="44.986856226210655" lon="9.634149106317514"><ele>93.0</ele><time>2026-05-01T11:23:58.003Z</time></trkpt><trkpt lat="44.98680931519019" lon="9.634482500964708"><ele>93.0</ele><time>2026-05-01T11:23:59.003Z</time></trkpt><trkpt lat="44.98676348611413" lon="9.634802892574594"><ele>93.0</ele><time>2026-05-01T11:24:00.003Z</time></trkpt><trkpt lat="44.98672154202314" lon="9.63512945898353"><ele>93.0</ele><time>2026-05-01T11:24:01.003Z</time></trkpt><trkpt lat="44.98667853137507" lon="9.635453541949849"><ele>92.33333333333333</ele><time>2026-05-01T11:24:02.003Z</time></trkpt><trkpt lat="44.986638963577754" lon="9.635756142765537"><ele>91.66666666666666</ele><time>2026-05-01T11:24:03.001Z</time></trkpt><trkpt lat="44.986602379072345" lon="9.63603129528381"><ele>91.0</ele><time>2026-05-01T11:24:04.001Z</time></trkpt><trkpt lat="44.98656993721165" lon="9.636297670398468"><ele>91.0</ele><time>2026-05-01T11:24:05.001Z</time></trkpt><trkpt lat="44.986530682563306" lon="9.636577791450103"><ele>91.0</ele><time>2026-05-01T11:24:06.001Z</time></trkpt><trkpt lat="44.98649045197233" lon="9.636861327530639"><ele>91.0</ele><time>2026-05-01T11:24:07.001Z</time></trkpt><trkpt lat="44.98644687143887" lon="9.63715068353382"><ele>91.0</ele><time>2026-05-01T11:24:08.001Z</time></trkpt><trkpt lat="44.98640322098692" lon="9.637433714842429"><ele>91.0</ele><time>2026-05-01T11:24:09.001Z</time></trkpt><trkpt lat="44.98636075612682" lon="9.637722818340993"><ele>91.0</ele><time>2026-05-01T11:24:10.001Z</time></trkpt><trkpt lat="44.98631329031955" lon="9.638019111540949"><ele>91.0</ele><time>2026-05-01T11:24:11.001Z</time></trkpt><trkpt lat="44.98627098766969" lon="9.638303091616244"><ele>91.0</ele><time>2026-05-01T11:24:12.001Z</time></trkpt><trkpt lat="44.9862237649615" lon="9.63859654375718"><ele>91.0</ele><time>2026-05-01T11:24:13.001Z</time></trkpt><trkpt lat="44.9861816504439" lon="9.638889761163691"><ele>91.0</ele><time>2026-05-01T11:24:14.001Z</time></trkpt><trkpt lat="44.98614003255732" lon="9.6391841515029"><ele>91.0</ele><time>2026-05-01T11:24:15.001Z</time></trkpt><trkpt lat="44.986096232104224" lon="9.639484223230511"><ele>91.0</ele><time>2026-05-01T11:24:16Z</time></trkpt><trkpt lat="44.9860521345222" lon="9.639767614333206"><ele>91.0</ele><time>2026-05-01T11:24:17Z</time></trkpt><trkpt lat="44.986004594569856" lon="9.640063679469128"><ele>91.0</ele><time>2026-05-01T11:24:18Z</time></trkpt><trkpt lat="44.98595879450525" lon="9.640346712758829"><ele>91.0</ele><time>2026-05-01T11:24:19Z</time></trkpt><trkpt lat="44.98591304782094" lon="9.640645310744672"><ele>90.66666666666666</ele><time>2026-05-01T11:24:20Z</time></trkpt><trkpt lat="44.98586984679255" lon="9.640937662276015"><ele>90.33333333333333</ele><time>2026-05-01T11:24:21Z</time></trkpt><trkpt lat="44.98582409294796" lon="9.641236681880374"><ele>90.0</ele><time>2026-05-01T11:24:22Z</time></trkpt><trkpt lat="44.985775751325036" lon="9.64153503079678"><ele>90.0</ele><time>2026-05-01T11:24:23Z</time></trkpt><trkpt lat="44.985726862579206" lon="9.64184729597977"><ele>90.0</ele><time>2026-05-01T11:24:24Z</time></trkpt><trkpt lat="44.98567642072842" lon="9.642152066291612"><ele>90.0</ele><time>2026-05-01T11:24:25Z</time></trkpt><trkpt lat="44.985623470111676" lon="9.642460983758063"><ele>90.0</ele><time>2026-05-01T11:24:26Z</time></trkpt><trkpt lat="44.98557064097342" lon="9.64276159913933"><ele>90.0</ele><time>2026-05-01T11:24:27Z</time></trkpt><trkpt lat="44.985514720465375" lon="9.643063310457675"><ele>90.0</ele><time>2026-05-01T11:24:28Z</time></trkpt><trkpt lat="44.98545592296296" lon="9.643368668457947"><ele>90.0</ele><time>2026-05-01T11:24:29Z</time></trkpt><trkpt lat="44.985404234141846" lon="9.64364091734089"><ele>90.0</ele><time>2026-05-01T11:24:30Z</time></trkpt><trkpt lat="44.985350287460406" lon="9.643878297820796"><ele>90.0</ele><time>2026-05-01T11:24:31Z</time></trkpt><trkpt lat="44.98530265766214" lon="9.644102540870353"><ele>90.0</ele><time>2026-05-01T11:24:32Z</time></trkpt><trkpt lat="44.98526363211275" lon="9.644299765217784"><ele>90.0</ele><time>2026-05-01T11:24:33Z</time></trkpt><trkpt lat="44.985228616127806" lon="9.644477949051193"><ele>90.0</ele><time>2026-05-01T11:24:34Z</time></trkpt><trkpt lat="44.985214554418626" lon="9.644621900195553"><ele>90.0</ele><time>2026-05-01T11:24:35.001Z</time></trkpt><trkpt lat="44.985234221983994" lon="9.644746751308737"><ele>90.5</ele><time>2026-05-01T11:24:36.001Z</time></trkpt><trkpt lat="44.98529718709954" lon="9.644850406212806"><ele>91.0</ele><time>2026-05-01T11:24:37.001Z</time></trkpt><trkpt lat="44.98540511179813" lon="9.644937985653614"><ele>91.5</ele><time>2026-05-01T11:24:38.001Z</time></trkpt><trkpt lat="44.98554696502587" lon="9.645030591623941"><ele>92.0</ele><time>2026-05-01T11:24:39.001Z</time></trkpt><trkpt lat="44.98569756860945" lon="9.645129378819387"><ele>91.66666666666667</ele><time>2026-05-01T11:24:40.001Z</time></trkpt><trkpt lat="44.98585884480762" lon="9.645244744609874"><ele>91.33333333333333</ele><time>2026-05-01T11:24:41.001Z</time></trkpt><trkpt lat="44.986024224350906" lon="9.645369444996524"><ele>91.0</ele><time>2026-05-01T11:24:42.001Z</time></trkpt><trkpt lat="44.98620584149415" lon="9.645503821607175"><ele>91.0</ele><time>2026-05-01T11:24:43.001Z</time></trkpt><trkpt lat="44.98639269951958" lon="9.645638346006319"><ele>91.0</ele><time>2026-05-01T11:24:44.001Z</time></trkpt><trkpt lat="44.986593372888635" lon="9.645785664639144"><ele>91.0</ele><time>2026-05-01T11:24:45.001Z</time></trkpt><trkpt lat="44.986791263633215" lon="9.645931290318703"><ele>90.0</ele><time>2026-05-01T11:24:46.001Z</time></trkpt><trkpt lat="44.98699678687277" lon="9.646087122896265"><ele>89.0</ele><time>2026-05-01T11:24:47.001Z</time></trkpt><trkpt lat="44.98720144442404" lon="9.646240478825918"><ele>89.0</ele><time>2026-05-01T11:24:48.001Z</time></trkpt><trkpt lat="44.98738388283836" lon="9.646371876814603"><ele>89.0</ele><time>2026-05-01T11:24:49.001Z</time></trkpt><trkpt lat="44.98756351854635" lon="9.646505529157308"><ele>89.0</ele><time>2026-05-01T11:24:50.001Z</time></trkpt><trkpt lat="44.98775221226134" lon="9.646641400075058"><ele>89.0</ele><time>2026-05-01T11:24:51.001Z</time></trkpt><trkpt lat="44.98793793384051" lon="9.646770439682559"><ele>89.0</ele><time>2026-05-01T11:24:52.001Z</time></trkpt><trkpt lat="44.98812935330803" lon="9.646901912718498"><ele>89.0</ele><time>2026-05-01T11:24:53.001Z</time></trkpt><trkpt lat="44.988330124607536" lon="9.647032349595744"><ele>89.33333333333334</ele><time>2026-05-01T11:24:54.001Z</time></trkpt><trkpt lat="44.988522191798864" lon="9.64714494831251"><ele>89.66666666666667</ele><time>2026-05-01T11:24:55.001Z</time></trkpt><trkpt lat="44.98872450478339" lon="9.647261013403018"><ele>90.0</ele><time>2026-05-01T11:24:56.001Z</time></trkpt><trkpt lat="44.988919679936195" lon="9.647367707580772"><ele>90.0</ele><time>2026-05-01T11:24:57.001Z</time></trkpt><trkpt lat="44.98911763912523" lon="9.647475848480102"><ele>90.0</ele><time>2026-05-01T11:24:58.001Z</time></trkpt><trkpt lat="44.989318673619785" lon="9.647585100485196"><ele>90.0</ele><time>2026-05-01T11:24:59.001Z</time></trkpt><trkpt lat="44.98949317611874" lon="9.647676980431191"><ele>89.66666666666667</ele><time>2026-05-01T11:25:00.001Z</time></trkpt><trkpt lat="44.98966743627308" lon="9.647779095774345"><ele>89.33333333333334</ele><time>2026-05-01T11:25:01.001Z</time></trkpt><trkpt lat="44.98984806033135" lon="9.647877062305392"><ele>89.0</ele><time>2026-05-01T11:25:02.001Z</time></trkpt><trkpt lat="44.990032017963216" lon="9.647974828335416"><ele>88.66666666666667</ele><time>2026-05-01T11:25:03.001Z</time></trkpt><trkpt lat="44.99021302009037" lon="9.648071712956328"><ele>88.33333333333333</ele><time>2026-05-01T11:25:04.001Z</time></trkpt><trkpt lat="44.99040147943926" lon="9.648171189565849"><ele>88.0</ele><time>2026-05-01T11:25:05.001Z</time></trkpt><trkpt lat="44.99059443102902" lon="9.648270714612877"><ele>88.0</ele><time>2026-05-01T11:25:06.001Z</time></trkpt><trkpt lat="44.990793465054324" lon="9.648350822872782"><ele>88.0</ele><time>2026-05-01T11:25:07.001Z</time></trkpt><trkpt lat="44.99100588233882" lon="9.648399290918302"><ele>88.0</ele><time>2026-05-01T11:25:08.001Z</time></trkpt><trkpt lat="44.99121821071262" lon="9.648405731907737"><ele>88.0</ele><time>2026-05-01T11:25:09.001Z</time></trkpt><trkpt lat="44.99144339212521" lon="9.648391948529232"><ele>88.0</ele><time>2026-05-01T11:25:10.001Z</time></trkpt><trkpt lat="44.9916638187669" lon="9.648371170032812"><ele>88.0</ele><time>2026-05-01T11:25:11.001Z</time></trkpt><trkpt lat="44.99189011733685" lon="9.648352329217905"><ele>88.0</ele><time>2026-05-01T11:25:12.001Z</time></trkpt><trkpt lat="44.99210246633362" lon="9.648346908561592"><ele>88.0</ele><time>2026-05-01T11:25:13.001Z</time></trkpt><trkpt lat="44.99229862111938" lon="9.648342784783223"><ele>88.0</ele><time>2026-05-01T11:25:14.001Z</time></trkpt><trkpt lat="44.99250766756397" lon="9.648337170638312"><ele>88.0</ele><time>2026-05-01T11:25:15.001Z</time></trkpt><trkpt lat="44.99270926966811" lon="9.648330373030618"><ele>88.0</ele><time>2026-05-01T11:25:16.001Z</time></trkpt><trkpt lat="44.99290728739527" lon="9.64832131922611"><ele>88.0</ele><time>2026-05-01T11:25:17.001Z</time></trkpt><trkpt lat="44.99308808839499" lon="9.648320211512008"><ele>88.0</ele><time>2026-05-01T11:25:18.001Z</time></trkpt><trkpt lat="44.99327456525463" lon="9.648336796507367"><ele>88.0</ele><time>2026-05-01T11:25:19.001Z</time></trkpt><trkpt lat="44.99346421207296" lon="9.648380410117614"><ele>88.0</ele><time>2026-05-01T11:25:20.001Z</time></trkpt><trkpt lat="44.99366567739427" lon="9.648419398356353"><ele>87.33333333333333</ele><time>2026-05-01T11:25:21.001Z</time></trkpt><trkpt lat="44.99387357888212" lon="9.648415372609831"><ele>86.66666666666667</ele><time>2026-05-01T11:25:22.001Z</time></trkpt><trkpt lat="44.994095036649846" lon="9.648406890624903"><ele>86.0</ele><time>2026-05-01T11:25:23.001Z</time></trkpt><trkpt lat="44.99431341413402" lon="9.648416286093312"><ele>86.0</ele><time>2026-05-01T11:25:24.001Z</time></trkpt><trkpt lat="44.99453300413134" lon="9.648436635298223"><ele>86.0</ele><time>2026-05-01T11:25:25.001Z</time></trkpt><trkpt lat="44.99475724010716" lon="9.648481282471469"><ele>86.0</ele><time>2026-05-01T11:25:26.001Z</time></trkpt><trkpt lat="44.9949731805828" lon="9.648539585075023"><ele>86.0</ele><time>2026-05-01T11:25:27.001Z</time></trkpt><trkpt lat="44.99519854302976" lon="9.64862554599263"><ele>86.0</ele><time>2026-05-01T11:25:28.001Z</time></trkpt><trkpt lat="44.99541770444347" lon="9.648715653790445"><ele>86.0</ele><time>2026-05-01T11:25:29.001Z</time></trkpt><trkpt lat="44.99564017794273" lon="9.648805938010943"><ele>86.0</ele><time>2026-05-01T11:25:30.001Z</time></trkpt><trkpt lat="44.99585935142192" lon="9.6488969485527"><ele>85.0</ele><time>2026-05-01T11:25:31.001Z</time></trkpt><trkpt lat="44.99607841660221" lon="9.648992399754192"><ele>84.0</ele><time>2026-05-01T11:25:32.001Z</time></trkpt><trkpt lat="44.99630491752088" lon="9.649097721397911"><ele>84.0</ele><time>2026-05-01T11:25:33.001Z</time></trkpt><trkpt lat="44.99652709523104" lon="9.649198606329595"><ele>84.0</ele><time>2026-05-01T11:25:34.002Z</time></trkpt><trkpt lat="44.99676205179334" lon="9.649307226956186"><ele>84.5</ele><time>2026-05-01T11:25:35.002Z</time></trkpt><trkpt lat="44.99698812204885" lon="9.649415901917719"><ele>85.0</ele><time>2026-05-01T11:25:36.002Z</time></trkpt><trkpt lat="44.99721477358679" lon="9.64953025510649"><ele>85.0</ele><time>2026-05-01T11:25:37.002Z</time></trkpt><trkpt lat="44.9974264555418" lon="9.649645493822423"><ele>85.0</ele><time>2026-05-01T11:25:38.002Z</time></trkpt><trkpt lat="44.99762349235567" lon="9.649754056226149"><ele>85.0</ele><time>2026-05-01T11:25:39.002Z</time></trkpt><trkpt lat="44.99780362066562" lon="9.649857659272294"><ele>85.33333333333333</ele><time>2026-05-01T11:25:40.002Z</time></trkpt><trkpt lat="44.99797076448618" lon="9.649953510486977"><ele>85.66666666666667</ele><time>2026-05-01T11:25:41.002Z</time></trkpt><trkpt lat="44.99811771911911" lon="9.650039269922667"><ele>86.0</ele><time>2026-05-01T11:25:42.002Z</time></trkpt><trkpt lat="44.99824656146115" lon="9.650114192055872"><ele>85.8</ele><time>2026-05-01T11:25:43.002Z</time></trkpt><trkpt lat="44.99834757679309" lon="9.650172149718971"><ele>85.6</ele><time>2026-05-01T11:25:44.002Z</time></trkpt><trkpt lat="44.9984247592092" lon="9.650217074716466"><ele>85.4</ele><time>2026-05-01T11:25:45.002Z</time></trkpt><trkpt lat="44.99848424468012" lon="9.650255317500061"><ele>85.2</ele><time>2026-05-01T11:25:47.002Z</time></trkpt><trkpt lat="44.99859417767503" lon="9.650325773973613"><ele>85.0</ele><time>2026-05-01T11:25:51.002Z</time></trkpt><trkpt lat="44.998698409289055" lon="9.650373368905491"><ele>85.0</ele><time>2026-05-01T11:25:52.002Z</time></trkpt><trkpt lat="44.998812188871504" lon="9.650424156699085"><ele>85.0</ele><time>2026-05-01T11:25:53.002Z</time></trkpt><trkpt lat="44.99895205648695" lon="9.650480560576922"><ele>85.0</ele><time>2026-05-01T11:25:54.002Z</time></trkpt><trkpt lat="44.99910708850798" lon="9.650550963040898"><ele>85.0</ele><time>2026-05-01T11:25:55.002Z</time></trkpt><trkpt lat="44.999274066945894" lon="9.650628811238553"><ele>85.0</ele><time>2026-05-01T11:25:56.002Z</time></trkpt><trkpt lat="44.9994472585621" lon="9.650709000046067"><ele>85.0</ele><time>2026-05-01T11:25:57.002Z</time></trkpt><trkpt lat="44.99962475317549" lon="9.650797598041372"><ele>85.0</ele><time>2026-05-01T11:25:58.002Z</time></trkpt><trkpt lat="44.99980752037258" lon="9.650885908376118"><ele>85.0</ele><time>2026-05-01T11:25:59.002Z</time></trkpt><trkpt lat="45.000002433519455" lon="9.650973808291747"><ele>85.0</ele><time>2026-05-01T11:26:00.002Z</time></trkpt><trkpt lat="45.00019998350447" lon="9.651061955758996"><ele>85.0</ele><time>2026-05-01T11:26:01.002Z</time></trkpt><trkpt lat="45.00039490118919" lon="9.651150581226654"><ele>84.66666666666666</ele><time>2026-05-01T11:26:02.002Z</time></trkpt><trkpt lat="45.00060458896535" lon="9.651248356569539"><ele>84.33333333333333</ele><time>2026-05-01T11:26:03.002Z</time></trkpt><trkpt lat="45.00081363401668" lon="9.651343830966612"><ele>84.0</ele><time>2026-05-01T11:26:04.002Z</time></trkpt><trkpt lat="45.001034811002015" lon="9.651447368046604"><ele>83.66666666666667</ele><time>2026-05-01T11:26:05.002Z</time></trkpt><trkpt lat="45.00124983662564" lon="9.651548340489015"><ele>83.33333333333334</ele><time>2026-05-01T11:26:06.002Z</time></trkpt><trkpt lat="45.00145711363982" lon="9.651642642643571"><ele>83.0</ele><time>2026-05-01T11:26:07.002Z</time></trkpt><trkpt lat="45.00166240121443" lon="9.651742714702166"><ele>83.0</ele><time>2026-05-01T11:26:08.002Z</time></trkpt><trkpt lat="45.001866749624874" lon="9.651852763359814"><ele>83.0</ele><time>2026-05-01T11:26:09.001Z</time></trkpt><trkpt lat="45.00203769882788" lon="9.651952241968328"><ele>83.0</ele><time>2026-05-01T11:26:10.001Z</time></trkpt><trkpt lat="45.00218530841101" lon="9.652070939511631"><ele>83.0</ele><time>2026-05-01T11:26:11.001Z</time></trkpt><trkpt lat="45.00232118326593" lon="9.652166098339057"><ele>83.0</ele><time>2026-05-01T11:26:12.001Z</time></trkpt><trkpt lat="45.002474443417825" lon="9.652251343896914"><ele>83.0</ele><time>2026-05-01T11:26:13.001Z</time></trkpt><trkpt lat="45.002630200728554" lon="9.652375689992029"><ele>82.66666666666667</ele><time>2026-05-01T11:26:14.001Z</time></trkpt><trkpt lat="45.00280458802995" lon="9.652525608154251"><ele>82.33333333333333</ele><time>2026-05-01T11:26:15.001Z</time></trkpt><trkpt lat="45.00297855138926" lon="9.652678566584727"><ele>82.0</ele><time>2026-05-01T11:26:16.001Z</time></trkpt><trkpt lat="45.003163103386385" lon="9.65283669691627"><ele>81.33333333333333</ele><time>2026-05-01T11:26:17.001Z</time></trkpt><trkpt lat="45.00335095337613" lon="9.65299171829757"><ele>80.66666666666667</ele><time>2026-05-01T11:26:18.001Z</time></trkpt><trkpt lat="45.00353822449282" lon="9.653140287578923"><ele>80.0</ele><time>2026-05-01T11:26:19.001Z</time></trkpt><trkpt lat="45.00372875827707" lon="9.653291087663344"><ele>80.0</ele><time>2026-05-01T11:26:20.001Z</time></trkpt><trkpt lat="45.003922881694294" lon="9.653448928835507"><ele>80.0</ele><time>2026-05-01T11:26:21.001Z</time></trkpt><trkpt lat="45.00409687927455" lon="9.653590001166162"><ele>80.0</ele><time>2026-05-01T11:26:22Z</time></trkpt><trkpt lat="45.00425412057372" lon="9.653719504138484"><ele>80.33333333333334</ele><time>2026-05-01T11:26:23Z</time></trkpt><trkpt lat="45.004409545901375" lon="9.653855464920607"><ele>80.66666666666667</ele><time>2026-05-01T11:26:24Z</time></trkpt><trkpt lat="45.004546541089816" lon="9.653970649089734"><ele>81.0</ele><time>2026-05-01T11:26:25Z</time></trkpt><trkpt lat="45.0046901276277" lon="9.654112089612866"><ele>81.0</ele><time>2026-05-01T11:26:26Z</time></trkpt><trkpt lat="45.00481311228294" lon="9.65429187634691"><ele>81.0</ele><time>2026-05-01T11:26:27Z</time></trkpt><trkpt lat="45.00492077229604" lon="9.65448507603788"><ele>81.0</ele><time>2026-05-01T11:26:28Z</time></trkpt><trkpt lat="45.00503508803594" lon="9.654667433323525"><ele>81.66666666666667</ele><time>2026-05-01T11:26:29Z</time></trkpt><trkpt lat="45.00515661878818" lon="9.65483546606945"><ele>82.33333333333334</ele><time>2026-05-01T11:26:30Z</time></trkpt><trkpt lat="45.00528824593501" lon="9.65500546176886"><ele>83.0</ele><time>2026-05-01T11:26:31Z</time></trkpt><trkpt lat="45.00542322802624" lon="9.655138178531855"><ele>83.0</ele><time>2026-05-01T11:26:32.001Z</time></trkpt><trkpt lat="45.00557127143443" lon="9.655260903316654"><ele>83.0</ele><time>2026-05-01T11:26:33.001Z</time></trkpt><trkpt lat="45.00570227744506" lon="9.65536678784178"><ele>83.0</ele><time>2026-05-01T11:26:34.001Z</time></trkpt><trkpt lat="45.00582221247519" lon="9.655480960406216"><ele>82.33333333333334</ele><time>2026-05-01T11:26:35.001Z</time></trkpt><trkpt lat="45.005940986138256" lon="9.655612269968735"><ele>81.66666666666667</ele><time>2026-05-01T11:26:36.001Z</time></trkpt><trkpt lat="45.006052682376954" lon="9.655763035360252"><ele>81.0</ele><time>2026-05-01T11:26:37.001Z</time></trkpt><trkpt lat="45.00616396502512" lon="9.655918633315009"><ele>81.0</ele><time>2026-05-01T11:26:38.001Z</time></trkpt><trkpt lat="45.00627565733727" lon="9.656058971047655"><ele>81.0</ele><time>2026-05-01T11:26:39.001Z</time></trkpt><trkpt lat="45.0063872815766" lon="9.656177941816152"><ele>81.0</ele><time>2026-05-01T11:26:40.001Z</time></trkpt><trkpt lat="45.00651359869389" lon="9.656286370156955"><ele>81.0</ele><time>2026-05-01T11:26:41.001Z</time></trkpt><trkpt lat="45.00665352322978" lon="9.656389055370088"><ele>80.33333333333333</ele><time>2026-05-01T11:26:42.001Z</time></trkpt><trkpt lat="45.00679782226808" lon="9.656484994642758"><ele>79.66666666666666</ele><time>2026-05-01T11:26:43.001Z</time></trkpt><trkpt lat="45.00694500659896" lon="9.656589900412317"><ele>79.0</ele><time>2026-05-01T11:26:44.001Z</time></trkpt><trkpt lat="45.00709091423398" lon="9.65669847098971"><ele>79.0</ele><time>2026-05-01T11:26:45.001Z</time></trkpt><trkpt lat="45.00723413016695" lon="9.656830302342255"><ele>79.0</ele><time>2026-05-01T11:26:46.001Z</time></trkpt><trkpt lat="45.007373704789714" lon="9.656986059753262"><ele>79.0</ele><time>2026-05-01T11:26:47.001Z</time></trkpt><trkpt lat="45.007509426755654" lon="9.657144329558795"><ele>79.33333333333333</ele><time>2026-05-01T11:26:48.001Z</time></trkpt><trkpt lat="45.0076563626373" lon="9.657315530254316"><ele>79.66666666666667</ele><time>2026-05-01T11:26:49.001Z</time></trkpt><trkpt lat="45.00780189232799" lon="9.657476329821778"><ele>80.0</ele><time>2026-05-01T11:26:50.001Z</time></trkpt><trkpt lat="45.00796517425962" lon="9.657634098431286"><ele>80.0</ele><time>2026-05-01T11:26:51.001Z</time></trkpt><trkpt lat="45.00813705955714" lon="9.657768983006088"><ele>80.0</ele><time>2026-05-01T11:26:52.001Z</time></trkpt><trkpt lat="45.00832035317788" lon="9.657892704369727"><ele>80.0</ele><time>2026-05-01T11:26:53.001Z</time></trkpt><trkpt lat="45.00850895202282" lon="9.658003308121216"><ele>79.0</ele><time>2026-05-01T11:26:54.001Z</time></trkpt><trkpt lat="45.00870441591564" lon="9.658100727087414"><ele>78.0</ele><time>2026-05-01T11:26:55.001Z</time></trkpt><trkpt lat="45.008876210688115" lon="9.65819280251207"><ele>77.0</ele><time>2026-05-01T11:26:56.001Z</time></trkpt><trkpt lat="45.00903437398521" lon="9.658278210200423"><ele>77.0</ele><time>2026-05-01T11:26:57.001Z</time></trkpt><trkpt lat="45.00916813446597" lon="9.65836505327002"><ele>77.0</ele><time>2026-05-01T11:26:58.001Z</time></trkpt><trkpt lat="45.0092635602958" lon="9.65843389313446"><ele>77.0</ele><time>2026-05-01T11:26:59.001Z</time></trkpt><trkpt lat="45.00933639816407" lon="9.658471591094091"><ele>77.0</ele><time>2026-05-01T11:27:00.001Z</time></trkpt><trkpt lat="45.00939923309848" lon="9.658483433098967"><ele>77.0</ele><time>2026-05-01T11:27:01.001Z</time></trkpt><trkpt lat="45.009467065964685" lon="9.658438053923518"><ele>77.0</ele><time>2026-05-01T11:27:02.001Z</time></trkpt><trkpt lat="45.009491626278894" lon="9.658253267635976"><ele>77.0</ele><time>2026-05-01T11:27:03.001Z</time></trkpt><trkpt lat="45.00950639956897" lon="9.658070873190841"><ele>77.0</ele><time>2026-05-01T11:27:04.001Z</time></trkpt><trkpt lat="45.0095279152987" lon="9.65784003206822"><ele>77.0</ele><time>2026-05-01T11:27:05.001Z</time></trkpt><trkpt lat="45.00955391895715" lon="9.65758205167362"><ele>77.0</ele><time>2026-05-01T11:27:06.001Z</time></trkpt><trkpt lat="45.009583796957166" lon="9.6573122620879"><ele>77.0</ele><time>2026-05-01T11:27:07.001Z</time></trkpt><trkpt lat="45.00960808046373" lon="9.657099912264517"><ele>77.0</ele><time>2026-05-01T11:27:08.001Z</time></trkpt><trkpt lat="45.00962628363225" lon="9.656961962478329"><ele>77.0</ele><time>2026-05-01T11:27:09.001Z</time></trkpt><trkpt lat="45.009655777672776" lon="9.656834824440276"><ele>77.0</ele><time>2026-05-01T11:27:11.001Z</time></trkpt><trkpt lat="45.009715061410006" lon="9.656890191007761"><ele>77.0</ele><time>2026-05-01T11:27:13.001Z</time></trkpt><trkpt lat="45.009816868200474" lon="9.656924795250456"><ele>77.0</ele><time>2026-05-01T11:27:14.001Z</time></trkpt><trkpt lat="45.00992998838324" lon="9.657008453175274"><ele>77.0</ele><time>2026-05-01T11:27:15.001Z</time></trkpt><trkpt lat="45.01006336384466" lon="9.657079625640165"><ele>77.0</ele><time>2026-05-01T11:27:16.001Z</time></trkpt><trkpt lat="45.010212431256065" lon="9.657155645187963"><ele>76.66666666666667</ele><time>2026-05-01T11:27:17.001Z</time></trkpt><trkpt lat="45.01037210750651" lon="9.657243956671456"><ele>76.33333333333333</ele><time>2026-05-01T11:27:18.001Z</time></trkpt><trkpt lat="45.01054490539073" lon="9.657343257256487"><ele>76.0</ele><time>2026-05-01T11:27:19.001Z</time></trkpt><trkpt lat="45.010726563400844" lon="9.657448812922281"><ele>76.33333333333333</ele><time>2026-05-01T11:27:20.001Z</time></trkpt><trkpt lat="45.010914761422754" lon="9.657557508921094"><ele>76.66666666666667</ele><time>2026-05-01T11:27:21.001Z</time></trkpt><trkpt lat="45.011109114788276" lon="9.657666861892361"><ele>77.0</ele><time>2026-05-01T11:27:22.001Z</time></trkpt><trkpt lat="45.01130338323895" lon="9.657773629174097"><ele>76.66666666666667</ele><time>2026-05-01T11:27:23.001Z</time></trkpt><trkpt lat="45.011504447021615" lon="9.65788527010265"><ele>76.33333333333333</ele><time>2026-05-01T11:27:24.001Z</time></trkpt><trkpt lat="45.01169787613623" lon="9.657991242610668"><ele>76.0</ele><time>2026-05-01T11:27:25.001Z</time></trkpt><trkpt lat="45.01189515779797" lon="9.658100168921735"><ele>75.66666666666666</ele><time>2026-05-01T11:27:26.001Z</time></trkpt><trkpt lat="45.012070898898884" lon="9.65819317740448"><ele>75.33333333333333</ele><time>2026-05-01T11:27:27.001Z</time></trkpt><trkpt lat="45.01223530620337" lon="9.658282411267072"><ele>75.0</ele><time>2026-05-01T11:27:28.001Z</time></trkpt><trkpt lat="45.012388464316786" lon="9.658364775385104"><ele>75.75</ele><time>2026-05-01T11:27:29.001Z</time></trkpt><trkpt lat="45.012520330907726" lon="9.658437346098335"><ele>76.5</ele><time>2026-05-01T11:27:30.001Z</time></trkpt><trkpt lat="45.012635219521194" lon="9.658503559084512"><ele>77.25</ele><time>2026-05-01T11:27:31.001Z</time></trkpt><trkpt lat="45.01272141232472" lon="9.658551600322"><ele>78.0</ele><time>2026-05-01T11:27:32.001Z</time></trkpt><trkpt lat="45.012810904865574" lon="9.658614319450901"><ele>78.25</ele><time>2026-05-01T11:27:34.001Z</time></trkpt><trkpt lat="45.01282930253327" lon="9.658834802025417"><ele>78.5</ele><time>2026-05-01T11:27:37.001Z</time></trkpt><trkpt lat="45.012807331814145" lon="9.658988499884135"><ele>78.75</ele><time>2026-05-01T11:27:38.001Z</time></trkpt><trkpt lat="45.012781221019175" lon="9.659163431681979"><ele>79.0</ele><time>2026-05-01T11:27:39.001Z</time></trkpt><trkpt lat="45.01275859701212" lon="9.659356780423657"><ele>79.0</ele><time>2026-05-01T11:27:40.001Z</time></trkpt><trkpt lat="45.01273097568379" lon="9.659564713374198"><ele>79.0</ele><time>2026-05-01T11:27:41.002Z</time></trkpt><trkpt lat="45.012691456602404" lon="9.65978512432881"><ele>79.0</ele><time>2026-05-01T11:27:42.002Z</time></trkpt><trkpt lat="45.01264875885411" lon="9.660002661884091"><ele>79.0</ele><time>2026-05-01T11:27:43.002Z</time></trkpt><trkpt lat="45.012614614071786" lon="9.660203989796194"><ele>79.0</ele><time>2026-05-01T11:27:44.002Z</time></trkpt><trkpt lat="45.012601650262006" lon="9.660367458017655"><ele>79.0</ele><time>2026-05-01T11:27:45.002Z</time></trkpt><trkpt lat="45.0126357599591" lon="9.660513812196008"><ele>79.0</ele><time>2026-05-01T11:27:46.002Z</time></trkpt><trkpt lat="45.01271374275582" lon="9.660634341079623"><ele>78.25</ele><time>2026-05-01T11:27:47.002Z</time></trkpt><trkpt lat="45.01283724218388" lon="9.660693197963592"><ele>77.5</ele><time>2026-05-01T11:27:48.002Z</time></trkpt><trkpt lat="45.01297448661058" lon="9.660786066769626"><ele>76.75</ele><time>2026-05-01T11:27:49.002Z</time></trkpt><trkpt lat="45.01311977473894" lon="9.660872716856392"><ele>76.0</ele><time>2026-05-01T11:27:50.002Z</time></trkpt><trkpt lat="45.013249740499745" lon="9.660960770861044"><ele>76.0</ele><time>2026-05-01T11:27:51.002Z</time></trkpt><trkpt lat="45.01337993650882" lon="9.661052403828677"><ele>76.0</ele><time>2026-05-01T11:27:52.002Z</time></trkpt><trkpt lat="45.01350667732812" lon="9.661143917891648"><ele>76.0</ele><time>2026-05-01T11:27:53.002Z</time></trkpt><trkpt lat="45.0136174179865" lon="9.661223383196617"><ele>76.0</ele><time>2026-05-01T11:27:54.002Z</time></trkpt><trkpt lat="45.01370175578813" lon="9.66129053049001"><ele>76.0</ele><time>2026-05-01T11:27:55.002Z</time></trkpt><trkpt lat="45.01374913485664" lon="9.661365569643266"><ele>76.0</ele><time>2026-05-01T11:27:56.002Z</time></trkpt><trkpt lat="45.01376140473283" lon="9.661458183012696"><ele>76.0</ele><time>2026-05-01T11:27:57.002Z</time></trkpt><trkpt lat="45.01372680248078" lon="9.66154813337717"><ele>76.0</ele><time>2026-05-01T11:27:58.002Z</time></trkpt><trkpt lat="45.01366455708831" lon="9.661650233523268"><ele>76.0</ele><time>2026-05-01T11:27:59.002Z</time></trkpt><trkpt lat="45.013604509623505" lon="9.661755643251022"><ele>76.0</ele><time>2026-05-01T11:28:00.002Z</time></trkpt><trkpt lat="45.01355204530701" lon="9.661891276053915"><ele>76.25</ele><time>2026-05-01T11:28:01.002Z</time></trkpt><trkpt lat="45.0135031522517" lon="9.662046883956712"><ele>76.5</ele><time>2026-05-01T11:28:02.002Z</time></trkpt><trkpt lat="45.013451345599556" lon="9.66221468228336"><ele>76.75</ele><time>2026-05-01T11:28:03.002Z</time></trkpt><trkpt lat="45.01339690765322" lon="9.662388433547278"><ele>77.0</ele><time>2026-05-01T11:28:04.002Z</time></trkpt><trkpt lat="45.013329699831374" lon="9.66257712782826"><ele>77.0</ele><time>2026-05-01T11:28:05.002Z</time></trkpt><trkpt lat="45.0132579618617" lon="9.662754821557993"><ele>77.0</ele><time>2026-05-01T11:28:06.002Z</time></trkpt><trkpt lat="45.01319006109468" lon="9.662947091924703"><ele>77.0</ele><time>2026-05-01T11:28:07.002Z</time></trkpt><trkpt lat="45.01314780872822" lon="9.663144147199912"><ele>77.0</ele><time>2026-05-01T11:28:08.002Z</time></trkpt><trkpt lat="45.01313253283139" lon="9.663330265127193"><ele>77.0</ele><time>2026-05-01T11:28:09.002Z</time></trkpt><trkpt lat="45.0131199768966" lon="9.66352557097494"><ele>77.0</ele><time>2026-05-01T11:28:10.002Z</time></trkpt><trkpt lat="45.01310066822505" lon="9.663725012212073"><ele>77.0</ele><time>2026-05-01T11:28:11.002Z</time></trkpt><trkpt lat="45.01307141654949" lon="9.663927874094764"><ele>77.0</ele><time>2026-05-01T11:28:12.002Z</time></trkpt><trkpt lat="45.013041023427476" lon="9.664136957529013"><ele>77.0</ele><time>2026-05-01T11:28:13.002Z</time></trkpt><trkpt lat="45.01301295932733" lon="9.664348793792893"><ele>77.0</ele><time>2026-05-01T11:28:14.002Z</time></trkpt><trkpt lat="45.01298023686843" lon="9.664571461205632"><ele>77.0</ele><time>2026-05-01T11:28:15Z</time></trkpt><trkpt lat="45.012947346408936" lon="9.664783338545131"><ele>77.0</ele><time>2026-05-01T11:28:16Z</time></trkpt><trkpt lat="45.01291598935101" lon="9.665018012537184"><ele>77.0</ele><time>2026-05-01T11:28:17Z</time></trkpt><trkpt lat="45.01288399190246" lon="9.665229910211837"><ele>77.0</ele><time>2026-05-01T11:28:18Z</time></trkpt><trkpt lat="45.0128527719417" lon="9.665457459393199"><ele>77.0</ele><time>2026-05-01T11:28:19Z</time></trkpt><trkpt lat="45.0128074951009" lon="9.665683726127654"><ele>77.0</ele><time>2026-05-01T11:28:20Z</time></trkpt><trkpt lat="45.01275723319822" lon="9.665912752749723"><ele>77.0</ele><time>2026-05-01T11:28:21Z</time></trkpt><trkpt lat="45.01270882716607" lon="9.666143890288046"><ele>77.66666666666667</ele><time>2026-05-01T11:28:22Z</time></trkpt><trkpt lat="45.01266799041675" lon="9.66637003024579"><ele>78.33333333333333</ele><time>2026-05-01T11:28:23Z</time></trkpt><trkpt lat="45.01261967524797" lon="9.666599755361196"><ele>79.0</ele><time>2026-05-01T11:28:24Z</time></trkpt><trkpt lat="45.012565158243646" lon="9.666825464793215"><ele>79.0</ele><time>2026-05-01T11:28:25Z</time></trkpt><trkpt lat="45.01249491798736" lon="9.667055923701874"><ele>79.0</ele><time>2026-05-01T11:28:26Z</time></trkpt><trkpt lat="45.01241276795829" lon="9.667284451985312"><ele>79.0</ele><time>2026-05-01T11:28:27Z</time></trkpt><trkpt lat="45.01230229746461" lon="9.6674864265534"><ele>78.33333333333333</ele><time>2026-05-01T11:28:28Z</time></trkpt><trkpt lat="45.01220780931667" lon="9.66773514783637"><ele>77.66666666666667</ele><time>2026-05-01T11:28:29Z</time></trkpt><trkpt lat="45.01210283758429" lon="9.667968250041763"><ele>77.0</ele><time>2026-05-01T11:28:30Z</time></trkpt><trkpt lat="45.012003015700635" lon="9.668202203728137"><ele>77.0</ele><time>2026-05-01T11:28:31Z</time></trkpt><trkpt lat="45.01190352677236" lon="9.668444037985608"><ele>77.0</ele><time>2026-05-01T11:28:32Z</time></trkpt><trkpt lat="45.01180390775635" lon="9.668688977469158"><ele>77.0</ele><time>2026-05-01T11:28:33Z</time></trkpt><trkpt lat="45.01170034673995" lon="9.668939299748025"><ele>76.66666666666667</ele><time>2026-05-01T11:28:34Z</time></trkpt><trkpt lat="45.0115986133777" lon="9.669198034259784"><ele>76.33333333333333</ele><time>2026-05-01T11:28:35Z</time></trkpt><trkpt lat="45.01151233573378" lon="9.669442837124821"><ele>76.0</ele><time>2026-05-01T11:28:36Z</time></trkpt><trkpt lat="45.0114389661134" lon="9.669674387307694"><ele>76.33333333333333</ele><time>2026-05-01T11:28:37Z</time></trkpt><trkpt lat="45.01136567569221" lon="9.669901976943837"><ele>76.66666666666667</ele><time>2026-05-01T11:28:38Z</time></trkpt><trkpt lat="45.011293476202496" lon="9.67013849738098"><ele>77.0</ele><time>2026-05-01T11:28:39Z</time></trkpt><trkpt lat="45.01121177413616" lon="9.670391991475599"><ele>77.0</ele><time>2026-05-01T11:28:40Z</time></trkpt><trkpt lat="45.011130863141126" lon="9.670636263835785"><ele>77.0</ele><time>2026-05-01T11:28:41Z</time></trkpt><trkpt lat="45.011056824813394" lon="9.670858346007908"><ele>77.0</ele><time>2026-05-01T11:28:42Z</time></trkpt><trkpt lat="45.0109795482999" lon="9.671094676086922"><ele>76.0</ele><time>2026-05-01T11:28:43Z</time></trkpt><trkpt lat="45.010911361641135" lon="9.671314999234097"><ele>75.0</ele><time>2026-05-01T11:28:44Z</time></trkpt><trkpt lat="45.01085058299355" lon="9.671516522066522"><ele>74.0</ele><time>2026-05-01T11:28:45Z</time></trkpt><trkpt lat="45.010789589800986" lon="9.671708512000443"><ele>74.0</ele><time>2026-05-01T11:28:46Z</time></trkpt><trkpt lat="45.010733670532375" lon="9.671888730337217"><ele>74.0</ele><time>2026-05-01T11:28:47Z</time></trkpt><trkpt lat="45.01068117191608" lon="9.672056595784245"><ele>74.0</ele><time>2026-05-01T11:28:48Z</time></trkpt><trkpt lat="45.01063009868554" lon="9.672210479060123"><ele>74.0</ele><time>2026-05-01T11:28:49Z</time></trkpt><trkpt lat="45.01058570792066" lon="9.672326090410237"><ele>74.0</ele><time>2026-05-01T11:28:50Z</time></trkpt><trkpt lat="45.010535666856875" lon="9.67239021276278"><ele>74.0</ele><time>2026-05-01T11:28:51Z</time></trkpt><trkpt lat="45.0104595938475" lon="9.672733827217828"><ele>74.0</ele><time>2026-05-01T11:28:53Z</time></trkpt><trkpt lat="45.01029325489227" lon="9.672770110882754"><ele>74.0</ele><time>2026-05-01T11:28:54Z</time></trkpt><trkpt lat="45.010112303747086" lon="9.672688238945529"><ele>74.0</ele><time>2026-05-01T11:28:55.001Z</time></trkpt><trkpt lat="45.0100096575572" lon="9.67252207871413"><ele>74.0</ele><time>2026-05-01T11:28:56.001Z</time></trkpt><trkpt lat="45.009880392054086" lon="9.67244565801256"><ele>74.0</ele><time>2026-05-01T11:28:57.001Z</time></trkpt><trkpt lat="45.00973845047421" lon="9.672367426446321"><ele>74.0</ele><time>2026-05-01T11:28:58.001Z</time></trkpt><trkpt lat="45.009602748261386" lon="9.672293268138803"><ele>74.0</ele><time>2026-05-01T11:28:59.001Z</time></trkpt><trkpt lat="45.009483039921534" lon="9.672227850128667"><ele>74.0</ele><time>2026-05-01T11:29:00.001Z</time></trkpt><trkpt lat="45.00936440192741" lon="9.672162824352906"><ele>74.0</ele><time>2026-05-01T11:29:01.001Z</time></trkpt><trkpt lat="45.00926012416784" lon="9.672109526801282"><ele>74.0</ele><time>2026-05-01T11:29:02.001Z</time></trkpt><trkpt lat="45.00916168963678" lon="9.672059215819232"><ele>74.0</ele><time>2026-05-01T11:29:03.001Z</time></trkpt><trkpt lat="45.00905775222702" lon="9.672006092255144"><ele>74.0</ele><time>2026-05-01T11:29:04.001Z</time></trkpt><trkpt lat="45.0089879478404" lon="9.671970414456405"><ele>74.0</ele><time>2026-05-01T11:29:05.001Z</time></trkpt><trkpt lat="45.00891641322146" lon="9.671933852334513"><ele>74.66666666666667</ele><time>2026-05-01T11:29:06.001Z</time></trkpt><trkpt lat="45.008854713692514" lon="9.671902317018585"><ele>75.33333333333333</ele><time>2026-05-01T11:29:07.001Z</time></trkpt><trkpt lat="45.00875364504903" lon="9.671850659713774"><ele>76.0</ele><time>2026-05-01T11:29:09.001Z</time></trkpt><trkpt lat="45.00888365766734" lon="9.671275568080548"><ele>76.0</ele><time>2026-05-01T11:29:11.001Z</time></trkpt><trkpt lat="45.00892137852904" lon="9.671178554642022"><ele>76.0</ele><time>2026-05-01T11:29:12.001Z</time></trkpt><trkpt lat="45.0089341928734" lon="9.671020886547414"><ele>76.0</ele><time>2026-05-01T11:29:14.001Z</time></trkpt><trkpt lat="45.00884071172274" lon="9.670940753921167"><ele>76.0</ele><time>2026-05-01T11:29:16.001Z</time></trkpt><trkpt lat="45.00877367507432" lon="9.670919339899777"><ele>76.0</ele><time>2026-05-01T11:29:17.001Z</time></trkpt><trkpt lat="45.008694687645225" lon="9.670884195965742"><ele>76.2</ele><time>2026-05-01T11:29:18.001Z</time></trkpt><trkpt lat="45.0086110712128" lon="9.67084673810911"><ele>76.39999999999999</ele><time>2026-05-01T11:29:19.001Z</time></trkpt><trkpt lat="45.008521171408546" lon="9.670815198395871"><ele>76.6</ele><time>2026-05-01T11:29:20.001Z</time></trkpt><trkpt lat="45.00843533354773" lon="9.670775937233646"><ele>76.8</ele><time>2026-05-01T11:29:21.001Z</time></trkpt><trkpt lat="45.008334559907965" lon="9.670722320326567"><ele>77.0</ele><time>2026-05-01T11:29:22.001Z</time></trkpt><trkpt lat="45.0082309369694" lon="9.670669016164341"><ele>77.0</ele><time>2026-05-01T11:29:23.001Z</time></trkpt><trkpt lat="45.00811533557552" lon="9.670603299515808"><ele>77.0</ele><time>2026-05-01T11:29:24.001Z</time></trkpt><trkpt lat="45.00799855546172" lon="9.670543035863304"><ele>77.0</ele><time>2026-05-01T11:29:25.001Z</time></trkpt><trkpt lat="45.007880013476324" lon="9.67047776669683"><ele>77.0</ele><time>2026-05-01T11:29:26.001Z</time></trkpt><trkpt lat="45.00776425736058" lon="9.670418077522594"><ele>77.0</ele><time>2026-05-01T11:29:27.001Z</time></trkpt><trkpt lat="45.00766671795158" lon="9.670366253998965"><ele>77.0</ele><time>2026-05-01T11:29:28.001Z</time></trkpt><trkpt lat="45.00759385133024" lon="9.67033082571308"><ele>77.0</ele><time>2026-05-01T11:29:29.001Z</time></trkpt><trkpt lat="45.00748670560103" lon="9.670322155448499"><ele>77.0</ele><time>2026-05-01T11:29:31.001Z</time></trkpt><trkpt lat="45.007376280483385" lon="9.670376223860844"><ele>77.0</ele><time>2026-05-01T11:29:33.001Z</time></trkpt><trkpt lat="45.00730918422075" lon="9.67040327845659"><ele>77.0</ele><time>2026-05-01T11:29:35.001Z</time></trkpt><trkpt lat="45.007240982679974" lon="9.670480099600221"><ele>77.0</ele><time>2026-05-01T11:29:37.001Z</time></trkpt><trkpt lat="45.00720441675062" lon="9.67060056427882"><ele>77.0</ele><time>2026-05-01T11:29:39.001Z</time></trkpt><trkpt lat="45.00717118565159" lon="9.670698759541358"><ele>77.0</ele><time>2026-05-01T11:29:41.001Z</time></trkpt><trkpt lat="45.00714793488885" lon="9.670814850852997"><ele>77.0</ele><time>2026-05-01T11:29:44.001Z</time></trkpt><trkpt lat="45.007191112689725" lon="9.670897342979636"><ele>77.0</ele><time>2026-05-01T11:29:47.001Z</time></trkpt><trkpt lat="45.007270312367055" lon="9.670842863594805"><ele>77.0</ele><time>2026-05-01T11:29:50.001Z</time></trkpt><trkpt lat="45.00729637217703" lon="9.670759613836749"><ele>77.0</ele><time>2026-05-01T11:29:51.001Z</time></trkpt><trkpt lat="45.00732564539984" lon="9.670657680162728"><ele>77.0</ele><time>2026-05-01T11:29:52.001Z</time></trkpt><trkpt lat="45.007374255573666" lon="9.67054919191552"><ele>77.0</ele><time>2026-05-01T11:29:53.001Z</time></trkpt><trkpt lat="45.00741567623226" lon="9.670465074192565"><ele>77.0</ele><time>2026-05-01T11:29:54.001Z</time></trkpt><trkpt lat="45.007505222748435" lon="9.670344649553925"><ele>77.0</ele><time>2026-05-01T11:29:56.001Z</time></trkpt><trkpt lat="45.00757317067127" lon="9.670313609846284"><ele>77.0</ele><time>2026-05-01T11:29:57.001Z</time></trkpt><trkpt lat="45.00765170535917" lon="9.670320931627058"><ele>77.0</ele><time>2026-05-01T11:29:58.001Z</time></trkpt><trkpt lat="45.007737691749526" lon="9.67036351759827"><ele>77.0</ele><time>2026-05-01T11:29:59.001Z</time></trkpt><trkpt lat="45.00782443298405" lon="9.670421724381697"><ele>77.0</ele><time>2026-05-01T11:30:00.002Z</time></trkpt><trkpt lat="45.007930430371545" lon="9.670496668634554"><ele>77.0</ele><time>2026-05-01T11:30:01.002Z</time></trkpt><trkpt lat="45.00803693930422" lon="9.670551140829392"><ele>77.0</ele><time>2026-05-01T11:30:02.002Z</time></trkpt><trkpt lat="45.00815319883744" lon="9.670611986642875"><ele>77.0</ele><time>2026-05-01T11:30:03.002Z</time></trkpt><trkpt lat="45.00826459593424" lon="9.670668288816444"><ele>77.0</ele><time>2026-05-01T11:30:04.002Z</time></trkpt><trkpt lat="45.00836446515238" lon="9.670720588105963"><ele>77.0</ele><time>2026-05-01T11:30:05.002Z</time></trkpt><trkpt lat="45.00841329295675" lon="9.670921009958771"><ele>76.83333333333334</ele><time>2026-05-01T11:30:06.002Z</time></trkpt><trkpt lat="45.008479948665325" lon="9.670956119693388"><ele>76.66666666666667</ele><time>2026-05-01T11:30:07.002Z</time></trkpt><trkpt lat="45.00858058273318" lon="9.671009126977804"><ele>76.5</ele><time>2026-05-01T11:30:08.002Z</time></trkpt><trkpt lat="45.00866622253582" lon="9.671054236292889"><ele>76.33333333333333</ele><time>2026-05-01T11:30:09.002Z</time></trkpt><trkpt lat="45.008759387058845" lon="9.671103309130423"><ele>76.16666666666666</ele><time>2026-05-01T11:30:10.002Z</time></trkpt><trkpt lat="45.00883206685358" lon="9.671141592039474"><ele>76.0</ele><time>2026-05-01T11:30:11.002Z</time></trkpt><trkpt lat="45.008925324026926" lon="9.671190714435768"><ele>76.0</ele><time>2026-05-01T11:30:13.002Z</time></trkpt><trkpt lat="45.00884924224528" lon="9.671467391916758"><ele>76.0</ele><time>2026-05-01T11:30:17.002Z</time></trkpt><trkpt lat="45.008843350463714" lon="9.671559552851846"><ele>76.0</ele><time>2026-05-01T11:30:18.002Z</time></trkpt><trkpt lat="45.008864665120555" lon="9.671644827155976"><ele>76.0</ele><time>2026-05-01T11:30:19.002Z</time></trkpt><trkpt lat="45.00891478427814" lon="9.671714022601819"><ele>76.0</ele><time>2026-05-01T11:30:20.002Z</time></trkpt><trkpt lat="45.00900452997025" lon="9.671759907530836"><ele>76.0</ele><time>2026-05-01T11:30:21Z</time></trkpt><trkpt lat="45.00912454241" lon="9.671810597640686"><ele>76.0</ele><time>2026-05-01T11:30:22Z</time></trkpt><trkpt lat="45.00923332017276" lon="9.671862315239068"><ele>76.0</ele><time>2026-05-01T11:30:23Z</time></trkpt><trkpt lat="45.00934898102112" lon="9.671932412988662"><ele>76.0</ele><time>2026-05-01T11:30:24Z</time></trkpt><trkpt lat="45.00945925795554" lon="9.672001785790489"><ele>75.33333333333333</ele><time>2026-05-01T11:30:25Z</time></trkpt><trkpt lat="45.009594535564936" lon="9.672074376140062"><ele>74.66666666666667</ele><time>2026-05-01T11:30:26Z</time></trkpt><trkpt lat="45.00974965129275" lon="9.672137414580625"><ele>74.0</ele><time>2026-05-01T11:30:27Z</time></trkpt><trkpt lat="45.009891039282095" lon="9.67218563081946"><ele>74.0</ele><time>2026-05-01T11:30:28Z</time></trkpt><trkpt lat="45.00999899263669" lon="9.672237896916021"><ele>74.0</ele><time>2026-05-01T11:30:29Z</time></trkpt><trkpt lat="45.010109819679975" lon="9.672285213046857"><ele>74.0</ele><time>2026-05-01T11:30:30Z</time></trkpt><trkpt lat="45.01021018193038" lon="9.672324071363162"><ele>74.0</ele><time>2026-05-01T11:30:31Z</time></trkpt><trkpt lat="45.01028986660321" lon="9.672356456248215"><ele>74.0</ele><time>2026-05-01T11:30:32Z</time></trkpt><trkpt lat="45.01037538790906" lon="9.672381165450556"><ele>74.0</ele><time>2026-05-01T11:30:33Z</time></trkpt><trkpt lat="45.010462334077324" lon="9.672399289991858"><ele>74.0</ele><time>2026-05-01T11:30:34Z</time></trkpt><trkpt lat="45.010515688899744" lon="9.672448504619803"><ele>74.0</ele><time>2026-05-01T11:30:37Z</time></trkpt><trkpt lat="45.010518302463296" lon="9.67254311734473"><ele>74.0</ele><time>2026-05-01T11:30:39Z</time></trkpt><trkpt lat="45.01048537882903" lon="9.672642480801168"><ele>74.0</ele><time>2026-05-01T11:30:40Z</time></trkpt><trkpt lat="45.010403668479235" lon="9.67276413188673"><ele>74.0</ele><time>2026-05-01T11:30:42Z</time></trkpt><trkpt lat="45.01032437909451" lon="9.672801174866512"><ele>74.0</ele><time>2026-05-01T11:30:43Z</time></trkpt><trkpt lat="45.01022249850711" lon="9.672805354238955"><ele>74.0</ele><time>2026-05-01T11:30:44Z</time></trkpt><trkpt lat="45.010116102387364" lon="9.672770591467797"><ele>74.0</ele><time>2026-05-01T11:30:45Z</time></trkpt><trkpt lat="45.01000911829662" lon="9.672683447949158"><ele>74.0</ele><time>2026-05-01T11:30:46Z</time></trkpt><trkpt lat="45.00990750222173" lon="9.672570364741917"><ele>74.0</ele><time>2026-05-01T11:30:47Z</time></trkpt><trkpt lat="45.00979006708148" lon="9.672481588593286"><ele>74.0</ele><time>2026-05-01T11:30:48Z</time></trkpt><trkpt lat="45.00965933355094" lon="9.672420902772005"><ele>74.0</ele><time>2026-05-01T11:30:49Z</time></trkpt><trkpt lat="45.009523802955165" lon="9.67236017932869"><ele>74.0</ele><time>2026-05-01T11:30:50Z</time></trkpt><trkpt lat="45.009384627809304" lon="9.672290466467903"><ele>74.0</ele><time>2026-05-01T11:30:51Z</time></trkpt><trkpt lat="45.00924386701816" lon="9.67221573300369"><ele>74.0</ele><time>2026-05-01T11:30:52Z</time></trkpt><trkpt lat="45.00909889008482" lon="9.67213828521809"><ele>74.0</ele><time>2026-05-01T11:30:53Z</time></trkpt><trkpt lat="45.008960387931346" lon="9.672064197666504"><ele>74.5</ele><time>2026-05-01T11:30:54Z</time></trkpt><trkpt lat="45.00882665158063" lon="9.671995484599181"><ele>75.0</ele><time>2026-05-01T11:30:55Z</time></trkpt><trkpt lat="45.00869037395335" lon="9.671933538088423"><ele>75.5</ele><time>2026-05-01T11:30:56Z</time></trkpt><trkpt lat="45.00855124598176" lon="9.671866950582332"><ele>76.0</ele><time>2026-05-01T11:30:57Z</time></trkpt><trkpt lat="45.008418446645585" lon="9.67179337375071"><ele>76.25</ele><time>2026-05-01T11:30:58Z</time></trkpt><trkpt lat="45.00827725722212" lon="9.671726989148514"><ele>76.5</ele><time>2026-05-01T11:30:59Z</time></trkpt><trkpt lat="45.008142453853715" lon="9.671659581321059"><ele>76.75</ele><time>2026-05-01T11:31:00Z</time></trkpt><trkpt lat="45.00800787231171" lon="9.671593333091119"><ele>77.0</ele><time>2026-05-01T11:31:01Z</time></trkpt><trkpt lat="45.00787124761052" lon="9.671527836015805"><ele>77.0</ele><time>2026-05-01T11:31:02Z</time></trkpt><trkpt lat="45.007724757490486" lon="9.671460505145038"><ele>77.0</ele><time>2026-05-01T11:31:03Z</time></trkpt><trkpt lat="45.007557077078665" lon="9.671391286634018"><ele>77.0</ele><time>2026-05-01T11:31:04Z</time></trkpt><trkpt lat="45.00740978368333" lon="9.671334615095043"><ele>77.0</ele><time>2026-05-01T11:31:05Z</time></trkpt><trkpt lat="45.007285476249606" lon="9.67127976853121"><ele>77.0</ele><time>2026-05-01T11:31:06.001Z</time></trkpt><trkpt lat="45.007184207822064" lon="9.671210151632023"><ele>77.0</ele><time>2026-05-01T11:31:07.001Z</time></trkpt><trkpt lat="45.007105038356364" lon="9.671174669039168"><ele>77.0</ele><time>2026-05-01T11:31:08.001Z</time></trkpt><trkpt lat="45.00701469434409" lon="9.67113417811143"><ele>77.0</ele><time>2026-05-01T11:31:10.001Z</time></trkpt><trkpt lat="45.00696290825617" lon="9.671348262957824"><ele>77.0</ele><time>2026-05-01T11:31:11.001Z</time></trkpt><trkpt lat="45.00695404198566" lon="9.671479038563902"><ele>77.0</ele><time>2026-05-01T11:31:12.001Z</time></trkpt><trkpt lat="45.00694014073834" lon="9.671634604158706"><ele>77.0</ele><time>2026-05-01T11:31:13.001Z</time></trkpt><trkpt lat="45.006920736951415" lon="9.671799969399576"><ele>77.0</ele><time>2026-05-01T11:31:14.001Z</time></trkpt><trkpt lat="45.00689229904285" lon="9.671984599456696"><ele>77.0</ele><time>2026-05-01T11:31:15.001Z</time></trkpt><trkpt lat="45.00685706619944" lon="9.672191909085893"><ele>77.0</ele><time>2026-05-01T11:31:16.001Z</time></trkpt><trkpt lat="45.00682366818939" lon="9.672411202093366"><ele>77.0</ele><time>2026-05-01T11:31:17.001Z</time></trkpt><trkpt lat="45.00678945608923" lon="9.672628050058375"><ele>76.66666666666667</ele><time>2026-05-01T11:31:18.001Z</time></trkpt><trkpt lat="45.00674835829425" lon="9.67283893969625"><ele>76.33333333333333</ele><time>2026-05-01T11:31:19.001Z</time></trkpt><trkpt lat="45.00671680197953" lon="9.6730654020849"><ele>76.0</ele><time>2026-05-01T11:31:20.001Z</time></trkpt><trkpt lat="45.006681493571364" lon="9.67329648795238"><ele>76.0</ele><time>2026-05-01T11:31:21.001Z</time></trkpt><trkpt lat="45.00664593030132" lon="9.673513956402607"><ele>76.0</ele><time>2026-05-01T11:31:22.001Z</time></trkpt><trkpt lat="45.00660876881114" lon="9.673734482896634"><ele>76.0</ele><time>2026-05-01T11:31:23.001Z</time></trkpt><trkpt lat="45.00657036509783" lon="9.673962455941783"><ele>76.0</ele><time>2026-05-01T11:31:24.001Z</time></trkpt><trkpt lat="45.0065331957011" lon="9.674194257097188"><ele>76.0</ele><time>2026-05-01T11:31:25.001Z</time></trkpt><trkpt lat="45.00649364763415" lon="9.674433701186475"><ele>76.0</ele><time>2026-05-01T11:31:26.001Z</time></trkpt><trkpt lat="45.00645211178132" lon="9.674664945129017"><ele>76.0</ele><time>2026-05-01T11:31:27.001Z</time></trkpt><trkpt lat="45.006412957328635" lon="9.674867221420731"><ele>76.0</ele><time>2026-05-01T11:31:28.001Z</time></trkpt><trkpt lat="45.0063787792253" lon="9.67506613060839"><ele>76.0</ele><time>2026-05-01T11:31:29.001Z</time></trkpt><trkpt lat="45.00633018595978" lon="9.675268949463723"><ele>76.0</ele><time>2026-05-01T11:31:30.001Z</time></trkpt><trkpt lat="45.006277288777" lon="9.675478737686792"><ele>76.0</ele><time>2026-05-01T11:31:31.001Z</time></trkpt><trkpt lat="45.006215272557405" lon="9.675668429258389"><ele>76.0</ele><time>2026-05-01T11:31:32.001Z</time></trkpt><trkpt lat="45.00619308299533" lon="9.675870868299812"><ele>76.0</ele><time>2026-05-01T11:31:33.001Z</time></trkpt><trkpt lat="45.00617259837646" lon="9.676061352396284"><ele>76.0</ele><time>2026-05-01T11:31:34.001Z</time></trkpt><trkpt lat="45.006169681152706" lon="9.676255246318652"><ele>75.5</ele><time>2026-05-01T11:31:35.001Z</time></trkpt><trkpt lat="45.006175660765386" lon="9.67645390985387"><ele>75.0</ele><time>2026-05-01T11:31:36.001Z</time></trkpt><trkpt lat="45.006180802175145" lon="9.676652060355785"><ele>74.5</ele><time>2026-05-01T11:31:37.001Z</time></trkpt><trkpt lat="45.006181951421134" lon="9.676851364038168"><ele>74.0</ele><time>2026-05-01T11:31:38.001Z</time></trkpt><trkpt lat="45.00618297904848" lon="9.677064838827848"><ele>74.0</ele><time>2026-05-01T11:31:39.001Z</time></trkpt><trkpt lat="45.006187638759634" lon="9.677253046679214"><ele>74.0</ele><time>2026-05-01T11:31:40.001Z</time></trkpt><trkpt lat="45.0061933033546" lon="9.677455364720506"><ele>74.0</ele><time>2026-05-01T11:31:41.001Z</time></trkpt><trkpt lat="45.00619696948506" lon="9.677662772337651"><ele>74.0</ele><time>2026-05-01T11:31:42.001Z</time></trkpt><trkpt lat="45.00619924062191" lon="9.677860416664132"><ele>73.75</ele><time>2026-05-01T11:31:43.001Z</time></trkpt><trkpt lat="45.00620258912689" lon="9.678068604552111"><ele>73.5</ele><time>2026-05-01T11:31:44.001Z</time></trkpt><trkpt lat="45.00621515768351" lon="9.678272593274945"><ele>73.25</ele><time>2026-05-01T11:31:45.001Z</time></trkpt><trkpt lat="45.006234107767085" lon="9.678480307102255"><ele>73.0</ele><time>2026-05-01T11:31:46.001Z</time></trkpt><trkpt lat="45.00625225816681" lon="9.678691202265245"><ele>73.5</ele><time>2026-05-01T11:31:47.001Z</time></trkpt><trkpt lat="45.00627025161415" lon="9.678902594300332"><ele>74.0</ele><time>2026-05-01T11:31:48.001Z</time></trkpt><trkpt lat="45.006301354437234" lon="9.679108426642351"><ele>74.5</ele><time>2026-05-01T11:31:49.001Z</time></trkpt><trkpt lat="45.00630095851604" lon="9.679306532885372"><ele>75.0</ele><time>2026-05-01T11:31:50.001Z</time></trkpt><trkpt lat="45.00633272480082" lon="9.679486574618327"><ele>75.0</ele><time>2026-05-01T11:31:51.001Z</time></trkpt><trkpt lat="45.00634378226392" lon="9.67965475014224"><ele>75.0</ele><time>2026-05-01T11:31:52.001Z</time></trkpt><trkpt lat="45.006322771428366" lon="9.679815957172162"><ele>75.0</ele><time>2026-05-01T11:31:53.001Z</time></trkpt><trkpt lat="45.006304253290075" lon="9.67996441794271"><ele>75.0</ele><time>2026-05-01T11:31:54.001Z</time></trkpt><trkpt lat="45.006274267843786" lon="9.680133067150575"><ele>75.0</ele><time>2026-05-01T11:31:55.001Z</time></trkpt><trkpt lat="45.006238424166916" lon="9.680305753504081"><ele>75.0</ele><time>2026-05-01T11:31:56.001Z</time></trkpt><trkpt lat="45.00619874222587" lon="9.680479301148473"><ele>75.0</ele><time>2026-05-01T11:31:57.001Z</time></trkpt><trkpt lat="45.006168596898675" lon="9.680657329506714"><ele>75.0</ele><time>2026-05-01T11:31:58.001Z</time></trkpt><trkpt lat="45.00612947200942" lon="9.68084115179905"><ele>75.0</ele><time>2026-05-01T11:31:59.001Z</time></trkpt><trkpt lat="45.00607920384796" lon="9.681020144684993"><ele>75.0</ele><time>2026-05-01T11:32:00.001Z</time></trkpt><trkpt lat="45.006030170545145" lon="9.681206035273833"><ele>75.0</ele><time>2026-05-01T11:32:01.001Z</time></trkpt><trkpt lat="45.00598171092746" lon="9.681400667163215"><ele>75.0</ele><time>2026-05-01T11:32:02.001Z</time></trkpt><trkpt lat="45.00593742155466" lon="9.68159116447456"><ele>75.25</ele><time>2026-05-01T11:32:03.001Z</time></trkpt><trkpt lat="45.00589545886722" lon="9.681769960361676"><ele>75.5</ele><time>2026-05-01T11:32:04.001Z</time></trkpt><trkpt lat="45.00585706148355" lon="9.681922698920289"><ele>75.75</ele><time>2026-05-01T11:32:05.001Z</time></trkpt><trkpt lat="45.00582163505382" lon="9.682069222219472"><ele>76.0</ele><time>2026-05-01T11:32:06.001Z</time></trkpt><trkpt lat="45.00578309644166" lon="9.682208096430095"><ele>76.0</ele><time>2026-05-01T11:32:07.001Z</time></trkpt><trkpt lat="45.005749006043644" lon="9.68235327317486"><ele>76.0</ele><time>2026-05-01T11:32:08.001Z</time></trkpt><trkpt lat="45.00570910446404" lon="9.68250319209731"><ele>76.0</ele><time>2026-05-01T11:32:09.002Z</time></trkpt><trkpt lat="45.005676887870706" lon="9.682670939307288"><ele>76.0</ele><time>2026-05-01T11:32:10.002Z</time></trkpt><trkpt lat="45.00566319758902" lon="9.682846165173821"><ele>75.25</ele><time>2026-05-01T11:32:11.002Z</time></trkpt><trkpt lat="45.00565321452874" lon="9.683033603385482"><ele>74.5</ele><time>2026-05-01T11:32:12.002Z</time></trkpt><trkpt lat="45.00561915260199" lon="9.68321920761"><ele>73.75</ele><time>2026-05-01T11:32:13.002Z</time></trkpt><trkpt lat="45.00560094623485" lon="9.68340750094279"><ele>73.0</ele><time>2026-05-01T11:32:14.002Z</time></trkpt><trkpt lat="45.00558250654493" lon="9.683607815665457"><ele>72.5</ele><time>2026-05-01T11:32:15.002Z</time></trkpt><trkpt lat="45.00557985790769" lon="9.683802456552167"><ele>72.0</ele><time>2026-05-01T11:32:16.002Z</time></trkpt><trkpt lat="45.005557456675206" lon="9.684004799548669"><ele>71.5</ele><time>2026-05-01T11:32:17.002Z</time></trkpt><trkpt lat="45.00554178321739" lon="9.684199381633041"><ele>71.0</ele><time>2026-05-01T11:32:18.002Z</time></trkpt><trkpt lat="45.00552486418983" lon="9.684398120695494"><ele>71.25</ele><time>2026-05-01T11:32:19.002Z</time></trkpt><trkpt lat="45.005505851354364" lon="9.684594274668983"><ele>71.5</ele><time>2026-05-01T11:32:20.002Z</time></trkpt><trkpt lat="45.005493683531895" lon="9.684761868679763"><ele>71.75</ele><time>2026-05-01T11:32:21.002Z</time></trkpt><trkpt lat="45.00547970149549" lon="9.684926246048247"><ele>72.0</ele><time>2026-05-01T11:32:22.002Z</time></trkpt><trkpt lat="45.00546971301382" lon="9.685068898900571"><ele>72.0</ele><time>2026-05-01T11:32:23.002Z</time></trkpt><trkpt lat="45.005459732590715" lon="9.685211760690448"><ele>72.0</ele><time>2026-05-01T11:32:24.002Z</time></trkpt><trkpt lat="45.0054490303728" lon="9.6853396047488"><ele>72.0</ele><time>2026-05-01T11:32:25.002Z</time></trkpt><trkpt lat="45.00544397740424" lon="9.68545637271888"><ele>72.0</ele><time>2026-05-01T11:32:26.002Z</time></trkpt><trkpt lat="45.00544984571226" lon="9.685566414160562"><ele>72.0</ele><time>2026-05-01T11:32:27Z</time></trkpt><trkpt lat="45.00547333045826" lon="9.685658060760755"><ele>72.0</ele><time>2026-05-01T11:32:28Z</time></trkpt><trkpt lat="45.00559067489826" lon="9.685781444197184"><ele>72.16666666666667</ele><time>2026-05-01T11:32:30Z</time></trkpt><trkpt lat="45.00566418560046" lon="9.685835615359911"><ele>72.33333333333333</ele><time>2026-05-01T11:32:31Z</time></trkpt><trkpt lat="45.005722560400464" lon="9.685882364199042"><ele>72.5</ele><time>2026-05-01T11:32:32Z</time></trkpt><trkpt lat="45.00576879436107" lon="9.6859683386968"><ele>72.66666666666666</ele><time>2026-05-01T11:32:34Z</time></trkpt><trkpt lat="45.005746929755894" lon="9.686111709694936"><ele>72.83333333333333</ele><time>2026-05-01T11:32:36Z</time></trkpt><trkpt lat="45.00573327984352" lon="9.686213807864915"><ele>73.0</ele><time>2026-05-01T11:32:37Z</time></trkpt><trkpt lat="45.0057172369392" lon="9.68634138866305"><ele>73.0</ele><time>2026-05-01T11:32:38Z</time></trkpt><trkpt lat="45.00571009652161" lon="9.686501357263879"><ele>73.0</ele><time>2026-05-01T11:32:39Z</time></trkpt><trkpt lat="45.0056901928287" lon="9.686663761756872"><ele>73.0</ele><time>2026-05-01T11:32:40Z</time></trkpt><trkpt lat="45.0056732589782" lon="9.686841867499119"><ele>73.0</ele><time>2026-05-01T11:32:41Z</time></trkpt><trkpt lat="45.00565511351675" lon="9.68702114182988"><ele>73.0</ele><time>2026-05-01T11:32:42Z</time></trkpt><trkpt lat="45.005633699269836" lon="9.68722018413047"><ele>73.0</ele><time>2026-05-01T11:32:43Z</time></trkpt><trkpt lat="45.005614048613374" lon="9.687405145459369"><ele>73.0</ele><time>2026-05-01T11:32:44Z</time></trkpt><trkpt lat="45.00559699667263" lon="9.687552660663119"><ele>73.0</ele><time>2026-05-01T11:32:45Z</time></trkpt><trkpt lat="45.005587274506965" lon="9.687681629865539"><ele>73.0</ele><time>2026-05-01T11:32:46Z</time></trkpt><trkpt lat="45.00558317189977" lon="9.687778154113836"><ele>73.0</ele><time>2026-05-01T11:32:47Z</time></trkpt><trkpt lat="45.005581944481" lon="9.687897636330991"><ele>73.0</ele><time>2026-05-01T11:32:49Z</time></trkpt><trkpt lat="45.005547866735554" lon="9.688038616389232"><ele>73.0</ele><time>2026-05-01T11:33:01Z</time></trkpt><trkpt lat="45.00541023899422" lon="9.687980185641587"><ele>73.0</ele><time>2026-05-01T11:33:03Z</time></trkpt><trkpt lat="45.00530658625554" lon="9.68797282495345"><ele>73.0</ele><time>2026-05-01T11:33:04Z</time></trkpt><trkpt lat="45.005177033234844" lon="9.68796099908816"><ele>73.0</ele><time>2026-05-01T11:33:05Z</time></trkpt><trkpt lat="45.00504414644014" lon="9.687949456097128"><ele>73.0</ele><time>2026-05-01T11:33:06Z</time></trkpt><trkpt lat="45.00489185943592" lon="9.687934130839626"><ele>73.0</ele><time>2026-05-01T11:33:07Z</time></trkpt><trkpt lat="45.00472976428374" lon="9.687917861191437"><ele>72.66666666666666</ele><time>2026-05-01T11:33:08Z</time></trkpt><trkpt lat="45.00455899366409" lon="9.687900735051514"><ele>72.33333333333333</ele><time>2026-05-01T11:33:09Z</time></trkpt><trkpt lat="45.004371511678265" lon="9.687886086900775"><ele>72.0</ele><time>2026-05-01T11:33:10.001Z</time></trkpt><trkpt lat="45.00418934790893" lon="9.687874407108975"><ele>72.33333333333333</ele><time>2026-05-01T11:33:11.001Z</time></trkpt><trkpt lat="45.003992099422724" lon="9.687860598101938"><ele>72.66666666666666</ele><time>2026-05-01T11:33:12.001Z</time></trkpt><trkpt lat="45.003790741873544" lon="9.687845610158202"><ele>73.0</ele><time>2026-05-01T11:33:13.001Z</time></trkpt><trkpt lat="45.003582107433004" lon="9.68783113756804"><ele>73.0</ele><time>2026-05-01T11:33:14.001Z</time></trkpt><trkpt lat="45.00336534911404" lon="9.68782323296359"><ele>73.0</ele><time>2026-05-01T11:33:15.001Z</time></trkpt><trkpt lat="45.00313851459852" lon="9.68783269775691"><ele>73.0</ele><time>2026-05-01T11:33:16.001Z</time></trkpt><trkpt lat="45.00291732743376" lon="9.687849011579482"><ele>73.0</ele><time>2026-05-01T11:33:17.001Z</time></trkpt><trkpt lat="45.00270161773174" lon="9.687864685375935"><ele>73.0</ele><time>2026-05-01T11:33:18.001Z</time></trkpt><trkpt lat="45.002479629305604" lon="9.687874688534647"><ele>73.0</ele><time>2026-05-01T11:33:19.001Z</time></trkpt><trkpt lat="45.00225950155777" lon="9.687881551128486"><ele>73.0</ele><time>2026-05-01T11:33:20.001Z</time></trkpt><trkpt lat="45.002034198955236" lon="9.687891413657955"><ele>73.0</ele><time>2026-05-01T11:33:21.001Z</time></trkpt><trkpt lat="45.00181801211422" lon="9.687896931953174"><ele>73.0</ele><time>2026-05-01T11:33:22.001Z</time></trkpt><trkpt lat="45.00161054805774" lon="9.687884052501115"><ele>73.33333333333333</ele><time>2026-05-01T11:33:23.001Z</time></trkpt><trkpt lat="45.001415985702366" lon="9.687879531952582"><ele>73.66666666666667</ele><time>2026-05-01T11:33:24.001Z</time></trkpt><trkpt lat="45.001250773469906" lon="9.687893916593813"><ele>74.0</ele><time>2026-05-01T11:33:25.001Z</time></trkpt><trkpt lat="45.001120909155034" lon="9.687908358866475"><ele>74.0</ele><time>2026-05-01T11:33:26.001Z</time></trkpt><trkpt lat="45.00101907186772" lon="9.687919913654392"><ele>74.0</ele><time>2026-05-01T11:33:27.001Z</time></trkpt><trkpt lat="45.000932486931916" lon="9.687880702879525"><ele>74.0</ele><time>2026-05-01T11:33:28.001Z</time></trkpt><trkpt lat="45.000847857082576" lon="9.687895873416666"><ele>74.0</ele><time>2026-05-01T11:33:29.001Z</time></trkpt><trkpt lat="45.00077242761731" lon="9.688008548678408"><ele>74.0</ele><time>2026-05-01T11:33:31.001Z</time></trkpt><trkpt lat="45.000755910790815" lon="9.68815180006544"><ele>74.0</ele><time>2026-05-01T11:33:32.001Z</time></trkpt><trkpt lat="45.00073626494253" lon="9.688343042613212"><ele>74.0</ele><time>2026-05-01T11:33:33.001Z</time></trkpt><trkpt lat="45.000713403982566" lon="9.688552710697039"><ele>74.0</ele><time>2026-05-01T11:33:34.001Z</time></trkpt><trkpt lat="45.000693771299936" lon="9.688784662153537"><ele>74.66666666666667</ele><time>2026-05-01T11:33:35.001Z</time></trkpt><trkpt lat="45.000686465089686" lon="9.689040412493425"><ele>75.33333333333333</ele><time>2026-05-01T11:33:36.001Z</time></trkpt><trkpt lat="45.000683093950855" lon="9.689336042089728"><ele>76.0</ele><time>2026-05-01T11:33:37.001Z</time></trkpt><trkpt lat="45.00067370911616" lon="9.689659988143173"><ele>76.0</ele><time>2026-05-01T11:33:38.001Z</time></trkpt><trkpt lat="45.00065562708175" lon="9.690008942080109"><ele>76.0</ele><time>2026-05-01T11:33:39.001Z</time></trkpt><trkpt lat="45.00064129225553" lon="9.690363660070606"><ele>75.5</ele><time>2026-05-01T11:33:40.001Z</time></trkpt><trkpt lat="45.0006335723853" lon="9.690720095342781"><ele>75.0</ele><time>2026-05-01T11:33:41.001Z</time></trkpt><trkpt lat="45.000629522869815" lon="9.691091618020481"><ele>74.5</ele><time>2026-05-01T11:33:42.001Z</time></trkpt><trkpt lat="45.00061473955391" lon="9.691471795745944"><ele>74.0</ele><time>2026-05-01T11:33:43.001Z</time></trkpt><trkpt lat="45.00059512314021" lon="9.691811031505093"><ele>74.0</ele><time>2026-05-01T11:33:44.001Z</time></trkpt><trkpt lat="45.00057561447693" lon="9.69214634132538"><ele>74.0</ele><time>2026-05-01T11:33:45.001Z</time></trkpt><trkpt lat="45.00056013425509" lon="9.692466510422122"><ele>74.0</ele><time>2026-05-01T11:33:46.001Z</time></trkpt><trkpt lat="45.00054354567196" lon="9.692804346057635"><ele>74.0</ele><time>2026-05-01T11:33:47.001Z</time></trkpt><trkpt lat="45.00052987904834" lon="9.693113750084942"><ele>74.0</ele><time>2026-05-01T11:33:48.001Z</time></trkpt><trkpt lat="45.00051885117652" lon="9.693404939971334"><ele>74.0</ele><time>2026-05-01T11:33:49.001Z</time></trkpt><trkpt lat="45.000508805794205" lon="9.693663786528791"><ele>74.0</ele><time>2026-05-01T11:33:50.001Z</time></trkpt><trkpt lat="45.00049966340136" lon="9.693894793955707"><ele>74.25</ele><time>2026-05-01T11:33:51.001Z</time></trkpt><trkpt lat="45.00049055318109" lon="9.694097411637983"><ele>74.5</ele><time>2026-05-01T11:33:52.001Z</time></trkpt><trkpt lat="45.000483281865094" lon="9.694287849847944"><ele>74.75</ele><time>2026-05-01T11:33:53.001Z</time></trkpt><trkpt lat="45.00048183427304" lon="9.694481658903042"><ele>75.0</ele><time>2026-05-01T11:33:54.001Z</time></trkpt><trkpt lat="45.000486165779655" lon="9.694687851108979"><ele>75.33333333333333</ele><time>2026-05-01T11:33:55.001Z</time></trkpt><trkpt lat="45.000483775914965" lon="9.69489620120253"><ele>75.66666666666666</ele><time>2026-05-01T11:33:56.001Z</time></trkpt><trkpt lat="45.00047831636785" lon="9.695107687045983"><ele>76.0</ele><time>2026-05-01T11:33:57.001Z</time></trkpt><trkpt lat="45.000469074477756" lon="9.695327823267672"><ele>74.33333333333333</ele><time>2026-05-01T11:33:58.001Z</time></trkpt><trkpt lat="45.000459076985955" lon="9.695552375541485"><ele>72.66666666666667</ele><time>2026-05-01T11:33:59.001Z</time></trkpt><trkpt lat="45.00044923906397" lon="9.695774480767936"><ele>71.0</ele><time>2026-05-01T11:34:00.001Z</time></trkpt><trkpt lat="45.000436286063945" lon="9.695976059352768"><ele>71.0</ele><time>2026-05-01T11:34:01.001Z</time></trkpt><trkpt lat="45.00041950544564" lon="9.696187421777331"><ele>71.0</ele><time>2026-05-01T11:34:02.001Z</time></trkpt><trkpt lat="45.00039234998459" lon="9.69638212023637"><ele>71.0</ele><time>2026-05-01T11:34:03.001Z</time></trkpt><trkpt lat="45.000363886511735" lon="9.696593537288402"><ele>71.0</ele><time>2026-05-01T11:34:04.001Z</time></trkpt><trkpt lat="45.00033226732781" lon="9.696825617530433"><ele>72.0</ele><time>2026-05-01T11:34:05.001Z</time></trkpt><trkpt lat="45.0002970392252" lon="9.69704794219342"><ele>73.0</ele><time>2026-05-01T11:34:06.001Z</time></trkpt><trkpt lat="45.00026583158998" lon="9.697269960056484"><ele>74.0</ele><time>2026-05-01T11:34:07.001Z</time></trkpt><trkpt lat="45.00023384505478" lon="9.697499241869519"><ele>74.0</ele><time>2026-05-01T11:34:08.001Z</time></trkpt><trkpt lat="45.00020478152281" lon="9.69772059282315"><ele>74.0</ele><time>2026-05-01T11:34:09.001Z</time></trkpt><trkpt lat="45.0001711708152" lon="9.697945379035774"><ele>74.0</ele><time>2026-05-01T11:34:10.001Z</time></trkpt><trkpt lat="45.00013668735955" lon="9.698168796967042"><ele>74.0</ele><time>2026-05-01T11:34:11.001Z</time></trkpt><trkpt lat="45.00011029003718" lon="9.698364691921167"><ele>74.0</ele><time>2026-05-01T11:34:12.002Z</time></trkpt><trkpt lat="45.00008975567257" lon="9.698540862840368"><ele>74.0</ele><time>2026-05-01T11:34:13.002Z</time></trkpt><trkpt lat="45.0000718224171" lon="9.698701204911535"><ele>74.0</ele><time>2026-05-01T11:34:14.002Z</time></trkpt><trkpt lat="45.00004751187857" lon="9.6988474319767"><ele>74.0</ele><time>2026-05-01T11:34:15.002Z</time></trkpt><trkpt lat="45.00002251880892" lon="9.698965814744763"><ele>74.0</ele><time>2026-05-01T11:34:16.002Z</time></trkpt><trkpt lat="44.999991856687835" lon="9.69909063057964"><ele>74.0</ele><time>2026-05-01T11:34:17.002Z</time></trkpt><trkpt lat="44.99997094559007" lon="9.699185490135704"><ele>74.0</ele><time>2026-05-01T11:34:18.002Z</time></trkpt><trkpt lat="44.99995427194442" lon="9.699271339414738"><ele>74.0</ele><time>2026-05-01T11:34:19.002Z</time></trkpt><trkpt lat="44.99991166842964" lon="9.699415146732468"><ele>74.0</ele><time>2026-05-01T11:34:21.002Z</time></trkpt><trkpt lat="44.999771002920895" lon="9.699343065006692"><ele>74.0</ele><time>2026-05-01T11:34:24.002Z</time></trkpt><trkpt lat="44.99967045195084" lon="9.699295141685985"><ele>74.0</ele><time>2026-05-01T11:34:25.002Z</time></trkpt><trkpt lat="44.999550038278244" lon="9.69923964161951"><ele>74.0</ele><time>2026-05-01T11:34:26.002Z</time></trkpt><trkpt lat="44.99941586981686" lon="9.699177724274083"><ele>74.0</ele><time>2026-05-01T11:34:27.002Z</time></trkpt><trkpt lat="44.99927667440666" lon="9.699111615755205"><ele>74.66666666666667</ele><time>2026-05-01T11:34:28.002Z</time></trkpt><trkpt lat="44.99912715132076" lon="9.699058760975834"><ele>75.33333333333333</ele><time>2026-05-01T11:34:29.002Z</time></trkpt><trkpt lat="44.99897656797725" lon="9.698976863172561"><ele>76.0</ele><time>2026-05-01T11:34:30.002Z</time></trkpt><trkpt lat="44.99882592087485" lon="9.698904758498157"><ele>76.0</ele><time>2026-05-01T11:34:31.002Z</time></trkpt><trkpt lat="44.998653427361745" lon="9.698818529902042"><ele>76.0</ele><time>2026-05-01T11:34:32.002Z</time></trkpt><trkpt lat="44.99848958464084" lon="9.698732879533766"><ele>76.0</ele><time>2026-05-01T11:34:33Z</time></trkpt><trkpt lat="44.998311109169606" lon="9.698649106568395"><ele>75.0</ele><time>2026-05-01T11:34:34Z</time></trkpt><trkpt lat="44.99814673272223" lon="9.698577072668032"><ele>74.0</ele><time>2026-05-01T11:34:35Z</time></trkpt><trkpt lat="44.99797268541999" lon="9.698510589902188"><ele>73.0</ele><time>2026-05-01T11:34:36Z</time></trkpt><trkpt lat="44.997799697775854" lon="9.698435710108402"><ele>73.0</ele><time>2026-05-01T11:34:37Z</time></trkpt><trkpt lat="44.9976321589839" lon="9.698382515132456"><ele>73.0</ele><time>2026-05-01T11:34:38Z</time></trkpt><trkpt lat="44.997448850386" lon="9.698340674994103"><ele>73.0</ele><time>2026-05-01T11:34:39Z</time></trkpt><trkpt lat="44.99727501752556" lon="9.698301824533207"><ele>73.33333333333333</ele><time>2026-05-01T11:34:40Z</time></trkpt><trkpt lat="44.997095526556905" lon="9.698269272019301"><ele>73.66666666666667</ele><time>2026-05-01T11:34:41Z</time></trkpt><trkpt lat="44.99690794518081" lon="9.69824985876845"><ele>74.0</ele><time>2026-05-01T11:34:42Z</time></trkpt><trkpt lat="44.996750202179435" lon="9.698191946538111"><ele>74.66666666666667</ele><time>2026-05-01T11:34:43Z</time></trkpt><trkpt lat="44.996594125313145" lon="9.698142062380963"><ele>75.33333333333333</ele><time>2026-05-01T11:34:44Z</time></trkpt><trkpt lat="44.99644497888411" lon="9.698105828064762"><ele>76.0</ele><time>2026-05-01T11:34:45Z</time></trkpt><trkpt lat="44.99630400406927" lon="9.698050464464922"><ele>76.0</ele><time>2026-05-01T11:34:46Z</time></trkpt><trkpt lat="44.9961714788171" lon="9.698015227242658"><ele>76.0</ele><time>2026-05-01T11:34:47Z</time></trkpt><trkpt lat="44.996028888533736" lon="9.69799315156737"><ele>76.0</ele><time>2026-05-01T11:34:48Z</time></trkpt><trkpt lat="44.99587192789713" lon="9.697981508965672"><ele>76.0</ele><time>2026-05-01T11:34:49Z</time></trkpt><trkpt lat="44.99569711234052" lon="9.697958751817644"><ele>76.66666666666666</ele><time>2026-05-01T11:34:50Z</time></trkpt><trkpt lat="44.99552211925974" lon="9.697940086597841"><ele>77.33333333333333</ele><time>2026-05-01T11:34:51Z</time></trkpt><trkpt lat="44.995360257124794" lon="9.697909381548454"><ele>78.0</ele><time>2026-05-01T11:34:52Z</time></trkpt><trkpt lat="44.99520836895344" lon="9.69787794051952"><ele>78.0</ele><time>2026-05-01T11:34:53Z</time></trkpt><trkpt lat="44.99505266492285" lon="9.697855573937561"><ele>78.0</ele><time>2026-05-01T11:34:54Z</time></trkpt><trkpt lat="44.994889643224724" lon="9.69783784356252"><ele>78.0</ele><time>2026-05-01T11:34:55Z</time></trkpt><trkpt lat="44.99472580932561" lon="9.697811381068021"><ele>78.33333333333333</ele><time>2026-05-01T11:34:56Z</time></trkpt><trkpt lat="44.994567079388766" lon="9.697783961972764"><ele>78.66666666666666</ele><time>2026-05-01T11:34:57Z</time></trkpt><trkpt lat="44.99440731323021" lon="9.697754350750213"><ele>79.0</ele><time>2026-05-01T11:34:58Z</time></trkpt><trkpt lat="44.99424661531555" lon="9.697740019569537"><ele>79.0</ele><time>2026-05-01T11:34:59Z</time></trkpt><trkpt lat="44.99408251488368" lon="9.697726476665316"><ele>79.0</ele><time>2026-05-01T11:35:00Z</time></trkpt><trkpt lat="44.993915187619336" lon="9.697698380195785"><ele>79.0</ele><time>2026-05-01T11:35:01Z</time></trkpt><trkpt lat="44.9937506118352" lon="9.69766190948952"><ele>79.0</ele><time>2026-05-01T11:35:02Z</time></trkpt><trkpt lat="44.993577573030876" lon="9.697630627737817"><ele>79.0</ele><time>2026-05-01T11:35:03Z</time></trkpt><trkpt lat="44.99342061252268" lon="9.697604294814706"><ele>79.0</ele><time>2026-05-01T11:35:04Z</time></trkpt><trkpt lat="44.99328319743888" lon="9.697579915951403"><ele>78.8</ele><time>2026-05-01T11:35:05Z</time></trkpt><trkpt lat="44.993152244838534" lon="9.697557116041136"><ele>78.60000000000001</ele><time>2026-05-01T11:35:06Z</time></trkpt><trkpt lat="44.9930439165842" lon="9.697538370835836"><ele>78.4</ele><time>2026-05-01T11:35:07Z</time></trkpt><trkpt lat="44.992939392823445" lon="9.697522437819138"><ele>78.2</ele><time>2026-05-01T11:35:08Z</time></trkpt><trkpt lat="44.99284472786574" lon="9.69750251107175"><ele>78.0</ele><time>2026-05-01T11:35:09Z</time></trkpt><trkpt lat="44.9927672561803" lon="9.697457499432929"><ele>78.0</ele><time>2026-05-01T11:35:10Z</time></trkpt><trkpt lat="44.992755568820755" lon="9.697257700302897"><ele>78.0</ele><time>2026-05-01T11:35:11Z</time></trkpt><trkpt lat="44.99267338877912" lon="9.697158997427046"><ele>78.0</ele><time>2026-05-01T11:35:13Z</time></trkpt><trkpt lat="44.9925989174749" lon="9.697123571517167"><ele>78.0</ele><time>2026-05-01T11:35:14Z</time></trkpt><trkpt lat="44.9925420587506" lon="9.69718586383041"><ele>78.0</ele><time>2026-05-01T11:35:15Z</time></trkpt><trkpt lat="44.99260079595569" lon="9.697441312417748"><ele>78.0</ele><time>2026-05-01T11:35:26.001Z</time></trkpt><trkpt lat="44.99259048854473" lon="9.69753188591333"><ele>78.0</ele><time>2026-05-01T11:35:27.001Z</time></trkpt><trkpt lat="44.9925831664761" lon="9.697622335164757"><ele>78.0</ele><time>2026-05-01T11:35:28.001Z</time></trkpt><trkpt lat="44.99259174944604" lon="9.697786526800595"><ele>78.0</ele><time>2026-05-01T11:35:30.001Z</time></trkpt><trkpt lat="44.992587474411515" lon="9.697936302767172"><ele>78.0</ele><time>2026-05-01T11:35:32.001Z</time></trkpt><trkpt lat="44.99258625570642" lon="9.698069308597182"><ele>78.0</ele><time>2026-05-01T11:35:34.001Z</time></trkpt><trkpt lat="44.99258992876226" lon="9.698226089208061"><ele>78.0</ele><time>2026-05-01T11:35:36.001Z</time></trkpt><trkpt lat="44.992592767330045" lon="9.698325659924592"><ele>78.0</ele><time>2026-05-01T11:35:37.001Z</time></trkpt><trkpt lat="44.99258505155298" lon="9.698491030376557"><ele>78.0</ele><time>2026-05-01T11:35:39.001Z</time></trkpt><trkpt lat="44.992604989433815" lon="9.69864919299347"><ele>78.0</ele><time>2026-05-01T11:35:41.001Z</time></trkpt><trkpt lat="44.99258815732369" lon="9.698817872319484"><ele>78.0</ele><time>2026-05-01T11:35:43.001Z</time></trkpt><trkpt lat="44.99255864542331" lon="9.698976817513802"><ele>78.0</ele><time>2026-05-01T11:35:45.001Z</time></trkpt><trkpt lat="44.99255543731776" lon="9.699114207482765"><ele>78.0</ele><time>2026-05-01T11:35:47.001Z</time></trkpt><trkpt lat="44.992554959145465" lon="9.699223974878239"><ele>78.0</ele><time>2026-05-01T11:35:50.001Z</time></trkpt><trkpt lat="44.992553453610086" lon="9.699337947358238"><ele>78.0</ele><time>2026-05-01T11:35:53.001Z</time></trkpt><trkpt lat="44.99256764905114" lon="9.699429774003292"><ele>78.0</ele><time>2026-05-01T11:35:56.001Z</time></trkpt><trkpt lat="44.992559511028816" lon="9.699524216081743"><ele>78.0</ele><time>2026-05-01T11:36:00.001Z</time></trkpt><trkpt lat="44.9925569525754" lon="9.699631153152403"><ele>77.66666666666667</ele><time>2026-05-01T11:36:04.001Z</time></trkpt><trkpt lat="44.99255569664125" lon="9.699730730362559"><ele>77.33333333333333</ele><time>2026-05-01T11:36:07.001Z</time></trkpt><trkpt lat="44.99254650197934" lon="9.699819978978132"><ele>77.0</ele><time>2026-05-01T11:36:11.001Z</time></trkpt><trkpt lat="44.992543324861046" lon="9.699949389019881"><ele>76.66666666666666</ele><time>2026-05-01T11:36:15.001Z</time></trkpt><trkpt lat="44.99253283849271" lon="9.700068123365885"><ele>76.33333333333333</ele><time>2026-05-01T11:36:18.002Z</time></trkpt><trkpt lat="44.992529997877206" lon="9.700167385761956"><ele>76.0</ele><time>2026-05-01T11:36:20.002Z</time></trkpt><trkpt lat="44.99252648693717" lon="9.700290071865343"><ele>75.83333333333333</ele><time>2026-05-01T11:36:23.002Z</time></trkpt><trkpt lat="44.992523129502345" lon="9.700407393913787"><ele>75.66666666666666</ele><time>2026-05-01T11:36:26.002Z</time></trkpt><trkpt lat="44.99252047548828" lon="9.700500135596291"><ele>75.5</ele><time>2026-05-01T11:36:29.002Z</time></trkpt><trkpt lat="44.99251691171337" lon="9.700624667880595"><ele>75.33333333333333</ele><time>2026-05-01T11:36:33.002Z</time></trkpt><trkpt lat="44.99252186047638" lon="9.700738286898037"><ele>75.16666666666667</ele><time>2026-05-01T11:36:35.002Z</time></trkpt><trkpt lat="44.99251472207133" lon="9.700841764166707"><ele>75.0</ele><time>2026-05-01T11:36:36.002Z</time></trkpt><trkpt lat="44.992517496972354" lon="9.700942164703228"><ele>75.0</ele><time>2026-05-01T11:36:37.002Z</time></trkpt><trkpt lat="44.99251616060941" lon="9.701067815654053"><ele>75.0</ele><time>2026-05-01T11:36:39Z</time></trkpt><trkpt lat="44.992515944700834" lon="9.701175167838834"><ele>75.0</ele><time>2026-05-01T11:36:41Z</time></trkpt><trkpt lat="44.992511090296425" lon="9.701291538820005"><ele>75.0</ele><time>2026-05-01T11:36:43Z</time></trkpt><trkpt lat="44.99250874376788" lon="9.701480128896561"><ele>75.0</ele><time>2026-05-01T11:36:45Z</time></trkpt><trkpt lat="44.992507788569384" lon="9.701587253812871"><ele>75.16666666666667</ele><time>2026-05-01T11:36:46Z</time></trkpt><trkpt lat="44.992507274771164" lon="9.7016934666955"><ele>75.33333333333333</ele><time>2026-05-01T11:36:47Z</time></trkpt><trkpt lat="44.99250494603615" lon="9.701832532687378"><ele>75.5</ele><time>2026-05-01T11:36:48Z</time></trkpt><trkpt lat="44.99250422140332" lon="9.70194616749475"><ele>75.66666666666666</ele><time>2026-05-01T11:36:49Z</time></trkpt><trkpt lat="44.99250368896773" lon="9.702045437104259"><ele>75.83333333333333</ele><time>2026-05-01T11:36:50Z</time></trkpt><trkpt lat="44.99248635844125" lon="9.70213479358058"><ele>76.0</ele><time>2026-05-01T11:36:51Z</time></trkpt><trkpt lat="44.99247937715045" lon="9.702281461443487"><ele>76.39999999999999</ele><time>2026-05-01T11:36:53Z</time></trkpt><trkpt lat="44.992401462915254" lon="9.702320178537896"><ele>76.8</ele><time>2026-05-01T11:36:55Z</time></trkpt><trkpt lat="44.99226328084853" lon="9.702302564012529"><ele>77.19999999999999</ele><time>2026-05-01T11:36:57Z</time></trkpt><trkpt lat="44.992174466417225" lon="9.702298612244453"><ele>77.6</ele><time>2026-05-01T11:36:58Z</time></trkpt><trkpt lat="44.992093144207495" lon="9.702295402375935"><ele>78.0</ele><time>2026-05-01T11:36:59Z</time></trkpt><trkpt lat="44.9920116692663" lon="9.702288012870696"><ele>78.0</ele><time>2026-05-01T11:37:00Z</time></trkpt><trkpt lat="44.99189998524146" lon="9.70227973803351"><ele>78.0</ele><time>2026-05-01T11:37:01Z</time></trkpt><trkpt lat="44.99176171884674" lon="9.702270705748752"><ele>78.0</ele><time>2026-05-01T11:37:02Z</time></trkpt><trkpt lat="44.99157441118878" lon="9.702262070917426"><ele>78.0</ele><time>2026-05-01T11:37:03Z</time></trkpt><trkpt lat="44.99141522336517" lon="9.702248524062542"><ele>78.0</ele><time>2026-05-01T11:37:04Z</time></trkpt><trkpt lat="44.99128701036133" lon="9.702240815197824"><ele>78.0</ele><time>2026-05-01T11:37:05Z</time></trkpt><trkpt lat="44.991178783067916" lon="9.702237967818727"><ele>78.0</ele><time>2026-05-01T11:37:06Z</time></trkpt><trkpt lat="44.99107098822914" lon="9.702206595087318"><ele>78.0</ele><time>2026-05-01T11:37:07Z</time></trkpt><trkpt lat="44.99094546860223" lon="9.702196277432721"><ele>79.0</ele><time>2026-05-01T11:37:08Z</time></trkpt><trkpt lat="44.99080292054389" lon="9.702204664174063"><ele>80.0</ele><time>2026-05-01T11:37:09Z</time></trkpt><trkpt lat="44.990632459539405" lon="9.702193154581712"><ele>81.0</ele><time>2026-05-01T11:37:10Z</time></trkpt><trkpt lat="44.99043442234322" lon="9.702188646969919"><ele>81.0</ele><time>2026-05-01T11:37:11Z</time></trkpt><trkpt lat="44.99020178232551" lon="9.702177317945413"><ele>81.0</ele><time>2026-05-01T11:37:12Z</time></trkpt><trkpt lat="44.98996236886802" lon="9.702139549469797"><ele>80.5</ele><time>2026-05-01T11:37:13Z</time></trkpt><trkpt lat="44.989707885968706" lon="9.702140133482395"><ele>80.0</ele><time>2026-05-01T11:37:14Z</time></trkpt><trkpt lat="44.9894593000581" lon="9.70212080335925"><ele>80.0</ele><time>2026-05-01T11:37:15Z</time></trkpt><trkpt lat="44.98920625680707" lon="9.702106724245331"><ele>80.0</ele><time>2026-05-01T11:37:16Z</time></trkpt><trkpt lat="44.98895435797757" lon="9.702093862159053"><ele>81.0</ele><time>2026-05-01T11:37:17Z</time></trkpt><trkpt lat="44.98870369627287" lon="9.702083082342083"><ele>82.0</ele><time>2026-05-01T11:37:18Z</time></trkpt><trkpt lat="44.988454929704005" lon="9.702064578050074"><ele>82.33333333333333</ele><time>2026-05-01T11:37:19Z</time></trkpt><trkpt lat="44.98823919478552" lon="9.702051282871588"><ele>82.66666666666667</ele><time>2026-05-01T11:37:20Z</time></trkpt><trkpt lat="44.98803098549811" lon="9.702034647935678"><ele>83.0</ele><time>2026-05-01T11:37:21.001Z</time></trkpt><trkpt lat="44.98784342816082" lon="9.70202498476616"><ele>83.0</ele><time>2026-05-01T11:37:22.001Z</time></trkpt><trkpt lat="44.987657962079474" lon="9.702014012890318"><ele>83.0</ele><time>2026-05-01T11:37:23.001Z</time></trkpt><trkpt lat="44.98749020138674" lon="9.70200384705871"><ele>83.0</ele><time>2026-05-01T11:37:24.001Z</time></trkpt><trkpt lat="44.987348438998595" lon="9.701996565061668"><ele>83.4</ele><time>2026-05-01T11:37:25.001Z</time></trkpt><trkpt lat="44.98721472221763" lon="9.701987479458758"><ele>83.80000000000001</ele><time>2026-05-01T11:37:26.001Z</time></trkpt><trkpt lat="44.98710124291641" lon="9.70197674097992"><ele>84.2</ele><time>2026-05-01T11:37:27.001Z</time></trkpt><trkpt lat="44.986999028187945" lon="9.701978069169462"><ele>84.6</ele><time>2026-05-01T11:37:28.001Z</time></trkpt><trkpt lat="44.98690735738881" lon="9.701968707848179"><ele>85.0</ele><time>2026-05-01T11:37:29.001Z</time></trkpt><trkpt lat="44.98682387808635" lon="9.701963665839907"><ele>85.0</ele><time>2026-05-01T11:37:30.001Z</time></trkpt><trkpt lat="44.986753909261395" lon="9.701960093360587"><ele>85.0</ele><time>2026-05-01T11:37:31.001Z</time></trkpt><trkpt lat="44.98667283924343" lon="9.701937243748489"><ele>85.0</ele><time>2026-05-01T11:37:33.001Z</time></trkpt><trkpt lat="44.98665882649181" lon="9.702088683078443"><ele>85.0</ele><time>2026-05-01T11:37:35.001Z</time></trkpt><trkpt lat="44.986657897213384" lon="9.702205583565894"><ele>85.0</ele><time>2026-05-01T11:37:36.001Z</time></trkpt><trkpt lat="44.986659876547336" lon="9.70237186240062"><ele>84.33333333333333</ele><time>2026-05-01T11:37:37.001Z</time></trkpt><trkpt lat="44.98665592548779" lon="9.702558718642253"><ele>83.66666666666667</ele><time>2026-05-01T11:37:38.001Z</time></trkpt><trkpt lat="44.98664243365131" lon="9.702812599644664"><ele>83.0</ele><time>2026-05-01T11:37:39.001Z</time></trkpt><trkpt lat="44.9866281781641" lon="9.703059719245218"><ele>83.0</ele><time>2026-05-01T11:37:40.001Z</time></trkpt><trkpt lat="44.98661492596854" lon="9.703332152411148"><ele>83.0</ele><time>2026-05-01T11:37:41.001Z</time></trkpt><trkpt lat="44.98659903637574" lon="9.703633147576909"><ele>83.0</ele><time>2026-05-01T11:37:42.001Z</time></trkpt><trkpt lat="44.986580334008956" lon="9.703938388283351"><ele>83.0</ele><time>2026-05-01T11:37:43.001Z</time></trkpt><trkpt lat="44.98655802666675" lon="9.704210597346142"><ele>83.0</ele><time>2026-05-01T11:37:44.001Z</time></trkpt><trkpt lat="44.98654488789012" lon="9.704442944258693"><ele>83.0</ele><time>2026-05-01T11:37:45.001Z</time></trkpt><trkpt lat="44.98652929431541" lon="9.704682656723527"><ele>83.0</ele><time>2026-05-01T11:37:46.001Z</time></trkpt><trkpt lat="44.98651583226227" lon="9.704910827820651"><ele>83.0</ele><time>2026-05-01T11:37:47.001Z</time></trkpt><trkpt lat="44.98650535554567" lon="9.705138828043792"><ele>83.0</ele><time>2026-05-01T11:37:48.001Z</time></trkpt><trkpt lat="44.98648768889538" lon="9.70537387123363"><ele>83.0</ele><time>2026-05-01T11:37:49.001Z</time></trkpt><trkpt lat="44.98648155565006" lon="9.705583856121722"><ele>83.0</ele><time>2026-05-01T11:37:50.001Z</time></trkpt><trkpt lat="44.98646887866069" lon="9.705813212880834"><ele>83.0</ele><time>2026-05-01T11:37:51.001Z</time></trkpt><trkpt lat="44.98645394605175" lon="9.706028427659742"><ele>83.0</ele><time>2026-05-01T11:37:52.001Z</time></trkpt><trkpt lat="44.98644156803693" lon="9.706247358577752"><ele>83.0</ele><time>2026-05-01T11:37:53.001Z</time></trkpt><trkpt lat="44.98642844644738" lon="9.706474815203944"><ele>83.0</ele><time>2026-05-01T11:37:54.001Z</time></trkpt><trkpt lat="44.98641968907348" lon="9.706709786020474"><ele>83.0</ele><time>2026-05-01T11:37:55.001Z</time></trkpt><trkpt lat="44.98640464665124" lon="9.706910808798517"><ele>83.0</ele><time>2026-05-01T11:37:56.001Z</time></trkpt><trkpt lat="44.98638377815857" lon="9.707117061237753"><ele>83.0</ele><time>2026-05-01T11:37:57.001Z</time></trkpt><trkpt lat="44.98637232585338" lon="9.707336926191191"><ele>83.0</ele><time>2026-05-01T11:37:58.001Z</time></trkpt><trkpt lat="44.98635446165108" lon="9.70756323840614"><ele>82.66666666666667</ele><time>2026-05-01T11:37:59.001Z</time></trkpt><trkpt lat="44.98634098047749" lon="9.70779680901732"><ele>82.33333333333333</ele><time>2026-05-01T11:38:00.001Z</time></trkpt><trkpt lat="44.98632779204541" lon="9.708011850539714"><ele>82.0</ele><time>2026-05-01T11:38:01.001Z</time></trkpt><trkpt lat="44.986319235270756" lon="9.708243997710445"><ele>82.0</ele><time>2026-05-01T11:38:02.001Z</time></trkpt><trkpt lat="44.986307708523185" lon="9.70845938600294"><ele>82.0</ele><time>2026-05-01T11:38:03.001Z</time></trkpt><trkpt lat="44.986295177872684" lon="9.708672624784045"><ele>82.0</ele><time>2026-05-01T11:38:04.001Z</time></trkpt><trkpt lat="44.986283977675036" lon="9.708895727701067"><ele>82.0</ele><time>2026-05-01T11:38:05.001Z</time></trkpt><trkpt lat="44.9862745016212" lon="9.709116094884152"><ele>82.0</ele><time>2026-05-01T11:38:06.001Z</time></trkpt><trkpt lat="44.9862642294101" lon="9.709349966502332"><ele>82.0</ele><time>2026-05-01T11:38:07.001Z</time></trkpt><trkpt lat="44.98625288925224" lon="9.70955009992678"><ele>82.0</ele><time>2026-05-01T11:38:08.001Z</time></trkpt><trkpt lat="44.98624620770765" lon="9.709735515851262"><ele>82.0</ele><time>2026-05-01T11:38:09.001Z</time></trkpt><trkpt lat="44.98624037902172" lon="9.709898803147203"><ele>82.0</ele><time>2026-05-01T11:38:10.001Z</time></trkpt><trkpt lat="44.986229946428566" lon="9.710067199260358"><ele>82.0</ele><time>2026-05-01T11:38:11.001Z</time></trkpt><trkpt lat="44.98621813146714" lon="9.710197726798262"><ele>81.8</ele><time>2026-05-01T11:38:12.001Z</time></trkpt><trkpt lat="44.98621243261048" lon="9.710347818765767"><ele>81.6</ele><time>2026-05-01T11:38:13.001Z</time></trkpt><trkpt lat="44.986219777158716" lon="9.71046783402673"><ele>81.39999999999999</ele><time>2026-05-01T11:38:14.001Z</time></trkpt><trkpt lat="44.986230629687526" lon="9.710603014551713"><ele>81.19999999999999</ele><time>2026-05-01T11:38:15.001Z</time></trkpt><trkpt lat="44.98623371829764" lon="9.710736496105891"><ele>81.0</ele><time>2026-05-01T11:38:16.001Z</time></trkpt><trkpt lat="44.986225001332606" lon="9.71085273781303"><ele>81.0</ele><time>2026-05-01T11:38:17.001Z</time></trkpt><trkpt lat="44.98621721941551" lon="9.710976945448207"><ele>81.0</ele><time>2026-05-01T11:38:18.001Z</time></trkpt><trkpt lat="44.98620907189717" lon="9.711116546033331"><ele>81.0</ele><time>2026-05-01T11:38:19.001Z</time></trkpt><trkpt lat="44.98619770002226" lon="9.711273054377235"><ele>81.0</ele><time>2026-05-01T11:38:20.001Z</time></trkpt><trkpt lat="44.98618585907141" lon="9.711419855926103"><ele>81.0</ele><time>2026-05-01T11:38:21.001Z</time></trkpt><trkpt lat="44.9861793675374" lon="9.711567537351797"><ele>81.0</ele><time>2026-05-01T11:38:22.001Z</time></trkpt><trkpt lat="44.98618115026653" lon="9.711720347255195"><ele>81.0</ele><time>2026-05-01T11:38:23.001Z</time></trkpt><trkpt lat="44.98617591405379" lon="9.71187883063362"><ele>81.0</ele><time>2026-05-01T11:38:24.001Z</time></trkpt><trkpt lat="44.98617560878376" lon="9.71204851464691"><ele>81.0</ele><time>2026-05-01T11:38:25.002Z</time></trkpt><trkpt lat="44.98617536798254" lon="9.712216958777029"><ele>81.0</ele><time>2026-05-01T11:38:26.002Z</time></trkpt><trkpt lat="44.986174680372216" lon="9.712379768161586"><ele>81.0</ele><time>2026-05-01T11:38:27.002Z</time></trkpt><trkpt lat="44.98617765921661" lon="9.712546821044901"><ele>81.0</ele><time>2026-05-01T11:38:28.002Z</time></trkpt><trkpt lat="44.98618271306942" lon="9.712712039152871"><ele>81.0</ele><time>2026-05-01T11:38:29.002Z</time></trkpt><trkpt lat="44.98618580908454" lon="9.712876338669666"><ele>81.0</ele><time>2026-05-01T11:38:30.002Z</time></trkpt><trkpt lat="44.98617137930925" lon="9.713035819655053"><ele>81.0</ele><time>2026-05-01T11:38:31.002Z</time></trkpt><trkpt lat="44.98616276400815" lon="9.713201996837123"><ele>81.0</ele><time>2026-05-01T11:38:32.002Z</time></trkpt><trkpt lat="44.986157106721606" lon="9.713376244634636"><ele>81.0</ele><time>2026-05-01T11:38:33.002Z</time></trkpt><trkpt lat="44.98615824347351" lon="9.713526166455358"><ele>81.16666666666667</ele><time>2026-05-01T11:38:34.002Z</time></trkpt><trkpt lat="44.986168180076746" lon="9.713639736631036"><ele>81.33333333333333</ele><time>2026-05-01T11:38:35.002Z</time></trkpt><trkpt lat="44.98618549439879" lon="9.713739893409707"><ele>81.5</ele><time>2026-05-01T11:38:36.002Z</time></trkpt><trkpt lat="44.9862514961322" lon="9.713841779383875"><ele>81.66666666666666</ele><time>2026-05-01T11:38:38.002Z</time></trkpt><trkpt lat="44.986360312801" lon="9.713852264879186"><ele>81.83333333333333</ele><time>2026-05-01T11:38:40.002Z</time></trkpt><trkpt lat="44.986441023828256" lon="9.713825166645394"><ele>82.0</ele><time>2026-05-01T11:38:41.002Z</time></trkpt><trkpt lat="44.98652930368754" lon="9.713789203541529"><ele>82.0</ele><time>2026-05-01T11:38:42.002Z</time></trkpt><trkpt lat="44.9866202301793" lon="9.713752187113537"><ele>82.0</ele><time>2026-05-01T11:38:43.002Z</time></trkpt><trkpt lat="44.986701335411595" lon="9.713730230514551"><ele>82.0</ele><time>2026-05-01T11:38:44.002Z</time></trkpt><trkpt lat="44.986796677643625" lon="9.71371632723566"><ele>82.0</ele><time>2026-05-01T11:38:45Z</time></trkpt><trkpt lat="44.986904345750226" lon="9.713690217279751"><ele>82.0</ele><time>2026-05-01T11:38:46Z</time></trkpt><trkpt lat="44.98702367929107" lon="9.713664613714831"><ele>81.6</ele><time>2026-05-01T11:38:47Z</time></trkpt><trkpt lat="44.987135550548594" lon="9.713640222001322"><ele>81.19999999999999</ele><time>2026-05-01T11:38:48Z</time></trkpt><trkpt lat="44.987237208572424" lon="9.713619448438541"><ele>80.8</ele><time>2026-05-01T11:38:49Z</time></trkpt><trkpt lat="44.98731224569225" lon="9.71360661441204"><ele>80.4</ele><time>2026-05-01T11:38:50Z</time></trkpt><trkpt lat="44.9873809671401" lon="9.713631242773262"><ele>80.0</ele><time>2026-05-01T11:38:51Z</time></trkpt><trkpt lat="44.98742151848528" lon="9.713756804118843"><ele>80.0</ele><time>2026-05-01T11:38:53Z</time></trkpt><trkpt lat="44.987405870343096" lon="9.71385755096042"><ele>80.0</ele><time>2026-05-01T11:38:54Z</time></trkpt><trkpt lat="44.987387623890484" lon="9.713961835524252"><ele>80.0</ele><time>2026-05-01T11:38:55Z</time></trkpt><trkpt lat="44.98737413928932" lon="9.71410755245702"><ele>80.0</ele><time>2026-05-01T11:38:56Z</time></trkpt><trkpt lat="44.98735155750848" lon="9.714278355317228"><ele>80.0</ele><time>2026-05-01T11:38:57Z</time></trkpt><trkpt lat="44.987332044840954" lon="9.714442840245777"><ele>80.5</ele><time>2026-05-01T11:38:58Z</time></trkpt><trkpt lat="44.987311605353916" lon="9.714625343506059"><ele>81.0</ele><time>2026-05-01T11:38:59Z</time></trkpt><trkpt lat="44.98729989144333" lon="9.71479922846121"><ele>81.5</ele><time>2026-05-01T11:39:00Z</time></trkpt><trkpt lat="44.98728029424363" lon="9.714992474944506"><ele>82.0</ele><time>2026-05-01T11:39:01Z</time></trkpt><trkpt lat="44.98726230020419" lon="9.715192586729774"><ele>82.0</ele><time>2026-05-01T11:39:02Z</time></trkpt><trkpt lat="44.987251117057" lon="9.715359856557354"><ele>82.0</ele><time>2026-05-01T11:39:03Z</time></trkpt><trkpt lat="44.98723807362423" lon="9.715520790186916"><ele>82.0</ele><time>2026-05-01T11:39:04Z</time></trkpt><trkpt lat="44.98722831666631" lon="9.715643073658804"><ele>82.0</ele><time>2026-05-01T11:39:05Z</time></trkpt><trkpt lat="44.98722250524277" lon="9.715741017373242"><ele>82.0</ele><time>2026-05-01T11:39:06Z</time></trkpt><trkpt lat="44.987187447527404" lon="9.715856498336846"><ele>82.0</ele><time>2026-05-01T11:39:08Z</time></trkpt><trkpt lat="44.98710141853447" lon="9.715883088775824"><ele>82.0</ele><time>2026-05-01T11:39:10Z</time></trkpt><trkpt lat="44.98703270952141" lon="9.715850453073324"><ele>82.0</ele><time>2026-05-01T11:39:11Z</time></trkpt><trkpt lat="44.986952546273606" lon="9.715810064280827"><ele>82.0</ele><time>2026-05-01T11:39:12Z</time></trkpt><trkpt lat="44.98685570391816" lon="9.715775040513035"><ele>82.0</ele><time>2026-05-01T11:39:13Z</time></trkpt><trkpt lat="44.98673737124035" lon="9.715753185906808"><ele>81.75</ele><time>2026-05-01T11:39:14Z</time></trkpt><trkpt lat="44.98661210776558" lon="9.715730059098775"><ele>81.5</ele><time>2026-05-01T11:39:15Z</time></trkpt><trkpt lat="44.98647338169278" lon="9.715696859896621"><ele>81.25</ele><time>2026-05-01T11:39:16Z</time></trkpt><trkpt lat="44.986319614936356" lon="9.715660516520071"><ele>81.0</ele><time>2026-05-01T11:39:17Z</time></trkpt><trkpt lat="44.98616257548153" lon="9.715626609170391"><ele>81.0</ele><time>2026-05-01T11:39:18Z</time></trkpt><trkpt lat="44.98600560321952" lon="9.715591045488678"><ele>81.0</ele><time>2026-05-01T11:39:19Z</time></trkpt><trkpt lat="44.98583803315294" lon="9.71555273663441"><ele>81.0</ele><time>2026-05-01T11:39:20Z</time></trkpt><trkpt lat="44.98566959452429" lon="9.715514681236058"><ele>81.0</ele><time>2026-05-01T11:39:21Z</time></trkpt><trkpt lat="44.98550037079634" lon="9.715481539122294"><ele>81.0</ele><time>2026-05-01T11:39:22.001Z</time></trkpt><trkpt lat="44.98532591745118" lon="9.715438265969995"><ele>81.0</ele><time>2026-05-01T11:39:23.001Z</time></trkpt><trkpt lat="44.98515281767002" lon="9.715398253790584"><ele>81.33333333333333</ele><time>2026-05-01T11:39:24.001Z</time></trkpt><trkpt lat="44.984977997957195" lon="9.71536121072372"><ele>81.66666666666666</ele><time>2026-05-01T11:39:25.001Z</time></trkpt><trkpt lat="44.984819390242656" lon="9.715326833612991"><ele>82.0</ele><time>2026-05-01T11:39:26.001Z</time></trkpt><trkpt lat="44.9846641010771" lon="9.715286626265689"><ele>82.0</ele><time>2026-05-01T11:39:27.001Z</time></trkpt><trkpt lat="44.98452799177162" lon="9.71525599335512"><ele>82.0</ele><time>2026-05-01T11:39:28.001Z</time></trkpt><trkpt lat="44.98439486066042" lon="9.715228175235598"><ele>82.0</ele><time>2026-05-01T11:39:29.001Z</time></trkpt><trkpt lat="44.984270043837334" lon="9.71520099171154"><ele>82.0</ele><time>2026-05-01T11:39:30.001Z</time></trkpt><trkpt lat="44.98416116562702" lon="9.71517648010785"><ele>82.16666666666666</ele><time>2026-05-01T11:39:31.001Z</time></trkpt><trkpt lat="44.98406878909139" lon="9.71515343700855"><ele>82.33333333333333</ele><time>2026-05-01T11:39:32.001Z</time></trkpt><trkpt lat="44.983997377963476" lon="9.715138228508927"><ele>82.5</ele><time>2026-05-01T11:39:33.001Z</time></trkpt><trkpt lat="44.98393544251793" lon="9.715113668052432"><ele>82.66666666666667</ele><time>2026-05-01T11:39:35.001Z</time></trkpt><trkpt lat="44.9839701930563" lon="9.71497732972434"><ele>82.83333333333334</ele><time>2026-05-01T11:39:44.001Z</time></trkpt><trkpt lat="44.98398504274625" lon="9.714837554782514"><ele>83.0</ele><time>2026-05-01T11:39:45.001Z</time></trkpt><trkpt lat="44.983998441160495" lon="9.714675320508697"><ele>83.0</ele><time>2026-05-01T11:39:46.001Z</time></trkpt><trkpt lat="44.98400296960289" lon="9.714532217541267"><ele>83.0</ele><time>2026-05-01T11:39:47.001Z</time></trkpt><trkpt lat="44.98399832047911" lon="9.714400393362373"><ele>83.0</ele><time>2026-05-01T11:39:48.001Z</time></trkpt><trkpt lat="44.98399072077287" lon="9.714306040069967"><ele>83.0</ele><time>2026-05-01T11:39:49.001Z</time></trkpt><trkpt lat="44.983750419725496" lon="9.714272090653896"><ele>83.25</ele><time>2026-05-01T11:39:52.001Z</time></trkpt><trkpt lat="44.98362628802936" lon="9.714318343510747"><ele>83.5</ele><time>2026-05-01T11:39:53.001Z</time></trkpt><trkpt lat="44.98347764766437" lon="9.714354856497899"><ele>83.75</ele><time>2026-05-01T11:39:54.001Z</time></trkpt><trkpt lat="44.983309505798196" lon="9.714390360520126"><ele>84.0</ele><time>2026-05-01T11:39:55.001Z</time></trkpt><trkpt lat="44.98311969652898" lon="9.714426313612137"><ele>84.0</ele><time>2026-05-01T11:39:56.001Z</time></trkpt><trkpt lat="44.982919535416166" lon="9.714469270339645"><ele>84.0</ele><time>2026-05-01T11:39:57.001Z</time></trkpt><trkpt lat="44.982712601340424" lon="9.714519981235656"><ele>84.0</ele><time>2026-05-01T11:39:58.001Z</time></trkpt><trkpt lat="44.98250666531853" lon="9.71456993301927"><ele>85.0</ele><time>2026-05-01T11:39:59.001Z</time></trkpt><trkpt lat="44.982284936981785" lon="9.714619277856185"><ele>86.0</ele><time>2026-05-01T11:40:00.001Z</time></trkpt><trkpt lat="44.98206165623984" lon="9.714670988223505"><ele>86.0</ele><time>2026-05-01T11:40:01.001Z</time></trkpt><trkpt lat="44.98183012000566" lon="9.714723871389614"><ele>86.0</ele><time>2026-05-01T11:40:02.001Z</time></trkpt><trkpt lat="44.98159625808158" lon="9.714776377961305"><ele>86.5</ele><time>2026-05-01T11:40:03.001Z</time></trkpt><trkpt lat="44.98135541715323" lon="9.714831421066211"><ele>87.0</ele><time>2026-05-01T11:40:04.001Z</time></trkpt><trkpt lat="44.98112238098385" lon="9.714885608574146"><ele>87.0</ele><time>2026-05-01T11:40:05.001Z</time></trkpt><trkpt lat="44.98088901252518" lon="9.714939563288683"><ele>87.0</ele><time>2026-05-01T11:40:06.001Z</time></trkpt><trkpt lat="44.98065949895429" lon="9.714993565406974"><ele>87.5</ele><time>2026-05-01T11:40:07.001Z</time></trkpt><trkpt lat="44.980435681863966" lon="9.71504511331409"><ele>88.0</ele><time>2026-05-01T11:40:08.001Z</time></trkpt><trkpt lat="44.98021228171173" lon="9.71509482310629"><ele>87.0</ele><time>2026-05-01T11:40:09.001Z</time></trkpt><trkpt lat="44.979987858323575" lon="9.715145959436633"><ele>86.0</ele><time>2026-05-01T11:40:10.001Z</time></trkpt><trkpt lat="44.97976812239253" lon="9.715198989814686"><ele>86.66666666666667</ele><time>2026-05-01T11:40:11.001Z</time></trkpt><trkpt lat="44.97954870192958" lon="9.715250268591507"><ele>87.33333333333333</ele><time>2026-05-01T11:40:12.001Z</time></trkpt><trkpt lat="44.979327853393656" lon="9.715301073596322"><ele>88.0</ele><time>2026-05-01T11:40:13.001Z</time></trkpt><trkpt lat="44.97910747295363" lon="9.715351850432207"><ele>88.33333333333333</ele><time>2026-05-01T11:40:14.001Z</time></trkpt><trkpt lat="44.978886118830154" lon="9.715404514869208"><ele>88.66666666666667</ele><time>2026-05-01T11:40:15.001Z</time></trkpt><trkpt lat="44.97866897657955" lon="9.715454318605396"><ele>89.0</ele><time>2026-05-01T11:40:16.001Z</time></trkpt><trkpt lat="44.978454291307685" lon="9.715501997121555"><ele>89.33333333333334</ele><time>2026-05-01T11:40:17.001Z</time></trkpt><trkpt lat="44.97823170251648" lon="9.715551976500974"><ele>89.66666666666667</ele><time>2026-05-01T11:40:18.001Z</time></trkpt><trkpt lat="44.97801549675478" lon="9.715602329865797"><ele>90.0</ele><time>2026-05-01T11:40:19.001Z</time></trkpt><trkpt lat="44.97780617880105" lon="9.715651248332327"><ele>90.0</ele><time>2026-05-01T11:40:20.001Z</time></trkpt><trkpt lat="44.97759221320416" lon="9.715700608338386"><ele>90.0</ele><time>2026-05-01T11:40:21.001Z</time></trkpt><trkpt lat="44.97739111374325" lon="9.715747008395216"><ele>90.0</ele><time>2026-05-01T11:40:22.001Z</time></trkpt><trkpt lat="44.97720332035699" lon="9.715789295647715"><ele>90.33333333333333</ele><time>2026-05-01T11:40:23.001Z</time></trkpt><trkpt lat="44.97700697479648" lon="9.715828515499943"><ele>90.66666666666666</ele><time>2026-05-01T11:40:24.001Z</time></trkpt><trkpt lat="44.97680876461805" lon="9.715871296187414"><ele>91.0</ele><time>2026-05-01T11:40:25.001Z</time></trkpt><trkpt lat="44.976602090559034" lon="9.715918417251396"><ele>91.66666666666666</ele><time>2026-05-01T11:40:26.001Z</time></trkpt><trkpt lat="44.97639959499244" lon="9.715964679111705"><ele>92.33333333333333</ele><time>2026-05-01T11:40:27.001Z</time></trkpt><trkpt lat="44.97618319106983" lon="9.716016372353245"><ele>93.0</ele><time>2026-05-01T11:40:28.001Z</time></trkpt><trkpt lat="44.975965326718395" lon="9.71607246700378"><ele>92.5</ele><time>2026-05-01T11:40:29.001Z</time></trkpt><trkpt lat="44.97574315316126" lon="9.716128321575873"><ele>92.0</ele><time>2026-05-01T11:40:30.002Z</time></trkpt><trkpt lat="44.97551380514685" lon="9.716181834156451"><ele>92.0</ele><time>2026-05-01T11:40:31.002Z</time></trkpt><trkpt lat="44.97529245891117" lon="9.716225020739985"><ele>92.0</ele><time>2026-05-01T11:40:32.002Z</time></trkpt><trkpt lat="44.97505735134024" lon="9.716280079774386"><ele>93.0</ele><time>2026-05-01T11:40:33.002Z</time></trkpt><trkpt lat="44.97481367376886" lon="9.716333447112486"><ele>94.0</ele><time>2026-05-01T11:40:34.002Z</time></trkpt><trkpt lat="44.97456948986682" lon="9.716391078569176"><ele>94.0</ele><time>2026-05-01T11:40:35.002Z</time></trkpt><trkpt lat="44.9743114400366" lon="9.716452774739862"><ele>94.0</ele><time>2026-05-01T11:40:36.002Z</time></trkpt><trkpt lat="44.974043166306714" lon="9.716522836200479"><ele>93.0</ele><time>2026-05-01T11:40:37.002Z</time></trkpt><trkpt lat="44.97377178135965" lon="9.716591449209215"><ele>92.0</ele><time>2026-05-01T11:40:38.002Z</time></trkpt><trkpt lat="44.973498434021366" lon="9.71666191576992"><ele>92.0</ele><time>2026-05-01T11:40:39.002Z</time></trkpt><trkpt lat="44.97322082281548" lon="9.716732130388344"><ele>92.0</ele><time>2026-05-01T11:40:40.002Z</time></trkpt><trkpt lat="44.972946145416884" lon="9.716801083026732"><ele>92.0</ele><time>2026-05-01T11:40:41.002Z</time></trkpt><trkpt lat="44.97266883379847" lon="9.716868187927984"><ele>92.0</ele><time>2026-05-01T11:40:42.002Z</time></trkpt><trkpt lat="44.97238755340932" lon="9.716938546528878"><ele>93.0</ele><time>2026-05-01T11:40:43.002Z</time></trkpt><trkpt lat="44.97210215959214" lon="9.717007475476594"><ele>94.0</ele><time>2026-05-01T11:40:44.002Z</time></trkpt><trkpt lat="44.9718205295802" lon="9.717066695055767"><ele>94.5</ele><time>2026-05-01T11:40:45.002Z</time></trkpt><trkpt lat="44.97154329016018" lon="9.717113909628843"><ele>95.0</ele><time>2026-05-01T11:40:46.002Z</time></trkpt><trkpt lat="44.971269444230444" lon="9.717147341594387"><ele>95.0</ele><time>2026-05-01T11:40:47.002Z</time></trkpt><trkpt lat="44.970997119179295" lon="9.717179765169234"><ele>95.0</ele><time>2026-05-01T11:40:48.002Z</time></trkpt><trkpt lat="44.9707329756479" lon="9.717208459034495"><ele>96.0</ele><time>2026-05-01T11:40:49.002Z</time></trkpt><trkpt lat="44.97046953452377" lon="9.717237594839931"><ele>97.0</ele><time>2026-05-01T11:40:50.002Z</time></trkpt><trkpt lat="44.97021483866462" lon="9.717267122937733"><ele>96.0</ele><time>2026-05-01T11:40:51Z</time></trkpt><trkpt lat="44.969981089668735" lon="9.71729574823473"><ele>95.0</ele><time>2026-05-01T11:40:52Z</time></trkpt><trkpt lat="44.96977140256708" lon="9.717324658995924"><ele>94.0</ele><time>2026-05-01T11:40:53Z</time></trkpt><trkpt lat="44.969564801455824" lon="9.717348386709434"><ele>94.0</ele><time>2026-05-01T11:40:54Z</time></trkpt><trkpt lat="44.96937558787703" lon="9.717375334672811"><ele>94.0</ele><time>2026-05-01T11:40:55Z</time></trkpt><trkpt lat="44.96919485219327" lon="9.717406687978194"><ele>94.0</ele><time>2026-05-01T11:40:56Z</time></trkpt><trkpt lat="44.96901334959888" lon="9.717460999499426"><ele>95.0</ele><time>2026-05-01T11:40:57Z</time></trkpt><trkpt lat="44.9688266781362" lon="9.717524617326797"><ele>96.0</ele><time>2026-05-01T11:40:58Z</time></trkpt><trkpt lat="44.96864502345546" lon="9.717584310847565"><ele>97.0</ele><time>2026-05-01T11:40:59Z</time></trkpt><trkpt lat="44.9684542427621" lon="9.717631400038371"><ele>96.66666666666667</ele><time>2026-05-01T11:41:00Z</time></trkpt><trkpt lat="44.96824140027101" lon="9.717661559807866"><ele>96.33333333333334</ele><time>2026-05-01T11:41:01Z</time></trkpt><trkpt lat="44.96802049124213" lon="9.717688133430487"><ele>96.0</ele><time>2026-05-01T11:41:02Z</time></trkpt><trkpt lat="44.96781873383752" lon="9.717713942426869"><ele>96.0</ele><time>2026-05-01T11:41:03Z</time></trkpt><trkpt lat="44.96763591842615" lon="9.717735616630867"><ele>96.0</ele><time>2026-05-01T11:41:04Z</time></trkpt><trkpt lat="44.9674668606063" lon="9.71775633025479"><ele>96.0</ele><time>2026-05-01T11:41:05Z</time></trkpt><trkpt lat="44.96731494956564" lon="9.717781326148376"><ele>96.0</ele><time>2026-05-01T11:41:06Z</time></trkpt><trkpt lat="44.96717020391219" lon="9.717801297961069"><ele>96.0</ele><time>2026-05-01T11:41:07Z</time></trkpt><trkpt lat="44.96703600458539" lon="9.717822084322272"><ele>96.0</ele><time>2026-05-01T11:41:08Z</time></trkpt><trkpt lat="44.966922671133595" lon="9.717839004043155"><ele>96.0</ele><time>2026-05-01T11:41:09Z</time></trkpt><trkpt lat="44.96684164072584" lon="9.717856409149068"><ele>96.0</ele><time>2026-05-01T11:41:10Z</time></trkpt><trkpt lat="44.96677929865853" lon="9.71795378954072"><ele>96.0</ele><time>2026-05-01T11:41:12Z</time></trkpt><trkpt lat="44.966756456782086" lon="9.718056915624858"><ele>96.0</ele><time>2026-05-01T11:41:13Z</time></trkpt><trkpt lat="44.966717170403406" lon="9.718188878214113"><ele>96.0</ele><time>2026-05-01T11:41:14Z</time></trkpt><trkpt lat="44.96666004823085" lon="9.71835752448175"><ele>96.0</ele><time>2026-05-01T11:41:15Z</time></trkpt><trkpt lat="44.966593306400426" lon="9.7185441829597"><ele>96.33333333333334</ele><time>2026-05-01T11:41:16Z</time></trkpt><trkpt lat="44.966525057992826" lon="9.718748177857321"><ele>96.66666666666667</ele><time>2026-05-01T11:41:17Z</time></trkpt><trkpt lat="44.96645358267595" lon="9.718967703600752"><ele>97.0</ele><time>2026-05-01T11:41:18Z</time></trkpt><trkpt lat="44.9663734247433" lon="9.719199877771903"><ele>96.66666666666667</ele><time>2026-05-01T11:41:19Z</time></trkpt><trkpt lat="44.966287693099325" lon="9.719444949549546"><ele>96.33333333333334</ele><time>2026-05-01T11:41:20Z</time></trkpt><trkpt lat="44.96620181505635" lon="9.71970234760102"><ele>96.0</ele><time>2026-05-01T11:41:21Z</time></trkpt><trkpt lat="44.96611948420546" lon="9.719953796288042"><ele>96.0</ele><time>2026-05-01T11:41:22Z</time></trkpt><trkpt lat="44.9660442546188" lon="9.720171473121798"><ele>96.0</ele><time>2026-05-01T11:41:23Z</time></trkpt><trkpt lat="44.96596807446034" lon="9.720389486541945"><ele>96.0</ele><time>2026-05-01T11:41:24Z</time></trkpt><trkpt lat="44.965884823581" lon="9.7206078136225"><ele>96.66666666666666</ele><time>2026-05-01T11:41:25Z</time></trkpt><trkpt lat="44.96576970293543" lon="9.720832427943403"><ele>97.33333333333333</ele><time>2026-05-01T11:41:26Z</time></trkpt><trkpt lat="44.9656154708904" lon="9.721040638569718"><ele>98.0</ele><time>2026-05-01T11:41:27Z</time></trkpt><trkpt lat="44.965452740638284" lon="9.721246119118268"><ele>98.0</ele><time>2026-05-01T11:41:28Z</time></trkpt><trkpt lat="44.965292466656386" lon="9.721455386206422"><ele>98.0</ele><time>2026-05-01T11:41:29Z</time></trkpt><trkpt lat="44.96513920684621" lon="9.721663160089436"><ele>98.0</ele><time>2026-05-01T11:41:30.001Z</time></trkpt><trkpt lat="44.96498727115885" lon="9.721874030103498"><ele>97.66666666666666</ele><time>2026-05-01T11:41:31.001Z</time></trkpt><trkpt lat="44.96483314196091" lon="9.722093664883271"><ele>97.33333333333334</ele><time>2026-05-01T11:41:32.001Z</time></trkpt><trkpt lat="44.96467688814265" lon="9.722310725371251"><ele>97.0</ele><time>2026-05-01T11:41:33.001Z</time></trkpt><trkpt lat="44.96450899070582" lon="9.722536398438494"><ele>97.0</ele><time>2026-05-01T11:41:34.001Z</time></trkpt><trkpt lat="44.96432262955982" lon="9.722789751366943"><ele>97.0</ele><time>2026-05-01T11:41:35.001Z</time></trkpt><trkpt lat="44.96412666676292" lon="9.723060509487759"><ele>97.0</ele><time>2026-05-01T11:41:36.001Z</time></trkpt><trkpt lat="44.96392815155069" lon="9.72333805721754"><ele>97.0</ele><time>2026-05-01T11:41:37.001Z</time></trkpt><trkpt lat="44.963724439295746" lon="9.723617563766622"><ele>97.5</ele><time>2026-05-01T11:41:38.001Z</time></trkpt><trkpt lat="44.9635489587846" lon="9.723862788150074"><ele>98.0</ele><time>2026-05-01T11:41:39.001Z</time></trkpt><trkpt lat="44.963385817353846" lon="9.724090087360116"><ele>98.0</ele><time>2026-05-01T11:41:40.001Z</time></trkpt><trkpt lat="44.96323807780131" lon="9.724299238527923"><ele>98.0</ele><time>2026-05-01T11:41:41.001Z</time></trkpt><trkpt lat="44.963096158285865" lon="9.724498985687605"><ele>98.0</ele><time>2026-05-01T11:41:42.001Z</time></trkpt><trkpt lat="44.962960012261895" lon="9.724691742814361"><ele>97.66666666666666</ele><time>2026-05-01T11:41:43.001Z</time></trkpt><trkpt lat="44.962835471764926" lon="9.724866560261827"><ele>97.33333333333334</ele><time>2026-05-01T11:41:44.001Z</time></trkpt><trkpt lat="44.96271792691067" lon="9.725025260140413"><ele>97.0</ele><time>2026-05-01T11:41:45.001Z</time></trkpt><trkpt lat="44.96260655030485" lon="9.725175526100886"><ele>97.5</ele><time>2026-05-01T11:41:46.001Z</time></trkpt><trkpt lat="44.96250194184093" lon="9.725316585779742"><ele>98.0</ele><time>2026-05-01T11:41:47.001Z</time></trkpt><trkpt lat="44.96240500192398" lon="9.725450128109403"><ele>98.5</ele><time>2026-05-01T11:41:48.001Z</time></trkpt><trkpt lat="44.9623165674968" lon="9.725571477194508"><ele>99.0</ele><time>2026-05-01T11:41:49.001Z</time></trkpt><trkpt lat="44.96223442376858" lon="9.725681616031588"><ele>99.0</ele><time>2026-05-01T11:41:50.001Z</time></trkpt><trkpt lat="44.962164516089665" lon="9.72577504415935"><ele>99.0</ele><time>2026-05-01T11:41:51.001Z</time></trkpt><trkpt lat="44.962106408305935" lon="9.725846747748973"><ele>99.0</ele><time>2026-05-01T11:41:52.001Z</time></trkpt><trkpt lat="44.962054790216854" lon="9.725912547545594"><ele>99.0</ele><time>2026-05-01T11:41:59.001Z</time></trkpt><trkpt lat="44.96208734479386" lon="9.726102841728645"><ele>99.0</ele><time>2026-05-01T11:42:02.001Z</time></trkpt><trkpt lat="44.962156034663614" lon="9.726210116124435"><ele>99.0</ele><time>2026-05-01T11:42:03.001Z</time></trkpt><trkpt lat="44.962236236506776" lon="9.726329660496814"><ele>99.0</ele><time>2026-05-01T11:42:04.001Z</time></trkpt><trkpt lat="44.96229922116459" lon="9.726438721124712"><ele>99.0</ele><time>2026-05-01T11:42:05.001Z</time></trkpt><trkpt lat="44.96235490039682" lon="9.726535979243707"><ele>99.0</ele><time>2026-05-01T11:42:06.001Z</time></trkpt><trkpt lat="44.96238499293742" lon="9.72661482760818"><ele>99.0</ele><time>2026-05-01T11:42:07.001Z</time></trkpt><trkpt lat="44.96241245615893" lon="9.726705135367435"><ele>99.0</ele><time>2026-05-01T11:42:10.001Z</time></trkpt><trkpt lat="44.96220994263113" lon="9.726918436451209"><ele>99.0</ele><time>2026-05-01T11:42:12.001Z</time></trkpt><trkpt lat="44.962113608469174" lon="9.727025610086448"><ele>99.0</ele><time>2026-05-01T11:42:13.001Z</time></trkpt><trkpt lat="44.96201182879227" lon="9.727155792485155"><ele>99.0</ele><time>2026-05-01T11:42:14.001Z</time></trkpt><trkpt lat="44.96189848383065" lon="9.727306792870998"><ele>99.0</ele><time>2026-05-01T11:42:15.001Z</time></trkpt><trkpt lat="44.961781053128504" lon="9.727484174707516"><ele>99.33333333333334</ele><time>2026-05-01T11:42:16.001Z</time></trkpt><trkpt lat="44.961646092438656" lon="9.727691939012049"><ele>99.66666666666667</ele><time>2026-05-01T11:42:17.001Z</time></trkpt><trkpt lat="44.96151610941885" lon="9.727885639070044"><ele>100.0</ele><time>2026-05-01T11:42:18.001Z</time></trkpt><trkpt lat="44.96135123838167" lon="9.728114732006125"><ele>100.0</ele><time>2026-05-01T11:42:19.001Z</time></trkpt><trkpt lat="44.9612079353897" lon="9.728329698821236"><ele>100.0</ele><time>2026-05-01T11:42:20.001Z</time></trkpt><trkpt lat="44.96107737554555" lon="9.728523260584529"><ele>100.0</ele><time>2026-05-01T11:42:21.001Z</time></trkpt><trkpt lat="44.96095278631822" lon="9.728687212381535"><ele>100.5</ele><time>2026-05-01T11:42:22.001Z</time></trkpt><trkpt lat="44.960844231179195" lon="9.728848049611953"><ele>101.0</ele><time>2026-05-01T11:42:23.001Z</time></trkpt><trkpt lat="44.96075259782785" lon="9.728978186338995"><ele>101.5</ele><time>2026-05-01T11:42:24.001Z</time></trkpt><trkpt lat="44.96066202429014" lon="9.729109265701654"><ele>102.0</ele><time>2026-05-01T11:42:25.001Z</time></trkpt><trkpt lat="44.96058757600984" lon="9.729208348494126"><ele>102.0</ele><time>2026-05-01T11:42:26.001Z</time></trkpt><trkpt lat="44.96052708237963" lon="9.729334607350804"><ele>102.0</ele><time>2026-05-01T11:42:27.001Z</time></trkpt><trkpt lat="44.960467205860894" lon="9.729464063733758"><ele>102.0</ele><time>2026-05-01T11:42:28.001Z</time></trkpt><trkpt lat="44.96042964423977" lon="9.729594379364462"><ele>102.0</ele><time>2026-05-01T11:42:29.001Z</time></trkpt><trkpt lat="44.96041186894542" lon="9.729695785935993"><ele>102.0</ele><time>2026-05-01T11:42:30.001Z</time></trkpt><trkpt lat="44.96037508560224" lon="9.72982410079997"><ele>101.39999999999999</ele><time>2026-05-01T11:42:32.001Z</time></trkpt><trkpt lat="44.960350315092924" lon="9.729957580580553"><ele>100.8</ele><time>2026-05-01T11:42:34.001Z</time></trkpt><trkpt lat="44.96040849517569" lon="9.730067946682171"><ele>100.2</ele><time>2026-05-01T11:42:36.001Z</time></trkpt><trkpt lat="44.96047448440582" lon="9.7301211951097"><ele>99.6</ele><time>2026-05-01T11:42:37.001Z</time></trkpt><trkpt lat="44.96056330608531" lon="9.730149424870062"><ele>99.0</ele><time>2026-05-01T11:42:38.001Z</time></trkpt><trkpt lat="44.960668250985314" lon="9.73019720215392"><ele>98.75</ele><time>2026-05-01T11:42:39.001Z</time></trkpt><trkpt lat="44.96077975823898" lon="9.730288321393802"><ele>98.5</ele><time>2026-05-01T11:42:40.002Z</time></trkpt><trkpt lat="44.96088712510013" lon="9.730414554838461"><ele>98.25</ele><time>2026-05-01T11:42:41.002Z</time></trkpt><trkpt lat="44.96099707378863" lon="9.730530298201861"><ele>98.0</ele><time>2026-05-01T11:42:42.002Z</time></trkpt><trkpt lat="44.96111482401839" lon="9.730641713841825"><ele>98.0</ele><time>2026-05-01T11:42:43.002Z</time></trkpt><trkpt lat="44.96123450784097" lon="9.730749192133334"><ele>98.0</ele><time>2026-05-01T11:42:44.002Z</time></trkpt><trkpt lat="44.96132685363994" lon="9.730840225262297"><ele>98.0</ele><time>2026-05-01T11:42:45.002Z</time></trkpt><trkpt lat="44.96140926179181" lon="9.730938177443331"><ele>98.0</ele><time>2026-05-01T11:42:46.002Z</time></trkpt><trkpt lat="44.96148804271483" lon="9.731021213452507"><ele>98.2</ele><time>2026-05-01T11:42:47.002Z</time></trkpt><trkpt lat="44.961566617326234" lon="9.731089006804881"><ele>98.4</ele><time>2026-05-01T11:42:48.002Z</time></trkpt><trkpt lat="44.96165112347262" lon="9.731152920529981"><ele>98.60000000000001</ele><time>2026-05-01T11:42:49.002Z</time></trkpt><trkpt lat="44.961763025551434" lon="9.731245096355607"><ele>98.80000000000001</ele><time>2026-05-01T11:42:50.002Z</time></trkpt><trkpt lat="44.96185716418618" lon="9.731349635136247"><ele>99.0</ele><time>2026-05-01T11:42:51.002Z</time></trkpt><trkpt lat="44.96193821798279" lon="9.731475317953736"><ele>99.0</ele><time>2026-05-01T11:42:52.002Z</time></trkpt><trkpt lat="44.962027347985895" lon="9.731556246409536"><ele>99.0</ele><time>2026-05-01T11:42:53.002Z</time></trkpt><trkpt lat="44.96214144852531" lon="9.73162289493522"><ele>99.0</ele><time>2026-05-01T11:42:54.002Z</time></trkpt><trkpt lat="44.962237689892866" lon="9.73168764975505"><ele>99.0</ele><time>2026-05-01T11:42:55.002Z</time></trkpt><trkpt lat="44.96230960735341" lon="9.731755942996815"><ele>99.0</ele><time>2026-05-01T11:42:56.002Z</time></trkpt><trkpt lat="44.96236712557395" lon="9.731851558995933"><ele>98.5</ele><time>2026-05-01T11:42:57Z</time></trkpt><trkpt lat="44.96243556341737" lon="9.731975933420333"><ele>98.0</ele><time>2026-05-01T11:42:58Z</time></trkpt><trkpt lat="44.962498252860854" lon="9.732109842440474"><ele>97.5</ele><time>2026-05-01T11:42:59Z</time></trkpt><trkpt lat="44.96258181905696" lon="9.732270040207187"><ele>97.0</ele><time>2026-05-01T11:43:00Z</time></trkpt><trkpt lat="44.962650972025756" lon="9.732386004635888"><ele>96.8</ele><time>2026-05-01T11:43:01Z</time></trkpt><trkpt lat="44.96271217353775" lon="9.73246636828993"><ele>96.6</ele><time>2026-05-01T11:43:02Z</time></trkpt><trkpt lat="44.962779944796026" lon="9.732523888795816"><ele>96.39999999999999</ele><time>2026-05-01T11:43:03Z</time></trkpt><trkpt lat="44.96286715121863" lon="9.732547409078098"><ele>96.19999999999999</ele><time>2026-05-01T11:43:04Z</time></trkpt><trkpt lat="44.96298765766406" lon="9.732604449320707"><ele>96.0</ele><time>2026-05-01T11:43:05Z</time></trkpt><trkpt lat="44.96308908026758" lon="9.732666842529833"><ele>96.0</ele><time>2026-05-01T11:43:06Z</time></trkpt><trkpt lat="44.96318546599822" lon="9.73274351051241"><ele>96.0</ele><time>2026-05-01T11:43:07Z</time></trkpt><trkpt lat="44.9632743033156" lon="9.732814023631"><ele>96.0</ele><time>2026-05-01T11:43:08Z</time></trkpt><trkpt lat="44.963378973565874" lon="9.732898659655369"><ele>96.0</ele><time>2026-05-01T11:43:09Z</time></trkpt><trkpt lat="44.963488483133354" lon="9.732992379216876"><ele>96.0</ele><time>2026-05-01T11:43:10Z</time></trkpt><trkpt lat="44.96359229322786" lon="9.73308540923649"><ele>96.0</ele><time>2026-05-01T11:43:11Z</time></trkpt><trkpt lat="44.96369354534039" lon="9.733180244404993"><ele>96.0</ele><time>2026-05-01T11:43:12Z</time></trkpt><trkpt lat="44.963771105941404" lon="9.733260107248157"><ele>96.0</ele><time>2026-05-01T11:43:13Z</time></trkpt><trkpt lat="44.96383848879629" lon="9.733336883923332"><ele>96.0</ele><time>2026-05-01T11:43:14Z</time></trkpt><trkpt lat="44.963903723427734" lon="9.733430181102145"><ele>95.75</ele><time>2026-05-01T11:43:15Z</time></trkpt><trkpt lat="44.9639716161563" lon="9.733558027447256"><ele>95.5</ele><time>2026-05-01T11:43:16Z</time></trkpt><trkpt lat="44.96404966593176" lon="9.73372659596501"><ele>95.25</ele><time>2026-05-01T11:43:17Z</time></trkpt><trkpt lat="44.964132214574775" lon="9.73391623013241"><ele>95.0</ele><time>2026-05-01T11:43:18Z</time></trkpt><trkpt lat="44.96421227808884" lon="9.734088702049927"><ele>95.0</ele><time>2026-05-01T11:43:19Z</time></trkpt><trkpt lat="44.96428219361669" lon="9.734231039515297"><ele>95.0</ele><time>2026-05-01T11:43:20Z</time></trkpt><trkpt lat="44.96434077347362" lon="9.734352768292892"><ele>95.0</ele><time>2026-05-01T11:43:21Z</time></trkpt><trkpt lat="44.964406511725635" lon="9.734442782966246"><ele>95.0</ele><time>2026-05-01T11:43:22Z</time></trkpt><trkpt lat="44.96449119041224" lon="9.734521040369257"><ele>95.0</ele><time>2026-05-01T11:43:23Z</time></trkpt><trkpt lat="44.96460551303515" lon="9.73462082191894"><ele>95.0</ele><time>2026-05-01T11:43:24Z</time></trkpt><trkpt lat="44.964717976826" lon="9.734696653613808"><ele>95.0</ele><time>2026-05-01T11:43:25Z</time></trkpt><trkpt lat="44.96482350440583" lon="9.734779282912124"><ele>95.0</ele><time>2026-05-01T11:43:26Z</time></trkpt><trkpt lat="44.96491350540456" lon="9.734875064124527"><ele>95.0</ele><time>2026-05-01T11:43:27Z</time></trkpt><trkpt lat="44.964993943309196" lon="9.734984290874841"><ele>94.75</ele><time>2026-05-01T11:43:28Z</time></trkpt><trkpt lat="44.96506986574049" lon="9.73511251711051"><ele>94.5</ele><time>2026-05-01T11:43:29Z</time></trkpt><trkpt lat="44.96513936716822" lon="9.73524307876907"><ele>94.25</ele><time>2026-05-01T11:43:30Z</time></trkpt><trkpt lat="44.96520163845846" lon="9.735384285867243"><ele>94.0</ele><time>2026-05-01T11:43:31Z</time></trkpt><trkpt lat="44.96523771569459" lon="9.735519328711778"><ele>94.0</ele><time>2026-05-01T11:43:32Z</time></trkpt><trkpt lat="44.9652577077166" lon="9.735672837298916"><ele>94.0</ele><time>2026-05-01T11:43:33Z</time></trkpt><trkpt lat="44.96525577632561" lon="9.735793709962437"><ele>94.0</ele><time>2026-05-01T11:43:34Z</time></trkpt><trkpt lat="44.96525422322099" lon="9.735941478821694"><ele>94.0</ele><time>2026-05-01T11:43:35.001Z</time></trkpt><trkpt lat="44.96526669276416" lon="9.736076657721597"><ele>94.0</ele><time>2026-05-01T11:43:36.001Z</time></trkpt><trkpt lat="44.96530985803061" lon="9.736170336193988"><ele>94.0</ele><time>2026-05-01T11:43:37.001Z</time></trkpt><trkpt lat="44.96536764042744" lon="9.73627336629611"><ele>94.0</ele><time>2026-05-01T11:43:38.001Z</time></trkpt><trkpt lat="44.96544362887468" lon="9.736402439634531"><ele>94.0</ele><time>2026-05-01T11:43:39.001Z</time></trkpt><trkpt lat="44.965516811919834" lon="9.736557602861776"><ele>94.0</ele><time>2026-05-01T11:43:40.001Z</time></trkpt><trkpt lat="44.965595390281976" lon="9.736700357673943"><ele>94.0</ele><time>2026-05-01T11:43:41.001Z</time></trkpt><trkpt lat="44.96565389736075" lon="9.736805262820699"><ele>94.0</ele><time>2026-05-01T11:43:42.001Z</time></trkpt><trkpt lat="44.96569375924951" lon="9.736941914315821"><ele>94.0</ele><time>2026-05-01T11:43:44.001Z</time></trkpt><trkpt lat="44.96566263064916" lon="9.737104756056192"><ele>94.0</ele><time>2026-05-01T11:43:46.001Z</time></trkpt><trkpt lat="44.96561374700002" lon="9.737222826872891"><ele>94.0</ele><time>2026-05-01T11:43:47.001Z</time></trkpt><trkpt lat="44.965576298618274" lon="9.737359655995725"><ele>94.0</ele><time>2026-05-01T11:43:48.001Z</time></trkpt><trkpt lat="44.965556373262906" lon="9.737451480893828"><ele>94.0</ele><time>2026-05-01T11:43:49.001Z</time></trkpt><trkpt lat="44.96553353061307" lon="9.737569428713028"><ele>94.0</ele><time>2026-05-01T11:43:51.001Z</time></trkpt><trkpt lat="44.96555941293469" lon="9.737714054259275"><ele>94.0</ele><time>2026-05-01T11:43:55.001Z</time></trkpt><trkpt lat="44.96550329670919" lon="9.737829796261726"><ele>94.0</ele><time>2026-05-01T11:44:16.001Z</time></trkpt><trkpt lat="44.965424392819024" lon="9.737820576596636"><ele>94.0</ele><time>2026-05-01T11:44:17.001Z</time></trkpt><trkpt lat="44.965316296132315" lon="9.737791583350083"><ele>94.0</ele><time>2026-05-01T11:44:18.001Z</time></trkpt><trkpt lat="44.96519013331744" lon="9.737786948151808"><ele>94.0</ele><time>2026-05-01T11:44:19.001Z</time></trkpt><trkpt lat="44.96506011004874" lon="9.737786557906551"><ele>94.0</ele><time>2026-05-01T11:44:20.001Z</time></trkpt><trkpt lat="44.96492075919772" lon="9.737788402263137"><ele>94.0</ele><time>2026-05-01T11:44:21.001Z</time></trkpt><trkpt lat="44.964772771061135" lon="9.737789462826967"><ele>93.33333333333333</ele><time>2026-05-01T11:44:22.001Z</time></trkpt><trkpt lat="44.96461954403192" lon="9.737787461690072"><ele>92.66666666666667</ele><time>2026-05-01T11:44:23.001Z</time></trkpt><trkpt lat="44.96445991454793" lon="9.737779351146985"><ele>92.0</ele><time>2026-05-01T11:44:24.001Z</time></trkpt><trkpt lat="44.96427135203463" lon="9.737769130160654"><ele>93.0</ele><time>2026-05-01T11:44:25.001Z</time></trkpt><trkpt lat="44.96404739227463" lon="9.737762659682335"><ele>94.0</ele><time>2026-05-01T11:44:26.001Z</time></trkpt><trkpt lat="44.96381293781532" lon="9.73775448380655"><ele>94.0</ele><time>2026-05-01T11:44:27.001Z</time></trkpt><trkpt lat="44.96361083670451" lon="9.737752758579457"><ele>94.0</ele><time>2026-05-01T11:44:28.001Z</time></trkpt><trkpt lat="44.96343097665155" lon="9.737748326522132"><ele>94.0</ele><time>2026-05-01T11:44:29.001Z</time></trkpt><trkpt lat="44.96327629353282" lon="9.737744884783202"><ele>94.5</ele><time>2026-05-01T11:44:30.001Z</time></trkpt><trkpt lat="44.963134601049404" lon="9.737743531531974"><ele>95.0</ele><time>2026-05-01T11:44:31.001Z</time></trkpt><trkpt lat="44.962999622939634" lon="9.737739727066353"><ele>95.5</ele><time>2026-05-01T11:44:32.001Z</time></trkpt><trkpt lat="44.96286236159954" lon="9.737733428587125"><ele>96.0</ele><time>2026-05-01T11:44:33.001Z</time></trkpt><trkpt lat="44.9627229649069" lon="9.737731762344767"><ele>96.0</ele><time>2026-05-01T11:44:34.001Z</time></trkpt><trkpt lat="44.962578973005925" lon="9.73773181436343"><ele>96.0</ele><time>2026-05-01T11:44:35.001Z</time></trkpt><trkpt lat="44.962429005943854" lon="9.737730708404046"><ele>96.0</ele><time>2026-05-01T11:44:36.001Z</time></trkpt><trkpt lat="44.96227338597154" lon="9.737726031037997"><ele>95.66666666666667</ele><time>2026-05-01T11:44:37.001Z</time></trkpt><trkpt lat="44.9621158297479" lon="9.737720729295777"><ele>95.33333333333334</ele><time>2026-05-01T11:44:38.001Z</time></trkpt><trkpt lat="44.96195687415516" lon="9.737719289556214"><ele>95.0</ele><time>2026-05-01T11:44:39.001Z</time></trkpt><trkpt lat="44.961792539503875" lon="9.737717242998945"><ele>95.0</ele><time>2026-05-01T11:44:40.001Z</time></trkpt><trkpt lat="44.9616303511895" lon="9.737711826023116"><ele>95.0</ele><time>2026-05-01T11:44:41.001Z</time></trkpt><trkpt lat="44.96147130866653" lon="9.737709090215851"><ele>95.0</ele><time>2026-05-01T11:44:42.001Z</time></trkpt><trkpt lat="44.96132103581314" lon="9.737707316095687"><ele>95.0</ele><time>2026-05-01T11:44:43.001Z</time></trkpt><trkpt lat="44.96116456639823" lon="9.737705722831794"><ele>95.0</ele><time>2026-05-01T11:44:44.001Z</time></trkpt><trkpt lat="44.96101851038695" lon="9.737702985550076"><ele>95.0</ele><time>2026-05-01T11:44:45.001Z</time></trkpt><trkpt lat="44.960868366486935" lon="9.73769631229891"><ele>95.25</ele><time>2026-05-01T11:44:46.001Z</time></trkpt><trkpt lat="44.96072761692231" lon="9.737689958271943"><ele>95.5</ele><time>2026-05-01T11:44:47.001Z</time></trkpt><trkpt lat="44.96057321250367" lon="9.73769359020008"><ele>95.75</ele><time>2026-05-01T11:44:48.002Z</time></trkpt><trkpt lat="44.96043049263233" lon="9.73768728369047"><ele>96.0</ele><time>2026-05-01T11:44:49.002Z</time></trkpt><trkpt lat="44.9602836730967" lon="9.737682579652434"><ele>96.0</ele><time>2026-05-01T11:44:50.002Z</time></trkpt><trkpt lat="44.96013642331451" lon="9.737682284484045"><ele>96.0</ele><time>2026-05-01T11:44:51.002Z</time></trkpt><trkpt lat="44.96000447658839" lon="9.737682137060721"><ele>96.0</ele><time>2026-05-01T11:44:52.002Z</time></trkpt><trkpt lat="44.95987342463831" lon="9.737677991615678"><ele>96.0</ele><time>2026-05-01T11:44:53.002Z</time></trkpt><trkpt lat="44.959744617573534" lon="9.73767400225879"><ele>96.75</ele><time>2026-05-01T11:44:54.002Z</time></trkpt><trkpt lat="44.95961318616341" lon="9.737670636215698"><ele>97.5</ele><time>2026-05-01T11:44:55.002Z</time></trkpt><trkpt lat="44.959474220535206" lon="9.737668582305231"><ele>98.25</ele><time>2026-05-01T11:44:56.002Z</time></trkpt><trkpt lat="44.95934107146236" lon="9.7376665765721"><ele>99.0</ele><time>2026-05-01T11:44:57.002Z</time></trkpt><trkpt lat="44.95922053296096" lon="9.737664637420366"><ele>99.0</ele><time>2026-05-01T11:44:58.002Z</time></trkpt><trkpt lat="44.959106604749984" lon="9.737658794989962"><ele>99.0</ele><time>2026-05-01T11:44:59.002Z</time></trkpt><trkpt lat="44.958994474945804" lon="9.737652208515966"><ele>99.0</ele><time>2026-05-01T11:45:00.002Z</time></trkpt><trkpt lat="44.95887544847963" lon="9.73764946638347"><ele>99.0</ele><time>2026-05-01T11:45:01.002Z</time></trkpt><trkpt lat="44.95875792892494" lon="9.73765012682752"><ele>99.0</ele><time>2026-05-01T11:45:02.002Z</time></trkpt><trkpt lat="44.95864836963727" lon="9.737648359859747"><ele>99.0</ele><time>2026-05-01T11:45:03Z</time></trkpt><trkpt lat="44.95853825573399" lon="9.737649231173362"><ele>99.0</ele><time>2026-05-01T11:45:04Z</time></trkpt><trkpt lat="44.95843330106249" lon="9.737648893648656"><ele>99.0</ele><time>2026-05-01T11:45:05Z</time></trkpt><trkpt lat="44.95833773536118" lon="9.737647800532356"><ele>99.0</ele><time>2026-05-01T11:45:06Z</time></trkpt><trkpt lat="44.9582483188763" lon="9.737648491596989"><ele>99.4</ele><time>2026-05-01T11:45:07Z</time></trkpt><trkpt lat="44.95817920515871" lon="9.737626540650163"><ele>99.80000000000001</ele><time>2026-05-01T11:45:08Z</time></trkpt><trkpt lat="44.95810614158585" lon="9.737635190906376"><ele>100.19999999999999</ele><time>2026-05-01T11:45:09Z</time></trkpt><trkpt lat="44.95803751000655" lon="9.73766735552295"><ele>100.6</ele><time>2026-05-01T11:45:10Z</time></trkpt><trkpt lat="44.957920213508274" lon="9.737493357631124"><ele>101.0</ele><time>2026-05-01T11:45:12Z</time></trkpt><trkpt lat="44.95783834046308" lon="9.737437514822357"><ele>101.0</ele><time>2026-05-01T11:45:14Z</time></trkpt><trkpt lat="44.957975485517814" lon="9.737642309024992"><ele>101.0</ele><time>2026-05-01T11:45:20Z</time></trkpt></trkseg><trkseg><trkpt lat="44.957778494910734" lon="9.737706162038055"><ele>101.0</ele><time>2026-05-01T11:56:28.001Z</time></trkpt><trkpt lat="44.95779463278458" lon="9.737853484449847"><ele>101.0</ele><time>2026-05-01T11:56:30.001Z</time></trkpt><trkpt lat="44.95774176639557" lon="9.737941830252037"><ele>101.0</ele><time>2026-05-01T11:56:32.001Z</time></trkpt><trkpt lat="44.95767457995983" lon="9.738009795945937"><ele>101.0</ele><time>2026-05-01T11:56:34.001Z</time></trkpt><trkpt lat="44.957592486299184" lon="9.738072619024317"><ele>101.0</ele><time>2026-05-01T11:56:36.001Z</time></trkpt><trkpt lat="44.95865271586665" lon="9.744113432134755"><ele>96.0</ele><time>2026-05-01T11:57:37Z</time></trkpt><trkpt lat="44.95894051155186" lon="9.744809856301517"><ele>96.0</ele><time>2026-05-01T11:57:41Z</time></trkpt><trkpt lat="44.958983730571425" lon="9.744931355422404"><ele>96.0</ele><time>2026-05-01T11:57:42Z</time></trkpt><trkpt lat="44.95901628487952" lon="9.745032318967109"><ele>96.0</ele><time>2026-05-01T11:57:43Z</time></trkpt><trkpt lat="44.95904867270691" lon="9.745121000943916"><ele>96.0</ele><time>2026-05-01T11:57:44Z</time></trkpt><trkpt lat="44.95911034843385" lon="9.745237578104387"><ele>96.0</ele><time>2026-05-01T11:57:46Z</time></trkpt><trkpt lat="44.95907634394522" lon="9.745157918074089"><ele>96.0</ele><time>2026-05-01T11:57:50Z</time></trkpt><trkpt lat="44.95902021811281" lon="9.745002503195359"><ele>96.0</ele><time>2026-05-01T11:57:52Z</time></trkpt><trkpt lat="44.95897020708629" lon="9.744907158948307"><ele>96.0</ele><time>2026-05-01T11:57:53Z</time></trkpt><trkpt lat="44.95892256172047" lon="9.744775190690628"><ele>96.0</ele><time>2026-05-01T11:57:54Z</time></trkpt><trkpt lat="44.95887208684139" lon="9.74463150393944"><ele>96.0</ele><time>2026-05-01T11:57:55Z</time></trkpt><trkpt lat="44.958818398984505" lon="9.74448116201366"><ele>96.0</ele><time>2026-05-01T11:57:56Z</time></trkpt><trkpt lat="44.95875406893971" lon="9.74431722506047"><ele>96.0</ele><time>2026-05-01T11:57:57Z</time></trkpt><trkpt lat="44.95869898919427" lon="9.7441358023522"><ele>96.0</ele><time>2026-05-01T11:57:58Z</time></trkpt><trkpt lat="44.95852969080551" lon="9.743766272320173"><ele>96.0</ele><time>2026-05-01T11:58:00Z</time></trkpt><trkpt lat="44.958453304669554" lon="9.743573880140621"><ele>96.0</ele><time>2026-05-01T11:58:01Z</time></trkpt><trkpt lat="44.95838293842138" lon="9.743401482948613"><ele>96.0</ele><time>2026-05-01T11:58:02Z</time></trkpt><trkpt lat="44.95831493514521" lon="9.743243227428477"><ele>96.0</ele><time>2026-05-01T11:58:03Z</time></trkpt><trkpt lat="44.9582499820711" lon="9.743096934831415"><ele>95.8</ele><time>2026-05-01T11:58:04Z</time></trkpt><trkpt lat="44.95819030533597" lon="9.742962613626807"><ele>95.6</ele><time>2026-05-01T11:58:05Z</time></trkpt><trkpt lat="44.958160320405014" lon="9.742822957663545"><ele>95.4</ele><time>2026-05-01T11:58:06Z</time></trkpt><trkpt lat="44.958134720765884" lon="9.742709743914878"><ele>95.2</ele><time>2026-05-01T11:58:07Z</time></trkpt><trkpt lat="44.95802930145291" lon="9.742642608683143"><ele>95.0</ele><time>2026-05-01T11:58:08Z</time></trkpt><trkpt lat="44.95795903135414" lon="9.742549115955645"><ele>95.75</ele><time>2026-05-01T11:58:09Z</time></trkpt><trkpt lat="44.95788105462272" lon="9.74244617076456"><ele>96.5</ele><time>2026-05-01T11:58:10.001Z</time></trkpt><trkpt lat="44.957816495546425" lon="9.742320623471858"><ele>97.25</ele><time>2026-05-01T11:58:11.001Z</time></trkpt><trkpt lat="44.957731093608686" lon="9.742208598595822"><ele>98.0</ele><time>2026-05-01T11:58:12.001Z</time></trkpt><trkpt lat="44.95764664768665" lon="9.742079688331495"><ele>98.0</ele><time>2026-05-01T11:58:13.001Z</time></trkpt><trkpt lat="44.957562810816974" lon="9.741936722921832"><ele>98.0</ele><time>2026-05-01T11:58:14.001Z</time></trkpt><trkpt lat="44.95747690226008" lon="9.741800086378904"><ele>98.0</ele><time>2026-05-01T11:58:15.001Z</time></trkpt><trkpt lat="44.95738805414587" lon="9.74166805978638"><ele>98.0</ele><time>2026-05-01T11:58:16.001Z</time></trkpt><trkpt lat="44.95729766991131" lon="9.741532955930603"><ele>98.0</ele><time>2026-05-01T11:58:17.001Z</time></trkpt><trkpt lat="44.95721138447485" lon="9.741397012546187"><ele>98.0</ele><time>2026-05-01T11:58:18.001Z</time></trkpt><trkpt lat="44.95712337476649" lon="9.741261655268465"><ele>98.0</ele><time>2026-05-01T11:58:19.001Z</time></trkpt></trkseg><trkseg><trkpt lat="44.95470365985292" lon="9.739220511549076"><ele>103.0</ele><time>2026-05-01T12:00:43Z</time></trkpt><trkpt lat="44.95466073091232" lon="9.739121328113404"><ele>103.0</ele><time>2026-05-01T12:00:44Z</time></trkpt><trkpt lat="44.95461039796671" lon="9.739005566473459"><ele>103.0</ele><time>2026-05-01T12:00:45Z</time></trkpt><trkpt lat="44.95456235233447" lon="9.738863233297078"><ele>103.0</ele><time>2026-05-01T12:00:46Z</time></trkpt><trkpt lat="44.95451322673173" lon="9.73870885706038"><ele>103.0</ele><time>2026-05-01T12:00:47Z</time></trkpt><trkpt lat="44.95450563864884" lon="9.738532510639073"><ele>103.0</ele><time>2026-05-01T12:00:48Z</time></trkpt><trkpt lat="44.954508886204415" lon="9.73835971695732"><ele>103.0</ele><time>2026-05-01T12:00:49Z</time></trkpt><trkpt lat="44.95451315610832" lon="9.738215783471993"><ele>103.0</ele><time>2026-05-01T12:00:50Z</time></trkpt><trkpt lat="44.95452531565629" lon="9.738127168540238"><ele>103.0</ele><time>2026-05-01T12:00:51Z</time></trkpt><trkpt lat="44.95434493987471" lon="9.73806423601632"><ele>103.0</ele><time>2026-05-01T12:00:54Z</time></trkpt><trkpt lat="44.9542403140825" lon="9.73808301452157"><ele>103.0</ele><time>2026-05-01T12:00:55Z</time></trkpt><trkpt lat="44.95412868838972" lon="9.738076866317849"><ele>103.0</ele><time>2026-05-01T12:00:56Z</time></trkpt><trkpt lat="44.95402321211782" lon="9.738025937271892"><ele>103.0</ele><time>2026-05-01T12:00:57Z</time></trkpt><trkpt lat="44.953944391612616" lon="9.737927050777563"><ele>103.0</ele><time>2026-05-01T12:00:58Z</time></trkpt><trkpt lat="44.95389086201822" lon="9.737825517157866"><ele>103.00000000000001</ele><time>2026-05-01T12:00:59Z</time></trkpt><trkpt lat="44.953830919820795" lon="9.737761845479188"><ele>103.0</ele><time>2026-05-01T12:01:00Z</time></trkpt><trkpt lat="44.953753225648846" lon="9.737739921924545"><ele>103.0</ele><time>2026-05-01T12:01:01Z</time></trkpt><trkpt lat="44.95366774035591" lon="9.737730159634767"><ele>103.0</ele><time>2026-05-01T12:01:02Z</time></trkpt><trkpt lat="44.95355968209978" lon="9.737707445320671"><ele>103.00000000000001</ele><time>2026-05-01T12:01:04Z</time></trkpt><trkpt lat="44.95350253955701" lon="9.737601756298568"><ele>103.0</ele><time>2026-05-01T12:01:06Z</time></trkpt><trkpt lat="44.95344886149053" lon="9.737523522651614"><ele>103.25</ele><time>2026-05-01T12:01:06.998Z</time></trkpt><trkpt lat="44.95332363370607" lon="9.737506069904498"><ele>103.5</ele><time>2026-05-01T12:01:07.998Z</time></trkpt><trkpt lat="44.95318529437369" lon="9.737500201170466"><ele>103.75</ele><time>2026-05-01T12:01:08.998Z</time></trkpt><trkpt lat="44.95304455715142" lon="9.73749442932584"><ele>104.0</ele><time>2026-05-01T12:01:09.998Z</time></trkpt><trkpt lat="44.95288557858135" lon="9.737476473057175"><ele>104.0</ele><time>2026-05-01T12:01:10.998Z</time></trkpt><trkpt lat="44.95271860835366" lon="9.73745751095117"><ele>104.0</ele><time>2026-05-01T12:01:11.998Z</time></trkpt><trkpt lat="44.95254885605297" lon="9.737440515848531"><ele>104.0</ele><time>2026-05-01T12:01:12.998Z</time></trkpt><trkpt lat="44.952362311384356" lon="9.737423756519597"><ele>103.66666666666666</ele><time>2026-05-01T12:01:13.998Z</time></trkpt><trkpt lat="44.9521626209079" lon="9.737403744753854"><ele>103.33333333333334</ele><time>2026-05-01T12:01:14.998Z</time></trkpt><trkpt lat="44.951968027370626" lon="9.737385991470287"><ele>103.0</ele><time>2026-05-01T12:01:15.998Z</time></trkpt><trkpt lat="44.951764631872386" lon="9.737361994143443"><ele>103.33333333333334</ele><time>2026-05-01T12:01:16.998Z</time></trkpt><trkpt lat="44.95155481724758" lon="9.737339898763468"><ele>103.66666666666666</ele><time>2026-05-01T12:01:17.999Z</time></trkpt><trkpt lat="44.951360851570556" lon="9.737318483515715"><ele>104.0</ele><time>2026-05-01T12:01:18.999Z</time></trkpt><trkpt lat="44.95119706211572" lon="9.73729988523829"><ele>104.0</ele><time>2026-05-01T12:01:19.999Z</time></trkpt><trkpt lat="44.95106016939453" lon="9.737285160978793"><ele>104.0</ele><time>2026-05-01T12:01:20.999Z</time></trkpt><trkpt lat="44.95095878731781" lon="9.737270978303538"><ele>104.0</ele><time>2026-05-01T12:01:21.999Z</time></trkpt><trkpt lat="44.95097634498311" lon="9.737127192622903"><ele>104.0</ele><time>2026-05-01T12:01:24.999Z</time></trkpt><trkpt lat="44.950976895298" lon="9.737014272524112"><ele>104.0</ele><time>2026-05-01T12:01:25.999Z</time></trkpt><trkpt lat="44.950965449917966" lon="9.736875120786234"><ele>104.0</ele><time>2026-05-01T12:01:26.999Z</time></trkpt><trkpt lat="44.95097048556061" lon="9.73669939645022"><ele>104.0</ele><time>2026-05-01T12:01:27.999Z</time></trkpt><trkpt lat="44.95096449863033" lon="9.736497871903872"><ele>104.0</ele><time>2026-05-01T12:01:28.999Z</time></trkpt><trkpt lat="44.95098045631434" lon="9.736283584591632"><ele>104.0</ele><time>2026-05-01T12:01:29.999Z</time></trkpt><trkpt lat="44.950981336856564" lon="9.736054530122502"><ele>103.33333333333333</ele><time>2026-05-01T12:01:30.999Z</time></trkpt><trkpt lat="44.95098230215297" lon="9.735813637835276"><ele>102.66666666666666</ele><time>2026-05-01T12:01:31.999Z</time></trkpt><trkpt lat="44.950969305041156" lon="9.735572666721984"><ele>102.0</ele><time>2026-05-01T12:01:32.999Z</time></trkpt><trkpt lat="44.95096801047734" lon="9.735307704059116"><ele>102.66666666666666</ele><time>2026-05-01T12:01:33.999Z</time></trkpt><trkpt lat="44.95096768135949" lon="9.735041948540502"><ele>103.33333333333333</ele><time>2026-05-01T12:01:34.999Z</time></trkpt><trkpt lat="44.950973456497884" lon="9.734755159712284"><ele>104.0</ele><time>2026-05-01T12:01:35.999Z</time></trkpt><trkpt lat="44.95097946841189" lon="9.734502686700376"><ele>104.0</ele><time>2026-05-01T12:01:36.999Z</time></trkpt><trkpt lat="44.950975683060605" lon="9.734267396727173"><ele>104.0</ele><time>2026-05-01T12:01:37.999Z</time></trkpt><trkpt lat="44.95097785949394" lon="9.734053116345173"><ele>104.0</ele><time>2026-05-01T12:01:38.999Z</time></trkpt><trkpt lat="44.95098411457991" lon="9.733857313895292"><ele>104.0</ele><time>2026-05-01T12:01:39.999Z</time></trkpt><trkpt lat="44.9509825779343" lon="9.7336978454619"><ele>104.0</ele><time>2026-05-01T12:01:40.999Z</time></trkpt><trkpt lat="44.95097909089991" lon="9.733571854495803"><ele>104.0</ele><time>2026-05-01T12:01:41.999Z</time></trkpt><trkpt lat="44.95097855888762" lon="9.733434959385038"><ele>104.0</ele><time>2026-05-01T12:01:43.999Z</time></trkpt><trkpt lat="44.950937583762105" lon="9.733309614852194"><ele>104.0</ele><time>2026-05-01T12:01:47Z</time></trkpt><trkpt lat="44.95094230801037" lon="9.733176732126186"><ele>104.25</ele><time>2026-05-01T12:01:49Z</time></trkpt><trkpt lat="44.950946517087765" lon="9.733044630507363"><ele>104.5</ele><time>2026-05-01T12:01:50Z</time></trkpt><trkpt lat="44.95094985595494" lon="9.732882768130738"><ele>104.75</ele><time>2026-05-01T12:01:51Z</time></trkpt><trkpt lat="44.95095789062274" lon="9.732700787041901"><ele>105.0</ele><time>2026-05-01T12:01:52Z</time></trkpt><trkpt lat="44.95096863392459" lon="9.73250654677685"><ele>105.0</ele><time>2026-05-01T12:01:53Z</time></trkpt><trkpt lat="44.95098748223979" lon="9.732304719973236"><ele>105.0</ele><time>2026-05-01T12:01:54Z</time></trkpt><trkpt lat="44.951007728714046" lon="9.732090751207892"><ele>105.0</ele><time>2026-05-01T12:01:55Z</time></trkpt><trkpt lat="44.951030662157685" lon="9.731868519668664"><ele>104.5</ele><time>2026-05-01T12:01:56Z</time></trkpt><trkpt lat="44.95104444479692" lon="9.731640101242878"><ele>104.0</ele><time>2026-05-01T12:01:57Z</time></trkpt><trkpt lat="44.95105945717834" lon="9.731442648190827"><ele>103.5</ele><time>2026-05-01T12:01:58Z</time></trkpt><trkpt lat="44.951070855466455" lon="9.731279044334345"><ele>103.0</ele><time>2026-05-01T12:01:59Z</time></trkpt><trkpt lat="44.951081459995684" lon="9.731170507879128"><ele>103.0</ele><time>2026-05-01T12:02:00Z</time></trkpt><trkpt lat="44.9510978774052" lon="9.731060152525293"><ele>103.0</ele><time>2026-05-01T12:02:04Z</time></trkpt><trkpt lat="44.95092470083175" lon="9.730977380661027"><ele>103.0</ele><time>2026-05-01T12:02:06Z</time></trkpt><trkpt lat="44.95082812368221" lon="9.730958879435114"><ele>103.0</ele><time>2026-05-01T12:02:07Z</time></trkpt><trkpt lat="44.950716868725316" lon="9.730927875795246"><ele>103.75</ele><time>2026-05-01T12:02:08Z</time></trkpt><trkpt lat="44.95059417911869" lon="9.730883859189218"><ele>104.5</ele><time>2026-05-01T12:02:09Z</time></trkpt><trkpt lat="44.950463973469965" lon="9.730834906297458"><ele>105.25</ele><time>2026-05-01T12:02:10Z</time></trkpt><trkpt lat="44.95032814070175" lon="9.730787894780843"><ele>106.0</ele><time>2026-05-01T12:02:11Z</time></trkpt><trkpt lat="44.950185589349836" lon="9.730744158778776"><ele>106.66666666666667</ele><time>2026-05-01T12:02:12Z</time></trkpt><trkpt lat="44.950040626491365" lon="9.730680747010695"><ele>107.33333333333334</ele><time>2026-05-01T12:02:13Z</time></trkpt><trkpt lat="44.949890805856235" lon="9.73063008771491"><ele>108.0</ele><time>2026-05-01T12:02:14Z</time></trkpt><trkpt lat="44.94973992527383" lon="9.73059969148852"><ele>108.0</ele><time>2026-05-01T12:02:15Z</time></trkpt><trkpt lat="44.94962063594747" lon="9.730548065182749"><ele>108.0</ele><time>2026-05-01T12:02:16Z</time></trkpt><trkpt lat="44.949524246304065" lon="9.730515056700328"><ele>108.0</ele><time>2026-05-01T12:02:17Z</time></trkpt><trkpt lat="44.949455105089186" lon="9.730466518151385"><ele>108.0</ele><time>2026-05-01T12:02:19Z</time></trkpt><trkpt lat="44.9495115290991" lon="9.730233834391486"><ele>107.80000000000001</ele><time>2026-05-01T12:02:22Z</time></trkpt><trkpt lat="44.94953536706306" lon="9.730102552598288"><ele>107.60000000000001</ele><time>2026-05-01T12:02:23Z</time></trkpt><trkpt lat="44.94956090170068" lon="9.729961927083576"><ele>107.39999999999999</ele><time>2026-05-01T12:02:24Z</time></trkpt><trkpt lat="44.94958809499131" lon="9.729817421997907"><ele>107.19999999999999</ele><time>2026-05-01T12:02:25Z</time></trkpt><trkpt lat="44.94961484017933" lon="9.729676062949048"><ele>107.0</ele><time>2026-05-01T12:02:26Z</time></trkpt><trkpt lat="44.94963971144349" lon="9.729544608344794"><ele>107.0</ele><time>2026-05-01T12:02:27Z</time></trkpt><trkpt lat="44.94966365854093" lon="9.729419492808852"><ele>106.99999999999999</ele><time>2026-05-01T12:02:28Z</time></trkpt><trkpt lat="44.94968910997852" lon="9.729289491120877"><ele>106.99999999999999</ele><time>2026-05-01T12:02:29Z</time></trkpt><trkpt lat="44.94971675632865" lon="9.729148278112586"><ele>107.0</ele><time>2026-05-01T12:02:30Z</time></trkpt><trkpt lat="44.9497446128025" lon="9.729005991885147"><ele>107.0</ele><time>2026-05-01T12:02:31Z</time></trkpt><trkpt lat="44.94977413844221" lon="9.728855204294577"><ele>106.99999999999999</ele><time>2026-05-01T12:02:32Z</time></trkpt><trkpt lat="44.94979377596966" lon="9.728703046575568"><ele>107.0</ele><time>2026-05-01T12:02:33Z</time></trkpt><trkpt lat="44.949813386492266" lon="9.728570489542676"><ele>107.0</ele><time>2026-05-01T12:02:34Z</time></trkpt><trkpt lat="44.94983711239917" lon="9.728472888503218"><ele>107.0</ele><time>2026-05-01T12:02:35Z</time></trkpt><trkpt lat="44.94988277814319" lon="9.728347105112961"><ele>106.99999999999999</ele><time>2026-05-01T12:02:37Z</time></trkpt><trkpt lat="44.94994589588613" lon="9.728329027875615"><ele>107.0</ele><time>2026-05-01T12:02:38Z</time></trkpt><trkpt lat="44.95000293735063" lon="9.728265962716998"><ele>106.8</ele><time>2026-05-01T12:02:39Z</time></trkpt><trkpt lat="44.95006386331405" lon="9.72817666939327"><ele>106.6</ele><time>2026-05-01T12:02:40Z</time></trkpt><trkpt lat="44.95013865753302" lon="9.728084384209039"><ele>106.39999999999999</ele><time>2026-05-01T12:02:41Z</time></trkpt><trkpt lat="44.95020466528211" lon="9.727968278018361"><ele>106.19999999999999</ele><time>2026-05-01T12:02:42Z</time></trkpt><trkpt lat="44.950254713749416" lon="9.727823639596853"><ele>106.0</ele><time>2026-05-01T12:02:43Z</time></trkpt><trkpt lat="44.950291400067755" lon="9.727659086099694"><ele>106.0</ele><time>2026-05-01T12:02:44Z</time></trkpt><trkpt lat="44.95030857846661" lon="9.72749784122263"><ele>106.0</ele><time>2026-05-01T12:02:45Z</time></trkpt><trkpt lat="44.95030228868167" lon="9.727344844959935"><ele>106.0</ele><time>2026-05-01T12:02:46Z</time></trkpt><trkpt lat="44.95029038322597" lon="9.727192646988287"><ele>106.0</ele><time>2026-05-01T12:02:47Z</time></trkpt><trkpt lat="44.95027420124256" lon="9.727043594476934"><ele>106.0</ele><time>2026-05-01T12:02:48Z</time></trkpt><trkpt lat="44.95024137686876" lon="9.726904088482918"><ele>106.0</ele><time>2026-05-01T12:02:49Z</time></trkpt><trkpt lat="44.95019303017979" lon="9.726785027037973"><ele>106.0</ele><time>2026-05-01T12:02:50Z</time></trkpt><trkpt lat="44.95015883708931" lon="9.726668202832832"><ele>106.0</ele><time>2026-05-01T12:02:51Z</time></trkpt><trkpt lat="44.95014764234108" lon="9.726569303020417"><ele>106.0</ele><time>2026-05-01T12:02:52Z</time></trkpt><trkpt lat="44.95020429055098" lon="9.726426980148792"><ele>106.0</ele><time>2026-05-01T12:02:54Z</time></trkpt><trkpt lat="44.9502350367566" lon="9.726311874225026"><ele>106.0</ele><time>2026-05-01T12:02:59.001Z</time></trkpt><trkpt lat="44.9500554965388" lon="9.726117652802017"><ele>106.0</ele><time>2026-05-01T12:03:01.001Z</time></trkpt><trkpt lat="44.95000326766077" lon="9.726053881011994"><ele>106.0</ele><time>2026-05-01T12:03:02.001Z</time></trkpt><trkpt lat="44.949885460436256" lon="9.726022836417771"><ele>106.0</ele><time>2026-05-01T12:03:04.001Z</time></trkpt><trkpt lat="44.949810036470026" lon="9.726008652876583"><ele>105.66666666666667</ele><time>2026-05-01T12:03:05.001Z</time></trkpt><trkpt lat="44.94972779871157" lon="9.726001221168016"><ele>105.33333333333334</ele><time>2026-05-01T12:03:06.001Z</time></trkpt><trkpt lat="44.94966399606101" lon="9.72600576519375"><ele>105.0</ele><time>2026-05-01T12:03:09.001Z</time></trkpt><trkpt lat="44.94959065693346" lon="9.726001022723079"><ele>104.66666666666666</ele><time>2026-05-01T12:03:11.001Z</time></trkpt><trkpt lat="44.949484491830994" lon="9.725990395498055"><ele>104.33333333333333</ele><time>2026-05-01T12:03:13.999Z</time></trkpt><trkpt lat="44.94942105168912" lon="9.725981252564482"><ele>104.0</ele><time>2026-05-01T12:03:14.999Z</time></trkpt><trkpt lat="44.949337428567326" lon="9.725970637810903"><ele>104.0</ele><time>2026-05-01T12:03:15.999Z</time></trkpt><trkpt lat="44.949249229663096" lon="9.725958635725451"><ele>104.0</ele><time>2026-05-01T12:03:16.999Z</time></trkpt><trkpt lat="44.94914984928582" lon="9.725943663290986"><ele>104.0</ele><time>2026-05-01T12:03:17.999Z</time></trkpt><trkpt lat="44.94905732196996" lon="9.725936589335317"><ele>104.0</ele><time>2026-05-01T12:03:18.999Z</time></trkpt><trkpt lat="44.94897704555991" lon="9.725928985417713"><ele>104.0</ele><time>2026-05-01T12:03:19.999Z</time></trkpt><trkpt lat="44.94883627396664" lon="9.725924660280112"><ele>104.4</ele><time>2026-05-01T12:03:21.999Z</time></trkpt><trkpt lat="44.94875860004123" lon="9.725915513943303"><ele>104.80000000000001</ele><time>2026-05-01T12:03:22.999Z</time></trkpt><trkpt lat="44.9486341630749" lon="9.725896816165466"><ele>105.19999999999999</ele><time>2026-05-01T12:03:24.999Z</time></trkpt><trkpt lat="44.948537138224765" lon="9.725872576081814"><ele>105.6</ele><time>2026-05-01T12:03:25.999Z</time></trkpt><trkpt lat="44.948455738349494" lon="9.725851437025515"><ele>106.0</ele><time>2026-05-01T12:03:26.999Z</time></trkpt><trkpt lat="44.94834930119677" lon="9.72582736652336"><ele>106.19999999999999</ele><time>2026-05-01T12:03:27.999Z</time></trkpt><trkpt lat="44.94823352255432" lon="9.725804040528804"><ele>106.39999999999999</ele><time>2026-05-01T12:03:28.999Z</time></trkpt><trkpt lat="44.948115600418646" lon="9.725776079896102"><ele>106.6</ele><time>2026-05-01T12:03:29.999Z</time></trkpt><trkpt lat="44.94800848104245" lon="9.725745892165083"><ele>106.8</ele><time>2026-05-01T12:03:30.999Z</time></trkpt><trkpt lat="44.94791409468975" lon="9.725718313622936"><ele>107.0</ele><time>2026-05-01T12:03:31.999Z</time></trkpt><trkpt lat="44.947832872024826" lon="9.725691891249497"><ele>107.0</ele><time>2026-05-01T12:03:32.999Z</time></trkpt><trkpt lat="44.94774283000569" lon="9.725673319132534"><ele>106.99999999999999</ele><time>2026-05-01T12:03:33.999Z</time></trkpt><trkpt lat="44.94764242767015" lon="9.725664725555337"><ele>106.99999999999999</ele><time>2026-05-01T12:03:34.999Z</time></trkpt><trkpt lat="44.9475312756452" lon="9.725645674150144"><ele>107.0</ele><time>2026-05-01T12:03:35.999Z</time></trkpt><trkpt lat="44.94742104246419" lon="9.725615067889208"><ele>107.0</ele><time>2026-05-01T12:03:36.999Z</time></trkpt><trkpt lat="44.947294617365365" lon="9.725589355865871"><ele>107.5</ele><time>2026-05-01T12:03:37.999Z</time></trkpt><trkpt lat="44.947150300922466" lon="9.725571669251996"><ele>108.0</ele><time>2026-05-01T12:03:38.999Z</time></trkpt><trkpt lat="44.947020719351315" lon="9.725564761662902"><ele>108.5</ele><time>2026-05-01T12:03:39.999Z</time></trkpt><trkpt lat="44.946912422898286" lon="9.725564853095669"><ele>109.0</ele><time>2026-05-01T12:03:40.999Z</time></trkpt><trkpt lat="44.94679953251915" lon="9.725572809063758"><ele>109.2</ele><time>2026-05-01T12:03:41.999Z</time></trkpt><trkpt lat="44.94667372460003" lon="9.725585241257678"><ele>109.4</ele><time>2026-05-01T12:03:42.999Z</time></trkpt><trkpt lat="44.94658038466469" lon="9.725596481639714"><ele>109.6</ele><time>2026-05-01T12:03:44Z</time></trkpt><trkpt lat="44.946470120682115" lon="9.725604036568578"><ele>109.8</ele><time>2026-05-01T12:03:45Z</time></trkpt><trkpt lat="44.94636605664261" lon="9.725591028185736"><ele>110.0</ele><time>2026-05-01T12:03:46Z</time></trkpt><trkpt lat="44.94623946806056" lon="9.725559640779714"><ele>110.0</ele><time>2026-05-01T12:03:47Z</time></trkpt><trkpt lat="44.94611979576265" lon="9.725495972484993"><ele>110.0</ele><time>2026-05-01T12:03:48Z</time></trkpt><trkpt lat="44.94599722189546" lon="9.725416863863227"><ele>110.0</ele><time>2026-05-01T12:03:49Z</time></trkpt><trkpt lat="44.94587625908245" lon="9.72532205711393"><ele>110.0</ele><time>2026-05-01T12:03:50Z</time></trkpt><trkpt lat="44.94576850332744" lon="9.725230966201062"><ele>109.8</ele><time>2026-05-01T12:03:51Z</time></trkpt><trkpt lat="44.94568131486854" lon="9.725145737901094"><ele>109.6</ele><time>2026-05-01T12:03:52Z</time></trkpt><trkpt lat="44.945594464023216" lon="9.725060856951947"><ele>109.4</ele><time>2026-05-01T12:03:53Z</time></trkpt><trkpt lat="44.94550667613645" lon="9.724960945302982"><ele>109.2</ele><time>2026-05-01T12:03:54Z</time></trkpt><trkpt lat="44.945414643322486" lon="9.72484477482089"><ele>109.0</ele><time>2026-05-01T12:03:55Z</time></trkpt><trkpt lat="44.945323586265665" lon="9.724752682939199"><ele>109.0</ele><time>2026-05-01T12:03:56Z</time></trkpt><trkpt lat="44.94521180723203" lon="9.72467921721371"><ele>109.0</ele><time>2026-05-01T12:03:57Z</time></trkpt><trkpt lat="44.94509516719389" lon="9.724604028003474"><ele>109.0</ele><time>2026-05-01T12:03:58Z</time></trkpt><trkpt lat="44.944991484805" lon="9.724524967692325"><ele>109.0</ele><time>2026-05-01T12:03:59Z</time></trkpt><trkpt lat="44.94489812815855" lon="9.72448465570607"><ele>109.00000000000001</ele><time>2026-05-01T12:04:00Z</time></trkpt><trkpt lat="44.94482031087131" lon="9.724446589106273"><ele>109.0</ele><time>2026-05-01T12:04:01Z</time></trkpt><trkpt lat="44.94474059509636" lon="9.72438007648973"><ele>109.0</ele><time>2026-05-01T12:04:02Z</time></trkpt><trkpt lat="44.9446629363146" lon="9.724305319934812"><ele>109.0</ele><time>2026-05-01T12:04:03Z</time></trkpt><trkpt lat="44.94459145181393" lon="9.724246361273826"><ele>109.00000000000001</ele><time>2026-05-01T12:04:04Z</time></trkpt><trkpt lat="44.944518169516" lon="9.724186670301528"><ele>109.0</ele><time>2026-05-01T12:04:05Z</time></trkpt><trkpt lat="44.944439033234" lon="9.724126774035307"><ele>109.00000000000001</ele><time>2026-05-01T12:04:06Z</time></trkpt><trkpt lat="44.944367858226954" lon="9.724098169627036"><ele>109.0</ele><time>2026-05-01T12:04:07Z</time></trkpt><trkpt lat="44.944288124432504" lon="9.724071863475405"><ele>109.0</ele><time>2026-05-01T12:04:08Z</time></trkpt><trkpt lat="44.94420630875064" lon="9.724044822586139"><ele>109.0</ele><time>2026-05-01T12:04:23Z</time></trkpt><trkpt lat="44.944142474416594" lon="9.724015346173386"><ele>109.00000000000001</ele><time>2026-05-01T12:04:24Z</time></trkpt><trkpt lat="44.94402195048616" lon="9.724008580805156"><ele>109.0</ele><time>2026-05-01T12:04:26Z</time></trkpt><trkpt lat="44.94394042038139" lon="9.72404778360862"><ele>109.33333333333334</ele><time>2026-05-01T12:04:27Z</time></trkpt><trkpt lat="44.94386074616634" lon="9.724091083427352"><ele>109.66666666666667</ele><time>2026-05-01T12:04:28Z</time></trkpt><trkpt lat="44.9437971473021" lon="9.724106679546317"><ele>110.0</ele><time>2026-05-01T12:04:29Z</time></trkpt><trkpt lat="44.94373256902418" lon="9.724100555944192"><ele>110.33333333333334</ele><time>2026-05-01T12:04:30Z</time></trkpt><trkpt lat="44.94362556441852" lon="9.72403094058898"><ele>110.66666666666667</ele><time>2026-05-01T12:04:32Z</time></trkpt><trkpt lat="44.943539804558824" lon="9.723930198144402"><ele>111.0</ele><time>2026-05-01T12:04:34Z</time></trkpt><trkpt lat="44.943431364986736" lon="9.723834736049543"><ele>111.16666666666667</ele><time>2026-05-01T12:04:36.001Z</time></trkpt><trkpt lat="44.94337063425463" lon="9.723787931853677"><ele>111.33333333333334</ele><time>2026-05-01T12:04:37.001Z</time></trkpt><trkpt lat="44.943305425506495" lon="9.723738152326861"><ele>111.5</ele><time>2026-05-01T12:04:38.001Z</time></trkpt><trkpt lat="44.94323288395383" lon="9.723689229860149"><ele>111.66666666666667</ele><time>2026-05-01T12:04:39.001Z</time></trkpt><trkpt lat="44.943135242590586" lon="9.723617619091872"><ele>111.83333333333334</ele><time>2026-05-01T12:04:40.001Z</time></trkpt><trkpt lat="44.94303149863927" lon="9.723561769481574"><ele>112.0</ele><time>2026-05-01T12:04:41.001Z</time></trkpt><trkpt lat="44.942950014472984" lon="9.723514000403345"><ele>112.0</ele><time>2026-05-01T12:04:42.001Z</time></trkpt><trkpt lat="44.942824965277886" lon="9.723433335139232"><ele>111.99999999999999</ele><time>2026-05-01T12:04:44.001Z</time></trkpt><trkpt lat="44.9426966340786" lon="9.723386507183806"><ele>111.99999999999999</ele><time>2026-05-01T12:04:46.001Z</time></trkpt><trkpt lat="44.94262456906522" lon="9.72334615848487"><ele>112.0</ele><time>2026-05-01T12:04:47.001Z</time></trkpt><trkpt lat="44.94253699158695" lon="9.723306789920022"><ele>112.0</ele><time>2026-05-01T12:04:48.001Z</time></trkpt><trkpt lat="44.94244798569103" lon="9.723265875493755"><ele>112.00000000000001</ele><time>2026-05-01T12:04:49.001Z</time></trkpt><trkpt lat="44.94235966385392" lon="9.723231212897865"><ele>112.0</ele><time>2026-05-01T12:04:50.001Z</time></trkpt><trkpt lat="44.942271329531316" lon="9.723202691236523"><ele>112.0</ele><time>2026-05-01T12:04:51.001Z</time></trkpt><trkpt lat="44.94221329206396" lon="9.723147895675819"><ele>112.0</ele><time>2026-05-01T12:04:52.001Z</time></trkpt><trkpt lat="44.942146768670945" lon="9.723080966197031"><ele>112.00000000000001</ele><time>2026-05-01T12:04:53.001Z</time></trkpt><trkpt lat="44.942065057403276" lon="9.722994529671238"><ele>112.0</ele><time>2026-05-01T12:04:54.001Z</time></trkpt><trkpt lat="44.94201047982301" lon="9.722933636094355"><ele>112.0</ele><time>2026-05-01T12:04:55.001Z</time></trkpt><trkpt lat="44.94194856298001" lon="9.722882772513623"><ele>111.99999999999999</ele><time>2026-05-01T12:04:56.001Z</time></trkpt><trkpt lat="44.94186750335805" lon="9.72285747156544"><ele>111.99999999999999</ele><time>2026-05-01T12:04:57.001Z</time></trkpt><trkpt lat="44.94177749817679" lon="9.722785435841864"><ele>112.0</ele><time>2026-05-01T12:04:58.001Z</time></trkpt><trkpt lat="44.941692299356475" lon="9.722692787297708"><ele>112.0</ele><time>2026-05-01T12:04:59.001Z</time></trkpt><trkpt lat="44.941622648825756" lon="9.72261301038751"><ele>112.0</ele><time>2026-05-01T12:05:00.001Z</time></trkpt><trkpt lat="44.94153237224695" lon="9.7225642315392"><ele>111.99999999999999</ele><time>2026-05-01T12:05:02.001Z</time></trkpt><trkpt lat="44.9414507718987" lon="9.722618726441366"><ele>111.99999999999999</ele><time>2026-05-01T12:05:04.001Z</time></trkpt><trkpt lat="44.941342400962036" lon="9.72265486579481"><ele>112.0</ele><time>2026-05-01T12:05:06.001Z</time></trkpt><trkpt lat="44.941253866267914" lon="9.722642179282685"><ele>112.0</ele><time>2026-05-01T12:05:07.001Z</time></trkpt><trkpt lat="44.941170453570464" lon="9.722615985864806"><ele>112.0</ele><time>2026-05-01T12:05:08.001Z</time></trkpt><trkpt lat="44.941049139294364" lon="9.722588698955644"><ele>111.99999999999999</ele><time>2026-05-01T12:05:10.001Z</time></trkpt><trkpt lat="44.94097579153394" lon="9.722551197685272"><ele>111.99999999999999</ele><time>2026-05-01T12:05:11.001Z</time></trkpt><trkpt lat="44.94088961978268" lon="9.722523058983608"><ele>112.0</ele><time>2026-05-01T12:05:12.001Z</time></trkpt><trkpt lat="44.940801133906845" lon="9.722491713886152"><ele>112.0</ele><time>2026-05-01T12:05:13.001Z</time></trkpt><trkpt lat="44.940724157779385" lon="9.722445574923004"><ele>112.19999999999999</ele><time>2026-05-01T12:05:14.001Z</time></trkpt><trkpt lat="44.94061260252228" lon="9.72238118803867"><ele>112.39999999999999</ele><time>2026-05-01T12:05:16.001Z</time></trkpt><trkpt lat="44.94054581976715" lon="9.722384723870864"><ele>112.60000000000001</ele><time>2026-05-01T12:07:00.001Z</time></trkpt><trkpt lat="44.94049768776872" lon="9.72253760603464"><ele>112.80000000000001</ele><time>2026-05-01T12:07:06.001Z</time></trkpt><trkpt lat="44.94042306193405" lon="9.722535513036002"><ele>113.0</ele><time>2026-05-01T12:07:29.001Z</time></trkpt><trkpt lat="44.940341356023836" lon="9.722499102065537"><ele>112.99999999999999</ele><time>2026-05-01T12:08:31.001Z</time></trkpt><trkpt lat="44.940280758052914" lon="9.722456069658573"><ele>113.0</ele><time>2026-05-01T12:08:33.001Z</time></trkpt><trkpt lat="44.94021996192106" lon="9.72241664728172"><ele>113.0</ele><time>2026-05-01T12:08:37.001Z</time></trkpt><trkpt lat="44.94014490750883" lon="9.722387156122489"><ele>113.0</ele><time>2026-05-01T12:08:39.001Z</time></trkpt><trkpt lat="44.940060506009054" lon="9.722354434957003"><ele>112.99999999999999</ele><time>2026-05-01T12:08:41.001Z</time></trkpt><trkpt lat="44.9399939121087" lon="9.722318595810796"><ele>113.0</ele><time>2026-05-01T12:08:42.001Z</time></trkpt><trkpt lat="44.939875708251385" lon="9.722317611039012"><ele>113.49999999999999</ele><time>2026-05-01T12:08:44.001Z</time></trkpt><trkpt lat="44.93981953976333" lon="9.722275520014897"><ele>114.0</ele><time>2026-05-01T12:08:45.001Z</time></trkpt><trkpt lat="44.939740174113986" lon="9.722264731713075"><ele>114.5</ele><time>2026-05-01T12:08:47.001Z</time></trkpt><trkpt lat="44.93969753113042" lon="9.722416118371362"><ele>115.0</ele><time>2026-05-01T12:08:49.001Z</time></trkpt><trkpt lat="44.93967907398774" lon="9.722519311450354"><ele>115.49999999999999</ele><time>2026-05-01T12:08:50.001Z</time></trkpt><trkpt lat="44.93965901488768" lon="9.722668292943071"><ele>116.0</ele><time>2026-05-01T12:08:52.001Z</time></trkpt><trkpt lat="44.939651865599345" lon="9.722834519149123"><ele>116.0</ele><time>2026-05-01T12:08:54.001Z</time></trkpt><trkpt lat="44.93964950349751" lon="9.723006725928938"><ele>116.0</ele><time>2026-05-01T12:08:56.001Z</time></trkpt><trkpt lat="44.93962595735815" lon="9.723146135603345"><ele>116.0</ele><time>2026-05-01T12:08:58.001Z</time></trkpt><trkpt lat="44.93956953220267" lon="9.723238004477023"><ele>116.0</ele><time>2026-05-01T12:09:00.002Z</time></trkpt><trkpt lat="44.9394732245582" lon="9.723278758336605"><ele>116.0</ele><time>2026-05-01T12:09:02.002Z</time></trkpt><trkpt lat="44.93939160695627" lon="9.723286805579525"><ele>116.0</ele><time>2026-05-01T12:09:03.002Z</time></trkpt><trkpt lat="44.93929485362889" lon="9.723307259183738"><ele>116.0</ele><time>2026-05-01T12:09:04.002Z</time></trkpt><trkpt lat="44.93921049142592" lon="9.723354408577032"><ele>116.0</ele><time>2026-05-01T12:09:05.002Z</time></trkpt><trkpt lat="44.93915393780239" lon="9.72343029739071"><ele>116.0</ele><time>2026-05-01T12:09:06.002Z</time></trkpt><trkpt lat="44.93911455494579" lon="9.72354889531729"><ele>116.0</ele><time>2026-05-01T12:09:07.002Z</time></trkpt><trkpt lat="44.93910022817892" lon="9.723683760533593"><ele>115.75</ele><time>2026-05-01T12:09:08.002Z</time></trkpt><trkpt lat="44.939058644912784" lon="9.723865021263041"><ele>115.5</ele><time>2026-05-01T12:09:09.002Z</time></trkpt><trkpt lat="44.93902585547357" lon="9.724062536364363"><ele>115.25</ele><time>2026-05-01T12:09:10.002Z</time></trkpt><trkpt lat="44.93899494902335" lon="9.724254921871994"><ele>115.0</ele><time>2026-05-01T12:09:11.002Z</time></trkpt><trkpt lat="44.93897821610023" lon="9.724455483387004"><ele>114.75</ele><time>2026-05-01T12:09:12.002Z</time></trkpt><trkpt lat="44.93894298670656" lon="9.724655718370673"><ele>114.5</ele><time>2026-05-01T12:09:13.002Z</time></trkpt><trkpt lat="44.93891033649444" lon="9.72485692528244"><ele>114.25</ele><time>2026-05-01T12:09:14.002Z</time></trkpt><trkpt lat="44.938879782219" lon="9.725065151178558"><ele>114.0</ele><time>2026-05-01T12:09:15.002Z</time></trkpt><trkpt lat="44.93885098231736" lon="9.725267412630544"><ele>114.0</ele><time>2026-05-01T12:09:16.002Z</time></trkpt><trkpt lat="44.938816253942115" lon="9.725470433871235"><ele>114.0</ele><time>2026-05-01T12:09:17.002Z</time></trkpt><trkpt lat="44.938778963028845" lon="9.725667304911447"><ele>114.0</ele><time>2026-05-01T12:09:18.002Z</time></trkpt><trkpt lat="44.938751006649824" lon="9.725863414190789"><ele>114.0</ele><time>2026-05-01T12:09:19.002Z</time></trkpt><trkpt lat="44.93873071135534" lon="9.726056707006407"><ele>114.25</ele><time>2026-05-01T12:09:20.002Z</time></trkpt><trkpt lat="44.93870556141319" lon="9.726251071448477"><ele>114.5</ele><time>2026-05-01T12:09:21.002Z</time></trkpt><trkpt lat="44.93866875501067" lon="9.726437349274725"><ele>114.75</ele><time>2026-05-01T12:09:22.002Z</time></trkpt><trkpt lat="44.93865523311396" lon="9.726619428693576"><ele>115.0</ele><time>2026-05-01T12:09:23.002Z</time></trkpt><trkpt lat="44.93862820790428" lon="9.72679294752233"><ele>114.5</ele><time>2026-05-01T12:09:24.002Z</time></trkpt><trkpt lat="44.938607441720514" lon="9.726966511182116"><ele>114.0</ele><time>2026-05-01T12:09:25.002Z</time></trkpt><trkpt lat="44.93858960224128" lon="9.727145809346121"><ele>113.5</ele><time>2026-05-01T12:09:26.002Z</time></trkpt><trkpt lat="44.93857135531823" lon="9.727316441743241"><ele>113.0</ele><time>2026-05-01T12:09:27.002Z</time></trkpt><trkpt lat="44.9385501381013" lon="9.727491503250915"><ele>113.0</ele><time>2026-05-01T12:09:28.002Z</time></trkpt><trkpt lat="44.938528129143634" lon="9.727662684442612"><ele>113.0</ele><time>2026-05-01T12:09:29.002Z</time></trkpt><trkpt lat="44.93850927408728" lon="9.727832083643388"><ele>113.0</ele><time>2026-05-01T12:09:30Z</time></trkpt><trkpt lat="44.93848936594602" lon="9.728005902068853"><ele>113.0</ele><time>2026-05-01T12:09:31Z</time></trkpt><trkpt lat="44.938466654675075" lon="9.728180864201347"><ele>112.75</ele><time>2026-05-01T12:09:32Z</time></trkpt><trkpt lat="44.93844256217031" lon="9.728359614350927"><ele>112.5</ele><time>2026-05-01T12:09:33Z</time></trkpt><trkpt lat="44.93842131698165" lon="9.728544146333213"><ele>112.25</ele><time>2026-05-01T12:09:34Z</time></trkpt><trkpt lat="44.93840090485697" lon="9.728725292300656"><ele>112.0</ele><time>2026-05-01T12:09:35Z</time></trkpt><trkpt lat="44.938381824018165" lon="9.7288828270464"><ele>112.33333333333334</ele><time>2026-05-01T12:09:36Z</time></trkpt><trkpt lat="44.938363472665245" lon="9.72900540893561"><ele>112.66666666666667</ele><time>2026-05-01T12:09:37Z</time></trkpt><trkpt lat="44.93835807102636" lon="9.729116703032165"><ele>113.0</ele><time>2026-05-01T12:09:39Z</time></trkpt><trkpt lat="44.93837228699464" lon="9.72925834861876"><ele>113.33333333333334</ele><time>2026-05-01T12:09:43Z</time></trkpt><trkpt lat="44.93837242011449" lon="9.729365521743297"><ele>113.66666666666667</ele><time>2026-05-01T12:09:45Z</time></trkpt><trkpt lat="44.938368718542385" lon="9.729462762222596"><ele>114.0</ele><time>2026-05-01T12:09:47Z</time></trkpt><trkpt lat="44.938368857178254" lon="9.72956042283284"><ele>114.0</ele><time>2026-05-01T12:09:49Z</time></trkpt><trkpt lat="44.938370882120935" lon="9.729701755513064"><ele>114.0</ele><time>2026-05-01T12:09:52Z</time></trkpt><trkpt lat="44.938367122997754" lon="9.729801968182127"><ele>114.0</ele><time>2026-05-01T12:09:53Z</time></trkpt><trkpt lat="44.93836135662527" lon="9.72989338016129"><ele>114.0</ele><time>2026-05-01T12:09:54Z</time></trkpt><trkpt lat="44.938381449849466" lon="9.730038767277058"><ele>114.0</ele><time>2026-05-01T12:09:56Z</time></trkpt><trkpt lat="44.93835481077944" lon="9.729922780120623"><ele>114.0</ele><time>2026-05-01T12:10:21.001Z</time></trkpt><trkpt lat="44.93834695466166" lon="9.729814249651263"><ele>114.0</ele><time>2026-05-01T12:10:23.001Z</time></trkpt><trkpt lat="44.93836168310561" lon="9.729692516147857"><ele>114.0</ele><time>2026-05-01T12:10:26.001Z</time></trkpt><trkpt lat="44.937989279753246" lon="9.729678384433122"><ele>114.0</ele><time>2026-05-01T12:10:59.001Z</time></trkpt><trkpt lat="44.937908746466526" lon="9.729716310127635"><ele>114.0</ele><time>2026-05-01T12:11:02.001Z</time></trkpt><trkpt lat="44.93784192503288" lon="9.729720783687643"><ele>114.0</ele><time>2026-05-01T12:11:04.001Z</time></trkpt><trkpt lat="44.9377780829816" lon="9.72971814477208"><ele>114.0</ele><time>2026-05-01T12:11:06.001Z</time></trkpt><trkpt lat="44.93771030190369" lon="9.729711729348026"><ele>114.0</ele><time>2026-05-01T12:11:08.001Z</time></trkpt><trkpt lat="44.93763791911874" lon="9.729671272586497"><ele>114.0</ele><time>2026-05-01T12:11:10.001Z</time></trkpt><trkpt lat="44.93758813055246" lon="9.729829792254048"><ele>114.0</ele><time>2026-05-01T12:11:12.001Z</time></trkpt><trkpt lat="44.93756747719228" lon="9.729937818119991"><ele>114.0</ele><time>2026-05-01T12:11:14.001Z</time></trkpt><trkpt lat="44.937572918040075" lon="9.73002717340992"><ele>114.0</ele><time>2026-05-01T12:11:17.002Z</time></trkpt><trkpt lat="44.93772924460973" lon="9.730121513014826"><ele>114.0</ele><time>2026-05-01T12:11:19.002Z</time></trkpt><trkpt lat="44.93774508245654" lon="9.730247436988764"><ele>114.0</ele><time>2026-05-01T12:11:21.002Z</time></trkpt><trkpt lat="44.93774283349112" lon="9.730364614053409"><ele>113.80000000000001</ele><time>2026-05-01T12:11:23.002Z</time></trkpt><trkpt lat="44.937742385198916" lon="9.730523384851876"><ele>113.60000000000001</ele><time>2026-05-01T12:11:25.002Z</time></trkpt><trkpt lat="44.93774600538594" lon="9.730641414393496"><ele>113.4</ele><time>2026-05-01T12:11:26.002Z</time></trkpt><trkpt lat="44.93775018048265" lon="9.730759552309722"><ele>113.2</ele><time>2026-05-01T12:11:27.002Z</time></trkpt><trkpt lat="44.93775276427424" lon="9.730876267628004"><ele>113.0</ele><time>2026-05-01T12:11:28.002Z</time></trkpt><trkpt lat="44.937753886706275" lon="9.731011706615716"><ele>112.75</ele><time>2026-05-01T12:11:29.002Z</time></trkpt><trkpt lat="44.93775783965901" lon="9.731181675740446"><ele>112.5</ele><time>2026-05-01T12:11:30.002Z</time></trkpt><trkpt lat="44.93775710089166" lon="9.731354133495838"><ele>112.25</ele><time>2026-05-01T12:11:31.002Z</time></trkpt><trkpt lat="44.93775643640985" lon="9.731532049215245"><ele>112.0</ele><time>2026-05-01T12:11:32.002Z</time></trkpt><trkpt lat="44.937763368120045" lon="9.731671589136212"><ele>112.0</ele><time>2026-05-01T12:11:33.002Z</time></trkpt><trkpt lat="44.93776806089312" lon="9.73182727219552"><ele>111.99999999999999</ele><time>2026-05-01T12:11:34.002Z</time></trkpt><trkpt lat="44.93776992397239" lon="9.731994696602088"><ele>111.99999999999999</ele><time>2026-05-01T12:11:35.002Z</time></trkpt><trkpt lat="44.93777741048205" lon="9.73213687105418"><ele>112.0</ele><time>2026-05-01T12:11:36Z</time></trkpt><trkpt lat="44.93777724329931" lon="9.732285620091824"><ele>112.0</ele><time>2026-05-01T12:11:37Z</time></trkpt><trkpt lat="44.93778021353612" lon="9.732433611654015"><ele>111.83333333333334</ele><time>2026-05-01T12:11:38Z</time></trkpt><trkpt lat="44.93778240035356" lon="9.732556458418307"><ele>111.66666666666667</ele><time>2026-05-01T12:11:39Z</time></trkpt><trkpt lat="44.937789801726666" lon="9.732668808406181"><ele>111.5</ele><time>2026-05-01T12:11:40Z</time></trkpt><trkpt lat="44.937789320652534" lon="9.732768434823445"><ele>111.33333333333334</ele><time>2026-05-01T12:11:41Z</time></trkpt><trkpt lat="44.93775962051229" lon="9.732868345393397"><ele>111.16666666666667</ele><time>2026-05-01T12:11:44Z</time></trkpt><trkpt lat="44.937648777480995" lon="9.732879833342595"><ele>111.0</ele><time>2026-05-01T12:11:47Z</time></trkpt><trkpt lat="44.937525464767745" lon="9.732860980297394"><ele>111.0</ele><time>2026-05-01T12:11:49Z</time></trkpt><trkpt lat="44.93745692443101" lon="9.732864925665272"><ele>111.0</ele><time>2026-05-01T12:11:50Z</time></trkpt><trkpt lat="44.937379409467894" lon="9.732867837824067"><ele>111.0</ele><time>2026-05-01T12:11:51Z</time></trkpt><trkpt lat="44.93730984045481" lon="9.73287139681481"><ele>111.0</ele><time>2026-05-01T12:11:52Z</time></trkpt><trkpt lat="44.93724056720624" lon="9.732873139748271"><ele>111.0</ele><time>2026-05-01T12:11:53Z</time></trkpt><trkpt lat="44.9371753975642" lon="9.732869213510766"><ele>111.0</ele><time>2026-05-01T12:11:54Z</time></trkpt><trkpt lat="44.937111085338074" lon="9.732868648728303"><ele>111.0</ele><time>2026-05-01T12:11:55Z</time></trkpt><trkpt lat="44.936992430092474" lon="9.732872057832587"><ele>111.0</ele><time>2026-05-01T12:11:57Z</time></trkpt><trkpt lat="44.93688486440875" lon="9.732864644657253"><ele>111.0</ele><time>2026-05-01T12:11:59Z</time></trkpt><trkpt lat="44.93679541874647" lon="9.732852006320357"><ele>111.0</ele><time>2026-05-01T12:12:01Z</time></trkpt><trkpt lat="44.93670865567834" lon="9.732849811477813"><ele>111.0</ele><time>2026-05-01T12:12:03Z</time></trkpt><trkpt lat="44.936797461811615" lon="9.732879514209518"><ele>111.0</ele><time>2026-05-01T12:12:57.001Z</time></trkpt><trkpt lat="44.93691093988973" lon="9.732871246851186"><ele>111.0</ele><time>2026-05-01T12:12:58.001Z</time></trkpt><trkpt lat="44.937016298362046" lon="9.732860963675162"><ele>111.0</ele><time>2026-05-01T12:12:59.001Z</time></trkpt><trkpt lat="44.937117862392746" lon="9.732859253392279"><ele>111.0</ele><time>2026-05-01T12:13:00.001Z</time></trkpt><trkpt lat="44.93720011406737" lon="9.732863304546585"><ele>111.0</ele><time>2026-05-01T12:13:01.001Z</time></trkpt><trkpt lat="44.9372735648357" lon="9.732874073384345"><ele>111.0</ele><time>2026-05-01T12:13:02.001Z</time></trkpt><trkpt lat="44.937361222564384" lon="9.732864531032737"><ele>111.0</ele><time>2026-05-01T12:13:03.001Z</time></trkpt><trkpt lat="44.937447182783586" lon="9.732865568290219"><ele>111.0</ele><time>2026-05-01T12:13:04.001Z</time></trkpt><trkpt lat="44.937536147384705" lon="9.732873556562271"><ele>111.0</ele><time>2026-05-01T12:13:05.001Z</time></trkpt><trkpt lat="44.93760185084947" lon="9.732875493571349"><ele>111.0</ele><time>2026-05-01T12:13:06.001Z</time></trkpt><trkpt lat="44.9377094091222" lon="9.73287049267836"><ele>111.0</ele><time>2026-05-01T12:13:08.001Z</time></trkpt><trkpt lat="44.937789258967186" lon="9.73284847943301"><ele>111.0</ele><time>2026-05-01T12:13:10.001Z</time></trkpt><trkpt lat="44.93779630388494" lon="9.732723376780182"><ele>111.0</ele><time>2026-05-01T12:13:13.001Z</time></trkpt><trkpt lat="44.93778646011339" lon="9.73263492626697"><ele>111.0</ele><time>2026-05-01T12:13:14.001Z</time></trkpt><trkpt lat="44.93777747244927" lon="9.732535408786415"><ele>111.0</ele><time>2026-05-01T12:13:15.001Z</time></trkpt><trkpt lat="44.93776751391547" lon="9.73241777016202"><ele>111.0</ele><time>2026-05-01T12:13:16.001Z</time></trkpt><trkpt lat="44.937764459032" lon="9.732292495321603"><ele>111.0</ele><time>2026-05-01T12:13:17.001Z</time></trkpt><trkpt lat="44.93776315129483" lon="9.732155128346646"><ele>111.0</ele><time>2026-05-01T12:13:18.001Z</time></trkpt><trkpt lat="44.93776293282985" lon="9.732009121906373"><ele>111.19999999999999</ele><time>2026-05-01T12:13:19.001Z</time></trkpt><trkpt lat="44.93776050971838" lon="9.731873124891445"><ele>111.39999999999999</ele><time>2026-05-01T12:13:20.001Z</time></trkpt><trkpt lat="44.93775583065929" lon="9.731737909532997"><ele>111.6</ele><time>2026-05-01T12:13:21.001Z</time></trkpt><trkpt lat="44.937757421264955" lon="9.731587360490835"><ele>111.8</ele><time>2026-05-01T12:13:22.001Z</time></trkpt><trkpt lat="44.937754595945975" lon="9.73146381879404"><ele>112.0</ele><time>2026-05-01T12:13:23.001Z</time></trkpt><trkpt lat="44.937748019698496" lon="9.731336569088276"><ele>112.00000000000001</ele><time>2026-05-01T12:13:24.001Z</time></trkpt><trkpt lat="44.93774565113306" lon="9.73124068622073"><ele>112.0</ele><time>2026-05-01T12:13:25.001Z</time></trkpt><trkpt lat="44.93774298197703" lon="9.731142088789973"><ele>112.0</ele><time>2026-05-01T12:13:26.001Z</time></trkpt><trkpt lat="44.93774296884328" lon="9.7310300234434"><ele>112.0</ele><time>2026-05-01T12:13:27.001Z</time></trkpt><trkpt lat="44.93774385685908" lon="9.730910748655134"><ele>112.00000000000001</ele><time>2026-05-01T12:13:28.001Z</time></trkpt><trkpt lat="44.937740070346784" lon="9.730796382398484"><ele>112.0</ele><time>2026-05-01T12:13:29.001Z</time></trkpt><trkpt lat="44.93773737382971" lon="9.730678779751432"><ele>112.16666666666667</ele><time>2026-05-01T12:13:30.001Z</time></trkpt><trkpt lat="44.937737606012945" lon="9.730557646702577"><ele>112.33333333333334</ele><time>2026-05-01T12:13:31.001Z</time></trkpt><trkpt lat="44.93773863770253" lon="9.730431031009998"><ele>112.5</ele><time>2026-05-01T12:13:32.001Z</time></trkpt><trkpt lat="44.93773561365761" lon="9.73032405162458"><ele>112.66666666666666</ele><time>2026-05-01T12:13:33.001Z</time></trkpt><trkpt lat="44.93773025857758" lon="9.730231150628757"><ele>112.83333333333333</ele><time>2026-05-01T12:13:34.001Z</time></trkpt><trkpt lat="44.93772464200115" lon="9.730129766117239"><ele>113.0</ele><time>2026-05-01T12:13:35.001Z</time></trkpt><trkpt lat="44.93767175607548" lon="9.729995807487501"><ele>113.25</ele><time>2026-05-01T12:13:37.002Z</time></trkpt><trkpt lat="44.93759789541562" lon="9.729888827553552"><ele>113.5</ele><time>2026-05-01T12:13:39.002Z</time></trkpt><trkpt lat="44.93759648876671" lon="9.729747515295255"><ele>113.75</ele><time>2026-05-01T12:13:41.002Z</time></trkpt><trkpt lat="44.93767399690934" lon="9.729711356742119"><ele>114.0</ele><time>2026-05-01T12:13:42Z</time></trkpt><trkpt lat="44.93788721942022" lon="9.72972756184139"><ele>114.0</ele><time>2026-05-01T12:13:46Z</time></trkpt><trkpt lat="44.937953012801394" lon="9.729728664463975"><ele>113.99999999999999</ele><time>2026-05-01T12:13:47Z</time></trkpt><trkpt lat="44.938018105039596" lon="9.729704889552332"><ele>114.0</ele><time>2026-05-01T12:13:48Z</time></trkpt><trkpt lat="44.93808484292942" lon="9.729665724990623"><ele>114.0</ele><time>2026-05-01T12:13:49Z</time></trkpt><trkpt lat="44.93815889383324" lon="9.729628020494106"><ele>113.99999999999999</ele><time>2026-05-01T12:13:50Z</time></trkpt><trkpt lat="44.938235989265415" lon="9.729596452411599"><ele>114.0</ele><time>2026-05-01T12:13:51Z</time></trkpt><trkpt lat="44.938304998358774" lon="9.729556467746082"><ele>114.0</ele><time>2026-05-01T12:13:52Z</time></trkpt><trkpt lat="44.93835713017352" lon="9.729500879308741"><ele>113.6</ele><time>2026-05-01T12:13:53Z</time></trkpt><trkpt lat="44.938391167181145" lon="9.729421481380603"><ele>113.2</ele><time>2026-05-01T12:13:54Z</time></trkpt><trkpt lat="44.938407852094514" lon="9.729249426206273"><ele>112.79999999999998</ele><time>2026-05-01T12:13:56Z</time></trkpt><trkpt lat="44.93849351532224" lon="9.729200043000404"><ele>112.39999999999999</ele><time>2026-05-01T12:13:58Z</time></trkpt><trkpt lat="44.938560991351885" lon="9.729227349905512"><ele>112.0</ele><time>2026-05-01T12:13:59Z</time></trkpt><trkpt lat="44.93865254908974" lon="9.729280396957213"><ele>112.0</ele><time>2026-05-01T12:14:00Z</time></trkpt><trkpt lat="44.93876354224477" lon="9.729340601194869"><ele>112.0</ele><time>2026-05-01T12:14:01Z</time></trkpt><trkpt lat="44.938887306947265" lon="9.72940615463703"><ele>112.0</ele><time>2026-05-01T12:14:02Z</time></trkpt><trkpt lat="44.93902170745272" lon="9.729477406661998"><ele>112.0</ele><time>2026-05-01T12:14:03Z</time></trkpt><trkpt lat="44.9391685917166" lon="9.729553115934845"><ele>112.0</ele><time>2026-05-01T12:14:04Z</time></trkpt><trkpt lat="44.93932295649216" lon="9.729630845360292"><ele>112.0</ele><time>2026-05-01T12:14:05Z</time></trkpt><trkpt lat="44.93948929642828" lon="9.729713088386987"><ele>112.0</ele><time>2026-05-01T12:14:06Z</time></trkpt><trkpt lat="44.939663001196024" lon="9.72979479393172"><ele>112.0</ele><time>2026-05-01T12:14:07Z</time></trkpt><trkpt lat="44.93982193671492" lon="9.729870974554638"><ele>112.0</ele><time>2026-05-01T12:14:08Z</time></trkpt><trkpt lat="44.93996504237435" lon="9.729946205052903"><ele>112.0</ele><time>2026-05-01T12:14:09Z</time></trkpt><trkpt lat="44.94010999891838" lon="9.730022238068303"><ele>112.0</ele><time>2026-05-01T12:14:10Z</time></trkpt><trkpt lat="44.94025414018767" lon="9.73009426125853"><ele>112.0</ele><time>2026-05-01T12:14:11Z</time></trkpt><trkpt lat="44.94040174269917" lon="9.730168657161343"><ele>112.0</ele><time>2026-05-01T12:14:12Z</time></trkpt><trkpt lat="44.94055057716188" lon="9.730247055276429"><ele>112.0</ele><time>2026-05-01T12:14:13Z</time></trkpt><trkpt lat="44.9406981947752" lon="9.73032048837065"><ele>112.0</ele><time>2026-05-01T12:14:14Z</time></trkpt><trkpt lat="44.940845455103116" lon="9.730392603226676"><ele>112.0</ele><time>2026-05-01T12:14:15Z</time></trkpt><trkpt lat="44.940994279888244" lon="9.730467969015658"><ele>112.0</ele><time>2026-05-01T12:14:16Z</time></trkpt><trkpt lat="44.941132851909074" lon="9.730537832805284"><ele>112.0</ele><time>2026-05-01T12:14:17Z</time></trkpt><trkpt lat="44.94126308164815" lon="9.730599852975297"><ele>112.0</ele><time>2026-05-01T12:14:18Z</time></trkpt><trkpt lat="44.941375649352665" lon="9.730656465591235"><ele>112.0</ele><time>2026-05-01T12:14:19Z</time></trkpt><trkpt lat="44.941458289507146" lon="9.73069887277828"><ele>112.0</ele><time>2026-05-01T12:14:20Z</time></trkpt><trkpt lat="44.94152733272634" lon="9.730761766967332"><ele>112.0</ele><time>2026-05-01T12:14:22Z</time></trkpt><trkpt lat="44.941432501295346" lon="9.730946062484534"><ele>112.0</ele><time>2026-05-01T12:14:26Z</time></trkpt><trkpt lat="44.941330762690534" lon="9.731030925546364"><ele>112.0</ele><time>2026-05-01T12:14:28Z</time></trkpt><trkpt lat="44.94120453843682" lon="9.731064833385462"><ele>112.0</ele><time>2026-05-01T12:14:30Z</time></trkpt><trkpt lat="44.94113269485415" lon="9.731126249366897"><ele>111.99999999999999</ele><time>2026-05-01T12:14:31Z</time></trkpt><trkpt lat="44.94105570966037" lon="9.731183533931052"><ele>111.99999999999999</ele><time>2026-05-01T12:14:32Z</time></trkpt><trkpt lat="44.94097273327332" lon="9.731244529791086"><ele>112.0</ele><time>2026-05-01T12:14:33Z</time></trkpt><trkpt lat="44.940890747683056" lon="9.731324325472272"><ele>112.0</ele><time>2026-05-01T12:14:34Z</time></trkpt><trkpt lat="44.940803026583986" lon="9.731402630912765"><ele>112.0</ele><time>2026-05-01T12:14:35Z</time></trkpt><trkpt lat="44.940726229370846" lon="9.731469344984042"><ele>111.99999999999999</ele><time>2026-05-01T12:14:36Z</time></trkpt><trkpt lat="44.940646090917674" lon="9.731520031018643"><ele>111.99999999999999</ele><time>2026-05-01T12:14:37.001Z</time></trkpt><trkpt lat="44.940567198802356" lon="9.731590494109513"><ele>112.0</ele><time>2026-05-01T12:14:38.001Z</time></trkpt><trkpt lat="44.94049331297749" lon="9.73165731246152"><ele>112.0</ele><time>2026-05-01T12:14:39.001Z</time></trkpt><trkpt lat="44.940416672309446" lon="9.731726623357753"><ele>112.0</ele><time>2026-05-01T12:14:40.001Z</time></trkpt><trkpt lat="44.94034006666118" lon="9.731824328916405"><ele>111.99999999999999</ele><time>2026-05-01T12:14:41.001Z</time></trkpt><trkpt lat="44.94024624425009" lon="9.731911321096197"><ele>111.99999999999999</ele><time>2026-05-01T12:14:42.001Z</time></trkpt><trkpt lat="44.940152108351576" lon="9.73199259794178"><ele>112.0</ele><time>2026-05-01T12:14:43.001Z</time></trkpt><trkpt lat="44.94005557573252" lon="9.732086941120853"><ele>112.0</ele><time>2026-05-01T12:14:44.001Z</time></trkpt><trkpt lat="44.93995911521493" lon="9.732181891448578"><ele>111.6</ele><time>2026-05-01T12:14:45.001Z</time></trkpt><trkpt lat="44.93986081372746" lon="9.732280922381126"><ele>111.19999999999999</ele><time>2026-05-01T12:14:46.001Z</time></trkpt><trkpt lat="44.93976973372068" lon="9.73236896749574"><ele>110.8</ele><time>2026-05-01T12:14:47.001Z</time></trkpt><trkpt lat="44.939686604738576" lon="9.732448555489574"><ele>110.4</ele><time>2026-05-01T12:14:48.001Z</time></trkpt><trkpt lat="44.93960432094856" lon="9.732523266273335"><ele>110.0</ele><time>2026-05-01T12:14:49.001Z</time></trkpt><trkpt lat="44.939513187958084" lon="9.732602376941736"><ele>110.0</ele><time>2026-05-01T12:14:50.001Z</time></trkpt><trkpt lat="44.93941503840016" lon="9.73269548780261"><ele>110.0</ele><time>2026-05-01T12:14:51.001Z</time></trkpt><trkpt lat="44.93932200908262" lon="9.732788767564347"><ele>110.0</ele><time>2026-05-01T12:14:52.001Z</time></trkpt><trkpt lat="44.939224671832164" lon="9.7328877285639"><ele>110.0</ele><time>2026-05-01T12:14:53.001Z</time></trkpt><trkpt lat="44.939114793590996" lon="9.732995917198181"><ele>110.25</ele><time>2026-05-01T12:14:54.001Z</time></trkpt><trkpt lat="44.939005369787054" lon="9.733107376923792"><ele>110.5</ele><time>2026-05-01T12:14:55.001Z</time></trkpt><trkpt lat="44.9388969542309" lon="9.733215262685782"><ele>110.75</ele><time>2026-05-01T12:14:56.001Z</time></trkpt><trkpt lat="44.93878149809434" lon="9.733319305161858"><ele>111.0</ele><time>2026-05-01T12:14:57.001Z</time></trkpt><trkpt lat="44.938664793064525" lon="9.73342565666041"><ele>111.0</ele><time>2026-05-01T12:14:58.001Z</time></trkpt><trkpt lat="44.938548387420035" lon="9.733542207630217"><ele>111.0</ele><time>2026-05-01T12:14:59.001Z</time></trkpt><trkpt lat="44.93841079005837" lon="9.733665413167492"><ele>111.0</ele><time>2026-05-01T12:15:00.001Z</time></trkpt><trkpt lat="44.938254650189066" lon="9.733796054733428"><ele>110.66666666666666</ele><time>2026-05-01T12:15:01.001Z</time></trkpt><trkpt lat="44.938068676424514" lon="9.733961744063283"><ele>110.33333333333333</ele><time>2026-05-01T12:15:02.001Z</time></trkpt><trkpt lat="44.9378870886828" lon="9.734156064545832"><ele>110.0</ele><time>2026-05-01T12:15:03.001Z</time></trkpt><trkpt lat="44.937732796862015" lon="9.734301212781501"><ele>110.33333333333333</ele><time>2026-05-01T12:15:04.001Z</time></trkpt><trkpt lat="44.93759685634769" lon="9.734399500398109"><ele>110.66666666666666</ele><time>2026-05-01T12:15:05.001Z</time></trkpt><trkpt lat="44.9374520463441" lon="9.734549423388824"><ele>111.0</ele><time>2026-05-01T12:15:06.001Z</time></trkpt><trkpt lat="44.937314293440515" lon="9.734646644343794"><ele>111.0</ele><time>2026-05-01T12:15:07.001Z</time></trkpt><trkpt lat="44.93717727915075" lon="9.734787427130609"><ele>111.0</ele><time>2026-05-01T12:15:08.001Z</time></trkpt><trkpt lat="44.937037258643606" lon="9.734905162519977"><ele>111.0</ele><time>2026-05-01T12:15:09.001Z</time></trkpt><trkpt lat="44.93690338628929" lon="9.73503676531971"><ele>111.0</ele><time>2026-05-01T12:15:10.001Z</time></trkpt><trkpt lat="44.93678639056885" lon="9.735167365469326"><ele>111.0</ele><time>2026-05-01T12:15:11.001Z</time></trkpt><trkpt lat="44.936678414112016" lon="9.735301807071572"><ele>111.0</ele><time>2026-05-01T12:15:12.001Z</time></trkpt><trkpt lat="44.93655972121694" lon="9.73545482070028"><ele>111.0</ele><time>2026-05-01T12:15:13.001Z</time></trkpt><trkpt lat="44.93646608233014" lon="9.735573899921182"><ele>111.0</ele><time>2026-05-01T12:15:14.001Z</time></trkpt><trkpt lat="44.93637070553967" lon="9.735687043601931"><ele>111.0</ele><time>2026-05-01T12:15:15.001Z</time></trkpt><trkpt lat="44.93628471137048" lon="9.735732425797712"><ele>111.0</ele><time>2026-05-01T12:15:16.001Z</time></trkpt><trkpt lat="44.93619193331975" lon="9.735769344527945"><ele>111.0</ele><time>2026-05-01T12:15:17.001Z</time></trkpt><trkpt lat="44.93606761319566" lon="9.73580921143876"><ele>111.0</ele><time>2026-05-01T12:15:18.001Z</time></trkpt><trkpt lat="44.93595459353094" lon="9.735828440607628"><ele>111.0</ele><time>2026-05-01T12:15:19.001Z</time></trkpt><trkpt lat="44.93581445076826" lon="9.735865645033062"><ele>111.0</ele><time>2026-05-01T12:15:20.001Z</time></trkpt><trkpt lat="44.93568536765576" lon="9.735920573749546"><ele>111.0</ele><time>2026-05-01T12:15:21.001Z</time></trkpt><trkpt lat="44.93552022288017" lon="9.735985217194294"><ele>111.25</ele><time>2026-05-01T12:15:22.001Z</time></trkpt><trkpt lat="44.93537135834447" lon="9.736037832147609"><ele>111.5</ele><time>2026-05-01T12:15:23.001Z</time></trkpt><trkpt lat="44.935242295629365" lon="9.736098553268448"><ele>111.75</ele><time>2026-05-01T12:15:24.001Z</time></trkpt><trkpt lat="44.93512032356879" lon="9.736146352492646"><ele>112.0</ele><time>2026-05-01T12:15:25.001Z</time></trkpt><trkpt lat="44.93498714151086" lon="9.736193386102128"><ele>112.0</ele><time>2026-05-01T12:15:26.001Z</time></trkpt><trkpt lat="44.93485287953802" lon="9.73621215094488"><ele>112.0</ele><time>2026-05-01T12:15:27.001Z</time></trkpt><trkpt lat="44.93471782525999" lon="9.736278771683084"><ele>112.0</ele><time>2026-05-01T12:15:28.001Z</time></trkpt><trkpt lat="44.93458044802781" lon="9.736326394990261"><ele>112.0</ele><time>2026-05-01T12:15:29.001Z</time></trkpt><trkpt lat="44.934445492845214" lon="9.73635830294956"><ele>112.0</ele><time>2026-05-01T12:15:30.001Z</time></trkpt><trkpt lat="44.93431359846487" lon="9.736405196007897"><ele>112.0</ele><time>2026-05-01T12:15:31.001Z</time></trkpt><trkpt lat="44.93420258802695" lon="9.73644379944467"><ele>112.0</ele><time>2026-05-01T12:15:32.001Z</time></trkpt><trkpt lat="44.93408663533322" lon="9.736507211142527"><ele>112.0</ele><time>2026-05-01T12:15:33.001Z</time></trkpt><trkpt lat="44.93397551157881" lon="9.736519928194127"><ele>112.0</ele><time>2026-05-01T12:15:34.001Z</time></trkpt><trkpt lat="44.93386796365715" lon="9.73655224616972"><ele>111.99999999999999</ele><time>2026-05-01T12:15:35.001Z</time></trkpt><trkpt lat="44.93376820665956" lon="9.736580988292083"><ele>111.99999999999999</ele><time>2026-05-01T12:15:36.001Z</time></trkpt><trkpt lat="44.93366777049217" lon="9.736631854141338"><ele>112.0</ele><time>2026-05-01T12:15:37.001Z</time></trkpt><trkpt lat="44.93357155958122" lon="9.736655783580145"><ele>112.0</ele><time>2026-05-01T12:15:38.002Z</time></trkpt><trkpt lat="44.93346800459324" lon="9.736682444704881"><ele>112.0</ele><time>2026-05-01T12:15:39.002Z</time></trkpt><trkpt lat="44.933367102285956" lon="9.736709978039578"><ele>111.99999999999999</ele><time>2026-05-01T12:15:40.002Z</time></trkpt><trkpt lat="44.93326976102246" lon="9.736739852548295"><ele>111.99999999999999</ele><time>2026-05-01T12:15:41.002Z</time></trkpt><trkpt lat="44.9331655528691" lon="9.736733067299928"><ele>112.0</ele><time>2026-05-01T12:15:42.002Z</time></trkpt><trkpt lat="44.93306364987454" lon="9.736754877846625"><ele>112.0</ele><time>2026-05-01T12:15:43.002Z</time></trkpt><trkpt lat="44.93296628384287" lon="9.736817367212884"><ele>112.0</ele><time>2026-05-01T12:15:44.002Z</time></trkpt><trkpt lat="44.93286398417746" lon="9.736859125638992"><ele>112.0</ele><time>2026-05-01T12:15:45.002Z</time></trkpt><trkpt lat="44.93275505997589" lon="9.736908475916417"><ele>112.0</ele><time>2026-05-01T12:15:46.002Z</time></trkpt><trkpt lat="44.93264569498297" lon="9.736962067163907"><ele>112.0</ele><time>2026-05-01T12:15:47.002Z</time></trkpt><trkpt lat="44.932527542638425" lon="9.737014167911234"><ele>112.0</ele><time>2026-05-01T12:15:47.999Z</time></trkpt><trkpt lat="44.932398118705684" lon="9.737061121677229"><ele>112.0</ele><time>2026-05-01T12:15:48.999Z</time></trkpt><trkpt lat="44.93226602547172" lon="9.737118946131632"><ele>112.0</ele><time>2026-05-01T12:15:49.999Z</time></trkpt><trkpt lat="44.932134999997544" lon="9.737165807548994"><ele>112.0</ele><time>2026-05-01T12:15:50.999Z</time></trkpt><trkpt lat="44.932015813988514" lon="9.737181024736419"><ele>112.0</ele><time>2026-05-01T12:15:51.999Z</time></trkpt><trkpt lat="44.931920753067864" lon="9.737234965910702"><ele>111.99999999999999</ele><time>2026-05-01T12:15:52.999Z</time></trkpt><trkpt lat="44.93185032828909" lon="9.737308837986141"><ele>111.99999999999999</ele><time>2026-05-01T12:15:53.999Z</time></trkpt><trkpt lat="44.931834210329725" lon="9.737466790954516"><ele>112.0</ele><time>2026-05-01T12:15:54.999Z</time></trkpt><trkpt lat="44.93180912531993" lon="9.737597349994724"><ele>112.0</ele><time>2026-05-01T12:15:56Z</time></trkpt><trkpt lat="44.93176134583463" lon="9.737717547004694"><ele>111.75</ele><time>2026-05-01T12:15:57Z</time></trkpt><trkpt lat="44.93181151143154" lon="9.737892713161445"><ele>111.5</ele><time>2026-05-01T12:15:58Z</time></trkpt><trkpt lat="44.931745829034305" lon="9.738038834941772"><ele>111.25</ele><time>2026-05-01T12:15:59Z</time></trkpt><trkpt lat="44.93168342132062" lon="9.73820920450988"><ele>111.0</ele><time>2026-05-01T12:16:00Z</time></trkpt><trkpt lat="44.93163216563141" lon="9.73839583258363"><ele>111.33333333333334</ele><time>2026-05-01T12:16:01Z</time></trkpt><trkpt lat="44.93155920314433" lon="9.738574015719175"><ele>111.66666666666667</ele><time>2026-05-01T12:16:02Z</time></trkpt><trkpt lat="44.9314905214315" lon="9.738764265149186"><ele>112.0</ele><time>2026-05-01T12:16:03Z</time></trkpt><trkpt lat="44.93139655098479" lon="9.73894299918797"><ele>112.0</ele><time>2026-05-01T12:16:04Z</time></trkpt><trkpt lat="44.9313012826305" lon="9.739115617713102"><ele>112.0</ele><time>2026-05-01T12:16:05Z</time></trkpt><trkpt lat="44.931197930993044" lon="9.739294108080417"><ele>112.0</ele><time>2026-05-01T12:16:06Z</time></trkpt><trkpt lat="44.931110367100125" lon="9.739475796513636"><ele>112.0</ele><time>2026-05-01T12:16:07Z</time></trkpt><trkpt lat="44.93100537811345" lon="9.73961644916028"><ele>112.0</ele><time>2026-05-01T12:16:08Z</time></trkpt><trkpt lat="44.93091302860638" lon="9.73977023363931"><ele>112.0</ele><time>2026-05-01T12:16:09Z</time></trkpt><trkpt lat="44.930821737264345" lon="9.739921677242178"><ele>112.0</ele><time>2026-05-01T12:16:10Z</time></trkpt><trkpt lat="44.93072908248098" lon="9.740073519604731"><ele>112.0</ele><time>2026-05-01T12:16:11Z</time></trkpt><trkpt lat="44.93064332899325" lon="9.740214052397869"><ele>112.0</ele><time>2026-05-01T12:16:12Z</time></trkpt><trkpt lat="44.930561579791906" lon="9.74034802299965"><ele>112.0</ele><time>2026-05-01T12:16:13Z</time></trkpt><trkpt lat="44.930493320688825" lon="9.740495327009228"><ele>112.0</ele><time>2026-05-01T12:16:14Z</time></trkpt><trkpt lat="44.93042448693997" lon="9.740610482504842"><ele>112.0</ele><time>2026-05-01T12:16:15Z</time></trkpt><trkpt lat="44.9303560833486" lon="9.74072436145781"><ele>111.99999999999999</ele><time>2026-05-01T12:16:16Z</time></trkpt><trkpt lat="44.930310360256705" lon="9.740818152220438"><ele>111.99999999999999</ele><time>2026-05-01T12:16:17Z</time></trkpt><trkpt lat="44.93026486857632" lon="9.740898467047664"><ele>112.0</ele><time>2026-05-01T12:16:18Z</time></trkpt><trkpt lat="44.93019373658497" lon="9.741023808734669"><ele>112.0</ele><time>2026-05-01T12:16:20Z</time></trkpt><trkpt lat="44.930135420493635" lon="9.741140326689118"><ele>112.00000000000001</ele><time>2026-05-01T12:16:22Z</time></trkpt><trkpt lat="44.93010992992789" lon="9.741223694088438"><ele>112.0</ele><time>2026-05-01T12:16:24Z</time></trkpt><trkpt lat="44.930068154786476" lon="9.741365040094127"><ele>112.0</ele><time>2026-05-01T12:16:26Z</time></trkpt><trkpt lat="44.93004661800757" lon="9.74146086978556"><ele>112.0</ele><time>2026-05-01T12:16:27Z</time></trkpt><trkpt lat="44.93003438820981" lon="9.741556078905079"><ele>112.00000000000001</ele><time>2026-05-01T12:16:28Z</time></trkpt><trkpt lat="44.93003871963764" lon="9.741678677640458"><ele>112.0</ele><time>2026-05-01T12:16:29Z</time></trkpt><trkpt lat="44.9300746705864" lon="9.741789475827082"><ele>112.0</ele><time>2026-05-01T12:16:30Z</time></trkpt><trkpt lat="44.93013902274967" lon="9.741906188181742"><ele>111.99999999999999</ele><time>2026-05-01T12:16:31Z</time></trkpt><trkpt lat="44.930188159874206" lon="9.742005780845876"><ele>111.99999999999999</ele><time>2026-05-01T12:16:32Z</time></trkpt><trkpt lat="44.930190447370016" lon="9.74211992772517"><ele>112.0</ele><time>2026-05-01T12:16:33Z</time></trkpt><trkpt lat="44.930126856947425" lon="9.742217021439727"><ele>112.0</ele><time>2026-05-01T12:16:34Z</time></trkpt><trkpt lat="44.93004369941265" lon="9.742283744360636"><ele>112.33333333333334</ele><time>2026-05-01T12:16:35Z</time></trkpt><trkpt lat="44.92994342004258" lon="9.74236847864953"><ele>112.66666666666666</ele><time>2026-05-01T12:16:36Z</time></trkpt><trkpt lat="44.929812265230055" lon="9.742457398801166"><ele>113.0</ele><time>2026-05-01T12:16:37Z</time></trkpt><trkpt lat="44.92965479518752" lon="9.742608163728514"><ele>112.66666666666666</ele><time>2026-05-01T12:16:38Z</time></trkpt><trkpt lat="44.92950835872668" lon="9.742810858376847"><ele>112.33333333333334</ele><time>2026-05-01T12:16:39Z</time></trkpt><trkpt lat="44.92938162780212" lon="9.742998978404302"><ele>112.0</ele><time>2026-05-01T12:16:40Z</time></trkpt><trkpt lat="44.92925055686697" lon="9.743142675341087"><ele>112.0</ele><time>2026-05-01T12:16:41Z</time></trkpt><trkpt lat="44.929127398015595" lon="9.743307115842148"><ele>112.0</ele><time>2026-05-01T12:16:42Z</time></trkpt><trkpt lat="44.929006610947084" lon="9.743468389477242"><ele>112.0</ele><time>2026-05-01T12:16:43.001Z</time></trkpt><trkpt lat="44.9288794390163" lon="9.743644053028719"><ele>112.0</ele><time>2026-05-01T12:16:44.001Z</time></trkpt><trkpt lat="44.928756802663344" lon="9.743816648678745"><ele>112.0</ele><time>2026-05-01T12:16:45.001Z</time></trkpt><trkpt lat="44.928629047107975" lon="9.744000386168016"><ele>112.0</ele><time>2026-05-01T12:16:46.001Z</time></trkpt><trkpt lat="44.928517460702636" lon="9.744201071072013"><ele>111.0</ele><time>2026-05-01T12:16:47.001Z</time></trkpt><trkpt lat="44.92843647821541" lon="9.74445558080713"><ele>110.0</ele><time>2026-05-01T12:16:48.001Z</time></trkpt><trkpt lat="44.92836087124433" lon="9.74471020013715"><ele>109.0</ele><time>2026-05-01T12:16:49.001Z</time></trkpt><trkpt lat="44.92830461653426" lon="9.744947324022851"><ele>109.0</ele><time>2026-05-01T12:16:50.001Z</time></trkpt><trkpt lat="44.92823917727143" lon="9.745139961882247"><ele>109.0</ele><time>2026-05-01T12:16:51.001Z</time></trkpt><trkpt lat="44.92818873836035" lon="9.745284978699537"><ele>109.0</ele><time>2026-05-01T12:16:52.001Z</time></trkpt><trkpt lat="44.92814041823977" lon="9.745359271951633"><ele>109.0</ele><time>2026-05-01T12:16:53.001Z</time></trkpt><trkpt lat="44.92801246405539" lon="9.745326727374236"><ele>109.0</ele><time>2026-05-01T12:16:55.001Z</time></trkpt><trkpt lat="44.9279167907608" lon="9.745279949668555"><ele>109.0</ele><time>2026-05-01T12:16:56.001Z</time></trkpt><trkpt lat="44.92779699224267" lon="9.745248934776404"><ele>109.0</ele><time>2026-05-01T12:16:57.001Z</time></trkpt><trkpt lat="44.92768144680512" lon="9.74517701345158"><ele>109.0</ele><time>2026-05-01T12:16:58.001Z</time></trkpt><trkpt lat="44.927566991292295" lon="9.745132520706205"><ele>109.4</ele><time>2026-05-01T12:16:59.001Z</time></trkpt><trkpt lat="44.927463194988796" lon="9.745097092528042"><ele>109.80000000000001</ele><time>2026-05-01T12:17:00.001Z</time></trkpt><trkpt lat="44.92737241526706" lon="9.745076174808382"><ele>110.19999999999999</ele><time>2026-05-01T12:17:01.001Z</time></trkpt><trkpt lat="44.927286453389726" lon="9.745108288241813"><ele>110.6</ele><time>2026-05-01T12:17:02.001Z</time></trkpt><trkpt lat="44.92722204011575" lon="9.745173135736437"><ele>111.0</ele><time>2026-05-01T12:17:03.001Z</time></trkpt><trkpt lat="44.927195844458176" lon="9.745311097174072"><ele>111.0</ele><time>2026-05-01T12:17:04.001Z</time></trkpt><trkpt lat="44.92722689831584" lon="9.745484716666025"><ele>111.0</ele><time>2026-05-01T12:17:05.001Z</time></trkpt><trkpt lat="44.92724888068892" lon="9.745681022561433"><ele>111.0</ele><time>2026-05-01T12:17:06.001Z</time></trkpt><trkpt lat="44.927244288509414" lon="9.74587180026296"><ele>111.0</ele><time>2026-05-01T12:17:07.001Z</time></trkpt><trkpt lat="44.92724584682364" lon="9.74608406320766"><ele>111.33333333333334</ele><time>2026-05-01T12:17:08.001Z</time></trkpt><trkpt lat="44.927237490092686" lon="9.746298221963377"><ele>111.66666666666667</ele><time>2026-05-01T12:17:09.001Z</time></trkpt><trkpt lat="44.92722137986972" lon="9.746522700498154"><ele>112.0</ele><time>2026-05-01T12:17:10.001Z</time></trkpt><trkpt lat="44.92720155378273" lon="9.746748319404496"><ele>111.0</ele><time>2026-05-01T12:17:11.001Z</time></trkpt><trkpt lat="44.92718084705905" lon="9.746978670356514"><ele>110.0</ele><time>2026-05-01T12:17:12.001Z</time></trkpt><trkpt lat="44.92715926260114" lon="9.747218784813837"><ele>109.0</ele><time>2026-05-01T12:17:13.001Z</time></trkpt><trkpt lat="44.92714012353851" lon="9.747462206518492"><ele>109.0</ele><time>2026-05-01T12:17:14.001Z</time></trkpt><trkpt lat="44.927123417427154" lon="9.747686264975265"><ele>109.0</ele><time>2026-05-01T12:17:15.001Z</time></trkpt><trkpt lat="44.92710747737455" lon="9.747888958936633"><ele>109.0</ele><time>2026-05-01T12:17:16.001Z</time></trkpt><trkpt lat="44.927091071908805" lon="9.748073887500688"><ele>109.0</ele><time>2026-05-01T12:17:17.001Z</time></trkpt><trkpt lat="44.92707262327782" lon="9.748266161026836"><ele>109.0</ele><time>2026-05-01T12:17:18.001Z</time></trkpt><trkpt lat="44.92704988957751" lon="9.748466538577455"><ele>109.0</ele><time>2026-05-01T12:17:19.001Z</time></trkpt><trkpt lat="44.92702240113377" lon="9.748670287528084"><ele>109.0</ele><time>2026-05-01T12:17:20.001Z</time></trkpt><trkpt lat="44.926992638329374" lon="9.748880802677835"><ele>109.0</ele><time>2026-05-01T12:17:21.001Z</time></trkpt><trkpt lat="44.92696032672835" lon="9.749094043620138"><ele>109.0</ele><time>2026-05-01T12:17:22.001Z</time></trkpt><trkpt lat="44.92692700630247" lon="9.749307703539813"><ele>109.0</ele><time>2026-05-01T12:17:23.001Z</time></trkpt><trkpt lat="44.926892674795056" lon="9.749534243761445"><ele>109.0</ele><time>2026-05-01T12:17:24.001Z</time></trkpt><trkpt lat="44.926859017756954" lon="9.749737609849527"><ele>108.75</ele><time>2026-05-01T12:17:25.001Z</time></trkpt><trkpt lat="44.92682271840368" lon="9.749916279344292"><ele>108.5</ele><time>2026-05-01T12:17:26.001Z</time></trkpt><trkpt lat="44.92678459472167" lon="9.750082920712565"><ele>108.25</ele><time>2026-05-01T12:17:27.001Z</time></trkpt><trkpt lat="44.92674637222934" lon="9.75023879324412"><ele>108.0</ele><time>2026-05-01T12:17:28.001Z</time></trkpt><trkpt lat="44.92670581602258" lon="9.750395425973402"><ele>108.0</ele><time>2026-05-01T12:17:29.001Z</time></trkpt><trkpt lat="44.92666219820492" lon="9.750554653699885"><ele>108.0</ele><time>2026-05-01T12:17:30.001Z</time></trkpt><trkpt lat="44.92661439229551" lon="9.75072823246637"><ele>108.0</ele><time>2026-05-01T12:17:31.001Z</time></trkpt><trkpt lat="44.92657791226528" lon="9.750918878445983"><ele>108.0</ele><time>2026-05-01T12:17:32.001Z</time></trkpt><trkpt lat="44.926518318732924" lon="9.751114990866668"><ele>108.0</ele><time>2026-05-01T12:17:33.001Z</time></trkpt><trkpt lat="44.92645737956636" lon="9.751310134100327"><ele>108.0</ele><time>2026-05-01T12:17:34.001Z</time></trkpt><trkpt lat="44.92639159317566" lon="9.751483433721434"><ele>108.0</ele><time>2026-05-01T12:17:35.001Z</time></trkpt><trkpt lat="44.926357666437816" lon="9.751649069201621"><ele>108.0</ele><time>2026-05-01T12:17:36.001Z</time></trkpt><trkpt lat="44.92633031012168" lon="9.751796404924374"><ele>108.0</ele><time>2026-05-01T12:17:37.001Z</time></trkpt><trkpt lat="44.92630804835823" lon="9.751929321903448"><ele>108.0</ele><time>2026-05-01T12:17:38.001Z</time></trkpt><trkpt lat="44.9262778105268" lon="9.752075823830152"><ele>108.0</ele><time>2026-05-01T12:17:39.002Z</time></trkpt><trkpt lat="44.926204193272056" lon="9.752246198687688"><ele>108.0</ele><time>2026-05-01T12:17:40.002Z</time></trkpt><trkpt lat="44.92616913560708" lon="9.752467141953229"><ele>108.0</ele><time>2026-05-01T12:17:41.002Z</time></trkpt><trkpt lat="44.92612389102845" lon="9.75268260049148"><ele>108.0</ele><time>2026-05-01T12:17:42.002Z</time></trkpt><trkpt lat="44.92606097559201" lon="9.752912149263052"><ele>108.0</ele><time>2026-05-01T12:17:43.002Z</time></trkpt><trkpt lat="44.9260056361362" lon="9.753158565867249"><ele>108.0</ele><time>2026-05-01T12:17:44.002Z</time></trkpt><trkpt lat="44.92595250817582" lon="9.753404800454392"><ele>108.0</ele><time>2026-05-01T12:17:45.002Z</time></trkpt><trkpt lat="44.92591939071117" lon="9.753625484528651"><ele>108.0</ele><time>2026-05-01T12:17:46.002Z</time></trkpt><trkpt lat="44.925864406078695" lon="9.7538473649503"><ele>108.0</ele><time>2026-05-01T12:17:47.002Z</time></trkpt><trkpt lat="44.925801606480945" lon="9.75407665253866"><ele>108.0</ele><time>2026-05-01T12:17:48.002Z</time></trkpt><trkpt lat="44.92570444043396" lon="9.754283737577078"><ele>108.0</ele><time>2026-05-01T12:17:49.002Z</time></trkpt><trkpt lat="44.925608282003616" lon="9.754501345773859"><ele>107.66666666666666</ele><time>2026-05-01T12:17:50.002Z</time></trkpt><trkpt lat="44.92551399743539" lon="9.754712387406386"><ele>107.33333333333333</ele><time>2026-05-01T12:17:51.002Z</time></trkpt><trkpt lat="44.92541727530486" lon="9.75493199126352"><ele>107.0</ele><time>2026-05-01T12:17:52.002Z</time></trkpt><trkpt lat="44.92531851618994" lon="9.755156220061346"><ele>106.66666666666666</ele><time>2026-05-01T12:17:53.002Z</time></trkpt><trkpt lat="44.92521679721477" lon="9.755387046836715"><ele>106.33333333333334</ele><time>2026-05-01T12:17:54Z</time></trkpt><trkpt lat="44.925122983080335" lon="9.75560430184739"><ele>106.0</ele><time>2026-05-01T12:17:55Z</time></trkpt><trkpt lat="44.925049720904234" lon="9.755819595249893"><ele>106.66666666666667</ele><time>2026-05-01T12:17:56Z</time></trkpt><trkpt lat="44.924966771809224" lon="9.756014554246853"><ele>107.33333333333334</ele><time>2026-05-01T12:17:57Z</time></trkpt><trkpt lat="44.92486525688984" lon="9.756207108074312"><ele>108.0</ele><time>2026-05-01T12:17:58Z</time></trkpt><trkpt lat="44.92478162965276" lon="9.756403085296721"><ele>108.0</ele><time>2026-05-01T12:17:59Z</time></trkpt><trkpt lat="44.924705982579354" lon="9.756595989622788"><ele>108.0</ele><time>2026-05-01T12:18:00Z</time></trkpt><trkpt lat="44.92464932689402" lon="9.75679751486673"><ele>108.0</ele><time>2026-05-01T12:18:01Z</time></trkpt><trkpt lat="44.92458917436319" lon="9.756984927666386"><ele>108.0</ele><time>2026-05-01T12:18:02Z</time></trkpt><trkpt lat="44.924533407709944" lon="9.757160977710061"><ele>108.0</ele><time>2026-05-01T12:18:03Z</time></trkpt><trkpt lat="44.9244592466222" lon="9.7573062150216"><ele>108.0</ele><time>2026-05-01T12:18:04Z</time></trkpt><trkpt lat="44.92440114261968" lon="9.757453326277787"><ele>108.0</ele><time>2026-05-01T12:18:05Z</time></trkpt><trkpt lat="44.92437095405506" lon="9.757597291499497"><ele>107.80000000000001</ele><time>2026-05-01T12:18:06Z</time></trkpt><trkpt lat="44.924371240406835" lon="9.757726966877554"><ele>107.60000000000001</ele><time>2026-05-01T12:18:07Z</time></trkpt><trkpt lat="44.92442790773993" lon="9.757830738432109"><ele>107.39999999999999</ele><time>2026-05-01T12:18:08Z</time></trkpt><trkpt lat="44.92450973701826" lon="9.757921183031545"><ele>107.19999999999999</ele><time>2026-05-01T12:18:09Z</time></trkpt><trkpt lat="44.92459549225923" lon="9.75803188644799"><ele>107.0</ele><time>2026-05-01T12:18:10Z</time></trkpt><trkpt lat="44.92468190372211" lon="9.75812804392111"><ele>107.0</ele><time>2026-05-01T12:18:11Z</time></trkpt><trkpt lat="44.92475035601383" lon="9.758203992029726"><ele>106.99999999999999</ele><time>2026-05-01T12:18:12Z</time></trkpt><trkpt lat="44.924774113280485" lon="9.758323515933967"><ele>106.99999999999999</ele><time>2026-05-01T12:18:13Z</time></trkpt><trkpt lat="44.92474527892999" lon="9.75846700601078"><ele>107.0</ele><time>2026-05-01T12:18:14Z</time></trkpt><trkpt lat="44.92472710294104" lon="9.75863056889013"><ele>107.0</ele><time>2026-05-01T12:18:15Z</time></trkpt><trkpt lat="44.92471031926359" lon="9.758801905360588"><ele>107.0</ele><time>2026-05-01T12:18:16Z</time></trkpt><trkpt lat="44.92471234825078" lon="9.75898737566455"><ele>107.0</ele><time>2026-05-01T12:18:17Z</time></trkpt><trkpt lat="44.92471404681926" lon="9.75917121977272"><ele>107.0</ele><time>2026-05-01T12:18:18Z</time></trkpt><trkpt lat="44.924739382820235" lon="9.759355766621342"><ele>107.0</ele><time>2026-05-01T12:18:19Z</time></trkpt><trkpt lat="44.92474472802816" lon="9.75953063558508"><ele>107.0</ele><time>2026-05-01T12:18:20Z</time></trkpt><trkpt lat="44.924742955859905" lon="9.759722828500003"><ele>107.0</ele><time>2026-05-01T12:18:21Z</time></trkpt><trkpt lat="44.924741791940896" lon="9.75992470824665"><ele>107.0</ele><time>2026-05-01T12:18:22Z</time></trkpt><trkpt lat="44.9247407215381" lon="9.760110367713756"><ele>107.0</ele><time>2026-05-01T12:18:23Z</time></trkpt><trkpt lat="44.92474712869309" lon="9.760285231309929"><ele>106.8</ele><time>2026-05-01T12:18:24Z</time></trkpt><trkpt lat="44.92474347703983" lon="9.76044444214661"><ele>106.6</ele><time>2026-05-01T12:18:25Z</time></trkpt><trkpt lat="44.92473347764598" lon="9.760595262955714"><ele>106.39999999999999</ele><time>2026-05-01T12:18:26Z</time></trkpt><trkpt lat="44.92472457980051" lon="9.760738819091534"><ele>106.19999999999999</ele><time>2026-05-01T12:18:27Z</time></trkpt><trkpt lat="44.924717598249885" lon="9.760873870625373"><ele>106.0</ele><time>2026-05-01T12:18:28Z</time></trkpt><trkpt lat="44.92470755326174" lon="9.760998446190179"><ele>105.85714285714286</ele><time>2026-05-01T12:18:29Z</time></trkpt><trkpt lat="44.924695862312205" lon="9.76110849355989"><ele>105.71428571428571</ele><time>2026-05-01T12:18:30Z</time></trkpt><trkpt lat="44.92467890580276" lon="9.761213642311748"><ele>105.57142857142857</ele><time>2026-05-01T12:18:31Z</time></trkpt><trkpt lat="44.924662945041035" lon="9.761302349280014"><ele>105.42857142857143</ele><time>2026-05-01T12:18:32Z</time></trkpt><trkpt lat="44.924627735035756" lon="9.761423234622672"><ele>105.28571428571428</ele><time>2026-05-01T12:18:34.001Z</time></trkpt><trkpt lat="44.924615504709436" lon="9.76151085019801"><ele>105.14285714285714</ele><time>2026-05-01T12:18:51.001Z</time></trkpt><trkpt lat="44.92459411549054" lon="9.761602591749272"><ele>105.0</ele><time>2026-05-01T12:19:00.001Z</time></trkpt><trkpt lat="44.92456384290994" lon="9.761756284979699"><ele>105.0</ele><time>2026-05-01T12:19:31.002Z</time></trkpt><trkpt lat="44.92454242583318" lon="9.761858394509662"><ele>105.0</ele><time>2026-05-01T12:19:32.002Z</time></trkpt><trkpt lat="44.92451777909517" lon="9.761972714763838"><ele>105.0</ele><time>2026-05-01T12:19:33.002Z</time></trkpt><trkpt lat="44.924491905587786" lon="9.762083366269012"><ele>105.0</ele><time>2026-05-01T12:19:34.002Z</time></trkpt><trkpt lat="44.92445963491731" lon="9.762192224678099"><ele>105.0</ele><time>2026-05-01T12:19:35.002Z</time></trkpt><trkpt lat="44.92442321135685" lon="9.762288034541742"><ele>105.0</ele><time>2026-05-01T12:19:36.002Z</time></trkpt><trkpt lat="44.9243975682416" lon="9.762369629639666"><ele>104.8</ele><time>2026-05-01T12:19:37.002Z</time></trkpt><trkpt lat="44.9243572197573" lon="9.762508890957527"><ele>104.6</ele><time>2026-05-01T12:19:39.002Z</time></trkpt><trkpt lat="44.9243359614986" lon="9.762608479524314"><ele>104.4</ele><time>2026-05-01T12:19:41.002Z</time></trkpt><trkpt lat="44.92432266806414" lon="9.762731003650293"><ele>104.2</ele><time>2026-05-01T12:19:44.002Z</time></trkpt><trkpt lat="44.924313587752046" lon="9.762850761099756"><ele>104.0</ele><time>2026-05-01T12:19:48.002Z</time></trkpt><trkpt lat="44.924271904503044" lon="9.762974382362293"><ele>104.33333333333333</ele><time>2026-05-01T12:26:38.001Z</time></trkpt><trkpt lat="44.92423033811716" lon="9.763105573315753"><ele>104.66666666666666</ele><time>2026-05-01T12:26:40.001Z</time></trkpt><trkpt lat="44.92421818139455" lon="9.763200890349722"><ele>105.0</ele><time>2026-05-01T12:26:42.001Z</time></trkpt><trkpt lat="44.92415294100609" lon="9.76322006297177"><ele>105.33333333333334</ele><time>2026-05-01T12:26:46.001Z</time></trkpt><trkpt lat="44.92412901577413" lon="9.763304458265656"><ele>105.66666666666667</ele><time>2026-05-01T12:29:39.001Z</time></trkpt><trkpt lat="44.92408338004192" lon="9.763388082093167"><ele>106.0</ele><time>2026-05-01T12:30:18.002Z</time></trkpt><trkpt lat="44.92402892831893" lon="9.763518253813835"><ele>106.00000000000001</ele><time>2026-05-01T12:30:20.002Z</time></trkpt><trkpt lat="44.923975541814684" lon="9.763608515005066"><ele>106.0</ele><time>2026-05-01T12:30:21.002Z</time></trkpt><trkpt lat="44.92393846572395" lon="9.76369372738887"><ele>106.0</ele><time>2026-05-01T12:30:22.002Z</time></trkpt><trkpt lat="44.92391714503635" lon="9.763799531861535"><ele>106.0</ele><time>2026-05-01T12:30:23.002Z</time></trkpt><trkpt lat="44.92391163474422" lon="9.763893561985498"><ele>106.00000000000001</ele><time>2026-05-01T12:30:24.002Z</time></trkpt><trkpt lat="44.92390749909379" lon="9.764012081251172"><ele>106.0</ele><time>2026-05-01T12:30:25.002Z</time></trkpt><trkpt lat="44.923891663838965" lon="9.764149319333457"><ele>106.0</ele><time>2026-05-01T12:30:26.002Z</time></trkpt><trkpt lat="44.923866711508325" lon="9.76428321736634"><ele>106.0</ele><time>2026-05-01T12:30:27.002Z</time></trkpt><trkpt lat="44.92384104948182" lon="9.764432368610786"><ele>106.0</ele><time>2026-05-01T12:30:28.002Z</time></trkpt><trkpt lat="44.923813986897024" lon="9.764586117280436"><ele>106.0</ele><time>2026-05-01T12:30:29.002Z</time></trkpt><trkpt lat="44.92378493847456" lon="9.764760430592519"><ele>106.0</ele><time>2026-05-01T12:30:30Z</time></trkpt><trkpt lat="44.923755871372805" lon="9.76493714540126"><ele>105.5</ele><time>2026-05-01T12:30:31Z</time></trkpt><trkpt lat="44.92372572023194" lon="9.765122765468753"><ele>105.0</ele><time>2026-05-01T12:30:32Z</time></trkpt><trkpt lat="44.92369208486479" lon="9.765320087168986"><ele>104.5</ele><time>2026-05-01T12:30:33Z</time></trkpt><trkpt lat="44.923656879129624" lon="9.765515780838086"><ele>104.0</ele><time>2026-05-01T12:30:34Z</time></trkpt><trkpt lat="44.923619302441274" lon="9.76572108253227"><ele>104.0</ele><time>2026-05-01T12:30:35Z</time></trkpt><trkpt lat="44.92356452755649" lon="9.7659278029596"><ele>104.0</ele><time>2026-05-01T12:30:36Z</time></trkpt><trkpt lat="44.923524091096596" lon="9.766121027694165"><ele>104.0</ele><time>2026-05-01T12:30:37Z</time></trkpt><trkpt lat="44.923494794455685" lon="9.766338918313865"><ele>104.0</ele><time>2026-05-01T12:30:38Z</time></trkpt><trkpt lat="44.923448391650226" lon="9.76655557721261"><ele>104.0</ele><time>2026-05-01T12:30:39Z</time></trkpt><trkpt lat="44.9234039896313" lon="9.766777227047509"><ele>104.0</ele><time>2026-05-01T12:30:40Z</time></trkpt><trkpt lat="44.92336251785231" lon="9.766996086006111"><ele>104.0</ele><time>2026-05-01T12:30:41Z</time></trkpt><trkpt lat="44.92332103183015" lon="9.767225237928697"><ele>104.0</ele><time>2026-05-01T12:30:42Z</time></trkpt><trkpt lat="44.9232838845615" lon="9.767460107418618"><ele>104.0</ele><time>2026-05-01T12:30:43Z</time></trkpt><trkpt lat="44.92325056105691" lon="9.767681634851408"><ele>104.0</ele><time>2026-05-01T12:30:44Z</time></trkpt><trkpt lat="44.92321359630049" lon="9.767931667983996"><ele>104.0</ele><time>2026-05-01T12:30:45Z</time></trkpt><trkpt lat="44.92318021258672" lon="9.768158808300347"><ele>104.0</ele><time>2026-05-01T12:30:46Z</time></trkpt><trkpt lat="44.92314621933155" lon="9.768400893573121"><ele>104.0</ele><time>2026-05-01T12:30:47Z</time></trkpt><trkpt lat="44.92311114879194" lon="9.768640725778761"><ele>104.0</ele><time>2026-05-01T12:30:48Z</time></trkpt><trkpt lat="44.923079713585814" lon="9.768855014468949"><ele>104.0</ele><time>2026-05-01T12:30:49Z</time></trkpt><trkpt lat="44.9230449054039" lon="9.769054607830986"><ele>104.0</ele><time>2026-05-01T12:30:50Z</time></trkpt><trkpt lat="44.923001185836334" lon="9.769273102931571"><ele>104.0</ele><time>2026-05-01T12:30:51Z</time></trkpt><trkpt lat="44.922955507242115" lon="9.769484250588539"><ele>104.0</ele><time>2026-05-01T12:30:52Z</time></trkpt><trkpt lat="44.922908070228544" lon="9.769695081199808"><ele>104.25</ele><time>2026-05-01T12:30:53Z</time></trkpt><trkpt lat="44.92286161937978" lon="9.769904277448274"><ele>104.5</ele><time>2026-05-01T12:30:54Z</time></trkpt><trkpt lat="44.92282028952779" lon="9.770096686975485"><ele>104.75</ele><time>2026-05-01T12:30:55Z</time></trkpt><trkpt lat="44.92278006065189" lon="9.770281569285125"><ele>105.0</ele><time>2026-05-01T12:30:56Z</time></trkpt><trkpt lat="44.92273842170018" lon="9.77046608698523"><ele>105.0</ele><time>2026-05-01T12:30:57Z</time></trkpt><trkpt lat="44.922705605228515" lon="9.770626608783116"><ele>105.0</ele><time>2026-05-01T12:30:58Z</time></trkpt><trkpt lat="44.92267246726217" lon="9.770770921167312"><ele>105.0</ele><time>2026-05-01T12:30:59Z</time></trkpt><trkpt lat="44.92264088119543" lon="9.770920098779854"><ele>105.0</ele><time>2026-05-01T12:31:00Z</time></trkpt><trkpt lat="44.92261021371627" lon="9.771070284352074"><ele>105.0</ele><time>2026-05-01T12:31:01Z</time></trkpt><trkpt lat="44.92257841163037" lon="9.771221356848912"><ele>105.16666666666667</ele><time>2026-05-01T12:31:02Z</time></trkpt><trkpt lat="44.92255054581594" lon="9.771358664073384"><ele>105.33333333333334</ele><time>2026-05-01T12:31:03Z</time></trkpt><trkpt lat="44.92252359602042" lon="9.771485935522309"><ele>105.5</ele><time>2026-05-01T12:31:04Z</time></trkpt><trkpt lat="44.92250636685411" lon="9.771580291633553"><ele>105.66666666666667</ele><time>2026-05-01T12:31:05Z</time></trkpt><trkpt lat="44.92249011709153" lon="9.771681303432846"><ele>105.83333333333334</ele><time>2026-05-01T12:31:06Z</time></trkpt><trkpt lat="44.92247346647585" lon="9.771805037116003"><ele>106.0</ele><time>2026-05-01T12:31:08Z</time></trkpt><trkpt lat="44.9224614533945" lon="9.771902441266137"><ele>105.66666666666667</ele><time>2026-05-01T12:31:10Z</time></trkpt><trkpt lat="44.92244689554683" lon="9.77200144689671"><ele>105.33333333333334</ele><time>2026-05-01T12:31:11Z</time></trkpt><trkpt lat="44.9224299796872" lon="9.772118234243429"><ele>105.0</ele><time>2026-05-01T12:31:12Z</time></trkpt><trkpt lat="44.92241250103251" lon="9.772240630826918"><ele>104.66666666666666</ele><time>2026-05-01T12:31:13Z</time></trkpt><trkpt lat="44.92239563975383" lon="9.772369755504226"><ele>104.33333333333333</ele><time>2026-05-01T12:31:14.001Z</time></trkpt><trkpt lat="44.922383831489626" lon="9.772505999092596"><ele>104.0</ele><time>2026-05-01T12:31:15.001Z</time></trkpt><trkpt lat="44.922366405145404" lon="9.772653414706337"><ele>103.5</ele><time>2026-05-01T12:31:16.001Z</time></trkpt><trkpt lat="44.92234589495912" lon="9.772816250128379"><ele>103.0</ele><time>2026-05-01T12:31:17.001Z</time></trkpt><trkpt lat="44.922325362925534" lon="9.77298700035983"><ele>102.5</ele><time>2026-05-01T12:31:18.001Z</time></trkpt><trkpt lat="44.922300907792774" lon="9.77317623429069"><ele>102.0</ele><time>2026-05-01T12:31:19.001Z</time></trkpt><trkpt lat="44.92228154811779" lon="9.773371154486217"><ele>102.33333333333334</ele><time>2026-05-01T12:31:20.001Z</time></trkpt><trkpt lat="44.92225643430895" lon="9.773573225069763"><ele>102.66666666666667</ele><time>2026-05-01T12:31:21.001Z</time></trkpt><trkpt lat="44.92222628445374" lon="9.773783077056764"><ele>103.0</ele><time>2026-05-01T12:31:22.001Z</time></trkpt><trkpt lat="44.92218879653047" lon="9.77399508543385"><ele>103.0</ele><time>2026-05-01T12:31:23.001Z</time></trkpt><trkpt lat="44.92214333321991" lon="9.774207182421769"><ele>103.0</ele><time>2026-05-01T12:31:24.001Z</time></trkpt><trkpt lat="44.92209042599983" lon="9.774434517770064"><ele>103.0</ele><time>2026-05-01T12:31:25.001Z</time></trkpt><trkpt lat="44.92203969741537" lon="9.77462020078404"><ele>103.0</ele><time>2026-05-01T12:31:26.001Z</time></trkpt><trkpt lat="44.92196747868993" lon="9.774765492411785"><ele>103.0</ele><time>2026-05-01T12:31:27.001Z</time></trkpt><trkpt lat="44.92188724462537" lon="9.774901063795122"><ele>103.0</ele><time>2026-05-01T12:31:28.001Z</time></trkpt><trkpt lat="44.92180020404368" lon="9.775037996347157"><ele>103.0</ele><time>2026-05-01T12:31:29.001Z</time></trkpt><trkpt lat="44.92171538741954" lon="9.77518526234393"><ele>103.25</ele><time>2026-05-01T12:31:30.001Z</time></trkpt><trkpt lat="44.92159391927353" lon="9.775281043541524"><ele>103.5</ele><time>2026-05-01T12:31:31.001Z</time></trkpt><trkpt lat="44.92150983352701" lon="9.77540148457488"><ele>103.75</ele><time>2026-05-01T12:31:32.001Z</time></trkpt><trkpt lat="44.9214185003666" lon="9.775501536574925"><ele>104.0</ele><time>2026-05-01T12:31:33.001Z</time></trkpt><trkpt lat="44.92135284172609" lon="9.775611811706186"><ele>104.0</ele><time>2026-05-01T12:31:34.001Z</time></trkpt><trkpt lat="44.92129970998245" lon="9.775732253132473"><ele>104.0</ele><time>2026-05-01T12:31:35.001Z</time></trkpt><trkpt lat="44.92125353302233" lon="9.77587065041243"><ele>104.0</ele><time>2026-05-01T12:31:36.001Z</time></trkpt><trkpt lat="44.921216717792745" lon="9.776015887673065"><ele>104.0</ele><time>2026-05-01T12:31:37.001Z</time></trkpt><trkpt lat="44.92118339139319" lon="9.77616909801088"><ele>104.0</ele><time>2026-05-01T12:31:38.001Z</time></trkpt><trkpt lat="44.9211523116911" lon="9.776304058421422"><ele>103.6</ele><time>2026-05-01T12:31:39.001Z</time></trkpt><trkpt lat="44.92111327510505" lon="9.776447801528228"><ele>103.2</ele><time>2026-05-01T12:31:40.001Z</time></trkpt><trkpt lat="44.92106639515519" lon="9.776588327753599"><ele>102.8</ele><time>2026-05-01T12:31:41.001Z</time></trkpt><trkpt lat="44.92101877060003" lon="9.776729263620114"><ele>102.39999999999999</ele><time>2026-05-01T12:31:42.001Z</time></trkpt><trkpt lat="44.92096681757984" lon="9.776871049149088"><ele>102.0</ele><time>2026-05-01T12:31:43.001Z</time></trkpt><trkpt lat="44.92089560919129" lon="9.776989353227512"><ele>103.0</ele><time>2026-05-01T12:31:44.001Z</time></trkpt><trkpt lat="44.92083543747174" lon="9.777125714042324"><ele>104.0</ele><time>2026-05-01T12:31:45.001Z</time></trkpt><trkpt lat="44.920757696495635" lon="9.777239797118606"><ele>105.0</ele><time>2026-05-01T12:31:46.001Z</time></trkpt><trkpt lat="44.92067452772241" lon="9.777355585031945"><ele>106.0</ele><time>2026-05-01T12:31:47.001Z</time></trkpt><trkpt lat="44.92059696329767" lon="9.777483863684704"><ele>106.0</ele><time>2026-05-01T12:31:48.001Z</time></trkpt><trkpt lat="44.920523552643665" lon="9.777629101167472"><ele>106.0</ele><time>2026-05-01T12:31:49.001Z</time></trkpt><trkpt lat="44.920464541175384" lon="9.777788767864196"><ele>106.0</ele><time>2026-05-01T12:31:50.001Z</time></trkpt><trkpt lat="44.920404805666614" lon="9.777957856480354"><ele>106.0</ele><time>2026-05-01T12:31:51.001Z</time></trkpt><trkpt lat="44.92032270576942" lon="9.778097025436145"><ele>106.0</ele><time>2026-05-01T12:31:52.001Z</time></trkpt><trkpt lat="44.92020582360452" lon="9.778182305149679"><ele>106.0</ele><time>2026-05-01T12:31:53.001Z</time></trkpt><trkpt lat="44.92011330664121" lon="9.77829225677817"><ele>106.0</ele><time>2026-05-01T12:31:54.001Z</time></trkpt><trkpt lat="44.920038525153856" lon="9.778385785853875"><ele>106.0</ele><time>2026-05-01T12:31:55.001Z</time></trkpt><trkpt lat="44.919981531044954" lon="9.77849509367426"><ele>106.0</ele><time>2026-05-01T12:31:56.001Z</time></trkpt><trkpt lat="44.9199518713534" lon="9.778604860983435"><ele>106.16666666666667</ele><time>2026-05-01T12:31:57.001Z</time></trkpt><trkpt lat="44.919910445465256" lon="9.778682701287671"><ele>106.33333333333334</ele><time>2026-05-01T12:31:58.001Z</time></trkpt><trkpt lat="44.91986821336341" lon="9.778767573501144"><ele>106.5</ele><time>2026-05-01T12:31:59.001Z</time></trkpt><trkpt lat="44.91980619041938" lon="9.778911754503918"><ele>106.66666666666666</ele><time>2026-05-01T12:32:01.001Z</time></trkpt><trkpt lat="44.91975629264787" lon="9.779012018519104"><ele>106.83333333333333</ele><time>2026-05-01T12:32:03.001Z</time></trkpt><trkpt lat="44.91970840572511" lon="9.779075349454164"><ele>107.0</ele><time>2026-05-01T12:32:07.001Z</time></trkpt><trkpt lat="44.91968366646115" lon="9.779196142083416"><ele>107.0</ele><time>2026-05-01T12:32:11.001Z</time></trkpt><trkpt lat="44.91962320606017" lon="9.77936493862752"><ele>106.99999999999999</ele><time>2026-05-01T12:32:13.001Z</time></trkpt><trkpt lat="44.91958531929621" lon="9.779470712998696"><ele>106.99999999999999</ele><time>2026-05-01T12:32:14.001Z</time></trkpt><trkpt lat="44.91955015148512" lon="9.77956889618201"><ele>107.0</ele><time>2026-05-01T12:32:15.001Z</time></trkpt><trkpt lat="44.91951670829484" lon="9.779651309665724"><ele>107.0</ele><time>2026-05-01T12:32:16.001Z</time></trkpt><trkpt lat="44.91946000761208" lon="9.779765888327676"><ele>107.0</ele><time>2026-05-01T12:32:18.001Z</time></trkpt><trkpt lat="44.91901592009702" lon="9.779581875226748"><ele>107.0</ele><time>2026-05-01T12:32:19.001Z</time></trkpt><trkpt lat="44.918906005577874" lon="9.779540667893407"><ele>106.99999999999999</ele><time>2026-05-01T12:32:21.001Z</time></trkpt><trkpt lat="44.91883987582911" lon="9.779487903273996"><ele>106.99999999999999</ele><time>2026-05-01T12:32:23.001Z</time></trkpt><trkpt lat="44.91893348362412" lon="9.779534425235004"><ele>107.0</ele><time>2026-05-01T12:32:46Z</time></trkpt><trkpt lat="44.91901581310935" lon="9.779553495467876"><ele>107.0</ele><time>2026-05-01T12:32:48Z</time></trkpt><trkpt lat="44.919161499596235" lon="9.779484896329077"><ele>107.0</ele><time>2026-05-01T12:32:55Z</time></trkpt><trkpt lat="44.919214126474806" lon="9.779430226529835"><ele>106.99999999999999</ele><time>2026-05-01T12:32:56Z</time></trkpt><trkpt lat="44.91929074088284" lon="9.779345440826068"><ele>106.99999999999999</ele><time>2026-05-01T12:32:58Z</time></trkpt><trkpt lat="44.919390012115045" lon="9.77926419922463"><ele>107.0</ele><time>2026-05-01T12:33:00Z</time></trkpt><trkpt lat="44.919479850982434" lon="9.779163770767306"><ele>107.0</ele><time>2026-05-01T12:33:02Z</time></trkpt><trkpt lat="44.919559432920046" lon="9.779083064348622"><ele>106.99999999999999</ele><time>2026-05-01T12:33:04Z</time></trkpt><trkpt lat="44.91962894868584" lon="9.779036921739332"><ele>107.0</ele><time>2026-05-01T12:33:06Z</time></trkpt><trkpt lat="44.91971162073734" lon="9.779014546837741"><ele>107.0</ele><time>2026-05-01T12:33:09Z</time></trkpt><trkpt lat="44.919781177305374" lon="9.779016425087478"><ele>107.0</ele><time>2026-05-01T12:33:12Z</time></trkpt><trkpt lat="44.91988423539143" lon="9.779003520677373"><ele>106.99999999999999</ele><time>2026-05-01T12:34:02.001Z</time></trkpt><trkpt lat="44.919978930361836" lon="9.779082742209143"><ele>107.0</ele><time>2026-05-01T12:34:04.001Z</time></trkpt><trkpt lat="44.92003721559191" lon="9.779167090732859"><ele>106.5</ele><time>2026-05-01T12:34:05.001Z</time></trkpt><trkpt lat="44.92011579634286" lon="9.779274172025419"><ele>106.0</ele><time>2026-05-01T12:34:06.001Z</time></trkpt><trkpt lat="44.920211138960994" lon="9.779380541406589"><ele>105.5</ele><time>2026-05-01T12:34:07.001Z</time></trkpt><trkpt lat="44.920303302836174" lon="9.779496169970672"><ele>105.0</ele><time>2026-05-01T12:34:08.001Z</time></trkpt><trkpt lat="44.9203831575944" lon="9.779603398166895"><ele>105.0</ele><time>2026-05-01T12:34:09.001Z</time></trkpt><trkpt lat="44.92045484521487" lon="9.779698445937221"><ele>105.0</ele><time>2026-05-01T12:34:10.001Z</time></trkpt><trkpt lat="44.92051324971447" lon="9.779776862004589"><ele>105.0</ele><time>2026-05-01T12:34:11.001Z</time></trkpt><trkpt lat="44.92056885540039" lon="9.779854306521361"><ele>105.0</ele><time>2026-05-01T12:34:12.001Z</time></trkpt><trkpt lat="44.92062727953658" lon="9.779958598268502"><ele>105.0</ele><time>2026-05-01T12:34:14.001Z</time></trkpt><trkpt lat="44.92058123676702" lon="9.779808402763686"><ele>105.0</ele><time>2026-05-01T12:34:25.001Z</time></trkpt><trkpt lat="44.92047320200046" lon="9.779702359852795"><ele>105.0</ele><time>2026-05-01T12:34:27.001Z</time></trkpt><trkpt lat="44.9204175829975" lon="9.77962761277038"><ele>105.0</ele><time>2026-05-01T12:34:28.001Z</time></trkpt><trkpt lat="44.920364021326655" lon="9.779562001500027"><ele>105.0</ele><time>2026-05-01T12:34:29.001Z</time></trkpt><trkpt lat="44.920309440693366" lon="9.7794983934368"><ele>105.0</ele><time>2026-05-01T12:34:30.001Z</time></trkpt><trkpt lat="44.92021613527463" lon="9.779376892355677"><ele>105.0</ele><time>2026-05-01T12:34:32.001Z</time></trkpt><trkpt lat="44.92013869575662" lon="9.779273421563387"><ele>105.0</ele><time>2026-05-01T12:34:34.001Z</time></trkpt><trkpt lat="44.92008911897908" lon="9.779204801222184"><ele>105.0</ele><time>2026-05-01T12:34:36.001Z</time></trkpt><trkpt lat="44.920000591821065" lon="9.779122639446285"><ele>105.0</ele><time>2026-05-01T12:34:38.001Z</time></trkpt><trkpt lat="44.919925239112274" lon="9.779034636864802"><ele>105.0</ele><time>2026-05-01T12:34:40.001Z</time></trkpt><trkpt lat="44.919869176423376" lon="9.778971096767318"><ele>105.33333333333333</ele><time>2026-05-01T12:34:41.999Z</time></trkpt><trkpt lat="44.91979472297607" lon="9.778952991789879"><ele>105.66666666666666</ele><time>2026-05-01T12:34:44.999Z</time></trkpt><trkpt lat="44.91974923915935" lon="9.77901862556323"><ele>106.0</ele><time>2026-05-01T12:34:47.999Z</time></trkpt><trkpt lat="44.919810912133975" lon="9.778955502733268"><ele>106.33333333333333</ele><time>2026-05-01T12:35:40Z</time></trkpt><trkpt lat="44.919836424407244" lon="9.77886917697188"><ele>106.66666666666666</ele><time>2026-05-01T12:35:41Z</time></trkpt><trkpt lat="44.91987870863011" lon="9.778759319638397"><ele>107.0</ele><time>2026-05-01T12:35:42Z</time></trkpt><trkpt lat="44.91994282627749" lon="9.778677337602653"><ele>107.0</ele><time>2026-05-01T12:35:43Z</time></trkpt><trkpt lat="44.91998099316499" lon="9.778567935038591"><ele>106.99999999999999</ele><time>2026-05-01T12:35:44Z</time></trkpt><trkpt lat="44.920029475237975" lon="9.778469734000476"><ele>106.99999999999999</ele><time>2026-05-01T12:35:45Z</time></trkpt><trkpt lat="44.92008738232284" lon="9.778358863606433"><ele>107.0</ele><time>2026-05-01T12:35:46Z</time></trkpt><trkpt lat="44.920167670088226" lon="9.778286954066974"><ele>107.0</ele><time>2026-05-01T12:35:47Z</time></trkpt><trkpt lat="44.920243281197116" lon="9.778202287243282"><ele>106.8</ele><time>2026-05-01T12:35:48Z</time></trkpt><trkpt lat="44.92032865481891" lon="9.77811318484364"><ele>106.6</ele><time>2026-05-01T12:35:49Z</time></trkpt><trkpt lat="44.92041310023871" lon="9.778002122327598"><ele>106.39999999999999</ele><time>2026-05-01T12:35:50Z</time></trkpt><trkpt lat="44.92047558844802" lon="9.777873803355098"><ele>106.19999999999999</ele><time>2026-05-01T12:35:51Z</time></trkpt><trkpt lat="44.92051047585252" lon="9.777739316515088"><ele>106.0</ele><time>2026-05-01T12:35:52Z</time></trkpt><trkpt lat="44.92057179219198" lon="9.777610697108123"><ele>106.0</ele><time>2026-05-01T12:35:53Z</time></trkpt><trkpt lat="44.92062764041149" lon="9.77748036939085"><ele>106.0</ele><time>2026-05-01T12:35:54.001Z</time></trkpt><trkpt lat="44.92069746560549" lon="9.777359306581058"><ele>106.0</ele><time>2026-05-01T12:35:55.001Z</time></trkpt><trkpt lat="44.920774479915124" lon="9.777250116238871"><ele>106.0</ele><time>2026-05-01T12:35:56.001Z</time></trkpt><trkpt lat="44.92086192006919" lon="9.777120298538215"><ele>105.0</ele><time>2026-05-01T12:35:57.001Z</time></trkpt><trkpt lat="44.92093735073849" lon="9.77698861294256"><ele>104.0</ele><time>2026-05-01T12:35:58.001Z</time></trkpt><trkpt lat="44.92099775126026" lon="9.776861628918027"><ele>103.0</ele><time>2026-05-01T12:35:59.001Z</time></trkpt><trkpt lat="44.921057192673764" lon="9.776722346804942"><ele>102.0</ele><time>2026-05-01T12:36:00.001Z</time></trkpt><trkpt lat="44.92110966287268" lon="9.776560998012007"><ele>102.0</ele><time>2026-05-01T12:36:01.001Z</time></trkpt><trkpt lat="44.92114385969221" lon="9.776380611150286"><ele>102.0</ele><time>2026-05-01T12:36:02.001Z</time></trkpt><trkpt lat="44.92119125905605" lon="9.776203088642756"><ele>102.0</ele><time>2026-05-01T12:36:03.001Z</time></trkpt><trkpt lat="44.92124330709098" lon="9.776032416034166"><ele>102.0</ele><time>2026-05-01T12:36:04.001Z</time></trkpt><trkpt lat="44.921276687543454" lon="9.7758688653159"><ele>102.5</ele><time>2026-05-01T12:36:05.001Z</time></trkpt><trkpt lat="44.92133711454031" lon="9.775741801002486"><ele>103.0</ele><time>2026-05-01T12:36:06.001Z</time></trkpt><trkpt lat="44.92139396129841" lon="9.775606275140444"><ele>103.5</ele><time>2026-05-01T12:36:07.001Z</time></trkpt><trkpt lat="44.92146960513112" lon="9.775493253422157"><ele>104.0</ele><time>2026-05-01T12:36:08.001Z</time></trkpt><trkpt lat="44.921560108789436" lon="9.77537909756352"><ele>104.0</ele><time>2026-05-01T12:36:09.001Z</time></trkpt><trkpt lat="44.92165206107811" lon="9.775280485322389"><ele>104.0</ele><time>2026-05-01T12:36:10.001Z</time></trkpt><trkpt lat="44.92175529632264" lon="9.775164807635262"><ele>104.0</ele><time>2026-05-01T12:36:11.001Z</time></trkpt><trkpt lat="44.92184612082859" lon="9.77502884698636"><ele>104.0</ele><time>2026-05-01T12:36:12.001Z</time></trkpt><trkpt lat="44.92192157236331" lon="9.774893419988981"><ele>103.75</ele><time>2026-05-01T12:36:13.001Z</time></trkpt><trkpt lat="44.92201229915259" lon="9.774754473802545"><ele>103.5</ele><time>2026-05-01T12:36:14.001Z</time></trkpt><trkpt lat="44.9220775483197" lon="9.774588905488335"><ele>103.25</ele><time>2026-05-01T12:36:15.001Z</time></trkpt><trkpt lat="44.922116369534045" lon="9.774404522425604"><ele>103.0</ele><time>2026-05-01T12:36:16.001Z</time></trkpt><trkpt lat="44.922158605586795" lon="9.774208358247675"><ele>103.0</ele><time>2026-05-01T12:36:17.001Z</time></trkpt><trkpt lat="44.92219936856611" lon="9.773984969953643"><ele>103.0</ele><time>2026-05-01T12:36:18.001Z</time></trkpt><trkpt lat="44.92224336062145" lon="9.773742736423827"><ele>103.0</ele><time>2026-05-01T12:36:19.001Z</time></trkpt><trkpt lat="44.922272375766845" lon="9.773521260199917"><ele>102.66666666666667</ele><time>2026-05-01T12:36:20.001Z</time></trkpt><trkpt lat="44.92230216581278" lon="9.773290364988398"><ele>102.33333333333334</ele><time>2026-05-01T12:36:21.001Z</time></trkpt><trkpt lat="44.92234224793102" lon="9.77306244746851"><ele>102.0</ele><time>2026-05-01T12:36:22.001Z</time></trkpt><trkpt lat="44.92236771880358" lon="9.772852385937508"><ele>102.5</ele><time>2026-05-01T12:36:23.001Z</time></trkpt><trkpt lat="44.922393705006435" lon="9.77263441158241"><ele>103.0</ele><time>2026-05-01T12:36:24.001Z</time></trkpt><trkpt lat="44.922415770381" lon="9.772440690593987"><ele>103.5</ele><time>2026-05-01T12:36:25.001Z</time></trkpt><trkpt lat="44.92243452294387" lon="9.77228279304455"><ele>104.0</ele><time>2026-05-01T12:36:26.001Z</time></trkpt><trkpt lat="44.92245145621613" lon="9.772150639006947"><ele>104.0</ele><time>2026-05-01T12:36:27.001Z</time></trkpt><trkpt lat="44.92246596707428" lon="9.772037390444503"><ele>104.0</ele><time>2026-05-01T12:36:28.001Z</time></trkpt><trkpt lat="44.92248068196576" lon="9.771932119030849"><ele>104.0</ele><time>2026-05-01T12:36:29.001Z</time></trkpt><trkpt lat="44.92249506114043" lon="9.771831151081717"><ele>104.0</ele><time>2026-05-01T12:36:34.001Z</time></trkpt><trkpt lat="44.92235493365415" lon="9.771775741475082"><ele>104.0</ele><time>2026-05-01T12:36:37.001Z</time></trkpt><trkpt lat="44.92226066809022" lon="9.771786496954032"><ele>104.4</ele><time>2026-05-01T12:36:38.001Z</time></trkpt><trkpt lat="44.92217827558935" lon="9.771783454568522"><ele>104.80000000000001</ele><time>2026-05-01T12:36:39.001Z</time></trkpt><trkpt lat="44.92209157538718" lon="9.771761115637421"><ele>105.19999999999999</ele><time>2026-05-01T12:36:40.001Z</time></trkpt><trkpt lat="44.92199657897125" lon="9.771731399226757"><ele>105.6</ele><time>2026-05-01T12:36:41.001Z</time></trkpt><trkpt lat="44.92188611889294" lon="9.77170052144336"><ele>106.0</ele><time>2026-05-01T12:36:42.001Z</time></trkpt><trkpt lat="44.92176892103921" lon="9.771668795221421"><ele>106.0</ele><time>2026-05-01T12:36:43.001Z</time></trkpt><trkpt lat="44.92164294317836" lon="9.77162962118479"><ele>106.0</ele><time>2026-05-01T12:36:44.001Z</time></trkpt><trkpt lat="44.921505340190244" lon="9.771588776500527"><ele>106.0</ele><time>2026-05-01T12:36:45.001Z</time></trkpt><trkpt lat="44.92136257997707" lon="9.771544553863773"><ele>106.0</ele><time>2026-05-01T12:36:46.001Z</time></trkpt><trkpt lat="44.92121171055885" lon="9.771493534221413"><ele>106.0</ele><time>2026-05-01T12:36:47.001Z</time></trkpt><trkpt lat="44.92105540550397" lon="9.771445274221533"><ele>106.0</ele><time>2026-05-01T12:36:47.999Z</time></trkpt><trkpt lat="44.92089427185149" lon="9.771403274778743"><ele>106.0</ele><time>2026-05-01T12:36:48.999Z</time></trkpt><trkpt lat="44.92073341650707" lon="9.771360393580286"><ele>107.0</ele><time>2026-05-01T12:36:49.999Z</time></trkpt><trkpt lat="44.92056789255379" lon="9.77131481622718"><ele>108.0</ele><time>2026-05-01T12:36:50.999Z</time></trkpt><trkpt lat="44.92039923804351" lon="9.771268568282604"><ele>109.0</ele><time>2026-05-01T12:36:51.999Z</time></trkpt><trkpt lat="44.92022983178457" lon="9.771220286576707"><ele>109.33333333333334</ele><time>2026-05-01T12:36:52.999Z</time></trkpt><trkpt lat="44.9200554192718" lon="9.77116725133095"><ele>109.66666666666666</ele><time>2026-05-01T12:36:53.999Z</time></trkpt><trkpt lat="44.91989009481052" lon="9.771123801455644"><ele>110.0</ele><time>2026-05-01T12:36:54.999Z</time></trkpt><trkpt lat="44.91974143475638" lon="9.771081976361767"><ele>110.0</ele><time>2026-05-01T12:36:55.999Z</time></trkpt><trkpt lat="44.91961065521555" lon="9.77102426987068"><ele>110.0</ele><time>2026-05-01T12:36:56.999Z</time></trkpt><trkpt lat="44.91948913162713" lon="9.770987560056895"><ele>110.0</ele><time>2026-05-01T12:36:57.999Z</time></trkpt><trkpt lat="44.919365829195314" lon="9.770972672953258"><ele>110.0</ele><time>2026-05-01T12:36:58.999Z</time></trkpt><trkpt lat="44.919253651916925" lon="9.770936545686439"><ele>109.6</ele><time>2026-05-01T12:36:59.999Z</time></trkpt><trkpt lat="44.91915424597096" lon="9.770905856747083"><ele>109.2</ele><time>2026-05-01T12:37:00.999Z</time></trkpt><trkpt lat="44.91907987279325" lon="9.770879089856658"><ele>108.80000000000001</ele><time>2026-05-01T12:37:01.999Z</time></trkpt><trkpt lat="44.91901344614037" lon="9.770849173290305"><ele>108.4</ele><time>2026-05-01T12:37:03.999Z</time></trkpt><trkpt lat="44.9189307438095" lon="9.770985213001117"><ele>108.0</ele><time>2026-05-01T12:37:07.999Z</time></trkpt><trkpt lat="44.91890918757361" lon="9.771170807336686"><ele>107.5</ele><time>2026-05-01T12:37:08.999Z</time></trkpt><trkpt lat="44.9188809115275" lon="9.771340568033088"><ele>107.0</ele><time>2026-05-01T12:37:09.999Z</time></trkpt><trkpt lat="44.91884716493" lon="9.771531834121358"><ele>106.5</ele><time>2026-05-01T12:37:10.999Z</time></trkpt><trkpt lat="44.91881223682053" lon="9.771739104165462"><ele>106.0</ele><time>2026-05-01T12:37:11.999Z</time></trkpt><trkpt lat="44.91877586064215" lon="9.77196249261054"><ele>105.66666666666667</ele><time>2026-05-01T12:37:13Z</time></trkpt><trkpt lat="44.91873617831178" lon="9.772186331305594"><ele>105.33333333333334</ele><time>2026-05-01T12:37:14Z</time></trkpt><trkpt lat="44.918695409915394" lon="9.772419266324594"><ele>105.0</ele><time>2026-05-01T12:37:15Z</time></trkpt><trkpt lat="44.91865799322371" lon="9.772657438774422"><ele>104.66666666666666</ele><time>2026-05-01T12:37:16Z</time></trkpt><trkpt lat="44.918617681889614" lon="9.772904467873516"><ele>104.33333333333333</ele><time>2026-05-01T12:37:17Z</time></trkpt><trkpt lat="44.9185759473646" lon="9.773151405761816"><ele>104.0</ele><time>2026-05-01T12:37:18Z</time></trkpt><trkpt lat="44.918530064261475" lon="9.773418741079997"><ele>104.0</ele><time>2026-05-01T12:37:19Z</time></trkpt><trkpt lat="44.91848484147766" lon="9.773691891505244"><ele>104.0</ele><time>2026-05-01T12:37:20Z</time></trkpt><trkpt lat="44.91843807472355" lon="9.773973810138772"><ele>104.0</ele><time>2026-05-01T12:37:21Z</time></trkpt><trkpt lat="44.91839180498324" lon="9.774266018023159"><ele>106.5</ele><time>2026-05-01T12:37:22Z</time></trkpt><trkpt lat="44.91834217224466" lon="9.774578922643421"><ele>109.0</ele><time>2026-05-01T12:37:23Z</time></trkpt><trkpt lat="44.91829078396187" lon="9.774892103256551"><ele>108.33333333333334</ele><time>2026-05-01T12:37:24Z</time></trkpt><trkpt lat="44.918236690334055" lon="9.775197629225469"><ele>107.66666666666666</ele><time>2026-05-01T12:37:25Z</time></trkpt><trkpt lat="44.91818798737438" lon="9.775509792816905"><ele>107.0</ele><time>2026-05-01T12:37:26Z</time></trkpt><trkpt lat="44.91814090115698" lon="9.775818529499919"><ele>106.66666666666666</ele><time>2026-05-01T12:37:27Z</time></trkpt><trkpt lat="44.918092406935564" lon="9.776125805285904"><ele>106.33333333333334</ele><time>2026-05-01T12:37:28Z</time></trkpt><trkpt lat="44.91804563646117" lon="9.776413464811837"><ele>106.0</ele><time>2026-05-01T12:37:29Z</time></trkpt><trkpt lat="44.91799690858211" lon="9.776685100414854"><ele>105.33333333333334</ele><time>2026-05-01T12:37:30Z</time></trkpt><trkpt lat="44.91794626797986" lon="9.776918352914272"><ele>104.66666666666666</ele><time>2026-05-01T12:37:31Z</time></trkpt><trkpt lat="44.91787102166685" lon="9.777146997169723"><ele>104.0</ele><time>2026-05-01T12:37:32Z</time></trkpt><trkpt lat="44.91774661438581" lon="9.777338916402721"><ele>104.0</ele><time>2026-05-01T12:37:33Z</time></trkpt><trkpt lat="44.917616657019224" lon="9.77752820743141"><ele>104.0</ele><time>2026-05-01T12:37:34Z</time></trkpt><trkpt lat="44.91748469146844" lon="9.777711736138503"><ele>104.0</ele><time>2026-05-01T12:37:35Z</time></trkpt><trkpt lat="44.91732885404159" lon="9.777884337130976"><ele>106.0</ele><time>2026-05-01T12:37:36Z</time></trkpt><trkpt lat="44.917179600918864" lon="9.778065480025488"><ele>108.0</ele><time>2026-05-01T12:37:37Z</time></trkpt><trkpt lat="44.91704638321813" lon="9.778258280550999"><ele>110.0</ele><time>2026-05-01T12:37:38Z</time></trkpt><trkpt lat="44.91694069262812" lon="9.778460832105688"><ele>110.33333333333333</ele><time>2026-05-01T12:37:39Z</time></trkpt><trkpt lat="44.91685277327459" lon="9.778694071376517"><ele>110.66666666666666</ele><time>2026-05-01T12:37:40Z</time></trkpt><trkpt lat="44.91679435226829" lon="9.778938643334849"><ele>111.0</ele><time>2026-05-01T12:37:41Z</time></trkpt><trkpt lat="44.91674568893483" lon="9.779192120622431"><ele>110.33333333333334</ele><time>2026-05-01T12:37:42Z</time></trkpt><trkpt lat="44.91670341159885" lon="9.779452358963244"><ele>109.66666666666667</ele><time>2026-05-01T12:37:43Z</time></trkpt><trkpt lat="44.916663692361425" lon="9.77971032738913"><ele>109.0</ele><time>2026-05-01T12:37:44Z</time></trkpt><trkpt lat="44.91662291178305" lon="9.779966295281723"><ele>109.33333333333334</ele><time>2026-05-01T12:37:45Z</time></trkpt><trkpt lat="44.91658125090181" lon="9.78022076553734"><ele>109.66666666666666</ele><time>2026-05-01T12:37:46Z</time></trkpt><trkpt lat="44.9165390214925" lon="9.780456162179707"><ele>110.0</ele><time>2026-05-01T12:37:47Z</time></trkpt><trkpt lat="44.91649379389456" lon="9.780692729747502"><ele>110.0</ele><time>2026-05-01T12:37:48Z</time></trkpt><trkpt lat="44.91645313342745" lon="9.780920016646965"><ele>110.0</ele><time>2026-05-01T12:37:49Z</time></trkpt><trkpt lat="44.916416463201614" lon="9.781144484311229"><ele>110.0</ele><time>2026-05-01T12:37:50Z</time></trkpt><trkpt lat="44.916376905659085" lon="9.781366083042883"><ele>110.0</ele><time>2026-05-01T12:37:51.001Z</time></trkpt><trkpt lat="44.91633631366442" lon="9.781595720260444"><ele>110.0</ele><time>2026-05-01T12:37:52.001Z</time></trkpt><trkpt lat="44.91629846239131" lon="9.781819211562834"><ele>110.0</ele><time>2026-05-01T12:37:53.001Z</time></trkpt><trkpt lat="44.916258551606745" lon="9.782048990585407"><ele>110.0</ele><time>2026-05-01T12:37:54.001Z</time></trkpt><trkpt lat="44.916219312576544" lon="9.782276688499124"><ele>110.0</ele><time>2026-05-01T12:37:55.001Z</time></trkpt><trkpt lat="44.916181697213794" lon="9.782477518994042"><ele>110.0</ele><time>2026-05-01T12:37:56.001Z</time></trkpt><trkpt lat="44.91614378607207" lon="9.782669566919134"><ele>110.25</ele><time>2026-05-01T12:37:57.001Z</time></trkpt><trkpt lat="44.91610791205544" lon="9.782847465881396"><ele>110.5</ele><time>2026-05-01T12:37:58.001Z</time></trkpt><trkpt lat="44.91607423015008" lon="9.78303270135461"><ele>110.75</ele><time>2026-05-01T12:37:59.001Z</time></trkpt><trkpt lat="44.91604088611095" lon="9.783218416746907"><ele>111.0</ele><time>2026-05-01T12:38:00.001Z</time></trkpt><trkpt lat="44.91600950690202" lon="9.78340682453054"><ele>111.0</ele><time>2026-05-01T12:38:01.001Z</time></trkpt><trkpt lat="44.915973162433" lon="9.783589663783104"><ele>111.0</ele><time>2026-05-01T12:38:02.001Z</time></trkpt><trkpt lat="44.915939278784265" lon="9.783762146555025"><ele>111.0</ele><time>2026-05-01T12:38:03.001Z</time></trkpt><trkpt lat="44.91590732765993" lon="9.78391862862531"><ele>111.0</ele><time>2026-05-01T12:38:04.001Z</time></trkpt><trkpt lat="44.91587833194016" lon="9.78406438095355"><ele>111.0</ele><time>2026-05-01T12:38:05.001Z</time></trkpt><trkpt lat="44.91584698907322" lon="9.78419915428691"><ele>111.0</ele><time>2026-05-01T12:38:06.001Z</time></trkpt><trkpt lat="44.91581647320759" lon="9.78432137533049"><ele>111.0</ele><time>2026-05-01T12:38:07.001Z</time></trkpt><trkpt lat="44.91575441280209" lon="9.784399275795414"><ele>111.0</ele><time>2026-05-01T12:38:08.001Z</time></trkpt><trkpt lat="44.91577082079819" lon="9.784545432808114"><ele>111.0</ele><time>2026-05-01T12:38:09.001Z</time></trkpt><trkpt lat="44.91576200386171" lon="9.784655940088637"><ele>111.33333333333333</ele><time>2026-05-01T12:38:10.001Z</time></trkpt><trkpt lat="44.91575776834348" lon="9.784764128656667"><ele>111.66666666666666</ele><time>2026-05-01T12:38:11.001Z</time></trkpt><trkpt lat="44.915747756861045" lon="9.784886495210184"><ele>112.0</ele><time>2026-05-01T12:38:12.001Z</time></trkpt><trkpt lat="44.91573615555977" lon="9.785005869469378"><ele>112.33333333333333</ele><time>2026-05-01T12:38:13.001Z</time></trkpt><trkpt lat="44.9157207801946" lon="9.78512706984555"><ele>112.66666666666666</ele><time>2026-05-01T12:38:14.001Z</time></trkpt><trkpt lat="44.915704849941605" lon="9.785239815677722"><ele>113.0</ele><time>2026-05-01T12:38:15.001Z</time></trkpt><trkpt lat="44.91568556728442" lon="9.78533647565855"><ele>113.0</ele><time>2026-05-01T12:38:16.001Z</time></trkpt><trkpt lat="44.91566689800738" lon="9.78543379065454"><ele>113.00000000000001</ele><time>2026-05-01T12:38:17.001Z</time></trkpt><trkpt lat="44.91564733451208" lon="9.785525346104787"><ele>113.00000000000001</ele><time>2026-05-01T12:38:18.001Z</time></trkpt><trkpt lat="44.91562573489125" lon="9.785645989825376"><ele>113.0</ele><time>2026-05-01T12:38:20.001Z</time></trkpt><trkpt lat="44.91563045632429" lon="9.785754396705132"><ele>113.0</ele><time>2026-05-01T12:38:23.001Z</time></trkpt><trkpt lat="44.915851585261045" lon="9.786218245621484"><ele>113.0</ele><time>2026-05-01T12:38:25.001Z</time></trkpt><trkpt lat="44.91576934111383" lon="9.785607110075157"><ele>113.0</ele><time>2026-05-01T12:38:26.001Z</time></trkpt><trkpt lat="44.91581306762276" lon="9.785474534390971"><ele>113.0</ele><time>2026-05-01T12:38:28.001Z</time></trkpt><trkpt lat="44.91587890388663" lon="9.785445716849736"><ele>113.0</ele><time>2026-05-01T12:38:30.001Z</time></trkpt><trkpt lat="44.915989062104636" lon="9.785458609079866"><ele>110.0</ele><time>2026-05-01T12:38:32.001Z</time></trkpt><trkpt lat="44.91608009273232" lon="9.7854600701675"><ele>110.0</ele><time>2026-05-01T12:38:34.001Z</time></trkpt><trkpt lat="44.91614515694398" lon="9.785461700163967"><ele>110.0</ele><time>2026-05-01T12:38:37.001Z</time></trkpt></trkseg><trkseg><trkpt lat="44.915494629995216" lon="9.78698299472248"><ele>113.0</ele><time>2026-05-01T14:07:20Z</time></trkpt><trkpt lat="44.915616238709866" lon="9.786986756910158"><ele>113.00000000000001</ele><time>2026-05-01T14:07:22Z</time></trkpt><trkpt lat="44.91570538722354" lon="9.786991560701148"><ele>113.00000000000001</ele><time>2026-05-01T14:07:24Z</time></trkpt><trkpt lat="44.91573708388199" lon="9.786889735087094"><ele>113.0</ele><time>2026-05-01T14:07:26Z</time></trkpt><trkpt lat="44.91573038705507" lon="9.786791948133333"><ele>113.0</ele><time>2026-05-01T14:07:27Z</time></trkpt><trkpt lat="44.91570087433813" lon="9.78665050982496"><ele>113.0</ele><time>2026-05-01T14:07:28Z</time></trkpt><trkpt lat="44.9156652753621" lon="9.786509112110462"><ele>113.00000000000001</ele><time>2026-05-01T14:07:29Z</time></trkpt><trkpt lat="44.91565142942838" lon="9.78633312283444"><ele>113.00000000000001</ele><time>2026-05-01T14:07:30Z</time></trkpt><trkpt lat="44.91565091282128" lon="9.786190805371398"><ele>113.0</ele><time>2026-05-01T14:07:31Z</time></trkpt><trkpt lat="44.915656709686935" lon="9.786068283598931"><ele>113.0</ele><time>2026-05-01T14:07:32Z</time></trkpt><trkpt lat="44.915662928132775" lon="9.7859581189235"><ele>112.99999999999999</ele><time>2026-05-01T14:07:33Z</time></trkpt><trkpt lat="44.91566938553252" lon="9.785843720985344"><ele>113.0</ele><time>2026-05-01T14:07:34Z</time></trkpt><trkpt lat="44.91567844508256" lon="9.785730029372093"><ele>113.0</ele><time>2026-05-01T14:07:35Z</time></trkpt><trkpt lat="44.91569056723739" lon="9.785630710504119"><ele>113.0</ele><time>2026-05-01T14:07:36Z</time></trkpt><trkpt lat="44.915696568810404" lon="9.785494773733204"><ele>112.99999999999999</ele><time>2026-05-01T14:07:38Z</time></trkpt><trkpt lat="44.915708567785494" lon="9.78537866875656"><ele>113.0</ele><time>2026-05-01T14:07:40Z</time></trkpt><trkpt lat="44.91572351944357" lon="9.785279895284315"><ele>113.0</ele><time>2026-05-01T14:07:41Z</time></trkpt><trkpt lat="44.91573596937974" lon="9.78515704272998"><ele>113.0</ele><time>2026-05-01T14:07:42Z</time></trkpt><trkpt lat="44.91577571378966" lon="9.785010093318775"><ele>113.0</ele><time>2026-05-01T14:07:43Z</time></trkpt><trkpt lat="44.91580824684046" lon="9.784825535454262"><ele>113.0</ele><time>2026-05-01T14:07:44Z</time></trkpt><trkpt lat="44.91581835228915" lon="9.784626653840245"><ele>113.0</ele><time>2026-05-01T14:07:45Z</time></trkpt><trkpt lat="44.915858010112736" lon="9.78442499649781"><ele>113.0</ele><time>2026-05-01T14:07:46Z</time></trkpt><trkpt lat="44.91589938141366" lon="9.784210415718356"><ele>113.0</ele><time>2026-05-01T14:07:47Z</time></trkpt><trkpt lat="44.91594387845186" lon="9.783991048753352"><ele>112.33333333333333</ele><time>2026-05-01T14:07:48Z</time></trkpt><trkpt lat="44.91598926773122" lon="9.78376625631841"><ele>111.66666666666666</ele><time>2026-05-01T14:07:49Z</time></trkpt><trkpt lat="44.91603399201669" lon="9.783526981632905"><ele>111.0</ele><time>2026-05-01T14:07:50Z</time></trkpt><trkpt lat="44.916077500072156" lon="9.783266658512042"><ele>111.0</ele><time>2026-05-01T14:07:51Z</time></trkpt><trkpt lat="44.91612549365883" lon="9.78299605493628"><ele>111.0</ele><time>2026-05-01T14:07:52Z</time></trkpt><trkpt lat="44.9161731021032" lon="9.782725115579202"><ele>111.0</ele><time>2026-05-01T14:07:53Z</time></trkpt><trkpt lat="44.91622490960297" lon="9.782440311398885"><ele>110.66666666666666</ele><time>2026-05-01T14:07:54Z</time></trkpt><trkpt lat="44.9162729009675" lon="9.782160861775111"><ele>110.33333333333333</ele><time>2026-05-01T14:07:55Z</time></trkpt><trkpt lat="44.91631690894804" lon="9.78191396503612"><ele>110.0</ele><time>2026-05-01T14:07:56Z</time></trkpt><trkpt lat="44.91635918328075" lon="9.781685860657712"><ele>110.0</ele><time>2026-05-01T14:07:57Z</time></trkpt><trkpt lat="44.91639171199821" lon="9.78147968253052"><ele>110.0</ele><time>2026-05-01T14:07:58Z</time></trkpt><trkpt lat="44.91642843994714" lon="9.781285365875469"><ele>110.0</ele><time>2026-05-01T14:07:59Z</time></trkpt><trkpt lat="44.91646352415681" lon="9.78110189348678"><ele>110.0</ele><time>2026-05-01T14:08:00Z</time></trkpt><trkpt lat="44.91649405844406" lon="9.780933413670752"><ele>110.0</ele><time>2026-05-01T14:08:01Z</time></trkpt><trkpt lat="44.91651989177012" lon="9.78079035943062"><ele>110.0</ele><time>2026-05-01T14:08:02Z</time></trkpt><trkpt lat="44.916545868240206" lon="9.78068132369549"><ele>110.0</ele><time>2026-05-01T14:08:03Z</time></trkpt><trkpt lat="44.916620267900804" lon="9.780574483046134"><ele>110.0</ele><time>2026-05-01T14:08:05Z</time></trkpt><trkpt lat="44.916699365298676" lon="9.780497640845196"><ele>110.0</ele><time>2026-05-01T14:08:08Z</time></trkpt><trkpt lat="44.916701913638434" lon="9.780385658647521"><ele>109.99999999999999</ele><time>2026-05-01T14:08:11Z</time></trkpt><trkpt lat="44.91670950651317" lon="9.78029462173339"><ele>110.0</ele><time>2026-05-01T14:10:59Z</time></trkpt><trkpt lat="44.916768282961634" lon="9.780248747939416"><ele>110.0</ele><time>2026-05-01T14:11:06Z</time></trkpt><trkpt lat="44.91673918365248" lon="9.780156360836855"><ele>110.0</ele><time>2026-05-01T14:11:08Z</time></trkpt><trkpt lat="44.91668861204177" lon="9.780093499592903"><ele>109.99999999999999</ele><time>2026-05-01T14:11:10.999Z</time></trkpt><trkpt lat="44.91656963499396" lon="9.780165742131876"><ele>110.0</ele><time>2026-05-01T14:11:24Z</time></trkpt><trkpt lat="44.916556347628884" lon="9.780287552669542"><ele>110.0</ele><time>2026-05-01T14:11:25Z</time></trkpt><trkpt lat="44.9165399918097" lon="9.780430698218334"><ele>110.0</ele><time>2026-05-01T14:11:26Z</time></trkpt><trkpt lat="44.91651240948503" lon="9.780591553820893"><ele>110.0</ele><time>2026-05-01T14:11:27Z</time></trkpt><trkpt lat="44.916485143352254" lon="9.780769037580285"><ele>110.0</ele><time>2026-05-01T14:11:28Z</time></trkpt><trkpt lat="44.91645323413673" lon="9.780932489141637"><ele>110.0</ele><time>2026-05-01T14:11:29Z</time></trkpt><trkpt lat="44.916415275278915" lon="9.781140813100235"><ele>110.0</ele><time>2026-05-01T14:11:30Z</time></trkpt><trkpt lat="44.91638088800994" lon="9.781355992019495"><ele>110.0</ele><time>2026-05-01T14:11:31Z</time></trkpt><trkpt lat="44.91635007871161" lon="9.781574851092177"><ele>110.0</ele><time>2026-05-01T14:11:32Z</time></trkpt><trkpt lat="44.916312587670795" lon="9.781800287400076"><ele>110.0</ele><time>2026-05-01T14:11:33Z</time></trkpt><trkpt lat="44.91627454781022" lon="9.782003881224064"><ele>110.0</ele><time>2026-05-01T14:11:34Z</time></trkpt><trkpt lat="44.91623629374217" lon="9.78221730496731"><ele>110.0</ele><time>2026-05-01T14:11:35Z</time></trkpt><trkpt lat="44.91619793696087" lon="9.782425471452926"><ele>110.0</ele><time>2026-05-01T14:11:36Z</time></trkpt><trkpt lat="44.91615832255661" lon="9.78263248430187"><ele>110.0</ele><time>2026-05-01T14:11:37Z</time></trkpt><trkpt lat="44.916118775838754" lon="9.782837010581217"><ele>110.25</ele><time>2026-05-01T14:11:38Z</time></trkpt><trkpt lat="44.91608221606974" lon="9.783036494136953"><ele>110.5</ele><time>2026-05-01T14:11:39Z</time></trkpt><trkpt lat="44.9160445655924" lon="9.783244228912734"><ele>110.75</ele><time>2026-05-01T14:11:40Z</time></trkpt><trkpt lat="44.91600496600704" lon="9.78344447453649"><ele>111.0</ele><time>2026-05-01T14:11:41Z</time></trkpt><trkpt lat="44.91596525751329" lon="9.78363965286795"><ele>111.0</ele><time>2026-05-01T14:11:42Z</time></trkpt><trkpt lat="44.9159321034201" lon="9.783815346456006"><ele>111.0</ele><time>2026-05-01T14:11:43Z</time></trkpt><trkpt lat="44.91590262881147" lon="9.783964468381882"><ele>111.0</ele><time>2026-05-01T14:11:44Z</time></trkpt><trkpt lat="44.9158711877266" lon="9.784115757363727"><ele>111.0</ele><time>2026-05-01T14:11:45Z</time></trkpt><trkpt lat="44.915829908768586" lon="9.784270242370022"><ele>111.5</ele><time>2026-05-01T14:11:46Z</time></trkpt><trkpt lat="44.915749881962114" lon="9.784407915488122"><ele>112.0</ele><time>2026-05-01T14:11:47Z</time></trkpt><trkpt lat="44.91566234358025" lon="9.784543703338214"><ele>112.5</ele><time>2026-05-01T14:11:48Z</time></trkpt><trkpt lat="44.91555953208679" lon="9.784676412478676"><ele>113.0</ele><time>2026-05-01T14:11:49Z</time></trkpt><trkpt lat="44.91543765562918" lon="9.784805324314819"><ele>113.0</ele><time>2026-05-01T14:11:50Z</time></trkpt><trkpt lat="44.91530277834621" lon="9.784916242157633"><ele>113.0</ele><time>2026-05-01T14:11:51Z</time></trkpt><trkpt lat="44.91515392407499" lon="9.785048598143197"><ele>113.0</ele><time>2026-05-01T14:11:52Z</time></trkpt><trkpt lat="44.9150285054897" lon="9.78512556194436"><ele>113.5</ele><time>2026-05-01T14:11:53Z</time></trkpt><trkpt lat="44.91492307606056" lon="9.785207595265964"><ele>114.0</ele><time>2026-05-01T14:11:54Z</time></trkpt><trkpt lat="44.914821010955166" lon="9.785282780019951"><ele>114.5</ele><time>2026-05-01T14:11:55Z</time></trkpt><trkpt lat="44.91471928579171" lon="9.78535962104517"><ele>115.0</ele><time>2026-05-01T14:11:56Z</time></trkpt><trkpt lat="44.914630595932934" lon="9.785424853915947"><ele>115.00000000000001</ele><time>2026-05-01T14:11:57Z</time></trkpt><trkpt lat="44.91454583873148" lon="9.785473513648656"><ele>115.0</ele><time>2026-05-01T14:11:58Z</time></trkpt><trkpt lat="44.91448263602233" lon="9.785514849793259"><ele>115.0</ele><time>2026-05-01T14:11:59Z</time></trkpt><trkpt lat="44.91441470416825" lon="9.785571702254584"><ele>115.0</ele><time>2026-05-01T14:12:01Z</time></trkpt><trkpt lat="44.91435234114537" lon="9.785596519916021"><ele>115.00000000000001</ele><time>2026-05-01T14:12:03Z</time></trkpt><trkpt lat="44.914229447727394" lon="9.785668906936714"><ele>115.0</ele><time>2026-05-01T14:12:14Z</time></trkpt><trkpt lat="44.91415957695853" lon="9.785722553873882"><ele>115.0</ele><time>2026-05-01T14:12:15Z</time></trkpt><trkpt lat="44.914079582581536" lon="9.785793248887014"><ele>115.0</ele><time>2026-05-01T14:12:16Z</time></trkpt><trkpt lat="44.91400586373109" lon="9.785879649600728"><ele>115.0</ele><time>2026-05-01T14:12:17Z</time></trkpt><trkpt lat="44.91394255437395" lon="9.785992342747177"><ele>115.0</ele><time>2026-05-01T14:12:18Z</time></trkpt><trkpt lat="44.9138976532585" lon="9.78611799580781"><ele>115.0</ele><time>2026-05-01T14:12:19Z</time></trkpt><trkpt lat="44.91385925729701" lon="9.786255596782718"><ele>115.0</ele><time>2026-05-01T14:12:20Z</time></trkpt><trkpt lat="44.913845775515014" lon="9.78642469786984"><ele>115.0</ele><time>2026-05-01T14:12:21Z</time></trkpt><trkpt lat="44.913833527477465" lon="9.786603718350978"><ele>115.0</ele><time>2026-05-01T14:12:22Z</time></trkpt><trkpt lat="44.91381998245645" lon="9.786786406115109"><ele>115.0</ele><time>2026-05-01T14:12:23Z</time></trkpt><trkpt lat="44.913806109654764" lon="9.786972412750327"><ele>115.5</ele><time>2026-05-01T14:12:24Z</time></trkpt><trkpt lat="44.9137869344866" lon="9.787167183519841"><ele>116.0</ele><time>2026-05-01T14:12:25Z</time></trkpt><trkpt lat="44.91377155377403" lon="9.787350572406591"><ele>116.5</ele><time>2026-05-01T14:12:26Z</time></trkpt><trkpt lat="44.91374440771666" lon="9.787507452247555"><ele>117.0</ele><time>2026-05-01T14:12:27Z</time></trkpt><trkpt lat="44.91372853274763" lon="9.787644522670988"><ele>117.16666666666667</ele><time>2026-05-01T14:12:28Z</time></trkpt><trkpt lat="44.91371538044635" lon="9.787760550332766"><ele>117.33333333333334</ele><time>2026-05-01T14:12:29Z</time></trkpt><trkpt lat="44.91370773781531" lon="9.78784897414136"><ele>117.5</ele><time>2026-05-01T14:12:30Z</time></trkpt><trkpt lat="44.91368805918826" lon="9.787961311545699"><ele>117.66666666666667</ele><time>2026-05-01T14:12:32Z</time></trkpt><trkpt lat="44.91366731906829" lon="9.788112791734447"><ele>117.83333333333334</ele><time>2026-05-01T14:12:52.001Z</time></trkpt><trkpt lat="44.91366555641537" lon="9.788221575040536"><ele>118.0</ele><time>2026-05-01T14:12:53.001Z</time></trkpt><trkpt lat="44.91365308043342" lon="9.788372294323723"><ele>117.75</ele><time>2026-05-01T14:12:54.001Z</time></trkpt><trkpt lat="44.91363601762627" lon="9.788544866375089"><ele>117.5</ele><time>2026-05-01T14:12:55.001Z</time></trkpt><trkpt lat="44.913617734947906" lon="9.78874227236204"><ele>117.25</ele><time>2026-05-01T14:12:56.001Z</time></trkpt><trkpt lat="44.91359925512947" lon="9.788953653719046"><ele>117.0</ele><time>2026-05-01T14:12:57.001Z</time></trkpt><trkpt lat="44.91357956562505" lon="9.789189263181568"><ele>115.66666666666666</ele><time>2026-05-01T14:12:58.001Z</time></trkpt><trkpt lat="44.91355489977465" lon="9.789421343807401"><ele>114.33333333333333</ele><time>2026-05-01T14:12:59.001Z</time></trkpt><trkpt lat="44.913530566582445" lon="9.789633248890182"><ele>113.0</ele><time>2026-05-01T14:13:00.001Z</time></trkpt><trkpt lat="44.913509543127404" lon="9.789836628380334"><ele>113.0</ele><time>2026-05-01T14:13:01.001Z</time></trkpt><trkpt lat="44.913492047356705" lon="9.790027530263922"><ele>113.0</ele><time>2026-05-01T14:13:02.001Z</time></trkpt><trkpt lat="44.91347333704741" lon="9.790211139578329"><ele>113.0</ele><time>2026-05-01T14:13:03.001Z</time></trkpt><trkpt lat="44.91345021983813" lon="9.790396207548666"><ele>113.0</ele><time>2026-05-01T14:13:04.001Z</time></trkpt><trkpt lat="44.913431549779745" lon="9.790579400163812"><ele>113.25</ele><time>2026-05-01T14:13:05.001Z</time></trkpt><trkpt lat="44.91341397115266" lon="9.790761560266079"><ele>113.5</ele><time>2026-05-01T14:13:06.001Z</time></trkpt><trkpt lat="44.913390910811565" lon="9.790952926770586"><ele>113.75</ele><time>2026-05-01T14:13:07.001Z</time></trkpt><trkpt lat="44.91336728519712" lon="9.791157138224456"><ele>114.0</ele><time>2026-05-01T14:13:08.001Z</time></trkpt><trkpt lat="44.913349092307826" lon="9.791371142945593"><ele>114.0</ele><time>2026-05-01T14:13:09.001Z</time></trkpt><trkpt lat="44.91332833453951" lon="9.791605956458667"><ele>114.0</ele><time>2026-05-01T14:13:10.001Z</time></trkpt><trkpt lat="44.91330501464482" lon="9.791844681997926"><ele>114.0</ele><time>2026-05-01T14:13:11.001Z</time></trkpt><trkpt lat="44.91327969649254" lon="9.792065541949269"><ele>114.0</ele><time>2026-05-01T14:13:12.001Z</time></trkpt><trkpt lat="44.91326215317132" lon="9.792281014085702"><ele>114.0</ele><time>2026-05-01T14:13:13.001Z</time></trkpt><trkpt lat="44.913232913154054" lon="9.792476184904254"><ele>114.0</ele><time>2026-05-01T14:13:14.001Z</time></trkpt><trkpt lat="44.91321707181108" lon="9.792618502015848"><ele>114.0</ele><time>2026-05-01T14:13:15.001Z</time></trkpt><trkpt lat="44.91320426518829" lon="9.79270611587729"><ele>114.0</ele><time>2026-05-01T14:13:15.999Z</time></trkpt><trkpt lat="44.91312735171915" lon="9.792753332791907"><ele>114.0</ele><time>2026-05-01T14:13:18.999Z</time></trkpt><trkpt lat="44.913197509660705" lon="9.792659348441079"><ele>114.0</ele><time>2026-05-01T14:13:26.999Z</time></trkpt><trkpt lat="44.91314038799198" lon="9.792576681574145"><ele>114.0</ele><time>2026-05-01T14:13:29.999Z</time></trkpt><trkpt lat="44.913067512579865" lon="9.792558866438"><ele>114.0</ele><time>2026-05-01T14:13:30.999Z</time></trkpt><trkpt lat="44.91297784474831" lon="9.792564909542309"><ele>114.0</ele><time>2026-05-01T14:13:31.999Z</time></trkpt><trkpt lat="44.91287324865505" lon="9.792583038741826"><ele>114.0</ele><time>2026-05-01T14:13:32.999Z</time></trkpt><trkpt lat="44.91275002426707" lon="9.792585867529356"><ele>114.0</ele><time>2026-05-01T14:13:33.999Z</time></trkpt><trkpt lat="44.912620472466635" lon="9.792572730028711"><ele>114.0</ele><time>2026-05-01T14:13:34.999Z</time></trkpt><trkpt lat="44.91248014187429" lon="9.792554967850627"><ele>114.0</ele><time>2026-05-01T14:13:35.999Z</time></trkpt><trkpt lat="44.91233561069106" lon="9.792540716341321"><ele>114.5</ele><time>2026-05-01T14:13:36.999Z</time></trkpt><trkpt lat="44.91218836503351" lon="9.79252714106766"><ele>115.0</ele><time>2026-05-01T14:13:37.999Z</time></trkpt><trkpt lat="44.91205327677213" lon="9.792517602569303"><ele>115.5</ele><time>2026-05-01T14:13:38.999Z</time></trkpt><trkpt lat="44.911929561474146" lon="9.792505647520922"><ele>116.0</ele><time>2026-05-01T14:13:39.999Z</time></trkpt><trkpt lat="44.91181243644024" lon="9.79248708917125"><ele>116.0</ele><time>2026-05-01T14:13:40.999Z</time></trkpt><trkpt lat="44.91169859702823" lon="9.792456911688932"><ele>116.0</ele><time>2026-05-01T14:13:41.999Z</time></trkpt><trkpt lat="44.91157813265204" lon="9.792436945032838"><ele>116.0</ele><time>2026-05-01T14:13:43Z</time></trkpt><trkpt lat="44.91144161745762" lon="9.792438736375424"><ele>116.0</ele><time>2026-05-01T14:13:44Z</time></trkpt><trkpt lat="44.91130520504289" lon="9.792417083134053"><ele>116.0</ele><time>2026-05-01T14:13:45Z</time></trkpt><trkpt lat="44.911171852804124" lon="9.792406908972113"><ele>116.0</ele><time>2026-05-01T14:13:46Z</time></trkpt><trkpt lat="44.91102751447018" lon="9.792392635955778"><ele>116.0</ele><time>2026-05-01T14:13:47Z</time></trkpt><trkpt lat="44.91090951533867" lon="9.792399877828272"><ele>116.0</ele><time>2026-05-01T14:13:48Z</time></trkpt><trkpt lat="44.910809602568726" lon="9.792370490942126"><ele>116.5</ele><time>2026-05-01T14:13:49Z</time></trkpt><trkpt lat="44.91067948760905" lon="9.792359555625513"><ele>117.0</ele><time>2026-05-01T14:13:50Z</time></trkpt><trkpt lat="44.91056126396486" lon="9.792349802443947"><ele>117.5</ele><time>2026-05-01T14:13:51Z</time></trkpt><trkpt lat="44.91044951005222" lon="9.792340583005247"><ele>118.0</ele><time>2026-05-01T14:13:52Z</time></trkpt><trkpt lat="44.91035502073393" lon="9.792332787843346"><ele>118.00000000000001</ele><time>2026-05-01T14:13:53Z</time></trkpt><trkpt lat="44.91028683872133" lon="9.792323341167597"><ele>118.0</ele><time>2026-05-01T14:13:54Z</time></trkpt><trkpt lat="44.91019802580347" lon="9.792311405033571"><ele>118.0</ele><time>2026-05-01T14:13:56Z</time></trkpt><trkpt lat="44.91013359873898" lon="9.792381727179249"><ele>118.0</ele><time>2026-05-01T14:13:59Z</time></trkpt><trkpt lat="44.91010044982418" lon="9.792478027266954"><ele>118.00000000000001</ele><time>2026-05-01T14:14:00Z</time></trkpt><trkpt lat="44.91007781067304" lon="9.792627997352273"><ele>118.0</ele><time>2026-05-01T14:14:01Z</time></trkpt><trkpt lat="44.910052058886386" lon="9.792785824879081"><ele>118.25</ele><time>2026-05-01T14:14:02Z</time></trkpt><trkpt lat="44.90998728619512" lon="9.792944015304949"><ele>118.5</ele><time>2026-05-01T14:14:03Z</time></trkpt><trkpt lat="44.9099575671564" lon="9.793131354159794"><ele>118.75</ele><time>2026-05-01T14:14:04Z</time></trkpt><trkpt lat="44.90990625723317" lon="9.793327534869137"><ele>119.0</ele><time>2026-05-01T14:14:05Z</time></trkpt><trkpt lat="44.90986760112881" lon="9.793537030341977"><ele>118.33333333333333</ele><time>2026-05-01T14:14:06Z</time></trkpt><trkpt lat="44.90980200972137" lon="9.793746738881808"><ele>117.66666666666666</ele><time>2026-05-01T14:14:07Z</time></trkpt><trkpt lat="44.909770356773485" lon="9.793985013016192"><ele>117.0</ele><time>2026-05-01T14:14:08Z</time></trkpt><trkpt lat="44.909714543621675" lon="9.794215497262849"><ele>116.66666666666666</ele><time>2026-05-01T14:14:09Z</time></trkpt><trkpt lat="44.90966123067121" lon="9.794455411509594"><ele>116.33333333333333</ele><time>2026-05-01T14:14:10Z</time></trkpt><trkpt lat="44.90960441609117" lon="9.794694444200296"><ele>116.0</ele><time>2026-05-01T14:14:11Z</time></trkpt><trkpt lat="44.909551819673034" lon="9.79489530270305"><ele>116.0</ele><time>2026-05-01T14:14:12Z</time></trkpt><trkpt lat="44.90949562474475" lon="9.795085044822487"><ele>116.0</ele><time>2026-05-01T14:14:13Z</time></trkpt><trkpt lat="44.90942994942083" lon="9.795280773672152"><ele>116.0</ele><time>2026-05-01T14:14:14Z</time></trkpt><trkpt lat="44.90933104951663" lon="9.795451951581507"><ele>115.75</ele><time>2026-05-01T14:14:15Z</time></trkpt><trkpt lat="44.90926058119487" lon="9.795630798429267"><ele>115.5</ele><time>2026-05-01T14:14:16Z</time></trkpt><trkpt lat="44.90919543121042" lon="9.795795888833727"><ele>115.25</ele><time>2026-05-01T14:14:17Z</time></trkpt><trkpt lat="44.9091411312957" lon="9.795981693738256"><ele>115.0</ele><time>2026-05-01T14:14:18Z</time></trkpt><trkpt lat="44.90906893812058" lon="9.796162615022855"><ele>115.5</ele><time>2026-05-01T14:14:19Z</time></trkpt><trkpt lat="44.909003321295586" lon="9.796329746942508"><ele>116.0</ele><time>2026-05-01T14:14:20Z</time></trkpt><trkpt lat="44.90893865017481" lon="9.79649515323164"><ele>116.5</ele><time>2026-05-01T14:14:21Z</time></trkpt><trkpt lat="44.908872987810085" lon="9.796656162088484"><ele>117.0</ele><time>2026-05-01T14:14:22Z</time></trkpt><trkpt lat="44.90880998930664" lon="9.796809463406708"><ele>117.25</ele><time>2026-05-01T14:14:23Z</time></trkpt><trkpt lat="44.90875532946026" lon="9.796951890203182"><ele>117.5</ele><time>2026-05-01T14:14:24Z</time></trkpt><trkpt lat="44.90871386897188" lon="9.797106269669044"><ele>117.75</ele><time>2026-05-01T14:14:25Z</time></trkpt><trkpt lat="44.90868820120995" lon="9.79728334101988"><ele>118.0</ele><time>2026-05-01T14:14:26Z</time></trkpt><trkpt lat="44.90866088453348" lon="9.797453330368038"><ele>118.0</ele><time>2026-05-01T14:14:27Z</time></trkpt><trkpt lat="44.90866155421909" lon="9.79765228348006"><ele>118.0</ele><time>2026-05-01T14:14:28Z</time></trkpt><trkpt lat="44.90865780601627" lon="9.797863472490905"><ele>118.0</ele><time>2026-05-01T14:14:29Z</time></trkpt><trkpt lat="44.90868376352457" lon="9.798082180153305"><ele>118.0</ele><time>2026-05-01T14:14:30Z</time></trkpt><trkpt lat="44.90868864857824" lon="9.798264020927183"><ele>117.80000000000001</ele><time>2026-05-01T14:14:31Z</time></trkpt><trkpt lat="44.90870393846706" lon="9.798429766130852"><ele>117.60000000000001</ele><time>2026-05-01T14:14:32Z</time></trkpt><trkpt lat="44.90871548209176" lon="9.798575505252888"><ele>117.39999999999999</ele><time>2026-05-01T14:14:33Z</time></trkpt><trkpt lat="44.908722331013024" lon="9.79872230604821"><ele>117.19999999999999</ele><time>2026-05-01T14:14:34Z</time></trkpt><trkpt lat="44.908738390335515" lon="9.79888655122865"><ele>117.0</ele><time>2026-05-01T14:14:35Z</time></trkpt><trkpt lat="44.90873021696881" lon="9.799058813328358"><ele>117.19999999999999</ele><time>2026-05-01T14:14:36Z</time></trkpt><trkpt lat="44.90872319217212" lon="9.799221268395579"><ele>117.39999999999999</ele><time>2026-05-01T14:14:37Z</time></trkpt><trkpt lat="44.90869788691524" lon="9.799362814558789"><ele>117.60000000000001</ele><time>2026-05-01T14:14:38Z</time></trkpt><trkpt lat="44.90868882872744" lon="9.799502603502306"><ele>117.80000000000001</ele><time>2026-05-01T14:14:39Z</time></trkpt><trkpt lat="44.90867976061537" lon="9.79965311523177"><ele>118.0</ele><time>2026-05-01T14:14:40Z</time></trkpt><trkpt lat="44.90867090740256" lon="9.799819247466347"><ele>118.0</ele><time>2026-05-01T14:14:41Z</time></trkpt><trkpt lat="44.908662510655134" lon="9.799992051758666"><ele>118.0</ele><time>2026-05-01T14:14:42Z</time></trkpt><trkpt lat="44.90865386640855" lon="9.800169949599995"><ele>118.0</ele><time>2026-05-01T14:14:43Z</time></trkpt><trkpt lat="44.90864428830801" lon="9.800356335258998"><ele>118.0</ele><time>2026-05-01T14:14:44Z</time></trkpt><trkpt lat="44.90864860014415" lon="9.800548038204747"><ele>118.0</ele><time>2026-05-01T14:14:45Z</time></trkpt><trkpt lat="44.90862729222041" lon="9.8007420413873"><ele>118.0</ele><time>2026-05-01T14:14:46Z</time></trkpt><trkpt lat="44.908602431371115" lon="9.800938742629603"><ele>118.0</ele><time>2026-05-01T14:14:47Z</time></trkpt><trkpt lat="44.90857265777555" lon="9.801140353221344"><ele>118.0</ele><time>2026-05-01T14:14:48Z</time></trkpt><trkpt lat="44.90854618700802" lon="9.801336112615711"><ele>117.75</ele><time>2026-05-01T14:14:49.001Z</time></trkpt><trkpt lat="44.90852231754103" lon="9.801513121964105"><ele>117.5</ele><time>2026-05-01T14:14:50.001Z</time></trkpt><trkpt lat="44.90849716918292" lon="9.801680786198903"><ele>117.25</ele><time>2026-05-01T14:14:51.001Z</time></trkpt><trkpt lat="44.908471396420055" lon="9.801844069294697"><ele>117.0</ele><time>2026-05-01T14:14:52.001Z</time></trkpt><trkpt lat="44.908426505125654" lon="9.801990106124624"><ele>116.66666666666667</ele><time>2026-05-01T14:14:53.001Z</time></trkpt><trkpt lat="44.90840778944358" lon="9.802130578433895"><ele>116.33333333333334</ele><time>2026-05-01T14:14:54.001Z</time></trkpt><trkpt lat="44.908362116396574" lon="9.802231723804791"><ele>116.0</ele><time>2026-05-01T14:14:55.001Z</time></trkpt><trkpt lat="44.90829957392257" lon="9.802307720398613"><ele>115.66666666666667</ele><time>2026-05-01T14:14:56.001Z</time></trkpt><trkpt lat="44.90821714999118" lon="9.802321150648783"><ele>115.33333333333334</ele><time>2026-05-01T14:14:57.001Z</time></trkpt><trkpt lat="44.90815540981136" lon="9.802340326573626"><ele>115.0</ele><time>2026-05-01T14:14:58.001Z</time></trkpt><trkpt lat="44.908077770812916" lon="9.802245305163241"><ele>115.0</ele><time>2026-05-01T14:14:59.001Z</time></trkpt><trkpt lat="44.907981377864886" lon="9.802237708190274"><ele>115.0</ele><time>2026-05-01T14:15:00.001Z</time></trkpt><trkpt lat="44.90787739916445" lon="9.802230401478797"><ele>115.0</ele><time>2026-05-01T14:15:01.001Z</time></trkpt><trkpt lat="44.90776056435065" lon="9.802238615719947"><ele>115.0</ele><time>2026-05-01T14:15:02.001Z</time></trkpt><trkpt lat="44.90763772968744" lon="9.802213656267122"><ele>115.0</ele><time>2026-05-01T14:15:03.001Z</time></trkpt><trkpt lat="44.907508772330694" lon="9.802202786074163"><ele>115.6</ele><time>2026-05-01T14:15:04.001Z</time></trkpt><trkpt lat="44.90739040516271" lon="9.802191703185764"><ele>116.2</ele><time>2026-05-01T14:15:05.001Z</time></trkpt><trkpt lat="44.90728538187352" lon="9.802179696105995"><ele>116.80000000000001</ele><time>2026-05-01T14:15:06.001Z</time></trkpt><trkpt lat="44.907179738897284" lon="9.802163449985304"><ele>117.4</ele><time>2026-05-01T14:15:07.001Z</time></trkpt><trkpt lat="44.90707517255257" lon="9.80213189250934"><ele>118.0</ele><time>2026-05-01T14:15:08.001Z</time></trkpt><trkpt lat="44.906982848059265" lon="9.802084971636342"><ele>118.00000000000001</ele><time>2026-05-01T14:15:09.001Z</time></trkpt><trkpt lat="44.90690430470919" lon="9.802049645798727"><ele>118.0</ele><time>2026-05-01T14:15:10.001Z</time></trkpt><trkpt lat="44.906837447126186" lon="9.8020210737341"><ele>118.0</ele><time>2026-05-01T14:15:11.001Z</time></trkpt><trkpt lat="44.90675529773452" lon="9.802006427076439"><ele>118.0</ele><time>2026-05-01T14:15:12.001Z</time></trkpt><trkpt lat="44.906687667714095" lon="9.801968657602202"><ele>118.00000000000001</ele><time>2026-05-01T14:15:13.001Z</time></trkpt><trkpt lat="44.906586689681596" lon="9.80191691348475"><ele>118.0</ele><time>2026-05-01T14:15:15.001Z</time></trkpt><trkpt lat="44.906503634573795" lon="9.802058760895086"><ele>118.60000000000001</ele><time>2026-05-01T14:15:17.001Z</time></trkpt><trkpt lat="44.90649421952125" lon="9.802187837267876"><ele>119.20000000000002</ele><time>2026-05-01T14:15:18.001Z</time></trkpt><trkpt lat="44.906451646118285" lon="9.802275864614277"><ele>119.8</ele><time>2026-05-01T14:15:19.001Z</time></trkpt><trkpt lat="44.90631933543613" lon="9.80221873969078"><ele>120.4</ele><time>2026-05-01T14:15:21.001Z</time></trkpt><trkpt lat="44.90622901330962" lon="9.80217525692087"><ele>121.0</ele><time>2026-05-01T14:15:21.999Z</time></trkpt><trkpt lat="44.9060878221843" lon="9.802125820234187"><ele>121.0</ele><time>2026-05-01T14:15:22.999Z</time></trkpt><trkpt lat="44.90593839316649" lon="9.802079867337762"><ele>121.0</ele><time>2026-05-01T14:15:23.999Z</time></trkpt><trkpt lat="44.90579904873302" lon="9.802040728832447"><ele>121.0</ele><time>2026-05-01T14:15:24.999Z</time></trkpt><trkpt lat="44.905686348083144" lon="9.802009771051752"><ele>121.0</ele><time>2026-05-01T14:15:25.999Z</time></trkpt><trkpt lat="44.90559088460943" lon="9.801983548152279"><ele>120.6</ele><time>2026-05-01T14:15:26.999Z</time></trkpt><trkpt lat="44.90552779637232" lon="9.801979544889672"><ele>120.19999999999999</ele><time>2026-05-01T14:15:27.999Z</time></trkpt><trkpt lat="44.90545930880309" lon="9.801943896396793"><ele>119.80000000000001</ele><time>2026-05-01T14:15:33.999Z</time></trkpt><trkpt lat="44.905529468988696" lon="9.801779518769505"><ele>119.4</ele><time>2026-05-01T14:15:35.999Z</time></trkpt><trkpt lat="44.90556114393745" lon="9.801599386049178"><ele>119.0</ele><time>2026-05-01T14:15:37.999Z</time></trkpt><trkpt lat="44.90557811439163" lon="9.801461586171284"><ele>118.99999999999999</ele><time>2026-05-01T14:15:39.999Z</time></trkpt><trkpt lat="44.905592611251485" lon="9.801361735573566"><ele>119.0</ele><time>2026-05-01T14:15:59Z</time></trkpt><trkpt lat="44.90564183731804" lon="9.801207784281413"><ele>119.0</ele><time>2026-05-01T14:16:01Z</time></trkpt><trkpt lat="44.905691883682685" lon="9.80110890198387"><ele>119.0</ele><time>2026-05-01T14:16:02Z</time></trkpt><trkpt lat="44.90574323639031" lon="9.801020063755354"><ele>118.99999999999999</ele><time>2026-05-01T14:16:03Z</time></trkpt><trkpt lat="44.90577711215367" lon="9.800936880780903"><ele>119.0</ele><time>2026-05-01T14:16:04Z</time></trkpt><trkpt lat="44.90580627582243" lon="9.800816200466565"><ele>118.66666666666666</ele><time>2026-05-01T14:16:05Z</time></trkpt><trkpt lat="44.905826315470016" lon="9.800689852704759"><ele>118.33333333333333</ele><time>2026-05-01T14:16:06Z</time></trkpt><trkpt lat="44.90584795357077" lon="9.800565743590269"><ele>118.0</ele><time>2026-05-01T14:16:07Z</time></trkpt><trkpt lat="44.90586022395332" lon="9.800474610224718"><ele>117.66666666666666</ele><time>2026-05-01T14:16:08Z</time></trkpt><trkpt lat="44.90587943605771" lon="9.800356117404721"><ele>117.33333333333333</ele><time>2026-05-01T14:16:09Z</time></trkpt><trkpt lat="44.9058976810585" lon="9.800233148519965"><ele>117.0</ele><time>2026-05-01T14:16:10Z</time></trkpt><trkpt lat="44.90591445737189" lon="9.80013485530621"><ele>117.0</ele><time>2026-05-01T14:16:11Z</time></trkpt><trkpt lat="44.90595017067339" lon="9.799979223986359"><ele>117.0</ele><time>2026-05-01T14:16:13Z</time></trkpt><trkpt lat="44.90596061090611" lon="9.799861795153573"><ele>117.0</ele><time>2026-05-01T14:16:15Z</time></trkpt><trkpt lat="44.905906978436114" lon="9.799798133670862"><ele>117.0</ele><time>2026-05-01T14:16:19Z</time></trkpt><trkpt lat="44.90584404975141" lon="9.799773247323158"><ele>117.0</ele><time>2026-05-01T14:16:21Z</time></trkpt><trkpt lat="44.905779047347785" lon="9.79977178555885"><ele>117.0</ele><time>2026-05-01T14:16:23Z</time></trkpt><trkpt lat="44.90571633318649" lon="9.799751665697054"><ele>117.5</ele><time>2026-05-01T14:16:27Z</time></trkpt><trkpt lat="44.90561738545209" lon="9.799729326074216"><ele>118.0</ele><time>2026-05-01T14:17:28Z</time></trkpt><trkpt lat="44.90554652111993" lon="9.79971323009724"><ele>118.5</ele><time>2026-05-01T14:17:29Z</time></trkpt><trkpt lat="44.9054800026188" lon="9.799699617143796"><ele>119.0</ele><time>2026-05-01T14:17:30Z</time></trkpt><trkpt lat="44.90540069015618" lon="9.79966870720117"><ele>119.5</ele><time>2026-05-01T14:17:31Z</time></trkpt><trkpt lat="44.90532478427195" lon="9.79964173083074"><ele>120.0</ele><time>2026-05-01T14:17:32Z</time></trkpt><trkpt lat="44.90525696721053" lon="9.79961582160892"><ele>120.0</ele><time>2026-05-01T14:17:33Z</time></trkpt><trkpt lat="44.90518939755261" lon="9.799590530441517"><ele>120.0</ele><time>2026-05-01T14:17:34Z</time></trkpt><trkpt lat="44.90507829149236" lon="9.799521230694957"><ele>120.0</ele><time>2026-05-01T14:17:36Z</time></trkpt><trkpt lat="44.905050945662175" lon="9.79941509484069"><ele>120.0</ele><time>2026-05-01T14:17:38Z</time></trkpt><trkpt lat="44.90505868610533" lon="9.799319344894073"><ele>120.0</ele><time>2026-05-01T14:17:39Z</time></trkpt><trkpt lat="44.90507958727829" lon="9.79918957471809"><ele>120.0</ele><time>2026-05-01T14:17:40Z</time></trkpt><trkpt lat="44.905113243099535" lon="9.799023066225427"><ele>120.5</ele><time>2026-05-01T14:17:41Z</time></trkpt><trkpt lat="44.905153860676556" lon="9.798849720832894"><ele>121.0</ele><time>2026-05-01T14:17:42Z</time></trkpt><trkpt lat="44.90519433458513" lon="9.798662452870861"><ele>121.5</ele><time>2026-05-01T14:17:43Z</time></trkpt><trkpt lat="44.905231608707496" lon="9.798471739377092"><ele>122.0</ele><time>2026-05-01T14:17:44Z</time></trkpt><trkpt lat="44.905265491809885" lon="9.79829329356773"><ele>122.0</ele><time>2026-05-01T14:17:45Z</time></trkpt><trkpt lat="44.9052962117942" lon="9.798134479625613"><ele>121.99999999999999</ele><time>2026-05-01T14:17:46Z</time></trkpt><trkpt lat="44.90533266257579" lon="9.797977429597628"><ele>121.99999999999999</ele><time>2026-05-01T14:17:47Z</time></trkpt><trkpt lat="44.90536410482617" lon="9.797859653797039"><ele>122.0</ele><time>2026-05-01T14:17:48Z</time></trkpt><trkpt lat="44.905384751692004" lon="9.797758407031147"><ele>122.0</ele><time>2026-05-01T14:17:49Z</time></trkpt><trkpt lat="44.90536664448963" lon="9.797599986877731"><ele>121.66666666666666</ele><time>2026-05-01T14:17:51Z</time></trkpt><trkpt lat="44.905322451465366" lon="9.79753173149218"><ele>121.33333333333333</ele><time>2026-05-01T14:17:52Z</time></trkpt><trkpt lat="44.90527193591635" lon="9.797462184523754"><ele>121.0</ele><time>2026-05-01T14:17:53Z</time></trkpt><trkpt lat="44.9052092332215" lon="9.797387064307825"><ele>120.66666666666666</ele><time>2026-05-01T14:17:54Z</time></trkpt><trkpt lat="44.90513903041417" lon="9.797349720731667"><ele>120.33333333333333</ele><time>2026-05-01T14:17:55Z</time></trkpt><trkpt lat="44.90504845812125" lon="9.79731416375462"><ele>120.0</ele><time>2026-05-01T14:17:56Z</time></trkpt><trkpt lat="44.90491781134245" lon="9.797277762652937"><ele>120.0</ele><time>2026-05-01T14:17:57Z</time></trkpt><trkpt lat="44.90474511420659" lon="9.797242472291545"><ele>120.0</ele><time>2026-05-01T14:17:58Z</time></trkpt><trkpt lat="44.904598597223824" lon="9.797205138046957"><ele>120.0</ele><time>2026-05-01T14:17:59Z</time></trkpt><trkpt lat="44.90448435930076" lon="9.797173929558927"><ele>120.0</ele><time>2026-05-01T14:18:00Z</time></trkpt><trkpt lat="44.90440580729488" lon="9.797150613005257"><ele>120.0</ele><time>2026-05-01T14:18:01Z</time></trkpt><trkpt lat="44.90432792451925" lon="9.797108922476184"><ele>120.0</ele><time>2026-05-01T14:18:03Z</time></trkpt><trkpt lat="44.90426020520227" lon="9.79706833822671"><ele>120.0</ele><time>2026-05-01T14:18:09Z</time></trkpt><trkpt lat="44.90423133424199" lon="9.796921165183083"><ele>120.0</ele><time>2026-05-01T14:18:13Z</time></trkpt><trkpt lat="44.90425818692014" lon="9.796799111442791"><ele>120.0</ele><time>2026-05-01T14:18:14Z</time></trkpt><trkpt lat="44.90428382203391" lon="9.79665606757717"><ele>120.0</ele><time>2026-05-01T14:18:15Z</time></trkpt><trkpt lat="44.90430507090174" lon="9.79649587887243"><ele>120.0</ele><time>2026-05-01T14:18:16Z</time></trkpt><trkpt lat="44.90432384048022" lon="9.79631216442837"><ele>120.0</ele><time>2026-05-01T14:18:17Z</time></trkpt><trkpt lat="44.90435049575654" lon="9.796055102058071"><ele>120.0</ele><time>2026-05-01T14:18:18Z</time></trkpt><trkpt lat="44.90437570759025" lon="9.795726653309112"><ele>120.0</ele><time>2026-05-01T14:18:19Z</time></trkpt><trkpt lat="44.90440067010921" lon="9.795452692379575"><ele>120.0</ele><time>2026-05-01T14:18:20Z</time></trkpt><trkpt lat="44.9044212374651" lon="9.795231613820468"><ele>120.0</ele><time>2026-05-01T14:18:21Z</time></trkpt><trkpt lat="44.904444535924846" lon="9.795030871512559"><ele>120.0</ele><time>2026-05-01T14:18:22Z</time></trkpt><trkpt lat="44.904458997561434" lon="9.794881554941215"><ele>120.0</ele><time>2026-05-01T14:18:23.001Z</time></trkpt><trkpt lat="44.904475243220105" lon="9.794747530546404"><ele>120.0</ele><time>2026-05-01T14:18:24.001Z</time></trkpt><trkpt lat="44.90448381543481" lon="9.794657523074669"><ele>120.0</ele><time>2026-05-01T14:18:25.001Z</time></trkpt><trkpt lat="44.90446897410251" lon="9.794556728033749"><ele>120.0</ele><time>2026-05-01T14:18:27.001Z</time></trkpt><trkpt lat="44.90436712143168" lon="9.794560171412083"><ele>120.0</ele><time>2026-05-01T14:18:30.001Z</time></trkpt><trkpt lat="44.90431197706607" lon="9.794604235274779"><ele>120.33333333333333</ele><time>2026-05-01T14:18:31.001Z</time></trkpt><trkpt lat="44.90423529981724" lon="9.794627911197837"><ele>120.66666666666666</ele><time>2026-05-01T14:18:32.001Z</time></trkpt><trkpt lat="44.904145319585126" lon="9.794617432254912"><ele>121.0</ele><time>2026-05-01T14:18:33.001Z</time></trkpt><trkpt lat="44.90403435920189" lon="9.794590115825635"><ele>121.33333333333333</ele><time>2026-05-01T14:18:34.001Z</time></trkpt><trkpt lat="44.903954082290554" lon="9.794569338808063"><ele>121.66666666666666</ele><time>2026-05-01T14:18:35.001Z</time></trkpt><trkpt lat="44.90388313241649" lon="9.79455357466745"><ele>122.0</ele><time>2026-05-01T14:18:36.001Z</time></trkpt><trkpt lat="44.903756135016685" lon="9.7945308226071"><ele>122.0</ele><time>2026-05-01T14:18:38.001Z</time></trkpt><trkpt lat="44.9036501545208" lon="9.794508021459205"><ele>122.0</ele><time>2026-05-01T14:18:39.001Z</time></trkpt><trkpt lat="44.90351603039109" lon="9.794483033173698"><ele>122.0</ele><time>2026-05-01T14:18:40.001Z</time></trkpt><trkpt lat="44.903374873108255" lon="9.79446995248816"><ele>122.0</ele><time>2026-05-01T14:18:41.001Z</time></trkpt><trkpt lat="44.903251700812966" lon="9.794455329992676"><ele>122.75</ele><time>2026-05-01T14:18:42.001Z</time></trkpt><trkpt lat="44.90314532524246" lon="9.794391177666796"><ele>123.5</ele><time>2026-05-01T14:18:43.001Z</time></trkpt><trkpt lat="44.903038417898244" lon="9.794344852726859"><ele>124.25</ele><time>2026-05-01T14:18:44.001Z</time></trkpt><trkpt lat="44.90291801614789" lon="9.794275478715207"><ele>125.0</ele><time>2026-05-01T14:18:45.001Z</time></trkpt><trkpt lat="44.90279516484626" lon="9.794191503214023"><ele>125.75</ele><time>2026-05-01T14:18:46.001Z</time></trkpt><trkpt lat="44.90267075593713" lon="9.794081854490114"><ele>126.5</ele><time>2026-05-01T14:18:47.001Z</time></trkpt><trkpt lat="44.90254352025592" lon="9.794027823805447"><ele>127.25</ele><time>2026-05-01T14:18:48.001Z</time></trkpt><trkpt lat="44.902416063059235" lon="9.793984505840744"><ele>128.0</ele><time>2026-05-01T14:18:49.001Z</time></trkpt><trkpt lat="44.90228566934781" lon="9.793937098474403"><ele>128.0</ele><time>2026-05-01T14:18:50.001Z</time></trkpt><trkpt lat="44.902153652304044" lon="9.793895044461042"><ele>128.0</ele><time>2026-05-01T14:18:51.001Z</time></trkpt><trkpt lat="44.902033337949995" lon="9.79385779014248"><ele>128.0</ele><time>2026-05-01T14:18:52.001Z</time></trkpt><trkpt lat="44.9019254642797" lon="9.793824387969558"><ele>128.0</ele><time>2026-05-01T14:18:53.001Z</time></trkpt><trkpt lat="44.90181847299004" lon="9.793791259029632"><ele>127.66666666666666</ele><time>2026-05-01T14:18:54.001Z</time></trkpt><trkpt lat="44.901731957520695" lon="9.793763207200408"><ele>127.33333333333333</ele><time>2026-05-01T14:18:55.001Z</time></trkpt><trkpt lat="44.9016512143571" lon="9.793731281448578"><ele>127.0</ele><time>2026-05-01T14:18:56.001Z</time></trkpt><trkpt lat="44.90158511504094" lon="9.793712494975665"><ele>126.66666666666666</ele><time>2026-05-01T14:18:57.001Z</time></trkpt><trkpt lat="44.901486353182385" lon="9.793749762796123"><ele>126.33333333333333</ele><time>2026-05-01T14:18:59.001Z</time></trkpt><trkpt lat="44.90144251476616" lon="9.793823064218524"><ele>126.0</ele><time>2026-05-01T14:19:00.001Z</time></trkpt><trkpt lat="44.90135463365079" lon="9.793832611257377"><ele>126.0</ele><time>2026-05-01T14:19:02.001Z</time></trkpt><trkpt lat="44.90123880085803" lon="9.793888152677646"><ele>126.0</ele><time>2026-05-01T14:19:04.001Z</time></trkpt><trkpt lat="44.90119096998352" lon="9.793958209659301"><ele>126.0</ele><time>2026-05-01T14:19:05.001Z</time></trkpt><trkpt lat="44.90117257108523" lon="9.794054132306746"><ele>126.0</ele><time>2026-05-01T14:19:06.001Z</time></trkpt><trkpt lat="44.901163912232676" lon="9.794144655911118"><ele>126.0</ele><time>2026-05-01T14:19:07.001Z</time></trkpt><trkpt lat="44.901170734749265" lon="9.794268121453307"><ele>126.0</ele><time>2026-05-01T14:19:09.001Z</time></trkpt><trkpt lat="44.90103086048233" lon="9.794215046241113"><ele>126.0</ele><time>2026-05-01T14:19:10.001Z</time></trkpt><trkpt lat="44.90092808608339" lon="9.794186135237739"><ele>126.0</ele><time>2026-05-01T14:19:12.001Z</time></trkpt><trkpt lat="44.90081003350983" lon="9.794111504873962"><ele>126.0</ele><time>2026-05-01T14:19:14.001Z</time></trkpt><trkpt lat="44.90075010596936" lon="9.794058756661887"><ele>126.0</ele><time>2026-05-01T14:19:15.001Z</time></trkpt><trkpt lat="44.9006543874678" lon="9.793937446056086"><ele>126.0</ele><time>2026-05-01T14:19:17.001Z</time></trkpt><trkpt lat="44.9005963368072" lon="9.793872502366904"><ele>126.0</ele><time>2026-05-01T14:19:18.001Z</time></trkpt><trkpt lat="44.90054331310176" lon="9.793816624335749"><ele>126.0</ele><time>2026-05-01T14:19:19.001Z</time></trkpt><trkpt lat="44.90047389134615" lon="9.793779620813666"><ele>126.0</ele><time>2026-05-01T14:19:21.001Z</time></trkpt><trkpt lat="44.900409761118546" lon="9.79376984865258"><ele>126.0</ele><time>2026-05-01T14:19:26.002Z</time></trkpt><trkpt lat="44.900355321419575" lon="9.793959532984632"><ele>126.0</ele><time>2026-05-01T14:19:28.002Z</time></trkpt><trkpt lat="44.90035655815469" lon="9.794085744193964"><ele>126.0</ele><time>2026-05-01T14:19:29.002Z</time></trkpt><trkpt lat="44.90034059098526" lon="9.794178807147087"><ele>126.0</ele><time>2026-05-01T14:19:30.002Z</time></trkpt><trkpt lat="44.90032160591377" lon="9.79429732385982"><ele>126.0</ele><time>2026-05-01T14:19:31.002Z</time></trkpt><trkpt lat="44.90029847855753" lon="9.794425111106056"><ele>126.0</ele><time>2026-05-01T14:19:32.002Z</time></trkpt><trkpt lat="44.90027292519727" lon="9.794567856846788"><ele>126.0</ele><time>2026-05-01T14:19:33.002Z</time></trkpt><trkpt lat="44.900244520042136" lon="9.794726398501732"><ele>126.0</ele><time>2026-05-01T14:19:34Z</time></trkpt><trkpt lat="44.900213844549114" lon="9.794909104724868"><ele>126.0</ele><time>2026-05-01T14:19:35Z</time></trkpt><trkpt lat="44.90018802930021" lon="9.795072151179756"><ele>126.0</ele><time>2026-05-01T14:19:36Z</time></trkpt><trkpt lat="44.90015648667862" lon="9.795201097506185"><ele>126.0</ele><time>2026-05-01T14:19:37Z</time></trkpt><trkpt lat="44.900100765339864" lon="9.795286970294475"><ele>126.0</ele><time>2026-05-01T14:19:38Z</time></trkpt><trkpt lat="44.900020090182636" lon="9.795336019427706"><ele>126.0</ele><time>2026-05-01T14:19:39Z</time></trkpt><trkpt lat="44.89991973449037" lon="9.79530147674549"><ele>126.0</ele><time>2026-05-01T14:19:40Z</time></trkpt><trkpt lat="44.899822436206854" lon="9.795255164104478"><ele>126.0</ele><time>2026-05-01T14:19:41Z</time></trkpt><trkpt lat="44.89969666528022" lon="9.795233267043491"><ele>126.0</ele><time>2026-05-01T14:19:42Z</time></trkpt><trkpt lat="44.89955887667708" lon="9.795172184750294"><ele>126.0</ele><time>2026-05-01T14:19:43Z</time></trkpt><trkpt lat="44.89941449273223" lon="9.795132826748766"><ele>126.0</ele><time>2026-05-01T14:19:44Z</time></trkpt><trkpt lat="44.89929611694819" lon="9.795100912891069"><ele>126.0</ele><time>2026-05-01T14:19:45Z</time></trkpt><trkpt lat="44.899205436748524" lon="9.795059292637156"><ele>126.0</ele><time>2026-05-01T14:19:46Z</time></trkpt><trkpt lat="44.89911900275054" lon="9.795100849677256"><ele>126.0</ele><time>2026-05-01T14:19:47Z</time></trkpt><trkpt lat="44.89904627466617" lon="9.795147157703175"><ele>126.0</ele><time>2026-05-01T14:19:48Z</time></trkpt><trkpt lat="44.899004010169016" lon="9.795317943050774"><ele>127.66666666666666</ele><time>2026-05-01T14:19:49Z</time></trkpt><trkpt lat="44.89897152690798" lon="9.795501217660238"><ele>129.33333333333331</ele><time>2026-05-01T14:19:50Z</time></trkpt><trkpt lat="44.898930701732056" lon="9.795712527270226"><ele>131.0</ele><time>2026-05-01T14:19:51Z</time></trkpt><trkpt lat="44.898879207629854" lon="9.795938599036145"><ele>131.33333333333331</ele><time>2026-05-01T14:19:52Z</time></trkpt><trkpt lat="44.89882472675321" lon="9.796167610711997"><ele>131.66666666666666</ele><time>2026-05-01T14:19:53Z</time></trkpt><trkpt lat="44.89876919182339" lon="9.796393077920568"><ele>132.0</ele><time>2026-05-01T14:19:54Z</time></trkpt><trkpt lat="44.89871602337857" lon="9.796617519940648"><ele>131.0</ele><time>2026-05-01T14:19:55Z</time></trkpt><trkpt lat="44.898665981307566" lon="9.7968487367828"><ele>130.0</ele><time>2026-05-01T14:19:56Z</time></trkpt><trkpt lat="44.89862175162511" lon="9.797084974237027"><ele>129.0</ele><time>2026-05-01T14:19:57Z</time></trkpt><trkpt lat="44.898580424718304" lon="9.797323481954306"><ele>129.0</ele><time>2026-05-01T14:19:58Z</time></trkpt><trkpt lat="44.89853488768627" lon="9.797565108034949"><ele>129.0</ele><time>2026-05-01T14:19:59Z</time></trkpt><trkpt lat="44.8984823022" lon="9.797801577154324"><ele>129.0</ele><time>2026-05-01T14:20:00Z</time></trkpt><trkpt lat="44.8984223203315" lon="9.798015311118123"><ele>129.66666666666666</ele><time>2026-05-01T14:20:01Z</time></trkpt><trkpt lat="44.89835430238399" lon="9.798225652236637"><ele>130.33333333333331</ele><time>2026-05-01T14:20:02Z</time></trkpt><trkpt lat="44.898281593990035" lon="9.798434052924733"><ele>131.0</ele><time>2026-05-01T14:20:03Z</time></trkpt><trkpt lat="44.898210174452" lon="9.798641188869476"><ele>131.66666666666666</ele><time>2026-05-01T14:20:04Z</time></trkpt><trkpt lat="44.89813966395046" lon="9.798843927914326"><ele>132.33333333333334</ele><time>2026-05-01T14:20:05Z</time></trkpt><trkpt lat="44.89806660889846" lon="9.799053042222129"><ele>133.0</ele><time>2026-05-01T14:20:06Z</time></trkpt><trkpt lat="44.8979960707648" lon="9.799259341043804"><ele>132.66666666666669</ele><time>2026-05-01T14:20:07Z</time></trkpt><trkpt lat="44.897920593550445" lon="9.799466539523165"><ele>132.33333333333334</ele><time>2026-05-01T14:20:08Z</time></trkpt><trkpt lat="44.897844878219274" lon="9.799662751167581"><ele>132.0</ele><time>2026-05-01T14:20:09Z</time></trkpt><trkpt lat="44.89776302763678" lon="9.79984025242262"><ele>132.0</ele><time>2026-05-01T14:20:10Z</time></trkpt><trkpt lat="44.89764555440098" lon="9.799974119554642"><ele>132.0</ele><time>2026-05-01T14:20:11Z</time></trkpt><trkpt lat="44.897530363277895" lon="9.800134008159626"><ele>132.0</ele><time>2026-05-01T14:20:12Z</time></trkpt><trkpt lat="44.89741572702847" lon="9.800303033957109"><ele>131.33333333333334</ele><time>2026-05-01T14:20:13Z</time></trkpt><trkpt lat="44.897293200066905" lon="9.80047494201189"><ele>130.66666666666669</ele><time>2026-05-01T14:20:14Z</time></trkpt><trkpt lat="44.89716963263854" lon="9.800636910443352"><ele>130.0</ele><time>2026-05-01T14:20:15Z</time></trkpt><trkpt lat="44.89706016321114" lon="9.80077495417634"><ele>130.0</ele><time>2026-05-01T14:20:16Z</time></trkpt><trkpt lat="44.896976700630574" lon="9.800926935056516"><ele>130.0</ele><time>2026-05-01T14:20:17Z</time></trkpt><trkpt lat="44.89691069280779" lon="9.801115209584248"><ele>130.0</ele><time>2026-05-01T14:20:18Z</time></trkpt><trkpt lat="44.896849340542296" lon="9.801325435858654"><ele>130.0</ele><time>2026-05-01T14:20:19Z</time></trkpt><trkpt lat="44.896795452567105" lon="9.801511107536658"><ele>130.0</ele><time>2026-05-01T14:20:20Z</time></trkpt><trkpt lat="44.89674750041233" lon="9.801672907566356"><ele>130.0</ele><time>2026-05-01T14:20:21.001Z</time></trkpt><trkpt lat="44.89670359632338" lon="9.80179654508291"><ele>130.0</ele><time>2026-05-01T14:20:22.001Z</time></trkpt><trkpt lat="44.89664943759849" lon="9.801885504767311"><ele>130.0</ele><time>2026-05-01T14:20:23.001Z</time></trkpt><trkpt lat="44.896571896589805" lon="9.801926717059871"><ele>130.0</ele><time>2026-05-01T14:20:24.001Z</time></trkpt><trkpt lat="44.896482614426766" lon="9.801843706264032"><ele>130.0</ele><time>2026-05-01T14:20:25.001Z</time></trkpt><trkpt lat="44.89636463653574" lon="9.801820447498084"><ele>130.0</ele><time>2026-05-01T14:20:26.001Z</time></trkpt><trkpt lat="44.89623301332462" lon="9.801853446087774"><ele>130.0</ele><time>2026-05-01T14:20:27.001Z</time></trkpt><trkpt lat="44.89608219905695" lon="9.801865127722994"><ele>130.0</ele><time>2026-05-01T14:20:28.001Z</time></trkpt><trkpt lat="44.89594806968553" lon="9.801859286860239"><ele>130.4</ele><time>2026-05-01T14:20:29.001Z</time></trkpt><trkpt lat="44.89583461635239" lon="9.80184991711155"><ele>130.8</ele><time>2026-05-01T14:20:30.001Z</time></trkpt><trkpt lat="44.89574058071095" lon="9.801876934858223"><ele>131.2</ele><time>2026-05-01T14:20:31.001Z</time></trkpt><trkpt lat="44.89564664708585" lon="9.801948581119587"><ele>131.6</ele><time>2026-05-01T14:20:32.001Z</time></trkpt><trkpt lat="44.89557959851441" lon="9.80206478446951"><ele>132.0</ele><time>2026-05-01T14:20:33.001Z</time></trkpt><trkpt lat="44.89553055198168" lon="9.802231435694972"><ele>132.0</ele><time>2026-05-01T14:20:34.001Z</time></trkpt><trkpt lat="44.89548752578215" lon="9.802430677035865"><ele>132.0</ele><time>2026-05-01T14:20:35.001Z</time></trkpt><trkpt lat="44.89543411093793" lon="9.802645679765568"><ele>132.0</ele><time>2026-05-01T14:20:36.001Z</time></trkpt><trkpt lat="44.89537433551602" lon="9.802875619757833"><ele>131.66666666666666</ele><time>2026-05-01T14:20:37.001Z</time></trkpt><trkpt lat="44.89530947157901" lon="9.803108152597538"><ele>131.33333333333331</ele><time>2026-05-01T14:20:38.001Z</time></trkpt><trkpt lat="44.89523372221025" lon="9.803341371519155"><ele>131.0</ele><time>2026-05-01T14:20:39.001Z</time></trkpt><trkpt lat="44.89517505935607" lon="9.803555863512821"><ele>131.5</ele><time>2026-05-01T14:20:40.001Z</time></trkpt><trkpt lat="44.89511946280754" lon="9.803745650688853"><ele>132.0</ele><time>2026-05-01T14:20:41.001Z</time></trkpt><trkpt lat="44.89506923618569" lon="9.80391624719966"><ele>132.5</ele><time>2026-05-01T14:20:42.001Z</time></trkpt><trkpt lat="44.895017916987484" lon="9.80409283444559"><ele>133.0</ele><time>2026-05-01T14:20:43.001Z</time></trkpt><trkpt lat="44.89496651242998" lon="9.804258305721364"><ele>133.6</ele><time>2026-05-01T14:20:44.001Z</time></trkpt><trkpt lat="44.89492346341722" lon="9.804411630735625"><ele>134.20000000000002</ele><time>2026-05-01T14:20:45.001Z</time></trkpt><trkpt lat="44.894885976802236" lon="9.80454535345607"><ele>134.8</ele><time>2026-05-01T14:20:46.001Z</time></trkpt><trkpt lat="44.89484614726944" lon="9.804686745340737"><ele>135.4</ele><time>2026-05-01T14:20:47.001Z</time></trkpt><trkpt lat="44.89480575313074" lon="9.804815238306565"><ele>136.0</ele><time>2026-05-01T14:20:48.001Z</time></trkpt><trkpt lat="44.89476254986276" lon="9.804974968688526"><ele>136.0</ele><time>2026-05-01T14:20:49.001Z</time></trkpt><trkpt lat="44.894715795552585" lon="9.805118311789863"><ele>136.0</ele><time>2026-05-01T14:20:50.001Z</time></trkpt><trkpt lat="44.894679522295014" lon="9.805237140342149"><ele>136.0</ele><time>2026-05-01T14:20:51.001Z</time></trkpt><trkpt lat="44.89461503115085" lon="9.805338509428745"><ele>136.0</ele><time>2026-05-01T14:20:53.001Z</time></trkpt><trkpt lat="44.894547280001454" lon="9.805229440588736"><ele>136.0</ele><time>2026-05-01T14:20:54.001Z</time></trkpt><trkpt lat="44.89448109143525" lon="9.805187334532025"><ele>136.0</ele><time>2026-05-01T14:20:55.001Z</time></trkpt><trkpt lat="44.89440519527551" lon="9.805139053627299"><ele>136.0</ele><time>2026-05-01T14:20:56.001Z</time></trkpt><trkpt lat="44.89433813283175" lon="9.805116230805032"><ele>136.0</ele><time>2026-05-01T14:20:57.001Z</time></trkpt><trkpt lat="44.89425128059089" lon="9.805018517083415"><ele>136.0</ele><time>2026-05-01T14:20:59.001Z</time></trkpt><trkpt lat="44.89419365059329" lon="9.804914090905788"><ele>136.0</ele><time>2026-05-01T14:21:00.001Z</time></trkpt><trkpt lat="44.89409739168406" lon="9.8048280776875"><ele>136.25</ele><time>2026-05-01T14:21:01.001Z</time></trkpt><trkpt lat="44.893998280420384" lon="9.804713726974992"><ele>136.5</ele><time>2026-05-01T14:21:02.001Z</time></trkpt><trkpt lat="44.89388956726955" lon="9.804586440383986"><ele>136.75</ele><time>2026-05-01T14:21:03.001Z</time></trkpt><trkpt lat="44.8937726948715" lon="9.804445812995253"><ele>137.0</ele><time>2026-05-01T14:21:04.001Z</time></trkpt><trkpt lat="44.89364969315253" lon="9.8042993870409"><ele>137.33333333333331</ele><time>2026-05-01T14:21:05.001Z</time></trkpt><trkpt lat="44.893521241106825" lon="9.804148962676694"><ele>137.66666666666666</ele><time>2026-05-01T14:21:06.001Z</time></trkpt><trkpt lat="44.893386619538994" lon="9.80399202461318"><ele>138.0</ele><time>2026-05-01T14:21:07.001Z</time></trkpt><trkpt lat="44.893244435938" lon="9.803824549325064"><ele>138.0</ele><time>2026-05-01T14:21:08.001Z</time></trkpt><trkpt lat="44.89310179173644" lon="9.803654482797416"><ele>138.0</ele><time>2026-05-01T14:21:09.001Z</time></trkpt><trkpt lat="44.89295813906175" lon="9.803487177908917"><ele>138.0</ele><time>2026-05-01T14:21:10.001Z</time></trkpt><trkpt lat="44.89281993432756" lon="9.803328514488351"><ele>138.33333333333334</ele><time>2026-05-01T14:21:11.001Z</time></trkpt><trkpt lat="44.89268837537234" lon="9.803176713163825"><ele>138.66666666666669</ele><time>2026-05-01T14:21:12.001Z</time></trkpt><trkpt lat="44.89255380204667" lon="9.803037794013663"><ele>139.0</ele><time>2026-05-01T14:21:13.001Z</time></trkpt><trkpt lat="44.89240795592302" lon="9.80291762535803"><ele>139.0</ele><time>2026-05-01T14:21:14.001Z</time></trkpt><trkpt lat="44.892256330335705" lon="9.802774480966804"><ele>139.0</ele><time>2026-05-01T14:21:15.001Z</time></trkpt><trkpt lat="44.89208972107362" lon="9.802671406515667"><ele>139.0</ele><time>2026-05-01T14:21:16.001Z</time></trkpt><trkpt lat="44.89189530653235" lon="9.802611179341836"><ele>139.0</ele><time>2026-05-01T14:21:17.001Z</time></trkpt><trkpt lat="44.891682835706355" lon="9.802542389531636"><ele>139.0</ele><time>2026-05-01T14:21:18.001Z</time></trkpt><trkpt lat="44.89146382033539" lon="9.802444484815386"><ele>139.0</ele><time>2026-05-01T14:21:19.002Z</time></trkpt><trkpt lat="44.89122240777625" lon="9.802362213460416"><ele>139.0</ele><time>2026-05-01T14:21:20.002Z</time></trkpt><trkpt lat="44.89098170651886" lon="9.802278973997216"><ele>139.0</ele><time>2026-05-01T14:21:21.002Z</time></trkpt><trkpt lat="44.890738137437204" lon="9.802192901742828"><ele>139.5</ele><time>2026-05-01T14:21:22.002Z</time></trkpt><trkpt lat="44.89050551351983" lon="9.802110697336369"><ele>140.0</ele><time>2026-05-01T14:21:23.002Z</time></trkpt><trkpt lat="44.89027454715741" lon="9.802030575780924"><ele>140.66666666666666</ele><time>2026-05-01T14:21:24.002Z</time></trkpt><trkpt lat="44.89006399475229" lon="9.801959175176556"><ele>141.33333333333334</ele><time>2026-05-01T14:21:25.002Z</time></trkpt><trkpt lat="44.88986788382599" lon="9.801892396528567"><ele>142.0</ele><time>2026-05-01T14:21:26.002Z</time></trkpt><trkpt lat="44.88967832044743" lon="9.801825650293406"><ele>143.0</ele><time>2026-05-01T14:21:27.002Z</time></trkpt><trkpt lat="44.88949206337016" lon="9.801760067760501"><ele>144.0</ele><time>2026-05-01T14:21:28.002Z</time></trkpt><trkpt lat="44.88931367645164" lon="9.801695427456663"><ele>145.0</ele><time>2026-05-01T14:21:29.002Z</time></trkpt><trkpt lat="44.88912834943233" lon="9.80162855570671"><ele>145.66666666666669</ele><time>2026-05-01T14:21:30.002Z</time></trkpt><trkpt lat="44.88893517966227" lon="9.801560073072947"><ele>146.33333333333334</ele><time>2026-05-01T14:21:31.002Z</time></trkpt><trkpt lat="44.88872524917831" lon="9.801487418834649"><ele>147.0</ele><time>2026-05-01T14:21:32.002Z</time></trkpt><trkpt lat="44.88850477408764" lon="9.80141810306311"><ele>147.0</ele><time>2026-05-01T14:21:33.002Z</time></trkpt><trkpt lat="44.88827802923051" lon="9.801377802627922"><ele>147.0</ele><time>2026-05-01T14:21:34.002Z</time></trkpt><trkpt lat="44.88804144607174" lon="9.801319781956732"><ele>147.0</ele><time>2026-05-01T14:21:35.002Z</time></trkpt><trkpt lat="44.88779799581228" lon="9.801263821317137"><ele>147.0</ele><time>2026-05-01T14:21:36.002Z</time></trkpt><trkpt lat="44.887554704479484" lon="9.801205255330812"><ele>147.5</ele><time>2026-05-01T14:21:37.002Z</time></trkpt><trkpt lat="44.88731103053059" lon="9.8011445076053"><ele>148.0</ele><time>2026-05-01T14:21:38.002Z</time></trkpt><trkpt lat="44.88706700708671" lon="9.801082084834489"><ele>148.0</ele><time>2026-05-01T14:21:39.002Z</time></trkpt><trkpt lat="44.88682458263901" lon="9.801019017537294"><ele>148.0</ele><time>2026-05-01T14:21:40Z</time></trkpt><trkpt lat="44.88658405286378" lon="9.800959642091415"><ele>148.5</ele><time>2026-05-01T14:21:41Z</time></trkpt><trkpt lat="44.886345959969546" lon="9.800902341346568"><ele>149.0</ele><time>2026-05-01T14:21:42Z</time></trkpt><trkpt lat="44.88610967289198" lon="9.80084479359224"><ele>149.5</ele><time>2026-05-01T14:21:43Z</time></trkpt><trkpt lat="44.885877682751804" lon="9.80078346054565"><ele>150.0</ele><time>2026-05-01T14:21:44Z</time></trkpt><trkpt lat="44.88564572748797" lon="9.800722102025468"><ele>150.0</ele><time>2026-05-01T14:21:45Z</time></trkpt><trkpt lat="44.88542001327287" lon="9.800644115256835"><ele>150.0</ele><time>2026-05-01T14:21:46Z</time></trkpt><trkpt lat="44.885185016847444" lon="9.80058434550763"><ele>151.0</ele><time>2026-05-01T14:21:47Z</time></trkpt><trkpt lat="44.88494884923301" lon="9.800524263753912"><ele>152.0</ele><time>2026-05-01T14:21:48Z</time></trkpt><trkpt lat="44.88470405246594" lon="9.800460551769405"><ele>152.0</ele><time>2026-05-01T14:21:49Z</time></trkpt><trkpt lat="44.88446499705232" lon="9.800401404044337"><ele>152.0</ele><time>2026-05-01T14:21:50Z</time></trkpt><trkpt lat="44.8842264872365" lon="9.800343586882152"><ele>153.5</ele><time>2026-05-01T14:21:51Z</time></trkpt><trkpt lat="44.88398497544269" lon="9.800283463566407"><ele>155.0</ele><time>2026-05-01T14:21:52Z</time></trkpt><trkpt lat="44.8837443077474" lon="9.8002257405029"><ele>154.5</ele><time>2026-05-01T14:21:53Z</time></trkpt><trkpt lat="44.88350262323823" lon="9.800162727981055"><ele>154.0</ele><time>2026-05-01T14:21:54Z</time></trkpt><trkpt lat="44.883258747886366" lon="9.800127481162242"><ele>153.5</ele><time>2026-05-01T14:21:55Z</time></trkpt><trkpt lat="44.883011810571006" lon="9.800065107333038"><ele>153.0</ele><time>2026-05-01T14:21:56Z</time></trkpt><trkpt lat="44.88277174828458" lon="9.800004042584915"><ele>153.0</ele><time>2026-05-01T14:21:57Z</time></trkpt><trkpt lat="44.88252977327159" lon="9.799943444669108"><ele>153.0</ele><time>2026-05-01T14:21:58Z</time></trkpt><trkpt lat="44.88228621054513" lon="9.799883120889337"><ele>153.0</ele><time>2026-05-01T14:21:59Z</time></trkpt><trkpt lat="44.8820452317841" lon="9.799825269472144"><ele>153.0</ele><time>2026-05-01T14:22:00Z</time></trkpt><trkpt lat="44.88180814984908" lon="9.799742932388154"><ele>156.0</ele><time>2026-05-01T14:22:01Z</time></trkpt><trkpt lat="44.88156403719273" lon="9.799682846150214"><ele>159.0</ele><time>2026-05-01T14:22:02Z</time></trkpt><trkpt lat="44.88132816831155" lon="9.799626397989547"><ele>159.0</ele><time>2026-05-01T14:22:03Z</time></trkpt><trkpt lat="44.88109714533871" lon="9.799571013878111"><ele>159.0</ele><time>2026-05-01T14:22:04Z</time></trkpt><trkpt lat="44.88088543935791" lon="9.799520966517347"><ele>159.0</ele><time>2026-05-01T14:22:05Z</time></trkpt><trkpt lat="44.88069080877408" lon="9.799474955332247"><ele>159.33333333333334</ele><time>2026-05-01T14:22:06Z</time></trkpt><trkpt lat="44.88050623452079" lon="9.799431321490161"><ele>159.66666666666669</ele><time>2026-05-01T14:22:07Z</time></trkpt><trkpt lat="44.880336904840824" lon="9.799417296823686"><ele>160.0</ele><time>2026-05-01T14:22:08Z</time></trkpt><trkpt lat="44.88016234311973" lon="9.79937226035297"><ele>161.33333333333334</ele><time>2026-05-01T14:22:09Z</time></trkpt><trkpt lat="44.87999799521917" lon="9.79933337418683"><ele>162.66666666666666</ele><time>2026-05-01T14:22:10Z</time></trkpt><trkpt lat="44.879830155314664" lon="9.799311422343358"><ele>164.0</ele><time>2026-05-01T14:22:11Z</time></trkpt><trkpt lat="44.87966414056873" lon="9.799327062869661"><ele>163.66666666666666</ele><time>2026-05-01T14:22:12Z</time></trkpt><trkpt lat="44.87950693581284" lon="9.799356482203407"><ele>163.33333333333334</ele><time>2026-05-01T14:22:13Z</time></trkpt><trkpt lat="44.87932640838976" lon="9.799335286944132"><ele>163.0</ele><time>2026-05-01T14:22:14Z</time></trkpt><trkpt lat="44.87915288191784" lon="9.799307630196825"><ele>164.33333333333334</ele><time>2026-05-01T14:22:15Z</time></trkpt><trkpt lat="44.87897202904145" lon="9.799264040931499"><ele>165.66666666666666</ele><time>2026-05-01T14:22:16Z</time></trkpt><trkpt lat="44.878795918521796" lon="9.799216958403383"><ele>167.0</ele><time>2026-05-01T14:22:17Z</time></trkpt><trkpt lat="44.878606618903504" lon="9.799179568341481"><ele>167.33333333333331</ele><time>2026-05-01T14:22:18Z</time></trkpt><trkpt lat="44.87841443514977" lon="9.799148110696338"><ele>167.66666666666666</ele><time>2026-05-01T14:22:19Z</time></trkpt><trkpt lat="44.87822107585376" lon="9.79912096070884"><ele>168.0</ele><time>2026-05-01T14:22:20.001Z</time></trkpt><trkpt lat="44.878025100150786" lon="9.799094480856036"><ele>168.0</ele><time>2026-05-01T14:22:21.001Z</time></trkpt><trkpt lat="44.877827070771865" lon="9.799065114937228"><ele>168.0</ele><time>2026-05-01T14:22:22.001Z</time></trkpt><trkpt lat="44.87762320345676" lon="9.799033745921388"><ele>168.0</ele><time>2026-05-01T14:22:23.001Z</time></trkpt><trkpt lat="44.87743519620362" lon="9.799004178533625"><ele>168.75</ele><time>2026-05-01T14:22:24.001Z</time></trkpt><trkpt lat="44.877264899871776" lon="9.79898247736979"><ele>169.5</ele><time>2026-05-01T14:22:25.001Z</time></trkpt><trkpt lat="44.877113050147855" lon="9.798962623561417"><ele>170.25</ele><time>2026-05-01T14:22:26.001Z</time></trkpt><trkpt lat="44.87698833992115" lon="9.798954422425465"><ele>171.0</ele><time>2026-05-01T14:22:27.001Z</time></trkpt><trkpt lat="44.87689698527625" lon="9.79898191784901"><ele>171.0</ele><time>2026-05-01T14:22:28.001Z</time></trkpt><trkpt lat="44.87683871086681" lon="9.799068400836704"><ele>171.0</ele><time>2026-05-01T14:22:29.001Z</time></trkpt><trkpt lat="44.876808064479945" lon="9.799210276333378"><ele>171.0</ele><time>2026-05-01T14:22:30.001Z</time></trkpt><trkpt lat="44.87679140424878" lon="9.799398149755408"><ele>171.0</ele><time>2026-05-01T14:22:31.001Z</time></trkpt><trkpt lat="44.87675018093819" lon="9.799544962416292"><ele>171.0</ele><time>2026-05-01T14:22:32.001Z</time></trkpt><trkpt lat="44.87667788703051" lon="9.799593597344533"><ele>173.75</ele><time>2026-05-01T14:22:33.001Z</time></trkpt><trkpt lat="44.87658473560353" lon="9.799576586397665"><ele>176.5</ele><time>2026-05-01T14:22:34.001Z</time></trkpt><trkpt lat="44.876477595805305" lon="9.799508180472806"><ele>179.25</ele><time>2026-05-01T14:22:35.001Z</time></trkpt><trkpt lat="44.876356135290834" lon="9.799398547039502"><ele>182.0</ele><time>2026-05-01T14:22:36.001Z</time></trkpt><trkpt lat="44.87624631775424" lon="9.79924951772242"><ele>182.0</ele><time>2026-05-01T14:22:37.001Z</time></trkpt><trkpt lat="44.87617153752366" lon="9.799076348780757"><ele>182.0</ele><time>2026-05-01T14:22:38.001Z</time></trkpt><trkpt lat="44.87612026413029" lon="9.798948528220478"><ele>182.0</ele><time>2026-05-01T14:22:39.001Z</time></trkpt><trkpt lat="44.87606187667696" lon="9.798896055052262"><ele>182.0</ele><time>2026-05-01T14:22:40.001Z</time></trkpt><trkpt lat="44.87599317397858" lon="9.798925349688107"><ele>182.0</ele><time>2026-05-01T14:22:41.001Z</time></trkpt><trkpt lat="44.875925592430775" lon="9.799021076677482"><ele>184.0</ele><time>2026-05-01T14:22:42.001Z</time></trkpt><trkpt lat="44.87586584538335" lon="9.799163356161156"><ele>186.0</ele><time>2026-05-01T14:22:43.001Z</time></trkpt><trkpt lat="44.87579135128257" lon="9.799313508653617"><ele>188.0</ele><time>2026-05-01T14:22:44.001Z</time></trkpt><trkpt lat="44.8757374564424" lon="9.799399305432724"><ele>190.0</ele><time>2026-05-01T14:22:45.001Z</time></trkpt><trkpt lat="44.87566237784655" lon="9.799438794493122"><ele>192.0</ele><time>2026-05-01T14:22:46.001Z</time></trkpt><trkpt lat="44.87555138519591" lon="9.799434484485287"><ele>192.33333333333331</ele><time>2026-05-01T14:22:47.001Z</time></trkpt><trkpt lat="44.87540588543293" lon="9.799395555689149"><ele>192.66666666666666</ele><time>2026-05-01T14:22:48.001Z</time></trkpt><trkpt lat="44.875254594768165" lon="9.799338039029985"><ele>193.0</ele><time>2026-05-01T14:22:49.001Z</time></trkpt><trkpt lat="44.87508754720615" lon="9.799271935405699"><ele>193.33333333333331</ele><time>2026-05-01T14:22:50.001Z</time></trkpt><trkpt lat="44.874912533761936" lon="9.799195845701497"><ele>193.66666666666669</ele><time>2026-05-01T14:22:51.001Z</time></trkpt><trkpt lat="44.87473435882226" lon="9.79909479747916"><ele>194.0</ele><time>2026-05-01T14:22:52.001Z</time></trkpt><trkpt lat="44.874575584292415" lon="9.798945763685744"><ele>194.0</ele><time>2026-05-01T14:22:53.001Z</time></trkpt><trkpt lat="44.87441733595841" lon="9.798744424666499"><ele>194.0</ele><time>2026-05-01T14:22:54.001Z</time></trkpt><trkpt lat="44.87424161473592" lon="9.798560132269525"><ele>194.0</ele><time>2026-05-01T14:22:55.001Z</time></trkpt><trkpt lat="44.87403801108661" lon="9.798421387411437"><ele>195.5</ele><time>2026-05-01T14:22:56.001Z</time></trkpt><trkpt lat="44.87382609746443" lon="9.798290809172125"><ele>197.0</ele><time>2026-05-01T14:22:57.001Z</time></trkpt><trkpt lat="44.873598412487894" lon="9.798140211557309"><ele>199.0</ele><time>2026-05-01T14:22:58.001Z</time></trkpt><trkpt lat="44.87336786797879" lon="9.797980782843462"><ele>201.0</ele><time>2026-05-01T14:22:59.001Z</time></trkpt><trkpt lat="44.873107875999935" lon="9.797803157182138"><ele>201.5</ele><time>2026-05-01T14:23:00.001Z</time></trkpt><trkpt lat="44.87288489569505" lon="9.797653712432234"><ele>202.0</ele><time>2026-05-01T14:23:01.001Z</time></trkpt><trkpt lat="44.872696965984126" lon="9.797528091704235"><ele>203.33333333333331</ele><time>2026-05-01T14:23:02.001Z</time></trkpt><trkpt lat="44.87253400532321" lon="9.797419247323035"><ele>204.66666666666669</ele><time>2026-05-01T14:23:03.001Z</time></trkpt><trkpt lat="44.87239207783735" lon="9.797338439594801"><ele>206.0</ele><time>2026-05-01T14:23:04.001Z</time></trkpt><trkpt lat="44.872251137314876" lon="9.79729924781529"><ele>206.0</ele><time>2026-05-01T14:23:05.001Z</time></trkpt><trkpt lat="44.87210461580977" lon="9.797322550021466"><ele>206.0</ele><time>2026-05-01T14:23:06.001Z</time></trkpt><trkpt lat="44.871966382854794" lon="9.797387777212004"><ele>206.0</ele><time>2026-05-01T14:23:07.001Z</time></trkpt><trkpt lat="44.871843264854945" lon="9.797416293994907"><ele>206.0</ele><time>2026-05-01T14:23:08.001Z</time></trkpt><trkpt lat="44.87171494194059" lon="9.797385034665298"><ele>207.33333333333334</ele><time>2026-05-01T14:23:09.001Z</time></trkpt><trkpt lat="44.87158079564389" lon="9.797316327832945"><ele>208.66666666666669</ele><time>2026-05-01T14:23:10.001Z</time></trkpt><trkpt lat="44.87142936166131" lon="9.797213003412542"><ele>210.0</ele><time>2026-05-01T14:23:11.001Z</time></trkpt><trkpt lat="44.871279541438525" lon="9.797072467663728"><ele>210.0</ele><time>2026-05-01T14:23:12.001Z</time></trkpt><trkpt lat="44.87110186095846" lon="9.796959955267088"><ele>210.0</ele><time>2026-05-01T14:23:13.001Z</time></trkpt><trkpt lat="44.87091442699307" lon="9.796835835967595"><ele>210.0</ele><time>2026-05-01T14:23:14.001Z</time></trkpt><trkpt lat="44.87071333294341" lon="9.796706075486014"><ele>210.66666666666669</ele><time>2026-05-01T14:23:15.001Z</time></trkpt><trkpt lat="44.87051360147512" lon="9.796578276559554"><ele>211.33333333333334</ele><time>2026-05-01T14:23:16.001Z</time></trkpt><trkpt lat="44.87030673888233" lon="9.796445914773502"><ele>212.0</ele><time>2026-05-01T14:23:17.001Z</time></trkpt><trkpt lat="44.87010362635313" lon="9.796316373980815"><ele>212.0</ele><time>2026-05-01T14:23:18.002Z</time></trkpt><trkpt lat="44.86989556047732" lon="9.796210289321378"><ele>212.0</ele><time>2026-05-01T14:23:19.002Z</time></trkpt><trkpt lat="44.86971326814719" lon="9.796096219739686"><ele>212.0</ele><time>2026-05-01T14:23:20.002Z</time></trkpt><trkpt lat="44.8695587519443" lon="9.79597146059673"><ele>212.0</ele><time>2026-05-01T14:23:21.002Z</time></trkpt><trkpt lat="44.86941991210863" lon="9.79585675783858"><ele>212.0</ele><time>2026-05-01T14:23:22.002Z</time></trkpt><trkpt lat="44.86928577984547" lon="9.795715107627425"><ele>212.0</ele><time>2026-05-01T14:23:23.002Z</time></trkpt><trkpt lat="44.86914389899547" lon="9.795552533504054"><ele>212.0</ele><time>2026-05-01T14:23:24.002Z</time></trkpt><trkpt lat="44.86897759626987" lon="9.795373959940573"><ele>212.0</ele><time>2026-05-01T14:23:25.002Z</time></trkpt><trkpt lat="44.86885167434211" lon="9.79516628387616"><ele>212.0</ele><time>2026-05-01T14:23:26.002Z</time></trkpt><trkpt lat="44.86873893485974" lon="9.794978621685058"><ele>213.0</ele><time>2026-05-01T14:23:27.002Z</time></trkpt><trkpt lat="44.86862365438801" lon="9.794849384956557"><ele>214.0</ele><time>2026-05-01T14:23:28.002Z</time></trkpt><trkpt lat="44.86851975286806" lon="9.794732528978793"><ele>215.0</ele><time>2026-05-01T14:23:29.002Z</time></trkpt><trkpt lat="44.868395963971366" lon="9.794636362679316"><ele>216.0</ele><time>2026-05-01T14:23:30.002Z</time></trkpt><trkpt lat="44.86822961746591" lon="9.79454618829873"><ele>216.0</ele><time>2026-05-01T14:23:31.002Z</time></trkpt><trkpt lat="44.86803478580649" lon="9.794420346471787"><ele>216.0</ele><time>2026-05-01T14:23:32.002Z</time></trkpt><trkpt lat="44.86782751285673" lon="9.79429662732155"><ele>216.0</ele><time>2026-05-01T14:23:33.002Z</time></trkpt><trkpt lat="44.86762392430832" lon="9.794197225529594"><ele>217.33333333333331</ele><time>2026-05-01T14:23:34.002Z</time></trkpt><trkpt lat="44.86745346518686" lon="9.794095067623672"><ele>218.66666666666666</ele><time>2026-05-01T14:23:35.002Z</time></trkpt><trkpt lat="44.86730989369569" lon="9.793983872413232"><ele>220.0</ele><time>2026-05-01T14:23:36.002Z</time></trkpt><trkpt lat="44.86715140850468" lon="9.793888112774987"><ele>220.0</ele><time>2026-05-01T14:23:37.002Z</time></trkpt><trkpt lat="44.86699190570456" lon="9.793791991420633"><ele>220.0</ele><time>2026-05-01T14:23:38.002Z</time></trkpt><trkpt lat="44.866824347604236" lon="9.793691201410452"><ele>220.0</ele><time>2026-05-01T14:23:39.002Z</time></trkpt><trkpt lat="44.86665838873737" lon="9.793591149516024"><ele>221.66666666666666</ele><time>2026-05-01T14:23:40.002Z</time></trkpt><trkpt lat="44.86648860712814" lon="9.79349010769862"><ele>223.33333333333331</ele><time>2026-05-01T14:23:41.002Z</time></trkpt><trkpt lat="44.866318011055874" lon="9.793390955439783"><ele>225.0</ele><time>2026-05-01T14:23:42.002Z</time></trkpt><trkpt lat="44.8661359461907" lon="9.793307782993086"><ele>225.0</ele><time>2026-05-01T14:23:43.002Z</time></trkpt><trkpt lat="44.86597248295235" lon="9.79318276750135"><ele>225.0</ele><time>2026-05-01T14:23:44.002Z</time></trkpt><trkpt lat="44.86579899441815" lon="9.793072024972666"><ele>225.0</ele><time>2026-05-01T14:23:45.002Z</time></trkpt><trkpt lat="44.86562981477523" lon="9.792954224494379"><ele>225.0</ele><time>2026-05-01T14:23:46Z</time></trkpt><trkpt lat="44.86545677070525" lon="9.792825767429292"><ele>225.0</ele><time>2026-05-01T14:23:47Z</time></trkpt><trkpt lat="44.86526028112823" lon="9.79267317146002"><ele>225.0</ele><time>2026-05-01T14:23:48Z</time></trkpt><trkpt lat="44.86504142070361" lon="9.792508129046034"><ele>225.5</ele><time>2026-05-01T14:23:49Z</time></trkpt><trkpt lat="44.86482213082496" lon="9.792361532127009"><ele>226.0</ele><time>2026-05-01T14:23:50Z</time></trkpt><trkpt lat="44.86461358958719" lon="9.792275891428439"><ele>226.0</ele><time>2026-05-01T14:23:51Z</time></trkpt><trkpt lat="44.86440756160652" lon="9.792201636955578"><ele>226.0</ele><time>2026-05-01T14:23:52Z</time></trkpt><trkpt lat="44.86419512451329" lon="9.792152822396785"><ele>226.0</ele><time>2026-05-01T14:23:53Z</time></trkpt><trkpt lat="44.86399619549564" lon="9.792116029048714"><ele>225.66666666666666</ele><time>2026-05-01T14:23:54Z</time></trkpt><trkpt lat="44.863803015541585" lon="9.79207459169045"><ele>225.33333333333331</ele><time>2026-05-01T14:23:55Z</time></trkpt><trkpt lat="44.86362901871039" lon="9.792001636110491"><ele>225.0</ele><time>2026-05-01T14:23:56Z</time></trkpt><trkpt lat="44.86344542458073" lon="9.791964237706852"><ele>225.0</ele><time>2026-05-01T14:23:57Z</time></trkpt><trkpt lat="44.863271749906616" lon="9.791912682201342"><ele>225.0</ele><time>2026-05-01T14:23:58Z</time></trkpt><trkpt lat="44.86309305617759" lon="9.791873478824229"><ele>225.0</ele><time>2026-05-01T14:23:59Z</time></trkpt><trkpt lat="44.86292991829207" lon="9.791843023771072"><ele>225.33333333333331</ele><time>2026-05-01T14:24:00Z</time></trkpt><trkpt lat="44.86278074885632" lon="9.791768378875924"><ele>225.66666666666666</ele><time>2026-05-01T14:24:01Z</time></trkpt><trkpt lat="44.86264108423702" lon="9.79164270120362"><ele>226.0</ele><time>2026-05-01T14:24:02Z</time></trkpt><trkpt lat="44.862477810986015" lon="9.791515746049924"><ele>227.33333333333331</ele><time>2026-05-01T14:24:03Z</time></trkpt><trkpt lat="44.86229761192963" lon="9.79144525884411"><ele>228.66666666666669</ele><time>2026-05-01T14:24:04Z</time></trkpt><trkpt lat="44.86210660786488" lon="9.791373283574917"><ele>230.0</ele><time>2026-05-01T14:24:05Z</time></trkpt><trkpt lat="44.861901411996264" lon="9.79132300056032"><ele>231.66666666666669</ele><time>2026-05-01T14:24:06Z</time></trkpt><trkpt lat="44.86170109156629" lon="9.791263852164466"><ele>233.33333333333331</ele><time>2026-05-01T14:24:07Z</time></trkpt><trkpt lat="44.86148591291399" lon="9.791196977912396"><ele>235.0</ele><time>2026-05-01T14:24:08Z</time></trkpt><trkpt lat="44.861269022962674" lon="9.791125942610222"><ele>235.0</ele><time>2026-05-01T14:24:09Z</time></trkpt><trkpt lat="44.861056746177795" lon="9.791057005220486"><ele>235.0</ele><time>2026-05-01T14:24:10Z</time></trkpt><trkpt lat="44.86084319224162" lon="9.790987041199847"><ele>235.0</ele><time>2026-05-01T14:24:11Z</time></trkpt><trkpt lat="44.86062335336564" lon="9.790914188873566"><ele>239.0</ele><time>2026-05-01T14:24:12Z</time></trkpt><trkpt lat="44.860436014526094" lon="9.79081216719125"><ele>243.0</ele><time>2026-05-01T14:24:13Z</time></trkpt><trkpt lat="44.86026586579793" lon="9.79072267235558"><ele>247.0</ele><time>2026-05-01T14:24:14Z</time></trkpt><trkpt lat="44.86009585764707" lon="9.790616777734414"><ele>250.66666666666666</ele><time>2026-05-01T14:24:15Z</time></trkpt><trkpt lat="44.859925731543356" lon="9.790494284444565"><ele>254.33333333333331</ele><time>2026-05-01T14:24:16Z</time></trkpt><trkpt lat="44.8597439929752" lon="9.790349101628786"><ele>258.0</ele><time>2026-05-01T14:24:17Z</time></trkpt><trkpt lat="44.859554630093726" lon="9.790187740996988"><ele>259.5</ele><time>2026-05-01T14:24:18Z</time></trkpt><trkpt lat="44.85936017226538" lon="9.790017015576327"><ele>261.0</ele><time>2026-05-01T14:24:19Z</time></trkpt><trkpt lat="44.85916327095888" lon="9.78984478049815"><ele>261.0</ele><time>2026-05-01T14:24:20Z</time></trkpt><trkpt lat="44.858981639390436" lon="9.789689276965865"><ele>261.0</ele><time>2026-05-01T14:24:21Z</time></trkpt><trkpt lat="44.85880724080595" lon="9.789540609351342"><ele>261.0</ele><time>2026-05-01T14:24:22Z</time></trkpt><trkpt lat="44.85863796014195" lon="9.789398548173915"><ele>260.3333333333333</ele><time>2026-05-01T14:24:23Z</time></trkpt><trkpt lat="44.8584756939971" lon="9.789264444696286"><ele>259.66666666666663</ele><time>2026-05-01T14:24:24Z</time></trkpt><trkpt lat="44.85832297156237" lon="9.789149616296704"><ele>259.0</ele><time>2026-05-01T14:24:25Z</time></trkpt><trkpt lat="44.85816252678097" lon="9.78904362366026"><ele>261.66666666666663</ele><time>2026-05-01T14:24:26Z</time></trkpt><trkpt lat="44.857997583132665" lon="9.788976859227375"><ele>264.3333333333333</ele><time>2026-05-01T14:24:27Z</time></trkpt><trkpt lat="44.857822190236035" lon="9.788905049010541"><ele>267.0</ele><time>2026-05-01T14:24:28Z</time></trkpt><trkpt lat="44.857645343015484" lon="9.788842616509838"><ele>267.0</ele><time>2026-05-01T14:24:29Z</time></trkpt><trkpt lat="44.85747792417019" lon="9.788760379803067"><ele>267.0</ele><time>2026-05-01T14:24:30Z</time></trkpt><trkpt lat="44.857323220119135" lon="9.788708321713035"><ele>267.0</ele><time>2026-05-01T14:24:31.001Z</time></trkpt><trkpt lat="44.85717830653952" lon="9.78869588614267"><ele>267.0</ele><time>2026-05-01T14:24:32.001Z</time></trkpt><trkpt lat="44.85702943623656" lon="9.78869695441041"><ele>267.0</ele><time>2026-05-01T14:24:33.001Z</time></trkpt><trkpt lat="44.85686692423212" lon="9.78874663365086"><ele>267.0</ele><time>2026-05-01T14:24:34.001Z</time></trkpt><trkpt lat="44.856700597706435" lon="9.788806381501075"><ele>269.3333333333333</ele><time>2026-05-01T14:24:35.001Z</time></trkpt><trkpt lat="44.85654027201081" lon="9.788854211422676"><ele>271.66666666666663</ele><time>2026-05-01T14:24:36.001Z</time></trkpt><trkpt lat="44.85637942225951" lon="9.788896573448817"><ele>274.0</ele><time>2026-05-01T14:24:37.001Z</time></trkpt><trkpt lat="44.856224166634945" lon="9.788938668391124"><ele>274.0</ele><time>2026-05-01T14:24:38.001Z</time></trkpt><trkpt lat="44.856063307248704" lon="9.78898301606185"><ele>274.0</ele><time>2026-05-01T14:24:39.001Z</time></trkpt><trkpt lat="44.8559064834208" lon="9.78902304976822"><ele>274.0</ele><time>2026-05-01T14:24:40.001Z</time></trkpt><trkpt lat="44.85574218332594" lon="9.789043666827677"><ele>276.75</ele><time>2026-05-01T14:24:41.001Z</time></trkpt><trkpt lat="44.85558067870719" lon="9.789044289348174"><ele>279.5</ele><time>2026-05-01T14:24:42.001Z</time></trkpt><trkpt lat="44.855436553909136" lon="9.789031484646657"><ele>282.25</ele><time>2026-05-01T14:24:43.001Z</time></trkpt><trkpt lat="44.85531025155803" lon="9.789019318426664"><ele>285.0</ele><time>2026-05-01T14:24:44.001Z</time></trkpt><trkpt lat="44.85518713452568" lon="9.789029000527142"><ele>287.75</ele><time>2026-05-01T14:24:45.001Z</time></trkpt><trkpt lat="44.85505387117243" lon="9.789057421401226"><ele>290.5</ele><time>2026-05-01T14:24:46.001Z</time></trkpt><trkpt lat="44.85492229821964" lon="9.789133224363002"><ele>293.25</ele><time>2026-05-01T14:24:47.001Z</time></trkpt><trkpt lat="44.85478858655863" lon="9.789208511772616"><ele>296.0</ele><time>2026-05-01T14:24:48.001Z</time></trkpt><trkpt lat="44.85464557996244" lon="9.789233692868898"><ele>296.0</ele><time>2026-05-01T14:24:49.001Z</time></trkpt><trkpt lat="44.85449287010192" lon="9.789186570587182"><ele>296.0</ele><time>2026-05-01T14:24:50.001Z</time></trkpt><trkpt lat="44.854335832906344" lon="9.789119672530541"><ele>296.0</ele><time>2026-05-01T14:24:51.001Z</time></trkpt><trkpt lat="44.85416713113532" lon="9.789060604156033"><ele>297.33333333333337</ele><time>2026-05-01T14:24:52.001Z</time></trkpt><trkpt lat="44.853997651310415" lon="9.788972110826228"><ele>298.6666666666667</ele><time>2026-05-01T14:24:53.001Z</time></trkpt><trkpt lat="44.8538385119524" lon="9.788893664310617"><ele>300.0</ele><time>2026-05-01T14:24:54.001Z</time></trkpt><trkpt lat="44.853677208586845" lon="9.788817622717614"><ele>300.0</ele><time>2026-05-01T14:24:55.001Z</time></trkpt><trkpt lat="44.85351946967239" lon="9.788744700536816"><ele>300.0</ele><time>2026-05-01T14:24:56.001Z</time></trkpt><trkpt lat="44.85335476726453" lon="9.788666775218523"><ele>300.0</ele><time>2026-05-01T14:24:57.001Z</time></trkpt><trkpt lat="44.85319068572659" lon="9.788579653337699"><ele>303.0</ele><time>2026-05-01T14:24:58.001Z</time></trkpt><trkpt lat="44.853025683828534" lon="9.788491965911398"><ele>306.0</ele><time>2026-05-01T14:24:59.001Z</time></trkpt><trkpt lat="44.85285291674291" lon="9.788398813878093"><ele>309.0</ele><time>2026-05-01T14:25:00.001Z</time></trkpt><trkpt lat="44.85269287235146" lon="9.788279099975536"><ele>311.6666666666667</ele><time>2026-05-01T14:25:01.001Z</time></trkpt><trkpt lat="44.852517218251776" lon="9.78817716971671"><ele>314.33333333333337</ele><time>2026-05-01T14:25:02.001Z</time></trkpt><trkpt lat="44.8523462956382" lon="9.788101569798696"><ele>317.0</ele><time>2026-05-01T14:25:03.001Z</time></trkpt><trkpt lat="44.85217097203568" lon="9.788009372112139"><ele>317.0</ele><time>2026-05-01T14:25:04.001Z</time></trkpt><trkpt lat="44.85199231343678" lon="9.787928363337947"><ele>317.0</ele><time>2026-05-01T14:25:05.001Z</time></trkpt><trkpt lat="44.85181846072842" lon="9.78786125789772"><ele>317.0</ele><time>2026-05-01T14:25:06.001Z</time></trkpt><trkpt lat="44.8516370982223" lon="9.787794076857507"><ele>320.6666666666667</ele><time>2026-05-01T14:25:07.001Z</time></trkpt><trkpt lat="44.85147113543942" lon="9.787743850816357"><ele>324.3333333333333</ele><time>2026-05-01T14:25:08.001Z</time></trkpt><trkpt lat="44.85131639703615" lon="9.78771792329169"><ele>328.0</ele><time>2026-05-01T14:25:09.001Z</time></trkpt><trkpt lat="44.85116343166973" lon="9.787718076799926"><ele>328.0</ele><time>2026-05-01T14:25:10.001Z</time></trkpt><trkpt lat="44.851016106757484" lon="9.78773605083282"><ele>328.0</ele><time>2026-05-01T14:25:11.001Z</time></trkpt><trkpt lat="44.8508689238406" lon="9.787760262128055"><ele>328.0</ele><time>2026-05-01T14:25:12.001Z</time></trkpt><trkpt lat="44.85072108389714" lon="9.78777741900223"><ele>328.0</ele><time>2026-05-01T14:25:13.001Z</time></trkpt><trkpt lat="44.850570178578366" lon="9.78773941982206"><ele>329.0</ele><time>2026-05-01T14:25:14.001Z</time></trkpt><trkpt lat="44.850424054051494" lon="9.787689740666853"><ele>330.0</ele><time>2026-05-01T14:25:15.001Z</time></trkpt><trkpt lat="44.85028414653589" lon="9.787615719579334"><ele>331.0</ele><time>2026-05-01T14:25:16.001Z</time></trkpt><trkpt lat="44.85013639231807" lon="9.787525055120078"><ele>333.3333333333333</ele><time>2026-05-01T14:25:17.001Z</time></trkpt><trkpt lat="44.8499711276732" lon="9.787439921861989"><ele>335.6666666666667</ele><time>2026-05-01T14:25:18.001Z</time></trkpt><trkpt lat="44.849806076496726" lon="9.787328357922922"><ele>338.0</ele><time>2026-05-01T14:25:19.001Z</time></trkpt><trkpt lat="44.84963041402316" lon="9.787214547991631"><ele>338.0</ele><time>2026-05-01T14:25:20.001Z</time></trkpt><trkpt lat="44.84946652871651" lon="9.787110739406032"><ele>338.0</ele><time>2026-05-01T14:25:21.001Z</time></trkpt><trkpt lat="44.849313561487655" lon="9.7870109376161"><ele>338.0</ele><time>2026-05-01T14:25:22.001Z</time></trkpt><trkpt lat="44.84917926624243" lon="9.786921496966835"><ele>337.75</ele><time>2026-05-01T14:25:23.001Z</time></trkpt><trkpt lat="44.84903876140123" lon="9.786827186545837"><ele>337.5</ele><time>2026-05-01T14:25:24.001Z</time></trkpt><trkpt lat="44.84890776018931" lon="9.786743539260979"><ele>337.25</ele><time>2026-05-01T14:25:25.001Z</time></trkpt><trkpt lat="44.848785658193314" lon="9.78666291116438"><ele>337.0</ele><time>2026-05-01T14:25:26.001Z</time></trkpt><trkpt lat="44.84867772833213" lon="9.786560674455085"><ele>337.0</ele><time>2026-05-01T14:25:27.001Z</time></trkpt><trkpt lat="44.84857309020951" lon="9.786469056548299"><ele>337.0</ele><time>2026-05-01T14:25:28.002Z</time></trkpt><trkpt lat="44.84850229189889" lon="9.7863483458218"><ele>337.0</ele><time>2026-05-01T14:25:29.002Z</time></trkpt><trkpt lat="44.84844883911908" lon="9.786211669949049"><ele>337.0</ele><time>2026-05-01T14:25:30.002Z</time></trkpt><trkpt lat="44.84839627987164" lon="9.78605200427565"><ele>337.0</ele><time>2026-05-01T14:25:31.002Z</time></trkpt><trkpt lat="44.84831727115186" lon="9.78590458123481"><ele>337.0</ele><time>2026-05-01T14:25:32.002Z</time></trkpt><trkpt lat="44.848235729200155" lon="9.785746415319862"><ele>337.0</ele><time>2026-05-01T14:25:33.002Z</time></trkpt><trkpt lat="44.848139008276306" lon="9.785614350893555"><ele>337.0</ele><time>2026-05-01T14:25:34.002Z</time></trkpt><trkpt lat="44.84803238760679" lon="9.785514518769906"><ele>337.0</ele><time>2026-05-01T14:25:35.002Z</time></trkpt><trkpt lat="44.847916381908206" lon="9.785455433792361"><ele>337.0</ele><time>2026-05-01T14:25:36.002Z</time></trkpt><trkpt lat="44.84778120073938" lon="9.785441036233005"><ele>337.0</ele><time>2026-05-01T14:25:37.002Z</time></trkpt><trkpt lat="44.84763730016531" lon="9.785478723903905"><ele>337.0</ele><time>2026-05-01T14:25:38.002Z</time></trkpt><trkpt lat="44.84748514387213" lon="9.785540460858956"><ele>337.3333333333333</ele><time>2026-05-01T14:25:39.002Z</time></trkpt><trkpt lat="44.84733305319529" lon="9.785530590596153"><ele>337.6666666666667</ele><time>2026-05-01T14:25:40.002Z</time></trkpt><trkpt lat="44.847179080622475" lon="9.785488757319749"><ele>338.0</ele><time>2026-05-01T14:25:41.002Z</time></trkpt><trkpt lat="44.847009432057966" lon="9.785435891592686"><ele>338.0</ele><time>2026-05-01T14:25:42.002Z</time></trkpt><trkpt lat="44.846849843322886" lon="9.785407095051747"><ele>338.0</ele><time>2026-05-01T14:25:43.002Z</time></trkpt><trkpt lat="44.8467140920976" lon="9.785314775313761"><ele>338.0</ele><time>2026-05-01T14:25:44.002Z</time></trkpt><trkpt lat="44.84659152456974" lon="9.785221314515628"><ele>336.6666666666667</ele><time>2026-05-01T14:25:45.002Z</time></trkpt><trkpt lat="44.846466312166335" lon="9.785113585319216"><ele>335.3333333333333</ele><time>2026-05-01T14:25:46.002Z</time></trkpt><trkpt lat="44.8463290451631" lon="9.784992594650523"><ele>334.0</ele><time>2026-05-01T14:25:47.002Z</time></trkpt><trkpt lat="44.84619963110246" lon="9.784889526503289"><ele>334.0</ele><time>2026-05-01T14:25:48.002Z</time></trkpt><trkpt lat="44.84607975312803" lon="9.784797844240725"><ele>334.0</ele><time>2026-05-01T14:25:49.002Z</time></trkpt><trkpt lat="44.84597145290328" lon="9.784724229172404"><ele>334.0</ele><time>2026-05-01T14:25:50.002Z</time></trkpt><trkpt lat="44.84586688270331" lon="9.784696035203725"><ele>334.0</ele><time>2026-05-01T14:25:51.002Z</time></trkpt><trkpt lat="44.84578244264076" lon="9.784682206975974"><ele>334.0</ele><time>2026-05-01T14:25:52Z</time></trkpt><trkpt lat="44.84569172373515" lon="9.784700623866188"><ele>333.75</ele><time>2026-05-01T14:25:53Z</time></trkpt><trkpt lat="44.84559813148802" lon="9.784762411689687"><ele>333.5</ele><time>2026-05-01T14:25:54Z</time></trkpt><trkpt lat="44.845508483019124" lon="9.784867605637396"><ele>333.25</ele><time>2026-05-01T14:25:55Z</time></trkpt><trkpt lat="44.8454321971809" lon="9.784983263005069"><ele>333.0</ele><time>2026-05-01T14:25:56Z</time></trkpt><trkpt lat="44.8453239216396" lon="9.785120606831498"><ele>334.5</ele><time>2026-05-01T14:25:57Z</time></trkpt><trkpt lat="44.84522732060284" lon="9.785269949832044"><ele>336.0</ele><time>2026-05-01T14:25:58Z</time></trkpt><trkpt lat="44.84513723602529" lon="9.78543346816617"><ele>337.5</ele><time>2026-05-01T14:25:59Z</time></trkpt><trkpt lat="44.84505597046763" lon="9.78560403415136"><ele>339.0</ele><time>2026-05-01T14:26:00Z</time></trkpt><trkpt lat="44.844984438179274" lon="9.785758232159553"><ele>339.0</ele><time>2026-05-01T14:26:01Z</time></trkpt><trkpt lat="44.844919919259844" lon="9.78589107292463"><ele>339.0</ele><time>2026-05-01T14:26:02Z</time></trkpt><trkpt lat="44.844858883596004" lon="9.786004980834036"><ele>339.0</ele><time>2026-05-01T14:26:03Z</time></trkpt><trkpt lat="44.84480556775566" lon="9.786106052054318"><ele>339.0</ele><time>2026-05-01T14:26:04Z</time></trkpt><trkpt lat="44.84476255209703" lon="9.786204526996354"><ele>339.0</ele><time>2026-05-01T14:26:05Z</time></trkpt><trkpt lat="44.84469618703015" lon="9.786306810998605"><ele>339.0</ele><time>2026-05-01T14:26:07Z</time></trkpt><trkpt lat="44.84478266128214" lon="9.786222393547009"><ele>339.0</ele><time>2026-05-01T14:26:18Z</time></trkpt><trkpt lat="44.84482281154508" lon="9.786111890618706"><ele>339.0</ele><time>2026-05-01T14:26:19Z</time></trkpt><trkpt lat="44.844871313643054" lon="9.785987573848839"><ele>339.0</ele><time>2026-05-01T14:26:20Z</time></trkpt><trkpt lat="44.844938491228994" lon="9.785845042558641"><ele>339.0</ele><time>2026-05-01T14:26:21Z</time></trkpt><trkpt lat="44.845031951803826" lon="9.785719549717347"><ele>339.0</ele><time>2026-05-01T14:26:22Z</time></trkpt><trkpt lat="44.84510032668166" lon="9.785589044354735"><ele>339.0</ele><time>2026-05-01T14:26:23Z</time></trkpt><trkpt lat="44.84516608284045" lon="9.78546321519696"><ele>339.0</ele><time>2026-05-01T14:26:24Z</time></trkpt><trkpt lat="44.845219713408945" lon="9.785322361780356"><ele>339.0</ele><time>2026-05-01T14:26:25Z</time></trkpt><trkpt lat="44.84529817213002" lon="9.785205287269877"><ele>337.79999999999995</ele><time>2026-05-01T14:26:26Z</time></trkpt><trkpt lat="44.84536076234587" lon="9.785095686929594"><ele>336.59999999999997</ele><time>2026-05-01T14:26:27Z</time></trkpt><trkpt lat="44.84544416155882" lon="9.78501837783347"><ele>335.4</ele><time>2026-05-01T14:26:28Z</time></trkpt><trkpt lat="44.845506861309424" lon="9.784918900279306"><ele>334.2</ele><time>2026-05-01T14:26:29Z</time></trkpt><trkpt lat="44.84557088953441" lon="9.784851623174044"><ele>333.0</ele><time>2026-05-01T14:26:30Z</time></trkpt><trkpt lat="44.84564167371818" lon="9.784802908292564"><ele>333.0</ele><time>2026-05-01T14:26:32.001Z</time></trkpt><trkpt lat="44.845549806556726" lon="9.784719553284875"><ele>333.0</ele><time>2026-05-01T14:26:35.001Z</time></trkpt><trkpt lat="44.845480932776574" lon="9.78472420027755"><ele>333.0</ele><time>2026-05-01T14:26:37.001Z</time></trkpt><trkpt lat="44.8453997648732" lon="9.784693705285521"><ele>333.0</ele><time>2026-05-01T14:26:39.001Z</time></trkpt><trkpt lat="44.84530697315527" lon="9.784648346717297"><ele>333.0</ele><time>2026-05-01T14:26:41.001Z</time></trkpt><trkpt lat="44.84522031721435" lon="9.784600051143084"><ele>333.59999999999997</ele><time>2026-05-01T14:26:43.001Z</time></trkpt><trkpt lat="44.84509325597431" lon="9.784569129566737"><ele>334.2</ele><time>2026-05-01T14:26:45.001Z</time></trkpt><trkpt lat="44.84499831457473" lon="9.784594563714107"><ele>334.8</ele><time>2026-05-01T14:26:46.001Z</time></trkpt><trkpt lat="44.844896547890386" lon="9.784629585906488"><ele>335.4</ele><time>2026-05-01T14:26:47.001Z</time></trkpt><trkpt lat="44.84479272725989" lon="9.784665585498596"><ele>336.0</ele><time>2026-05-01T14:26:48.001Z</time></trkpt><trkpt lat="44.84467777138935" lon="9.78469188802498"><ele>336.0</ele><time>2026-05-01T14:26:49.001Z</time></trkpt><trkpt lat="44.84455103861216" lon="9.784711288590332"><ele>336.0</ele><time>2026-05-01T14:26:50.001Z</time></trkpt><trkpt lat="44.84442053715028" lon="9.784718425175416"><ele>336.0</ele><time>2026-05-01T14:26:51.001Z</time></trkpt><trkpt lat="44.84429782136265" lon="9.784729644058169"><ele>336.0</ele><time>2026-05-01T14:26:52.001Z</time></trkpt><trkpt lat="44.844186386533096" lon="9.784762868638152"><ele>336.25</ele><time>2026-05-01T14:26:53.001Z</time></trkpt><trkpt lat="44.8440746873054" lon="9.784821461304665"><ele>336.5</ele><time>2026-05-01T14:26:54.001Z</time></trkpt><trkpt lat="44.843960999586265" lon="9.784898893720023"><ele>336.75</ele><time>2026-05-01T14:26:55.001Z</time></trkpt><trkpt lat="44.84384807853047" lon="9.784979199781493"><ele>337.0</ele><time>2026-05-01T14:26:56.001Z</time></trkpt><trkpt lat="44.84373881904049" lon="9.78506099686333"><ele>337.0</ele><time>2026-05-01T14:26:57.001Z</time></trkpt><trkpt lat="44.84362755291765" lon="9.785113305429823"><ele>337.0</ele><time>2026-05-01T14:26:58.001Z</time></trkpt><trkpt lat="44.84351469408106" lon="9.785075643235785"><ele>337.0</ele><time>2026-05-01T14:26:59.001Z</time></trkpt><trkpt lat="44.84340915522303" lon="9.78502428033403"><ele>337.0</ele><time>2026-05-01T14:27:00.001Z</time></trkpt><trkpt lat="44.843294223747655" lon="9.784999214322722"><ele>336.25</ele><time>2026-05-01T14:27:01.001Z</time></trkpt><trkpt lat="44.843186592933996" lon="9.78494763713327"><ele>335.5</ele><time>2026-05-01T14:27:02.001Z</time></trkpt><trkpt lat="44.84307503890212" lon="9.784904604940847"><ele>334.75</ele><time>2026-05-01T14:27:03.001Z</time></trkpt><trkpt lat="44.842965254379195" lon="9.784863212414832"><ele>334.0</ele><time>2026-05-01T14:27:04.001Z</time></trkpt><trkpt lat="44.842851526474014" lon="9.78481697453804"><ele>334.0</ele><time>2026-05-01T14:27:05.001Z</time></trkpt><trkpt lat="44.84273909083074" lon="9.784772577223288"><ele>334.0</ele><time>2026-05-01T14:27:06.001Z</time></trkpt><trkpt lat="44.842622981662" lon="9.784731803159625"><ele>334.0</ele><time>2026-05-01T14:27:07.001Z</time></trkpt><trkpt lat="44.842511065562014" lon="9.784687734113852"><ele>334.0</ele><time>2026-05-01T14:27:08.001Z</time></trkpt><trkpt lat="44.842422446642985" lon="9.784611013930698"><ele>334.4</ele><time>2026-05-01T14:27:09.001Z</time></trkpt><trkpt lat="44.84240344245732" lon="9.78447806719466"><ele>334.79999999999995</ele><time>2026-05-01T14:27:10.001Z</time></trkpt><trkpt lat="44.84238039350799" lon="9.78435332978545"><ele>335.20000000000005</ele><time>2026-05-01T14:27:11.001Z</time></trkpt><trkpt lat="44.84235886437135" lon="9.784227487448623"><ele>335.6</ele><time>2026-05-01T14:27:12.001Z</time></trkpt><trkpt lat="44.842327296308646" lon="9.784116261696093"><ele>336.0</ele><time>2026-05-01T14:27:13.001Z</time></trkpt><trkpt lat="44.84226514834955" lon="9.784028080152888"><ele>336.4</ele><time>2026-05-01T14:27:14.001Z</time></trkpt><trkpt lat="44.842182248078295" lon="9.783970311299651"><ele>336.8</ele><time>2026-05-01T14:27:15.001Z</time></trkpt><trkpt lat="44.84209162320845" lon="9.783965776337233"><ele>337.2</ele><time>2026-05-01T14:27:16.001Z</time></trkpt><trkpt lat="44.84199861107774" lon="9.78404051535251"><ele>337.59999999999997</ele><time>2026-05-01T14:27:17.001Z</time></trkpt><trkpt lat="44.841899948870804" lon="9.784126974853129"><ele>338.0</ele><time>2026-05-01T14:27:18.001Z</time></trkpt><trkpt lat="44.84179321383947" lon="9.784222195647779"><ele>339.2</ele><time>2026-05-01T14:27:19.001Z</time></trkpt><trkpt lat="44.841693171823906" lon="9.784316895371786"><ele>340.4</ele><time>2026-05-01T14:27:20.001Z</time></trkpt><trkpt lat="44.84159979067346" lon="9.784354849224625"><ele>341.59999999999997</ele><time>2026-05-01T14:27:21.001Z</time></trkpt><trkpt lat="44.84153279605114" lon="9.784433818699094"><ele>342.79999999999995</ele><time>2026-05-01T14:27:22.001Z</time></trkpt><trkpt lat="44.84143916259101" lon="9.78449465356579"><ele>344.0</ele><time>2026-05-01T14:27:23.001Z</time></trkpt><trkpt lat="44.841337171442895" lon="9.784553810033543"><ele>344.25</ele><time>2026-05-01T14:27:24.001Z</time></trkpt><trkpt lat="44.84121564918757" lon="9.784576613607845"><ele>344.5</ele><time>2026-05-01T14:27:25.001Z</time></trkpt><trkpt lat="44.841094300765825" lon="9.784606435112474"><ele>344.75</ele><time>2026-05-01T14:27:26.001Z</time></trkpt><trkpt lat="44.840981398213486" lon="9.784606406585079"><ele>345.0</ele><time>2026-05-01T14:27:27.001Z</time></trkpt><trkpt lat="44.840870224609915" lon="9.78456615505112"><ele>347.5</ele><time>2026-05-01T14:27:28.001Z</time></trkpt><trkpt lat="44.84075184900612" lon="9.784513911844634"><ele>350.0</ele><time>2026-05-01T14:27:29.001Z</time></trkpt><trkpt lat="44.84060668606243" lon="9.78449850732771"><ele>352.5</ele><time>2026-05-01T14:27:30.001Z</time></trkpt><trkpt lat="44.84044720701711" lon="9.7844850769502"><ele>355.0</ele><time>2026-05-01T14:27:31.002Z</time></trkpt><trkpt lat="44.840294736291895" lon="9.784438628407582"><ele>355.0</ele><time>2026-05-01T14:27:32.002Z</time></trkpt><trkpt lat="44.84021258946212" lon="9.784358268602215"><ele>355.0</ele><time>2026-05-01T14:27:33.002Z</time></trkpt><trkpt lat="44.84015427075394" lon="9.784269952025834"><ele>355.0</ele><time>2026-05-01T14:27:34.002Z</time></trkpt><trkpt lat="44.84008660311364" lon="9.78415743909814"><ele>355.0</ele><time>2026-05-01T14:27:35.002Z</time></trkpt><trkpt lat="44.84001648668499" lon="9.784074662899236"><ele>355.0</ele><time>2026-05-01T14:27:36.002Z</time></trkpt><trkpt lat="44.839950647540654" lon="9.784030743653702"><ele>357.4</ele><time>2026-05-01T14:27:37.002Z</time></trkpt><trkpt lat="44.83986921780222" lon="9.784023483736162"><ele>359.8</ele><time>2026-05-01T14:27:38.002Z</time></trkpt><trkpt lat="44.83978369136255" lon="9.784031487264208"><ele>362.20000000000005</ele><time>2026-05-01T14:27:39.002Z</time></trkpt><trkpt lat="44.83969315827297" lon="9.784068805937514"><ele>364.6</ele><time>2026-05-01T14:27:40.002Z</time></trkpt><trkpt lat="44.83961001529458" lon="9.784119429187582"><ele>367.0</ele><time>2026-05-01T14:27:41.002Z</time></trkpt><trkpt lat="44.83955509751282" lon="9.784237756434543"><ele>367.25</ele><time>2026-05-01T14:27:42.002Z</time></trkpt><trkpt lat="44.83955540009939" lon="9.784391254952956"><ele>367.5</ele><time>2026-05-01T14:27:43.002Z</time></trkpt><trkpt lat="44.83955255493748" lon="9.784580926149811"><ele>367.75</ele><time>2026-05-01T14:27:44.002Z</time></trkpt><trkpt lat="44.83953790453927" lon="9.784766617128696"><ele>368.0</ele><time>2026-05-01T14:27:45.002Z</time></trkpt><trkpt lat="44.8395277174569" lon="9.784895442549525"><ele>368.0</ele><time>2026-05-01T14:27:46.002Z</time></trkpt><trkpt lat="44.83951675362813" lon="9.7849849805373"><ele>368.0</ele><time>2026-05-01T14:27:47.002Z</time></trkpt><trkpt lat="44.839404729138316" lon="9.784949109373448"><ele>368.0</ele><time>2026-05-01T14:27:49.002Z</time></trkpt><trkpt lat="44.83933735901037" lon="9.784883670098932"><ele>368.0</ele><time>2026-05-01T14:27:50.002Z</time></trkpt><trkpt lat="44.839255506226856" lon="9.784828749997864"><ele>368.0</ele><time>2026-05-01T14:27:51.002Z</time></trkpt><trkpt lat="44.83916416080793" lon="9.78479321112899"><ele>368.0</ele><time>2026-05-01T14:27:52.002Z</time></trkpt><trkpt lat="44.839086003006464" lon="9.784792917203372"><ele>369.5</ele><time>2026-05-01T14:27:53.002Z</time></trkpt><trkpt lat="44.83899787792693" lon="9.784834346872582"><ele>371.0</ele><time>2026-05-01T14:27:55.002Z</time></trkpt><trkpt lat="44.83893418405734" lon="9.784858991494241"><ele>372.5</ele><time>2026-05-01T14:28:00Z</time></trkpt><trkpt lat="44.838836710202514" lon="9.78490095731177"><ele>374.0</ele><time>2026-05-01T14:28:02Z</time></trkpt><trkpt lat="44.83876129334198" lon="9.784899551952272"><ele>375.5</ele><time>2026-05-01T14:28:03Z</time></trkpt><trkpt lat="44.83867611044272" lon="9.784837127108114"><ele>377.0</ele><time>2026-05-01T14:28:04Z</time></trkpt><trkpt lat="44.83858044318779" lon="9.784785523440647"><ele>377.0</ele><time>2026-05-01T14:28:05Z</time></trkpt><trkpt lat="44.838476454006475" lon="9.78473859810307"><ele>377.0</ele><time>2026-05-01T14:28:06Z</time></trkpt><trkpt lat="44.838373205696755" lon="9.784683597223326"><ele>377.0</ele><time>2026-05-01T14:28:07Z</time></trkpt><trkpt lat="44.838271285454226" lon="9.784633489898317"><ele>377.0</ele><time>2026-05-01T14:28:08Z</time></trkpt><trkpt lat="44.83816656502409" lon="9.784595714266855"><ele>377.0</ele><time>2026-05-01T14:28:09Z</time></trkpt><trkpt lat="44.838056228963175" lon="9.784585926450122"><ele>379.0</ele><time>2026-05-01T14:28:10Z</time></trkpt><trkpt lat="44.83794259845268" lon="9.784585155079206"><ele>381.0</ele><time>2026-05-01T14:28:11Z</time></trkpt><trkpt lat="44.83782755424757" lon="9.784591200635424"><ele>383.0</ele><time>2026-05-01T14:28:12Z</time></trkpt><trkpt lat="44.83771942086364" lon="9.784605420655609"><ele>385.0</ele><time>2026-05-01T14:28:13Z</time></trkpt><trkpt lat="44.83762377048995" lon="9.784612837125868"><ele>387.0</ele><time>2026-05-01T14:28:14Z</time></trkpt><trkpt lat="44.83752816576257" lon="9.78461863370155"><ele>390.40000000000003</ele><time>2026-05-01T14:28:15Z</time></trkpt><trkpt lat="44.83743320766392" lon="9.784662148276308"><ele>393.8</ele><time>2026-05-01T14:28:16Z</time></trkpt><trkpt lat="44.837343447789536" lon="9.784703078498904"><ele>397.2</ele><time>2026-05-01T14:28:17Z</time></trkpt><trkpt lat="44.83728225096598" lon="9.784813492132688"><ele>400.6</ele><time>2026-05-01T14:28:18Z</time></trkpt><trkpt lat="44.837222836943866" lon="9.78495314518692"><ele>404.0</ele><time>2026-05-01T14:28:19Z</time></trkpt><trkpt lat="44.83718798310812" lon="9.78510442317676"><ele>404.0</ele><time>2026-05-01T14:28:20Z</time></trkpt><trkpt lat="44.83716230339758" lon="9.78531057113824"><ele>404.0</ele><time>2026-05-01T14:28:21Z</time></trkpt><trkpt lat="44.837144493350166" lon="9.785495304758715"><ele>404.0</ele><time>2026-05-01T14:28:22Z</time></trkpt><trkpt lat="44.837156447241185" lon="9.785654839186268"><ele>404.0</ele><time>2026-05-01T14:28:23Z</time></trkpt><trkpt lat="44.83718866672812" lon="9.785811692410228"><ele>404.0</ele><time>2026-05-01T14:28:24Z</time></trkpt><trkpt lat="44.83723686142468" lon="9.785970257351998"><ele>404.0</ele><time>2026-05-01T14:28:25Z</time></trkpt><trkpt lat="44.83729028372377" lon="9.786132634144147"><ele>404.0</ele><time>2026-05-01T14:28:26Z</time></trkpt><trkpt lat="44.83732905319149" lon="9.78627971810061"><ele>404.0</ele><time>2026-05-01T14:28:27Z</time></trkpt><trkpt lat="44.837355360781174" lon="9.78642759722303"><ele>403.0</ele><time>2026-05-01T14:28:28Z</time></trkpt><trkpt lat="44.83737268039924" lon="9.786594149940035"><ele>402.0</ele><time>2026-05-01T14:28:29Z</time></trkpt><trkpt lat="44.83739541709288" lon="9.786783719006444"><ele>401.0</ele><time>2026-05-01T14:28:30Z</time></trkpt><trkpt lat="44.83744813287948" lon="9.786988930340929"><ele>400.0</ele><time>2026-05-01T14:28:31Z</time></trkpt><trkpt lat="44.83754647379918" lon="9.787228693850626"><ele>394.6666666666667</ele><time>2026-05-01T14:28:32Z</time></trkpt><trkpt lat="44.8376495938869" lon="9.787479765640631"><ele>389.33333333333337</ele><time>2026-05-01T14:28:33Z</time></trkpt><trkpt lat="44.837722038791085" lon="9.78771617225243"><ele>384.0</ele><time>2026-05-01T14:28:34Z</time></trkpt><trkpt lat="44.83777666751145" lon="9.787911044723447"><ele>384.0</ele><time>2026-05-01T14:28:35.001Z</time></trkpt><trkpt lat="44.83781903638379" lon="9.788083524728153"><ele>384.0</ele><time>2026-05-01T14:28:36.001Z</time></trkpt><trkpt lat="44.837819748148554" lon="9.788249536769433"><ele>384.0</ele><time>2026-05-01T14:28:37.001Z</time></trkpt><trkpt lat="44.83781212939041" lon="9.788413430769277"><ele>384.0</ele><time>2026-05-01T14:28:38.001Z</time></trkpt><trkpt lat="44.83782951727277" lon="9.788584667899586"><ele>385.66666666666663</ele><time>2026-05-01T14:28:39.001Z</time></trkpt><trkpt lat="44.83784389197893" lon="9.788769368835517"><ele>387.3333333333333</ele><time>2026-05-01T14:28:40.001Z</time></trkpt><trkpt lat="44.83790769351422" lon="9.788968674233546"><ele>389.0</ele><time>2026-05-01T14:28:41.001Z</time></trkpt><trkpt lat="44.83801214276741" lon="9.789185153287482"><ele>388.0</ele><time>2026-05-01T14:28:42.001Z</time></trkpt><trkpt lat="44.83810670735811" lon="9.789356268648454"><ele>387.0</ele><time>2026-05-01T14:28:43.001Z</time></trkpt><trkpt lat="44.83817664237637" lon="9.78950809374371"><ele>386.0</ele><time>2026-05-01T14:28:44.001Z</time></trkpt><trkpt lat="44.83822594043172" lon="9.789640389007923"><ele>385.0</ele><time>2026-05-01T14:28:45.001Z</time></trkpt><trkpt lat="44.8382704970755" lon="9.789763752371197"><ele>385.00000000000006</ele><time>2026-05-01T14:28:46.001Z</time></trkpt><trkpt lat="44.83831202498996" lon="9.789863343930199"><ele>385.0</ele><time>2026-05-01T14:28:47.001Z</time></trkpt><trkpt lat="44.83836083006388" lon="9.789951154956"><ele>385.0</ele><time>2026-05-01T14:28:48.001Z</time></trkpt><trkpt lat="44.838420887694035" lon="9.790038352852402"><ele>385.0</ele><time>2026-05-01T14:28:49.001Z</time></trkpt><trkpt lat="44.8384721110242" lon="9.790113674033497"><ele>385.00000000000006</ele><time>2026-05-01T14:28:50.001Z</time></trkpt><trkpt lat="44.83851064919724" lon="9.790187689478547"><ele>385.0</ele><time>2026-05-01T14:28:51.001Z</time></trkpt><trkpt lat="44.83855654072345" lon="9.79025292592371"><ele>383.83333333333337</ele><time>2026-05-01T14:28:52.001Z</time></trkpt><trkpt lat="44.838601064159434" lon="9.79032906813286"><ele>382.6666666666667</ele><time>2026-05-01T14:28:53.001Z</time></trkpt><trkpt lat="44.83864520267064" lon="9.790410666260335"><ele>381.5</ele><time>2026-05-01T14:28:54.001Z</time></trkpt><trkpt lat="44.83868461511691" lon="9.790490707834394"><ele>380.33333333333337</ele><time>2026-05-01T14:28:55.001Z</time></trkpt><trkpt lat="44.838725132595606" lon="9.79056036903537"><ele>379.1666666666667</ele><time>2026-05-01T14:28:57.001Z</time></trkpt><trkpt lat="44.83875850359449" lon="9.790671051171019"><ele>378.0</ele><time>2026-05-01T14:29:38.002Z</time></trkpt><trkpt lat="44.83881127337445" lon="9.790794903764896"><ele>378.0</ele><time>2026-05-01T14:29:39.002Z</time></trkpt><trkpt lat="44.838876269977966" lon="9.790947422409646"><ele>378.0</ele><time>2026-05-01T14:29:40.002Z</time></trkpt><trkpt lat="44.838953158086944" lon="9.791127749905383"><ele>378.0</ele><time>2026-05-01T14:29:41.002Z</time></trkpt><trkpt lat="44.839031770270445" lon="9.791312120936196"><ele>378.0</ele><time>2026-05-01T14:29:42.002Z</time></trkpt><trkpt lat="44.83911995616487" lon="9.791522959795081"><ele>376.6666666666667</ele><time>2026-05-01T14:29:43.002Z</time></trkpt><trkpt lat="44.83921419665927" lon="9.791753829368384"><ele>375.33333333333337</ele><time>2026-05-01T14:29:44.002Z</time></trkpt><trkpt lat="44.83930565226983" lon="9.79199855447592"><ele>374.0</ele><time>2026-05-01T14:29:45.002Z</time></trkpt><trkpt lat="44.839393241241716" lon="9.792245741535845"><ele>372.33333333333337</ele><time>2026-05-01T14:29:46.002Z</time></trkpt><trkpt lat="44.83947610055071" lon="9.792475018103453"><ele>370.6666666666667</ele><time>2026-05-01T14:29:47.002Z</time></trkpt><trkpt lat="44.839553285964335" lon="9.792696233345065"><ele>369.0</ele><time>2026-05-01T14:29:48.002Z</time></trkpt><trkpt lat="44.839624043876256" lon="9.792916003614184"><ele>369.0</ele><time>2026-05-01T14:29:49.002Z</time></trkpt><trkpt lat="44.839686386362274" lon="9.793131661452295"><ele>369.0</ele><time>2026-05-01T14:29:50.002Z</time></trkpt><trkpt lat="44.83974249294116" lon="9.793342723567987"><ele>369.0</ele><time>2026-05-01T14:29:51.002Z</time></trkpt><trkpt lat="44.83979304035464" lon="9.79355025306699"><ele>367.0</ele><time>2026-05-01T14:29:52.002Z</time></trkpt><trkpt lat="44.839843004660054" lon="9.793767526358264"><ele>365.0</ele><time>2026-05-01T14:29:53.002Z</time></trkpt><trkpt lat="44.839896947034305" lon="9.793997945074974"><ele>363.0</ele><time>2026-05-01T14:29:54.002Z</time></trkpt><trkpt lat="44.83995867463518" lon="9.7942380532462"><ele>361.0</ele><time>2026-05-01T14:29:55.002Z</time></trkpt><trkpt lat="44.840016178696274" lon="9.794470082027985"><ele>359.0</ele><time>2026-05-01T14:29:56.002Z</time></trkpt><trkpt lat="44.84006560576664" lon="9.794698223358635"><ele>357.0</ele><time>2026-05-01T14:29:57.002Z</time></trkpt><trkpt lat="44.84009350246531" lon="9.794902414346303"><ele>357.0</ele><time>2026-05-01T14:29:58.002Z</time></trkpt><trkpt lat="44.840122439373935" lon="9.795123143273555"><ele>357.0</ele><time>2026-05-01T14:29:59.002Z</time></trkpt><trkpt lat="44.840168699800365" lon="9.795350603922847"><ele>357.0</ele><time>2026-05-01T14:30:00.002Z</time></trkpt><trkpt lat="44.84020979387466" lon="9.795582295256953"><ele>357.3333333333333</ele><time>2026-05-01T14:30:01.002Z</time></trkpt><trkpt lat="44.84026133181661" lon="9.79582009240629"><ele>357.66666666666663</ele><time>2026-05-01T14:30:02.002Z</time></trkpt><trkpt lat="44.8402940562224" lon="9.796084858684939"><ele>358.0</ele><time>2026-05-01T14:30:03.002Z</time></trkpt><trkpt lat="44.840340826442066" lon="9.796346959607641"><ele>356.66666666666663</ele><time>2026-05-01T14:30:04Z</time></trkpt><trkpt lat="44.84038371832625" lon="9.796624703078747"><ele>355.3333333333333</ele><time>2026-05-01T14:30:05Z</time></trkpt><trkpt lat="44.840442756206485" lon="9.79689178612517"><ele>354.0</ele><time>2026-05-01T14:30:06Z</time></trkpt><trkpt lat="44.840492462437936" lon="9.797134525320493"><ele>353.6666666666667</ele><time>2026-05-01T14:30:07Z</time></trkpt><trkpt lat="44.8405541800629" lon="9.797358857824749"><ele>353.33333333333337</ele><time>2026-05-01T14:30:08Z</time></trkpt><trkpt lat="44.84059587041497" lon="9.797598711193082"><ele>353.0</ele><time>2026-05-01T14:30:09Z</time></trkpt><trkpt lat="44.84066465183399" lon="9.79781246000912"><ele>350.33333333333337</ele><time>2026-05-01T14:30:10Z</time></trkpt><trkpt lat="44.84073147759513" lon="9.798012457186612"><ele>347.6666666666667</ele><time>2026-05-01T14:30:11Z</time></trkpt><trkpt lat="44.84082356435462" lon="9.798205065575635"><ele>345.0</ele><time>2026-05-01T14:30:12Z</time></trkpt><trkpt lat="44.84090034298763" lon="9.798413162349481"><ele>345.6666666666667</ele><time>2026-05-01T14:30:13Z</time></trkpt><trkpt lat="44.84094630539442" lon="9.798616116729649"><ele>346.33333333333337</ele><time>2026-05-01T14:30:14Z</time></trkpt><trkpt lat="44.84098588892008" lon="9.7988539755071"><ele>347.0</ele><time>2026-05-01T14:30:15Z</time></trkpt><trkpt lat="44.84106236811566" lon="9.799071427104806"><ele>347.0</ele><time>2026-05-01T14:30:16Z</time></trkpt><trkpt lat="44.8411503196018" lon="9.799286148043292"><ele>347.0</ele><time>2026-05-01T14:30:17Z</time></trkpt><trkpt lat="44.84124624816533" lon="9.799506241758422"><ele>347.0</ele><time>2026-05-01T14:30:18Z</time></trkpt><trkpt lat="44.84132365740969" lon="9.799695049738807"><ele>346.0</ele><time>2026-05-01T14:30:19Z</time></trkpt><trkpt lat="44.84138696580895" lon="9.799888009383244"><ele>345.0</ele><time>2026-05-01T14:30:20Z</time></trkpt><trkpt lat="44.84144559977624" lon="9.800084478301923"><ele>344.0</ele><time>2026-05-01T14:30:21Z</time></trkpt><trkpt lat="44.84152575528169" lon="9.800296325956229"><ele>342.33333333333337</ele><time>2026-05-01T14:30:22Z</time></trkpt><trkpt lat="44.841605369023924" lon="9.800538016405007"><ele>340.6666666666667</ele><time>2026-05-01T14:30:23Z</time></trkpt><trkpt lat="44.84168618012519" lon="9.800775485509536"><ele>339.0</ele><time>2026-05-01T14:30:24Z</time></trkpt><trkpt lat="44.8417617493175" lon="9.801000738377208"><ele>338.0</ele><time>2026-05-01T14:30:25Z</time></trkpt><trkpt lat="44.84183372494205" lon="9.801226989814403"><ele>337.0</ele><time>2026-05-01T14:30:26Z</time></trkpt><trkpt lat="44.84190798198199" lon="9.801430802402894"><ele>336.0</ele><time>2026-05-01T14:30:27Z</time></trkpt><trkpt lat="44.842000992031835" lon="9.801611565486574"><ele>336.0</ele><time>2026-05-01T14:30:28Z</time></trkpt><trkpt lat="44.842112987211365" lon="9.801757265578908"><ele>336.0</ele><time>2026-05-01T14:30:29Z</time></trkpt><trkpt lat="44.84218902770274" lon="9.801920809116622"><ele>336.0</ele><time>2026-05-01T14:30:30Z</time></trkpt><trkpt lat="44.84225028715338" lon="9.80208860305687"><ele>336.0</ele><time>2026-05-01T14:30:31Z</time></trkpt><trkpt lat="44.842346795830885" lon="9.80221883928683"><ele>334.25</ele><time>2026-05-01T14:30:32Z</time></trkpt><trkpt lat="44.842444082047585" lon="9.80231691141669"><ele>332.5</ele><time>2026-05-01T14:30:33Z</time></trkpt><trkpt lat="44.842563343838755" lon="9.802392070668537"><ele>330.75</ele><time>2026-05-01T14:30:34Z</time></trkpt><trkpt lat="44.842661571848204" lon="9.802542363185"><ele>329.0</ele><time>2026-05-01T14:30:35Z</time></trkpt><trkpt lat="44.84274785077091" lon="9.802696174112082"><ele>327.79999999999995</ele><time>2026-05-01T14:30:36Z</time></trkpt><trkpt lat="44.84282830167094" lon="9.802846716867766"><ele>326.59999999999997</ele><time>2026-05-01T14:30:37Z</time></trkpt><trkpt lat="44.84288669441258" lon="9.802986150469005"><ele>325.4</ele><time>2026-05-01T14:30:38Z</time></trkpt><trkpt lat="44.84292153411095" lon="9.803067753518393"><ele>324.2</ele><time>2026-05-01T14:30:39Z</time></trkpt><trkpt lat="44.8428812741372" lon="9.802987638137873"><ele>323.0</ele><time>2026-05-01T14:30:44Z</time></trkpt><trkpt lat="44.842740072698675" lon="9.802943781709885"><ele>323.0</ele><time>2026-05-01T14:30:46.001Z</time></trkpt><trkpt lat="44.8426447876523" lon="9.80289859915133"><ele>323.0</ele><time>2026-05-01T14:30:47.001Z</time></trkpt><trkpt lat="44.84255233024154" lon="9.802824821715772"><ele>323.0</ele><time>2026-05-01T14:30:48.001Z</time></trkpt><trkpt lat="44.84245270426295" lon="9.802756996161081"><ele>323.0</ele><time>2026-05-01T14:30:49.001Z</time></trkpt><trkpt lat="44.84235946293915" lon="9.8026654439598"><ele>323.0</ele><time>2026-05-01T14:30:50.001Z</time></trkpt><trkpt lat="44.84227687498553" lon="9.802540985870314"><ele>324.5</ele><time>2026-05-01T14:30:51.001Z</time></trkpt><trkpt lat="44.842192250195225" lon="9.802396160992068"><ele>326.0</ele><time>2026-05-01T14:30:52.001Z</time></trkpt><trkpt lat="44.84210416661149" lon="9.802247879975935"><ele>327.5</ele><time>2026-05-01T14:30:53.001Z</time></trkpt><trkpt lat="44.84201383726575" lon="9.802095195354198"><ele>329.0</ele><time>2026-05-01T14:30:54.001Z</time></trkpt><trkpt lat="44.841920597642314" lon="9.801939392488572"><ele>327.33333333333337</ele><time>2026-05-01T14:30:55.001Z</time></trkpt><trkpt lat="44.84181133234692" lon="9.801785753165767"><ele>325.6666666666667</ele><time>2026-05-01T14:30:56.001Z</time></trkpt><trkpt lat="44.84172420598121" lon="9.80160822719959"><ele>324.0</ele><time>2026-05-01T14:30:57.001Z</time></trkpt><trkpt lat="44.841629442351355" lon="9.80142504472019"><ele>324.0</ele><time>2026-05-01T14:30:58.001Z</time></trkpt><trkpt lat="44.841555621946576" lon="9.801211685336524"><ele>324.0</ele><time>2026-05-01T14:30:59.001Z</time></trkpt><trkpt lat="44.841448898183124" lon="9.801017736446898"><ele>324.0</ele><time>2026-05-01T14:31:00.001Z</time></trkpt><trkpt lat="44.841342545773706" lon="9.800817858427159"><ele>329.0</ele><time>2026-05-01T14:31:01.001Z</time></trkpt><trkpt lat="44.841256084958" lon="9.800606106828418"><ele>334.0</ele><time>2026-05-01T14:31:02.001Z</time></trkpt><trkpt lat="44.84114865861791" lon="9.800444160257715"><ele>339.0</ele><time>2026-05-01T14:31:03.001Z</time></trkpt><trkpt lat="44.841052865501524" lon="9.800292013583322"><ele>337.25</ele><time>2026-05-01T14:31:04.001Z</time></trkpt><trkpt lat="44.840964415027955" lon="9.800145965739507"><ele>335.5</ele><time>2026-05-01T14:31:05.001Z</time></trkpt><trkpt lat="44.84091705329112" lon="9.799958561354176"><ele>333.75</ele><time>2026-05-01T14:31:06.001Z</time></trkpt><trkpt lat="44.840864520436966" lon="9.799787686998526"><ele>332.0</ele><time>2026-05-01T14:31:07.001Z</time></trkpt><trkpt lat="44.84077845081833" lon="9.799640772645013"><ele>332.0</ele><time>2026-05-01T14:31:08.001Z</time></trkpt><trkpt lat="44.840682829265106" lon="9.799509929088234"><ele>332.0</ele><time>2026-05-01T14:31:09.001Z</time></trkpt><trkpt lat="44.84059700804625" lon="9.799389096092495"><ele>332.0</ele><time>2026-05-01T14:31:10.001Z</time></trkpt><trkpt lat="44.84055333288192" lon="9.799247377454671"><ele>332.0</ele><time>2026-05-01T14:31:11.001Z</time></trkpt><trkpt lat="44.84052289622943" lon="9.79907963667386"><ele>334.25</ele><time>2026-05-01T14:31:12.001Z</time></trkpt><trkpt lat="44.84051678245545" lon="9.798891942529215"><ele>336.5</ele><time>2026-05-01T14:31:13.001Z</time></trkpt><trkpt lat="44.84048540101571" lon="9.79869665270497"><ele>338.75</ele><time>2026-05-01T14:31:14.001Z</time></trkpt><trkpt lat="44.840469373389595" lon="9.79853030789176"><ele>341.0</ele><time>2026-05-01T14:31:15.001Z</time></trkpt><trkpt lat="44.84041228634655" lon="9.798396624717745"><ele>342.0</ele><time>2026-05-01T14:31:16.001Z</time></trkpt><trkpt lat="44.840310221292675" lon="9.798285596255875"><ele>343.0</ele><time>2026-05-01T14:31:17.001Z</time></trkpt><trkpt lat="44.84020713048576" lon="9.798154406026354"><ele>344.0</ele><time>2026-05-01T14:31:18.001Z</time></trkpt><trkpt lat="44.84018466325537" lon="9.797983599136371"><ele>345.0</ele><time>2026-05-01T14:31:19.001Z</time></trkpt><trkpt lat="44.840175818126646" lon="9.797803955250064"><ele>347.0</ele><time>2026-05-01T14:31:20.001Z</time></trkpt><trkpt lat="44.84015425789351" lon="9.797612524968157"><ele>349.0</ele><time>2026-05-01T14:31:21.001Z</time></trkpt><trkpt lat="44.84008335825466" lon="9.79743793362386"><ele>351.0</ele><time>2026-05-01T14:31:22.001Z</time></trkpt><trkpt lat="44.83998026534947" lon="9.797252162107515"><ele>353.0</ele><time>2026-05-01T14:31:23.001Z</time></trkpt><trkpt lat="44.83991959720189" lon="9.797006096051454"><ele>349.33333333333337</ele><time>2026-05-01T14:31:24.001Z</time></trkpt><trkpt lat="44.83981803498389" lon="9.796762739279831"><ele>345.6666666666667</ele><time>2026-05-01T14:31:25.001Z</time></trkpt><trkpt lat="44.839726814542416" lon="9.796513294232867"><ele>342.0</ele><time>2026-05-01T14:31:26.001Z</time></trkpt><trkpt lat="44.83963228173468" lon="9.796283572641478"><ele>342.0</ele><time>2026-05-01T14:31:27.001Z</time></trkpt><trkpt lat="44.839551310646776" lon="9.796073346754243"><ele>342.0</ele><time>2026-05-01T14:31:28.001Z</time></trkpt><trkpt lat="44.83950227686787" lon="9.795856983364843"><ele>342.0</ele><time>2026-05-01T14:31:29.001Z</time></trkpt><trkpt lat="44.83945659609297" lon="9.795645140464915"><ele>344.5</ele><time>2026-05-01T14:31:30.001Z</time></trkpt><trkpt lat="44.83936478508298" lon="9.795475868663907"><ele>347.0</ele><time>2026-05-01T14:31:31.001Z</time></trkpt><trkpt lat="44.839301565571056" lon="9.795322194931241"><ele>349.5</ele><time>2026-05-01T14:31:32.001Z</time></trkpt><trkpt lat="44.83925715810711" lon="9.7951788155029"><ele>352.0</ele><time>2026-05-01T14:31:33.001Z</time></trkpt><trkpt lat="44.839259409347925" lon="9.79502291753122"><ele>345.75</ele><time>2026-05-01T14:31:34.001Z</time></trkpt><trkpt lat="44.83924495914046" lon="9.794851603130963"><ele>339.5</ele><time>2026-05-01T14:31:35.001Z</time></trkpt><trkpt lat="44.83918024697998" lon="9.794698495452055"><ele>333.25</ele><time>2026-05-01T14:31:36.001Z</time></trkpt><trkpt lat="44.8390765680271" lon="9.794597784331927"><ele>327.0</ele><time>2026-05-01T14:31:37.001Z</time></trkpt><trkpt lat="44.83896133883997" lon="9.794520643753431"><ele>327.0</ele><time>2026-05-01T14:31:38.001Z</time></trkpt><trkpt lat="44.83888777626253" lon="9.794378150809848"><ele>327.0</ele><time>2026-05-01T14:31:39.001Z</time></trkpt><trkpt lat="44.838835243323" lon="9.794171066074515"><ele>327.0</ele><time>2026-05-01T14:31:40.001Z</time></trkpt><trkpt lat="44.83875548295076" lon="9.79395552475691"><ele>325.0</ele><time>2026-05-01T14:31:41.001Z</time></trkpt><trkpt lat="44.83868455914893" lon="9.793781098165567"><ele>323.0</ele><time>2026-05-01T14:31:42.001Z</time></trkpt><trkpt lat="44.83857960978739" lon="9.793639580365172"><ele>321.0</ele><time>2026-05-01T14:31:43.001Z</time></trkpt><trkpt lat="44.838468313474685" lon="9.793516875911335"><ele>319.0</ele><time>2026-05-01T14:31:44.001Z</time></trkpt><trkpt lat="44.838417242583816" lon="9.79336471037676"><ele>319.0</ele><time>2026-05-01T14:31:45.001Z</time></trkpt><trkpt lat="44.83837661799176" lon="9.793181143785029"><ele>319.0</ele><time>2026-05-01T14:31:46.002Z</time></trkpt><trkpt lat="44.838296301121396" lon="9.792977613249242"><ele>319.0</ele><time>2026-05-01T14:31:47.002Z</time></trkpt><trkpt lat="44.83820752931898" lon="9.792759874670134"><ele>323.0</ele><time>2026-05-01T14:31:48.002Z</time></trkpt><trkpt lat="44.83810542160569" lon="9.79255270412116"><ele>327.0</ele><time>2026-05-01T14:31:49.002Z</time></trkpt><trkpt lat="44.83799450084324" lon="9.792378483963697"><ele>331.0</ele><time>2026-05-01T14:31:50.002Z</time></trkpt><trkpt lat="44.83788932486719" lon="9.792244271500143"><ele>331.0</ele><time>2026-05-01T14:31:51.002Z</time></trkpt><trkpt lat="44.83777310082036" lon="9.79213984195324"><ele>331.0</ele><time>2026-05-01T14:31:52.002Z</time></trkpt><trkpt lat="44.837620040459655" lon="9.792057832941618"><ele>331.0</ele><time>2026-05-01T14:31:53.002Z</time></trkpt><trkpt lat="44.83748768390627" lon="9.791939907208876"><ele>329.25</ele><time>2026-05-01T14:31:54.002Z</time></trkpt><trkpt lat="44.83738999264427" lon="9.791831472728626"><ele>327.5</ele><time>2026-05-01T14:31:55.002Z</time></trkpt><trkpt lat="44.83733403604238" lon="9.791700725538888"><ele>325.75</ele><time>2026-05-01T14:31:56.002Z</time></trkpt><trkpt lat="44.837291147498505" lon="9.791548559932489"><ele>324.0</ele><time>2026-05-01T14:31:57.002Z</time></trkpt><trkpt lat="44.837226279387544" lon="9.791385507511162"><ele>324.0</ele><time>2026-05-01T14:31:58.002Z</time></trkpt><trkpt lat="44.83708353262316" lon="9.791277810518517"><ele>324.0</ele><time>2026-05-01T14:31:59.002Z</time></trkpt><trkpt lat="44.836956945990856" lon="9.791121778871707"><ele>324.0</ele><time>2026-05-01T14:32:00.002Z</time></trkpt><trkpt lat="44.836852144732745" lon="9.790983224006123"><ele>321.25</ele><time>2026-05-01T14:32:01.002Z</time></trkpt><trkpt lat="44.836740393030716" lon="9.790916844613005"><ele>318.5</ele><time>2026-05-01T14:32:02.002Z</time></trkpt><trkpt lat="44.83662206744087" lon="9.790861320120193"><ele>315.75</ele><time>2026-05-01T14:32:03.002Z</time></trkpt><trkpt lat="44.83649511847853" lon="9.790785478203754"><ele>313.0</ele><time>2026-05-01T14:32:04.002Z</time></trkpt><trkpt lat="44.83638433713288" lon="9.790713799404381"><ele>313.0</ele><time>2026-05-01T14:32:05.002Z</time></trkpt><trkpt lat="44.83628119576229" lon="9.79060953171753"><ele>313.0</ele><time>2026-05-01T14:32:06.002Z</time></trkpt><trkpt lat="44.836167164816715" lon="9.790480167591573"><ele>313.0</ele><time>2026-05-01T14:32:07.002Z</time></trkpt><trkpt lat="44.83607273556383" lon="9.790344511724198"><ele>313.0</ele><time>2026-05-01T14:32:08.002Z</time></trkpt><trkpt lat="44.83601056030173" lon="9.79022098389357"><ele>317.5</ele><time>2026-05-01T14:32:09.002Z</time></trkpt><trkpt lat="44.836000269824474" lon="9.790096240989955"><ele>322.0</ele><time>2026-05-01T14:32:10Z</time></trkpt><trkpt lat="44.83601384788509" lon="9.789917296942818"><ele>326.5</ele><time>2026-05-01T14:32:11Z</time></trkpt><trkpt lat="44.83602035538025" lon="9.789717448826524"><ele>331.0</ele><time>2026-05-01T14:32:12Z</time></trkpt><trkpt lat="44.83602164657685" lon="9.789546825365024"><ele>331.0</ele><time>2026-05-01T14:32:13Z</time></trkpt><trkpt lat="44.835986988233415" lon="9.789404150090071"><ele>331.0</ele><time>2026-05-01T14:32:14Z</time></trkpt><trkpt lat="44.83591127611847" lon="9.789295172256258"><ele>331.0</ele><time>2026-05-01T14:32:15Z</time></trkpt><trkpt lat="44.83578100079913" lon="9.789248211179835"><ele>331.0</ele><time>2026-05-01T14:32:16Z</time></trkpt><trkpt lat="44.835649716425415" lon="9.789201755985786"><ele>325.5</ele><time>2026-05-01T14:32:17Z</time></trkpt><trkpt lat="44.83557280971262" lon="9.789094509408132"><ele>320.0</ele><time>2026-05-01T14:32:18Z</time></trkpt><trkpt lat="44.83553163040673" lon="9.788967649445592"><ele>314.5</ele><time>2026-05-01T14:32:19Z</time></trkpt><trkpt lat="44.83547873655402" lon="9.788807098043822"><ele>309.0</ele><time>2026-05-01T14:32:20Z</time></trkpt><trkpt lat="44.83538005186264" lon="9.788713176460742"><ele>309.0</ele><time>2026-05-01T14:32:21Z</time></trkpt><trkpt lat="44.83525240855044" lon="9.788659019451174"><ele>309.0</ele><time>2026-05-01T14:32:22Z</time></trkpt><trkpt lat="44.83509854861007" lon="9.788612087025122"><ele>309.0</ele><time>2026-05-01T14:32:23Z</time></trkpt><trkpt lat="44.834986948297384" lon="9.788573349003206"><ele>309.0</ele><time>2026-05-01T14:32:24Z</time></trkpt><trkpt lat="44.83491992726915" lon="9.788578065207378"><ele>309.0</ele><time>2026-05-01T14:32:25Z</time></trkpt><trkpt lat="44.834882159379404" lon="9.788727110005786"><ele>309.0</ele><time>2026-05-01T14:32:27Z</time></trkpt><trkpt lat="44.834928505853405" lon="9.788856798207169"><ele>309.0</ele><time>2026-05-01T14:32:28Z</time></trkpt><trkpt lat="44.83503276950115" lon="9.788907346777096"><ele>309.0</ele><time>2026-05-01T14:32:29Z</time></trkpt><trkpt lat="44.83514895465961" lon="9.788889488918395"><ele>309.0</ele><time>2026-05-01T14:32:30Z</time></trkpt><trkpt lat="44.8352573127625" lon="9.788960849038979"><ele>309.0</ele><time>2026-05-01T14:32:31Z</time></trkpt><trkpt lat="44.83532604612089" lon="9.789060513796118"><ele>309.0</ele><time>2026-05-01T14:32:32Z</time></trkpt><trkpt lat="44.835329948137236" lon="9.789184167751074"><ele>309.0</ele><time>2026-05-01T14:32:33Z</time></trkpt><trkpt lat="44.83532033107276" lon="9.789326075191106"><ele>309.0</ele><time>2026-05-01T14:32:34Z</time></trkpt><trkpt lat="44.83529134864857" lon="9.789491872833453"><ele>309.0</ele><time>2026-05-01T14:32:35Z</time></trkpt><trkpt lat="44.835256396506345" lon="9.789659294380945"><ele>306.5</ele><time>2026-05-01T14:32:36Z</time></trkpt><trkpt lat="44.835238464082195" lon="9.78981919928608"><ele>304.0</ele><time>2026-05-01T14:32:37Z</time></trkpt><trkpt lat="44.835284477900615" lon="9.790004219645661"><ele>301.5</ele><time>2026-05-01T14:32:38Z</time></trkpt><trkpt lat="44.83531721456328" lon="9.790211405615954"><ele>299.0</ele><time>2026-05-01T14:32:39Z</time></trkpt><trkpt lat="44.83535718989908" lon="9.790407730773293"><ele>296.8</ele><time>2026-05-01T14:32:40Z</time></trkpt><trkpt lat="44.835382263408064" lon="9.790568398937564"><ele>294.59999999999997</ele><time>2026-05-01T14:32:41.001Z</time></trkpt><trkpt lat="44.835386498740625" lon="9.790697429983286"><ele>292.4</ele><time>2026-05-01T14:32:42.001Z</time></trkpt><trkpt lat="44.83533730172904" lon="9.790807460622462"><ele>290.2</ele><time>2026-05-01T14:32:43.001Z</time></trkpt><trkpt lat="44.83524210685963" lon="9.790901292412647"><ele>288.0</ele><time>2026-05-01T14:32:44.001Z</time></trkpt><trkpt lat="44.83512269606892" lon="9.791048492180092"><ele>283.75</ele><time>2026-05-01T14:32:45.001Z</time></trkpt><trkpt lat="44.835014877451606" lon="9.79119018919518"><ele>279.5</ele><time>2026-05-01T14:32:46.001Z</time></trkpt><trkpt lat="44.83495671643426" lon="9.791332705269491"><ele>275.25</ele><time>2026-05-01T14:32:47.001Z</time></trkpt><trkpt lat="44.83492312936725" lon="9.791474097183789"><ele>271.0</ele><time>2026-05-01T14:32:48.001Z</time></trkpt><trkpt lat="44.834899888065436" lon="9.791653314186595"><ele>271.0</ele><time>2026-05-01T14:32:49.001Z</time></trkpt><trkpt lat="44.834859955095204" lon="9.791811290731285"><ele>271.0</ele><time>2026-05-01T14:32:50.001Z</time></trkpt><trkpt lat="44.83484582315941" lon="9.791930977228434"><ele>271.0</ele><time>2026-05-01T14:32:51.001Z</time></trkpt><trkpt lat="44.83485085332628" lon="9.792035196118622"><ele>271.0</ele><time>2026-05-01T14:32:52.001Z</time></trkpt><trkpt lat="44.83490435585741" lon="9.792137503243351"><ele>271.0</ele><time>2026-05-01T14:32:53.001Z</time></trkpt><trkpt lat="44.8349550124214" lon="9.79226227309343"><ele>269.75</ele><time>2026-05-01T14:32:54.001Z</time></trkpt><trkpt lat="44.83497020631228" lon="9.792410442241549"><ele>268.5</ele><time>2026-05-01T14:32:55.001Z</time></trkpt><trkpt lat="44.83499485974711" lon="9.792570262373367"><ele>267.25</ele><time>2026-05-01T14:32:56.001Z</time></trkpt><trkpt lat="44.835023420467536" lon="9.792739769984983"><ele>266.0</ele><time>2026-05-01T14:32:57.001Z</time></trkpt><trkpt lat="44.835066229641725" lon="9.792886394254376"><ele>265.33333333333337</ele><time>2026-05-01T14:32:58.001Z</time></trkpt><trkpt lat="44.835102550399704" lon="9.793017898049348"><ele>264.6666666666667</ele><time>2026-05-01T14:32:59.001Z</time></trkpt><trkpt lat="44.835153183412864" lon="9.793125583377664"><ele>264.0</ele><time>2026-05-01T14:33:00.001Z</time></trkpt><trkpt lat="44.835213061573995" lon="9.79321595972011"><ele>263.3333333333333</ele><time>2026-05-01T14:33:01.001Z</time></trkpt><trkpt lat="44.83527499609455" lon="9.793300065994558"><ele>262.66666666666663</ele><time>2026-05-01T14:33:02.001Z</time></trkpt><trkpt lat="44.8353271796109" lon="9.793380964528959"><ele>262.0</ele><time>2026-05-01T14:33:03.001Z</time></trkpt><trkpt lat="44.835370365138644" lon="9.79346007118189"><ele>261.4</ele><time>2026-05-01T14:33:04.001Z</time></trkpt><trkpt lat="44.83541912065752" lon="9.793591269239267"><ele>260.79999999999995</ele><time>2026-05-01T14:33:06.001Z</time></trkpt><trkpt lat="44.835430430280695" lon="9.79371225899543"><ele>260.2</ele><time>2026-05-01T14:33:08.001Z</time></trkpt><trkpt lat="44.835432110139976" lon="9.793870266789169"><ele>259.59999999999997</ele><time>2026-05-01T14:33:10.001Z</time></trkpt><trkpt lat="44.8354080508641" lon="9.794004078288456"><ele>259.0</ele><time>2026-05-01T14:33:12.001Z</time></trkpt><trkpt lat="44.83538049537283" lon="9.794141666030825"><ele>259.0</ele><time>2026-05-01T14:33:14.001Z</time></trkpt><trkpt lat="44.8353608804824" lon="9.794238998543754"><ele>259.0</ele><time>2026-05-01T14:33:15.001Z</time></trkpt><trkpt lat="44.835329502723475" lon="9.794394700594982"><ele>259.0</ele><time>2026-05-01T14:33:16.001Z</time></trkpt><trkpt lat="44.8352893650803" lon="9.79458897851115"><ele>259.0</ele><time>2026-05-01T14:33:17.001Z</time></trkpt><trkpt lat="44.83523720675175" lon="9.794807596874021"><ele>259.3333333333333</ele><time>2026-05-01T14:33:18.001Z</time></trkpt><trkpt lat="44.83517431154269" lon="9.795031802099588"><ele>259.6666666666667</ele><time>2026-05-01T14:33:19.001Z</time></trkpt><trkpt lat="44.8351009149207" lon="9.795238832697144"><ele>260.0</ele><time>2026-05-01T14:33:20.001Z</time></trkpt><trkpt lat="44.835010526045416" lon="9.795422153576485"><ele>260.0</ele><time>2026-05-01T14:33:21.001Z</time></trkpt><trkpt lat="44.83492283085728" lon="9.795591858023672"><ele>260.0</ele><time>2026-05-01T14:33:22.001Z</time></trkpt><trkpt lat="44.83486652792751" lon="9.795753942191766"><ele>260.0</ele><time>2026-05-01T14:33:23.001Z</time></trkpt><trkpt lat="44.83482540553968" lon="9.795905752001191"><ele>260.0</ele><time>2026-05-01T14:33:24.001Z</time></trkpt><trkpt lat="44.83482425216525" lon="9.796118296354898"><ele>260.0</ele><time>2026-05-01T14:33:25.001Z</time></trkpt><trkpt lat="44.834827089303516" lon="9.796364442853926"><ele>260.0</ele><time>2026-05-01T14:33:26.001Z</time></trkpt><trkpt lat="44.83479922270459" lon="9.796615268012985"><ele>260.0</ele><time>2026-05-01T14:33:27.001Z</time></trkpt><trkpt lat="44.8347920128714" lon="9.796835624106885"><ele>258.6</ele><time>2026-05-01T14:33:28.001Z</time></trkpt><trkpt lat="44.834791010807464" lon="9.79700567243841"><ele>257.2</ele><time>2026-05-01T14:33:29.001Z</time></trkpt><trkpt lat="44.83477441691612" lon="9.797151454735411"><ele>255.8</ele><time>2026-05-01T14:33:30.001Z</time></trkpt><trkpt lat="44.83472343666933" lon="9.79727442891735"><ele>254.4</ele><time>2026-05-01T14:33:31.001Z</time></trkpt><trkpt lat="44.834643210798035" lon="9.797391036255085"><ele>253.0</ele><time>2026-05-01T14:33:32.001Z</time></trkpt><trkpt lat="44.83453497555155" lon="9.797522665956167"><ele>250.33333333333331</ele><time>2026-05-01T14:33:33.001Z</time></trkpt><trkpt lat="44.83441523289157" lon="9.797677172082778"><ele>247.66666666666669</ele><time>2026-05-01T14:33:34.001Z</time></trkpt><trkpt lat="44.834326870196115" lon="9.79788933234231"><ele>245.0</ele><time>2026-05-01T14:33:35.001Z</time></trkpt><trkpt lat="44.834235885514815" lon="9.798122191234562"><ele>245.0</ele><time>2026-05-01T14:33:36.001Z</time></trkpt><trkpt lat="44.83418491693846" lon="9.798354050070946"><ele>245.0</ele><time>2026-05-01T14:33:37.001Z</time></trkpt><trkpt lat="44.83414853000114" lon="9.798615030181677"><ele>245.0</ele><time>2026-05-01T14:33:38.001Z</time></trkpt><trkpt lat="44.83409072258491" lon="9.798909014679882"><ele>244.66666666666669</ele><time>2026-05-01T14:33:39.001Z</time></trkpt><trkpt lat="44.83401829993442" lon="9.79916147140444"><ele>244.33333333333331</ele><time>2026-05-01T14:33:40.001Z</time></trkpt><trkpt lat="44.83394241295376" lon="9.799383570675719"><ele>244.0</ele><time>2026-05-01T14:33:41.002Z</time></trkpt><trkpt lat="44.83387037366638" lon="9.799584352681924"><ele>244.75</ele><time>2026-05-01T14:33:42.002Z</time></trkpt><trkpt lat="44.83379898489662" lon="9.799743791073396"><ele>245.5</ele><time>2026-05-01T14:33:43.002Z</time></trkpt><trkpt lat="44.83371600550265" lon="9.799870185133015"><ele>246.25</ele><time>2026-05-01T14:33:44.002Z</time></trkpt><trkpt lat="44.83363632701678" lon="9.799956968552545"><ele>247.0</ele><time>2026-05-01T14:33:45.002Z</time></trkpt><trkpt lat="44.833550317409646" lon="9.800007691834116"><ele>249.5</ele><time>2026-05-01T14:33:46.002Z</time></trkpt><trkpt lat="44.83346390469655" lon="9.799993939782688"><ele>252.0</ele><time>2026-05-01T14:33:47.002Z</time></trkpt><trkpt lat="44.833366002730926" lon="9.799937171440813"><ele>254.5</ele><time>2026-05-01T14:33:48.002Z</time></trkpt><trkpt lat="44.83326199554063" lon="9.799840394278792"><ele>257.0</ele><time>2026-05-01T14:33:49.002Z</time></trkpt><trkpt lat="44.833133598469885" lon="9.799729045276553"><ele>257.0</ele><time>2026-05-01T14:33:50.002Z</time></trkpt><trkpt lat="44.83301434998082" lon="9.79962246656183"><ele>257.0</ele><time>2026-05-01T14:33:51.002Z</time></trkpt><trkpt lat="44.832905648255" lon="9.799527868914641"><ele>257.0</ele><time>2026-05-01T14:33:52.002Z</time></trkpt><trkpt lat="44.83279944352572" lon="9.799468248269648"><ele>257.0</ele><time>2026-05-01T14:33:53.002Z</time></trkpt><trkpt lat="44.83270697449652" lon="9.79942219312665"><ele>257.5</ele><time>2026-05-01T14:33:54.002Z</time></trkpt><trkpt lat="44.83259625869541" lon="9.799431871024282"><ele>258.0</ele><time>2026-05-01T14:33:55.002Z</time></trkpt><trkpt lat="44.832468717115546" lon="9.799480461579583"><ele>258.5</ele><time>2026-05-01T14:33:56.002Z</time></trkpt><trkpt lat="44.83232480199648" lon="9.799498052619557"><ele>259.0</ele><time>2026-05-01T14:33:57.002Z</time></trkpt><trkpt lat="44.8322006679403" lon="9.799481539805672"><ele>259.0</ele><time>2026-05-01T14:33:58.002Z</time></trkpt><trkpt lat="44.832114799234446" lon="9.799393507556617"><ele>259.0</ele><time>2026-05-01T14:33:59.002Z</time></trkpt><trkpt lat="44.83203165330051" lon="9.799272332852485"><ele>259.0</ele><time>2026-05-01T14:34:00.002Z</time></trkpt><trkpt lat="44.831938093375015" lon="9.799151947509738"><ele>259.0</ele><time>2026-05-01T14:34:01.002Z</time></trkpt><trkpt lat="44.83187010747596" lon="9.799065159157"><ele>259.0</ele><time>2026-05-01T14:34:02.002Z</time></trkpt><trkpt lat="44.83179855630682" lon="9.799029190771824"><ele>254.75</ele><time>2026-05-01T14:34:03.002Z</time></trkpt><trkpt lat="44.831685387416165" lon="9.798954573132141"><ele>250.5</ele><time>2026-05-01T14:34:05.002Z</time></trkpt><trkpt lat="44.83157506762404" lon="9.798897616320017"><ele>246.25</ele><time>2026-05-01T14:34:07.002Z</time></trkpt><trkpt lat="44.83146811871047" lon="9.798857339291192"><ele>242.0</ele><time>2026-05-01T14:34:09.002Z</time></trkpt><trkpt lat="44.83137540517376" lon="9.798806818554292"><ele>242.0</ele><time>2026-05-01T14:34:11.002Z</time></trkpt><trkpt lat="44.83131066508334" lon="9.798781596159852"><ele>242.0</ele><time>2026-05-01T14:34:13.002Z</time></trkpt><trkpt lat="44.831229732178144" lon="9.798883111735778"><ele>242.0</ele><time>2026-05-01T14:34:18.001Z</time></trkpt><trkpt lat="44.831250363586975" lon="9.799025238259714"><ele>242.0</ele><time>2026-05-01T14:34:21.001Z</time></trkpt><trkpt lat="44.83162169834969" lon="9.798956549935136"><ele>242.0</ele><time>2026-05-01T14:34:22.001Z</time></trkpt><trkpt lat="44.831725775691474" lon="9.799005584708766"><ele>242.0</ele><time>2026-05-01T14:34:23.001Z</time></trkpt><trkpt lat="44.83182209582002" lon="9.799058530128141"><ele>242.0</ele><time>2026-05-01T14:34:24.001Z</time></trkpt><trkpt lat="44.8319043598567" lon="9.799138391352088"><ele>242.0</ele><time>2026-05-01T14:34:25.001Z</time></trkpt><trkpt lat="44.8319480694658" lon="9.79921596549382"><ele>242.0</ele><time>2026-05-01T14:34:26.001Z</time></trkpt><trkpt lat="44.83194550239657" lon="9.799348711662914"><ele>244.42857142857142</ele><time>2026-05-01T14:34:28Z</time></trkpt><trkpt lat="44.8319355967477" lon="9.79943958041781"><ele>246.85714285714283</ele><time>2026-05-01T14:34:29Z</time></trkpt><trkpt lat="44.83194552708577" lon="9.799531887835467"><ele>249.28571428571428</ele><time>2026-05-01T14:34:30Z</time></trkpt><trkpt lat="44.8319631368343" lon="9.799623132506015"><ele>251.71428571428572</ele><time>2026-05-01T14:34:31Z</time></trkpt><trkpt lat="44.83197672385068" lon="9.799719222503304"><ele>254.14285714285714</ele><time>2026-05-01T14:34:32Z</time></trkpt><trkpt lat="44.831999118185266" lon="9.799825274436289"><ele>256.57142857142856</ele><time>2026-05-01T14:34:33Z</time></trkpt><trkpt lat="44.832015681554736" lon="9.799917515934716"><ele>259.0</ele><time>2026-05-01T14:34:34Z</time></trkpt><trkpt lat="44.83203028338334" lon="9.800013428661444"><ele>261.59999999999997</ele><time>2026-05-01T14:34:35Z</time></trkpt><trkpt lat="44.83204750419716" lon="9.800178991343662"><ele>264.2</ele><time>2026-05-01T14:34:37.001Z</time></trkpt><trkpt lat="44.832083832935304" lon="9.800333124603656"><ele>266.79999999999995</ele><time>2026-05-01T14:34:39.001Z</time></trkpt><trkpt lat="44.83212903704678" lon="9.80046378174594"><ele>269.4</ele><time>2026-05-01T14:34:41.001Z</time></trkpt><trkpt lat="44.83219676676242" lon="9.800509668816478"><ele>272.0</ele><time>2026-05-01T14:34:43.001Z</time></trkpt><trkpt lat="44.83226412347758" lon="9.800520348535965"><ele>272.0</ele><time>2026-05-01T14:34:49.001Z</time></trkpt><trkpt lat="44.832342414796635" lon="9.800585147829413"><ele>272.0</ele><time>2026-05-01T14:34:51.001Z</time></trkpt><trkpt lat="44.8324057413153" lon="9.800605288534873"><ele>272.0</ele><time>2026-05-01T14:34:55.001Z</time></trkpt><trkpt lat="44.832353873074126" lon="9.800858046469143"><ele>272.0</ele><time>2026-05-01T14:34:59.001Z</time></trkpt><trkpt lat="44.832288616066734" lon="9.800996646572752"><ele>271.2</ele><time>2026-05-01T14:35:01.001Z</time></trkpt><trkpt lat="44.83221300910081" lon="9.801090113677676"><ele>270.4</ele><time>2026-05-01T14:35:03.001Z</time></trkpt><trkpt lat="44.83213060348131" lon="9.801205621450693"><ele>269.6</ele><time>2026-05-01T14:35:05.001Z</time></trkpt><trkpt lat="44.83207804286454" lon="9.801290614989972"><ele>268.8</ele><time>2026-05-01T14:35:07.001Z</time></trkpt><trkpt lat="44.83202900400677" lon="9.801369791646188"><ele>268.0</ele><time>2026-05-01T14:35:10.001Z</time></trkpt><trkpt lat="44.83197382006576" lon="9.801455232910286"><ele>268.0</ele><time>2026-05-01T14:35:14.001Z</time></trkpt><trkpt lat="44.83204371930894" lon="9.801448526326809"><ele>268.0</ele><time>2026-05-01T14:35:21.001Z</time></trkpt><trkpt lat="44.83207467717247" lon="9.80131542027825"><ele>268.0</ele><time>2026-05-01T14:35:23.001Z</time></trkpt><trkpt lat="44.83212451494961" lon="9.80121134143102"><ele>268.0</ele><time>2026-05-01T14:35:25.001Z</time></trkpt><trkpt lat="44.83218625549119" lon="9.801119892400765"><ele>268.0</ele><time>2026-05-01T14:35:27.001Z</time></trkpt><trkpt lat="44.83226418283985" lon="9.80100382182559"><ele>268.0</ele><time>2026-05-01T14:35:29.001Z</time></trkpt><trkpt lat="44.83232801896477" lon="9.800909769181336"><ele>268.0</ele><time>2026-05-01T14:35:31.001Z</time></trkpt><trkpt lat="44.83238727537254" lon="9.800849045763618"><ele>268.0</ele><time>2026-05-01T14:35:33.001Z</time></trkpt><trkpt lat="44.832451807627606" lon="9.800825760377736"><ele>268.0</ele><time>2026-05-01T14:35:35.001Z</time></trkpt><trkpt lat="44.83252879035244" lon="9.800858513328265"><ele>268.0</ele><time>2026-05-01T14:35:37.001Z</time></trkpt><trkpt lat="44.83259136059484" lon="9.800920027999615"><ele>268.0</ele><time>2026-05-01T14:35:39.001Z</time></trkpt><trkpt lat="44.832604133787356" lon="9.801012666316414"><ele>268.0</ele><time>2026-05-01T14:35:41.001Z</time></trkpt><trkpt lat="44.83263624679034" lon="9.801128941848972"><ele>268.0</ele><time>2026-05-01T14:35:43.001Z</time></trkpt><trkpt lat="44.83270983999765" lon="9.801217863253461"><ele>268.0</ele><time>2026-05-01T14:35:45.001Z</time></trkpt><trkpt lat="44.832800365899665" lon="9.80132175527975"><ele>268.0</ele><time>2026-05-01T14:35:47.001Z</time></trkpt><trkpt lat="44.83286485158075" lon="9.801374689303954"><ele>268.0</ele><time>2026-05-01T14:35:48.001Z</time></trkpt><trkpt lat="44.83292910801864" lon="9.801431684250007"><ele>267.8571428571429</ele><time>2026-05-01T14:35:49.001Z</time></trkpt><trkpt lat="44.83298227591208" lon="9.801493276450092"><ele>267.7142857142857</ele><time>2026-05-01T14:35:50.001Z</time></trkpt><trkpt lat="44.83303811015702" lon="9.801552288051626"><ele>267.57142857142856</ele><time>2026-05-01T14:35:51.001Z</time></trkpt><trkpt lat="44.83310257406384" lon="9.801615447183584"><ele>267.42857142857144</ele><time>2026-05-01T14:35:52.002Z</time></trkpt><trkpt lat="44.83316298931124" lon="9.801662681542329"><ele>267.2857142857143</ele><time>2026-05-01T14:35:53.002Z</time></trkpt><trkpt lat="44.83322615192251" lon="9.801707453660974"><ele>267.14285714285717</ele><time>2026-05-01T14:35:54.002Z</time></trkpt><trkpt lat="44.8332871647325" lon="9.801738804944993"><ele>267.0</ele><time>2026-05-01T14:35:55.002Z</time></trkpt><trkpt lat="44.83340689576021" lon="9.80175905390862"><ele>264.5</ele><time>2026-05-01T14:35:57.002Z</time></trkpt><trkpt lat="44.83350446866747" lon="9.80172920913736"><ele>262.0</ele><time>2026-05-01T14:35:59.002Z</time></trkpt><trkpt lat="44.83354815997038" lon="9.801816450089559"><ele>259.5</ele><time>2026-05-01T14:36:07.002Z</time></trkpt><trkpt lat="44.83346956048601" lon="9.801899606679322"><ele>257.0</ele><time>2026-05-01T14:36:09.002Z</time></trkpt><trkpt lat="44.83341256167254" lon="9.801971024525827"><ele>254.5</ele><time>2026-05-01T14:36:10.002Z</time></trkpt><trkpt lat="44.83338119804951" lon="9.80205676941501"><ele>252.0</ele><time>2026-05-01T14:36:11.002Z</time></trkpt><trkpt lat="44.83336083741484" lon="9.802149304765013"><ele>251.85714285714286</ele><time>2026-05-01T14:36:12.002Z</time></trkpt><trkpt lat="44.833350608826805" lon="9.802248170640217"><ele>251.71428571428572</ele><time>2026-05-01T14:36:13.002Z</time></trkpt><trkpt lat="44.833347537302544" lon="9.802356978098643"><ele>251.57142857142856</ele><time>2026-05-01T14:36:14.002Z</time></trkpt><trkpt lat="44.83335015864872" lon="9.80247682495146"><ele>251.42857142857142</ele><time>2026-05-01T14:36:15.002Z</time></trkpt><trkpt lat="44.83335656441822" lon="9.802586155021956"><ele>251.28571428571428</ele><time>2026-05-01T14:36:16.002Z</time></trkpt><trkpt lat="44.83334336239717" lon="9.802676624650045"><ele>251.1428571428571</ele><time>2026-05-01T14:36:17.002Z</time></trkpt><trkpt lat="44.83333175325648" lon="9.802771683899131"><ele>250.99999999999997</ele><time>2026-05-01T14:36:18.002Z</time></trkpt><trkpt lat="44.8333379558711" lon="9.802872895077503"><ele>248.60000000000002</ele><time>2026-05-01T14:36:20.002Z</time></trkpt><trkpt lat="44.83339426075259" lon="9.802924247400693"><ele>246.20000000000002</ele><time>2026-05-01T14:36:21.002Z</time></trkpt><trkpt lat="44.83348073321216" lon="9.803060514866191"><ele>243.79999999999998</ele><time>2026-05-01T14:36:23Z</time></trkpt><trkpt lat="44.83356698118062" lon="9.80325352873299"><ele>241.39999999999998</ele><time>2026-05-01T14:36:25Z</time></trkpt><trkpt lat="44.83361296084243" lon="9.803353337341296"><ele>239.0</ele><time>2026-05-01T14:36:26Z</time></trkpt><trkpt lat="44.833657123048816" lon="9.803442827654766"><ele>237.16666666666669</ele><time>2026-05-01T14:36:27Z</time></trkpt><trkpt lat="44.83369317785042" lon="9.80352105901574"><ele>235.33333333333334</ele><time>2026-05-01T14:36:28Z</time></trkpt><trkpt lat="44.83373033719018" lon="9.803607702486687"><ele>233.5</ele><time>2026-05-01T14:36:29Z</time></trkpt><trkpt lat="44.83376290126482" lon="9.803685313160223"><ele>231.66666666666669</ele><time>2026-05-01T14:36:30Z</time></trkpt><trkpt lat="44.83380159614934" lon="9.803774709303907"><ele>229.83333333333334</ele><time>2026-05-01T14:36:31Z</time></trkpt><trkpt lat="44.83388371774528" lon="9.8039210577247"><ele>228.0</ele><time>2026-05-01T14:36:33Z</time></trkpt><trkpt lat="44.833939159381174" lon="9.804039362575148"><ele>228.0</ele><time>2026-05-01T14:36:35Z</time></trkpt><trkpt lat="44.83401372361961" lon="9.804142148741313"><ele>228.0</ele><time>2026-05-01T14:36:37Z</time></trkpt><trkpt lat="44.834029878778665" lon="9.804258231411092"><ele>228.0</ele><time>2026-05-01T14:36:40Z</time></trkpt><trkpt lat="44.833965410977484" lon="9.804351589348194"><ele>228.0</ele><time>2026-05-01T14:36:42Z</time></trkpt><trkpt lat="44.83388650996116" lon="9.804478762413387"><ele>228.0</ele><time>2026-05-01T14:36:44Z</time></trkpt><trkpt lat="44.8338515947905" lon="9.804565554574385"><ele>224.8</ele><time>2026-05-01T14:36:45Z</time></trkpt><trkpt lat="44.83380797823509" lon="9.804653869031785"><ele>221.60000000000002</ele><time>2026-05-01T14:36:46Z</time></trkpt><trkpt lat="44.833716786535454" lon="9.80470382351021"><ele>218.39999999999998</ele><time>2026-05-01T14:36:48Z</time></trkpt><trkpt lat="44.83364611360621" lon="9.804648137803097"><ele>215.2</ele><time>2026-05-01T14:36:50Z</time></trkpt><trkpt lat="44.833587862156065" lon="9.804531940443646"><ele>212.0</ele><time>2026-05-01T14:36:52Z</time></trkpt><trkpt lat="44.83348380065595" lon="9.804574862031664"><ele>212.00000000000003</ele><time>2026-05-01T14:36:54Z</time></trkpt><trkpt lat="44.83347912720491" lon="9.804706153957955"><ele>212.0</ele><time>2026-05-01T14:36:56Z</time></trkpt><trkpt lat="44.83349717205531" lon="9.804819332779719"><ele>212.0</ele><time>2026-05-01T14:36:57Z</time></trkpt><trkpt lat="44.83352585018114" lon="9.804955120450877"><ele>212.0</ele><time>2026-05-01T14:36:58Z</time></trkpt><trkpt lat="44.83354870510223" lon="9.8050391663083"><ele>212.00000000000003</ele><time>2026-05-01T14:36:59Z</time></trkpt><trkpt lat="44.83359617632885" lon="9.805150661206262"><ele>212.0</ele><time>2026-05-01T14:37:00Z</time></trkpt><trkpt lat="44.83366259520671" lon="9.805241295500254"><ele>208.6</ele><time>2026-05-01T14:37:01Z</time></trkpt><trkpt lat="44.833741412605185" lon="9.805316813544268"><ele>205.2</ele><time>2026-05-01T14:37:02Z</time></trkpt><trkpt lat="44.83382305898024" lon="9.805379667721814"><ele>201.8</ele><time>2026-05-01T14:37:03Z</time></trkpt><trkpt lat="44.833917733055046" lon="9.805431788262633"><ele>198.4</ele><time>2026-05-01T14:37:04Z</time></trkpt><trkpt lat="44.83400751122955" lon="9.805440745014275"><ele>195.0</ele><time>2026-05-01T14:37:05Z</time></trkpt><trkpt lat="44.83409166813358" lon="9.805461301720033"><ele>195.0</ele><time>2026-05-01T14:37:06Z</time></trkpt><trkpt lat="44.83416223740831" lon="9.805466081107257"><ele>195.0</ele><time>2026-05-01T14:37:07.001Z</time></trkpt><trkpt lat="44.83423734643778" lon="9.805505515360263"><ele>195.0</ele><time>2026-05-01T14:37:08.001Z</time></trkpt><trkpt lat="44.83430136770812" lon="9.80553279285076"><ele>195.0</ele><time>2026-05-01T14:37:09.001Z</time></trkpt><trkpt lat="44.83440288098394" lon="9.805615813892121"><ele>195.0</ele><time>2026-05-01T14:37:11.001Z</time></trkpt><trkpt lat="44.83437690153236" lon="9.80574323479773"><ele>195.0</ele><time>2026-05-01T14:37:14.001Z</time></trkpt><trkpt lat="44.8343564003408" lon="9.805940438822056"><ele>194.0</ele><time>2026-05-01T14:37:16.001Z</time></trkpt><trkpt lat="44.83433536191501" lon="9.806065841815824"><ele>193.0</ele><time>2026-05-01T14:37:17.001Z</time></trkpt><trkpt lat="44.83430558428253" lon="9.806197930712136"><ele>192.0</ele><time>2026-05-01T14:37:18.001Z</time></trkpt><trkpt lat="44.83427030585799" lon="9.806351693142881"><ele>191.0</ele><time>2026-05-01T14:37:19.001Z</time></trkpt><trkpt lat="44.834238775607574" lon="9.806491357511694"><ele>190.0</ele><time>2026-05-01T14:37:20.001Z</time></trkpt><trkpt lat="44.83420891850617" lon="9.806624388479666"><ele>190.0</ele><time>2026-05-01T14:37:21.001Z</time></trkpt><trkpt lat="44.83417847987265" lon="9.806745583620772"><ele>190.0</ele><time>2026-05-01T14:37:22.001Z</time></trkpt><trkpt lat="44.8341533696622" lon="9.80684147889783"><ele>190.0</ele><time>2026-05-01T14:37:23.001Z</time></trkpt><trkpt lat="44.83414324515591" lon="9.80693055719402"><ele>190.0</ele><time>2026-05-01T14:37:25.001Z</time></trkpt><trkpt lat="44.83404707226373" lon="9.806897835318122"><ele>190.0</ele><time>2026-05-01T14:37:27.001Z</time></trkpt><trkpt lat="44.83396650299159" lon="9.806892315464495"><ele>190.0</ele><time>2026-05-01T14:37:28.001Z</time></trkpt><trkpt lat="44.8338770765407" lon="9.806885182889836"><ele>190.0</ele><time>2026-05-01T14:37:29.001Z</time></trkpt><trkpt lat="44.8337747395013" lon="9.80687541135166"><ele>190.0</ele><time>2026-05-01T14:37:30.001Z</time></trkpt><trkpt lat="44.833665267090254" lon="9.806860479905101"><ele>190.0</ele><time>2026-05-01T14:37:31.001Z</time></trkpt><trkpt lat="44.83355071921627" lon="9.806829136604494"><ele>190.0</ele><time>2026-05-01T14:37:32.001Z</time></trkpt><trkpt lat="44.83342719847993" lon="9.806783391350097"><ele>190.75</ele><time>2026-05-01T14:37:33.001Z</time></trkpt><trkpt lat="44.83330337649295" lon="9.806725091018102"><ele>191.5</ele><time>2026-05-01T14:37:34.001Z</time></trkpt><trkpt lat="44.83317652869609" lon="9.806662260324988"><ele>192.25</ele><time>2026-05-01T14:37:35.001Z</time></trkpt><trkpt lat="44.83306174844704" lon="9.806604330339718"><ele>193.0</ele><time>2026-05-01T14:37:36.001Z</time></trkpt><trkpt lat="44.83296426993575" lon="9.806558874263855"><ele>193.0</ele><time>2026-05-01T14:37:37.001Z</time></trkpt><trkpt lat="44.83288525727859" lon="9.806549530011658"><ele>193.0</ele><time>2026-05-01T14:37:38.001Z</time></trkpt><trkpt lat="44.83280911609103" lon="9.80652155931294"><ele>193.0</ele><time>2026-05-01T14:37:40.001Z</time></trkpt><trkpt lat="44.832773165620914" lon="9.806745913055144"><ele>193.0</ele><time>2026-05-01T14:37:42.001Z</time></trkpt><trkpt lat="44.8327621248408" lon="9.80685231332622"><ele>193.0</ele><time>2026-05-01T14:37:43.001Z</time></trkpt><trkpt lat="44.832727413466564" lon="9.806967078039236"><ele>193.0</ele><time>2026-05-01T14:37:44.001Z</time></trkpt><trkpt lat="44.83271930927143" lon="9.807108414592864"><ele>193.0</ele><time>2026-05-01T14:37:45.001Z</time></trkpt><trkpt lat="44.8326957349584" lon="9.807246818767842"><ele>193.0</ele><time>2026-05-01T14:37:46.001Z</time></trkpt><trkpt lat="44.83266728469829" lon="9.807400412226865"><ele>193.0</ele><time>2026-05-01T14:37:47.001Z</time></trkpt><trkpt lat="44.832686428295005" lon="9.8075596810483"><ele>193.0</ele><time>2026-05-01T14:37:48.001Z</time></trkpt><trkpt lat="44.83271879888157" lon="9.807742397169884"><ele>192.0</ele><time>2026-05-01T14:37:49.001Z</time></trkpt><trkpt lat="44.832790626566684" lon="9.807917437151508"><ele>191.0</ele><time>2026-05-01T14:37:50.001Z</time></trkpt><trkpt lat="44.83288565564963" lon="9.808116662741648"><ele>190.0</ele><time>2026-05-01T14:37:51.001Z</time></trkpt><trkpt lat="44.83298816795715" lon="9.808360721254635"><ele>189.75</ele><time>2026-05-01T14:37:52.001Z</time></trkpt><trkpt lat="44.833074665021456" lon="9.80858843962168"><ele>189.5</ele><time>2026-05-01T14:37:53.001Z</time></trkpt><trkpt lat="44.83314599282893" lon="9.808774798965537"><ele>189.25</ele><time>2026-05-01T14:37:54.001Z</time></trkpt><trkpt lat="44.83319543175823" lon="9.808906807142094"><ele>189.0</ele><time>2026-05-01T14:37:55.001Z</time></trkpt><trkpt lat="44.83322035941081" lon="9.808993756920655"><ele>189.0</ele><time>2026-05-01T14:37:57.001Z</time></trkpt><trkpt lat="44.833189769389676" lon="9.80890612564348"><ele>189.0</ele><time>2026-05-01T14:38:10.001Z</time></trkpt><trkpt lat="44.83314502206985" lon="9.808842456505378"><ele>189.0</ele><time>2026-05-01T14:38:18.002Z</time></trkpt><trkpt lat="44.83280898896963" lon="9.809004199385479"><ele>189.0</ele><time>2026-05-01T14:38:22.002Z</time></trkpt><trkpt lat="44.83273526860962" lon="9.809069801284606"><ele>189.0</ele><time>2026-05-01T14:38:23.002Z</time></trkpt><trkpt lat="44.83267714747798" lon="9.809162745550555"><ele>189.0</ele><time>2026-05-01T14:38:24.002Z</time></trkpt><trkpt lat="44.83263444322298" lon="9.809267325157125"><ele>189.0</ele><time>2026-05-01T14:38:25.002Z</time></trkpt><trkpt lat="44.832629929535926" lon="9.809358230490618"><ele>189.0</ele><time>2026-05-01T14:38:26.002Z</time></trkpt><trkpt lat="44.83264505448971" lon="9.809471618773008"><ele>189.0</ele><time>2026-05-01T14:38:27.002Z</time></trkpt><trkpt lat="44.832682222593" lon="9.809574191298164"><ele>189.66666666666666</ele><time>2026-05-01T14:38:27.999Z</time></trkpt><trkpt lat="44.83271694654123" lon="9.80965046869516"><ele>190.33333333333331</ele><time>2026-05-01T14:38:28.999Z</time></trkpt><trkpt lat="44.83270526539542" lon="9.80976007756795"><ele>191.0</ele><time>2026-05-01T14:38:30.999Z</time></trkpt><trkpt lat="44.832586264779735" lon="9.809837190603863"><ele>191.66666666666666</ele><time>2026-05-01T14:38:32.999Z</time></trkpt><trkpt lat="44.83250947620015" lon="9.809858558157998"><ele>192.33333333333331</ele><time>2026-05-01T14:38:33.999Z</time></trkpt><trkpt lat="44.83245173309385" lon="9.809903812791795"><ele>193.0</ele><time>2026-05-01T14:38:34.999Z</time></trkpt><trkpt lat="44.83238567457332" lon="9.809978481502725"><ele>193.2</ele><time>2026-05-01T14:38:35.999Z</time></trkpt><trkpt lat="44.83233844426659" lon="9.81006806537268"><ele>193.4</ele><time>2026-05-01T14:38:36.999Z</time></trkpt><trkpt lat="44.83229712280977" lon="9.810166817133803"><ele>193.6</ele><time>2026-05-01T14:38:37.999Z</time></trkpt><trkpt lat="44.832231731783466" lon="9.81026769536073"><ele>193.79999999999998</ele><time>2026-05-01T14:38:39Z</time></trkpt><trkpt lat="44.83215294701273" lon="9.810368612576328"><ele>194.0</ele><time>2026-05-01T14:38:39.999Z</time></trkpt><trkpt lat="44.832087281234294" lon="9.810475634640417"><ele>194.2</ele><time>2026-05-01T14:38:40.999Z</time></trkpt><trkpt lat="44.83202815394431" lon="9.810569024105725"><ele>194.39999999999998</ele><time>2026-05-01T14:38:42Z</time></trkpt><trkpt lat="44.83197244025728" lon="9.810647579478617"><ele>194.6</ele><time>2026-05-01T14:38:43Z</time></trkpt><trkpt lat="44.83184259071512" lon="9.810736302109285"><ele>194.8</ele><time>2026-05-01T14:38:45Z</time></trkpt><trkpt lat="44.831755279435754" lon="9.81077722135757"><ele>195.0</ele><time>2026-05-01T14:38:46Z</time></trkpt><trkpt lat="44.831666030462024" lon="9.810817050565685"><ele>195.16666666666666</ele><time>2026-05-01T14:38:47Z</time></trkpt><trkpt lat="44.83158771311657" lon="9.81082969303143"><ele>195.33333333333331</ele><time>2026-05-01T14:38:48Z</time></trkpt><trkpt lat="44.83149302266093" lon="9.810826040731017"><ele>195.5</ele><time>2026-05-01T14:38:49Z</time></trkpt><trkpt lat="44.83139624225869" lon="9.810827150476962"><ele>195.66666666666666</ele><time>2026-05-01T14:38:50Z</time></trkpt><trkpt lat="44.831312987251884" lon="9.810842540728395"><ele>195.83333333333331</ele><time>2026-05-01T14:38:51Z</time></trkpt><trkpt lat="44.831245104513016" lon="9.810885700180439"><ele>196.0</ele><time>2026-05-01T14:38:52Z</time></trkpt><trkpt lat="44.83119116112669" lon="9.810942854677382"><ele>195.99999999999997</ele><time>2026-05-01T14:38:53Z</time></trkpt><trkpt lat="44.83110552755774" lon="9.811003156601247"><ele>196.0</ele><time>2026-05-01T14:38:55Z</time></trkpt><trkpt lat="44.83099469788422" lon="9.811083448221718"><ele>196.0</ele><time>2026-05-01T14:38:57Z</time></trkpt><trkpt lat="44.83093377228663" lon="9.811131684915958"><ele>196.0</ele><time>2026-05-01T14:38:58Z</time></trkpt><trkpt lat="44.830868915631285" lon="9.811179033777245"><ele>195.99999999999997</ele><time>2026-05-01T14:38:59Z</time></trkpt><trkpt lat="44.83080420947419" lon="9.811219639863669"><ele>196.0</ele><time>2026-05-01T14:39:00Z</time></trkpt><trkpt lat="44.83073714067608" lon="9.81124982815762"><ele>195.99999999999997</ele><time>2026-05-01T14:39:01Z</time></trkpt><trkpt lat="44.83066500271171" lon="9.811272504582309"><ele>196.0</ele><time>2026-05-01T14:39:02Z</time></trkpt><trkpt lat="44.83059289660769" lon="9.811293083115324"><ele>196.0</ele><time>2026-05-01T14:39:03Z</time></trkpt><trkpt lat="44.8305233689779" lon="9.811309307084574"><ele>196.0</ele><time>2026-05-01T14:39:04Z</time></trkpt><trkpt lat="44.83039286323435" lon="9.811343770768127"><ele>195.99999999999997</ele><time>2026-05-01T14:39:06Z</time></trkpt><trkpt lat="44.830327680936186" lon="9.811355911142638"><ele>196.0</ele><time>2026-05-01T14:39:07Z</time></trkpt><trkpt lat="44.83025804803829" lon="9.81136728881897"><ele>196.0</ele><time>2026-05-01T14:39:08Z</time></trkpt><trkpt lat="44.830186476821886" lon="9.811374611627704"><ele>196.0</ele><time>2026-05-01T14:39:09Z</time></trkpt><trkpt lat="44.83010827380148" lon="9.81138573035489"><ele>196.0</ele><time>2026-05-01T14:39:10Z</time></trkpt><trkpt lat="44.83002994288961" lon="9.811398647549147"><ele>196.0</ele><time>2026-05-01T14:39:11Z</time></trkpt><trkpt lat="44.829965657171016" lon="9.811410004422632"><ele>196.0</ele><time>2026-05-01T14:39:12Z</time></trkpt><trkpt lat="44.829899469502884" lon="9.811435195883426"><ele>196.0</ele><time>2026-05-01T14:39:13Z</time></trkpt><trkpt lat="44.829835742391474" lon="9.811480869344322"><ele>196.0</ele><time>2026-05-01T14:39:14Z</time></trkpt><trkpt lat="44.82974650036852" lon="9.811559746818133"><ele>196.8</ele><time>2026-05-01T14:39:16Z</time></trkpt><trkpt lat="44.82967637715493" lon="9.81164131467611"><ele>197.60000000000002</ele><time>2026-05-01T14:39:18Z</time></trkpt><trkpt lat="44.829549907680146" lon="9.811701990034791"><ele>198.4</ele><time>2026-05-01T14:39:20Z</time></trkpt><trkpt lat="44.82946785764008" lon="9.811723783677158"><ele>199.2</ele><time>2026-05-01T14:39:21Z</time></trkpt><trkpt lat="44.829382762254625" lon="9.811723711442687"><ele>200.0</ele><time>2026-05-01T14:39:22Z</time></trkpt><trkpt lat="44.82929655679277" lon="9.811696992966594"><ele>200.0</ele><time>2026-05-01T14:39:23Z</time></trkpt><trkpt lat="44.82918760337152" lon="9.811660402647908"><ele>200.0</ele><time>2026-05-01T14:39:24Z</time></trkpt><trkpt lat="44.82905504555639" lon="9.811616747797583"><ele>200.0</ele><time>2026-05-01T14:39:25Z</time></trkpt><trkpt lat="44.82891204150802" lon="9.811584687838693"><ele>200.0</ele><time>2026-05-01T14:39:26Z</time></trkpt><trkpt lat="44.8287621420002" lon="9.81155270395996"><ele>200.0</ele><time>2026-05-01T14:39:27Z</time></trkpt><trkpt lat="44.82862596555736" lon="9.811541036928004"><ele>200.0</ele><time>2026-05-01T14:39:28.001Z</time></trkpt><trkpt lat="44.82852041798003" lon="9.811521286037957"><ele>200.0</ele><time>2026-05-01T14:39:29.001Z</time></trkpt><trkpt lat="44.82846053914791" lon="9.81147279583971"><ele>200.0</ele><time>2026-05-01T14:39:30.001Z</time></trkpt><trkpt lat="44.82838731959784" lon="9.811425708001876"><ele>200.0</ele><time>2026-05-01T14:39:33.001Z</time></trkpt><trkpt lat="44.82829775330835" lon="9.81140452229053"><ele>200.16666666666669</ele><time>2026-05-01T14:39:35.001Z</time></trkpt><trkpt lat="44.82822808976404" lon="9.811376505999526"><ele>200.33333333333334</ele><time>2026-05-01T14:39:37.001Z</time></trkpt><trkpt lat="44.82814887406303" lon="9.811349357345055"><ele>200.5</ele><time>2026-05-01T14:39:39.001Z</time></trkpt><trkpt lat="44.82805917024028" lon="9.811325572112269"><ele>200.66666666666669</ele><time>2026-05-01T14:39:41.001Z</time></trkpt><trkpt lat="44.827945094787886" lon="9.811297349888088"><ele>200.83333333333334</ele><time>2026-05-01T14:39:43.001Z</time></trkpt><trkpt lat="44.82787184387118" lon="9.811280491180534"><ele>201.0</ele><time>2026-05-01T14:39:44.001Z</time></trkpt><trkpt lat="44.827789223959776" lon="9.811261477119844"><ele>201.0</ele><time>2026-05-01T14:39:45.001Z</time></trkpt><trkpt lat="44.82768584091552" lon="9.811263186081513"><ele>201.0</ele><time>2026-05-01T14:39:46.001Z</time></trkpt><trkpt lat="44.82761898087473" lon="9.81122300368869"><ele>201.0</ele><time>2026-05-01T14:39:47.001Z</time></trkpt><trkpt lat="44.82755606655942" lon="9.811205443988642"><ele>201.0</ele><time>2026-05-01T14:39:48.001Z</time></trkpt><trkpt lat="44.82743255536092" lon="9.811162199959467"><ele>201.0</ele><time>2026-05-01T14:39:50.001Z</time></trkpt><trkpt lat="44.82733182527211" lon="9.811124204073295"><ele>201.25</ele><time>2026-05-01T14:39:52.001Z</time></trkpt><trkpt lat="44.8272527856007" lon="9.811088923968578"><ele>201.5</ele><time>2026-05-01T14:39:54.001Z</time></trkpt><trkpt lat="44.82712842686133" lon="9.81101782776594"><ele>201.75</ele><time>2026-05-01T14:39:56.001Z</time></trkpt><trkpt lat="44.82704199455477" lon="9.810984788664062"><ele>202.0</ele><time>2026-05-01T14:39:58.001Z</time></trkpt><trkpt lat="44.827017974839656" lon="9.81119550438693"><ele>201.99999999999997</ele><time>2026-05-01T14:40:03.001Z</time></trkpt><trkpt lat="44.827021969208694" lon="9.811296067099375"><ele>202.0</ele><time>2026-05-01T14:40:06.001Z</time></trkpt><trkpt lat="44.82701838705609" lon="9.811428476738964"><ele>202.0</ele><time>2026-05-01T14:40:09.001Z</time></trkpt><trkpt lat="44.82698857463094" lon="9.811549138290376"><ele>202.0</ele><time>2026-05-01T14:40:11.001Z</time></trkpt><trkpt lat="44.82692285093551" lon="9.811631238246637"><ele>201.99999999999997</ele><time>2026-05-01T14:40:13.001Z</time></trkpt><trkpt lat="44.82684268723201" lon="9.811664267160431"><ele>202.0</ele><time>2026-05-01T14:40:15.001Z</time></trkpt><trkpt lat="44.826754147078724" lon="9.811610305519324"><ele>202.39999999999998</ele><time>2026-05-01T14:40:17.001Z</time></trkpt><trkpt lat="44.82664506239957" lon="9.811559703186118"><ele>202.79999999999998</ele><time>2026-05-01T14:40:19.001Z</time></trkpt><trkpt lat="44.826578349396534" lon="9.811564720154022"><ele>203.2</ele><time>2026-05-01T14:40:21.001Z</time></trkpt><trkpt lat="44.82649781891006" lon="9.811575759395103"><ele>203.6</ele><time>2026-05-01T14:40:43.999Z</time></trkpt><trkpt lat="44.826366646009866" lon="9.811565448418776"><ele>204.0</ele><time>2026-05-01T14:40:45.999Z</time></trkpt><trkpt lat="44.826277911004546" lon="9.81157082705612"><ele>204.0</ele><time>2026-05-01T14:40:46.999Z</time></trkpt><trkpt lat="44.82617522880577" lon="9.811596061595386"><ele>204.0</ele><time>2026-05-01T14:40:47.999Z</time></trkpt><trkpt lat="44.82609955299826" lon="9.811596076139963"><ele>204.0</ele><time>2026-05-01T14:40:48.999Z</time></trkpt><trkpt lat="44.8260076997214" lon="9.811562708173232"><ele>204.0</ele><time>2026-05-01T14:40:49.999Z</time></trkpt><trkpt lat="44.825904622469814" lon="9.811526831644423"><ele>204.0</ele><time>2026-05-01T14:40:50.999Z</time></trkpt><trkpt lat="44.825804475359824" lon="9.811502959233007"><ele>204.79999999999998</ele><time>2026-05-01T14:40:51.999Z</time></trkpt><trkpt lat="44.82572015959448" lon="9.811479835149035"><ele>205.6</ele><time>2026-05-01T14:40:52.999Z</time></trkpt><trkpt lat="44.825628709772566" lon="9.811460232334788"><ele>206.4</ele><time>2026-05-01T14:40:53.999Z</time></trkpt><trkpt lat="44.8255230085415" lon="9.811471286713015"><ele>207.2</ele><time>2026-05-01T14:40:54.999Z</time></trkpt><trkpt lat="44.82543194465717" lon="9.81150571456658"><ele>208.0</ele><time>2026-05-01T14:40:55.999Z</time></trkpt><trkpt lat="44.825331684497385" lon="9.811543174338839"><ele>208.0</ele><time>2026-05-01T14:40:57Z</time></trkpt><trkpt lat="44.825235153052944" lon="9.811566154178001"><ele>208.0</ele><time>2026-05-01T14:40:58Z</time></trkpt><trkpt lat="44.82512893740241" lon="9.811582468750851"><ele>208.0</ele><time>2026-05-01T14:40:59Z</time></trkpt><trkpt lat="44.82502761259837" lon="9.811604862715338"><ele>208.0</ele><time>2026-05-01T14:41:00Z</time></trkpt><trkpt lat="44.824944599777304" lon="9.811623937073334"><ele>208.0</ele><time>2026-05-01T14:41:01Z</time></trkpt><trkpt lat="44.824855833376226" lon="9.811628972607247"><ele>208.2</ele><time>2026-05-01T14:41:02Z</time></trkpt><trkpt lat="44.824788649878826" lon="9.81164024295802"><ele>208.4</ele><time>2026-05-01T14:41:03Z</time></trkpt><trkpt lat="44.824713808766035" lon="9.811687228446349"><ele>208.6</ele><time>2026-05-01T14:41:04Z</time></trkpt><trkpt lat="44.824652787880034" lon="9.81174094760554"><ele>208.79999999999998</ele><time>2026-05-01T14:41:05Z</time></trkpt><trkpt lat="44.82459108005881" lon="9.811851178231583"><ele>209.0</ele><time>2026-05-01T14:41:07Z</time></trkpt><trkpt lat="44.824625763133014" lon="9.812035893715343"><ele>209.5</ele><time>2026-05-01T14:41:09Z</time></trkpt><trkpt lat="44.82466604530341" lon="9.812193276410637"><ele>210.0</ele><time>2026-05-01T14:41:10Z</time></trkpt><trkpt lat="44.82467775540036" lon="9.812359403105761"><ele>210.5</ele><time>2026-05-01T14:41:11Z</time></trkpt><trkpt lat="44.824676626146264" lon="9.812545804836402"><ele>211.0</ele><time>2026-05-01T14:41:12Z</time></trkpt><trkpt lat="44.82467916054537" lon="9.812746469231243"><ele>212.25</ele><time>2026-05-01T14:41:13Z</time></trkpt><trkpt lat="44.824682917929835" lon="9.812945607909104"><ele>213.5</ele><time>2026-05-01T14:41:14Z</time></trkpt><trkpt lat="44.824691287454506" lon="9.813135441522387"><ele>214.75</ele><time>2026-05-01T14:41:15Z</time></trkpt><trkpt lat="44.82470692421429" lon="9.813331905592573"><ele>216.0</ele><time>2026-05-01T14:41:16Z</time></trkpt><trkpt lat="44.824715735639614" lon="9.813511706436495"><ele>218.0</ele><time>2026-05-01T14:41:17Z</time></trkpt><trkpt lat="44.82472513880195" lon="9.813719435501893"><ele>220.0</ele><time>2026-05-01T14:41:18Z</time></trkpt><trkpt lat="44.82473755956738" lon="9.813918110266611"><ele>222.0</ele><time>2026-05-01T14:41:19Z</time></trkpt><trkpt lat="44.82475170824484" lon="9.814083331904111"><ele>224.0</ele><time>2026-05-01T14:41:20Z</time></trkpt><trkpt lat="44.82474442065877" lon="9.81422703498778"><ele>225.0</ele><time>2026-05-01T14:41:21Z</time></trkpt><trkpt lat="44.82474772485618" lon="9.814340160197727"><ele>225.99999999999997</ele><time>2026-05-01T14:41:22Z</time></trkpt><trkpt lat="44.824763017010426" lon="9.814474688785735"><ele>226.99999999999997</ele><time>2026-05-01T14:41:24Z</time></trkpt><trkpt lat="44.82460681890772" lon="9.814475977632581"><ele>228.0</ele><time>2026-05-01T14:41:29Z</time></trkpt><trkpt lat="44.82454317980773" lon="9.81442725017449"><ele>229.0</ele><time>2026-05-01T14:41:31Z</time></trkpt><trkpt lat="44.82445667868145" lon="9.814388031523954"><ele>229.0</ele><time>2026-05-01T14:41:34Z</time></trkpt><trkpt lat="44.82437344407433" lon="9.81435963552696"><ele>228.99999999999997</ele><time>2026-05-01T14:41:36.001Z</time></trkpt><trkpt lat="44.824253387567715" lon="9.81433243860257"><ele>228.99999999999997</ele><time>2026-05-01T14:41:38.001Z</time></trkpt><trkpt lat="44.82418376883307" lon="9.814340166823117"><ele>229.0</ele><time>2026-05-01T14:41:39.001Z</time></trkpt><trkpt lat="44.8241137230188" lon="9.814377248144027"><ele>229.0</ele><time>2026-05-01T14:41:40.001Z</time></trkpt><trkpt lat="44.82399388608665" lon="9.814471461395442"><ele>229.28571428571428</ele><time>2026-05-01T14:41:42.001Z</time></trkpt><trkpt lat="44.82393346369871" lon="9.814535698611236"><ele>229.57142857142858</ele><time>2026-05-01T14:41:43.001Z</time></trkpt><trkpt lat="44.8238796036584" lon="9.814599936591366"><ele>229.85714285714286</ele><time>2026-05-01T14:41:44.001Z</time></trkpt><trkpt lat="44.823825640229565" lon="9.814662145194365"><ele>230.14285714285714</ele><time>2026-05-01T14:41:45.001Z</time></trkpt><trkpt lat="44.82377036458603" lon="9.814721810976845"><ele>230.42857142857144</ele><time>2026-05-01T14:41:46.001Z</time></trkpt><trkpt lat="44.823713688146796" lon="9.814779355803212"><ele>230.71428571428572</ele><time>2026-05-01T14:41:47.001Z</time></trkpt><trkpt lat="44.8236466217227" lon="9.814840875339407"><ele>231.0</ele><time>2026-05-01T14:41:48.001Z</time></trkpt><trkpt lat="44.8235635272298" lon="9.81489337773861"><ele>230.20000000000002</ele><time>2026-05-01T14:41:49.001Z</time></trkpt><trkpt lat="44.823463473257156" lon="9.814918265138306"><ele>229.40000000000003</ele><time>2026-05-01T14:41:50.001Z</time></trkpt><trkpt lat="44.823367712598404" lon="9.814978964354381"><ele>228.6</ele><time>2026-05-01T14:41:51.001Z</time></trkpt><trkpt lat="44.82326908267197" lon="9.815019989448327"><ele>227.8</ele><time>2026-05-01T14:41:52.001Z</time></trkpt><trkpt lat="44.823175729469924" lon="9.815046151764863"><ele>227.0</ele><time>2026-05-01T14:41:53.001Z</time></trkpt><trkpt lat="44.82309347579767" lon="9.815072036484219"><ele>227.0</ele><time>2026-05-01T14:41:54.001Z</time></trkpt><trkpt lat="44.82302293459766" lon="9.815103147213405"><ele>227.0</ele><time>2026-05-01T14:41:55.001Z</time></trkpt><trkpt lat="44.82296010418742" lon="9.815133701882484"><ele>227.0</ele><time>2026-05-01T14:41:56.001Z</time></trkpt><trkpt lat="44.822855017016515" lon="9.815163125320346"><ele>227.0</ele><time>2026-05-01T14:41:58.001Z</time></trkpt><trkpt lat="44.8227503794945" lon="9.815212305172563"><ele>227.0</ele><time>2026-05-01T14:42:00.001Z</time></trkpt><trkpt lat="44.822635907781944" lon="9.815281232195222"><ele>228.33333333333334</ele><time>2026-05-01T14:42:02.001Z</time></trkpt><trkpt lat="44.822579631355126" lon="9.815335739405743"><ele>229.66666666666669</ele><time>2026-05-01T14:42:03.001Z</time></trkpt><trkpt lat="44.822514209187624" lon="9.815392430572105"><ele>231.0</ele><time>2026-05-01T14:42:04.001Z</time></trkpt><trkpt lat="44.82244981022622" lon="9.815445069466481"><ele>232.33333333333331</ele><time>2026-05-01T14:42:05.001Z</time></trkpt><trkpt lat="44.8223872991103" lon="9.815499731709448"><ele>233.66666666666666</ele><time>2026-05-01T14:42:06.001Z</time></trkpt><trkpt lat="44.822317644629095" lon="9.81555927730247"><ele>235.0</ele><time>2026-05-01T14:42:07.001Z</time></trkpt><trkpt lat="44.822250478573494" lon="9.815623506030551"><ele>234.99999999999997</ele><time>2026-05-01T14:42:08.001Z</time></trkpt><trkpt lat="44.822180595617155" lon="9.815694590165654"><ele>235.0</ele><time>2026-05-01T14:42:09.001Z</time></trkpt><trkpt lat="44.822112204024265" lon="9.815759086575339"><ele>235.0</ele><time>2026-05-01T14:42:10.001Z</time></trkpt><trkpt lat="44.82204367226766" lon="9.815821379099175"><ele>235.0</ele><time>2026-05-01T14:42:11.001Z</time></trkpt><trkpt lat="44.82197976271034" lon="9.815886486193694"><ele>234.99999999999997</ele><time>2026-05-01T14:42:12.001Z</time></trkpt><trkpt lat="44.82191243957512" lon="9.815953473600743"><ele>235.0</ele><time>2026-05-01T14:42:13.001Z</time></trkpt><trkpt lat="44.82183821993593" lon="9.816010410733854"><ele>236.16666666666666</ele><time>2026-05-01T14:42:14.001Z</time></trkpt><trkpt lat="44.82176196089563" lon="9.816055993295514"><ele>237.33333333333331</ele><time>2026-05-01T14:42:15.001Z</time></trkpt><trkpt lat="44.82168386459345" lon="9.816096484910203"><ele>238.5</ele><time>2026-05-01T14:42:16.001Z</time></trkpt><trkpt lat="44.82159981381411" lon="9.816131264638175"><ele>239.66666666666669</ele><time>2026-05-01T14:42:17.001Z</time></trkpt><trkpt lat="44.82151883793482" lon="9.816161689205298"><ele>240.83333333333334</ele><time>2026-05-01T14:42:18.001Z</time></trkpt><trkpt lat="44.82143846641708" lon="9.816189904260309"><ele>242.0</ele><time>2026-05-01T14:42:19.001Z</time></trkpt><trkpt lat="44.82134818987728" lon="9.816220889622857"><ele>242.00000000000003</ele><time>2026-05-01T14:42:20.001Z</time></trkpt><trkpt lat="44.82125693616512" lon="9.816251182037403"><ele>242.0</ele><time>2026-05-01T14:42:21.001Z</time></trkpt><trkpt lat="44.82117457361696" lon="9.816280586208459"><ele>242.0</ele><time>2026-05-01T14:42:22.001Z</time></trkpt><trkpt lat="44.82109542576292" lon="9.816304628264518"><ele>242.0</ele><time>2026-05-01T14:42:23.001Z</time></trkpt><trkpt lat="44.82102280361989" lon="9.816330567521689"><ele>242.00000000000003</ele><time>2026-05-01T14:42:24.001Z</time></trkpt><trkpt lat="44.820948490787885" lon="9.816342158708888"><ele>242.0</ele><time>2026-05-01T14:42:25.001Z</time></trkpt><trkpt lat="44.8208534780737" lon="9.816354556668275"><ele>244.0</ele><time>2026-05-01T14:42:27.002Z</time></trkpt><trkpt lat="44.82082686046619" lon="9.816793988102553"><ele>246.0</ele><time>2026-05-01T14:43:17Z</time></trkpt><trkpt lat="44.82081036740915" lon="9.816933607968824"><ele>248.0</ele><time>2026-05-01T14:43:18Z</time></trkpt><trkpt lat="44.8207948293139" lon="9.817073520166351"><ele>248.0</ele><time>2026-05-01T14:43:19Z</time></trkpt><trkpt lat="44.82080891312494" lon="9.817189505420723"><ele>248.0</ele><time>2026-05-01T14:43:21Z</time></trkpt><trkpt lat="44.82089202211226" lon="9.817278226094713"><ele>248.0</ele><time>2026-05-01T14:43:23Z</time></trkpt><trkpt lat="44.820921885814" lon="9.817428359598466"><ele>248.0</ele><time>2026-05-01T14:43:25Z</time></trkpt><trkpt lat="44.82092575396614" lon="9.817526751956816"><ele>248.0</ele><time>2026-05-01T14:43:26Z</time></trkpt><trkpt lat="44.820865507936624" lon="9.817651438251074"><ele>248.00000000000003</ele><time>2026-05-01T14:43:28Z</time></trkpt><trkpt lat="44.820746244873526" lon="9.817648490933866"><ele>248.0</ele><time>2026-05-01T14:43:30Z</time></trkpt><trkpt lat="44.820678619658835" lon="9.817625425726337"><ele>248.0</ele><time>2026-05-01T14:43:31Z</time></trkpt><trkpt lat="44.82060890304306" lon="9.817579977435907"><ele>248.0</ele><time>2026-05-01T14:43:32.001Z</time></trkpt><trkpt lat="44.820541145555204" lon="9.817547214136713"><ele>248.00000000000003</ele><time>2026-05-01T14:43:33.001Z</time></trkpt><trkpt lat="44.82047080477963" lon="9.817529325204319"><ele>248.0</ele><time>2026-05-01T14:43:34.001Z</time></trkpt><trkpt lat="44.820318286098406" lon="9.81749996113409"><ele>248.00000000000003</ele><time>2026-05-01T14:43:36.001Z</time></trkpt><trkpt lat="44.82024365858649" lon="9.817494489410377"><ele>248.0</ele><time>2026-05-01T14:43:37.001Z</time></trkpt><trkpt lat="44.820172241304796" lon="9.817494876658355"><ele>248.0</ele><time>2026-05-01T14:43:38.001Z</time></trkpt><trkpt lat="44.8201057229458" lon="9.817510220454848"><ele>248.0</ele><time>2026-05-01T14:43:39.001Z</time></trkpt><trkpt lat="44.82007472742188" lon="9.81761444100891"><ele>248.00000000000003</ele><time>2026-05-01T14:43:41.001Z</time></trkpt><trkpt lat="44.82004319454039" lon="9.81779874177553"><ele>248.0</ele><time>2026-05-01T14:43:43.001Z</time></trkpt><trkpt lat="44.82010327310137" lon="9.81791765728749"><ele>250.57142857142858</ele><time>2026-05-01T14:43:45.001Z</time></trkpt><trkpt lat="44.820159983849926" lon="9.81797926933977"><ele>253.14285714285717</ele><time>2026-05-01T14:43:46.001Z</time></trkpt><trkpt lat="44.82019770904439" lon="9.818056467143538"><ele>255.71428571428572</ele><time>2026-05-01T14:43:47.001Z</time></trkpt><trkpt lat="44.82024091667144" lon="9.818132374734944"><ele>258.2857142857143</ele><time>2026-05-01T14:43:48.001Z</time></trkpt><trkpt lat="44.820286235022415" lon="9.81821014843499"><ele>260.8571428571429</ele><time>2026-05-01T14:43:49.001Z</time></trkpt><trkpt lat="44.82032433153453" lon="9.818282552387588"><ele>263.42857142857144</ele><time>2026-05-01T14:43:50.001Z</time></trkpt><trkpt lat="44.820360922065426" lon="9.818359096702535"><ele>266.0</ele><time>2026-05-01T14:43:51.001Z</time></trkpt><trkpt lat="44.82040912194114" lon="9.818445724648816"><ele>268.33333333333337</ele><time>2026-05-01T14:43:52.001Z</time></trkpt><trkpt lat="44.82045518913722" lon="9.818533448339773"><ele>270.6666666666667</ele><time>2026-05-01T14:43:53.001Z</time></trkpt><trkpt lat="44.820494249680834" lon="9.818609478341775"><ele>273.0</ele><time>2026-05-01T14:43:54.001Z</time></trkpt><trkpt lat="44.82053638982406" lon="9.818690951558738"><ele>275.3333333333333</ele><time>2026-05-01T14:43:55.001Z</time></trkpt><trkpt lat="44.820601332682045" lon="9.818824826515234"><ele>277.66666666666663</ele><time>2026-05-01T14:43:57.001Z</time></trkpt><trkpt lat="44.82064445091824" lon="9.818910847589489"><ele>280.0</ele><time>2026-05-01T14:43:58.001Z</time></trkpt><trkpt lat="44.820703182662136" lon="9.81898791233784"><ele>280.0</ele><time>2026-05-01T14:43:59.001Z</time></trkpt><trkpt lat="44.82076565318575" lon="9.819056567970723"><ele>280.0</ele><time>2026-05-01T14:44:00.001Z</time></trkpt><trkpt lat="44.82081946760883" lon="9.819114012802018"><ele>280.0</ele><time>2026-05-01T14:44:01.001Z</time></trkpt><trkpt lat="44.820930774214865" lon="9.819203430890463"><ele>280.0</ele><time>2026-05-01T14:44:03.001Z</time></trkpt><trkpt lat="44.8209855852368" lon="9.819247823622252"><ele>280.0</ele><time>2026-05-01T14:44:04.001Z</time></trkpt><trkpt lat="44.82105008173123" lon="9.819331487893523"><ele>280.0</ele><time>2026-05-01T14:44:06.001Z</time></trkpt><trkpt lat="44.82113126663346" lon="9.81938849686682"><ele>279.2</ele><time>2026-05-01T14:44:09.001Z</time></trkpt><trkpt lat="44.82122485099932" lon="9.819326289522644"><ele>278.4</ele><time>2026-05-01T14:44:11.001Z</time></trkpt><trkpt lat="44.821328020638845" lon="9.819289723403644"><ele>277.6</ele><time>2026-05-01T14:44:13.001Z</time></trkpt><trkpt lat="44.821435456998266" lon="9.819246483738988"><ele>276.8</ele><time>2026-05-01T14:44:15.001Z</time></trkpt><trkpt lat="44.8214966727366" lon="9.819219942086626"><ele>276.0</ele><time>2026-05-01T14:44:16.002Z</time></trkpt><trkpt lat="44.82156802643276" lon="9.81918345254549"><ele>277.8333333333333</ele><time>2026-05-01T14:44:17.002Z</time></trkpt><trkpt lat="44.82163323507628" lon="9.819143829252008"><ele>279.6666666666667</ele><time>2026-05-01T14:44:18.002Z</time></trkpt><trkpt lat="44.821681714241016" lon="9.81907991478597"><ele>281.5</ele><time>2026-05-01T14:44:19.002Z</time></trkpt><trkpt lat="44.82176947465581" lon="9.818993910594205"><ele>283.33333333333337</ele><time>2026-05-01T14:44:21.002Z</time></trkpt><trkpt lat="44.82184606830489" lon="9.818893752797312"><ele>285.1666666666667</ele><time>2026-05-01T14:44:23.002Z</time></trkpt><trkpt lat="44.821896538744646" lon="9.818834445288367"><ele>287.0</ele><time>2026-05-01T14:44:26.002Z</time></trkpt><trkpt lat="44.821963086733646" lon="9.81879433728632"><ele>288.33333333333337</ele><time>2026-05-01T14:45:36.001Z</time></trkpt><trkpt lat="44.82203106871863" lon="9.818741482787269"><ele>289.6666666666667</ele><time>2026-05-01T14:45:38.001Z</time></trkpt><trkpt lat="44.82209986861397" lon="9.818684913664233"><ele>291.0</ele><time>2026-05-01T14:45:40.001Z</time></trkpt><trkpt lat="44.82216152980148" lon="9.81872547719255"><ele>292.3333333333333</ele><time>2026-05-01T14:45:43.001Z</time></trkpt><trkpt lat="44.82211722786958" lon="9.818799998361609"><ele>293.66666666666663</ele><time>2026-05-01T14:45:47.001Z</time></trkpt><trkpt lat="44.82203183349943" lon="9.818759847872458"><ele>295.0</ele><time>2026-05-01T14:46:03.001Z</time></trkpt><trkpt lat="44.82210755367142" lon="9.818805559396218"><ele>295.0</ele><time>2026-05-01T14:46:23.002Z</time></trkpt><trkpt lat="44.82223194798332" lon="9.818880505913022"><ele>295.0</ele><time>2026-05-01T14:46:25.002Z</time></trkpt><trkpt lat="44.822300673432935" lon="9.818941623449044"><ele>295.0</ele><time>2026-05-01T14:46:26.002Z</time></trkpt><trkpt lat="44.82237306433593" lon="9.819031787982862"><ele>295.0</ele><time>2026-05-01T14:46:27.002Z</time></trkpt><trkpt lat="44.82244640140509" lon="9.81908792950925"><ele>295.0</ele><time>2026-05-01T14:46:28.002Z</time></trkpt><trkpt lat="44.82254761079044" lon="9.819147008316152"><ele>295.0</ele><time>2026-05-01T14:46:30.002Z</time></trkpt><trkpt lat="44.82263774338444" lon="9.819181212686614"><ele>295.0</ele><time>2026-05-01T14:46:32.002Z</time></trkpt><trkpt lat="44.822698744786024" lon="9.819207973903541"><ele>295.0</ele><time>2026-05-01T14:46:34.002Z</time></trkpt><trkpt lat="44.82276980089704" lon="9.819225365720785"><ele>295.0</ele><time>2026-05-01T14:46:36.002Z</time></trkpt><trkpt lat="44.82266903080333" lon="9.819212145853657"><ele>295.0</ele><time>2026-05-01T14:47:29.001Z</time></trkpt><trkpt lat="44.82256806470386" lon="9.819171951773622"><ele>295.0</ele><time>2026-05-01T14:47:31.001Z</time></trkpt><trkpt lat="44.82250878376087" lon="9.81913091600045"><ele>295.0</ele><time>2026-05-01T14:47:33.001Z</time></trkpt><trkpt lat="44.82244162723165" lon="9.819063372840246"><ele>295.0</ele><time>2026-05-01T14:47:36.001Z</time></trkpt><trkpt lat="44.82236922823342" lon="9.819007439368454"><ele>295.0</ele><time>2026-05-01T14:47:39.001Z</time></trkpt><trkpt lat="44.82229364198919" lon="9.818947031907081"><ele>295.0</ele><time>2026-05-01T14:48:29.002Z</time></trkpt><trkpt lat="44.82221603438721" lon="9.81887859306349"><ele>295.0</ele><time>2026-05-01T14:48:32.002Z</time></trkpt><trkpt lat="44.82213176539474" lon="9.81881373688033"><ele>295.0</ele><time>2026-05-01T14:48:35.002Z</time></trkpt><trkpt lat="44.822059032998354" lon="9.818764867780098"><ele>295.0</ele><time>2026-05-01T14:48:37.002Z</time></trkpt><trkpt lat="44.82198597716677" lon="9.818743220033378"><ele>295.0</ele><time>2026-05-01T14:48:40.002Z</time></trkpt><trkpt lat="44.82194888350027" lon="9.818831188944458"><ele>295.0</ele><time>2026-05-01T14:50:03.001Z</time></trkpt><trkpt lat="44.822008134276686" lon="9.818768385218144"><ele>295.0</ele><time>2026-05-01T14:50:10.001Z</time></trkpt><trkpt lat="44.822112438677394" lon="9.81880284950212"><ele>295.0</ele><time>2026-05-01T14:50:12.001Z</time></trkpt><trkpt lat="44.82219123486752" lon="9.818853909292491"><ele>295.0</ele><time>2026-05-01T14:50:13.001Z</time></trkpt><trkpt lat="44.82225441670549" lon="9.818910250222153"><ele>295.0</ele><time>2026-05-01T14:50:14.001Z</time></trkpt><trkpt lat="44.82232194610396" lon="9.818970258303823"><ele>295.0</ele><time>2026-05-01T14:50:15.001Z</time></trkpt><trkpt lat="44.82241347523238" lon="9.819036843905387"><ele>295.0</ele><time>2026-05-01T14:50:17.001Z</time></trkpt><trkpt lat="44.82251625347933" lon="9.819136210355706"><ele>295.0</ele><time>2026-05-01T14:50:19.001Z</time></trkpt><trkpt lat="44.82258521248965" lon="9.819181720272724"><ele>295.0</ele><time>2026-05-01T14:50:22.001Z</time></trkpt><trkpt lat="44.82263756951614" lon="9.819119491993284"><ele>295.00000000000006</ele><time>2026-05-01T14:50:45.002Z</time></trkpt><trkpt lat="44.82270457182825" lon="9.819066005351372"><ele>295.0</ele><time>2026-05-01T14:51:15.999Z</time></trkpt><trkpt lat="44.82276192464466" lon="9.819029265767307"><ele>295.0</ele><time>2026-05-01T14:51:22Z</time></trkpt><trkpt lat="44.82276444130055" lon="9.818927756881147"><ele>295.0</ele><time>2026-05-01T14:51:41Z</time></trkpt><trkpt lat="44.8227307028723" lon="9.818839771732383"><ele>295.0</ele><time>2026-05-01T14:51:46Z</time></trkpt><trkpt lat="44.82268613733608" lon="9.81875420067262"><ele>295.00000000000006</ele><time>2026-05-01T14:51:52.001Z</time></trkpt><trkpt lat="44.82264723315278" lon="9.818677775917465"><ele>295.0</ele><time>2026-05-01T14:51:57.001Z</time></trkpt><trkpt lat="44.822578987684324" lon="9.818656190397844"><ele>294.28571428571433</ele><time>2026-05-01T14:52:02.001Z</time></trkpt><trkpt lat="44.822647913065516" lon="9.818654494418325"><ele>293.57142857142856</ele><time>2026-05-01T14:52:11.001Z</time></trkpt><trkpt lat="44.822721106989675" lon="9.818656090596667"><ele>292.8571428571429</ele><time>2026-05-01T14:52:17.001Z</time></trkpt><trkpt lat="44.822784016420584" lon="9.818599315878451"><ele>292.14285714285717</ele><time>2026-05-01T14:52:22.001Z</time></trkpt><trkpt lat="44.82283342468301" lon="9.818534167947112"><ele>291.42857142857144</ele><time>2026-05-01T14:52:26.001Z</time></trkpt><trkpt lat="44.822843867505085" lon="9.818445639243333"><ele>290.7142857142857</ele><time>2026-05-01T14:52:30.002Z</time></trkpt><trkpt lat="44.8228695118974" lon="9.818364549116584"><ele>290.0</ele><time>2026-05-01T14:52:34.002Z</time></trkpt><trkpt lat="44.82291227043776" lon="9.81828071392163"><ele>288.8571428571429</ele><time>2026-05-01T14:52:39.002Z</time></trkpt><trkpt lat="44.822931912967356" lon="9.81818911236464"><ele>287.7142857142857</ele><time>2026-05-01T14:52:44.002Z</time></trkpt><trkpt lat="44.82297660438878" lon="9.818113844409341"><ele>286.57142857142856</ele><time>2026-05-01T14:52:48.002Z</time></trkpt><trkpt lat="44.82301739371967" lon="9.818036100781717"><ele>285.42857142857144</ele><time>2026-05-01T14:52:52.002Z</time></trkpt><trkpt lat="44.82305087262987" lon="9.817953537753096"><ele>284.2857142857143</ele><time>2026-05-01T14:52:57.002Z</time></trkpt><trkpt lat="44.82309836485887" lon="9.817878430873627"><ele>283.14285714285717</ele><time>2026-05-01T14:53:07.002Z</time></trkpt><trkpt lat="44.82313394680497" lon="9.81780458972902"><ele>282.0</ele><time>2026-05-01T14:53:11Z</time></trkpt><trkpt lat="44.823139543358955" lon="9.81771055108636"><ele>280.57142857142856</ele><time>2026-05-01T14:53:20Z</time></trkpt><trkpt lat="44.823117804061425" lon="9.817611394116893"><ele>279.1428571428571</ele><time>2026-05-01T14:53:26Z</time></trkpt><trkpt lat="44.82311232881407" lon="9.81751297653295"><ele>277.71428571428567</ele><time>2026-05-01T14:53:31Z</time></trkpt><trkpt lat="44.823092318949904" lon="9.817415562916526"><ele>276.2857142857143</ele><time>2026-05-01T14:53:36Z</time></trkpt><trkpt lat="44.823068683103166" lon="9.817332664923107"><ele>274.85714285714283</ele><time>2026-05-01T14:53:41.001Z</time></trkpt><trkpt lat="44.823038030926305" lon="9.817246796918472"><ele>273.4285714285714</ele><time>2026-05-01T14:53:47.001Z</time></trkpt><trkpt lat="44.82301651893898" lon="9.817151674974927"><ele>272.0</ele><time>2026-05-01T14:53:54.001Z</time></trkpt><trkpt lat="44.82301500513743" lon="9.817242725482926"><ele>271.99999999999994</ele><time>2026-05-01T14:55:29Z</time></trkpt><trkpt lat="44.823038559163216" lon="9.817332310496527"><ele>272.0</ele><time>2026-05-01T14:55:37.001Z</time></trkpt><trkpt lat="44.82306531368829" lon="9.817413333953985"><ele>272.0</ele><time>2026-05-01T14:55:43.001Z</time></trkpt><trkpt lat="44.823096613916015" lon="9.817493662791692"><ele>272.0</ele><time>2026-05-01T14:55:49.001Z</time></trkpt><trkpt lat="44.82310923704291" lon="9.817585779106293"><ele>272.0</ele><time>2026-05-01T14:55:57.001Z</time></trkpt><trkpt lat="44.82311658570662" lon="9.817676336423894"><ele>271.99999999999994</ele><time>2026-05-01T14:56:05.001Z</time></trkpt><trkpt lat="44.823125852125735" lon="9.817765331206555"><ele>272.0</ele><time>2026-05-01T14:56:14.001Z</time></trkpt><trkpt lat="44.82309195071713" lon="9.817849849704523"><ele>273.4285714285714</ele><time>2026-05-01T14:56:26.002Z</time></trkpt><trkpt lat="44.823059119475055" lon="9.817933642587462"><ele>274.85714285714283</ele><time>2026-05-01T14:56:39.002Z</time></trkpt><trkpt lat="44.82301845143849" lon="9.818001800958928"><ele>276.2857142857143</ele><time>2026-05-01T14:56:50.002Z</time></trkpt><trkpt lat="44.822983548107764" lon="9.8180773280163"><ele>277.71428571428567</ele><time>2026-05-01T14:57:01.002Z</time></trkpt><trkpt lat="44.82293975306059" lon="9.818156057195262"><ele>279.1428571428571</ele><time>2026-05-01T14:57:11.003Z</time></trkpt><trkpt lat="44.82291170289281" lon="9.818239833953694"><ele>280.57142857142856</ele><time>2026-05-01T14:57:22Z</time></trkpt><trkpt lat="44.82288591571073" lon="9.81832436673477"><ele>282.0</ele><time>2026-05-01T14:57:36Z</time></trkpt><trkpt lat="44.82285753878026" lon="9.81840589547709"><ele>282.0</ele><time>2026-05-01T14:57:46Z</time></trkpt><trkpt lat="44.822816767425074" lon="9.818484431246182"><ele>282.0</ele><time>2026-05-01T14:57:58.001Z</time></trkpt><trkpt lat="44.82278743881071" lon="9.818564145269761"><ele>282.0</ele><time>2026-05-01T14:58:08.001Z</time></trkpt><trkpt lat="44.82275431177304" lon="9.818641087607338"><ele>282.0</ele><time>2026-05-01T14:58:17.001Z</time></trkpt><trkpt lat="44.82271906187942" lon="9.818724192250087"><ele>282.0</ele><time>2026-05-01T14:58:27.001Z</time></trkpt><trkpt lat="44.822685728680625" lon="9.818805164786916"><ele>282.0</ele><time>2026-05-01T14:58:38.002Z</time></trkpt><trkpt lat="44.82266628100932" lon="9.818894311902472"><ele>282.0</ele><time>2026-05-01T14:58:48.002Z</time></trkpt><trkpt lat="44.82264660438671" lon="9.818986731693858"><ele>283.3333333333333</ele><time>2026-05-01T14:59:00.002Z</time></trkpt><trkpt lat="44.822648810642086" lon="9.819083458698824"><ele>284.6666666666667</ele><time>2026-05-01T14:59:12.002Z</time></trkpt><trkpt lat="44.82263567112807" lon="9.81917725288866"><ele>286.0</ele><time>2026-05-01T15:00:34.001Z</time></trkpt><trkpt lat="44.82257290356414" lon="9.819134996382356"><ele>287.33333333333337</ele><time>2026-05-01T15:00:38.001Z</time></trkpt><trkpt lat="44.82246003458226" lon="9.819097689442145"><ele>288.6666666666667</ele><time>2026-05-01T15:00:40.001Z</time></trkpt><trkpt lat="44.822346291786786" lon="9.819021680449723"><ele>290.0</ele><time>2026-05-01T15:00:42.001Z</time></trkpt><trkpt lat="44.82228596755956" lon="9.818966110860542"><ele>290.83333333333337</ele><time>2026-05-01T15:00:43.001Z</time></trkpt><trkpt lat="44.82225173924863" lon="9.818842745781916"><ele>291.6666666666667</ele><time>2026-05-01T15:00:44.001Z</time></trkpt><trkpt lat="44.82218057745679" lon="9.818791912499215"><ele>292.5</ele><time>2026-05-01T15:00:45.001Z</time></trkpt><trkpt lat="44.82211629205352" lon="9.81875184768897"><ele>293.3333333333333</ele><time>2026-05-01T15:00:46.001Z</time></trkpt><trkpt lat="44.82205639400731" lon="9.818722068097955"><ele>294.16666666666663</ele><time>2026-05-01T15:00:47.001Z</time></trkpt><trkpt lat="44.82196747290218" lon="9.818708287634733"><ele>295.0</ele><time>2026-05-01T15:00:49.001Z</time></trkpt><trkpt lat="44.82191973719007" lon="9.81876953743957"><ele>295.0</ele><time>2026-05-01T15:00:52.002Z</time></trkpt><trkpt lat="44.82192696358644" lon="9.81893502348949"><ele>295.0</ele><time>2026-05-01T15:03:21.002Z</time></trkpt><trkpt lat="44.821942253595935" lon="9.819080977424342"><ele>295.0</ele><time>2026-05-01T15:03:23.002Z</time></trkpt><trkpt lat="44.82192312521191" lon="9.81924250256951"><ele>295.0</ele><time>2026-05-01T15:03:25.002Z</time></trkpt><trkpt lat="44.821939963022785" lon="9.819341467130396"><ele>295.0</ele><time>2026-05-01T15:03:26.002Z</time></trkpt><trkpt lat="44.82195033096596" lon="9.819440015740575"><ele>293.3333333333333</ele><time>2026-05-01T15:03:27.002Z</time></trkpt><trkpt lat="44.82195860894056" lon="9.819531612954133"><ele>291.66666666666663</ele><time>2026-05-01T15:03:28.003Z</time></trkpt><trkpt lat="44.82196920324559" lon="9.819639238658635"><ele>290.0</ele><time>2026-05-01T15:03:29.003Z</time></trkpt><trkpt lat="44.82198121265279" lon="9.819751624478307"><ele>288.3333333333333</ele><time>2026-05-01T15:03:30.003Z</time></trkpt><trkpt lat="44.82198739682804" lon="9.819870403651679"><ele>286.6666666666667</ele><time>2026-05-01T15:03:31.003Z</time></trkpt><trkpt lat="44.821970865588476" lon="9.81999926855261"><ele>285.0</ele><time>2026-05-01T15:03:32.003Z</time></trkpt><trkpt lat="44.82197768989098" lon="9.8201028789374"><ele>283.0</ele><time>2026-05-01T15:03:33.003Z</time></trkpt><trkpt lat="44.82196705764406" lon="9.820225561529156"><ele>281.0</ele><time>2026-05-01T15:03:34.003Z</time></trkpt><trkpt lat="44.821954305622434" lon="9.820327110163523"><ele>279.0</ele><time>2026-05-01T15:03:35.003Z</time></trkpt><trkpt lat="44.821937028505886" lon="9.820426031554238"><ele>277.0</ele><time>2026-05-01T15:03:36.003Z</time></trkpt><trkpt lat="44.821889499966495" lon="9.820505468891888"><ele>275.0</ele><time>2026-05-01T15:03:37.003Z</time></trkpt><trkpt lat="44.82184285938281" lon="9.820592422697855"><ele>273.0</ele><time>2026-05-01T15:03:38.003Z</time></trkpt><trkpt lat="44.82181017020072" lon="9.820708446655708"><ele>271.2</ele><time>2026-05-01T15:03:39.003Z</time></trkpt><trkpt lat="44.82175894195684" lon="9.820823389069782"><ele>269.4</ele><time>2026-05-01T15:03:40Z</time></trkpt><trkpt lat="44.821697448551625" lon="9.820946324619696"><ele>267.59999999999997</ele><time>2026-05-01T15:03:41Z</time></trkpt><trkpt lat="44.821643195458236" lon="9.8210767921373"><ele>265.8</ele><time>2026-05-01T15:03:42Z</time></trkpt><trkpt lat="44.82158960661477" lon="9.821228658392977"><ele>264.0</ele><time>2026-05-01T15:03:43Z</time></trkpt><trkpt lat="44.82152672406181" lon="9.821352415658826"><ele>262.0</ele><time>2026-05-01T15:03:44Z</time></trkpt><trkpt lat="44.82148877021787" lon="9.821478045433338"><ele>260.0</ele><time>2026-05-01T15:03:45Z</time></trkpt><trkpt lat="44.821442381984355" lon="9.821583878509788"><ele>258.0</ele><time>2026-05-01T15:03:46Z</time></trkpt><trkpt lat="44.82140017181655" lon="9.821673384090303"><ele>256.0</ele><time>2026-05-01T15:03:47Z</time></trkpt><trkpt lat="44.821356388292386" lon="9.821766181142783"><ele>254.0</ele><time>2026-05-01T15:03:48Z</time></trkpt><trkpt lat="44.821315056724096" lon="9.821865203919081"><ele>252.0</ele><time>2026-05-01T15:03:49Z</time></trkpt><trkpt lat="44.82126716880213" lon="9.821974431784971"><ele>251.0</ele><time>2026-05-01T15:03:50Z</time></trkpt><trkpt lat="44.82122621765258" lon="9.8220730975618"><ele>250.0</ele><time>2026-05-01T15:03:51Z</time></trkpt><trkpt lat="44.821181650166785" lon="9.822163142721257"><ele>249.0</ele><time>2026-05-01T15:03:52Z</time></trkpt><trkpt lat="44.82114810759613" lon="9.822240199366028"><ele>248.0</ele><time>2026-05-01T15:03:53Z</time></trkpt><trkpt lat="44.82111052990521" lon="9.82232671766162"><ele>247.0</ele><time>2026-05-01T15:03:54Z</time></trkpt><trkpt lat="44.821043769670574" lon="9.822430381793955"><ele>246.0</ele><time>2026-05-01T15:03:56Z</time></trkpt><trkpt lat="44.82100612208102" lon="9.82251016654455"><ele>245.60000000000002</ele><time>2026-05-01T15:03:58Z</time></trkpt><trkpt lat="44.82108489649553" lon="9.822687984360218"><ele>245.20000000000002</ele><time>2026-05-01T15:04:01Z</time></trkpt><trkpt lat="44.82115081074979" lon="9.822739317923377"><ele>244.79999999999998</ele><time>2026-05-01T15:04:02Z</time></trkpt><trkpt lat="44.82121889068026" lon="9.822793522268565"><ele>244.39999999999998</ele><time>2026-05-01T15:04:03Z</time></trkpt><trkpt lat="44.82127772444384" lon="9.82284660879887"><ele>244.0</ele><time>2026-05-01T15:04:04Z</time></trkpt><trkpt lat="44.821333833900276" lon="9.822959855768907"><ele>244.0</ele><time>2026-05-01T15:04:06Z</time></trkpt><trkpt lat="44.82127261870144" lon="9.823092888415335"><ele>243.99999999999997</ele><time>2026-05-01T15:04:08Z</time></trkpt><trkpt lat="44.82123460333546" lon="9.823183657514317"><ele>243.99999999999997</ele><time>2026-05-01T15:04:09Z</time></trkpt><trkpt lat="44.821204747470766" lon="9.823297109580716"><ele>244.0</ele><time>2026-05-01T15:04:10.001Z</time></trkpt><trkpt lat="44.82115180541134" lon="9.823417574917912"><ele>244.0</ele><time>2026-05-01T15:04:11.001Z</time></trkpt><trkpt lat="44.82111336196534" lon="9.823516361171432"><ele>243.2</ele><time>2026-05-01T15:04:12.001Z</time></trkpt><trkpt lat="44.82106865442234" lon="9.82358479109334"><ele>242.39999999999998</ele><time>2026-05-01T15:04:13.001Z</time></trkpt><trkpt lat="44.82102152629024" lon="9.823737457270214"><ele>241.6</ele><time>2026-05-01T15:04:15.001Z</time></trkpt><trkpt lat="44.820949848386846" lon="9.823873167346228"><ele>240.8</ele><time>2026-05-01T15:04:17.001Z</time></trkpt><trkpt lat="44.82089957446105" lon="9.823995552208334"><ele>240.0</ele><time>2026-05-01T15:04:19.001Z</time></trkpt><trkpt lat="44.82086617944937" lon="9.824109852247686"><ele>240.0</ele><time>2026-05-01T15:04:21.001Z</time></trkpt><trkpt lat="44.82081188297289" lon="9.82417464885362"><ele>240.0</ele><time>2026-05-01T15:04:25.001Z</time></trkpt><trkpt lat="44.820726781805455" lon="9.824136889173321"><ele>240.0</ele><time>2026-05-01T15:04:27.001Z</time></trkpt><trkpt lat="44.82067728028358" lon="9.824037711776686"><ele>240.0</ele><time>2026-05-01T15:04:28.001Z</time></trkpt><trkpt lat="44.82058245246785" lon="9.823955734792463"><ele>240.0</ele><time>2026-05-01T15:04:29.001Z</time></trkpt><trkpt lat="44.82050196224706" lon="9.823880088702728"><ele>240.0</ele><time>2026-05-01T15:04:30.001Z</time></trkpt><trkpt lat="44.82040535380539" lon="9.82381703467715"><ele>240.0</ele><time>2026-05-01T15:04:31.001Z</time></trkpt><trkpt lat="44.82031990625976" lon="9.82373673358468"><ele>240.0</ele><time>2026-05-01T15:04:32.001Z</time></trkpt><trkpt lat="44.820228689049046" lon="9.823642130445117"><ele>240.0</ele><time>2026-05-01T15:04:33.001Z</time></trkpt><trkpt lat="44.820136404733056" lon="9.823553444335275"><ele>240.0</ele><time>2026-05-01T15:04:34.001Z</time></trkpt><trkpt lat="44.820030979566354" lon="9.82346589568299"><ele>240.75</ele><time>2026-05-01T15:04:35.001Z</time></trkpt><trkpt lat="44.81992174278952" lon="9.823368351269611"><ele>241.5</ele><time>2026-05-01T15:04:36.001Z</time></trkpt><trkpt lat="44.81981826200248" lon="9.823281060626233"><ele>242.25</ele><time>2026-05-01T15:04:37.001Z</time></trkpt><trkpt lat="44.819701879075446" lon="9.823166450930403"><ele>243.0</ele><time>2026-05-01T15:04:38.001Z</time></trkpt><trkpt lat="44.81958186573271" lon="9.823066594798624"><ele>243.0</ele><time>2026-05-01T15:04:39.001Z</time></trkpt><trkpt lat="44.81946580955856" lon="9.82297653884399"><ele>243.0</ele><time>2026-05-01T15:04:40.001Z</time></trkpt><trkpt lat="44.81934677286274" lon="9.822857425514247"><ele>243.0</ele><time>2026-05-01T15:04:41.001Z</time></trkpt><trkpt lat="44.819223455940175" lon="9.822742125656527"><ele>243.0</ele><time>2026-05-01T15:04:42.001Z</time></trkpt><trkpt lat="44.81909611614828" lon="9.822633662716427"><ele>242.75</ele><time>2026-05-01T15:04:43.001Z</time></trkpt><trkpt lat="44.81897455548706" lon="9.822523600905587"><ele>242.5</ele><time>2026-05-01T15:04:44.001Z</time></trkpt><trkpt lat="44.81884866439026" lon="9.822418534803289"><ele>242.25</ele><time>2026-05-01T15:04:45.001Z</time></trkpt><trkpt lat="44.81872160197321" lon="9.822298774353637"><ele>242.0</ele><time>2026-05-01T15:04:46.001Z</time></trkpt><trkpt lat="44.81859179539672" lon="9.822168299116925"><ele>242.66666666666669</ele><time>2026-05-01T15:04:47.001Z</time></trkpt><trkpt lat="44.81846353265876" lon="9.82205306492799"><ele>243.33333333333331</ele><time>2026-05-01T15:04:48.002Z</time></trkpt><trkpt lat="44.8183364229884" lon="9.821952151727858"><ele>244.0</ele><time>2026-05-01T15:04:49.002Z</time></trkpt><trkpt lat="44.818207165593115" lon="9.821823813362203"><ele>244.33333333333331</ele><time>2026-05-01T15:04:50.002Z</time></trkpt><trkpt lat="44.818071221741164" lon="9.821706372162991"><ele>244.66666666666669</ele><time>2026-05-01T15:04:51.002Z</time></trkpt><trkpt lat="44.81794980103796" lon="9.821578826016284"><ele>245.0</ele><time>2026-05-01T15:04:52.002Z</time></trkpt><trkpt lat="44.81780863462167" lon="9.821466109467442"><ele>245.0</ele><time>2026-05-01T15:04:53.002Z</time></trkpt><trkpt lat="44.81767373630994" lon="9.821353088017075"><ele>245.0</ele><time>2026-05-01T15:04:54.002Z</time></trkpt><trkpt lat="44.81753916660301" lon="9.821234409713044"><ele>245.0</ele><time>2026-05-01T15:04:55.002Z</time></trkpt><trkpt lat="44.81740499903429" lon="9.82111247874875"><ele>245.0</ele><time>2026-05-01T15:04:56.002Z</time></trkpt><trkpt lat="44.81727193347004" lon="9.820988523914657"><ele>245.0</ele><time>2026-05-01T15:04:57.002Z</time></trkpt><trkpt lat="44.81714053568035" lon="9.82086793687073"><ele>245.0</ele><time>2026-05-01T15:04:58.002Z</time></trkpt><trkpt lat="44.81700834817805" lon="9.82074387318337"><ele>245.0</ele><time>2026-05-01T15:04:59.002Z</time></trkpt><trkpt lat="44.81688696275781" lon="9.82060868721843"><ele>245.0</ele><time>2026-05-01T15:05:00.002Z</time></trkpt><trkpt lat="44.81675209257818" lon="9.820485318320122"><ele>245.0</ele><time>2026-05-01T15:05:01.002Z</time></trkpt><trkpt lat="44.8166190596831" lon="9.82036362992876"><ele>245.0</ele><time>2026-05-01T15:05:02.002Z</time></trkpt><trkpt lat="44.816487148025026" lon="9.820245182905117"><ele>245.0</ele><time>2026-05-01T15:05:03.002Z</time></trkpt><trkpt lat="44.81634167711508" lon="9.820140399528816"><ele>245.0</ele><time>2026-05-01T15:05:04.002Z</time></trkpt><trkpt lat="44.81620629226273" lon="9.82001531531052"><ele>245.33333333333334</ele><time>2026-05-01T15:05:05.002Z</time></trkpt><trkpt lat="44.81607158385231" lon="9.819895659291324"><ele>245.66666666666669</ele><time>2026-05-01T15:05:06.002Z</time></trkpt><trkpt lat="44.81593471080419" lon="9.819776251140938"><ele>246.0</ele><time>2026-05-01T15:05:07.002Z</time></trkpt><trkpt lat="44.815803427589294" lon="9.81965515587969"><ele>246.0</ele><time>2026-05-01T15:05:08.002Z</time></trkpt><trkpt lat="44.81567721878102" lon="9.819540305176094"><ele>246.0</ele><time>2026-05-01T15:05:09.002Z</time></trkpt><trkpt lat="44.81556215694875" lon="9.819434178223018"><ele>246.0</ele><time>2026-05-01T15:05:10.002Z</time></trkpt><trkpt lat="44.81546137619961" lon="9.819321721403748"><ele>246.0</ele><time>2026-05-01T15:05:11.002Z</time></trkpt><trkpt lat="44.81536030237748" lon="9.819232819044478"><ele>246.4</ele><time>2026-05-01T15:05:12.002Z</time></trkpt><trkpt lat="44.81526315950557" lon="9.81914508205591"><ele>246.8</ele><time>2026-05-01T15:05:13.002Z</time></trkpt><trkpt lat="44.815170124677635" lon="9.819061034583973"><ele>247.20000000000002</ele><time>2026-05-01T15:05:14.002Z</time></trkpt><trkpt lat="44.815077752694926" lon="9.81897758596761"><ele>247.60000000000002</ele><time>2026-05-01T15:05:15.002Z</time></trkpt><trkpt lat="44.8149813951323" lon="9.818917777647055"><ele>248.0</ele><time>2026-05-01T15:05:16.002Z</time></trkpt><trkpt lat="44.814915324715706" lon="9.81883343590622"><ele>248.16666666666669</ele><time>2026-05-01T15:05:17.002Z</time></trkpt><trkpt lat="44.814851386793286" lon="9.818769446908458"><ele>248.33333333333334</ele><time>2026-05-01T15:05:18.002Z</time></trkpt><trkpt lat="44.814784176933905" lon="9.818706384367806"><ele>248.5</ele><time>2026-05-01T15:05:19.002Z</time></trkpt><trkpt lat="44.81472163161653" lon="9.818651990089677"><ele>248.66666666666669</ele><time>2026-05-01T15:05:20.002Z</time></trkpt><trkpt lat="44.81466425290255" lon="9.818607247193025"><ele>248.83333333333334</ele><time>2026-05-01T15:05:21.002Z</time></trkpt><trkpt lat="44.81458435191772" lon="9.818544037042804"><ele>249.0</ele><time>2026-05-01T15:05:23.002Z</time></trkpt><trkpt lat="44.81465778296725" lon="9.819174861453067"><ele>249.0</ele><time>2026-05-01T15:06:06Z</time></trkpt><trkpt lat="44.81469969429017" lon="9.819299633288132"><ele>248.99999999999997</ele><time>2026-05-01T15:06:07Z</time></trkpt><trkpt lat="44.81473323215893" lon="9.819428344392186"><ele>248.99999999999997</ele><time>2026-05-01T15:06:08Z</time></trkpt><trkpt lat="44.81477299531618" lon="9.819570323631266"><ele>249.0</ele><time>2026-05-01T15:06:09Z</time></trkpt><trkpt lat="44.81481608993603" lon="9.819719549019975"><ele>249.0</ele><time>2026-05-01T15:06:10Z</time></trkpt><trkpt lat="44.814862198585026" lon="9.819870060806657"><ele>248.5</ele><time>2026-05-01T15:06:11Z</time></trkpt><trkpt lat="44.814912375592144" lon="9.820028289912809"><ele>248.0</ele><time>2026-05-01T15:06:12Z</time></trkpt><trkpt lat="44.814962115795716" lon="9.820201693746402"><ele>247.5</ele><time>2026-05-01T15:06:13Z</time></trkpt><trkpt lat="44.81501091604498" lon="9.820386243585412"><ele>247.0</ele><time>2026-05-01T15:06:14Z</time></trkpt><trkpt lat="44.81505541012742" lon="9.820573853279614"><ele>246.5</ele><time>2026-05-01T15:06:15Z</time></trkpt><trkpt lat="44.81509956328639" lon="9.82076688955171"><ele>246.0</ele><time>2026-05-01T15:06:16Z</time></trkpt><trkpt lat="44.81514484093625" lon="9.820965866628962"><ele>245.5</ele><time>2026-05-01T15:06:17Z</time></trkpt><trkpt lat="44.81519099289862" lon="9.821159328633188"><ele>245.0</ele><time>2026-05-01T15:06:18.001Z</time></trkpt><trkpt lat="44.81523168768565" lon="9.821340018440283"><ele>245.0</ele><time>2026-05-01T15:06:19.001Z</time></trkpt><trkpt lat="44.815268678881466" lon="9.821507792977862"><ele>245.0</ele><time>2026-05-01T15:06:20.001Z</time></trkpt><trkpt lat="44.81530237087817" lon="9.821662242890502"><ele>245.0</ele><time>2026-05-01T15:06:21.001Z</time></trkpt><trkpt lat="44.81533835601347" lon="9.821822424438158"><ele>245.0</ele><time>2026-05-01T15:06:22.001Z</time></trkpt><trkpt lat="44.81537684216229" lon="9.821990249637258"><ele>245.0</ele><time>2026-05-01T15:06:23.001Z</time></trkpt><trkpt lat="44.81541919436658" lon="9.82216709394928"><ele>245.0</ele><time>2026-05-01T15:06:24.001Z</time></trkpt><trkpt lat="44.81545820376498" lon="9.822343938635028"><ele>245.0</ele><time>2026-05-01T15:06:25.001Z</time></trkpt><trkpt lat="44.81549211961989" lon="9.82250041130345"><ele>245.0</ele><time>2026-05-01T15:06:26.001Z</time></trkpt><trkpt lat="44.815532196175596" lon="9.82265363667538"><ele>244.0</ele><time>2026-05-01T15:06:27.001Z</time></trkpt><trkpt lat="44.815589660302884" lon="9.822800519912093"><ele>243.0</ele><time>2026-05-01T15:06:28.001Z</time></trkpt><trkpt lat="44.815683555045396" lon="9.822924242622358"><ele>242.0</ele><time>2026-05-01T15:06:29.001Z</time></trkpt><trkpt lat="44.81579704984025" lon="9.823020492905927"><ele>241.0</ele><time>2026-05-01T15:06:30.001Z</time></trkpt><trkpt lat="44.81592195698823" lon="9.823102139157841"><ele>241.0</ele><time>2026-05-01T15:06:31.001Z</time></trkpt><trkpt lat="44.81605307832171" lon="9.823160111278352"><ele>241.0</ele><time>2026-05-01T15:06:32.001Z</time></trkpt><trkpt lat="44.81618142330645" lon="9.82319847266143"><ele>241.0</ele><time>2026-05-01T15:06:33.001Z</time></trkpt><trkpt lat="44.81630670037221" lon="9.823237753870407"><ele>241.0</ele><time>2026-05-01T15:06:34.001Z</time></trkpt><trkpt lat="44.816428524123886" lon="9.823269060240921"><ele>241.0</ele><time>2026-05-01T15:06:35.001Z</time></trkpt><trkpt lat="44.816553526399524" lon="9.823274796601291"><ele>241.0</ele><time>2026-05-01T15:06:36.001Z</time></trkpt><trkpt lat="44.81668651884944" lon="9.823260632839517"><ele>241.0</ele><time>2026-05-01T15:06:37.001Z</time></trkpt><trkpt lat="44.81682304269814" lon="9.823255696144013"><ele>241.0</ele><time>2026-05-01T15:06:38.001Z</time></trkpt><trkpt lat="44.81694385924344" lon="9.823275885028345"><ele>241.16666666666666</ele><time>2026-05-01T15:06:39.001Z</time></trkpt><trkpt lat="44.8170326611193" lon="9.823315918064761"><ele>241.33333333333331</ele><time>2026-05-01T15:06:40.001Z</time></trkpt><trkpt lat="44.81709919351275" lon="9.823371047918172"><ele>241.5</ele><time>2026-05-01T15:06:41.001Z</time></trkpt><trkpt lat="44.817146818484645" lon="9.82343666695881"><ele>241.66666666666669</ele><time>2026-05-01T15:06:42.001Z</time></trkpt><trkpt lat="44.817237540615785" lon="9.823549226741205"><ele>241.83333333333334</ele><time>2026-05-01T15:06:44.001Z</time></trkpt><trkpt lat="44.81728877869611" lon="9.823604850492163"><ele>242.0</ele><time>2026-05-01T15:06:45.001Z</time></trkpt><trkpt lat="44.81733741009839" lon="9.823668058289567"><ele>240.2</ele><time>2026-05-01T15:06:46.001Z</time></trkpt><trkpt lat="44.817390390654" lon="9.823744594912002"><ele>238.39999999999998</ele><time>2026-05-01T15:06:47.001Z</time></trkpt><trkpt lat="44.817447986821016" lon="9.823835245571388"><ele>236.60000000000002</ele><time>2026-05-01T15:06:48.001Z</time></trkpt><trkpt lat="44.81751078190363" lon="9.823930226479815"><ele>234.8</ele><time>2026-05-01T15:06:49.001Z</time></trkpt><trkpt lat="44.81757987671305" lon="9.824047304811293"><ele>233.0</ele><time>2026-05-01T15:06:50.001Z</time></trkpt><trkpt lat="44.81764514837107" lon="9.824172035958785"><ele>232.8</ele><time>2026-05-01T15:06:51.001Z</time></trkpt><trkpt lat="44.81771500741665" lon="9.824308121789237"><ele>232.60000000000002</ele><time>2026-05-01T15:06:52.001Z</time></trkpt><trkpt lat="44.81778307178135" lon="9.824436386282057"><ele>232.39999999999998</ele><time>2026-05-01T15:06:53.001Z</time></trkpt><trkpt lat="44.81785221895706" lon="9.824545474770146"><ele>232.2</ele><time>2026-05-01T15:06:54.001Z</time></trkpt><trkpt lat="44.81791126147953" lon="9.824653061189213"><ele>232.0</ele><time>2026-05-01T15:06:55.001Z</time></trkpt><trkpt lat="44.81798368729723" lon="9.824760737450799"><ele>232.0</ele><time>2026-05-01T15:06:56.002Z</time></trkpt><trkpt lat="44.818061791076396" lon="9.824879522281043"><ele>232.0</ele><time>2026-05-01T15:06:57.002Z</time></trkpt><trkpt lat="44.818147439669076" lon="9.824998493649328"><ele>232.0</ele><time>2026-05-01T15:06:58.002Z</time></trkpt><trkpt lat="44.81825405126804" lon="9.825115809847745"><ele>232.0</ele><time>2026-05-01T15:06:59.002Z</time></trkpt><trkpt lat="44.818371896825695" lon="9.825230464204456"><ele>231.25</ele><time>2026-05-01T15:07:00.002Z</time></trkpt><trkpt lat="44.818496609241485" lon="9.825343975433347"><ele>230.5</ele><time>2026-05-01T15:07:01.002Z</time></trkpt><trkpt lat="44.81862529428922" lon="9.825450780573597"><ele>229.75</ele><time>2026-05-01T15:07:02.002Z</time></trkpt><trkpt lat="44.81875785537325" lon="9.825550950391145"><ele>229.0</ele><time>2026-05-01T15:07:03.002Z</time></trkpt><trkpt lat="44.81889316464003" lon="9.825645032185427"><ele>229.0</ele><time>2026-05-01T15:07:04.002Z</time></trkpt><trkpt lat="44.819023461672664" lon="9.825736785656789"><ele>229.0</ele><time>2026-05-01T15:07:05.002Z</time></trkpt><trkpt lat="44.819159946761566" lon="9.82584637331268"><ele>229.0</ele><time>2026-05-01T15:07:06.002Z</time></trkpt><trkpt lat="44.81928491345087" lon="9.825946354489028"><ele>229.0</ele><time>2026-05-01T15:07:07.002Z</time></trkpt><trkpt lat="44.819410105484124" lon="9.826042763454067"><ele>229.0</ele><time>2026-05-01T15:07:08.002Z</time></trkpt><trkpt lat="44.81953813385132" lon="9.826143523912174"><ele>229.0</ele><time>2026-05-01T15:07:09.002Z</time></trkpt><trkpt lat="44.81966775112226" lon="9.826241211759271"><ele>229.0</ele><time>2026-05-01T15:07:10.002Z</time></trkpt><trkpt lat="44.81980444230355" lon="9.82634634988328"><ele>229.0</ele><time>2026-05-01T15:07:11.002Z</time></trkpt><trkpt lat="44.81993960947315" lon="9.826452311807278"><ele>229.0</ele><time>2026-05-01T15:07:12.002Z</time></trkpt><trkpt lat="44.820079043037865" lon="9.82655904629902"><ele>229.0</ele><time>2026-05-01T15:07:13.002Z</time></trkpt><trkpt lat="44.82021408198033" lon="9.82666276331061"><ele>229.0</ele><time>2026-05-01T15:07:14.002Z</time></trkpt><trkpt lat="44.82034914418282" lon="9.826763555907782"><ele>229.25</ele><time>2026-05-01T15:07:15.002Z</time></trkpt><trkpt lat="44.820484076128615" lon="9.82686602585226"><ele>229.5</ele><time>2026-05-01T15:07:16.002Z</time></trkpt><trkpt lat="44.82060719783087" lon="9.826972183923566"><ele>229.75</ele><time>2026-05-01T15:07:17.002Z</time></trkpt><trkpt lat="44.820721107863704" lon="9.827075559789478"><ele>230.0</ele><time>2026-05-01T15:07:18.002Z</time></trkpt><trkpt lat="44.82083170072056" lon="9.827180301129228"><ele>230.00000000000003</ele><time>2026-05-01T15:07:19.002Z</time></trkpt><trkpt lat="44.82091946597531" lon="9.82727024315177"><ele>230.0</ele><time>2026-05-01T15:07:20.002Z</time></trkpt><trkpt lat="44.821003713011685" lon="9.827351752981231"><ele>230.0</ele><time>2026-05-01T15:07:21.002Z</time></trkpt><trkpt lat="44.82105552699458" lon="9.827409298154384"><ele>230.0</ele><time>2026-05-01T15:07:22.002Z</time></trkpt><trkpt lat="44.82108760213589" lon="9.827490927819168"><ele>230.00000000000003</ele><time>2026-05-01T15:07:24.002Z</time></trkpt><trkpt lat="44.82101550522073" lon="9.8275469658673"><ele>230.0</ele><time>2026-05-01T15:07:26.002Z</time></trkpt><trkpt lat="44.820988629093776" lon="9.827628586546409"><ele>229.33333333333334</ele><time>2026-05-01T15:07:27.002Z</time></trkpt><trkpt lat="44.82094367391733" lon="9.827760572547774"><ele>228.66666666666669</ele><time>2026-05-01T15:07:29.002Z</time></trkpt><trkpt lat="44.82091298656369" lon="9.827850668990537"><ele>228.0</ele><time>2026-05-01T15:07:30.002Z</time></trkpt><trkpt lat="44.82087359925739" lon="9.827965302542388"><ele>227.33333333333331</ele><time>2026-05-01T15:07:31.002Z</time></trkpt><trkpt lat="44.82083707902487" lon="9.828068275060497"><ele>226.66666666666666</ele><time>2026-05-01T15:07:32.002Z</time></trkpt><trkpt lat="44.82080268077601" lon="9.828166911387468"><ele>226.0</ele><time>2026-05-01T15:07:33.002Z</time></trkpt><trkpt lat="44.82076675513667" lon="9.82827782578687"><ele>225.99999999999997</ele><time>2026-05-01T15:07:34.003Z</time></trkpt><trkpt lat="44.82073854414904" lon="9.828381354685439"><ele>226.0</ele><time>2026-05-01T15:07:35.003Z</time></trkpt><trkpt lat="44.82071921494291" lon="9.828496339502255"><ele>226.0</ele><time>2026-05-01T15:07:36.003Z</time></trkpt><trkpt lat="44.82070037282866" lon="9.82859880017022"><ele>226.0</ele><time>2026-05-01T15:07:37.003Z</time></trkpt><trkpt lat="44.820686886728815" lon="9.828693320957537"><ele>225.99999999999997</ele><time>2026-05-01T15:07:38.003Z</time></trkpt><trkpt lat="44.8206675692521" lon="9.828800963522545"><ele>226.0</ele><time>2026-05-01T15:07:39.003Z</time></trkpt><trkpt lat="44.82065976062603" lon="9.828893551460256"><ele>225.57142857142858</ele><time>2026-05-01T15:07:40.003Z</time></trkpt><trkpt lat="44.82064589363445" lon="9.828986369944685"><ele>225.14285714285714</ele><time>2026-05-01T15:07:41.003Z</time></trkpt><trkpt lat="44.82062879652318" lon="9.829075855166682"><ele>224.71428571428572</ele><time>2026-05-01T15:07:42.003Z</time></trkpt><trkpt lat="44.82061465007917" lon="9.829166518047684"><ele>224.28571428571428</ele><time>2026-05-01T15:07:43.003Z</time></trkpt><trkpt lat="44.82059474191921" lon="9.829259277422791"><ele>223.85714285714283</ele><time>2026-05-01T15:07:44.003Z</time></trkpt><trkpt lat="44.82056207829016" lon="9.829357186943678"><ele>223.42857142857142</ele><time>2026-05-01T15:07:45.003Z</time></trkpt><trkpt lat="44.82052792914235" lon="9.829445465765607"><ele>223.0</ele><time>2026-05-01T15:07:46.003Z</time></trkpt><trkpt lat="44.820487430879474" lon="9.829523123020016"><ele>222.60000000000002</ele><time>2026-05-01T15:07:47.003Z</time></trkpt><trkpt lat="44.820446884097684" lon="9.829600089322762"><ele>222.20000000000002</ele><time>2026-05-01T15:07:48.003Z</time></trkpt><trkpt lat="44.82036634890784" lon="9.829705940945852"><ele>221.8</ele><time>2026-05-01T15:07:50.003Z</time></trkpt><trkpt lat="44.82027837565423" lon="9.829777731280583"><ele>221.4</ele><time>2026-05-01T15:07:52Z</time></trkpt><trkpt lat="44.820167797264865" lon="9.829812954903202"><ele>221.0</ele><time>2026-05-01T15:07:54Z</time></trkpt><trkpt lat="44.820105001097254" lon="9.829806087451564"><ele>219.0</ele><time>2026-05-01T15:07:55Z</time></trkpt><trkpt lat="44.82004864734572" lon="9.829759790827097"><ele>217.00000000000003</ele><time>2026-05-01T15:07:56Z</time></trkpt><trkpt lat="44.819944496615626" lon="9.829690120613336"><ele>215.0</ele><time>2026-05-01T15:07:58Z</time></trkpt><trkpt lat="44.819858088865665" lon="9.829586008624045"><ele>213.0</ele><time>2026-05-01T15:08:00Z</time></trkpt><trkpt lat="44.819781071378394" lon="9.829475115494512"><ele>211.0</ele><time>2026-05-01T15:08:02Z</time></trkpt><trkpt lat="44.819693782137186" lon="9.82935595375207"><ele>212.0</ele><time>2026-05-01T15:08:04Z</time></trkpt><trkpt lat="44.8196018169294" lon="9.829262151334971"><ele>213.0</ele><time>2026-05-01T15:08:06Z</time></trkpt><trkpt lat="44.81954316539898" lon="9.829185377834126"><ele>214.00000000000003</ele><time>2026-05-01T15:08:08Z</time></trkpt><trkpt lat="44.81948443039859" lon="9.829112212965924"><ele>215.0</ele><time>2026-05-01T15:08:10Z</time></trkpt><trkpt lat="44.819394893345134" lon="9.828966900579635"><ele>216.0</ele><time>2026-05-01T15:08:12Z</time></trkpt><trkpt lat="44.819319423925805" lon="9.828867903284399"><ele>214.5</ele><time>2026-05-01T15:08:13.001Z</time></trkpt><trkpt lat="44.81922808567565" lon="9.828762250265239"><ele>213.0</ele><time>2026-05-01T15:08:14.001Z</time></trkpt><trkpt lat="44.81912645212481" lon="9.828610147973128"><ele>211.5</ele><time>2026-05-01T15:08:15.001Z</time></trkpt><trkpt lat="44.81899107394133" lon="9.828446956683544"><ele>210.0</ele><time>2026-05-01T15:08:16.001Z</time></trkpt><trkpt lat="44.81886903240211" lon="9.828272019480103"><ele>210.0</ele><time>2026-05-01T15:08:17.001Z</time></trkpt><trkpt lat="44.81876311938068" lon="9.828129331075461"><ele>210.0</ele><time>2026-05-01T15:08:18.001Z</time></trkpt><trkpt lat="44.81867069286602" lon="9.82800316641458"><ele>210.0</ele><time>2026-05-01T15:08:19.001Z</time></trkpt><trkpt lat="44.81859458103049" lon="9.827899446924652"><ele>210.0</ele><time>2026-05-01T15:08:20.001Z</time></trkpt><trkpt lat="44.818524121504375" lon="9.827805305958718"><ele>210.33333333333334</ele><time>2026-05-01T15:08:21.001Z</time></trkpt><trkpt lat="44.81845300708586" lon="9.827715677361233"><ele>210.66666666666669</ele><time>2026-05-01T15:08:22.001Z</time></trkpt><trkpt lat="44.818403085454335" lon="9.827649254457457"><ele>211.0</ele><time>2026-05-01T15:08:23.001Z</time></trkpt><trkpt lat="44.81835511651666" lon="9.827572485574578"><ele>211.33333333333334</ele><time>2026-05-01T15:08:24.001Z</time></trkpt><trkpt lat="44.818261305749594" lon="9.827487104295447"><ele>211.66666666666669</ele><time>2026-05-01T15:08:26.001Z</time></trkpt><trkpt lat="44.81820077622002" lon="9.827413180195638"><ele>212.0</ele><time>2026-05-01T15:08:28.001Z</time></trkpt><trkpt lat="44.818138551375206" lon="9.827340466671705"><ele>212.25</ele><time>2026-05-01T15:08:30.001Z</time></trkpt><trkpt lat="44.817967770782616" lon="9.827412306787606"><ele>212.5</ele><time>2026-05-01T15:08:32.001Z</time></trkpt><trkpt lat="44.817903586542464" lon="9.827506065129588"><ele>212.75</ele><time>2026-05-01T15:08:34.001Z</time></trkpt><trkpt lat="44.81783136914731" lon="9.827592680537775"><ele>213.0</ele><time>2026-05-01T15:08:36.001Z</time></trkpt><trkpt lat="44.8178429410899" lon="9.827474324015972"><ele>213.0</ele><time>2026-05-01T15:08:39.001Z</time></trkpt><trkpt lat="44.81773094700467" lon="9.827387891275432"><ele>213.0</ele><time>2026-05-01T15:08:41.001Z</time></trkpt><trkpt lat="44.81762494899128" lon="9.8273013134286"><ele>213.0</ele><time>2026-05-01T15:08:42.001Z</time></trkpt><trkpt lat="44.81750867613322" lon="9.82720229837158"><ele>213.0</ele><time>2026-05-01T15:08:43.001Z</time></trkpt><trkpt lat="44.81740834442641" lon="9.827111617180119"><ele>213.0</ele><time>2026-05-01T15:08:44.001Z</time></trkpt><trkpt lat="44.81734126282577" lon="9.827050987934912"><ele>213.0</ele><time>2026-05-01T15:08:45.001Z</time></trkpt><trkpt lat="44.81727584227366" lon="9.826991746602863"><ele>213.0</ele><time>2026-05-01T15:08:46.001Z</time></trkpt><trkpt lat="44.817198870179624" lon="9.82693778299868"><ele>213.0</ele><time>2026-05-01T15:08:47.001Z</time></trkpt><trkpt lat="44.817096571040814" lon="9.826885510634886"><ele>213.0</ele><time>2026-05-01T15:08:49.001Z</time></trkpt><trkpt lat="44.81703453495868" lon="9.826749854417866"><ele>213.33333333333331</ele><time>2026-05-01T15:08:51.001Z</time></trkpt><trkpt lat="44.81699427682625" lon="9.826631160667029"><ele>213.66666666666666</ele><time>2026-05-01T15:08:52.001Z</time></trkpt><trkpt lat="44.816901084297555" lon="9.82645980620154"><ele>214.0</ele><time>2026-05-01T15:08:53.001Z</time></trkpt><trkpt lat="44.816425040354176" lon="9.826724693828789"><ele>214.0</ele><time>2026-05-01T15:08:54.001Z</time></trkpt><trkpt lat="44.81636004219256" lon="9.826606286254126"><ele>214.0</ele><time>2026-05-01T15:08:55.001Z</time></trkpt><trkpt lat="44.8163119187157" lon="9.82646589938773"><ele>214.0</ele><time>2026-05-01T15:08:56.001Z</time></trkpt><trkpt lat="44.816265767238235" lon="9.82627449928116"><ele>214.0</ele><time>2026-05-01T15:08:57.002Z</time></trkpt><trkpt lat="44.81620302955887" lon="9.82607052303379"><ele>214.25</ele><time>2026-05-01T15:08:58.002Z</time></trkpt><trkpt lat="44.81611995417278" lon="9.825903573000558"><ele>214.5</ele><time>2026-05-01T15:08:59.002Z</time></trkpt><trkpt lat="44.81602647058414" lon="9.825761504727216"><ele>214.75</ele><time>2026-05-01T15:09:00.002Z</time></trkpt><trkpt lat="44.815920597397" lon="9.82562013657936"><ele>215.0</ele><time>2026-05-01T15:09:01.002Z</time></trkpt><trkpt lat="44.81581337834324" lon="9.82546852676139"><ele>215.0</ele><time>2026-05-01T15:09:02.002Z</time></trkpt><trkpt lat="44.81571422194702" lon="9.825326964894508"><ele>215.0</ele><time>2026-05-01T15:09:03.002Z</time></trkpt><trkpt lat="44.81561697115166" lon="9.825191456876475"><ele>215.0</ele><time>2026-05-01T15:09:04.002Z</time></trkpt><trkpt lat="44.815506534426426" lon="9.825034245978868"><ele>215.0</ele><time>2026-05-01T15:09:05.002Z</time></trkpt><trkpt lat="44.81540847269711" lon="9.824884829655389"><ele>215.25</ele><time>2026-05-01T15:09:06.002Z</time></trkpt><trkpt lat="44.815314384086086" lon="9.824743427692443"><ele>215.5</ele><time>2026-05-01T15:09:07.002Z</time></trkpt><trkpt lat="44.81522415093444" lon="9.82460740266728"><ele>215.75</ele><time>2026-05-01T15:09:08.002Z</time></trkpt><trkpt lat="44.815126011129294" lon="9.82445595050843"><ele>216.0</ele><time>2026-05-01T15:09:09.002Z</time></trkpt><trkpt lat="44.8150429055443" lon="9.824324821289064"><ele>216.8</ele><time>2026-05-01T15:09:10.002Z</time></trkpt><trkpt lat="44.814978418723925" lon="9.824217267491315"><ele>217.60000000000002</ele><time>2026-05-01T15:09:11.002Z</time></trkpt><trkpt lat="44.814913299770076" lon="9.824134784919435"><ele>218.4</ele><time>2026-05-01T15:09:12.002Z</time></trkpt><trkpt lat="44.8148445017764" lon="9.82404721829901"><ele>219.2</ele><time>2026-05-01T15:09:13.002Z</time></trkpt><trkpt lat="44.814785459326664" lon="9.823946262508489"><ele>220.0</ele><time>2026-05-01T15:09:14.002Z</time></trkpt><trkpt lat="44.814732817200166" lon="9.823849645109844"><ele>220.0</ele><time>2026-05-01T15:09:15.002Z</time></trkpt><trkpt lat="44.81467614907002" lon="9.82372358271656"><ele>220.0</ele><time>2026-05-01T15:09:16.002Z</time></trkpt><trkpt lat="44.81460801202422" lon="9.823577316590274"><ele>220.0</ele><time>2026-05-01T15:09:17.002Z</time></trkpt><trkpt lat="44.814529614662646" lon="9.823418678798754"><ele>220.0</ele><time>2026-05-01T15:09:18.002Z</time></trkpt><trkpt lat="44.81446223926157" lon="9.823293717301413"><ele>219.66666666666666</ele><time>2026-05-01T15:09:19.002Z</time></trkpt><trkpt lat="44.81439291152103" lon="9.823187850816364"><ele>219.33333333333331</ele><time>2026-05-01T15:09:20.002Z</time></trkpt><trkpt lat="44.81433621274898" lon="9.823100017185858"><ele>219.0</ele><time>2026-05-01T15:09:21.002Z</time></trkpt><trkpt lat="44.81428229489129" lon="9.823004608221837"><ele>218.66666666666669</ele><time>2026-05-01T15:09:22.002Z</time></trkpt><trkpt lat="44.814239862339804" lon="9.822915452074145"><ele>218.33333333333334</ele><time>2026-05-01T15:09:23.002Z</time></trkpt><trkpt lat="44.81420601342216" lon="9.82282934715005"><ele>218.0</ele><time>2026-05-01T15:09:24.002Z</time></trkpt><trkpt lat="44.81417051767959" lon="9.822755384640669"><ele>218.0</ele><time>2026-05-01T15:09:25.002Z</time></trkpt><trkpt lat="44.81411947462582" lon="9.8226880591634"><ele>218.0</ele><time>2026-05-01T15:09:26.002Z</time></trkpt><trkpt lat="44.81404210509669" lon="9.822630321034362"><ele>218.0</ele><time>2026-05-01T15:09:27.002Z</time></trkpt><trkpt lat="44.81392774115471" lon="9.82254072533153"><ele>218.0</ele><time>2026-05-01T15:09:28.002Z</time></trkpt><trkpt lat="44.81383598761013" lon="9.822473048023515"><ele>218.0</ele><time>2026-05-01T15:09:29.002Z</time></trkpt><trkpt lat="44.81375751062144" lon="9.822394546892196"><ele>218.2</ele><time>2026-05-01T15:09:30.002Z</time></trkpt><trkpt lat="44.81368257021083" lon="9.822313013306049"><ele>218.4</ele><time>2026-05-01T15:09:31.002Z</time></trkpt><trkpt lat="44.81363270973932" lon="9.822232810577288"><ele>218.59999999999997</ele><time>2026-05-01T15:09:32.002Z</time></trkpt><trkpt lat="44.81358503871777" lon="9.822140224816804"><ele>218.79999999999998</ele><time>2026-05-01T15:09:33.002Z</time></trkpt><trkpt lat="44.81352355288661" lon="9.821997683993025"><ele>219.0</ele><time>2026-05-01T15:09:34.002Z</time></trkpt><trkpt lat="44.8134442420414" lon="9.821864880636456"><ele>220.2</ele><time>2026-05-01T15:09:35.002Z</time></trkpt><trkpt lat="44.813357156703006" lon="9.821723073304598"><ele>221.39999999999998</ele><time>2026-05-01T15:09:36.002Z</time></trkpt><trkpt lat="44.81327673527914" lon="9.821608571019487"><ele>222.6</ele><time>2026-05-01T15:09:37.003Z</time></trkpt><trkpt lat="44.813210095940114" lon="9.821526712857569"><ele>223.8</ele><time>2026-05-01T15:09:38.003Z</time></trkpt><trkpt lat="44.81315585302144" lon="9.821466100405713"><ele>225.0</ele><time>2026-05-01T15:09:39.003Z</time></trkpt><trkpt lat="44.813094071352495" lon="9.821413465738486"><ele>225.0</ele><time>2026-05-01T15:09:40.003Z</time></trkpt><trkpt lat="44.81298877549465" lon="9.821350559228975"><ele>225.0</ele><time>2026-05-01T15:09:42.003Z</time></trkpt><trkpt lat="44.81293103948342" lon="9.821245448449067"><ele>225.0</ele><time>2026-05-01T15:09:44.003Z</time></trkpt><trkpt lat="44.81288005697515" lon="9.821135570961468"><ele>225.0</ele><time>2026-05-01T15:09:45.003Z</time></trkpt><trkpt lat="44.812805305002904" lon="9.821009521404097"><ele>225.0</ele><time>2026-05-01T15:09:46.003Z</time></trkpt><trkpt lat="44.81272061087072" lon="9.82089213107987"><ele>224.6</ele><time>2026-05-01T15:09:47.003Z</time></trkpt><trkpt lat="44.81264159708105" lon="9.820777748561982"><ele>224.2</ele><time>2026-05-01T15:09:48.003Z</time></trkpt><trkpt lat="44.81257489647466" lon="9.820695487021862"><ele>223.8</ele><time>2026-05-01T15:09:49.003Z</time></trkpt><trkpt lat="44.81249206629843" lon="9.820626024797672"><ele>223.4</ele><time>2026-05-01T15:09:50.003Z</time></trkpt><trkpt lat="44.8124028578451" lon="9.820595537701799"><ele>223.0</ele><time>2026-05-01T15:09:51.003Z</time></trkpt><trkpt lat="44.81228011329454" lon="9.820571697266232"><ele>223.0</ele><time>2026-05-01T15:09:52.003Z</time></trkpt><trkpt lat="44.81214508761393" lon="9.82054153019119"><ele>223.0</ele><time>2026-05-01T15:09:53.003Z</time></trkpt><trkpt lat="44.81205397553318" lon="9.820494395725474"><ele>223.0</ele><time>2026-05-01T15:09:54.003Z</time></trkpt><trkpt lat="44.81197438185887" lon="9.820438860225575"><ele>223.0</ele><time>2026-05-01T15:09:55.003Z</time></trkpt><trkpt lat="44.81188636298917" lon="9.820370050157837"><ele>223.0</ele><time>2026-05-01T15:09:56.003Z</time></trkpt><trkpt lat="44.81180054931906" lon="9.820293661575363"><ele>223.2</ele><time>2026-05-01T15:09:57.003Z</time></trkpt><trkpt lat="44.81171723815445" lon="9.82026313562673"><ele>223.4</ele><time>2026-05-01T15:09:58.001Z</time></trkpt><trkpt lat="44.81165076808074" lon="9.820258176552603"><ele>223.59999999999997</ele><time>2026-05-01T15:09:59.001Z</time></trkpt><trkpt lat="44.81153959444557" lon="9.820177911139968"><ele>223.79999999999998</ele><time>2026-05-01T15:10:01.001Z</time></trkpt><trkpt lat="44.81145918587141" lon="9.820101949146435"><ele>224.0</ele><time>2026-05-01T15:10:02.001Z</time></trkpt><trkpt lat="44.81137800348043" lon="9.820051799115877"><ele>224.0</ele><time>2026-05-01T15:10:03.001Z</time></trkpt><trkpt lat="44.81130008173595" lon="9.819987439480508"><ele>223.99999999999997</ele><time>2026-05-01T15:10:04.001Z</time></trkpt><trkpt lat="44.81119858117811" lon="9.819946484777946"><ele>223.99999999999997</ele><time>2026-05-01T15:10:05.001Z</time></trkpt><trkpt lat="44.811091828981354" lon="9.819928623966959"><ele>224.0</ele><time>2026-05-01T15:10:06.001Z</time></trkpt><trkpt lat="44.81099596457494" lon="9.819917889766007"><ele>224.0</ele><time>2026-05-01T15:10:07.001Z</time></trkpt><trkpt lat="44.81092221092603" lon="9.819891419291613"><ele>223.79999999999998</ele><time>2026-05-01T15:10:08.001Z</time></trkpt><trkpt lat="44.81084780026764" lon="9.819841071433611"><ele>223.59999999999997</ele><time>2026-05-01T15:10:09.001Z</time></trkpt><trkpt lat="44.81081372647936" lon="9.819693994155259"><ele>223.4</ele><time>2026-05-01T15:10:10.001Z</time></trkpt><trkpt lat="44.81074932780799" lon="9.819674874940912"><ele>223.2</ele><time>2026-05-01T15:10:11.001Z</time></trkpt><trkpt lat="44.81065594368729" lon="9.819630478392954"><ele>223.0</ele><time>2026-05-01T15:10:12.001Z</time></trkpt><trkpt lat="44.81056109704975" lon="9.819568218805887"><ele>223.0</ele><time>2026-05-01T15:10:13.001Z</time></trkpt><trkpt lat="44.81046007431997" lon="9.819516329762733"><ele>223.0</ele><time>2026-05-01T15:10:14.001Z</time></trkpt><trkpt lat="44.81036225040113" lon="9.819475988155629"><ele>223.0</ele><time>2026-05-01T15:10:15.001Z</time></trkpt><trkpt lat="44.81025994294119" lon="9.819408098676393"><ele>223.0</ele><time>2026-05-01T15:10:16.001Z</time></trkpt><trkpt lat="44.810150363766624" lon="9.819355217716984"><ele>223.0</ele><time>2026-05-01T15:10:17.001Z</time></trkpt><trkpt lat="44.810036065716474" lon="9.819300059510885"><ele>223.4</ele><time>2026-05-01T15:10:18.001Z</time></trkpt><trkpt lat="44.80992053154267" lon="9.819285955783148"><ele>223.8</ele><time>2026-05-01T15:10:19.001Z</time></trkpt><trkpt lat="44.80981891930395" lon="9.819239048336462"><ele>224.2</ele><time>2026-05-01T15:10:20.001Z</time></trkpt><trkpt lat="44.80972380367315" lon="9.819212557228138"><ele>224.6</ele><time>2026-05-01T15:10:21.001Z</time></trkpt><trkpt lat="44.80964276326193" lon="9.819191989407637"><ele>225.0</ele><time>2026-05-01T15:10:22.001Z</time></trkpt><trkpt lat="44.809567705039065" lon="9.819170365803505"><ele>225.0</ele><time>2026-05-01T15:10:23.001Z</time></trkpt><trkpt lat="44.80950404825636" lon="9.819139897999811"><ele>225.0</ele><time>2026-05-01T15:10:24.001Z</time></trkpt><trkpt lat="44.809408829570096" lon="9.819083074583046"><ele>225.0</ele><time>2026-05-01T15:10:25.001Z</time></trkpt><trkpt lat="44.80927407625035" lon="9.81897241332881"><ele>225.0</ele><time>2026-05-01T15:10:27.001Z</time></trkpt><trkpt lat="44.80919859331183" lon="9.818938043611354"><ele>225.0</ele><time>2026-05-01T15:10:28.001Z</time></trkpt><trkpt lat="44.80910627089153" lon="9.818889120663625"><ele>225.2</ele><time>2026-05-01T15:10:29.001Z</time></trkpt><trkpt lat="44.80901538757689" lon="9.81885787494448"><ele>225.4</ele><time>2026-05-01T15:10:30.001Z</time></trkpt><trkpt lat="44.80892042383185" lon="9.818830380783599"><ele>225.60000000000002</ele><time>2026-05-01T15:10:31.001Z</time></trkpt><trkpt lat="44.80883311370471" lon="9.818821656473311"><ele>225.8</ele><time>2026-05-01T15:10:32.001Z</time></trkpt><trkpt lat="44.808756638978714" lon="9.818805143816576"><ele>226.0</ele><time>2026-05-01T15:10:33.001Z</time></trkpt><trkpt lat="44.80860074485771" lon="9.818797736563125"><ele>225.8</ele><time>2026-05-01T15:10:35.001Z</time></trkpt><trkpt lat="44.80849122621467" lon="9.818803868170367"><ele>225.60000000000002</ele><time>2026-05-01T15:10:36.001Z</time></trkpt><trkpt lat="44.80838543668225" lon="9.818802936675281"><ele>225.4</ele><time>2026-05-01T15:10:37.001Z</time></trkpt><trkpt lat="44.808298541888256" lon="9.818808036946749"><ele>225.2</ele><time>2026-05-01T15:10:38.001Z</time></trkpt><trkpt lat="44.80820923876159" lon="9.818805476410594"><ele>225.0</ele><time>2026-05-01T15:10:39.001Z</time></trkpt><trkpt lat="44.80812110785338" lon="9.818798419175446"><ele>225.0</ele><time>2026-05-01T15:10:40.001Z</time></trkpt><trkpt lat="44.8080250727167" lon="9.818783928938885"><ele>225.0</ele><time>2026-05-01T15:10:41.001Z</time></trkpt><trkpt lat="44.80791873203413" lon="9.818751220015965"><ele>225.0</ele><time>2026-05-01T15:10:42.001Z</time></trkpt><trkpt lat="44.807828720995644" lon="9.818715372276495"><ele>225.0</ele><time>2026-05-01T15:10:43.001Z</time></trkpt><trkpt lat="44.807749057322255" lon="9.81868287932725"><ele>225.0</ele><time>2026-05-01T15:10:44.001Z</time></trkpt><trkpt lat="44.80763807859853" lon="9.818615288189543"><ele>225.0</ele><time>2026-05-01T15:10:45.001Z</time></trkpt><trkpt lat="44.807543576885685" lon="9.818558549524646"><ele>225.0</ele><time>2026-05-01T15:10:46.001Z</time></trkpt><trkpt lat="44.807455221743396" lon="9.818528698613013"><ele>225.0</ele><time>2026-05-01T15:10:47.001Z</time></trkpt><trkpt lat="44.80738216568989" lon="9.818503336953167"><ele>225.0</ele><time>2026-05-01T15:10:48.001Z</time></trkpt><trkpt lat="44.80731241784509" lon="9.818450112889543"><ele>225.0</ele><time>2026-05-01T15:10:49.001Z</time></trkpt><trkpt lat="44.80724883541901" lon="9.818374819754323"><ele>225.0</ele><time>2026-05-01T15:10:50.001Z</time></trkpt><trkpt lat="44.80719189213493" lon="9.818270636119193"><ele>225.33333333333334</ele><time>2026-05-01T15:10:51.001Z</time></trkpt><trkpt lat="44.80715721753897" lon="9.818169444269731"><ele>225.66666666666669</ele><time>2026-05-01T15:10:52.001Z</time></trkpt><trkpt lat="44.80711566113111" lon="9.818039274544857"><ele>226.0</ele><time>2026-05-01T15:10:53.001Z</time></trkpt><trkpt lat="44.807078359339" lon="9.817949422115857"><ele>226.33333333333334</ele><time>2026-05-01T15:10:54.002Z</time></trkpt><trkpt lat="44.80697831434632" lon="9.817891230255777"><ele>226.66666666666669</ele><time>2026-05-01T15:10:56.002Z</time></trkpt><trkpt lat="44.80689345524263" lon="9.817879385294114"><ele>227.0</ele><time>2026-05-01T15:10:57.002Z</time></trkpt><trkpt lat="44.80679273148168" lon="9.8178437136257"><ele>227.0</ele><time>2026-05-01T15:10:58.002Z</time></trkpt><trkpt lat="44.8066974098191" lon="9.817794530514226"><ele>227.0</ele><time>2026-05-01T15:10:59.002Z</time></trkpt><trkpt lat="44.80658563655067" lon="9.81772706363516"><ele>227.0</ele><time>2026-05-01T15:11:00.002Z</time></trkpt><trkpt lat="44.80650188011311" lon="9.817682420250948"><ele>227.0</ele><time>2026-05-01T15:11:01.002Z</time></trkpt><trkpt lat="44.80642392701367" lon="9.817647084197311"><ele>227.0</ele><time>2026-05-01T15:11:02.002Z</time></trkpt><trkpt lat="44.80635316731275" lon="9.817605547394802"><ele>227.42857142857144</ele><time>2026-05-01T15:11:03.002Z</time></trkpt><trkpt lat="44.80628370515921" lon="9.817567727731795"><ele>227.8571428571429</ele><time>2026-05-01T15:11:04.002Z</time></trkpt><trkpt lat="44.806209987717445" lon="9.817529521193038"><ele>228.28571428571428</ele><time>2026-05-01T15:11:05.002Z</time></trkpt><trkpt lat="44.80614430205032" lon="9.817500286150597"><ele>228.71428571428572</ele><time>2026-05-01T15:11:06.002Z</time></trkpt><trkpt lat="44.806075402592796" lon="9.817470144517225"><ele>229.14285714285714</ele><time>2026-05-01T15:11:07.002Z</time></trkpt><trkpt lat="44.806008247700504" lon="9.817437070686527"><ele>229.57142857142856</ele><time>2026-05-01T15:11:08.002Z</time></trkpt><trkpt lat="44.80594522643885" lon="9.817406588131393"><ele>229.99999999999997</ele><time>2026-05-01T15:11:09.002Z</time></trkpt><trkpt lat="44.805875950889394" lon="9.817373223179347"><ele>230.00000000000003</ele><time>2026-05-01T15:11:10.002Z</time></trkpt><trkpt lat="44.805804776181844" lon="9.817333753879023"><ele>230.0</ele><time>2026-05-01T15:11:11.002Z</time></trkpt><trkpt lat="44.80571680004017" lon="9.817284075203489"><ele>230.0</ele><time>2026-05-01T15:11:12.002Z</time></trkpt><trkpt lat="44.80564327562858" lon="9.817243977096997"><ele>230.0</ele><time>2026-05-01T15:11:13.002Z</time></trkpt><trkpt lat="44.80555806432969" lon="9.817214592068447"><ele>230.00000000000003</ele><time>2026-05-01T15:11:14.002Z</time></trkpt><trkpt lat="44.80547420989085" lon="9.817180806193027"><ele>230.0</ele><time>2026-05-01T15:11:15.002Z</time></trkpt><trkpt lat="44.80535865923429" lon="9.81711833656929"><ele>230.00000000000003</ele><time>2026-05-01T15:11:17.002Z</time></trkpt><trkpt lat="44.80529311818961" lon="9.81706912072284"><ele>230.0</ele><time>2026-05-01T15:11:18.002Z</time></trkpt><trkpt lat="44.80523112791876" lon="9.817016291534616"><ele>230.0</ele><time>2026-05-01T15:11:19.002Z</time></trkpt><trkpt lat="44.805115378409596" lon="9.816919942457124"><ele>230.0</ele><time>2026-05-01T15:11:21.002Z</time></trkpt><trkpt lat="44.805045101653164" lon="9.816860794341174"><ele>230.00000000000003</ele><time>2026-05-01T15:11:22.002Z</time></trkpt><trkpt lat="44.804981469305275" lon="9.816808662496467"><ele>230.0</ele><time>2026-05-01T15:11:23.002Z</time></trkpt><trkpt lat="44.80490766555882" lon="9.816742168217008"><ele>231.2</ele><time>2026-05-01T15:11:24.002Z</time></trkpt><trkpt lat="44.804844862027124" lon="9.816651923863855"><ele>232.4</ele><time>2026-05-01T15:11:26.002Z</time></trkpt><trkpt lat="44.80477969331759" lon="9.816498790403406"><ele>233.60000000000002</ele><time>2026-05-01T15:11:28.002Z</time></trkpt><trkpt lat="44.80473109850713" lon="9.816419302442782"><ele>234.8</ele><time>2026-05-01T15:11:29.002Z</time></trkpt><trkpt lat="44.80465894004815" lon="9.816343068347718"><ele>236.0</ele><time>2026-05-01T15:11:30.002Z</time></trkpt><trkpt lat="44.80457983145017" lon="9.816264075480502"><ele>236.0</ele><time>2026-05-01T15:11:31.002Z</time></trkpt><trkpt lat="44.80446511662327" lon="9.816133127524571"><ele>236.00000000000003</ele><time>2026-05-01T15:11:33.002Z</time></trkpt><trkpt lat="44.804401053555324" lon="9.816054808324331"><ele>236.00000000000003</ele><time>2026-05-01T15:11:35.002Z</time></trkpt><trkpt lat="44.804334198024435" lon="9.816065241226813"><ele>236.0</ele><time>2026-05-01T15:11:37.002Z</time></trkpt><trkpt lat="44.804220268091186" lon="9.816133103318979"><ele>236.0</ele><time>2026-05-01T15:11:39.003Z</time></trkpt><trkpt lat="44.80409170416404" lon="9.816165576164845"><ele>236.00000000000003</ele><time>2026-05-01T15:11:41.003Z</time></trkpt><trkpt lat="44.804028521905444" lon="9.816133257856771"><ele>236.0</ele><time>2026-05-01T15:11:42.003Z</time></trkpt><trkpt lat="44.803965914791355" lon="9.815981710973649"><ele>236.0</ele><time>2026-05-01T15:11:44.003Z</time></trkpt><trkpt lat="44.80394462688018" lon="9.815885132466658"><ele>236.0</ele><time>2026-05-01T15:11:45.003Z</time></trkpt><trkpt lat="44.80389558252279" lon="9.815796900322077"><ele>236.00000000000003</ele><time>2026-05-01T15:11:47.003Z</time></trkpt><trkpt lat="44.80383621671515" lon="9.815754802178155"><ele>236.0</ele><time>2026-05-01T15:11:49.003Z</time></trkpt><trkpt lat="44.80371957081225" lon="9.815674023953004"><ele>236.0</ele><time>2026-05-01T15:11:51.003Z</time></trkpt><trkpt lat="44.80364344810515" lon="9.815602860590195"><ele>236.00000000000003</ele><time>2026-05-01T15:11:52.003Z</time></trkpt><trkpt lat="44.80355038610717" lon="9.815543228923804"><ele>236.00000000000003</ele><time>2026-05-01T15:11:53.003Z</time></trkpt><trkpt lat="44.803483634195715" lon="9.81547582239134"><ele>236.0</ele><time>2026-05-01T15:11:54.003Z</time></trkpt><trkpt lat="44.80343841274871" lon="9.815335288181856"><ele>236.0</ele><time>2026-05-01T15:11:56.003Z</time></trkpt><trkpt lat="44.80342874871047" lon="9.815238685180036"><ele>236.0</ele><time>2026-05-01T15:11:57.003Z</time></trkpt><trkpt lat="44.80339749783765" lon="9.815067888762421"><ele>236.00000000000003</ele><time>2026-05-01T15:11:59.003Z</time></trkpt><trkpt lat="44.803344742126434" lon="9.81499136660737"><ele>236.00000000000003</ele><time>2026-05-01T15:12:00.003Z</time></trkpt><trkpt lat="44.80327279335551" lon="9.814943336507545"><ele>236.0</ele><time>2026-05-01T15:12:01.003Z</time></trkpt><trkpt lat="44.80319430188167" lon="9.814899677336152"><ele>236.0</ele><time>2026-05-01T15:12:02.003Z</time></trkpt><trkpt lat="44.803104168407806" lon="9.814872319869696"><ele>236.0</ele><time>2026-05-01T15:12:03.003Z</time></trkpt><trkpt lat="44.80299549718467" lon="9.814844070728556"><ele>236.0</ele><time>2026-05-01T15:12:04.001Z</time></trkpt><trkpt lat="44.80288520883883" lon="9.814805777278352"><ele>236.0</ele><time>2026-05-01T15:12:05.001Z</time></trkpt><trkpt lat="44.802770576670035" lon="9.814772469514114"><ele>236.0</ele><time>2026-05-01T15:12:06.001Z</time></trkpt><trkpt lat="44.80263950670748" lon="9.814734613580116"><ele>236.0</ele><time>2026-05-01T15:12:07.001Z</time></trkpt><trkpt lat="44.80254067066542" lon="9.814685490207912"><ele>236.0</ele><time>2026-05-01T15:12:08.001Z</time></trkpt><trkpt lat="44.802431286488314" lon="9.814604278102214"><ele>236.0</ele><time>2026-05-01T15:12:09.001Z</time></trkpt><trkpt lat="44.80231919271392" lon="9.81453761509561"><ele>236.0</ele><time>2026-05-01T15:12:10.001Z</time></trkpt><trkpt lat="44.80218364855766" lon="9.814472256029944"><ele>236.0</ele><time>2026-05-01T15:12:11.001Z</time></trkpt><trkpt lat="44.8020505925703" lon="9.814447121109731"><ele>236.00000000000003</ele><time>2026-05-01T15:12:12.001Z</time></trkpt><trkpt lat="44.80193508448765" lon="9.81441655321096"><ele>236.00000000000003</ele><time>2026-05-01T15:12:13.001Z</time></trkpt><trkpt lat="44.801849716263845" lon="9.81438704109974"><ele>236.0</ele><time>2026-05-01T15:12:14.001Z</time></trkpt><trkpt lat="44.801774624170534" lon="9.81435928933643"><ele>236.0</ele><time>2026-05-01T15:12:15.001Z</time></trkpt><trkpt lat="44.80168907370448" lon="9.814312513873912"><ele>236.5</ele><time>2026-05-01T15:12:16.001Z</time></trkpt><trkpt lat="44.801582758909156" lon="9.81423750592886"><ele>237.0</ele><time>2026-05-01T15:12:17.001Z</time></trkpt><trkpt lat="44.80147026753762" lon="9.814146577977146"><ele>237.5</ele><time>2026-05-01T15:12:18.001Z</time></trkpt><trkpt lat="44.80135422230284" lon="9.814056225760895"><ele>238.0</ele><time>2026-05-01T15:12:19.001Z</time></trkpt><trkpt lat="44.80123691622283" lon="9.813991967284666"><ele>238.0</ele><time>2026-05-01T15:12:20.001Z</time></trkpt><trkpt lat="44.80109786273505" lon="9.813909273118504"><ele>238.0</ele><time>2026-05-01T15:12:21.001Z</time></trkpt><trkpt lat="44.800961016938345" lon="9.813813619166117"><ele>238.0</ele><time>2026-05-01T15:12:22.001Z</time></trkpt><trkpt lat="44.800827808280026" lon="9.813712595211452"><ele>238.5</ele><time>2026-05-01T15:12:23.001Z</time></trkpt><trkpt lat="44.80069746076139" lon="9.813605637857998"><ele>239.0</ele><time>2026-05-01T15:12:24.001Z</time></trkpt><trkpt lat="44.800582999855635" lon="9.81349834836285"><ele>239.5</ele><time>2026-05-01T15:12:25.001Z</time></trkpt><trkpt lat="44.800477653289704" lon="9.813378728308692"><ele>240.0</ele><time>2026-05-01T15:12:26.001Z</time></trkpt><trkpt lat="44.80038862594071" lon="9.813272449746044"><ele>240.25</ele><time>2026-05-01T15:12:27.001Z</time></trkpt><trkpt lat="44.800293432397076" lon="9.813132721771574"><ele>240.5</ele><time>2026-05-01T15:12:28.001Z</time></trkpt><trkpt lat="44.80021270973419" lon="9.813029367983955"><ele>240.75</ele><time>2026-05-01T15:12:29.001Z</time></trkpt><trkpt lat="44.800098058655394" lon="9.812940041317537"><ele>241.0</ele><time>2026-05-01T15:12:30.001Z</time></trkpt><trkpt lat="44.799981219986094" lon="9.812868694750634"><ele>241.0</ele><time>2026-05-01T15:12:31.001Z</time></trkpt><trkpt lat="44.79986268168283" lon="9.812797710868796"><ele>241.00000000000003</ele><time>2026-05-01T15:12:32.001Z</time></trkpt><trkpt lat="44.799779508282214" lon="9.812712719903448"><ele>241.00000000000003</ele><time>2026-05-01T15:12:33.001Z</time></trkpt><trkpt lat="44.79971002340219" lon="9.812624524504765"><ele>241.0</ele><time>2026-05-01T15:12:34.001Z</time></trkpt><trkpt lat="44.799641641397095" lon="9.812531058386165"><ele>241.0</ele><time>2026-05-01T15:12:35.001Z</time></trkpt><trkpt lat="44.79954886872633" lon="9.812461948825478"><ele>241.0</ele><time>2026-05-01T15:12:36.001Z</time></trkpt><trkpt lat="44.79942919299753" lon="9.812395444492669"><ele>241.0</ele><time>2026-05-01T15:12:37.001Z</time></trkpt><trkpt lat="44.79929860216142" lon="9.812335060491096"><ele>241.0</ele><time>2026-05-01T15:12:38.001Z</time></trkpt><trkpt lat="44.79916582855977" lon="9.812280496170525"><ele>241.0</ele><time>2026-05-01T15:12:39.001Z</time></trkpt><trkpt lat="44.79902514005397" lon="9.812209326186501"><ele>241.0</ele><time>2026-05-01T15:12:40.001Z</time></trkpt><trkpt lat="44.798912618895756" lon="9.812149992236293"><ele>241.0</ele><time>2026-05-01T15:12:41.001Z</time></trkpt><trkpt lat="44.79878750377518" lon="9.812104794145117"><ele>241.0</ele><time>2026-05-01T15:12:42.001Z</time></trkpt><trkpt lat="44.798667522331186" lon="9.812069777251807"><ele>241.0</ele><time>2026-05-01T15:12:43.001Z</time></trkpt><trkpt lat="44.79858671148866" lon="9.812046858938157"><ele>241.0</ele><time>2026-05-01T15:12:44.001Z</time></trkpt><trkpt lat="44.79850193374787" lon="9.812016621742089"><ele>241.0</ele><time>2026-05-01T15:12:45.001Z</time></trkpt><trkpt lat="44.798419088754656" lon="9.81195412852717"><ele>241.0</ele><time>2026-05-01T15:12:46.001Z</time></trkpt><trkpt lat="44.79831875446131" lon="9.811849888331738"><ele>241.0</ele><time>2026-05-01T15:12:47.001Z</time></trkpt><trkpt lat="44.7981986789954" lon="9.811737276239972"><ele>243.0</ele><time>2026-05-01T15:12:48.001Z</time></trkpt><trkpt lat="44.79806124107293" lon="9.811618030790122"><ele>245.0</ele><time>2026-05-01T15:12:49.001Z</time></trkpt><trkpt lat="44.79791029338948" lon="9.811503357476287"><ele>247.0</ele><time>2026-05-01T15:12:50.001Z</time></trkpt><trkpt lat="44.797778089768926" lon="9.811418077413348"><ele>246.5</ele><time>2026-05-01T15:12:51.001Z</time></trkpt><trkpt lat="44.79765532332733" lon="9.811324026324344"><ele>246.0</ele><time>2026-05-01T15:12:52.001Z</time></trkpt><trkpt lat="44.797550532613315" lon="9.811252887772957"><ele>245.5</ele><time>2026-05-01T15:12:53.001Z</time></trkpt><trkpt lat="44.797454600776675" lon="9.811178020260895"><ele>245.0</ele><time>2026-05-01T15:12:54.001Z</time></trkpt><trkpt lat="44.797373570698845" lon="9.811089320577846"><ele>246.5</ele><time>2026-05-01T15:12:55.001Z</time></trkpt><trkpt lat="44.79729022197309" lon="9.810969413625987"><ele>248.0</ele><time>2026-05-01T15:12:56.001Z</time></trkpt><trkpt lat="44.79720216920936" lon="9.81084041104693"><ele>249.5</ele><time>2026-05-01T15:12:57.001Z</time></trkpt><trkpt lat="44.79711007998589" lon="9.810735348373793"><ele>251.0</ele><time>2026-05-01T15:12:58.001Z</time></trkpt><trkpt lat="44.79697646178977" lon="9.8106466121021"><ele>251.0</ele><time>2026-05-01T15:12:59.001Z</time></trkpt><trkpt lat="44.796844497219226" lon="9.810568970423029"><ele>251.0</ele><time>2026-05-01T15:13:00.001Z</time></trkpt><trkpt lat="44.796712467450995" lon="9.810488754886288"><ele>251.0</ele><time>2026-05-01T15:13:01.001Z</time></trkpt><trkpt lat="44.79660166226817" lon="9.81038547442915"><ele>251.0</ele><time>2026-05-01T15:13:02.001Z</time></trkpt><trkpt lat="44.79649523613842" lon="9.810248728083268"><ele>250.33333333333334</ele><time>2026-05-01T15:13:03.001Z</time></trkpt><trkpt lat="44.79636446905146" lon="9.81007881965723"><ele>249.66666666666669</ele><time>2026-05-01T15:13:04.001Z</time></trkpt><trkpt lat="44.79623124310745" lon="9.809937845408944"><ele>249.0</ele><time>2026-05-01T15:13:05.001Z</time></trkpt><trkpt lat="44.79608804308342" lon="9.80981469081067"><ele>249.0</ele><time>2026-05-01T15:13:06.001Z</time></trkpt><trkpt lat="44.795963139024366" lon="9.809693615901324"><ele>249.0</ele><time>2026-05-01T15:13:07.001Z</time></trkpt><trkpt lat="44.79585672668815" lon="9.80957795420758"><ele>249.0</ele><time>2026-05-01T15:13:08.001Z</time></trkpt><trkpt lat="44.795751826577686" lon="9.80945382941935"><ele>249.0</ele><time>2026-05-01T15:13:09.001Z</time></trkpt><trkpt lat="44.79564251751941" lon="9.80931506764289"><ele>249.0</ele><time>2026-05-01T15:13:10.002Z</time></trkpt><trkpt lat="44.79550483522153" lon="9.809172944878659"><ele>249.0</ele><time>2026-05-01T15:13:11.002Z</time></trkpt><trkpt lat="44.7953537343675" lon="9.809040176788214"><ele>249.0</ele><time>2026-05-01T15:13:12.002Z</time></trkpt><trkpt lat="44.795221927581245" lon="9.808929581064676"><ele>249.25</ele><time>2026-05-01T15:13:13.002Z</time></trkpt><trkpt lat="44.795105790154615" lon="9.808858102501885"><ele>249.5</ele><time>2026-05-01T15:13:14.002Z</time></trkpt><trkpt lat="44.794955166623495" lon="9.808768659646544"><ele>249.75</ele><time>2026-05-01T15:13:15.002Z</time></trkpt><trkpt lat="44.794843519341505" lon="9.80869096468332"><ele>250.0</ele><time>2026-05-01T15:13:16.002Z</time></trkpt><trkpt lat="44.79477199469908" lon="9.808545414182728"><ele>250.5</ele><time>2026-05-01T15:13:17.002Z</time></trkpt><trkpt lat="44.79466782352984" lon="9.808474060237128"><ele>251.0</ele><time>2026-05-01T15:13:18.002Z</time></trkpt><trkpt lat="44.7945479596079" lon="9.808364313698009"><ele>251.5</ele><time>2026-05-01T15:13:19.002Z</time></trkpt><trkpt lat="44.79440774551703" lon="9.808222838468218"><ele>252.0</ele><time>2026-05-01T15:13:20.002Z</time></trkpt><trkpt lat="44.79427421674114" lon="9.80809004673796"><ele>252.0</ele><time>2026-05-01T15:13:21.002Z</time></trkpt><trkpt lat="44.79415454869538" lon="9.807978462776095"><ele>252.0</ele><time>2026-05-01T15:13:22.002Z</time></trkpt><trkpt lat="44.79407084168107" lon="9.807891215754184"><ele>252.0</ele><time>2026-05-01T15:13:23.002Z</time></trkpt><trkpt lat="44.794015000704746" lon="9.80782345389951"><ele>252.0</ele><time>2026-05-01T15:13:24.002Z</time></trkpt><trkpt lat="44.79396540623511" lon="9.807730531782246"><ele>252.0</ele><time>2026-05-01T15:13:26.002Z</time></trkpt><trkpt lat="44.79400824782323" lon="9.807799288988106"><ele>252.0</ele><time>2026-05-01T15:13:40.002Z</time></trkpt><trkpt lat="44.79405912247116" lon="9.807893582856616"><ele>252.0</ele><time>2026-05-01T15:14:48.001Z</time></trkpt><trkpt lat="44.79411415126094" lon="9.807956826571905"><ele>252.0</ele><time>2026-05-01T15:14:49.001Z</time></trkpt><trkpt lat="44.79408351541639" lon="9.808172920099127"><ele>252.0</ele><time>2026-05-01T15:14:50.001Z</time></trkpt><trkpt lat="44.79413546776978" lon="9.808278236078122"><ele>252.0</ele><time>2026-05-01T15:14:51.001Z</time></trkpt><trkpt lat="44.79427366452626" lon="9.808168051935533"><ele>252.16666666666666</ele><time>2026-05-01T15:14:52.001Z</time></trkpt><trkpt lat="44.79434994797019" lon="9.80822825028826"><ele>252.33333333333331</ele><time>2026-05-01T15:14:53.001Z</time></trkpt><trkpt lat="44.794431586489765" lon="9.808306779042177"><ele>252.5</ele><time>2026-05-01T15:14:54.001Z</time></trkpt><trkpt lat="44.79451340230064" lon="9.808385522535051"><ele>252.66666666666666</ele><time>2026-05-01T15:14:55.001Z</time></trkpt><trkpt lat="44.79458188413263" lon="9.808449073013174"><ele>252.83333333333331</ele><time>2026-05-01T15:14:56.001Z</time></trkpt><trkpt lat="44.79464359649251" lon="9.808501115581013"><ele>253.0</ele><time>2026-05-01T15:14:57.001Z</time></trkpt><trkpt lat="44.794744191726345" lon="9.808582305556078"><ele>252.49999999999997</ele><time>2026-05-01T15:14:59.001Z</time></trkpt><trkpt lat="44.79474357764119" lon="9.808674165308531"><ele>252.0</ele><time>2026-05-01T15:15:03.001Z</time></trkpt><trkpt lat="44.794747933953175" lon="9.80878193232352"><ele>251.5</ele><time>2026-05-01T15:15:07.001Z</time></trkpt><trkpt lat="44.79473524871688" lon="9.808885095901113"><ele>251.0</ele><time>2026-05-01T15:15:10.001Z</time></trkpt><trkpt lat="44.79473532378113" lon="9.808985621543142"><ele>250.49999999999997</ele><time>2026-05-01T15:15:12.001Z</time></trkpt><trkpt lat="44.7947409264514" lon="9.8091166191135"><ele>250.0</ele><time>2026-05-01T15:15:15.001Z</time></trkpt><trkpt lat="44.79473664609471" lon="9.809216493167146"><ele>250.0</ele><time>2026-05-01T15:15:18.001Z</time></trkpt><trkpt lat="44.79475681048216" lon="9.809122228025458"><ele>250.0</ele><time>2026-05-01T15:17:01.001Z</time></trkpt><trkpt lat="44.79475072101613" lon="9.808984769604724"><ele>250.0</ele><time>2026-05-01T15:17:04.001Z</time></trkpt><trkpt lat="44.794815906497405" lon="9.808825762242817"><ele>250.0</ele><time>2026-05-01T15:17:06.001Z</time></trkpt><trkpt lat="44.794806344864185" lon="9.808703240591345"><ele>250.0</ele><time>2026-05-01T15:17:08.001Z</time></trkpt><trkpt lat="44.794756778283855" lon="9.80859529674544"><ele>250.0</ele><time>2026-05-01T15:17:10.001Z</time></trkpt><trkpt lat="44.79467536670244" lon="9.808528183970404"><ele>250.0</ele><time>2026-05-01T15:17:12.001Z</time></trkpt><trkpt lat="44.794596332525366" lon="9.808452110940769"><ele>250.0</ele><time>2026-05-01T15:17:14.001Z</time></trkpt><trkpt lat="44.79451288057702" lon="9.808396788440959"><ele>250.0</ele><time>2026-05-01T15:17:16.001Z</time></trkpt><trkpt lat="44.79445826113414" lon="9.80833829726467"><ele>250.0</ele><time>2026-05-01T15:17:17.001Z</time></trkpt><trkpt lat="44.79438482861282" lon="9.808199041805462"><ele>250.33333333333331</ele><time>2026-05-01T15:17:19.001Z</time></trkpt><trkpt lat="44.79433247995013" lon="9.808144683533948"><ele>250.66666666666666</ele><time>2026-05-01T15:17:20.001Z</time></trkpt><trkpt lat="44.79426085429644" lon="9.808104566577587"><ele>251.0</ele><time>2026-05-01T15:17:22.001Z</time></trkpt><trkpt lat="44.794195383896614" lon="9.808016539384354"><ele>251.33333333333331</ele><time>2026-05-01T15:17:25.001Z</time></trkpt><trkpt lat="44.79413410752058" lon="9.807959402487178"><ele>251.66666666666666</ele><time>2026-05-01T15:17:27.001Z</time></trkpt><trkpt lat="44.79407343452105" lon="9.807896135487372"><ele>252.0</ele><time>2026-05-01T15:17:29.001Z</time></trkpt><trkpt lat="44.79400379017042" lon="9.807832914945418"><ele>252.0</ele><time>2026-05-01T15:17:31.001Z</time></trkpt><trkpt lat="44.79397446143138" lon="9.807746286354831"><ele>252.0</ele><time>2026-05-01T15:17:33.001Z</time></trkpt><trkpt lat="44.793910678920184" lon="9.807732749219541"><ele>252.0</ele><time>2026-05-01T15:17:36.001Z</time></trkpt><trkpt lat="44.79382170868602" lon="9.8076942984341"><ele>252.0</ele><time>2026-05-01T15:17:41.001Z</time></trkpt><trkpt lat="44.793745103720525" lon="9.807639093417109"><ele>252.0</ele><time>2026-05-01T15:17:43.001Z</time></trkpt><trkpt lat="44.79378329138461" lon="9.80726996324031"><ele>252.5</ele><time>2026-05-01T15:17:44.001Z</time></trkpt><trkpt lat="44.7936903666996" lon="9.80722196077465"><ele>253.0</ele><time>2026-05-01T15:17:46.001Z</time></trkpt><trkpt lat="44.79363183174085" lon="9.807183039157064"><ele>253.5</ele><time>2026-05-01T15:17:48.001Z</time></trkpt><trkpt lat="44.79354707694069" lon="9.807124939899838"><ele>254.0</ele><time>2026-05-01T15:17:51.001Z</time></trkpt><trkpt lat="44.79348652871916" lon="9.807074921801087"><ele>254.5</ele><time>2026-05-01T15:17:52.001Z</time></trkpt><trkpt lat="44.79342468682205" lon="9.80701715099669"><ele>255.0</ele><time>2026-05-01T15:17:53.001Z</time></trkpt><trkpt lat="44.793328715794196" lon="9.806899191442186"><ele>255.0</ele><time>2026-05-01T15:17:55.002Z</time></trkpt><trkpt lat="44.793301103721596" lon="9.806808244419283"><ele>255.0</ele><time>2026-05-01T15:17:57.002Z</time></trkpt><trkpt lat="44.79327238580059" lon="9.806707118160183"><ele>255.0</ele><time>2026-05-01T15:17:59.002Z</time></trkpt><trkpt lat="44.793245533127305" lon="9.806572860160337"><ele>255.0</ele><time>2026-05-01T15:18:02.002Z</time></trkpt><trkpt lat="44.79306086378641" lon="9.807153812687972"><ele>255.0</ele><time>2026-05-01T15:19:38.001Z</time></trkpt><trkpt lat="44.793102700476965" lon="9.807220668283568"><ele>255.0</ele><time>2026-05-01T15:19:42.001Z</time></trkpt><trkpt lat="44.79312796767462" lon="9.807309492673912"><ele>255.0</ele><time>2026-05-01T15:19:46.001Z</time></trkpt><trkpt lat="44.79316385132506" lon="9.80742122791334"><ele>255.0</ele><time>2026-05-01T15:19:51.001Z</time></trkpt><trkpt lat="44.79325134017578" lon="9.807470660988345"><ele>255.0</ele><time>2026-05-01T15:19:54.001Z</time></trkpt><trkpt lat="44.793314340445924" lon="9.807550709468961"><ele>255.0</ele><time>2026-05-01T15:19:58.001Z</time></trkpt><trkpt lat="44.79336733757537" lon="9.8076161004784"><ele>254.83333333333334</ele><time>2026-05-01T15:20:01.001Z</time></trkpt><trkpt lat="44.79342249794946" lon="9.807663042242165"><ele>254.66666666666669</ele><time>2026-05-01T15:20:03.002Z</time></trkpt><trkpt lat="44.79348220579534" lon="9.80777720527253"><ele>254.5</ele><time>2026-05-01T15:20:06.002Z</time></trkpt><trkpt lat="44.79352531454939" lon="9.80785590326588"><ele>254.33333333333334</ele><time>2026-05-01T15:20:08.002Z</time></trkpt><trkpt lat="44.79357426607728" lon="9.807927869195678"><ele>254.16666666666669</ele><time>2026-05-01T15:20:11.002Z</time></trkpt><trkpt lat="44.79363997313577" lon="9.807998925778099"><ele>254.0</ele><time>2026-05-01T15:20:14.002Z</time></trkpt><trkpt lat="44.79367802432103" lon="9.808072988953779"><ele>253.71428571428572</ele><time>2026-05-01T15:20:18.002Z</time></trkpt><trkpt lat="44.79371449678417" lon="9.808147937342305"><ele>253.42857142857142</ele><time>2026-05-01T15:20:21.002Z</time></trkpt><trkpt lat="44.79377698211922" lon="9.808168468233072"><ele>253.14285714285714</ele><time>2026-05-01T15:20:24.002Z</time></trkpt><trkpt lat="44.79385405761206" lon="9.808233794738253"><ele>252.85714285714286</ele><time>2026-05-01T15:20:32Z</time></trkpt><trkpt lat="44.79391877064043" lon="9.80827792823987"><ele>252.57142857142856</ele><time>2026-05-01T15:20:35Z</time></trkpt><trkpt lat="44.79398306062187" lon="9.808317472877283"><ele>252.28571428571428</ele><time>2026-05-01T15:20:38Z</time></trkpt><trkpt lat="44.794056046518804" lon="9.808285226017924"><ele>252.0</ele><time>2026-05-01T15:20:41Z</time></trkpt><trkpt lat="44.79411717218539" lon="9.808311057855803"><ele>252.0</ele><time>2026-05-01T15:20:44Z</time></trkpt><trkpt lat="44.79417368555222" lon="9.808369773712785"><ele>252.0</ele><time>2026-05-01T15:20:48Z</time></trkpt><trkpt lat="44.794225469453394" lon="9.808442329907756"><ele>252.0</ele><time>2026-05-01T15:20:51Z</time></trkpt><trkpt lat="44.794297528356154" lon="9.808531328401427"><ele>252.0</ele><time>2026-05-01T15:21:20.001Z</time></trkpt><trkpt lat="44.794365378002624" lon="9.808470660275217"><ele>252.0</ele><time>2026-05-01T15:21:23.001Z</time></trkpt><trkpt lat="44.794424291647225" lon="9.808421658819315"><ele>252.0</ele><time>2026-05-01T15:21:25.001Z</time></trkpt><trkpt lat="44.79449523892256" lon="9.80838181423003"><ele>252.16666666666666</ele><time>2026-05-01T15:21:27.001Z</time></trkpt><trkpt lat="44.79457469937448" lon="9.808439371142617"><ele>252.33333333333331</ele><time>2026-05-01T15:22:18.002Z</time></trkpt><trkpt lat="44.79467066466928" lon="9.808521543766123"><ele>252.5</ele><time>2026-05-01T15:22:20.002Z</time></trkpt><trkpt lat="44.79474102910126" lon="9.808588676351336"><ele>252.66666666666666</ele><time>2026-05-01T15:22:22.002Z</time></trkpt><trkpt lat="44.79475266112417" lon="9.808685768038355"><ele>252.83333333333331</ele><time>2026-05-01T15:22:24.002Z</time></trkpt><trkpt lat="44.79474907702531" lon="9.80878033423867"><ele>253.0</ele><time>2026-05-01T15:22:26.002Z</time></trkpt><trkpt lat="44.794738818901855" lon="9.808899023958316"><ele>252.49999999999997</ele><time>2026-05-01T15:22:29.002Z</time></trkpt><trkpt lat="44.79474431853202" lon="9.809027713308831"><ele>252.0</ele><time>2026-05-01T15:22:32.002Z</time></trkpt><trkpt lat="44.79475549882893" lon="9.809137782115483"><ele>251.5</ele><time>2026-05-01T15:22:35Z</time></trkpt><trkpt lat="44.79472916771969" lon="9.809236646339116"><ele>251.0</ele><time>2026-05-01T15:24:09.002Z</time></trkpt><trkpt lat="44.79472238872163" lon="9.809343656179774"><ele>250.49999999999997</ele><time>2026-05-01T15:24:16.002Z</time></trkpt><trkpt lat="44.794718234855196" lon="9.809432517270832"><ele>250.0</ele><time>2026-05-01T15:24:24.002Z</time></trkpt><trkpt lat="44.79468848492088" lon="9.809546857097526"><ele>249.85714285714283</ele><time>2026-05-01T15:24:28.002Z</time></trkpt><trkpt lat="44.79466644998602" lon="9.809639433586176"><ele>249.71428571428572</ele><time>2026-05-01T15:24:31.002Z</time></trkpt><trkpt lat="44.79464641011984" lon="9.809763368292863"><ele>249.57142857142856</ele><time>2026-05-01T15:26:22.002Z</time></trkpt><trkpt lat="44.79462582362164" lon="9.809861123436734"><ele>249.42857142857142</ele><time>2026-05-01T15:26:23.002Z</time></trkpt><trkpt lat="44.794598875799466" lon="9.809953025279501"><ele>249.28571428571428</ele><time>2026-05-01T15:26:24.002Z</time></trkpt><trkpt lat="44.794573348580954" lon="9.81005612236066"><ele>249.14285714285714</ele><time>2026-05-01T15:26:25.002Z</time></trkpt><trkpt lat="44.79456702729702" lon="9.810147718140472"><ele>249.0</ele><time>2026-05-01T15:26:26.002Z</time></trkpt><trkpt lat="44.79454623679879" lon="9.810298528745445"><ele>249.0</ele><time>2026-05-01T15:26:28.002Z</time></trkpt><trkpt lat="44.79453305138278" lon="9.810395825145902"><ele>249.0</ele><time>2026-05-01T15:26:30.002Z</time></trkpt><trkpt lat="44.79450119220274" lon="9.810474749422378"><ele>249.0</ele><time>2026-05-01T15:26:33.002Z</time></trkpt><trkpt lat="44.794515718363144" lon="9.810567091486902"><ele>249.0</ele><time>2026-05-01T15:26:38.002Z</time></trkpt><trkpt lat="44.79454109355492" lon="9.810691128451815"><ele>249.0</ele><time>2026-05-01T15:26:40.002Z</time></trkpt><trkpt lat="44.79458398643338" lon="9.810842611605272"><ele>249.0</ele><time>2026-05-01T15:26:42.002Z</time></trkpt><trkpt lat="44.794651089479636" lon="9.810952757560914"><ele>249.75</ele><time>2026-05-01T15:26:43.002Z</time></trkpt><trkpt lat="44.79473575426572" lon="9.811074283063602"><ele>250.5</ele><time>2026-05-01T15:26:44.002Z</time></trkpt><trkpt lat="44.794836192466754" lon="9.811197668241354"><ele>251.25</ele><time>2026-05-01T15:26:45.002Z</time></trkpt><trkpt lat="44.79493860962607" lon="9.811314273966778"><ele>252.0</ele><time>2026-05-01T15:26:46Z</time></trkpt><trkpt lat="44.79504273318927" lon="9.811438666764383"><ele>252.0</ele><time>2026-05-01T15:26:47Z</time></trkpt><trkpt lat="44.79515095404037" lon="9.81157000882168"><ele>252.0</ele><time>2026-05-01T15:26:48Z</time></trkpt><trkpt lat="44.79526941953836" lon="9.811708527246804"><ele>252.0</ele><time>2026-05-01T15:26:49Z</time></trkpt><trkpt lat="44.79539533356238" lon="9.811854337201703"><ele>251.66666666666669</ele><time>2026-05-01T15:26:50Z</time></trkpt><trkpt lat="44.79552964676512" lon="9.812010913562933"><ele>251.33333333333334</ele><time>2026-05-01T15:26:51Z</time></trkpt><trkpt lat="44.79566481090537" lon="9.812171313739695"><ele>251.0</ele><time>2026-05-01T15:26:52Z</time></trkpt><trkpt lat="44.79580144398609" lon="9.812333812665992"><ele>251.0</ele><time>2026-05-01T15:26:53Z</time></trkpt><trkpt lat="44.79593204714798" lon="9.812484837084469"><ele>251.0</ele><time>2026-05-01T15:26:54Z</time></trkpt><trkpt lat="44.796058035994264" lon="9.812604849326368"><ele>251.0</ele><time>2026-05-01T15:26:55Z</time></trkpt><trkpt lat="44.796195828899286" lon="9.812709377362854"><ele>250.0</ele><time>2026-05-01T15:26:56Z</time></trkpt><trkpt lat="44.796342594794574" lon="9.812817571865812"><ele>249.0</ele><time>2026-05-01T15:26:57Z</time></trkpt><trkpt lat="44.79649487323201" lon="9.812928721624132"><ele>248.0</ele><time>2026-05-01T15:26:58Z</time></trkpt><trkpt lat="44.796650379313434" lon="9.813040268769921"><ele>248.0</ele><time>2026-05-01T15:26:59Z</time></trkpt><trkpt lat="44.79680386547549" lon="9.813151939584237"><ele>248.0</ele><time>2026-05-01T15:27:00Z</time></trkpt><trkpt lat="44.796968216016985" lon="9.813274257843505"><ele>248.0</ele><time>2026-05-01T15:27:01Z</time></trkpt><trkpt lat="44.797130298648696" lon="9.813393767710238"><ele>248.0</ele><time>2026-05-01T15:27:02Z</time></trkpt><trkpt lat="44.797290472881535" lon="9.81350653863876"><ele>248.0</ele><time>2026-05-01T15:27:03Z</time></trkpt><trkpt lat="44.79745315156291" lon="9.813621881247009"><ele>248.0</ele><time>2026-05-01T15:27:04Z</time></trkpt><trkpt lat="44.79762751641796" lon="9.813750138888805"><ele>246.0</ele><time>2026-05-01T15:27:05Z</time></trkpt><trkpt lat="44.79779659861801" lon="9.813869973301003"><ele>244.0</ele><time>2026-05-01T15:27:06Z</time></trkpt><trkpt lat="44.79796992146667" lon="9.813996758311626"><ele>242.0</ele><time>2026-05-01T15:27:07Z</time></trkpt><trkpt lat="44.79814319703819" lon="9.814124497204745"><ele>242.0</ele><time>2026-05-01T15:27:08Z</time></trkpt><trkpt lat="44.79831889042113" lon="9.814251790340172"><ele>242.0</ele><time>2026-05-01T15:27:09Z</time></trkpt><trkpt lat="44.798500725414506" lon="9.814382731335462"><ele>242.0</ele><time>2026-05-01T15:27:10Z</time></trkpt><trkpt lat="44.79868574608876" lon="9.814517471090344"><ele>242.33333333333334</ele><time>2026-05-01T15:27:11Z</time></trkpt><trkpt lat="44.79886243580886" lon="9.81464305569286"><ele>242.66666666666669</ele><time>2026-05-01T15:27:12Z</time></trkpt><trkpt lat="44.799047155183025" lon="9.81477828013979"><ele>243.0</ele><time>2026-05-01T15:27:13Z</time></trkpt><trkpt lat="44.799233727362065" lon="9.814913509456819"><ele>243.0</ele><time>2026-05-01T15:27:14Z</time></trkpt><trkpt lat="44.799417193311506" lon="9.81503750869152"><ele>243.0</ele><time>2026-05-01T15:27:15Z</time></trkpt><trkpt lat="44.799611919457725" lon="9.815175780403967"><ele>243.0</ele><time>2026-05-01T15:27:16Z</time></trkpt><trkpt lat="44.79979370758068" lon="9.815306705136036"><ele>243.0</ele><time>2026-05-01T15:27:17Z</time></trkpt><trkpt lat="44.79998730439714" lon="9.815448527134699"><ele>243.0</ele><time>2026-05-01T15:27:18Z</time></trkpt><trkpt lat="44.80018024252808" lon="9.815587321856135"><ele>243.0</ele><time>2026-05-01T15:27:19Z</time></trkpt><trkpt lat="44.80037001799705" lon="9.815722611328626"><ele>243.33333333333331</ele><time>2026-05-01T15:27:20Z</time></trkpt><trkpt lat="44.800565025088396" lon="9.815862304679646"><ele>243.66666666666666</ele><time>2026-05-01T15:27:21.001Z</time></trkpt><trkpt lat="44.80075003060108" lon="9.815994135066244"><ele>244.0</ele><time>2026-05-01T15:27:22.001Z</time></trkpt><trkpt lat="44.80090637733467" lon="9.816111163899432"><ele>242.25</ele><time>2026-05-01T15:27:23.001Z</time></trkpt><trkpt lat="44.801038840268994" lon="9.816209619692302"><ele>240.5</ele><time>2026-05-01T15:27:24.001Z</time></trkpt><trkpt lat="44.801140545383745" lon="9.816286497826573"><ele>238.75</ele><time>2026-05-01T15:27:25.001Z</time></trkpt><trkpt lat="44.80120778236508" lon="9.816339596133691"><ele>237.0</ele><time>2026-05-01T15:27:26.001Z</time></trkpt><trkpt lat="44.80111725459425" lon="9.816448948318838"><ele>237.0</ele><time>2026-05-01T15:27:32.001Z</time></trkpt><trkpt lat="44.80105751976573" lon="9.816506480980015"><ele>237.0</ele><time>2026-05-01T15:27:33.001Z</time></trkpt><trkpt lat="44.80098269571972" lon="9.816579523371919"><ele>237.0</ele><time>2026-05-01T15:27:34.001Z</time></trkpt><trkpt lat="44.80091493589382" lon="9.816684477111918"><ele>237.0</ele><time>2026-05-01T15:27:35.001Z</time></trkpt><trkpt lat="44.800827853893296" lon="9.816779215642667"><ele>237.0</ele><time>2026-05-01T15:27:36.001Z</time></trkpt><trkpt lat="44.800739141070665" lon="9.816888274845796"><ele>239.6</ele><time>2026-05-01T15:27:37.001Z</time></trkpt><trkpt lat="44.800633061751164" lon="9.816950670228868"><ele>242.2</ele><time>2026-05-01T15:27:38.001Z</time></trkpt><trkpt lat="44.800540653584726" lon="9.816978267093425"><ele>244.8</ele><time>2026-05-01T15:27:39.001Z</time></trkpt><trkpt lat="44.80043084926702" lon="9.816989401354293"><ele>247.4</ele><time>2026-05-01T15:27:40.001Z</time></trkpt><trkpt lat="44.80030347233538" lon="9.817020496602453"><ele>250.0</ele><time>2026-05-01T15:27:41.001Z</time></trkpt><trkpt lat="44.80021975128526" lon="9.817064247826615"><ele>251.8</ele><time>2026-05-01T15:27:42.001Z</time></trkpt><trkpt lat="44.80015687525661" lon="9.817177937087457"><ele>253.6</ele><time>2026-05-01T15:27:43.001Z</time></trkpt><trkpt lat="44.800096406962986" lon="9.817282374101417"><ele>255.39999999999998</ele><time>2026-05-01T15:27:44.001Z</time></trkpt><trkpt lat="44.80001032465067" lon="9.817398652671402"><ele>257.2</ele><time>2026-05-01T15:27:45.001Z</time></trkpt><trkpt lat="44.79990531979041" lon="9.817496530084268"><ele>259.0</ele><time>2026-05-01T15:27:46.001Z</time></trkpt><trkpt lat="44.79978727656772" lon="9.817632437521098"><ele>261.25</ele><time>2026-05-01T15:27:47.001Z</time></trkpt><trkpt lat="44.79967525448775" lon="9.817762343110054"><ele>263.5</ele><time>2026-05-01T15:27:48.001Z</time></trkpt><trkpt lat="44.799575066908865" lon="9.817899395835722"><ele>265.75</ele><time>2026-05-01T15:27:49.001Z</time></trkpt><trkpt lat="44.79948294823692" lon="9.818038985025794"><ele>268.0</ele><time>2026-05-01T15:27:50.001Z</time></trkpt><trkpt lat="44.799388746492745" lon="9.818140299538321"><ele>269.8</ele><time>2026-05-01T15:27:51.001Z</time></trkpt><trkpt lat="44.79932009574536" lon="9.818182921973301"><ele>271.6</ele><time>2026-05-01T15:27:52.001Z</time></trkpt><trkpt lat="44.79925056472486" lon="9.818097319057397"><ele>273.4</ele><time>2026-05-01T15:27:54.001Z</time></trkpt><trkpt lat="44.799176524559805" lon="9.818037572515088"><ele>275.2</ele><time>2026-05-01T15:27:55.001Z</time></trkpt><trkpt lat="44.79908573499487" lon="9.817953077012513"><ele>277.0</ele><time>2026-05-01T15:27:56.001Z</time></trkpt><trkpt lat="44.79901179712954" lon="9.817880770948518"><ele>277.0</ele><time>2026-05-01T15:27:57.001Z</time></trkpt><trkpt lat="44.79895727039612" lon="9.81783129385533"><ele>277.0</ele><time>2026-05-01T15:27:58.001Z</time></trkpt><trkpt lat="44.79890204890351" lon="9.817781186614491"><ele>277.0</ele><time>2026-05-01T15:28:00.001Z</time></trkpt><trkpt lat="44.798798805931916" lon="9.817960213028913"><ele>277.0</ele><time>2026-05-01T15:28:02.001Z</time></trkpt><trkpt lat="44.79874271513779" lon="9.818069971248859"><ele>277.0</ele><time>2026-05-01T15:28:03.001Z</time></trkpt><trkpt lat="44.79867115135216" lon="9.81816976453437"><ele>277.0</ele><time>2026-05-01T15:28:04.001Z</time></trkpt><trkpt lat="44.79860139915939" lon="9.818264898242004"><ele>277.0</ele><time>2026-05-01T15:28:05.001Z</time></trkpt><trkpt lat="44.79852537463251" lon="9.818342100623536"><ele>277.0</ele><time>2026-05-01T15:28:06.001Z</time></trkpt><trkpt lat="44.79844033485597" lon="9.818310295700213"><ele>277.0</ele><time>2026-05-01T15:28:07.001Z</time></trkpt><trkpt lat="44.798325694694825" lon="9.818357002663804"><ele>277.0</ele><time>2026-05-01T15:28:08.001Z</time></trkpt><trkpt lat="44.79818220336558" lon="9.818373847837352"><ele>279.0</ele><time>2026-05-01T15:28:09.001Z</time></trkpt><trkpt lat="44.79808350272541" lon="9.818411834798523"><ele>281.0</ele><time>2026-05-01T15:28:10.001Z</time></trkpt><trkpt lat="44.79800656250422" lon="9.818427169781998"><ele>283.0</ele><time>2026-05-01T15:28:11.001Z</time></trkpt><trkpt lat="44.797898607244406" lon="9.818450546950663"><ele>285.0</ele><time>2026-05-01T15:28:12.001Z</time></trkpt><trkpt lat="44.79778237810795" lon="9.818481347133496"><ele>287.0</ele><time>2026-05-01T15:28:13.001Z</time></trkpt><trkpt lat="44.797684655135804" lon="9.8185073301182"><ele>290.0</ele><time>2026-05-01T15:28:14.001Z</time></trkpt><trkpt lat="44.79760853138876" lon="9.818570170984229"><ele>293.0</ele><time>2026-05-01T15:28:15.001Z</time></trkpt><trkpt lat="44.79755449178945" lon="9.818624161035908"><ele>296.0</ele><time>2026-05-01T15:28:16.001Z</time></trkpt><trkpt lat="44.797533382494" lon="9.818730422134408"><ele>299.0</ele><time>2026-05-01T15:28:18.001Z</time></trkpt><trkpt lat="44.79757736929502" lon="9.81884372363854"><ele>302.0</ele><time>2026-05-01T15:28:20.001Z</time></trkpt><trkpt lat="44.797601608746504" lon="9.818947765757756"><ele>305.0</ele><time>2026-05-01T15:28:21.001Z</time></trkpt><trkpt lat="44.79764674963118" lon="9.81906889252489"><ele>304.6</ele><time>2026-05-01T15:28:22.001Z</time></trkpt><trkpt lat="44.79768277412685" lon="9.819206055263745"><ele>304.2</ele><time>2026-05-01T15:28:23.001Z</time></trkpt><trkpt lat="44.79769802038323" lon="9.819342674121447"><ele>303.8</ele><time>2026-05-01T15:28:24.001Z</time></trkpt><trkpt lat="44.79767524935992" lon="9.819482608705092"><ele>303.4</ele><time>2026-05-01T15:28:26.001Z</time></trkpt><trkpt lat="44.79764433270471" lon="9.819624225064441"><ele>303.0</ele><time>2026-05-01T15:28:27.001Z</time></trkpt><trkpt lat="44.797623125302586" lon="9.819785527266074"><ele>305.1666666666667</ele><time>2026-05-01T15:28:28.002Z</time></trkpt><trkpt lat="44.797594856002576" lon="9.81990228813014"><ele>307.3333333333333</ele><time>2026-05-01T15:28:29.002Z</time></trkpt><trkpt lat="44.797564127638466" lon="9.820026503785334"><ele>309.5</ele><time>2026-05-01T15:28:30.002Z</time></trkpt><trkpt lat="44.797557426083095" lon="9.820145413694727"><ele>311.66666666666663</ele><time>2026-05-01T15:28:31.002Z</time></trkpt><trkpt lat="44.79756242074112" lon="9.820268843615743"><ele>313.8333333333333</ele><time>2026-05-01T15:28:32.002Z</time></trkpt><trkpt lat="44.79751440144945" lon="9.820354324481864"><ele>316.0</ele><time>2026-05-01T15:28:34.002Z</time></trkpt><trkpt lat="44.79741540177419" lon="9.82034773495487"><ele>317.8333333333333</ele><time>2026-05-01T15:28:36.002Z</time></trkpt><trkpt lat="44.79730361622179" lon="9.820323689643335"><ele>319.66666666666663</ele><time>2026-05-01T15:28:38.002Z</time></trkpt><trkpt lat="44.79723953658972" lon="9.820319885875357"><ele>321.5</ele><time>2026-05-01T15:28:39.002Z</time></trkpt><trkpt lat="44.797160672188085" lon="9.82033784554447"><ele>323.3333333333333</ele><time>2026-05-01T15:28:40.002Z</time></trkpt><trkpt lat="44.79709222630689" lon="9.820353247938932"><ele>325.1666666666667</ele><time>2026-05-01T15:28:41.002Z</time></trkpt><trkpt lat="44.79700228923678" lon="9.82033488536118"><ele>327.0</ele><time>2026-05-01T15:28:42.002Z</time></trkpt><trkpt lat="44.79690384551772" lon="9.820348817618507"><ele>327.0</ele><time>2026-05-01T15:28:43.002Z</time></trkpt><trkpt lat="44.79682718042609" lon="9.820384889798584"><ele>327.0</ele><time>2026-05-01T15:28:44.002Z</time></trkpt><trkpt lat="44.79676138109158" lon="9.820461488451928"><ele>327.0</ele><time>2026-05-01T15:28:46.002Z</time></trkpt><trkpt lat="44.79677593723804" lon="9.820613039319252"><ele>327.0</ele><time>2026-05-01T15:28:48.002Z</time></trkpt><trkpt lat="44.796815333454695" lon="9.82070104712453"><ele>327.0</ele><time>2026-05-01T15:28:49.002Z</time></trkpt><trkpt lat="44.79686242201199" lon="9.820787523610516"><ele>327.0</ele><time>2026-05-01T15:28:50.002Z</time></trkpt><trkpt lat="44.79688599673165" lon="9.820879186904639"><ele>327.0</ele><time>2026-05-01T15:28:51.002Z</time></trkpt><trkpt lat="44.796868594581795" lon="9.820981577234706"><ele>327.0</ele><time>2026-05-01T15:28:52.999Z</time></trkpt><trkpt lat="44.79678116635086" lon="9.821042314502417"><ele>327.0</ele><time>2026-05-01T15:28:54.999Z</time></trkpt><trkpt lat="44.796673743888554" lon="9.821117354521265"><ele>327.0</ele><time>2026-05-01T15:28:57Z</time></trkpt><trkpt lat="44.796611297283754" lon="9.821140703460005"><ele>327.0</ele><time>2026-05-01T15:28:58Z</time></trkpt><trkpt lat="44.79650900429436" lon="9.821159367116662"><ele>331.8333333333333</ele><time>2026-05-01T15:29:00Z</time></trkpt><trkpt lat="44.79640521379649" lon="9.821159095611918"><ele>336.6666666666667</ele><time>2026-05-01T15:29:02Z</time></trkpt><trkpt lat="44.796335395588265" lon="9.821134680109209"><ele>341.5</ele><time>2026-05-01T15:29:03Z</time></trkpt><trkpt lat="44.796278005064906" lon="9.821087679216067"><ele>346.33333333333337</ele><time>2026-05-01T15:29:04Z</time></trkpt><trkpt lat="44.796211837915585" lon="9.821052387498625"><ele>351.1666666666667</ele><time>2026-05-01T15:29:05Z</time></trkpt><trkpt lat="44.796138706315816" lon="9.82103019464409"><ele>356.0</ele><time>2026-05-01T15:29:06Z</time></trkpt><trkpt lat="44.796057384855686" lon="9.821034731302094"><ele>359.0</ele><time>2026-05-01T15:29:07Z</time></trkpt><trkpt lat="44.79598246605123" lon="9.821018088877201"><ele>362.0</ele><time>2026-05-01T15:29:08Z</time></trkpt><trkpt lat="44.795918303166914" lon="9.821019491979118"><ele>365.0</ele><time>2026-05-01T15:29:09Z</time></trkpt><trkpt lat="44.79583510309789" lon="9.82107195721481"><ele>368.0</ele><time>2026-05-01T15:29:11Z</time></trkpt><trkpt lat="44.795791835105675" lon="9.821174541255193"><ele>371.0</ele><time>2026-05-01T15:29:13Z</time></trkpt><trkpt lat="44.795730268301234" lon="9.821289882349626"><ele>374.0</ele><time>2026-05-01T15:29:15Z</time></trkpt><trkpt lat="44.79569724063247" lon="9.821391013945194"><ele>374.0</ele><time>2026-05-01T15:29:17Z</time></trkpt><trkpt lat="44.795622861998574" lon="9.821519328637136"><ele>374.0</ele><time>2026-05-01T15:29:19Z</time></trkpt><trkpt lat="44.79556591778554" lon="9.82165032380867"><ele>374.0</ele><time>2026-05-01T15:29:21Z</time></trkpt><trkpt lat="44.795512297914016" lon="9.821801290378584"><ele>374.0</ele><time>2026-05-01T15:29:23Z</time></trkpt><trkpt lat="44.795505407699245" lon="9.82192307803534"><ele>374.0</ele><time>2026-05-01T15:29:25Z</time></trkpt><trkpt lat="44.79550255668888" lon="9.822027588032373"><ele>376.0</ele><time>2026-05-01T15:29:27Z</time></trkpt><trkpt lat="44.79535396901161" lon="9.822004842591996"><ele>378.0</ele><time>2026-05-01T15:29:37Z</time></trkpt><trkpt lat="44.795277539718796" lon="9.822029294136296"><ele>380.0</ele><time>2026-05-01T15:29:38Z</time></trkpt><trkpt lat="44.79520567921998" lon="9.822088011226201"><ele>382.0</ele><time>2026-05-01T15:29:39Z</time></trkpt><trkpt lat="44.795151563784366" lon="9.822141587579228"><ele>383.99999999999994</ele><time>2026-05-01T15:29:40Z</time></trkpt><trkpt lat="44.79509589892203" lon="9.822199041422783"><ele>386.0</ele><time>2026-05-01T15:29:42Z</time></trkpt><trkpt lat="44.795020818368705" lon="9.822133348894186"><ele>387.8333333333333</ele><time>2026-05-01T15:29:44Z</time></trkpt><trkpt lat="44.794984727506616" lon="9.822058929066854"><ele>389.66666666666663</ele><time>2026-05-01T15:29:45Z</time></trkpt><trkpt lat="44.7949456096488" lon="9.82197829849278"><ele>391.5</ele><time>2026-05-01T15:29:46.001Z</time></trkpt><trkpt lat="44.79486676417628" lon="9.821845462776547"><ele>393.33333333333337</ele><time>2026-05-01T15:29:48.001Z</time></trkpt><trkpt lat="44.79478782695093" lon="9.821816422575878"><ele>395.1666666666667</ele><time>2026-05-01T15:29:49.001Z</time></trkpt><trkpt lat="44.79470311027829" lon="9.82182701943287"><ele>397.0</ele><time>2026-05-01T15:29:50.001Z</time></trkpt><trkpt lat="44.794591483626526" lon="9.82184448825777"><ele>397.0</ele><time>2026-05-01T15:29:51.001Z</time></trkpt><trkpt lat="44.79448366028416" lon="9.821851777489472"><ele>397.0</ele><time>2026-05-01T15:29:52.001Z</time></trkpt><trkpt lat="44.7943796101209" lon="9.82183047621807"><ele>397.0</ele><time>2026-05-01T15:29:53.001Z</time></trkpt><trkpt lat="44.79430091878341" lon="9.82176245937369"><ele>397.0</ele><time>2026-05-01T15:29:54.001Z</time></trkpt><trkpt lat="44.79423512912231" lon="9.821672713972925"><ele>397.0</ele><time>2026-05-01T15:29:55.001Z</time></trkpt><trkpt lat="44.79415495739443" lon="9.82161905390363"><ele>396.6</ele><time>2026-05-01T15:29:56.001Z</time></trkpt><trkpt lat="44.794055434178865" lon="9.821603147349382"><ele>396.20000000000005</ele><time>2026-05-01T15:29:57.001Z</time></trkpt><trkpt lat="44.79395219425889" lon="9.821627738123066"><ele>395.8</ele><time>2026-05-01T15:29:58.001Z</time></trkpt><trkpt lat="44.79385442136094" lon="9.821684613159816"><ele>395.4</ele><time>2026-05-01T15:29:59.001Z</time></trkpt><trkpt lat="44.793770421164375" lon="9.821766392584081"><ele>395.0</ele><time>2026-05-01T15:30:00.001Z</time></trkpt><trkpt lat="44.79369801451229" lon="9.82181169072298"><ele>394.99999999999994</ele><time>2026-05-01T15:30:01.001Z</time></trkpt><trkpt lat="44.793632695871445" lon="9.821804431978022"><ele>395.0</ele><time>2026-05-01T15:30:02.001Z</time></trkpt><trkpt lat="44.793582147111366" lon="9.821743839167453"><ele>395.0</ele><time>2026-05-01T15:30:03.001Z</time></trkpt><trkpt lat="44.79354263957421" lon="9.821638771001904"><ele>395.0</ele><time>2026-05-01T15:30:04.001Z</time></trkpt><trkpt lat="44.79350369515124" lon="9.821516986995357"><ele>394.99999999999994</ele><time>2026-05-01T15:30:05.001Z</time></trkpt><trkpt lat="44.79345927211753" lon="9.821425596490643"><ele>395.0</ele><time>2026-05-01T15:30:06.001Z</time></trkpt><trkpt lat="44.793378482866316" lon="9.821409919225584"><ele>395.99999999999994</ele><time>2026-05-01T15:30:08.001Z</time></trkpt><trkpt lat="44.793363545945816" lon="9.821531653585456"><ele>397.0</ele><time>2026-05-01T15:30:11.001Z</time></trkpt><trkpt lat="44.793364119363176" lon="9.821687442156394"><ele>398.0</ele><time>2026-05-01T15:30:13.001Z</time></trkpt><trkpt lat="44.793355909071266" lon="9.821777592515764"><ele>399.0</ele><time>2026-05-01T15:30:14.001Z</time></trkpt><trkpt lat="44.79333928535196" lon="9.82187059636325"><ele>399.99999999999994</ele><time>2026-05-01T15:30:15.001Z</time></trkpt><trkpt lat="44.79331998793386" lon="9.821965481548474"><ele>401.0</ele><time>2026-05-01T15:30:16.001Z</time></trkpt><trkpt lat="44.79330480916628" lon="9.822064008799828"><ele>402.66666666666663</ele><time>2026-05-01T15:30:17.001Z</time></trkpt><trkpt lat="44.79330723586906" lon="9.822161197110386"><ele>404.3333333333333</ele><time>2026-05-01T15:30:18.001Z</time></trkpt><trkpt lat="44.7933405166913" lon="9.822240425407106"><ele>406.0</ele><time>2026-05-01T15:30:19.001Z</time></trkpt><trkpt lat="44.79339879686769" lon="9.822296849845909"><ele>407.66666666666663</ele><time>2026-05-01T15:30:20.001Z</time></trkpt><trkpt lat="44.793489447252384" lon="9.82225140686169"><ele>409.3333333333333</ele><time>2026-05-01T15:30:21.001Z</time></trkpt><trkpt lat="44.79356537100164" lon="9.822276856352968"><ele>411.0</ele><time>2026-05-01T15:30:22.001Z</time></trkpt><trkpt lat="44.79362923789248" lon="9.822333791297348"><ele>411.20000000000005</ele><time>2026-05-01T15:30:23.001Z</time></trkpt><trkpt lat="44.79371824192202" lon="9.822375117849585"><ele>411.40000000000003</ele><time>2026-05-01T15:30:24.001Z</time></trkpt><trkpt lat="44.793802551966444" lon="9.822415209094148"><ele>411.6</ele><time>2026-05-01T15:30:25.001Z</time></trkpt><trkpt lat="44.79389672816933" lon="9.822478043643612"><ele>411.8</ele><time>2026-05-01T15:30:26.001Z</time></trkpt><trkpt lat="44.793972323669294" lon="9.822561537094847"><ele>412.0</ele><time>2026-05-01T15:30:27.001Z</time></trkpt><trkpt lat="44.794052161985825" lon="9.822661564414107"><ele>411.8</ele><time>2026-05-01T15:30:28.001Z</time></trkpt><trkpt lat="44.794138387410364" lon="9.822772630052432"><ele>411.6</ele><time>2026-05-01T15:30:29.001Z</time></trkpt><trkpt lat="44.794222612273124" lon="9.822881178119546"><ele>411.40000000000003</ele><time>2026-05-01T15:30:30.001Z</time></trkpt><trkpt lat="44.79427747974634" lon="9.823000603300958"><ele>411.20000000000005</ele><time>2026-05-01T15:30:31.001Z</time></trkpt><trkpt lat="44.7943271874584" lon="9.823111664726621"><ele>411.0</ele><time>2026-05-01T15:30:32.001Z</time></trkpt><trkpt lat="44.7943456811745" lon="9.82325223121635"><ele>411.0</ele><time>2026-05-01T15:30:33.001Z</time></trkpt><trkpt lat="44.79439243661288" lon="9.823393571664496"><ele>411.0</ele><time>2026-05-01T15:30:34.001Z</time></trkpt><trkpt lat="44.794423933409696" lon="9.823522846881918"><ele>411.0</ele><time>2026-05-01T15:30:35.001Z</time></trkpt><trkpt lat="44.79449103196838" lon="9.823621838631379"><ele>411.0</ele><time>2026-05-01T15:30:36.001Z</time></trkpt><trkpt lat="44.79457780945614" lon="9.823687529635052"><ele>411.0</ele><time>2026-05-01T15:30:37.001Z</time></trkpt><trkpt lat="44.79467400701799" lon="9.823748656717898"><ele>413.4</ele><time>2026-05-01T15:30:38.001Z</time></trkpt><trkpt lat="44.794764239556805" lon="9.823809430808145"><ele>415.8</ele><time>2026-05-01T15:30:39.001Z</time></trkpt><trkpt lat="44.79484110224896" lon="9.823888147762657"><ele>418.2</ele><time>2026-05-01T15:30:40.001Z</time></trkpt><trkpt lat="44.794904611521304" lon="9.823986401565532"><ele>420.59999999999997</ele><time>2026-05-01T15:30:41.001Z</time></trkpt><trkpt lat="44.79495814323597" lon="9.82409488441941"><ele>423.0</ele><time>2026-05-01T15:30:42.001Z</time></trkpt><trkpt lat="44.79502186640706" lon="9.824210689215413"><ele>420.25</ele><time>2026-05-01T15:30:43.002Z</time></trkpt><trkpt lat="44.79508837943251" lon="9.824339744561545"><ele>417.5</ele><time>2026-05-01T15:30:44.002Z</time></trkpt><trkpt lat="44.79513435502371" lon="9.824478585353221"><ele>414.75</ele><time>2026-05-01T15:30:45.002Z</time></trkpt><trkpt lat="44.79518089712844" lon="9.824613851976302"><ele>412.0</ele><time>2026-05-01T15:30:46.002Z</time></trkpt><trkpt lat="44.79523220891509" lon="9.824773118456777"><ele>412.0</ele><time>2026-05-01T15:30:47.002Z</time></trkpt><trkpt lat="44.79530079047033" lon="9.824927977058671"><ele>412.0</ele><time>2026-05-01T15:30:48.002Z</time></trkpt><trkpt lat="44.79536620505089" lon="9.825091326395743"><ele>412.0</ele><time>2026-05-01T15:30:49.002Z</time></trkpt><trkpt lat="44.795451179671474" lon="9.825266913098334"><ele>412.0</ele><time>2026-05-01T15:30:50.002Z</time></trkpt><trkpt lat="44.79554471316981" lon="9.825450408164649"><ele>416.5</ele><time>2026-05-01T15:30:51.002Z</time></trkpt><trkpt lat="44.7956415361811" lon="9.825594543868593"><ele>421.0</ele><time>2026-05-01T15:30:52.002Z</time></trkpt><trkpt lat="44.79573875604535" lon="9.825687734286795"><ele>425.5</ele><time>2026-05-01T15:30:53.002Z</time></trkpt><trkpt lat="44.79583330388954" lon="9.825762198472889"><ele>430.0</ele><time>2026-05-01T15:30:54.002Z</time></trkpt><trkpt lat="44.795904864970936" lon="9.825850383024797"><ele>429.8</ele><time>2026-05-01T15:30:55.002Z</time></trkpt><trkpt lat="44.7959281102693" lon="9.825994385711027"><ele>429.6</ele><time>2026-05-01T15:30:56.002Z</time></trkpt><trkpt lat="44.795936308884215" lon="9.826150067376645"><ele>429.4</ele><time>2026-05-01T15:30:57.002Z</time></trkpt><trkpt lat="44.79599738061016" lon="9.82628955391216"><ele>429.2</ele><time>2026-05-01T15:30:57.999Z</time></trkpt><trkpt lat="44.7960690205663" lon="9.826403958457476"><ele>429.0</ele><time>2026-05-01T15:30:58.999Z</time></trkpt><trkpt lat="44.79616625927758" lon="9.82648476132612"><ele>429.0</ele><time>2026-05-01T15:30:59.999Z</time></trkpt><trkpt lat="44.796252009145434" lon="9.82655560763953"><ele>429.0</ele><time>2026-05-01T15:31:00.999Z</time></trkpt><trkpt lat="44.79631282302884" lon="9.82665155043603"><ele>429.0</ele><time>2026-05-01T15:31:01.999Z</time></trkpt><trkpt lat="44.79636248250745" lon="9.826755493824118"><ele>429.0</ele><time>2026-05-01T15:31:02.999Z</time></trkpt><trkpt lat="44.796490339134465" lon="9.826769542292688"><ele>429.0</ele><time>2026-05-01T15:31:03.999Z</time></trkpt><trkpt lat="44.79660120618308" lon="9.82679210808537"><ele>429.0</ele><time>2026-05-01T15:31:04.999Z</time></trkpt><trkpt lat="44.796712622385655" lon="9.826796775426851"><ele>429.0</ele><time>2026-05-01T15:31:05.999Z</time></trkpt><trkpt lat="44.79682492587918" lon="9.826813542791983"><ele>429.0</ele><time>2026-05-01T15:31:06.999Z</time></trkpt><trkpt lat="44.796914833525456" lon="9.826845785040966"><ele>429.0</ele><time>2026-05-01T15:31:08Z</time></trkpt><trkpt lat="44.79699469080265" lon="9.82688912283296"><ele>429.0</ele><time>2026-05-01T15:31:09Z</time></trkpt><trkpt lat="44.797072793943265" lon="9.826966959009145"><ele>429.2</ele><time>2026-05-01T15:31:10Z</time></trkpt><trkpt lat="44.79710527617674" lon="9.827101830237275"><ele>429.4</ele><time>2026-05-01T15:31:10.999Z</time></trkpt><trkpt lat="44.79716960320957" lon="9.827213493294046"><ele>429.6</ele><time>2026-05-01T15:31:11.999Z</time></trkpt><trkpt lat="44.79721873047759" lon="9.827345427483321"><ele>429.8</ele><time>2026-05-01T15:31:13Z</time></trkpt><trkpt lat="44.79722186737987" lon="9.827495048043637"><ele>430.0</ele><time>2026-05-01T15:31:14Z</time></trkpt><trkpt lat="44.79721485440297" lon="9.82764355974697"><ele>432.25</ele><time>2026-05-01T15:31:15Z</time></trkpt><trkpt lat="44.797198098862694" lon="9.82779557198855"><ele>434.5</ele><time>2026-05-01T15:31:16Z</time></trkpt><trkpt lat="44.79717053128546" lon="9.827951113541188"><ele>436.75</ele><time>2026-05-01T15:31:17Z</time></trkpt><trkpt lat="44.79713340731996" lon="9.82810805077283"><ele>439.0</ele><time>2026-05-01T15:31:18Z</time></trkpt><trkpt lat="44.79709375271933" lon="9.828259326010231"><ele>439.0</ele><time>2026-05-01T15:31:19Z</time></trkpt><trkpt lat="44.79705348347165" lon="9.828407736879495"><ele>439.0</ele><time>2026-05-01T15:31:20Z</time></trkpt><trkpt lat="44.79701580852757" lon="9.828540672801946"><ele>439.0</ele><time>2026-05-01T15:31:21Z</time></trkpt><trkpt lat="44.79699009986041" lon="9.828646452768105"><ele>439.0</ele><time>2026-05-01T15:31:22Z</time></trkpt><trkpt lat="44.79695799705432" lon="9.828774534348636"><ele>439.0</ele><time>2026-05-01T15:31:24Z</time></trkpt><trkpt lat="44.79706297013875" lon="9.828910103062896"><ele>439.50000000000006</ele><time>2026-05-01T15:31:30Z</time></trkpt><trkpt lat="44.79713802966091" lon="9.828932645980387"><ele>440.0</ele><time>2026-05-01T15:31:31Z</time></trkpt><trkpt lat="44.79721345204502" lon="9.828962129297704"><ele>440.5</ele><time>2026-05-01T15:31:32Z</time></trkpt><trkpt lat="44.79728726825725" lon="9.828996658747299"><ele>441.0</ele><time>2026-05-01T15:31:33Z</time></trkpt><trkpt lat="44.7973670923521" lon="9.829033643110115"><ele>441.50000000000006</ele><time>2026-05-01T15:31:34Z</time></trkpt><trkpt lat="44.79744858868572" lon="9.829074256618904"><ele>442.0</ele><time>2026-05-01T15:31:35Z</time></trkpt><trkpt lat="44.79753209240053" lon="9.82911521694612"><ele>442.0</ele><time>2026-05-01T15:31:36Z</time></trkpt><trkpt lat="44.79762500797926" lon="9.829164268397099"><ele>442.00000000000006</ele><time>2026-05-01T15:31:37Z</time></trkpt><trkpt lat="44.79772031292661" lon="9.829211626901735"><ele>442.00000000000006</ele><time>2026-05-01T15:31:38Z</time></trkpt><trkpt lat="44.7978143215658" lon="9.82926045353179"><ele>442.0</ele><time>2026-05-01T15:31:39Z</time></trkpt><trkpt lat="44.797905837027805" lon="9.829298086311438"><ele>442.0</ele><time>2026-05-01T15:31:40Z</time></trkpt><trkpt lat="44.797993851058436" lon="9.829337410806746"><ele>441.00000000000006</ele><time>2026-05-01T15:31:41Z</time></trkpt><trkpt lat="44.798078051940955" lon="9.829375468205347"><ele>440.0</ele><time>2026-05-01T15:31:42Z</time></trkpt><trkpt lat="44.79815994633115" lon="9.82941130057193"><ele>439.0</ele><time>2026-05-01T15:31:43Z</time></trkpt><trkpt lat="44.79823963086937" lon="9.829451592728793"><ele>438.0</ele><time>2026-05-01T15:31:44Z</time></trkpt><trkpt lat="44.7983206976964" lon="9.8294926081668"><ele>437.00000000000006</ele><time>2026-05-01T15:31:45Z</time></trkpt><trkpt lat="44.798404702292004" lon="9.829530663370617"><ele>436.0</ele><time>2026-05-01T15:31:46Z</time></trkpt><trkpt lat="44.798490443089946" lon="9.829568638375797"><ele>436.20000000000005</ele><time>2026-05-01T15:31:47Z</time></trkpt><trkpt lat="44.7985751192088" lon="9.829610719435301"><ele>436.40000000000003</ele><time>2026-05-01T15:31:48Z</time></trkpt><trkpt lat="44.79865886567246" lon="9.829651095158702"><ele>436.6</ele><time>2026-05-01T15:31:49Z</time></trkpt><trkpt lat="44.79875429311724" lon="9.829697390746885"><ele>436.8</ele><time>2026-05-01T15:31:50Z</time></trkpt><trkpt lat="44.79884713560757" lon="9.829743893127098"><ele>437.0</ele><time>2026-05-01T15:31:51Z</time></trkpt><trkpt lat="44.79894386670526" lon="9.829798202465941"><ele>436.99999999999994</ele><time>2026-05-01T15:31:52.001Z</time></trkpt><trkpt lat="44.799073581621585" lon="9.829853013258795"><ele>437.0</ele><time>2026-05-01T15:31:54.001Z</time></trkpt><trkpt lat="44.799147308265304" lon="9.829893799288449"><ele>437.0</ele><time>2026-05-01T15:31:55.001Z</time></trkpt><trkpt lat="44.79922638118428" lon="9.829923128468051"><ele>437.0</ele><time>2026-05-01T15:31:56.001Z</time></trkpt><trkpt lat="44.79929217740793" lon="9.829956045937308"><ele>436.99999999999994</ele><time>2026-05-01T15:31:57.001Z</time></trkpt><trkpt lat="44.79935644191889" lon="9.829988517644972"><ele>437.0</ele><time>2026-05-01T15:31:58.001Z</time></trkpt><trkpt lat="44.79941415875914" lon="9.83003272658972"><ele>437.16666666666663</ele><time>2026-05-01T15:31:59.001Z</time></trkpt><trkpt lat="44.79946998446186" lon="9.830078782685245"><ele>437.3333333333333</ele><time>2026-05-01T15:32:00.001Z</time></trkpt><trkpt lat="44.79952440550937" lon="9.83023195385318"><ele>437.5</ele><time>2026-05-01T15:32:02.001Z</time></trkpt><trkpt lat="44.799475205382166" lon="9.830330815472996"><ele>437.66666666666663</ele><time>2026-05-01T15:32:03.001Z</time></trkpt><trkpt lat="44.79947290819033" lon="9.830443230316407"><ele>437.8333333333333</ele><time>2026-05-01T15:32:04.001Z</time></trkpt><trkpt lat="44.79943822328597" lon="9.830540674093285"><ele>438.0</ele><time>2026-05-01T15:32:05.001Z</time></trkpt><trkpt lat="44.79942117250171" lon="9.83064113665324"><ele>435.6666666666667</ele><time>2026-05-01T15:32:06.001Z</time></trkpt><trkpt lat="44.799404937526106" lon="9.83073945802881"><ele>433.33333333333337</ele><time>2026-05-01T15:32:07.001Z</time></trkpt><trkpt lat="44.799393571879875" lon="9.830828862237754"><ele>431.0</ele><time>2026-05-01T15:32:08.001Z</time></trkpt><trkpt lat="44.799381545732984" lon="9.830920559058812"><ele>428.6666666666667</ele><time>2026-05-01T15:32:09.001Z</time></trkpt><trkpt lat="44.79937126373774" lon="9.83101601602083"><ele>426.33333333333337</ele><time>2026-05-01T15:32:10.001Z</time></trkpt><trkpt lat="44.799376341415346" lon="9.831173337234038"><ele>424.0</ele><time>2026-05-01T15:32:12.001Z</time></trkpt><trkpt lat="44.79939898548951" lon="9.831290057764443"><ele>424.0</ele><time>2026-05-01T15:32:14.001Z</time></trkpt><trkpt lat="44.7993215042954" lon="9.831334081320849"><ele>424.0</ele><time>2026-05-01T15:32:15.001Z</time></trkpt><trkpt lat="44.79926120102172" lon="9.831481227719026"><ele>424.0</ele><time>2026-05-01T15:32:17.001Z</time></trkpt><trkpt lat="44.7992146327717" lon="9.831639290966383"><ele>424.0</ele><time>2026-05-01T15:32:19.001Z</time></trkpt><trkpt lat="44.79920318510035" lon="9.83173160068392"><ele>424.0</ele><time>2026-05-01T15:32:20.001Z</time></trkpt><trkpt lat="44.79921789048949" lon="9.831821533269297"><ele>422.50000000000006</ele><time>2026-05-01T15:32:21.001Z</time></trkpt><trkpt lat="44.79923632323637" lon="9.831907025682595"><ele>421.0</ele><time>2026-05-01T15:32:22.001Z</time></trkpt><trkpt lat="44.79928943261751" lon="9.832055127157776"><ele>419.5</ele><time>2026-05-01T15:32:24.001Z</time></trkpt><trkpt lat="44.79932933961561" lon="9.832131877614225"><ele>418.0</ele><time>2026-05-01T15:32:25.001Z</time></trkpt><trkpt lat="44.7993639507031" lon="9.832209533145477"><ele>416.50000000000006</ele><time>2026-05-01T15:32:26.001Z</time></trkpt><trkpt lat="44.79939700459552" lon="9.832301784317167"><ele>415.0</ele><time>2026-05-01T15:32:27.001Z</time></trkpt><trkpt lat="44.7994291277346" lon="9.832411637125084"><ele>414.1666666666667</ele><time>2026-05-01T15:32:28.001Z</time></trkpt><trkpt lat="44.799464270677746" lon="9.832503347337552"><ele>413.33333333333337</ele><time>2026-05-01T15:32:29.001Z</time></trkpt><trkpt lat="44.799480505682986" lon="9.832609554840946"><ele>412.5</ele><time>2026-05-01T15:32:30.001Z</time></trkpt><trkpt lat="44.79949852600876" lon="9.832704934058622"><ele>411.66666666666663</ele><time>2026-05-01T15:32:31.001Z</time></trkpt><trkpt lat="44.79952017802921" lon="9.832798137611954"><ele>410.8333333333333</ele><time>2026-05-01T15:32:32.001Z</time></trkpt><trkpt lat="44.799546376479185" lon="9.832891032480603"><ele>410.0</ele><time>2026-05-01T15:32:33.001Z</time></trkpt><trkpt lat="44.79959275830512" lon="9.833043415778965"><ele>407.3333333333333</ele><time>2026-05-01T15:32:35.001Z</time></trkpt><trkpt lat="44.799602560384" lon="9.833133319807262"><ele>404.66666666666663</ele><time>2026-05-01T15:32:36.001Z</time></trkpt><trkpt lat="44.79964599888078" lon="9.83321531468483"><ele>402.0</ele><time>2026-05-01T15:32:37.001Z</time></trkpt><trkpt lat="44.79963120721164" lon="9.833344101321575"><ele>399.33333333333337</ele><time>2026-05-01T15:32:38.001Z</time></trkpt><trkpt lat="44.79964287788209" lon="9.83346474869911"><ele>396.6666666666667</ele><time>2026-05-01T15:32:39.001Z</time></trkpt><trkpt lat="44.799663791163425" lon="9.833564872353065"><ele>394.0</ele><time>2026-05-01T15:32:40.001Z</time></trkpt><trkpt lat="44.79967924143127" lon="9.833690991216162"><ele>392.33333333333337</ele><time>2026-05-01T15:32:41.001Z</time></trkpt><trkpt lat="44.79969923149892" lon="9.83381228959724"><ele>390.6666666666667</ele><time>2026-05-01T15:32:42.001Z</time></trkpt><trkpt lat="44.79971809176557" lon="9.833931079030414"><ele>389.0</ele><time>2026-05-01T15:32:43.001Z</time></trkpt><trkpt lat="44.79974022674348" lon="9.83401800208926"><ele>387.33333333333337</ele><time>2026-05-01T15:32:44.002Z</time></trkpt><trkpt lat="44.79975045583745" lon="9.834113500735974"><ele>385.6666666666667</ele><time>2026-05-01T15:32:45.002Z</time></trkpt><trkpt lat="44.79975971017376" lon="9.834277773368004"><ele>384.0</ele><time>2026-05-01T15:32:47.002Z</time></trkpt><trkpt lat="44.79974512485062" lon="9.83436658217961"><ele>382.1666666666667</ele><time>2026-05-01T15:32:48.002Z</time></trkpt><trkpt lat="44.79971855284537" lon="9.834452091309602"><ele>380.3333333333333</ele><time>2026-05-01T15:32:49.002Z</time></trkpt><trkpt lat="44.79968629754415" lon="9.834550281002308"><ele>378.5</ele><time>2026-05-01T15:32:50.002Z</time></trkpt><trkpt lat="44.7996561907435" lon="9.834646037829947"><ele>376.66666666666663</ele><time>2026-05-01T15:32:51.002Z</time></trkpt><trkpt lat="44.79962529537884" lon="9.834743732539717"><ele>374.8333333333333</ele><time>2026-05-01T15:32:52.002Z</time></trkpt><trkpt lat="44.7995795893248" lon="9.834846116965318"><ele>373.0</ele><time>2026-05-01T15:32:53.002Z</time></trkpt><trkpt lat="44.79953768299846" lon="9.834947354976036"><ele>373.0</ele><time>2026-05-01T15:32:54.002Z</time></trkpt><trkpt lat="44.79950250437265" lon="9.83505229732455"><ele>373.0</ele><time>2026-05-01T15:32:55.002Z</time></trkpt><trkpt lat="44.79947419859168" lon="9.835168918180404"><ele>373.0</ele><time>2026-05-01T15:32:56.002Z</time></trkpt><trkpt lat="44.79946975517071" lon="9.835281331260148"><ele>373.0</ele><time>2026-05-01T15:32:57.002Z</time></trkpt><trkpt lat="44.79946263796298" lon="9.835410011545754"><ele>373.0</ele><time>2026-05-01T15:32:58.002Z</time></trkpt><trkpt lat="44.799453108767125" lon="9.835535333524122"><ele>373.0</ele><time>2026-05-01T15:32:59.002Z</time></trkpt><trkpt lat="44.79944121658993" lon="9.835663952204095"><ele>370.8333333333333</ele><time>2026-05-01T15:33:00.002Z</time></trkpt><trkpt lat="44.79943405977545" lon="9.835790016334832"><ele>368.66666666666663</ele><time>2026-05-01T15:33:01.002Z</time></trkpt><trkpt lat="44.799438544658926" lon="9.83590797821523"><ele>366.5</ele><time>2026-05-01T15:33:02.002Z</time></trkpt><trkpt lat="44.79945734504397" lon="9.836023989407959"><ele>364.3333333333333</ele><time>2026-05-01T15:33:03.002Z</time></trkpt><trkpt lat="44.79948064382486" lon="9.836141733040906"><ele>362.1666666666667</ele><time>2026-05-01T15:33:03.999Z</time></trkpt><trkpt lat="44.799503452544904" lon="9.836250975813678"><ele>360.0</ele><time>2026-05-01T15:33:04.999Z</time></trkpt><trkpt lat="44.79954972181742" lon="9.836390552678301"><ele>358.4</ele><time>2026-05-01T15:33:06.999Z</time></trkpt><trkpt lat="44.79959277568603" lon="9.836510346400068"><ele>356.8</ele><time>2026-05-01T15:33:08.999Z</time></trkpt><trkpt lat="44.79964341372337" lon="9.836649003872093"><ele>355.20000000000005</ele><time>2026-05-01T15:33:10.999Z</time></trkpt><trkpt lat="44.79969376502075" lon="9.836747429480154"><ele>353.6</ele><time>2026-05-01T15:33:12.999Z</time></trkpt><trkpt lat="44.799766978168556" lon="9.836839524198915"><ele>352.0</ele><time>2026-05-01T15:33:14.999Z</time></trkpt><trkpt lat="44.79983672174815" lon="9.836872816789581"><ele>350.20000000000005</ele><time>2026-05-01T15:33:16.999Z</time></trkpt><trkpt lat="44.799911407128675" lon="9.83687012483972"><ele>348.4</ele><time>2026-05-01T15:33:19Z</time></trkpt><trkpt lat="44.799975216278355" lon="9.836865766977569"><ele>346.6</ele><time>2026-05-01T15:33:21Z</time></trkpt><trkpt lat="44.800081161076264" lon="9.836854282673375"><ele>344.79999999999995</ele><time>2026-05-01T15:33:23Z</time></trkpt><trkpt lat="44.80017331674634" lon="9.836876911984556"><ele>343.0</ele><time>2026-05-01T15:33:25Z</time></trkpt><trkpt lat="44.80028260534585" lon="9.836905922666464"><ele>343.0</ele><time>2026-05-01T15:33:27Z</time></trkpt><trkpt lat="44.80037733913632" lon="9.836892702956701"><ele>343.0</ele><time>2026-05-01T15:33:29Z</time></trkpt><trkpt lat="44.800438521872785" lon="9.836852566529172"><ele>343.0</ele><time>2026-05-01T15:33:31Z</time></trkpt><trkpt lat="44.800562081259336" lon="9.836865541749603"><ele>343.0</ele><time>2026-05-01T15:33:33Z</time></trkpt><trkpt lat="44.80063235541218" lon="9.83692132819385"><ele>343.0</ele><time>2026-05-01T15:33:34Z</time></trkpt><trkpt lat="44.80068538496671" lon="9.836989665433277"><ele>343.0</ele><time>2026-05-01T15:33:35Z</time></trkpt><trkpt lat="44.8007305600669" lon="9.83715966857111"><ele>343.0</ele><time>2026-05-01T15:33:37Z</time></trkpt><trkpt lat="44.800743191873416" lon="9.837279172464747"><ele>343.0</ele><time>2026-05-01T15:33:38Z</time></trkpt><trkpt lat="44.80077672061079" lon="9.837419371772897"><ele>343.0</ele><time>2026-05-01T15:33:39Z</time></trkpt><trkpt lat="44.80082336050167" lon="9.83755845819797"><ele>343.0</ele><time>2026-05-01T15:33:40Z</time></trkpt><trkpt lat="44.800874770559965" lon="9.837679554546684"><ele>343.0</ele><time>2026-05-01T15:33:41Z</time></trkpt><trkpt lat="44.800916563551276" lon="9.837790802129465"><ele>342.8333333333333</ele><time>2026-05-01T15:33:42Z</time></trkpt><trkpt lat="44.8009440725441" lon="9.837891975696039"><ele>342.66666666666663</ele><time>2026-05-01T15:33:43Z</time></trkpt><trkpt lat="44.80097020790929" lon="9.83799527278101"><ele>342.5</ele><time>2026-05-01T15:33:44Z</time></trkpt><trkpt lat="44.80100151680712" lon="9.838076849385514"><ele>342.3333333333333</ele><time>2026-05-01T15:33:45Z</time></trkpt><trkpt lat="44.80107847645567" lon="9.838183632849047"><ele>342.1666666666667</ele><time>2026-05-01T15:33:47Z</time></trkpt><trkpt lat="44.80115202091819" lon="9.838165261210245"><ele>342.0</ele><time>2026-05-01T15:33:49Z</time></trkpt><trkpt lat="44.8012167167583" lon="9.83813158908496"><ele>342.0</ele><time>2026-05-01T15:33:50Z</time></trkpt><trkpt lat="44.80127601950048" lon="9.838077275483773"><ele>342.0</ele><time>2026-05-01T15:33:51Z</time></trkpt><trkpt lat="44.80132974267793" lon="9.838019606799225"><ele>342.0</ele><time>2026-05-01T15:33:52Z</time></trkpt><trkpt lat="44.80142954781433" lon="9.838000762598679"><ele>342.0</ele><time>2026-05-01T15:33:54Z</time></trkpt><trkpt lat="44.80149050997952" lon="9.838089427093445"><ele>342.0</ele><time>2026-05-01T15:33:56.001Z</time></trkpt><trkpt lat="44.80150929660156" lon="9.838256249673393"><ele>342.0</ele><time>2026-05-01T15:33:58.001Z</time></trkpt><trkpt lat="44.80153054150944" lon="9.838356617645358"><ele>340.8</ele><time>2026-05-01T15:33:59.001Z</time></trkpt><trkpt lat="44.80155664642331" lon="9.838473836237329"><ele>339.6</ele><time>2026-05-01T15:34:00.001Z</time></trkpt><trkpt lat="44.801589006541846" lon="9.838590444147215"><ele>338.40000000000003</ele><time>2026-05-01T15:34:01.001Z</time></trkpt><trkpt lat="44.8016443359775" lon="9.83876036584002"><ele>337.20000000000005</ele><time>2026-05-01T15:34:03.001Z</time></trkpt><trkpt lat="44.80171799788847" lon="9.838864498122255"><ele>336.0</ele><time>2026-05-01T15:34:05.001Z</time></trkpt><trkpt lat="44.801801808304425" lon="9.83896211328223"><ele>336.0</ele><time>2026-05-01T15:34:07.001Z</time></trkpt><trkpt lat="44.80186734890099" lon="9.83900418146269"><ele>336.0</ele><time>2026-05-01T15:34:09.001Z</time></trkpt><trkpt lat="44.80180858690142" lon="9.839061562385806"><ele>336.0</ele><time>2026-05-01T15:34:14.001Z</time></trkpt><trkpt lat="44.80172243221183" lon="9.839005632044381"><ele>336.0</ele><time>2026-05-01T15:34:17.001Z</time></trkpt><trkpt lat="44.801630609772516" lon="9.839072574911636"><ele>336.0</ele><time>2026-05-01T15:34:20.001Z</time></trkpt><trkpt lat="44.80158756922815" lon="9.839175101921352"><ele>336.0</ele><time>2026-05-01T15:34:22.001Z</time></trkpt><trkpt lat="44.801574505140294" lon="9.839273294896197"><ele>334.3333333333333</ele><time>2026-05-01T15:34:24.001Z</time></trkpt><trkpt lat="44.80150815815694" lon="9.839427347144115"><ele>332.6666666666667</ele><time>2026-05-01T15:34:26.001Z</time></trkpt><trkpt lat="44.80149956521977" lon="9.839516195046217"><ele>331.0</ele><time>2026-05-01T15:34:27.001Z</time></trkpt><trkpt lat="44.80149730523858" lon="9.839605306819248"><ele>329.33333333333337</ele><time>2026-05-01T15:34:28.001Z</time></trkpt><trkpt lat="44.80150472694124" lon="9.83970487758487"><ele>327.6666666666667</ele><time>2026-05-01T15:34:29.001Z</time></trkpt><trkpt lat="44.80151485094004" lon="9.839802955565103"><ele>326.0</ele><time>2026-05-01T15:34:30.001Z</time></trkpt><trkpt lat="44.80152495558497" lon="9.83989158316455"><ele>326.0</ele><time>2026-05-01T15:34:31.001Z</time></trkpt><trkpt lat="44.80153686066352" lon="9.840048729990539"><ele>326.0</ele><time>2026-05-01T15:34:33.001Z</time></trkpt><trkpt lat="44.801540336100715" lon="9.840190432209635"><ele>326.0</ele><time>2026-05-01T15:34:35.001Z</time></trkpt><trkpt lat="44.80152428699401" lon="9.840314792282363"><ele>326.0</ele><time>2026-05-01T15:34:37.001Z</time></trkpt><trkpt lat="44.80152343472211" lon="9.8404120297156"><ele>326.0</ele><time>2026-05-01T15:34:41.001Z</time></trkpt><trkpt lat="44.801535262292546" lon="9.840532977615778"><ele>324.6666666666667</ele><time>2026-05-01T15:35:19Z</time></trkpt><trkpt lat="44.80155079737787" lon="9.840657611323765"><ele>323.33333333333337</ele><time>2026-05-01T15:35:21Z</time></trkpt><trkpt lat="44.80155619127894" lon="9.840761324375087"><ele>322.0</ele><time>2026-05-01T15:35:23Z</time></trkpt><trkpt lat="44.801537237221" lon="9.840883290077095"><ele>320.6666666666667</ele><time>2026-05-01T15:35:26Z</time></trkpt><trkpt lat="44.80156213397607" lon="9.840984059304077"><ele>319.3333333333333</ele><time>2026-05-01T15:35:31Z</time></trkpt><trkpt lat="44.801630087728945" lon="9.840985786528561"><ele>318.0</ele><time>2026-05-01T15:35:33Z</time></trkpt><trkpt lat="44.80171109170357" lon="9.840990842541736"><ele>316.6</ele><time>2026-05-01T15:35:35Z</time></trkpt><trkpt lat="44.80179862675864" lon="9.840998522925625"><ele>315.20000000000005</ele><time>2026-05-01T15:35:38.001Z</time></trkpt><trkpt lat="44.80187713243749" lon="9.841034316009173"><ele>313.8</ele><time>2026-05-01T15:35:41.001Z</time></trkpt><trkpt lat="44.80185708361178" lon="9.841127945543727"><ele>312.40000000000003</ele><time>2026-05-01T15:35:43.001Z</time></trkpt><trkpt lat="44.80176472503505" lon="9.841214862675761"><ele>311.0</ele><time>2026-05-01T15:35:45.001Z</time></trkpt><trkpt lat="44.801658465370146" lon="9.841260993352199"><ele>309.83333333333337</ele><time>2026-05-01T15:35:47.001Z</time></trkpt><trkpt lat="44.801556343088066" lon="9.841301502250916"><ele>308.6666666666667</ele><time>2026-05-01T15:35:49.001Z</time></trkpt><trkpt lat="44.801468489943716" lon="9.841337037771515"><ele>307.5</ele><time>2026-05-01T15:35:51.001Z</time></trkpt><trkpt lat="44.80137981095732" lon="9.841412672885895"><ele>306.3333333333333</ele><time>2026-05-01T15:35:53.001Z</time></trkpt><trkpt lat="44.801327833410255" lon="9.841467321361462"><ele>305.16666666666663</ele><time>2026-05-01T15:35:54.001Z</time></trkpt><trkpt lat="44.80126765703634" lon="9.84154002545543"><ele>304.0</ele><time>2026-05-01T15:35:55.001Z</time></trkpt><trkpt lat="44.80119975901755" lon="9.841623063306656"><ele>304.0</ele><time>2026-05-01T15:35:56.001Z</time></trkpt><trkpt lat="44.80114533272429" lon="9.841710661134865"><ele>304.0</ele><time>2026-05-01T15:35:57.001Z</time></trkpt><trkpt lat="44.801092047402804" lon="9.841800512900459"><ele>304.0</ele><time>2026-05-01T15:35:58.001Z</time></trkpt><trkpt lat="44.80103789889457" lon="9.841885401431352"><ele>304.0</ele><time>2026-05-01T15:35:59.001Z</time></trkpt><trkpt lat="44.800991906544155" lon="9.841968805648646"><ele>304.0</ele><time>2026-05-01T15:36:00.001Z</time></trkpt><trkpt lat="44.80094346778882" lon="9.842084421326055"><ele>304.0</ele><time>2026-05-01T15:36:02.001Z</time></trkpt><trkpt lat="44.800947531195945" lon="9.842181318401218"><ele>304.3333333333333</ele><time>2026-05-01T15:36:04.001Z</time></trkpt><trkpt lat="44.80090309778211" lon="9.842255671822265"><ele>304.66666666666663</ele><time>2026-05-01T15:36:06.001Z</time></trkpt><trkpt lat="44.80083099383103" lon="9.842336640975887"><ele>305.0</ele><time>2026-05-01T15:36:09.001Z</time></trkpt><trkpt lat="44.800771233123" lon="9.842431560200271"><ele>305.3333333333333</ele><time>2026-05-01T15:36:12.001Z</time></trkpt><trkpt lat="44.80075995512781" lon="9.842531057618356"><ele>305.6666666666667</ele><time>2026-05-01T15:36:14.001Z</time></trkpt><trkpt lat="44.800672580630845" lon="9.842597953639077"><ele>306.0</ele><time>2026-05-01T15:36:17.001Z</time></trkpt><trkpt lat="44.80064257386635" lon="9.84268144445338"><ele>306.0</ele><time>2026-05-01T15:36:19.001Z</time></trkpt><trkpt lat="44.8006403103884" lon="9.842792542737131"><ele>306.0</ele><time>2026-05-01T15:36:20.001Z</time></trkpt><trkpt lat="44.80062922280353" lon="9.842894184163454"><ele>306.0</ele><time>2026-05-01T15:36:21.001Z</time></trkpt><trkpt lat="44.8006117458696" lon="9.842993369801196"><ele>306.0</ele><time>2026-05-01T15:36:22.001Z</time></trkpt><trkpt lat="44.800613613977916" lon="9.843089000036063"><ele>306.0</ele><time>2026-05-01T15:36:23.001Z</time></trkpt><trkpt lat="44.80062806064427" lon="9.843194391870705"><ele>306.0</ele><time>2026-05-01T15:36:24.001Z</time></trkpt><trkpt lat="44.80065843719008" lon="9.84335465429188"><ele>306.0</ele><time>2026-05-01T15:36:25.001Z</time></trkpt><trkpt lat="44.800678291752654" lon="9.843458868764152"><ele>306.0</ele><time>2026-05-01T15:36:26.001Z</time></trkpt><trkpt lat="44.800711242247615" lon="9.843579306446404"><ele>306.0</ele><time>2026-05-01T15:36:27.001Z</time></trkpt><trkpt lat="44.8007304011381" lon="9.843690310312672"><ele>306.0</ele><time>2026-05-01T15:36:28.001Z</time></trkpt><trkpt lat="44.80075047566179" lon="9.843825833048127"><ele>306.0</ele><time>2026-05-01T15:36:29.002Z</time></trkpt><trkpt lat="44.800790236984305" lon="9.843943031829246"><ele>306.0</ele><time>2026-05-01T15:36:30.002Z</time></trkpt><trkpt lat="44.80084756075665" lon="9.844022061503473"><ele>307.0</ele><time>2026-05-01T15:36:31.002Z</time></trkpt><trkpt lat="44.800924921007294" lon="9.844091940433737"><ele>308.0</ele><time>2026-05-01T15:36:32.002Z</time></trkpt><trkpt lat="44.80100033010769" lon="9.84415726711135"><ele>309.0</ele><time>2026-05-01T15:36:33.002Z</time></trkpt><trkpt lat="44.80109027076901" lon="9.844186361138524"><ele>310.0</ele><time>2026-05-01T15:36:34.002Z</time></trkpt><trkpt lat="44.80120528648997" lon="9.84420914058746"><ele>311.0</ele><time>2026-05-01T15:36:35.002Z</time></trkpt><trkpt lat="44.801312675254245" lon="9.844246876333074"><ele>312.40000000000003</ele><time>2026-05-01T15:36:36.002Z</time></trkpt><trkpt lat="44.80138789317398" lon="9.84432840961032"><ele>313.8</ele><time>2026-05-01T15:36:38.002Z</time></trkpt><trkpt lat="44.80139069157382" lon="9.844430385854112"><ele>315.20000000000005</ele><time>2026-05-01T15:36:40.002Z</time></trkpt><trkpt lat="44.801347395300986" lon="9.844620339607955"><ele>316.6</ele><time>2026-05-01T15:36:42.002Z</time></trkpt><trkpt lat="44.801341805482" lon="9.844712338253323"><ele>318.0</ele><time>2026-05-01T15:36:43.002Z</time></trkpt><trkpt lat="44.80136307089818" lon="9.844832742246306"><ele>318.0</ele><time>2026-05-01T15:36:44.002Z</time></trkpt><trkpt lat="44.80137215598208" lon="9.844949869918345"><ele>318.0</ele><time>2026-05-01T15:36:45.002Z</time></trkpt><trkpt lat="44.80135373962547" lon="9.845064865100735"><ele>318.0</ele><time>2026-05-01T15:36:46.002Z</time></trkpt><trkpt lat="44.8013075916941" lon="9.845175483239045"><ele>318.0</ele><time>2026-05-01T15:36:47.002Z</time></trkpt><trkpt lat="44.8012475989028" lon="9.845285281756171"><ele>318.0</ele><time>2026-05-01T15:36:48.002Z</time></trkpt><trkpt lat="44.80118681833316" lon="9.845433716855677"><ele>319.2</ele><time>2026-05-01T15:36:49.002Z</time></trkpt><trkpt lat="44.80112706863448" lon="9.845566364101627"><ele>320.4</ele><time>2026-05-01T15:36:50.002Z</time></trkpt><trkpt lat="44.80107306749633" lon="9.845615542996594"><ele>321.59999999999997</ele><time>2026-05-01T15:36:52.002Z</time></trkpt><trkpt lat="44.80096241910071" lon="9.845682705439478"><ele>322.8</ele><time>2026-05-01T15:36:54.002Z</time></trkpt><trkpt lat="44.80087522860563" lon="9.845744047717023"><ele>324.0</ele><time>2026-05-01T15:36:56.002Z</time></trkpt><trkpt lat="44.800791578482055" lon="9.84575530763667"><ele>326.4</ele><time>2026-05-01T15:37:00.002Z</time></trkpt><trkpt lat="44.80072603465318" lon="9.845743719241796"><ele>328.79999999999995</ele><time>2026-05-01T15:37:02.002Z</time></trkpt><trkpt lat="44.80064580987439" lon="9.84575900099091"><ele>331.20000000000005</ele><time>2026-05-01T15:37:11.002Z</time></trkpt><trkpt lat="44.80054590423144" lon="9.845834442337862"><ele>333.6</ele><time>2026-05-01T15:37:13.002Z</time></trkpt><trkpt lat="44.80047334265629" lon="9.84586538359397"><ele>336.0</ele><time>2026-05-01T15:37:14.002Z</time></trkpt><trkpt lat="44.800342461207826" lon="9.845979546972146"><ele>336.20000000000005</ele><time>2026-05-01T15:37:16.001Z</time></trkpt><trkpt lat="44.800262758188204" lon="9.846016785004533"><ele>336.40000000000003</ele><time>2026-05-01T15:37:17.001Z</time></trkpt><trkpt lat="44.80016740955378" lon="9.846089588573765"><ele>336.6</ele><time>2026-05-01T15:37:19.001Z</time></trkpt><trkpt lat="44.80007317366586" lon="9.846174900974825"><ele>336.8</ele><time>2026-05-01T15:37:21.001Z</time></trkpt><trkpt lat="44.79996705255299" lon="9.846203893182881"><ele>337.0</ele><time>2026-05-01T15:37:23.001Z</time></trkpt><trkpt lat="44.79990392835196" lon="9.84622076419719"><ele>338.8333333333333</ele><time>2026-05-01T15:37:24.001Z</time></trkpt><trkpt lat="44.79984097583109" lon="9.846257396966461"><ele>340.66666666666663</ele><time>2026-05-01T15:37:25.001Z</time></trkpt><trkpt lat="44.79978949836223" lon="9.846329762429102"><ele>342.5</ele><time>2026-05-01T15:37:26.001Z</time></trkpt><trkpt lat="44.79973447882641" lon="9.846438133301008"><ele>344.3333333333333</ele><time>2026-05-01T15:37:27.001Z</time></trkpt><trkpt lat="44.79968716322104" lon="9.846522187059877"><ele>346.1666666666667</ele><time>2026-05-01T15:37:28.001Z</time></trkpt><trkpt lat="44.799613916115334" lon="9.846643852158305"><ele>348.0</ele><time>2026-05-01T15:37:29.001Z</time></trkpt><trkpt lat="44.799557063983315" lon="9.846768325750359"><ele>347.1666666666667</ele><time>2026-05-01T15:37:30.001Z</time></trkpt><trkpt lat="44.79952584872501" lon="9.846871790842725"><ele>346.3333333333333</ele><time>2026-05-01T15:37:31.001Z</time></trkpt><trkpt lat="44.799458361712475" lon="9.846925948679651"><ele>345.5</ele><time>2026-05-01T15:37:33.001Z</time></trkpt><trkpt lat="44.79937428528166" lon="9.84685068737908"><ele>344.66666666666663</ele><time>2026-05-01T15:37:35.001Z</time></trkpt><trkpt lat="44.799308756449946" lon="9.846787439382187"><ele>343.8333333333333</ele><time>2026-05-01T15:37:36.001Z</time></trkpt><trkpt lat="44.79921913980119" lon="9.846756219838946"><ele>343.0</ele><time>2026-05-01T15:37:37.001Z</time></trkpt><trkpt lat="44.79913979532653" lon="9.846786058054759"><ele>346.4</ele><time>2026-05-01T15:37:38.001Z</time></trkpt><trkpt lat="44.79903951176826" lon="9.846853370693482"><ele>349.79999999999995</ele><time>2026-05-01T15:37:39.001Z</time></trkpt><trkpt lat="44.798941978408756" lon="9.846894951396925"><ele>353.2</ele><time>2026-05-01T15:37:40.001Z</time></trkpt><trkpt lat="44.79886816191423" lon="9.846912243317371"><ele>356.6</ele><time>2026-05-01T15:37:41.001Z</time></trkpt><trkpt lat="44.798780448727136" lon="9.846891789624845"><ele>360.0</ele><time>2026-05-01T15:37:42.001Z</time></trkpt><trkpt lat="44.79868170226038" lon="9.846853157039073"><ele>360.0</ele><time>2026-05-01T15:37:43.001Z</time></trkpt><trkpt lat="44.79859941909221" lon="9.846823107353078"><ele>360.0</ele><time>2026-05-01T15:37:44.001Z</time></trkpt><trkpt lat="44.79851313239442" lon="9.846818947604232"><ele>360.0</ele><time>2026-05-01T15:37:45.001Z</time></trkpt><trkpt lat="44.79842505812048" lon="9.846947216440709"><ele>360.0</ele><time>2026-05-01T15:37:47.001Z</time></trkpt><trkpt lat="44.79838087845872" lon="9.847029687780694"><ele>360.0</ele><time>2026-05-01T15:37:48.001Z</time></trkpt><trkpt lat="44.7982836189904" lon="9.847100572006909"><ele>364.3333333333333</ele><time>2026-05-01T15:37:50.001Z</time></trkpt><trkpt lat="44.79820122910142" lon="9.847102274205989"><ele>368.66666666666663</ele><time>2026-05-01T15:37:51.001Z</time></trkpt><trkpt lat="44.79811766760457" lon="9.847104458152044"><ele>373.0</ele><time>2026-05-01T15:37:52.001Z</time></trkpt><trkpt lat="44.79803468122158" lon="9.847115755924564"><ele>377.3333333333333</ele><time>2026-05-01T15:37:53.001Z</time></trkpt><trkpt lat="44.797969571244515" lon="9.847107185162326"><ele>381.66666666666663</ele><time>2026-05-01T15:37:54.001Z</time></trkpt><trkpt lat="44.79789461158667" lon="9.847084644949406"><ele>386.0</ele><time>2026-05-01T15:37:55.001Z</time></trkpt><trkpt lat="44.797818192436125" lon="9.847070145330798"><ele>385.99999999999994</ele><time>2026-05-01T15:37:56.001Z</time></trkpt><trkpt lat="44.79773322685455" lon="9.847067647516278"><ele>386.0</ele><time>2026-05-01T15:37:57.001Z</time></trkpt><trkpt lat="44.79764596704141" lon="9.847131227216284"><ele>386.0</ele><time>2026-05-01T15:37:59.001Z</time></trkpt><trkpt lat="44.7976034165386" lon="9.847209815893942"><ele>386.0</ele><time>2026-05-01T15:38:00.001Z</time></trkpt><trkpt lat="44.79756302313339" lon="9.847288627881246"><ele>385.99999999999994</ele><time>2026-05-01T15:38:01.001Z</time></trkpt><trkpt lat="44.7975207450567" lon="9.84737685016051"><ele>386.0</ele><time>2026-05-01T15:38:02.001Z</time></trkpt><trkpt lat="44.79747657028291" lon="9.847466503469722"><ele>390.20000000000005</ele><time>2026-05-01T15:38:03.001Z</time></trkpt><trkpt lat="44.79743616089106" lon="9.84757468901697"><ele>394.40000000000003</ele><time>2026-05-01T15:38:04.001Z</time></trkpt><trkpt lat="44.797417881611075" lon="9.847670994502684"><ele>398.6</ele><time>2026-05-01T15:38:05.001Z</time></trkpt><trkpt lat="44.797357714175504" lon="9.84777892803054"><ele>402.8</ele><time>2026-05-01T15:38:07.001Z</time></trkpt><trkpt lat="44.7972410339879" lon="9.847832563576121"><ele>407.0</ele><time>2026-05-01T15:38:09.001Z</time></trkpt><trkpt lat="44.79717266567974" lon="9.847888014809119"><ele>407.0</ele><time>2026-05-01T15:38:10.001Z</time></trkpt><trkpt lat="44.79709221908821" lon="9.847914262345963"><ele>407.0</ele><time>2026-05-01T15:38:11.001Z</time></trkpt><trkpt lat="44.79701001153739" lon="9.847884765207827"><ele>407.0</ele><time>2026-05-01T15:38:12.001Z</time></trkpt><trkpt lat="44.7969093946541" lon="9.847849617700442"><ele>407.0</ele><time>2026-05-01T15:38:13.001Z</time></trkpt><trkpt lat="44.79681826157016" lon="9.847859248681532"><ele>407.0</ele><time>2026-05-01T15:38:14.001Z</time></trkpt><trkpt lat="44.796732335682165" lon="9.847923959219983"><ele>411.6</ele><time>2026-05-01T15:38:15.001Z</time></trkpt><trkpt lat="44.79663270100281" lon="9.84800887585727"><ele>416.20000000000005</ele><time>2026-05-01T15:38:16.001Z</time></trkpt><trkpt lat="44.79654263748472" lon="9.848046753480563"><ele>420.8</ele><time>2026-05-01T15:38:17.001Z</time></trkpt><trkpt lat="44.79645193845487" lon="9.848149648975479"><ele>425.4</ele><time>2026-05-01T15:38:19.001Z</time></trkpt><trkpt lat="44.79633812460269" lon="9.848117697199267"><ele>430.0</ele><time>2026-05-01T15:38:20.001Z</time></trkpt><trkpt lat="44.79621189710837" lon="9.848193498000724"><ele>430.00000000000006</ele><time>2026-05-01T15:38:22.001Z</time></trkpt><trkpt lat="44.79614978171373" lon="9.848243101278893"><ele>430.0</ele><time>2026-05-01T15:38:23.001Z</time></trkpt><trkpt lat="44.79610309082892" lon="9.848311080407676"><ele>430.0</ele><time>2026-05-01T15:38:25.001Z</time></trkpt><trkpt lat="44.79607534059622" lon="9.848394692470983"><ele>430.0</ele><time>2026-05-01T15:38:40.002Z</time></trkpt><trkpt lat="44.79601977764671" lon="9.848494678952198"><ele>430.00000000000006</ele><time>2026-05-01T15:38:42.002Z</time></trkpt><trkpt lat="44.79593022260554" lon="9.848624350880625"><ele>430.0</ele><time>2026-05-01T15:38:44.002Z</time></trkpt><trkpt lat="44.79585351705622" lon="9.848670936010254"><ele>433.8</ele><time>2026-05-01T15:38:45.002Z</time></trkpt><trkpt lat="44.79582467814186" lon="9.84875752952451"><ele>437.6</ele><time>2026-05-01T15:38:46.002Z</time></trkpt><trkpt lat="44.79575719810572" lon="9.848902611661439"><ele>441.4</ele><time>2026-05-01T15:38:48.002Z</time></trkpt><trkpt lat="44.7957277245251" lon="9.84906792020232"><ele>445.2</ele><time>2026-05-01T15:38:50.002Z</time></trkpt><trkpt lat="44.795711975927986" lon="9.84915965656269"><ele>449.0</ele><time>2026-05-01T15:38:51.002Z</time></trkpt><trkpt lat="44.79568689068667" lon="9.849272156018873"><ele>449.66666666666663</ele><time>2026-05-01T15:38:52.002Z</time></trkpt><trkpt lat="44.79565416392006" lon="9.849375657619493"><ele>450.3333333333333</ele><time>2026-05-01T15:38:53.002Z</time></trkpt><trkpt lat="44.79561814324558" lon="9.84948936913642"><ele>451.0</ele><time>2026-05-01T15:38:54.002Z</time></trkpt><trkpt lat="44.79558303875505" lon="9.849577234603672"><ele>451.66666666666663</ele><time>2026-05-01T15:38:55.002Z</time></trkpt><trkpt lat="44.795521940665424" lon="9.849647787139046"><ele>452.3333333333333</ele><time>2026-05-01T15:38:56.002Z</time></trkpt><trkpt lat="44.795469227893065" lon="9.84971197809621"><ele>453.0</ele><time>2026-05-01T15:38:57.002Z</time></trkpt><trkpt lat="44.795428927087904" lon="9.84988582105756"><ele>453.0</ele><time>2026-05-01T15:38:59.002Z</time></trkpt><trkpt lat="44.795422375747165" lon="9.849986414340304"><ele>453.0</ele><time>2026-05-01T15:39:00.002Z</time></trkpt><trkpt lat="44.79540539986158" lon="9.850104103335799"><ele>453.0</ele><time>2026-05-01T15:39:01.002Z</time></trkpt><trkpt lat="44.79535487313189" lon="9.850202084840422"><ele>453.0</ele><time>2026-05-01T15:39:02.002Z</time></trkpt><trkpt lat="44.79531840845156" lon="9.850300864575019"><ele>453.0</ele><time>2026-05-01T15:39:03.002Z</time></trkpt><trkpt lat="44.79528781971647" lon="9.850412740660953"><ele>453.0</ele><time>2026-05-01T15:39:04.002Z</time></trkpt><trkpt lat="44.7952451386122" lon="9.850504679137082"><ele>453.0</ele><time>2026-05-01T15:39:05.002Z</time></trkpt><trkpt lat="44.7952064676644" lon="9.85059673080362"><ele>453.0</ele><time>2026-05-01T15:39:06.002Z</time></trkpt><trkpt lat="44.7951464047141" lon="9.850694817894004"><ele>453.0</ele><time>2026-05-01T15:39:07.002Z</time></trkpt><trkpt lat="44.79509639985487" lon="9.850785348318496"><ele>453.0</ele><time>2026-05-01T15:39:08.002Z</time></trkpt><trkpt lat="44.79505558638818" lon="9.850881541367604"><ele>453.0</ele><time>2026-05-01T15:39:09.002Z</time></trkpt><trkpt lat="44.79501444522046" lon="9.850997556596239"><ele>453.0</ele><time>2026-05-01T15:39:10.002Z</time></trkpt><trkpt lat="44.79499336141837" lon="9.851109985451888"><ele>456.8333333333333</ele><time>2026-05-01T15:39:11.002Z</time></trkpt><trkpt lat="44.794961187522176" lon="9.85122961266503"><ele>460.66666666666663</ele><time>2026-05-01T15:39:12.002Z</time></trkpt><trkpt lat="44.79491291448573" lon="9.851333915437849"><ele>464.5</ele><time>2026-05-01T15:39:13.002Z</time></trkpt><trkpt lat="44.794877138852044" lon="9.851428070329373"><ele>468.3333333333333</ele><time>2026-05-01T15:39:14.002Z</time></trkpt><trkpt lat="44.79483908195001" lon="9.851527177714004"><ele>472.16666666666663</ele><time>2026-05-01T15:39:15.002Z</time></trkpt><trkpt lat="44.794814220752876" lon="9.85162093448305"><ele>476.0</ele><time>2026-05-01T15:39:16.002Z</time></trkpt><trkpt lat="44.79478058825502" lon="9.851704760210168"><ele>476.66666666666663</ele><time>2026-05-01T15:39:17.002Z</time></trkpt><trkpt lat="44.79474289307726" lon="9.85179417342512"><ele>477.3333333333333</ele><time>2026-05-01T15:39:18.002Z</time></trkpt><trkpt lat="44.79467861442485" lon="9.851957872429018"><ele>478.0</ele><time>2026-05-01T15:39:20.002Z</time></trkpt><trkpt lat="44.79464945713645" lon="9.852058959187923"><ele>478.66666666666663</ele><time>2026-05-01T15:39:21.002Z</time></trkpt><trkpt lat="44.79461723109646" lon="9.852158849939293"><ele>479.3333333333333</ele><time>2026-05-01T15:39:22.001Z</time></trkpt><trkpt lat="44.79458777857396" lon="9.852246642874693"><ele>480.0</ele><time>2026-05-01T15:39:23.001Z</time></trkpt><trkpt lat="44.79455938045554" lon="9.852338684210933"><ele>480.0</ele><time>2026-05-01T15:39:24.001Z</time></trkpt><trkpt lat="44.794528084087425" lon="9.852449972219175"><ele>480.0</ele><time>2026-05-01T15:39:25.001Z</time></trkpt><trkpt lat="44.794500049796504" lon="9.852560788649269"><ele>480.0</ele><time>2026-05-01T15:39:26.001Z</time></trkpt><trkpt lat="44.79447401933084" lon="9.852662447921851"><ele>480.0</ele><time>2026-05-01T15:39:27.001Z</time></trkpt><trkpt lat="44.79444047341761" lon="9.852757235290667"><ele>480.0</ele><time>2026-05-01T15:39:28.001Z</time></trkpt><trkpt lat="44.79440941604867" lon="9.852850573930445"><ele>480.0</ele><time>2026-05-01T15:39:29.001Z</time></trkpt><trkpt lat="44.79437672588265" lon="9.852938150257083"><ele>481.0</ele><time>2026-05-01T15:39:30.001Z</time></trkpt><trkpt lat="44.794348615282026" lon="9.8530203100517"><ele>482.0</ele><time>2026-05-01T15:39:31.001Z</time></trkpt><trkpt lat="44.79429297194457" lon="9.853183018068028"><ele>483.0</ele><time>2026-05-01T15:39:33.001Z</time></trkpt><trkpt lat="44.7942578256855" lon="9.853257519521623"><ele>484.0</ele><time>2026-05-01T15:39:34.001Z</time></trkpt><trkpt lat="44.794225035350806" lon="9.853345645235907"><ele>485.0</ele><time>2026-05-01T15:39:35.001Z</time></trkpt><trkpt lat="44.794193050648346" lon="9.853433359237327"><ele>486.0</ele><time>2026-05-01T15:39:36.001Z</time></trkpt><trkpt lat="44.794145576434765" lon="9.853557441059134"><ele>487.8333333333333</ele><time>2026-05-01T15:39:38.001Z</time></trkpt><trkpt lat="44.79407588506281" lon="9.853668204218518"><ele>489.66666666666663</ele><time>2026-05-01T15:39:40.001Z</time></trkpt><trkpt lat="44.79403209824739" lon="9.85374940810583"><ele>491.5</ele><time>2026-05-01T15:39:42.001Z</time></trkpt><trkpt lat="44.79403062919157" lon="9.853838862404166"><ele>493.3333333333333</ele><time>2026-05-01T15:39:45.001Z</time></trkpt><trkpt lat="44.7941273811879" lon="9.853887214038583"><ele>495.16666666666663</ele><time>2026-05-01T15:39:47.001Z</time></trkpt><trkpt lat="44.79421747026845" lon="9.853936308664435"><ele>497.0</ele><time>2026-05-01T15:39:49.001Z</time></trkpt><trkpt lat="44.79429795283114" lon="9.854038047336285"><ele>495.40000000000003</ele><time>2026-05-01T15:39:51.001Z</time></trkpt><trkpt lat="44.794372942221486" lon="9.854117869538365"><ele>493.80000000000007</ele><time>2026-05-01T15:39:53.001Z</time></trkpt><trkpt lat="44.794460248878714" lon="9.85421466155045"><ele>492.2</ele><time>2026-05-01T15:39:55.001Z</time></trkpt><trkpt lat="44.79456001402841" lon="9.854305654193777"><ele>490.6</ele><time>2026-05-01T15:39:57.001Z</time></trkpt><trkpt lat="44.79461786664584" lon="9.854346420733595"><ele>489.0</ele><time>2026-05-01T15:39:58.001Z</time></trkpt><trkpt lat="44.79467806103444" lon="9.854380669844579"><ele>488.2</ele><time>2026-05-01T15:39:59.001Z</time></trkpt><trkpt lat="44.794782255211096" lon="9.854417290795665"><ele>487.4</ele><time>2026-05-01T15:40:01.001Z</time></trkpt><trkpt lat="44.79484457766375" lon="9.854434707601053"><ele>486.6</ele><time>2026-05-01T15:40:02.001Z</time></trkpt><trkpt lat="44.794959266054384" lon="9.854483798249413"><ele>485.8</ele><time>2026-05-01T15:40:04.001Z</time></trkpt><trkpt lat="44.79505536782829" lon="9.854584192039981"><ele>485.0</ele><time>2026-05-01T15:40:06.001Z</time></trkpt><trkpt lat="44.79509749444975" lon="9.854651044317842"><ele>485.0</ele><time>2026-05-01T15:40:07.001Z</time></trkpt><trkpt lat="44.795152815207665" lon="9.854708291902178"><ele>485.0</ele><time>2026-05-01T15:40:08.001Z</time></trkpt><trkpt lat="44.79523726241231" lon="9.854833073494872"><ele>485.0</ele><time>2026-05-01T15:40:09.001Z</time></trkpt><trkpt lat="44.795318539730324" lon="9.854960914802149"><ele>485.0</ele><time>2026-05-01T15:40:10.001Z</time></trkpt><trkpt lat="44.795380719385896" lon="9.855071597153593"><ele>485.0</ele><time>2026-05-01T15:40:11.001Z</time></trkpt><trkpt lat="44.7954865321597" lon="9.85518689067667"><ele>482.25</ele><time>2026-05-01T15:40:13.001Z</time></trkpt><trkpt lat="44.795609680948004" lon="9.855222195368574"><ele>479.5</ele><time>2026-05-01T15:40:14.001Z</time></trkpt><trkpt lat="44.795759248440305" lon="9.855290010050558"><ele>476.75</ele><time>2026-05-01T15:40:15.001Z</time></trkpt><trkpt lat="44.795891120673105" lon="9.85535882899789"><ele>474.0</ele><time>2026-05-01T15:40:16.001Z</time></trkpt><trkpt lat="44.79603516401982" lon="9.855422938734637"><ele>472.5</ele><time>2026-05-01T15:40:17.001Z</time></trkpt><trkpt lat="44.79616326360552" lon="9.85548942028877"><ele>471.0</ele><time>2026-05-01T15:40:18.001Z</time></trkpt><trkpt lat="44.79627708460501" lon="9.855554871535709"><ele>469.5</ele><time>2026-05-01T15:40:19.001Z</time></trkpt><trkpt lat="44.79636759126959" lon="9.855612105654137"><ele>468.0</ele><time>2026-05-01T15:40:20.001Z</time></trkpt><trkpt lat="44.796461701252504" lon="9.855672498364113"><ele>468.0</ele><time>2026-05-01T15:40:21.001Z</time></trkpt><trkpt lat="44.79653887356037" lon="9.855747226945788"><ele>468.0</ele><time>2026-05-01T15:40:22.001Z</time></trkpt><trkpt lat="44.79659607827835" lon="9.855844417224883"><ele>468.0</ele><time>2026-05-01T15:40:23.001Z</time></trkpt><trkpt lat="44.7966382199456" lon="9.855942652054692"><ele>468.0</ele><time>2026-05-01T15:40:24.001Z</time></trkpt><trkpt lat="44.79668229975685" lon="9.856046168683703"><ele>468.0</ele><time>2026-05-01T15:40:25.001Z</time></trkpt><trkpt lat="44.796735617732594" lon="9.856136647513914"><ele>468.0</ele><time>2026-05-01T15:40:26.001Z</time></trkpt><trkpt lat="44.79681395837175" lon="9.856236394329676"><ele>464.59999999999997</ele><time>2026-05-01T15:40:27.001Z</time></trkpt><trkpt lat="44.79687967726128" lon="9.856306333129524"><ele>461.19999999999993</ele><time>2026-05-01T15:40:29.001Z</time></trkpt><trkpt lat="44.796964370190295" lon="9.856396599061103"><ele>457.8</ele><time>2026-05-01T15:40:31.001Z</time></trkpt><trkpt lat="44.79704160941108" lon="9.856459432584385"><ele>454.4</ele><time>2026-05-01T15:40:33.001Z</time></trkpt><trkpt lat="44.79714481020857" lon="9.856500148341784"><ele>451.0</ele><time>2026-05-01T15:40:35.001Z</time></trkpt><trkpt lat="44.797220498290024" lon="9.856516471364131"><ele>451.0</ele><time>2026-05-01T15:40:36.001Z</time></trkpt><trkpt lat="44.7972903657053" lon="9.856533387989122"><ele>451.0</ele><time>2026-05-01T15:40:37.001Z</time></trkpt><trkpt lat="44.797368248196264" lon="9.856549992087384"><ele>451.0</ele><time>2026-05-01T15:40:38.001Z</time></trkpt><trkpt lat="44.797467435395106" lon="9.856575604127073"><ele>451.0</ele><time>2026-05-01T15:40:39.001Z</time></trkpt><trkpt lat="44.79756383306683" lon="9.85660915209066"><ele>451.0</ele><time>2026-05-01T15:40:40.001Z</time></trkpt><trkpt lat="44.79767019864204" lon="9.856643473332525"><ele>448.50000000000006</ele><time>2026-05-01T15:40:41.002Z</time></trkpt><trkpt lat="44.79773679460248" lon="9.856660229105387"><ele>446.0</ele><time>2026-05-01T15:40:42.002Z</time></trkpt><trkpt lat="44.797804252464466" lon="9.856692744414481"><ele>443.5</ele><time>2026-05-01T15:40:43.002Z</time></trkpt><trkpt lat="44.79786018040574" lon="9.85675066877149"><ele>441.0</ele><time>2026-05-01T15:40:44.002Z</time></trkpt><trkpt lat="44.79790963012559" lon="9.856843784452337"><ele>438.50000000000006</ele><time>2026-05-01T15:40:45.002Z</time></trkpt><trkpt lat="44.797940253083475" lon="9.856969826279782"><ele>436.0</ele><time>2026-05-01T15:40:46.002Z</time></trkpt><trkpt lat="44.797983040798805" lon="9.857147032817036"><ele>435.1666666666667</ele><time>2026-05-01T15:40:47.002Z</time></trkpt><trkpt lat="44.798016645761635" lon="9.85724401363532"><ele>434.33333333333337</ele><time>2026-05-01T15:40:48.002Z</time></trkpt><trkpt lat="44.798048749808935" lon="9.85732833740294"><ele>433.5</ele><time>2026-05-01T15:40:49.002Z</time></trkpt><trkpt lat="44.79807714507627" lon="9.857467188221692"><ele>432.66666666666663</ele><time>2026-05-01T15:40:51.002Z</time></trkpt><trkpt lat="44.79810090827316" lon="9.857568527624021"><ele>431.8333333333333</ele><time>2026-05-01T15:40:53.002Z</time></trkpt><trkpt lat="44.79817289996035" lon="9.857627617746264"><ele>431.0</ele><time>2026-05-01T15:40:55.002Z</time></trkpt><trkpt lat="44.79829333496667" lon="9.857582338587328"><ele>430.99999999999994</ele><time>2026-05-01T15:40:57.002Z</time></trkpt><trkpt lat="44.79840519902192" lon="9.85754307832419"><ele>431.0</ele><time>2026-05-01T15:40:58.002Z</time></trkpt><trkpt lat="44.79849755628476" lon="9.857515379757665"><ele>431.0</ele><time>2026-05-01T15:40:59.002Z</time></trkpt><trkpt lat="44.79856372695752" lon="9.857499657320211"><ele>431.0</ele><time>2026-05-01T15:41:00.002Z</time></trkpt><trkpt lat="44.798637761645885" lon="9.857512584872765"><ele>430.99999999999994</ele><time>2026-05-01T15:41:01.002Z</time></trkpt><trkpt lat="44.798707724394745" lon="9.857572675678115"><ele>431.0</ele><time>2026-05-01T15:41:02.002Z</time></trkpt><trkpt lat="44.798757500591094" lon="9.857681516918566"><ele>429.66666666666663</ele><time>2026-05-01T15:41:03.002Z</time></trkpt><trkpt lat="44.79879048394042" lon="9.857816550087621"><ele>428.3333333333333</ele><time>2026-05-01T15:41:04.002Z</time></trkpt><trkpt lat="44.79883666612918" lon="9.85790024717326"><ele>427.0</ele><time>2026-05-01T15:41:05.002Z</time></trkpt><trkpt lat="44.79891496049909" lon="9.857926596079782"><ele>425.66666666666663</ele><time>2026-05-01T15:41:06.002Z</time></trkpt><trkpt lat="44.79900115033798" lon="9.857920824640914"><ele>424.3333333333333</ele><time>2026-05-01T15:41:07.002Z</time></trkpt><trkpt lat="44.79910019769782" lon="9.857968293350531"><ele>423.0</ele><time>2026-05-01T15:41:08.002Z</time></trkpt><trkpt lat="44.799201604990735" lon="9.85806614153026"><ele>423.0</ele><time>2026-05-01T15:41:09.002Z</time></trkpt><trkpt lat="44.799289524428396" lon="9.8581584267335"><ele>423.0</ele><time>2026-05-01T15:41:10.002Z</time></trkpt><trkpt lat="44.799356939303394" lon="9.858205292804948"><ele>423.0</ele><time>2026-05-01T15:41:15.002Z</time></trkpt><trkpt lat="44.79940349064909" lon="9.858308252576434"><ele>423.0</ele><time>2026-05-01T15:41:17.002Z</time></trkpt><trkpt lat="44.79946002614835" lon="9.85835434626944"><ele>423.0</ele><time>2026-05-01T15:41:18.002Z</time></trkpt><trkpt lat="44.799574644010896" lon="9.8584069625386"><ele>421.5</ele><time>2026-05-01T15:41:20.002Z</time></trkpt><trkpt lat="44.79969816367849" lon="9.858462886882604"><ele>420.0</ele><time>2026-05-01T15:41:22.002Z</time></trkpt><trkpt lat="44.79975954096269" lon="9.8585015595663"><ele>418.5</ele><time>2026-05-01T15:41:23.002Z</time></trkpt><trkpt lat="44.79983324937374" lon="9.858539317087564"><ele>417.0</ele><time>2026-05-01T15:41:24.002Z</time></trkpt><trkpt lat="44.79991296201909" lon="9.858568546510865"><ele>415.5</ele><time>2026-05-01T15:41:25.002Z</time></trkpt><trkpt lat="44.79999945705638" lon="9.858573554369297"><ele>414.0</ele><time>2026-05-01T15:41:26.002Z</time></trkpt><trkpt lat="44.80006964009146" lon="9.858565104096321"><ele>412.5</ele><time>2026-05-01T15:41:27.002Z</time></trkpt><trkpt lat="44.80019911871103" lon="9.858596279693181"><ele>411.0</ele><time>2026-05-01T15:41:29.001Z</time></trkpt><trkpt lat="44.800268141653405" lon="9.858626301207789"><ele>409.5</ele><time>2026-05-01T15:41:30.001Z</time></trkpt><trkpt lat="44.80033131913302" lon="9.858657821068565"><ele>408.0</ele><time>2026-05-01T15:41:31.001Z</time></trkpt><trkpt lat="44.80040388082801" lon="9.858697426555294"><ele>406.5</ele><time>2026-05-01T15:41:32.001Z</time></trkpt><trkpt lat="44.80048334154706" lon="9.858737612854373"><ele>405.0</ele><time>2026-05-01T15:41:33.001Z</time></trkpt><trkpt lat="44.800554342454056" lon="9.858766682465175"><ele>405.0</ele><time>2026-05-01T15:41:34.001Z</time></trkpt><trkpt lat="44.80062362808666" lon="9.858769920674668"><ele>405.0</ele><time>2026-05-01T15:41:35.001Z</time></trkpt><trkpt lat="44.800743218011384" lon="9.858738848435896"><ele>405.0</ele><time>2026-05-01T15:41:37.001Z</time></trkpt><trkpt lat="44.800853580417666" lon="9.858737918415043"><ele>405.0</ele><time>2026-05-01T15:41:39.001Z</time></trkpt><trkpt lat="44.800959260891794" lon="9.858788714575482"><ele>405.0</ele><time>2026-05-01T15:41:41.001Z</time></trkpt><trkpt lat="44.80106790413815" lon="9.858796872952606"><ele>404.3333333333333</ele><time>2026-05-01T15:41:43.001Z</time></trkpt><trkpt lat="44.80117769268027" lon="9.858809940736757"><ele>403.66666666666663</ele><time>2026-05-01T15:41:45.001Z</time></trkpt><trkpt lat="44.80126117621623" lon="9.858829621399341"><ele>403.0</ele><time>2026-05-01T15:41:47.001Z</time></trkpt><trkpt lat="44.80132758965526" lon="9.858837954610431"><ele>402.3333333333333</ele><time>2026-05-01T15:41:49.001Z</time></trkpt><trkpt lat="44.80139538262663" lon="9.858846323688477"><ele>401.66666666666663</ele><time>2026-05-01T15:41:52.001Z</time></trkpt><trkpt lat="44.80146489401313" lon="9.85882711669107"><ele>401.0</ele><time>2026-05-01T15:42:43.001Z</time></trkpt><trkpt lat="44.801584892694635" lon="9.858781083347308"><ele>400.99999999999994</ele><time>2026-05-01T15:42:45.001Z</time></trkpt><trkpt lat="44.80165471219997" lon="9.858767089727543"><ele>401.0</ele><time>2026-05-01T15:42:46.001Z</time></trkpt><trkpt lat="44.801723606155484" lon="9.858754851067475"><ele>401.0</ele><time>2026-05-01T15:42:47.001Z</time></trkpt><trkpt lat="44.80179164493972" lon="9.858745866796326"><ele>401.0</ele><time>2026-05-01T15:42:48.001Z</time></trkpt><trkpt lat="44.80186079477221" lon="9.858735373129484"><ele>400.99999999999994</ele><time>2026-05-01T15:42:49.001Z</time></trkpt><trkpt lat="44.80198353749633" lon="9.85868769973409"><ele>401.0</ele><time>2026-05-01T15:42:51.001Z</time></trkpt><trkpt lat="44.80204641412852" lon="9.85869412525066"><ele>400.7142857142857</ele><time>2026-05-01T15:42:52.001Z</time></trkpt><trkpt lat="44.80211435401481" lon="9.858690234101976"><ele>400.42857142857144</ele><time>2026-05-01T15:42:53.001Z</time></trkpt><trkpt lat="44.80218943812226" lon="9.858701967812298"><ele>400.1428571428571</ele><time>2026-05-01T15:42:54.001Z</time></trkpt><trkpt lat="44.80225948100769" lon="9.858762611348217"><ele>399.8571428571429</ele><time>2026-05-01T15:42:55.001Z</time></trkpt><trkpt lat="44.80233375587622" lon="9.858771667651988"><ele>399.57142857142856</ele><time>2026-05-01T15:42:56.001Z</time></trkpt><trkpt lat="44.80239732349877" lon="9.858792546126722"><ele>399.2857142857143</ele><time>2026-05-01T15:42:57.001Z</time></trkpt><trkpt lat="44.8024611666744" lon="9.858789477169518"><ele>399.0</ele><time>2026-05-01T15:42:58.001Z</time></trkpt><trkpt lat="44.80252955390444" lon="9.858793962579675"><ele>399.0</ele><time>2026-05-01T15:42:59.001Z</time></trkpt><trkpt lat="44.802606137816" lon="9.858792793107586"><ele>399.0</ele><time>2026-05-01T15:43:00.001Z</time></trkpt><trkpt lat="44.80268051769193" lon="9.858788532965232"><ele>399.0</ele><time>2026-05-01T15:43:01.001Z</time></trkpt><trkpt lat="44.80276197828028" lon="9.858778288628665"><ele>399.0</ele><time>2026-05-01T15:43:02.001Z</time></trkpt><trkpt lat="44.80285321932552" lon="9.858767175894679"><ele>399.0</ele><time>2026-05-01T15:43:03.001Z</time></trkpt><trkpt lat="44.802956917237665" lon="9.858750504809137"><ele>399.0</ele><time>2026-05-01T15:43:04.001Z</time></trkpt><trkpt lat="44.80307697087177" lon="9.858717608379942"><ele>397.0</ele><time>2026-05-01T15:43:05.001Z</time></trkpt><trkpt lat="44.80317871852791" lon="9.858695295951103"><ele>395.0</ele><time>2026-05-01T15:43:06.001Z</time></trkpt><trkpt lat="44.8032795206821" lon="9.858680539983352"><ele>393.0</ele><time>2026-05-01T15:43:07.001Z</time></trkpt><trkpt lat="44.80338255639375" lon="9.858670418041672"><ele>391.0</ele><time>2026-05-01T15:43:08.001Z</time></trkpt><trkpt lat="44.80346768544251" lon="9.858667828230287"><ele>389.0</ele><time>2026-05-01T15:43:09.001Z</time></trkpt><trkpt lat="44.80355487729711" lon="9.858677003827903"><ele>387.8333333333333</ele><time>2026-05-01T15:43:10.001Z</time></trkpt><trkpt lat="44.80363786155438" lon="9.858681804641432"><ele>386.66666666666663</ele><time>2026-05-01T15:43:11.001Z</time></trkpt><trkpt lat="44.803721941110574" lon="9.858702650640678"><ele>385.5</ele><time>2026-05-01T15:43:12.001Z</time></trkpt><trkpt lat="44.80380303697203" lon="9.858718762484765"><ele>384.3333333333333</ele><time>2026-05-01T15:43:13.002Z</time></trkpt><trkpt lat="44.80389383429253" lon="9.858740470074393"><ele>383.16666666666663</ele><time>2026-05-01T15:43:14.002Z</time></trkpt><trkpt lat="44.80398884584304" lon="9.858753646581976"><ele>382.0</ele><time>2026-05-01T15:43:15.002Z</time></trkpt><trkpt lat="44.804099050189926" lon="9.858765153765614"><ele>382.0</ele><time>2026-05-01T15:43:16.002Z</time></trkpt><trkpt lat="44.804203667541415" lon="9.858782072444919"><ele>382.0</ele><time>2026-05-01T15:43:17.002Z</time></trkpt><trkpt lat="44.804297508906565" lon="9.858849535258786"><ele>382.0</ele><time>2026-05-01T15:43:18.002Z</time></trkpt><trkpt lat="44.804394595780835" lon="9.858912364486294"><ele>382.0</ele><time>2026-05-01T15:43:19.002Z</time></trkpt><trkpt lat="44.80449773764128" lon="9.858967131620222"><ele>382.0</ele><time>2026-05-01T15:43:20.002Z</time></trkpt><trkpt lat="44.804597685154356" lon="9.859053554809382"><ele>380.5</ele><time>2026-05-01T15:43:21.002Z</time></trkpt><trkpt lat="44.80470584326748" lon="9.859151260085818"><ele>379.0</ele><time>2026-05-01T15:43:22.002Z</time></trkpt><trkpt lat="44.804804681137405" lon="9.859251898509287"><ele>377.5</ele><time>2026-05-01T15:43:23.002Z</time></trkpt><trkpt lat="44.80489894802215" lon="9.859345482749085"><ele>376.0</ele><time>2026-05-01T15:43:24.002Z</time></trkpt><trkpt lat="44.80499305517328" lon="9.859436896110914"><ele>374.8</ele><time>2026-05-01T15:43:25.002Z</time></trkpt><trkpt lat="44.805090133833666" lon="9.859516438778961"><ele>373.6</ele><time>2026-05-01T15:43:26.002Z</time></trkpt><trkpt lat="44.805188623789654" lon="9.85958174719466"><ele>372.4</ele><time>2026-05-01T15:43:27.002Z</time></trkpt><trkpt lat="44.80529024873735" lon="9.859623576683283"><ele>371.2</ele><time>2026-05-01T15:43:28.002Z</time></trkpt><trkpt lat="44.80538430577964" lon="9.859649464359237"><ele>370.0</ele><time>2026-05-01T15:43:29.002Z</time></trkpt><trkpt lat="44.80546169408089" lon="9.859663045248336"><ele>369.8</ele><time>2026-05-01T15:43:30.002Z</time></trkpt><trkpt lat="44.80552737225795" lon="9.859676632400983"><ele>369.6</ele><time>2026-05-01T15:43:31.002Z</time></trkpt><trkpt lat="44.80560976806349" lon="9.859695974089185"><ele>369.4</ele><time>2026-05-01T15:43:32.002Z</time></trkpt><trkpt lat="44.80571051516444" lon="9.859677899717662"><ele>369.2</ele><time>2026-05-01T15:43:33.002Z</time></trkpt><trkpt lat="44.80582498301009" lon="9.859727271639924"><ele>369.0</ele><time>2026-05-01T15:43:34Z</time></trkpt><trkpt lat="44.805954584578124" lon="9.859752036148342"><ele>369.2</ele><time>2026-05-01T15:43:35Z</time></trkpt><trkpt lat="44.80605754395406" lon="9.85978380858216"><ele>369.4</ele><time>2026-05-01T15:43:36Z</time></trkpt><trkpt lat="44.806143473324695" lon="9.859822293997633"><ele>369.6</ele><time>2026-05-01T15:43:37Z</time></trkpt><trkpt lat="44.80623868024147" lon="9.859871156374933"><ele>369.8</ele><time>2026-05-01T15:43:38Z</time></trkpt><trkpt lat="44.806367097248" lon="9.859950771805696"><ele>370.0</ele><time>2026-05-01T15:43:39Z</time></trkpt><trkpt lat="44.80648979646952" lon="9.860038325682861"><ele>369.0</ele><time>2026-05-01T15:43:40Z</time></trkpt><trkpt lat="44.80661793075968" lon="9.860151033295592"><ele>368.0</ele><time>2026-05-01T15:43:41Z</time></trkpt><trkpt lat="44.806787008315574" lon="9.860277124055997"><ele>367.0</ele><time>2026-05-01T15:43:42Z</time></trkpt><trkpt lat="44.80694457776652" lon="9.860367273419532"><ele>371.25</ele><time>2026-05-01T15:43:43Z</time></trkpt><trkpt lat="44.80707735769195" lon="9.860425088303998"><ele>375.5</ele><time>2026-05-01T15:43:44Z</time></trkpt><trkpt lat="44.80722000697639" lon="9.86047999215909"><ele>379.75</ele><time>2026-05-01T15:43:45Z</time></trkpt><trkpt lat="44.80735167039691" lon="9.860542334197346"><ele>384.0</ele><time>2026-05-01T15:43:46Z</time></trkpt><trkpt lat="44.80743337348806" lon="9.860614668191285"><ele>384.0</ele><time>2026-05-01T15:43:47Z</time></trkpt><trkpt lat="44.807480111015906" lon="9.860696543262167"><ele>384.0</ele><time>2026-05-01T15:43:48Z</time></trkpt><trkpt lat="44.80747549880192" lon="9.860799838437925"><ele>384.0</ele><time>2026-05-01T15:43:50Z</time></trkpt><trkpt lat="44.807473641071844" lon="9.861006858820822"><ele>384.0</ele><time>2026-05-01T15:43:52Z</time></trkpt><trkpt lat="44.80747162441816" lon="9.861135386657745"><ele>384.0</ele><time>2026-05-01T15:43:53Z</time></trkpt><trkpt lat="44.807491810739684" lon="9.861312692656567"><ele>384.79999999999995</ele><time>2026-05-01T15:43:54Z</time></trkpt><trkpt lat="44.8075209651738" lon="9.861521907052122"><ele>385.59999999999997</ele><time>2026-05-01T15:43:55Z</time></trkpt><trkpt lat="44.8075413308459" lon="9.861651059369864"><ele>386.4</ele><time>2026-05-01T15:43:56Z</time></trkpt><trkpt lat="44.80762541585517" lon="9.861706129441876"><ele>387.2</ele><time>2026-05-01T15:43:58Z</time></trkpt><trkpt lat="44.80771446986979" lon="9.861718618795669"><ele>388.0</ele><time>2026-05-01T15:43:59Z</time></trkpt><trkpt lat="44.80781190070047" lon="9.861770746001698"><ele>391.59999999999997</ele><time>2026-05-01T15:44:00Z</time></trkpt><trkpt lat="44.80784852927877" lon="9.861944562664604"><ele>395.2</ele><time>2026-05-01T15:44:02Z</time></trkpt><trkpt lat="44.80784484212633" lon="9.86206861818713"><ele>398.8</ele><time>2026-05-01T15:44:03Z</time></trkpt><trkpt lat="44.807868129688046" lon="9.86221719149753"><ele>402.4</ele><time>2026-05-01T15:44:04Z</time></trkpt><trkpt lat="44.80791968594351" lon="9.86232475801239"><ele>406.0</ele><time>2026-05-01T15:44:05Z</time></trkpt><trkpt lat="44.80797695646697" lon="9.862376465598198"><ele>406.00000000000006</ele><time>2026-05-01T15:44:06Z</time></trkpt><trkpt lat="44.80804322663922" lon="9.86241374522066"><ele>406.0</ele><time>2026-05-01T15:44:07Z</time></trkpt><trkpt lat="44.80811037656097" lon="9.862430715330133"><ele>406.0</ele><time>2026-05-01T15:44:08Z</time></trkpt><trkpt lat="44.8081849837058" lon="9.862457879606252"><ele>406.0</ele><time>2026-05-01T15:44:10Z</time></trkpt><trkpt lat="44.80819583363311" lon="9.862607169604443"><ele>406.00000000000006</ele><time>2026-05-01T15:44:38.001Z</time></trkpt><trkpt lat="44.80816675392935" lon="9.862699179099586"><ele>406.0</ele><time>2026-05-01T15:44:39.001Z</time></trkpt><trkpt lat="44.80815509601726" lon="9.862821683467297"><ele>405.25</ele><time>2026-05-01T15:44:40.001Z</time></trkpt><trkpt lat="44.80815380376739" lon="9.862978052808668"><ele>404.5</ele><time>2026-05-01T15:44:41.001Z</time></trkpt><trkpt lat="44.808134156802296" lon="9.86315070992697"><ele>403.75</ele><time>2026-05-01T15:44:42.001Z</time></trkpt><trkpt lat="44.808103959184436" lon="9.863328039542836"><ele>403.0</ele><time>2026-05-01T15:44:43.001Z</time></trkpt><trkpt lat="44.808069027314815" lon="9.863469548045789"><ele>402.59999999999997</ele><time>2026-05-01T15:44:44.001Z</time></trkpt><trkpt lat="44.80803690372922" lon="9.863590953341166"><ele>402.2</ele><time>2026-05-01T15:44:45.001Z</time></trkpt><trkpt lat="44.8080079697488" lon="9.863717012882203"><ele>401.8</ele><time>2026-05-01T15:44:46.001Z</time></trkpt><trkpt lat="44.80796696746177" lon="9.86386482829771"><ele>401.4</ele><time>2026-05-01T15:44:47.001Z</time></trkpt><trkpt lat="44.807903269489685" lon="9.864008129089463"><ele>401.0</ele><time>2026-05-01T15:44:48.001Z</time></trkpt><trkpt lat="44.80783559283341" lon="9.86412210213482"><ele>401.0</ele><time>2026-05-01T15:44:49.001Z</time></trkpt><trkpt lat="44.807781538288005" lon="9.864263690621682"><ele>401.0</ele><time>2026-05-01T15:44:51.001Z</time></trkpt><trkpt lat="44.807798501581644" lon="9.864378287888718"><ele>401.0</ele><time>2026-05-01T15:44:52.001Z</time></trkpt><trkpt lat="44.807816774461564" lon="9.864528748919817"><ele>401.0</ele><time>2026-05-01T15:44:53.001Z</time></trkpt><trkpt lat="44.8078203803195" lon="9.86470544127702"><ele>401.0</ele><time>2026-05-01T15:44:54.001Z</time></trkpt><trkpt lat="44.807832947011114" lon="9.86488046554429"><ele>400.75</ele><time>2026-05-01T15:44:55.001Z</time></trkpt><trkpt lat="44.80785690978286" lon="9.865058309802423"><ele>400.5</ele><time>2026-05-01T15:44:56.001Z</time></trkpt><trkpt lat="44.80789837123771" lon="9.865220382704718"><ele>400.25</ele><time>2026-05-01T15:44:57.001Z</time></trkpt><trkpt lat="44.807946937206054" lon="9.86538859394626"><ele>400.0</ele><time>2026-05-01T15:44:58.001Z</time></trkpt><trkpt lat="44.80797840301146" lon="9.865541899372355"><ele>400.8</ele><time>2026-05-01T15:44:59.001Z</time></trkpt><trkpt lat="44.80799068752036" lon="9.865691874306236"><ele>401.6</ele><time>2026-05-01T15:45:00.001Z</time></trkpt><trkpt lat="44.8080024554733" lon="9.865853510494773"><ele>402.4</ele><time>2026-05-01T15:45:01.001Z</time></trkpt><trkpt lat="44.80801474561815" lon="9.86600147052144"><ele>403.2</ele><time>2026-05-01T15:45:02.001Z</time></trkpt><trkpt lat="44.80801681766464" lon="9.866153783769166"><ele>404.0</ele><time>2026-05-01T15:45:03.001Z</time></trkpt><trkpt lat="44.80803046533289" lon="9.866302478702874"><ele>404.6</ele><time>2026-05-01T15:45:04.001Z</time></trkpt><trkpt lat="44.80805495293159" lon="9.866484088648177"><ele>405.2</ele><time>2026-05-01T15:45:05.001Z</time></trkpt><trkpt lat="44.80807991297067" lon="9.866625579486536"><ele>405.8</ele><time>2026-05-01T15:45:06.001Z</time></trkpt><trkpt lat="44.80810631928721" lon="9.866785455892186"><ele>406.40000000000003</ele><time>2026-05-01T15:45:07.001Z</time></trkpt><trkpt lat="44.80812358901895" lon="9.866918709245914"><ele>407.0</ele><time>2026-05-01T15:45:08.001Z</time></trkpt><trkpt lat="44.808132977502154" lon="9.867047521824531"><ele>406.75</ele><time>2026-05-01T15:45:09.001Z</time></trkpt><trkpt lat="44.80816660214261" lon="9.867207078208539"><ele>406.5</ele><time>2026-05-01T15:45:10.001Z</time></trkpt><trkpt lat="44.80822680546744" lon="9.867412947204363"><ele>406.25</ele><time>2026-05-01T15:45:11.001Z</time></trkpt><trkpt lat="44.80828665396393" lon="9.86758017482051"><ele>406.0</ele><time>2026-05-01T15:45:12.001Z</time></trkpt><trkpt lat="44.808351287905495" lon="9.867763186476163"><ele>406.0</ele><time>2026-05-01T15:45:13.001Z</time></trkpt><trkpt lat="44.80840295455407" lon="9.867915618141353"><ele>406.0</ele><time>2026-05-01T15:45:14.001Z</time></trkpt><trkpt lat="44.808445158246315" lon="9.868058549335782"><ele>406.0</ele><time>2026-05-01T15:45:15.001Z</time></trkpt><trkpt lat="44.80847761600903" lon="9.868208950703641"><ele>406.0</ele><time>2026-05-01T15:45:16.001Z</time></trkpt><trkpt lat="44.80848693697158" lon="9.86836471483712"><ele>408.20000000000005</ele><time>2026-05-01T15:45:17.001Z</time></trkpt><trkpt lat="44.80847289279766" lon="9.868513186977594"><ele>410.40000000000003</ele><time>2026-05-01T15:45:18.001Z</time></trkpt><trkpt lat="44.80844691120931" lon="9.868638997425567"><ele>412.6</ele><time>2026-05-01T15:45:19.001Z</time></trkpt><trkpt lat="44.808414125379585" lon="9.868750359959929"><ele>414.8</ele><time>2026-05-01T15:45:20.001Z</time></trkpt><trkpt lat="44.808370456844806" lon="9.868854258290042"><ele>417.0</ele><time>2026-05-01T15:45:21.001Z</time></trkpt><trkpt lat="44.80831856087884" lon="9.868980149271579"><ele>417.0</ele><time>2026-05-01T15:45:22.001Z</time></trkpt><trkpt lat="44.80825870074469" lon="9.86910256632401"><ele>417.0</ele><time>2026-05-01T15:45:23.001Z</time></trkpt><trkpt lat="44.80819070318818" lon="9.869203520502909"><ele>417.0</ele><time>2026-05-01T15:45:24.001Z</time></trkpt><trkpt lat="44.8081452643785" lon="9.86931029371576"><ele>417.0</ele><time>2026-05-01T15:45:25.001Z</time></trkpt><trkpt lat="44.808121304139156" lon="9.869425042410615"><ele>417.0</ele><time>2026-05-01T15:45:26.001Z</time></trkpt><trkpt lat="44.808123113156384" lon="9.86953358785851"><ele>418.8333333333333</ele><time>2026-05-01T15:45:27.001Z</time></trkpt><trkpt lat="44.80811308068171" lon="9.869690128245052"><ele>420.66666666666663</ele><time>2026-05-01T15:45:28.001Z</time></trkpt><trkpt lat="44.80809777743209" lon="9.869839039780715"><ele>422.5</ele><time>2026-05-01T15:45:29.001Z</time></trkpt><trkpt lat="44.80806423392013" lon="9.869950286301899"><ele>424.3333333333333</ele><time>2026-05-01T15:45:30.001Z</time></trkpt><trkpt lat="44.80805013180441" lon="9.870039289463143"><ele>426.16666666666663</ele><time>2026-05-01T15:45:31.001Z</time></trkpt><trkpt lat="44.80805049388826" lon="9.8701482796233"><ele>428.0</ele><time>2026-05-01T15:45:32.001Z</time></trkpt><trkpt lat="44.808060752046245" lon="9.87027899120463"><ele>427.2</ele><time>2026-05-01T15:45:33.001Z</time></trkpt><trkpt lat="44.80806762710034" lon="9.870427607429853"><ele>426.4</ele><time>2026-05-01T15:45:34.001Z</time></trkpt><trkpt lat="44.80806789136051" lon="9.870588585611562"><ele>425.59999999999997</ele><time>2026-05-01T15:45:35.001Z</time></trkpt><trkpt lat="44.80806660652493" lon="9.870742221145601"><ele>424.79999999999995</ele><time>2026-05-01T15:45:36.001Z</time></trkpt><trkpt lat="44.80805978292599" lon="9.87088288722025"><ele>424.0</ele><time>2026-05-01T15:45:37.001Z</time></trkpt><trkpt lat="44.80806444959316" lon="9.871040812307427"><ele>424.0</ele><time>2026-05-01T15:45:38.001Z</time></trkpt><trkpt lat="44.80808871053239" lon="9.871176452440988"><ele>424.0</ele><time>2026-05-01T15:45:39.001Z</time></trkpt><trkpt lat="44.808115972200675" lon="9.871302257360265"><ele>424.0</ele><time>2026-05-01T15:45:40Z</time></trkpt><trkpt lat="44.808116175155305" lon="9.871405672398057"><ele>424.0</ele><time>2026-05-01T15:45:42Z</time></trkpt><trkpt lat="44.80811885121919" lon="9.87155696174159"><ele>424.0</ele><time>2026-05-01T15:46:41.001Z</time></trkpt><trkpt lat="44.8081418234132" lon="9.871665514637073"><ele>422.6666666666667</ele><time>2026-05-01T15:46:42.001Z</time></trkpt><trkpt lat="44.808170164887024" lon="9.871780900315066"><ele>421.33333333333337</ele><time>2026-05-01T15:46:43.001Z</time></trkpt><trkpt lat="44.80822508431299" lon="9.871923426567427"><ele>420.0</ele><time>2026-05-01T15:46:45.001Z</time></trkpt><trkpt lat="44.8082628966715" lon="9.87200326992392"><ele>418.66666666666663</ele><time>2026-05-01T15:46:46.001Z</time></trkpt><trkpt lat="44.808311534409086" lon="9.872110088576745"><ele>417.3333333333333</ele><time>2026-05-01T15:46:47.001Z</time></trkpt><trkpt lat="44.808358356397264" lon="9.872201552004421"><ele>416.0</ele><time>2026-05-01T15:46:48.001Z</time></trkpt><trkpt lat="44.808412046902056" lon="9.87229036514011"><ele>415.99999999999994</ele><time>2026-05-01T15:46:49.001Z</time></trkpt><trkpt lat="44.80845356223935" lon="9.872365737283554"><ele>416.0</ele><time>2026-05-01T15:46:50.001Z</time></trkpt><trkpt lat="44.808496845679926" lon="9.872471830327537"><ele>416.0</ele><time>2026-05-01T15:46:51.001Z</time></trkpt><trkpt lat="44.80852098238524" lon="9.872569111922296"><ele>416.0</ele><time>2026-05-01T15:46:52.001Z</time></trkpt><trkpt lat="44.80853332005592" lon="9.872666033627592"><ele>415.99999999999994</ele><time>2026-05-01T15:46:53.001Z</time></trkpt><trkpt lat="44.80853073310019" lon="9.872764197885823"><ele>416.0</ele><time>2026-05-01T15:46:54.001Z</time></trkpt><trkpt lat="44.80854280902437" lon="9.872923424839051"><ele>412.6</ele><time>2026-05-01T15:46:56.001Z</time></trkpt><trkpt lat="44.8085611582345" lon="9.873014808400868"><ele>409.20000000000005</ele><time>2026-05-01T15:46:57.001Z</time></trkpt><trkpt lat="44.808585325561566" lon="9.873110843978955"><ele>405.79999999999995</ele><time>2026-05-01T15:46:58.001Z</time></trkpt><trkpt lat="44.80866275501188" lon="9.873293807232233"><ele>402.4</ele><time>2026-05-01T15:47:00.001Z</time></trkpt><trkpt lat="44.808705123616456" lon="9.873397400153008"><ele>399.0</ele><time>2026-05-01T15:47:01.001Z</time></trkpt><trkpt lat="44.808750161616004" lon="9.873500288563827"><ele>397.2</ele><time>2026-05-01T15:47:02.001Z</time></trkpt><trkpt lat="44.80879579376917" lon="9.873612368375857"><ele>395.4</ele><time>2026-05-01T15:47:03.001Z</time></trkpt><trkpt lat="44.8088319413839" lon="9.873732352867586"><ele>393.6</ele><time>2026-05-01T15:47:04.001Z</time></trkpt><trkpt lat="44.808856798829396" lon="9.873850172860399"><ele>391.8</ele><time>2026-05-01T15:47:05.001Z</time></trkpt><trkpt lat="44.808885345276046" lon="9.873981332413116"><ele>390.0</ele><time>2026-05-01T15:47:06.001Z</time></trkpt><trkpt lat="44.80891654729391" lon="9.874109324998527"><ele>390.0</ele><time>2026-05-01T15:47:07.001Z</time></trkpt><trkpt lat="44.80892542675517" lon="9.874254157099104"><ele>390.0</ele><time>2026-05-01T15:47:08.001Z</time></trkpt><trkpt lat="44.8089323436514" lon="9.87437720262495"><ele>390.0</ele><time>2026-05-01T15:47:09.001Z</time></trkpt><trkpt lat="44.808962366130025" lon="9.874469206979885"><ele>390.0</ele><time>2026-05-01T15:47:10.001Z</time></trkpt><trkpt lat="44.80901735189624" lon="9.874561949640391"><ele>390.0</ele><time>2026-05-01T15:47:11.001Z</time></trkpt><trkpt lat="44.80908936670644" lon="9.874717412524982"><ele>388.0</ele><time>2026-05-01T15:47:12.001Z</time></trkpt><trkpt lat="44.80913621468534" lon="9.874862854161762"><ele>386.0</ele><time>2026-05-01T15:47:13.001Z</time></trkpt><trkpt lat="44.80916873131935" lon="9.875040532233466"><ele>384.0</ele><time>2026-05-01T15:47:14.001Z</time></trkpt><trkpt lat="44.80919628387993" lon="9.875228688356565"><ele>382.0</ele><time>2026-05-01T15:47:15.001Z</time></trkpt><trkpt lat="44.809244342805925" lon="9.875424911179866"><ele>381.8</ele><time>2026-05-01T15:47:16.001Z</time></trkpt><trkpt lat="44.80929535765531" lon="9.875620622610025"><ele>381.6</ele><time>2026-05-01T15:47:17.001Z</time></trkpt><trkpt lat="44.80933821548245" lon="9.875778425490237"><ele>381.40000000000003</ele><time>2026-05-01T15:47:18.001Z</time></trkpt><trkpt lat="44.80937208719163" lon="9.875901046065792"><ele>381.20000000000005</ele><time>2026-05-01T15:47:19.001Z</time></trkpt><trkpt lat="44.80940335620726" lon="9.875984737226894"><ele>381.0</ele><time>2026-05-01T15:47:20.001Z</time></trkpt><trkpt lat="44.80948496954319" lon="9.876071354650373"><ele>380.6666666666667</ele><time>2026-05-01T15:47:22.001Z</time></trkpt><trkpt lat="44.80954828788437" lon="9.87612634714317"><ele>380.3333333333333</ele><time>2026-05-01T15:47:23.001Z</time></trkpt><trkpt lat="44.809613857595615" lon="9.87617173589753"><ele>380.0</ele><time>2026-05-01T15:47:24.001Z</time></trkpt><trkpt lat="44.80968973095139" lon="9.87618717538213"><ele>379.66666666666663</ele><time>2026-05-01T15:47:25.001Z</time></trkpt><trkpt lat="44.8097876392489" lon="9.87619083201058"><ele>379.3333333333333</ele><time>2026-05-01T15:47:26.001Z</time></trkpt><trkpt lat="44.80985857942456" lon="9.876228016627746"><ele>379.0</ele><time>2026-05-01T15:47:27.001Z</time></trkpt><trkpt lat="44.80993320924116" lon="9.876333085535826"><ele>379.0</ele><time>2026-05-01T15:47:29.001Z</time></trkpt><trkpt lat="44.80996222678275" lon="9.876413543757407"><ele>379.0</ele><time>2026-05-01T15:47:30.001Z</time></trkpt><trkpt lat="44.80997692940158" lon="9.876520952789761"><ele>379.0</ele><time>2026-05-01T15:47:31.001Z</time></trkpt><trkpt lat="44.80997865097804" lon="9.876630700161114"><ele>379.0</ele><time>2026-05-01T15:47:32.001Z</time></trkpt><trkpt lat="44.80996684125035" lon="9.876758835865932"><ele>379.0</ele><time>2026-05-01T15:47:33.001Z</time></trkpt><trkpt lat="44.81000664040206" lon="9.876839015815522"><ele>379.0</ele><time>2026-05-01T15:47:34.001Z</time></trkpt><trkpt lat="44.8100464432494" lon="9.876920288650874"><ele>377.3333333333333</ele><time>2026-05-01T15:47:35.001Z</time></trkpt><trkpt lat="44.810088543570444" lon="9.877001929336267"><ele>375.66666666666663</ele><time>2026-05-01T15:47:36.001Z</time></trkpt><trkpt lat="44.81014797032206" lon="9.877079988159334"><ele>374.0</ele><time>2026-05-01T15:47:37.001Z</time></trkpt><trkpt lat="44.810201125737635" lon="9.877158287110644"><ele>372.3333333333333</ele><time>2026-05-01T15:47:38.001Z</time></trkpt><trkpt lat="44.81025695199127" lon="9.877235231668026"><ele>370.6666666666667</ele><time>2026-05-01T15:47:39.001Z</time></trkpt><trkpt lat="44.8103121895287" lon="9.877320599340296"><ele>369.0</ele><time>2026-05-01T15:47:40.001Z</time></trkpt><trkpt lat="44.810349605484966" lon="9.877406420311594"><ele>367.6</ele><time>2026-05-01T15:47:41.001Z</time></trkpt><trkpt lat="44.81037924733381" lon="9.877495229493874"><ele>366.2</ele><time>2026-05-01T15:47:42.001Z</time></trkpt><trkpt lat="44.81040041242124" lon="9.87759268541555"><ele>364.8</ele><time>2026-05-01T15:47:43.001Z</time></trkpt><trkpt lat="44.81043279198108" lon="9.877758960579794"><ele>363.40000000000003</ele><time>2026-05-01T15:47:45.001Z</time></trkpt><trkpt lat="44.8104883175193" lon="9.877907864443968"><ele>362.0</ele><time>2026-05-01T15:47:47Z</time></trkpt><trkpt lat="44.8105752056314" lon="9.87801463922428"><ele>360.5</ele><time>2026-05-01T15:47:49Z</time></trkpt><trkpt lat="44.81067414413526" lon="9.878092883875496"><ele>359.0</ele><time>2026-05-01T15:47:51Z</time></trkpt><trkpt lat="44.810766225733275" lon="9.878193178918888"><ele>357.5</ele><time>2026-05-01T15:47:53Z</time></trkpt><trkpt lat="44.81085103166156" lon="9.878309428767531"><ele>356.0</ele><time>2026-05-01T15:47:55Z</time></trkpt><trkpt lat="44.81092425634162" lon="9.878469176054642"><ele>355.0</ele><time>2026-05-01T15:47:57Z</time></trkpt><trkpt lat="44.81100898896582" lon="9.878605018692376"><ele>354.0</ele><time>2026-05-01T15:47:59Z</time></trkpt><trkpt lat="44.81106220920752" lon="9.87867638474847"><ele>353.0</ele><time>2026-05-01T15:48:00Z</time></trkpt><trkpt lat="44.81111872108052" lon="9.878729795689615"><ele>352.0</ele><time>2026-05-01T15:48:01Z</time></trkpt><trkpt lat="44.811186466881814" lon="9.878808695428692"><ele>351.0</ele><time>2026-05-01T15:48:02Z</time></trkpt><trkpt lat="44.8112421829977" lon="9.878881632014169"><ele>350.0</ele><time>2026-05-01T15:48:03Z</time></trkpt><trkpt lat="44.811291298805536" lon="9.878950039521161"><ele>350.0</ele><time>2026-05-01T15:48:04Z</time></trkpt><trkpt lat="44.811348083180796" lon="9.879032490399291"><ele>350.0</ele><time>2026-05-01T15:48:05Z</time></trkpt><trkpt lat="44.8113993894122" lon="9.879110809062766"><ele>350.0</ele><time>2026-05-01T15:48:06Z</time></trkpt><trkpt lat="44.811446674216285" lon="9.879187463835931"><ele>350.0</ele><time>2026-05-01T15:48:07Z</time></trkpt><trkpt lat="44.81152121058462" lon="9.879316667210533"><ele>350.0</ele><time>2026-05-01T15:48:09Z</time></trkpt><trkpt lat="44.81161460036164" lon="9.879416194303127"><ele>349.4</ele><time>2026-05-01T15:48:11Z</time></trkpt><trkpt lat="44.8116686518377" lon="9.879464187307773"><ele>348.8</ele><time>2026-05-01T15:48:12Z</time></trkpt><trkpt lat="44.81177229334631" lon="9.879545930053805"><ele>348.20000000000005</ele><time>2026-05-01T15:48:14Z</time></trkpt><trkpt lat="44.81186134266717" lon="9.879633381242192"><ele>347.6</ele><time>2026-05-01T15:48:16Z</time></trkpt><trkpt lat="44.81195636000147" lon="9.879727767766118"><ele>347.0</ele><time>2026-05-01T15:48:18Z</time></trkpt><trkpt lat="44.8120141177954" lon="9.879778526289732"><ele>347.0</ele><time>2026-05-01T15:48:19Z</time></trkpt><trkpt lat="44.81210902195099" lon="9.879870790309242"><ele>347.0</ele><time>2026-05-01T15:48:21Z</time></trkpt><trkpt lat="44.812213048004374" lon="9.879957601596898"><ele>347.0</ele><time>2026-05-01T15:48:23.001Z</time></trkpt><trkpt lat="44.8123169016696" lon="9.880055902695963"><ele>347.0</ele><time>2026-05-01T15:48:25.001Z</time></trkpt><trkpt lat="44.812363610587475" lon="9.880229246721248"><ele>347.33333333333337</ele><time>2026-05-01T15:48:27.001Z</time></trkpt><trkpt lat="44.81240470294107" lon="9.880323063256224"><ele>347.6666666666667</ele><time>2026-05-01T15:48:28.001Z</time></trkpt><trkpt lat="44.81244156307858" lon="9.880428181441902"><ele>348.0</ele><time>2026-05-01T15:48:29.001Z</time></trkpt><trkpt lat="44.81248239462885" lon="9.88053061181314"><ele>348.3333333333333</ele><time>2026-05-01T15:48:30.001Z</time></trkpt><trkpt lat="44.81253056189785" lon="9.880648872025699"><ele>348.66666666666663</ele><time>2026-05-01T15:48:31.001Z</time></trkpt><trkpt lat="44.81256649613032" lon="9.88074986382938"><ele>349.0</ele><time>2026-05-01T15:48:32.001Z</time></trkpt><trkpt lat="44.81258638043666" lon="9.880854426904195"><ele>349.1428571428571</ele><time>2026-05-01T15:48:33.001Z</time></trkpt><trkpt lat="44.8126019951603" lon="9.880961293191717"><ele>349.2857142857143</ele><time>2026-05-01T15:48:34.001Z</time></trkpt><trkpt lat="44.81262555368967" lon="9.881062047903482"><ele>349.42857142857144</ele><time>2026-05-01T15:48:35.001Z</time></trkpt><trkpt lat="44.81266055375733" lon="9.881148981074471"><ele>349.57142857142856</ele><time>2026-05-01T15:48:36.001Z</time></trkpt><trkpt lat="44.812706307727886" lon="9.881240624750475"><ele>349.7142857142857</ele><time>2026-05-01T15:48:37.001Z</time></trkpt><trkpt lat="44.81276409186633" lon="9.881315143106061"><ele>349.85714285714283</ele><time>2026-05-01T15:48:38.001Z</time></trkpt><trkpt lat="44.812813268650565" lon="9.881380470576515"><ele>350.0</ele><time>2026-05-01T15:48:39.001Z</time></trkpt><trkpt lat="44.812878209226" lon="9.881488904743163"><ele>349.4</ele><time>2026-05-01T15:48:41.001Z</time></trkpt><trkpt lat="44.81292031047366" lon="9.88155510785627"><ele>348.8</ele><time>2026-05-01T15:48:43.001Z</time></trkpt><trkpt lat="44.81295978133184" lon="9.88165417539871"><ele>348.20000000000005</ele><time>2026-05-01T15:48:45.001Z</time></trkpt><trkpt lat="44.81274960462167" lon="9.881735632284736"><ele>347.6</ele><time>2026-05-01T15:48:50.001Z</time></trkpt><trkpt lat="44.812674598850926" lon="9.881757524651459"><ele>347.0</ele><time>2026-05-01T15:48:51.001Z</time></trkpt><trkpt lat="44.812610185636935" lon="9.881785351190754"><ele>347.0</ele><time>2026-05-01T15:48:52.001Z</time></trkpt><trkpt lat="44.81253611194103" lon="9.881837608569207"><ele>347.0</ele><time>2026-05-01T15:48:53.001Z</time></trkpt><trkpt lat="44.81247647722149" lon="9.881886164076993"><ele>347.0</ele><time>2026-05-01T15:48:54.001Z</time></trkpt><trkpt lat="44.81239826585141" lon="9.88193857657004"><ele>347.0</ele><time>2026-05-01T15:48:55.001Z</time></trkpt><trkpt lat="44.812314109433174" lon="9.881961805532066"><ele>347.0</ele><time>2026-05-01T15:48:56.001Z</time></trkpt><trkpt lat="44.81222950010675" lon="9.882009279123356"><ele>347.0</ele><time>2026-05-01T15:48:57.001Z</time></trkpt><trkpt lat="44.81214279266479" lon="9.882051389219379"><ele>347.0</ele><time>2026-05-01T15:48:58.001Z</time></trkpt><trkpt lat="44.81203183461021" lon="9.882101448157355"><ele>347.0</ele><time>2026-05-01T15:48:59.001Z</time></trkpt><trkpt lat="44.81193032822594" lon="9.882130518110872"><ele>347.0</ele><time>2026-05-01T15:49:00.001Z</time></trkpt><trkpt lat="44.81186320807821" lon="9.882182976025046"><ele>347.0</ele><time>2026-05-01T15:49:01.001Z</time></trkpt><trkpt lat="44.81178449590961" lon="9.882246557850888"><ele>347.0</ele><time>2026-05-01T15:49:02.001Z</time></trkpt><trkpt lat="44.81169832721304" lon="9.882326544334708"><ele>344.33333333333337</ele><time>2026-05-01T15:49:03.001Z</time></trkpt><trkpt lat="44.811635848518364" lon="9.88240292461786"><ele>341.6666666666667</ele><time>2026-05-01T15:49:04.001Z</time></trkpt><trkpt lat="44.81156203885757" lon="9.882480092251248"><ele>339.0</ele><time>2026-05-01T15:49:05.001Z</time></trkpt><trkpt lat="44.811504774626066" lon="9.8825266929016"><ele>336.3333333333333</ele><time>2026-05-01T15:49:06.001Z</time></trkpt><trkpt lat="44.81144807596197" lon="9.882582583555603"><ele>333.66666666666663</ele><time>2026-05-01T15:49:07.001Z</time></trkpt><trkpt lat="44.81138465089773" lon="9.882623255373298"><ele>331.0</ele><time>2026-05-01T15:49:08.001Z</time></trkpt><trkpt lat="44.81132042951236" lon="9.882672846476403"><ele>330.16666666666663</ele><time>2026-05-01T15:49:09.001Z</time></trkpt><trkpt lat="44.81125833517886" lon="9.882751271802528"><ele>329.3333333333333</ele><time>2026-05-01T15:49:10.001Z</time></trkpt><trkpt lat="44.81119839744888" lon="9.882834679639322"><ele>328.5</ele><time>2026-05-01T15:49:11.001Z</time></trkpt><trkpt lat="44.81114707399811" lon="9.882906875364862"><ele>327.6666666666667</ele><time>2026-05-01T15:49:12.001Z</time></trkpt><trkpt lat="44.81109235791425" lon="9.882970692994872"><ele>326.83333333333337</ele><time>2026-05-01T15:49:13.001Z</time></trkpt><trkpt lat="44.81103529265587" lon="9.883038007852752"><ele>326.0</ele><time>2026-05-01T15:49:14.001Z</time></trkpt><trkpt lat="44.8109917308288" lon="9.883110972506504"><ele>325.33333333333337</ele><time>2026-05-01T15:49:15.001Z</time></trkpt><trkpt lat="44.810943118029435" lon="9.883173484549197"><ele>324.6666666666667</ele><time>2026-05-01T15:49:16.001Z</time></trkpt><trkpt lat="44.810877016158315" lon="9.883223380963868"><ele>324.0</ele><time>2026-05-01T15:49:17.001Z</time></trkpt><trkpt lat="44.81080680578437" lon="9.883256729039584"><ele>323.3333333333333</ele><time>2026-05-01T15:49:18.001Z</time></trkpt><trkpt lat="44.810714995106046" lon="9.883304023427769"><ele>322.66666666666663</ele><time>2026-05-01T15:49:19.001Z</time></trkpt><trkpt lat="44.8106289180217" lon="9.883328362940489"><ele>322.0</ele><time>2026-05-01T15:49:20.001Z</time></trkpt><trkpt lat="44.810540121980544" lon="9.883324349284132"><ele>322.0</ele><time>2026-05-01T15:49:21.001Z</time></trkpt><trkpt lat="44.810458653215704" lon="9.883311220814505"><ele>322.0</ele><time>2026-05-01T15:49:22.001Z</time></trkpt><trkpt lat="44.81038385282997" lon="9.88330949549909"><ele>322.0</ele><time>2026-05-01T15:49:23.001Z</time></trkpt><trkpt lat="44.81030617156485" lon="9.883296431513564"><ele>322.0</ele><time>2026-05-01T15:49:24.001Z</time></trkpt><trkpt lat="44.81020997710365" lon="9.883287853345651"><ele>322.0</ele><time>2026-05-01T15:49:26.001Z</time></trkpt><trkpt lat="44.81013253367379" lon="9.88323406231863"><ele>322.0</ele><time>2026-05-01T15:49:28.001Z</time></trkpt><trkpt lat="44.81004382823988" lon="9.883204419743384"><ele>319.40000000000003</ele><time>2026-05-01T15:49:29.001Z</time></trkpt><trkpt lat="44.80996961145829" lon="9.88317570107059"><ele>316.8</ele><time>2026-05-01T15:49:30.001Z</time></trkpt><trkpt lat="44.809842118966245" lon="9.883130751604076"><ele>314.2</ele><time>2026-05-01T15:49:32.001Z</time></trkpt><trkpt lat="44.80976205864134" lon="9.883108941595534"><ele>311.6</ele><time>2026-05-01T15:49:33.001Z</time></trkpt><trkpt lat="44.80967760350689" lon="9.883086818244903"><ele>309.0</ele><time>2026-05-01T15:49:34.001Z</time></trkpt><trkpt lat="44.80960085483955" lon="9.883074109662827"><ele>309.0</ele><time>2026-05-01T15:49:35.001Z</time></trkpt><trkpt lat="44.80952611521502" lon="9.883068658172505"><ele>309.0</ele><time>2026-05-01T15:49:36.001Z</time></trkpt><trkpt lat="44.8094500642175" lon="9.88307347935254"><ele>309.0</ele><time>2026-05-01T15:49:37.001Z</time></trkpt><trkpt lat="44.80935096521376" lon="9.883097803759876"><ele>309.0</ele><time>2026-05-01T15:49:39.001Z</time></trkpt><trkpt lat="44.8092306466057" lon="9.883126990951059"><ele>309.0</ele><time>2026-05-01T15:49:41.001Z</time></trkpt><trkpt lat="44.809168803708104" lon="9.883149017754416"><ele>309.0</ele><time>2026-05-01T15:49:42.001Z</time></trkpt><trkpt lat="44.8090402657267" lon="9.883187818707121"><ele>306.5714285714286</ele><time>2026-05-01T15:49:44.001Z</time></trkpt><trkpt lat="44.808970701885" lon="9.883191977594409"><ele>304.14285714285717</ele><time>2026-05-01T15:49:45.001Z</time></trkpt><trkpt lat="44.80890114028821" lon="9.883207173057736"><ele>301.7142857142857</ele><time>2026-05-01T15:49:46.001Z</time></trkpt><trkpt lat="44.80882884449132" lon="9.883230281173745"><ele>299.28571428571433</ele><time>2026-05-01T15:49:47.001Z</time></trkpt><trkpt lat="44.80876552700898" lon="9.883257725679847"><ele>296.8571428571429</ele><time>2026-05-01T15:49:48.001Z</time></trkpt><trkpt lat="44.80869870075325" lon="9.883288426971323"><ele>294.42857142857144</ele><time>2026-05-01T15:49:49.001Z</time></trkpt><trkpt lat="44.80862731819246" lon="9.883320392740613"><ele>292.0</ele><time>2026-05-01T15:49:50.002Z</time></trkpt><trkpt lat="44.808560155545585" lon="9.883350506808242"><ele>289.66666666666663</ele><time>2026-05-01T15:49:51.002Z</time></trkpt><trkpt lat="44.80849160580544" lon="9.883380785920329"><ele>287.3333333333333</ele><time>2026-05-01T15:49:52Z</time></trkpt><trkpt lat="44.80842998235768" lon="9.883407801622809"><ele>285.0</ele><time>2026-05-01T15:49:53Z</time></trkpt><trkpt lat="44.80830823176067" lon="9.883474208887245"><ele>282.6666666666667</ele><time>2026-05-01T15:49:55Z</time></trkpt><trkpt lat="44.80823588974522" lon="9.883535355316328"><ele>280.33333333333337</ele><time>2026-05-01T15:49:56Z</time></trkpt><trkpt lat="44.808174606504764" lon="9.883589701021709"><ele>278.0</ele><time>2026-05-01T15:49:57Z</time></trkpt><trkpt lat="44.80806512996924" lon="9.883661820925541"><ele>277.1666666666667</ele><time>2026-05-01T15:49:59Z</time></trkpt><trkpt lat="44.80799397723243" lon="9.883672789470015"><ele>276.33333333333337</ele><time>2026-05-01T15:50:00Z</time></trkpt><trkpt lat="44.80791447142171" lon="9.883683580443062"><ele>275.5</ele><time>2026-05-01T15:50:01Z</time></trkpt><trkpt lat="44.80783440239097" lon="9.88371016953605"><ele>274.6666666666667</ele><time>2026-05-01T15:50:02Z</time></trkpt><trkpt lat="44.80777284092615" lon="9.88375318095753"><ele>273.8333333333333</ele><time>2026-05-01T15:50:03Z</time></trkpt><trkpt lat="44.807700012053665" lon="9.883807984388412"><ele>273.0</ele><time>2026-05-01T15:50:04Z</time></trkpt><trkpt lat="44.80764381091145" lon="9.883856083536243"><ele>272.3333333333333</ele><time>2026-05-01T15:50:05Z</time></trkpt><trkpt lat="44.807591313158596" lon="9.883908445745607"><ele>271.6666666666667</ele><time>2026-05-01T15:50:06Z</time></trkpt><trkpt lat="44.80751921296478" lon="9.884015178456268"><ele>271.0</ele><time>2026-05-01T15:50:08Z</time></trkpt><trkpt lat="44.80738804744182" lon="9.883996581390043"><ele>270.33333333333337</ele><time>2026-05-01T15:50:10Z</time></trkpt><trkpt lat="44.80734053111145" lon="9.884064238266797"><ele>269.6666666666667</ele><time>2026-05-01T15:50:12Z</time></trkpt><trkpt lat="44.807284623360104" lon="9.88411053311335"><ele>269.0</ele><time>2026-05-01T15:50:13Z</time></trkpt><trkpt lat="44.80721776381684" lon="9.884154622211968"><ele>269.0</ele><time>2026-05-01T15:50:14Z</time></trkpt><trkpt lat="44.807102841896615" lon="9.88422414130425"><ele>269.0</ele><time>2026-05-01T15:50:15Z</time></trkpt><trkpt lat="44.807014123168805" lon="9.88427374474645"><ele>269.0</ele><time>2026-05-01T15:50:16Z</time></trkpt><trkpt lat="44.806940525426576" lon="9.884340445609958"><ele>269.0</ele><time>2026-05-01T15:50:17Z</time></trkpt><trkpt lat="44.80687914157527" lon="9.884374997394714"><ele>269.0</ele><time>2026-05-01T15:50:18Z</time></trkpt><trkpt lat="44.80681514187474" lon="9.884422329724272"><ele>269.0</ele><time>2026-05-01T15:50:19Z</time></trkpt><trkpt lat="44.80675579264396" lon="9.884490410056424"><ele>267.59999999999997</ele><time>2026-05-01T15:50:20Z</time></trkpt><trkpt lat="44.80665449703191" lon="9.88458911179411"><ele>266.2</ele><time>2026-05-01T15:50:22Z</time></trkpt><trkpt lat="44.80659246163852" lon="9.884612259220745"><ele>264.79999999999995</ele><time>2026-05-01T15:50:23Z</time></trkpt><trkpt lat="44.80649670552991" lon="9.884700265681674"><ele>263.4</ele><time>2026-05-01T15:50:25Z</time></trkpt><trkpt lat="44.80644919360962" lon="9.884814862343063"><ele>262.0</ele><time>2026-05-01T15:50:27Z</time></trkpt><trkpt lat="44.80643999590204" lon="9.884949772968575"><ele>262.0</ele><time>2026-05-01T15:50:29Z</time></trkpt><trkpt lat="44.806450080368535" lon="9.885066557715227"><ele>262.0</ele><time>2026-05-01T15:50:31Z</time></trkpt><trkpt lat="44.806505089455854" lon="9.885152008590277"><ele>262.0</ele><time>2026-05-01T15:50:33Z</time></trkpt><trkpt lat="44.80655713088407" lon="9.885202926916246"><ele>262.0</ele><time>2026-05-01T15:50:35Z</time></trkpt><trkpt lat="44.80661855452942" lon="9.885275823686474"><ele>262.0</ele><time>2026-05-01T15:50:37Z</time></trkpt><trkpt lat="44.806684961013985" lon="9.885321437013749"><ele>262.0</ele><time>2026-05-01T15:50:40Z</time></trkpt><trkpt lat="44.806743377545004" lon="9.88538225450086"><ele>261.2</ele><time>2026-05-01T15:50:43Z</time></trkpt><trkpt lat="44.80679435200917" lon="9.885435324056514"><ele>260.4</ele><time>2026-05-01T15:50:45Z</time></trkpt><trkpt lat="44.80676822899147" lon="9.885603627311056"><ele>259.6</ele><time>2026-05-01T15:50:47Z</time></trkpt><trkpt lat="44.80680779824199" lon="9.885678212892758"><ele>258.8</ele><time>2026-05-01T15:50:50Z</time></trkpt><trkpt lat="44.80675017640012" lon="9.8855657835408"><ele>258.0</ele><time>2026-05-01T15:51:25.001Z</time></trkpt><trkpt lat="44.80668176429421" lon="9.885418287094526"><ele>258.0</ele><time>2026-05-01T15:51:27.001Z</time></trkpt><trkpt lat="44.80662785036568" lon="9.885294699574649"><ele>258.0</ele><time>2026-05-01T15:51:29.001Z</time></trkpt><trkpt lat="44.80657998210819" lon="9.885230761585955"><ele>258.0</ele><time>2026-05-01T15:51:31.001Z</time></trkpt><trkpt lat="44.806509997269856" lon="9.885243898742761"><ele>258.0</ele><time>2026-05-01T15:51:33.001Z</time></trkpt><trkpt lat="44.80641636501505" lon="9.88536372604331"><ele>258.0</ele><time>2026-05-01T15:51:35.001Z</time></trkpt><trkpt lat="44.80637282780945" lon="9.88543985129347"><ele>258.0</ele><time>2026-05-01T15:51:36.001Z</time></trkpt><trkpt lat="44.80633062922133" lon="9.885505714871973"><ele>258.0</ele><time>2026-05-01T15:51:37.001Z</time></trkpt><trkpt lat="44.80624194049499" lon="9.885633682232307"><ele>258.0</ele><time>2026-05-01T15:51:39.001Z</time></trkpt><trkpt lat="44.80616959536617" lon="9.88566803677406"><ele>258.0</ele><time>2026-05-01T15:51:40.001Z</time></trkpt><trkpt lat="44.8060905925206" lon="9.88580885525926"><ele>258.0</ele><time>2026-05-01T15:51:42.001Z</time></trkpt><trkpt lat="44.806037208487396" lon="9.885858430734523"><ele>258.0</ele><time>2026-05-01T15:51:43.001Z</time></trkpt><trkpt lat="44.805954274616916" lon="9.885977703204171"><ele>254.83333333333334</ele><time>2026-05-01T15:51:45.001Z</time></trkpt><trkpt lat="44.80586611691468" lon="9.886103267868743"><ele>251.66666666666669</ele><time>2026-05-01T15:51:47.001Z</time></trkpt><trkpt lat="44.80581416632207" lon="9.886175058069602"><ele>248.5</ele><time>2026-05-01T15:51:48.001Z</time></trkpt><trkpt lat="44.805756826875296" lon="9.886259004187133"><ele>245.33333333333334</ele><time>2026-05-01T15:51:49.001Z</time></trkpt><trkpt lat="44.80572574434009" lon="9.886343784873313"><ele>242.16666666666669</ele><time>2026-05-01T15:51:50.001Z</time></trkpt><trkpt lat="44.80567611110757" lon="9.886454276190422"><ele>239.0</ele><time>2026-05-01T15:51:52.001Z</time></trkpt><trkpt lat="44.805662957852164" lon="9.886564954475501"><ele>239.0</ele><time>2026-05-01T15:51:54.001Z</time></trkpt><trkpt lat="44.80568718579838" lon="9.886706985503412"><ele>238.99999999999997</ele><time>2026-05-01T15:51:56.001Z</time></trkpt><trkpt lat="44.805707580096005" lon="9.88685251456584"><ele>238.99999999999997</ele><time>2026-05-01T15:51:58Z</time></trkpt><trkpt lat="44.80572371520502" lon="9.887008453844782"><ele>239.0</ele><time>2026-05-01T15:52:00Z</time></trkpt><trkpt lat="44.80572777399001" lon="9.887107581600834"><ele>239.0</ele><time>2026-05-01T15:52:01Z</time></trkpt><trkpt lat="44.80571123656153" lon="9.887275917615698"><ele>237.66666666666669</ele><time>2026-05-01T15:52:03Z</time></trkpt><trkpt lat="44.80569973347985" lon="9.887394537310154"><ele>236.33333333333334</ele><time>2026-05-01T15:52:05Z</time></trkpt><trkpt lat="44.80571326097718" lon="9.887530158963136"><ele>235.0</ele><time>2026-05-01T15:52:07Z</time></trkpt><trkpt lat="44.805758932765855" lon="9.8877036424778"><ele>233.66666666666669</ele><time>2026-05-01T15:52:09Z</time></trkpt><trkpt lat="44.805781798452095" lon="9.887789674177798"><ele>232.33333333333334</ele><time>2026-05-01T15:52:10Z</time></trkpt><trkpt lat="44.80580178112456" lon="9.887876759425088"><ele>231.0</ele><time>2026-05-01T15:52:11Z</time></trkpt><trkpt lat="44.80583544198167" lon="9.888028230613697"><ele>229.60000000000002</ele><time>2026-05-01T15:52:13Z</time></trkpt><trkpt lat="44.80585207245706" lon="9.888125530534694"><ele>228.20000000000002</ele><time>2026-05-01T15:52:14Z</time></trkpt><trkpt lat="44.8058415679879" lon="9.88828900514739"><ele>226.79999999999998</ele><time>2026-05-01T15:52:16Z</time></trkpt><trkpt lat="44.80583377709099" lon="9.888380171776715"><ele>225.39999999999998</ele><time>2026-05-01T15:52:17Z</time></trkpt><trkpt lat="44.80583411408632" lon="9.888548855849727"><ele>224.0</ele><time>2026-05-01T15:52:19Z</time></trkpt><trkpt lat="44.80581275289626" lon="9.888709145089027"><ele>223.83333333333334</ele><time>2026-05-01T15:52:21Z</time></trkpt><trkpt lat="44.805742045294025" lon="9.888845788871137"><ele>223.66666666666669</ele><time>2026-05-01T15:52:23Z</time></trkpt><trkpt lat="44.80570284893989" lon="9.888919291210023"><ele>223.5</ele><time>2026-05-01T15:52:24Z</time></trkpt><trkpt lat="44.80566061581663" lon="9.88898563310423"><ele>223.33333333333331</ele><time>2026-05-01T15:52:25Z</time></trkpt><trkpt lat="44.80560999920382" lon="9.889050630693093"><ele>223.16666666666666</ele><time>2026-05-01T15:52:26Z</time></trkpt><trkpt lat="44.80554886212334" lon="9.889090531052108"><ele>223.0</ele><time>2026-05-01T15:52:27Z</time></trkpt><trkpt lat="44.805477746362044" lon="9.889139260648518"><ele>223.0</ele><time>2026-05-01T15:52:28Z</time></trkpt><trkpt lat="44.805411333601675" lon="9.88918127710975"><ele>223.0</ele><time>2026-05-01T15:52:29Z</time></trkpt><trkpt lat="44.80534806279966" lon="9.889219272067434"><ele>223.0</ele><time>2026-05-01T15:52:30Z</time></trkpt><trkpt lat="44.805241822385014" lon="9.889275991108661"><ele>223.0</ele><time>2026-05-01T15:52:32Z</time></trkpt><trkpt lat="44.80515601735363" lon="9.889313636912194"><ele>223.0</ele><time>2026-05-01T15:52:36Z</time></trkpt><trkpt lat="44.80516464870196" lon="9.889572870340677"><ele>222.60000000000002</ele><time>2026-05-01T15:52:38Z</time></trkpt><trkpt lat="44.80518927778945" lon="9.889703530941066"><ele>222.20000000000002</ele><time>2026-05-01T15:52:39Z</time></trkpt><trkpt lat="44.80522543686048" lon="9.889837957686503"><ele>221.8</ele><time>2026-05-01T15:52:40Z</time></trkpt><trkpt lat="44.805274803193086" lon="9.889980839241856"><ele>221.4</ele><time>2026-05-01T15:52:41Z</time></trkpt><trkpt lat="44.8053332599193" lon="9.890125103397363"><ele>221.0</ele><time>2026-05-01T15:52:42Z</time></trkpt><trkpt lat="44.80539912380365" lon="9.890268599694465"><ele>220.5</ele><time>2026-05-01T15:52:43Z</time></trkpt><trkpt lat="44.80546935752093" lon="9.890421136826198"><ele>220.0</ele><time>2026-05-01T15:52:44Z</time></trkpt><trkpt lat="44.805532898463014" lon="9.89057902621633"><ele>219.5</ele><time>2026-05-01T15:52:45Z</time></trkpt><trkpt lat="44.805589116741274" lon="9.89073481997457"><ele>219.0</ele><time>2026-05-01T15:52:46Z</time></trkpt><trkpt lat="44.80563805412629" lon="9.8908802779858"><ele>218.79999999999998</ele><time>2026-05-01T15:52:47Z</time></trkpt><trkpt lat="44.80568210087573" lon="9.891016587284962"><ele>218.59999999999997</ele><time>2026-05-01T15:52:48Z</time></trkpt><trkpt lat="44.80570851177641" lon="9.891156616379273"><ele>218.4</ele><time>2026-05-01T15:52:49Z</time></trkpt><trkpt lat="44.805718131084284" lon="9.891305841978602"><ele>218.2</ele><time>2026-05-01T15:52:50Z</time></trkpt><trkpt lat="44.80571053831975" lon="9.891464590175552"><ele>218.0</ele><time>2026-05-01T15:52:51Z</time></trkpt><trkpt lat="44.80570533855266" lon="9.891615980365287"><ele>218.0</ele><time>2026-05-01T15:52:52Z</time></trkpt><trkpt lat="44.805715135527954" lon="9.89175277696046"><ele>218.0</ele><time>2026-05-01T15:52:53Z</time></trkpt><trkpt lat="44.805756980952275" lon="9.89189244696295"><ele>218.0</ele><time>2026-05-01T15:52:54Z</time></trkpt><trkpt lat="44.80581651931268" lon="9.89202389368821"><ele>218.0</ele><time>2026-05-01T15:52:55Z</time></trkpt><trkpt lat="44.80588696501541" lon="9.892147580820062"><ele>218.0</ele><time>2026-05-01T15:52:56Z</time></trkpt><trkpt lat="44.80595215574811" lon="9.892254439650287"><ele>218.2</ele><time>2026-05-01T15:52:57Z</time></trkpt><trkpt lat="44.80601236521974" lon="9.892349241455777"><ele>218.4</ele><time>2026-05-01T15:52:58Z</time></trkpt><trkpt lat="44.80606934503106" lon="9.89243031882863"><ele>218.59999999999997</ele><time>2026-05-01T15:52:59.001Z</time></trkpt><trkpt lat="44.806120174750596" lon="9.89251508502014"><ele>218.79999999999998</ele><time>2026-05-01T15:53:01.001Z</time></trkpt><trkpt lat="44.80625046815148" lon="9.892410234899279"><ele>219.0</ele><time>2026-05-01T15:53:30.001Z</time></trkpt><trkpt lat="44.806360847009095" lon="9.8923126449685"><ele>219.0</ele><time>2026-05-01T15:53:32.001Z</time></trkpt><trkpt lat="44.80643270960949" lon="9.892248811766345"><ele>218.99999999999997</ele><time>2026-05-01T15:53:33.001Z</time></trkpt><trkpt lat="44.806515477426665" lon="9.892213898607853"><ele>218.99999999999997</ele><time>2026-05-01T15:53:34.001Z</time></trkpt><trkpt lat="44.80659088150517" lon="9.892158993023388"><ele>219.0</ele><time>2026-05-01T15:53:35.001Z</time></trkpt><trkpt lat="44.806668504953414" lon="9.892102471404163"><ele>219.0</ele><time>2026-05-01T15:53:36.001Z</time></trkpt><trkpt lat="44.80676618162712" lon="9.892031347998607"><ele>219.25</ele><time>2026-05-01T15:53:37.001Z</time></trkpt><trkpt lat="44.80685957802591" lon="9.891937915319804"><ele>219.5</ele><time>2026-05-01T15:53:38.001Z</time></trkpt><trkpt lat="44.80696361564492" lon="9.891868162012942"><ele>219.75</ele><time>2026-05-01T15:53:39.001Z</time></trkpt><trkpt lat="44.807064301656084" lon="9.891799453582168"><ele>220.0</ele><time>2026-05-01T15:53:40.001Z</time></trkpt><trkpt lat="44.80716771240835" lon="9.891755124084439"><ele>220.66666666666666</ele><time>2026-05-01T15:53:41.001Z</time></trkpt><trkpt lat="44.80724806643564" lon="9.891675398131985"><ele>221.33333333333331</ele><time>2026-05-01T15:53:42.001Z</time></trkpt><trkpt lat="44.80733504913648" lon="9.891618223281274"><ele>222.0</ele><time>2026-05-01T15:53:43.001Z</time></trkpt><trkpt lat="44.80739927487963" lon="9.891573620262854"><ele>222.66666666666669</ele><time>2026-05-01T15:53:44.001Z</time></trkpt><trkpt lat="44.80747875175095" lon="9.891449156451916"><ele>223.33333333333334</ele><time>2026-05-01T15:53:46.001Z</time></trkpt><trkpt lat="44.807492210453255" lon="9.891360357219789"><ele>224.0</ele><time>2026-05-01T15:53:47.001Z</time></trkpt><trkpt lat="44.807475145256404" lon="9.891265389811855"><ele>224.00000000000003</ele><time>2026-05-01T15:53:48.001Z</time></trkpt><trkpt lat="44.80744096603712" lon="9.891179226921938"><ele>224.0</ele><time>2026-05-01T15:53:49.001Z</time></trkpt><trkpt lat="44.80741084025402" lon="9.891091463488783"><ele>224.0</ele><time>2026-05-01T15:53:50.001Z</time></trkpt><trkpt lat="44.807421282244434" lon="9.890932642872787"><ele>224.0</ele><time>2026-05-01T15:53:52.001Z</time></trkpt><trkpt lat="44.80746761197252" lon="9.890866664610797"><ele>224.00000000000003</ele><time>2026-05-01T15:53:53.001Z</time></trkpt><trkpt lat="44.80756693646364" lon="9.890771207571008"><ele>224.0</ele><time>2026-05-01T15:53:55.001Z</time></trkpt><trkpt lat="44.807617416282696" lon="9.890705185356376"><ele>226.28571428571428</ele><time>2026-05-01T15:53:56.001Z</time></trkpt><trkpt lat="44.80768126334543" lon="9.890658496805424"><ele>228.57142857142856</ele><time>2026-05-01T15:53:57.001Z</time></trkpt><trkpt lat="44.80774369578248" lon="9.890638246805803"><ele>230.85714285714286</ele><time>2026-05-01T15:53:58.001Z</time></trkpt><trkpt lat="44.807807626585465" lon="9.890595240424055"><ele>233.14285714285714</ele><time>2026-05-01T15:53:59.001Z</time></trkpt><trkpt lat="44.80786822796496" lon="9.89052973428223"><ele>235.42857142857142</ele><time>2026-05-01T15:54:00.001Z</time></trkpt><trkpt lat="44.807937328420316" lon="9.890485776021114"><ele>237.71428571428572</ele><time>2026-05-01T15:54:01.001Z</time></trkpt><trkpt lat="44.80800151304125" lon="9.89043498371174"><ele>240.0</ele><time>2026-05-01T15:54:02.001Z</time></trkpt><trkpt lat="44.80807287118074" lon="9.890378654932082"><ele>240.0</ele><time>2026-05-01T15:54:03.001Z</time></trkpt><trkpt lat="44.80818244648069" lon="9.890301258644575"><ele>240.0</ele><time>2026-05-01T15:54:05Z</time></trkpt><trkpt lat="44.80828109714276" lon="9.89025609145344"><ele>240.0</ele><time>2026-05-01T15:54:07Z</time></trkpt><trkpt lat="44.80838367007726" lon="9.890251983988883"><ele>240.0</ele><time>2026-05-01T15:54:09Z</time></trkpt><trkpt lat="44.80844786517189" lon="9.890311585847483"><ele>240.0</ele><time>2026-05-01T15:54:12Z</time></trkpt><trkpt lat="44.80851838790971" lon="9.890367817908091"><ele>241.0</ele><time>2026-05-01T15:55:20.001Z</time></trkpt><trkpt lat="44.808592404664495" lon="9.890424709037699"><ele>242.0</ele><time>2026-05-01T15:55:22.001Z</time></trkpt><trkpt lat="44.808688426954205" lon="9.890380899416527"><ele>243.0</ele><time>2026-05-01T15:55:24.001Z</time></trkpt><trkpt lat="44.80877641386095" lon="9.890295709497247"><ele>244.0</ele><time>2026-05-01T15:55:26.001Z</time></trkpt><trkpt lat="44.808868297862716" lon="9.89023546776107"><ele>245.0</ele><time>2026-05-01T15:55:28.001Z</time></trkpt><trkpt lat="44.808931474636886" lon="9.890231485324032"><ele>245.0</ele><time>2026-05-01T15:55:29.001Z</time></trkpt><trkpt lat="44.80899160121146" lon="9.89027466950323"><ele>245.0</ele><time>2026-05-01T15:55:30.001Z</time></trkpt><trkpt lat="44.80905486475687" lon="9.89029135057253"><ele>245.0</ele><time>2026-05-01T15:55:31.001Z</time></trkpt><trkpt lat="44.80912117818202" lon="9.89030119947849"><ele>245.0</ele><time>2026-05-01T15:55:32.001Z</time></trkpt><trkpt lat="44.80919868730897" lon="9.890317041913137"><ele>245.0</ele><time>2026-05-01T15:55:33.001Z</time></trkpt><trkpt lat="44.809281486845016" lon="9.890333965677343"><ele>245.0</ele><time>2026-05-01T15:55:34.001Z</time></trkpt><trkpt lat="44.809366489247374" lon="9.890351339694988"><ele>245.0</ele><time>2026-05-01T15:55:35.001Z</time></trkpt><trkpt lat="44.80944032527777" lon="9.89036643137056"><ele>246.2</ele><time>2026-05-01T15:55:36.001Z</time></trkpt><trkpt lat="44.80950564217683" lon="9.890294062041999"><ele>247.4</ele><time>2026-05-01T15:55:37.001Z</time></trkpt><trkpt lat="44.80955369243142" lon="9.89038303204494"><ele>248.60000000000002</ele><time>2026-05-01T15:55:38.001Z</time></trkpt><trkpt lat="44.80959816093897" lon="9.890471942860552"><ele>249.8</ele><time>2026-05-01T15:55:39.001Z</time></trkpt><trkpt lat="44.80966018002494" lon="9.890593889293688"><ele>251.0</ele><time>2026-05-01T15:55:40.001Z</time></trkpt><trkpt lat="44.80972948298242" lon="9.890718980710037"><ele>251.0</ele><time>2026-05-01T15:55:41.001Z</time></trkpt><trkpt lat="44.8098011618607" lon="9.890856977121041"><ele>251.00000000000003</ele><time>2026-05-01T15:55:42.001Z</time></trkpt><trkpt lat="44.80985809295839" lon="9.890979170056605"><ele>251.00000000000003</ele><time>2026-05-01T15:55:43.001Z</time></trkpt><trkpt lat="44.80990477960123" lon="9.891100164682808"><ele>251.0</ele><time>2026-05-01T15:55:44.001Z</time></trkpt><trkpt lat="44.80993996755526" lon="9.891202512476706"><ele>251.0</ele><time>2026-05-01T15:55:45.001Z</time></trkpt><trkpt lat="44.80996050786795" lon="9.891379479484469"><ele>250.0</ele><time>2026-05-01T15:55:47.001Z</time></trkpt><trkpt lat="44.809948039137495" lon="9.891578235918068"><ele>249.00000000000003</ele><time>2026-05-01T15:55:49.001Z</time></trkpt><trkpt lat="44.809938649737106" lon="9.891698807096194"><ele>248.00000000000003</ele><time>2026-05-01T15:55:50.001Z</time></trkpt><trkpt lat="44.8099391378767" lon="9.89185420783651"><ele>247.0</ele><time>2026-05-01T15:55:52.001Z</time></trkpt><trkpt lat="44.809958184284476" lon="9.891944647099558"><ele>246.0</ele><time>2026-05-01T15:55:53.001Z</time></trkpt><trkpt lat="44.80998579498959" lon="9.892030776825026"><ele>245.33333333333334</ele><time>2026-05-01T15:55:54.001Z</time></trkpt><trkpt lat="44.81002216834615" lon="9.892122950782168"><ele>244.66666666666669</ele><time>2026-05-01T15:55:55.001Z</time></trkpt><trkpt lat="44.81008849166075" lon="9.892253849519252"><ele>244.0</ele><time>2026-05-01T15:55:57.001Z</time></trkpt><trkpt lat="44.81017415032949" lon="9.892363841092124"><ele>243.33333333333334</ele><time>2026-05-01T15:55:59.001Z</time></trkpt><trkpt lat="44.81022889637368" lon="9.89241929845627"><ele>242.66666666666669</ele><time>2026-05-01T15:56:00.001Z</time></trkpt><trkpt lat="44.81027909276394" lon="9.892482116214673"><ele>242.0</ele><time>2026-05-01T15:56:01.001Z</time></trkpt><trkpt lat="44.8103212780965" lon="9.89256951248247"><ele>243.00000000000003</ele><time>2026-05-01T15:56:02.001Z</time></trkpt><trkpt lat="44.81034909612883" lon="9.892675878299436"><ele>244.0</ele><time>2026-05-01T15:56:03.002Z</time></trkpt><trkpt lat="44.81036923723906" lon="9.892784725298057"><ele>245.0</ele><time>2026-05-01T15:56:04.002Z</time></trkpt><trkpt lat="44.81037576810803" lon="9.892882832627489"><ele>246.0</ele><time>2026-05-01T15:56:05.002Z</time></trkpt><trkpt lat="44.81043350237596" lon="9.893055220100358"><ele>247.00000000000003</ele><time>2026-05-01T15:56:07.002Z</time></trkpt><trkpt lat="44.810479301441944" lon="9.89314897396904"><ele>248.0</ele><time>2026-05-01T15:56:08.002Z</time></trkpt><trkpt lat="44.81053537306901" lon="9.893208827898507"><ele>248.00000000000003</ele><time>2026-05-01T15:56:12Z</time></trkpt><trkpt lat="44.810574651513015" lon="9.893308463262423"><ele>248.0</ele><time>2026-05-01T15:56:16Z</time></trkpt><trkpt lat="44.81062549411845" lon="9.89337307122314"><ele>248.0</ele><time>2026-05-01T15:56:18Z</time></trkpt><trkpt lat="44.810656030927014" lon="9.89346681076062"><ele>248.0</ele><time>2026-05-01T15:56:21Z</time></trkpt><trkpt lat="44.81069445271061" lon="9.893561945208747"><ele>248.00000000000003</ele><time>2026-05-01T15:56:27Z</time></trkpt><trkpt lat="44.81074518426705" lon="9.893653176003518"><ele>248.0</ele><time>2026-05-01T15:56:30Z</time></trkpt><trkpt lat="44.810820571724825" lon="9.893668590443536"><ele>247.60000000000002</ele><time>2026-05-01T15:56:39Z</time></trkpt><trkpt lat="44.81090320572062" lon="9.893608124741093"><ele>247.20000000000002</ele><time>2026-05-01T15:56:41Z</time></trkpt><trkpt lat="44.810982558866726" lon="9.893604300507889"><ele>246.8</ele><time>2026-05-01T15:56:43Z</time></trkpt><trkpt lat="44.8110975913191" lon="9.893560187577396"><ele>246.4</ele><time>2026-05-01T15:56:45Z</time></trkpt><trkpt lat="44.811174320280216" lon="9.893539498283436"><ele>246.0</ele><time>2026-05-01T15:56:46Z</time></trkpt><trkpt lat="44.81127838935225" lon="9.89352844516359"><ele>248.83333333333334</ele><time>2026-05-01T15:56:47Z</time></trkpt><trkpt lat="44.81137959607702" lon="9.893511915813049"><ele>251.66666666666669</ele><time>2026-05-01T15:56:49Z</time></trkpt><trkpt lat="44.81142136207131" lon="9.893599988628301"><ele>254.5</ele><time>2026-05-01T15:56:53Z</time></trkpt><trkpt lat="44.81138558713394" lon="9.893706228687758"><ele>257.33333333333337</ele><time>2026-05-01T15:56:56Z</time></trkpt><trkpt lat="44.81136894125239" lon="9.893820034246264"><ele>260.1666666666667</ele><time>2026-05-01T15:56:58.001Z</time></trkpt><trkpt lat="44.81136813780937" lon="9.893963323236658"><ele>263.0</ele><time>2026-05-01T15:57:00.001Z</time></trkpt><trkpt lat="44.811379882586785" lon="9.894098684050864"><ele>263.0</ele><time>2026-05-01T15:57:02.001Z</time></trkpt><trkpt lat="44.81139239385885" lon="9.894233957569513"><ele>263.0</ele><time>2026-05-01T15:57:04.001Z</time></trkpt><trkpt lat="44.81140290214104" lon="9.894358895236966"><ele>263.0</ele><time>2026-05-01T15:57:06.001Z</time></trkpt><trkpt lat="44.81141085870651" lon="9.894485673119652"><ele>263.0</ele><time>2026-05-01T15:57:08.001Z</time></trkpt><trkpt lat="44.81141793362953" lon="9.894592211908082"><ele>263.0</ele><time>2026-05-01T15:57:10.001Z</time></trkpt><trkpt lat="44.81142202733831" lon="9.894694376893662"><ele>263.0</ele><time>2026-05-01T15:57:12.001Z</time></trkpt><trkpt lat="44.81141877188162" lon="9.894829739213924"><ele>262.5</ele><time>2026-05-01T15:57:14.001Z</time></trkpt><trkpt lat="44.81141870644098" lon="9.894967794463366"><ele>262.0</ele><time>2026-05-01T15:57:16.001Z</time></trkpt><trkpt lat="44.81138530134148" lon="9.895106116110695"><ele>261.5</ele><time>2026-05-01T15:57:18.001Z</time></trkpt><trkpt lat="44.811337875831114" lon="9.89516507598637"><ele>261.0</ele><time>2026-05-01T15:57:19.001Z</time></trkpt><trkpt lat="44.81126752263523" lon="9.895178232303362"><ele>260.5</ele><time>2026-05-01T15:57:20.001Z</time></trkpt><trkpt lat="44.81120545302639" lon="9.895214405062042"><ele>260.0</ele><time>2026-05-01T15:57:21.001Z</time></trkpt><trkpt lat="44.81114657960615" lon="9.895250788934668"><ele>258.2</ele><time>2026-05-01T15:57:22.001Z</time></trkpt><trkpt lat="44.81108917126248" lon="9.895306730084451"><ele>256.4</ele><time>2026-05-01T15:57:23.001Z</time></trkpt><trkpt lat="44.81098072824251" lon="9.895383177210476"><ele>254.60000000000002</ele><time>2026-05-01T15:57:25.001Z</time></trkpt><trkpt lat="44.81090129447221" lon="9.895526014168402"><ele>252.8</ele><time>2026-05-01T15:57:27.001Z</time></trkpt><trkpt lat="44.81085417186516" lon="9.89561503020165"><ele>251.0</ele><time>2026-05-01T15:57:28.001Z</time></trkpt><trkpt lat="44.81084251427864" lon="9.895738939914288"><ele>249.33333333333334</ele><time>2026-05-01T15:57:29.001Z</time></trkpt><trkpt lat="44.81082347690814" lon="9.89586007245786"><ele>247.66666666666669</ele><time>2026-05-01T15:57:30.001Z</time></trkpt><trkpt lat="44.810807230933555" lon="9.895984962834317"><ele>246.0</ele><time>2026-05-01T15:57:31.001Z</time></trkpt><trkpt lat="44.81079534514012" lon="9.896098426030989"><ele>244.33333333333331</ele><time>2026-05-01T15:57:32.001Z</time></trkpt><trkpt lat="44.8107763193003" lon="9.896204255528497"><ele>242.66666666666666</ele><time>2026-05-01T15:57:33.001Z</time></trkpt><trkpt lat="44.81073383362045" lon="9.896279252038958"><ele>241.0</ele><time>2026-05-01T15:57:34.001Z</time></trkpt><trkpt lat="44.81071412215184" lon="9.896368613753234"><ele>239.83333333333331</ele><time>2026-05-01T15:57:35.001Z</time></trkpt><trkpt lat="44.810640912018656" lon="9.89641468592984"><ele>238.66666666666666</ele><time>2026-05-01T15:57:36.001Z</time></trkpt><trkpt lat="44.81056616409124" lon="9.896478959686041"><ele>237.5</ele><time>2026-05-01T15:57:37.001Z</time></trkpt><trkpt lat="44.810491231050804" lon="9.896544006606959"><ele>236.33333333333331</ele><time>2026-05-01T15:57:38.001Z</time></trkpt><trkpt lat="44.81043567557556" lon="9.896616498263027"><ele>235.16666666666666</ele><time>2026-05-01T15:57:39.001Z</time></trkpt><trkpt lat="44.81036959830605" lon="9.896651300129118"><ele>234.0</ele><time>2026-05-01T15:57:40.001Z</time></trkpt><trkpt lat="44.810307707352266" lon="9.896683124110996"><ele>232.66666666666666</ele><time>2026-05-01T15:57:41.001Z</time></trkpt><trkpt lat="44.81024959298569" lon="9.89676231419927"><ele>231.33333333333331</ele><time>2026-05-01T15:57:42.001Z</time></trkpt><trkpt lat="44.81019798612876" lon="9.89683741877534"><ele>230.0</ele><time>2026-05-01T15:57:43.001Z</time></trkpt><trkpt lat="44.810160125488" lon="9.896934941976099"><ele>228.66666666666666</ele><time>2026-05-01T15:57:44.001Z</time></trkpt><trkpt lat="44.81013947431135" lon="9.897055528268499"><ele>227.33333333333331</ele><time>2026-05-01T15:57:45.001Z</time></trkpt><trkpt lat="44.81012912550337" lon="9.897174964948972"><ele>226.0</ele><time>2026-05-01T15:57:46.001Z</time></trkpt><trkpt lat="44.81011080816103" lon="9.89726745415493"><ele>224.66666666666666</ele><time>2026-05-01T15:57:47.001Z</time></trkpt><trkpt lat="44.81005080664645" lon="9.897326904526018"><ele>223.33333333333331</ele><time>2026-05-01T15:57:48.001Z</time></trkpt><trkpt lat="44.809972197525546" lon="9.897344431593247"><ele>222.0</ele><time>2026-05-01T15:57:49.001Z</time></trkpt><trkpt lat="44.80988123703555" lon="9.89736338489543"><ele>220.66666666666669</ele><time>2026-05-01T15:57:50.001Z</time></trkpt><trkpt lat="44.80979166022266" lon="9.897391030173441"><ele>219.33333333333334</ele><time>2026-05-01T15:57:51.001Z</time></trkpt><trkpt lat="44.80970584392523" lon="9.897447567034607"><ele>218.0</ele><time>2026-05-01T15:57:52.001Z</time></trkpt><trkpt lat="44.809623600450394" lon="9.89749470243534"><ele>218.00000000000003</ele><time>2026-05-01T15:57:53.001Z</time></trkpt><trkpt lat="44.80954377899992" lon="9.89755556015371"><ele>218.0</ele><time>2026-05-01T15:57:54.001Z</time></trkpt><trkpt lat="44.80947422392996" lon="9.89762395864772"><ele>218.0</ele><time>2026-05-01T15:57:55.001Z</time></trkpt><trkpt lat="44.80941508176838" lon="9.897691008040914"><ele>218.0</ele><time>2026-05-01T15:57:56.001Z</time></trkpt><trkpt lat="44.80933873405607" lon="9.897728640174607"><ele>218.00000000000003</ele><time>2026-05-01T15:57:57.001Z</time></trkpt><trkpt lat="44.809277221344445" lon="9.897764345102706"><ele>218.0</ele><time>2026-05-01T15:57:58.001Z</time></trkpt><trkpt lat="44.80921275782995" lon="9.89779690111614"><ele>216.57142857142858</ele><time>2026-05-01T15:57:59.001Z</time></trkpt><trkpt lat="44.80914636066747" lon="9.897847345574155"><ele>215.14285714285717</ele><time>2026-05-01T15:58:00.001Z</time></trkpt><trkpt lat="44.809072064634144" lon="9.897846679975656"><ele>213.71428571428572</ele><time>2026-05-01T15:58:01.001Z</time></trkpt><trkpt lat="44.80899871788994" lon="9.89785912435516"><ele>212.28571428571428</ele><time>2026-05-01T15:58:02.001Z</time></trkpt><trkpt lat="44.80892897708328" lon="9.897856214280884"><ele>210.85714285714286</ele><time>2026-05-01T15:58:03.001Z</time></trkpt><trkpt lat="44.80885764554891" lon="9.897853721954574"><ele>209.42857142857142</ele><time>2026-05-01T15:58:04.001Z</time></trkpt><trkpt lat="44.808781466194674" lon="9.897870600736805"><ele>208.0</ele><time>2026-05-01T15:58:05.001Z</time></trkpt><trkpt lat="44.808705897956095" lon="9.897860753003469"><ele>207.99999999999997</ele><time>2026-05-01T15:58:06.001Z</time></trkpt><trkpt lat="44.80863204086651" lon="9.897848109899305"><ele>208.0</ele><time>2026-05-01T15:58:07.001Z</time></trkpt><trkpt lat="44.80855470239181" lon="9.897825605149448"><ele>208.0</ele><time>2026-05-01T15:58:08.002Z</time></trkpt><trkpt lat="44.808490683502896" lon="9.897767299250017"><ele>208.0</ele><time>2026-05-01T15:58:09.002Z</time></trkpt><trkpt lat="44.80841889601009" lon="9.89772461961333"><ele>207.99999999999997</ele><time>2026-05-01T15:58:10.002Z</time></trkpt><trkpt lat="44.80834810964591" lon="9.897679595711548"><ele>208.0</ele><time>2026-05-01T15:58:11.002Z</time></trkpt><trkpt lat="44.808271353141016" lon="9.89764201299879"><ele>208.83333333333331</ele><time>2026-05-01T15:58:12.002Z</time></trkpt><trkpt lat="44.808207407459385" lon="9.897583120963501"><ele>209.66666666666666</ele><time>2026-05-01T15:58:13.002Z</time></trkpt><trkpt lat="44.80813854326061" lon="9.897534954388506"><ele>210.5</ele><time>2026-05-01T15:58:14.002Z</time></trkpt><trkpt lat="44.808063701160336" lon="9.897507530614519"><ele>211.33333333333331</ele><time>2026-05-01T15:58:15.002Z</time></trkpt><trkpt lat="44.80799331097292" lon="9.8974531753999"><ele>212.16666666666666</ele><time>2026-05-01T15:58:16Z</time></trkpt><trkpt lat="44.80792399584644" lon="9.89739958450507"><ele>213.0</ele><time>2026-05-01T15:58:17Z</time></trkpt><trkpt lat="44.807844148395525" lon="9.897380502915324"><ele>213.0</ele><time>2026-05-01T15:58:18Z</time></trkpt><trkpt lat="44.807759140156286" lon="9.897363823039012"><ele>213.0</ele><time>2026-05-01T15:58:19Z</time></trkpt><trkpt lat="44.807674451574385" lon="9.897340484020553"><ele>213.0</ele><time>2026-05-01T15:58:20.001Z</time></trkpt><trkpt lat="44.807588387271515" lon="9.897341295120995"><ele>213.0</ele><time>2026-05-01T15:58:21Z</time></trkpt><trkpt lat="44.80751402219598" lon="9.897343926837447"><ele>213.0</ele><time>2026-05-01T15:58:22Z</time></trkpt><trkpt lat="44.80744855491734" lon="9.897356733408026"><ele>213.0</ele><time>2026-05-01T15:58:23Z</time></trkpt><trkpt lat="44.80734854362826" lon="9.89737315008274"><ele>212.5</ele><time>2026-05-01T15:58:25Z</time></trkpt><trkpt lat="44.80727819381349" lon="9.89739941809365"><ele>212.0</ele><time>2026-05-01T15:58:28Z</time></trkpt><trkpt lat="44.80716428895516" lon="9.897474132792615"><ele>211.5</ele><time>2026-05-01T15:58:42Z</time></trkpt><trkpt lat="44.807106306724144" lon="9.897522825948558"><ele>211.0</ele><time>2026-05-01T15:58:43Z</time></trkpt><trkpt lat="44.8070451332589" lon="9.897561622146213"><ele>210.5</ele><time>2026-05-01T15:58:44Z</time></trkpt><trkpt lat="44.80699993556381" lon="9.897628447341061"><ele>210.0</ele><time>2026-05-01T15:58:45Z</time></trkpt><trkpt lat="44.80694473885307" lon="9.89768132456533"><ele>209.0</ele><time>2026-05-01T15:58:46Z</time></trkpt><trkpt lat="44.80682587131796" lon="9.897622525593466"><ele>208.0</ele><time>2026-05-01T15:58:48Z</time></trkpt><trkpt lat="44.806754754050424" lon="9.897671419383968"><ele>207.0</ele><time>2026-05-01T15:58:50Z</time></trkpt><trkpt lat="44.80667946912486" lon="9.897701296518012"><ele>206.0</ele><time>2026-05-01T15:58:52Z</time></trkpt><trkpt lat="44.80661646825292" lon="9.897713952768669"><ele>205.0</ele><time>2026-05-01T15:58:54Z</time></trkpt><trkpt lat="44.806550822952154" lon="9.897739281225814"><ele>204.0</ele><time>2026-05-01T15:58:57.001Z</time></trkpt><trkpt lat="44.80648628721823" lon="9.897745993149451"><ele>204.0</ele><time>2026-05-01T15:59:00.001Z</time></trkpt><trkpt lat="44.806397353297506" lon="9.897752494841159"><ele>204.0</ele><time>2026-05-01T15:59:02.001Z</time></trkpt><trkpt lat="44.806313522991765" lon="9.897760819481872"><ele>204.0</ele><time>2026-05-01T15:59:04.001Z</time></trkpt><trkpt lat="44.80622771187424" lon="9.897792388062603"><ele>204.0</ele><time>2026-05-01T15:59:06.001Z</time></trkpt><trkpt lat="44.806177912889" lon="9.897860160758734"><ele>204.0</ele><time>2026-05-01T15:59:08.001Z</time></trkpt><trkpt lat="44.80616237217919" lon="9.898008746425898"><ele>204.0</ele><time>2026-05-01T15:59:11.001Z</time></trkpt><trkpt lat="44.80612662739522" lon="9.898144129482697"><ele>204.0</ele><time>2026-05-01T15:59:14.001Z</time></trkpt><trkpt lat="44.8061206310977" lon="9.89825818986701"><ele>204.0</ele><time>2026-05-01T15:59:18.001Z</time></trkpt><trkpt lat="44.80612137471565" lon="9.898359179453962"><ele>204.0</ele><time>2026-05-01T15:59:22.001Z</time></trkpt><trkpt lat="44.80613990356412" lon="9.898499421193886"><ele>204.0</ele><time>2026-05-01T15:59:31.001Z</time></trkpt><trkpt lat="44.806156978855554" lon="9.898594504291362"><ele>204.0</ele><time>2026-05-01T15:59:32.001Z</time></trkpt><trkpt lat="44.806180985642705" lon="9.89869762187368"><ele>204.0</ele><time>2026-05-01T15:59:33.001Z</time></trkpt><trkpt lat="44.806201805868525" lon="9.898807207866883"><ele>204.0</ele><time>2026-05-01T15:59:34.001Z</time></trkpt><trkpt lat="44.806222406856506" lon="9.898900180181707"><ele>204.0</ele><time>2026-05-01T15:59:35.001Z</time></trkpt><trkpt lat="44.806254467637736" lon="9.89899889594513"><ele>204.0</ele><time>2026-05-01T15:59:36.001Z</time></trkpt><trkpt lat="44.80629729591455" lon="9.899105925798002"><ele>204.0</ele><time>2026-05-01T15:59:37.001Z</time></trkpt><trkpt lat="44.80634493436737" lon="9.899218661687861"><ele>204.0</ele><time>2026-05-01T15:59:38.001Z</time></trkpt><trkpt lat="44.80639078143834" lon="9.899322560229802"><ele>204.0</ele><time>2026-05-01T15:59:39.001Z</time></trkpt><trkpt lat="44.806424596138754" lon="9.899410561082814"><ele>204.39999999999998</ele><time>2026-05-01T15:59:40.001Z</time></trkpt><trkpt lat="44.80644938633883" lon="9.899512637525648"><ele>204.8</ele><time>2026-05-01T15:59:41.001Z</time></trkpt><trkpt lat="44.80647975576212" lon="9.899620020254273"><ele>205.2</ele><time>2026-05-01T15:59:42.001Z</time></trkpt><trkpt lat="44.80651658463363" lon="9.899707393340837"><ele>205.60000000000002</ele><time>2026-05-01T15:59:43.001Z</time></trkpt><trkpt lat="44.80658301326336" lon="9.899849869091868"><ele>206.0</ele><time>2026-05-01T15:59:45.001Z</time></trkpt><trkpt lat="44.806620966893504" lon="9.89999471856719"><ele>206.20000000000002</ele><time>2026-05-01T15:59:47.001Z</time></trkpt><trkpt lat="44.80665275919783" lon="9.900098885244079"><ele>206.4</ele><time>2026-05-01T15:59:49.001Z</time></trkpt><trkpt lat="44.80669370210974" lon="9.900217228256098"><ele>206.6</ele><time>2026-05-01T15:59:51.001Z</time></trkpt><trkpt lat="44.80673213757186" lon="9.90034802777125"><ele>206.8</ele><time>2026-05-01T15:59:53.001Z</time></trkpt><trkpt lat="44.80677028452303" lon="9.90050411550033"><ele>207.0</ele><time>2026-05-01T15:59:55.001Z</time></trkpt><trkpt lat="44.806792553923444" lon="9.900621485203626"><ele>206.39999999999998</ele><time>2026-05-01T15:59:57.001Z</time></trkpt><trkpt lat="44.806829366914386" lon="9.900746408046366"><ele>205.79999999999998</ele><time>2026-05-01T15:59:59.001Z</time></trkpt><trkpt lat="44.80689247340675" lon="9.900891747710086"><ele>205.2</ele><time>2026-05-01T16:00:01.001Z</time></trkpt><trkpt lat="44.80693805866959" lon="9.901052321399046"><ele>204.6</ele><time>2026-05-01T16:00:03.001Z</time></trkpt><trkpt lat="44.806971445650774" lon="9.90113908995032"><ele>204.0</ele><time>2026-05-01T16:00:04.001Z</time></trkpt><trkpt lat="44.80700617729521" lon="9.90123630019136"><ele>204.0</ele><time>2026-05-01T16:00:05.001Z</time></trkpt><trkpt lat="44.80703589590269" lon="9.901334437771052"><ele>204.0</ele><time>2026-05-01T16:00:06.001Z</time></trkpt><trkpt lat="44.807073787926385" lon="9.901411832117489"><ele>204.0</ele><time>2026-05-01T16:00:07.001Z</time></trkpt><trkpt lat="44.80710415584771" lon="9.901505501280711"><ele>204.0</ele><time>2026-05-01T16:00:08.001Z</time></trkpt><trkpt lat="44.80713193512872" lon="9.901593174360585"><ele>204.0</ele><time>2026-05-01T16:00:09.002Z</time></trkpt><trkpt lat="44.807149182642775" lon="9.901683824991917"><ele>204.0</ele><time>2026-05-01T16:00:10.002Z</time></trkpt><trkpt lat="44.80717133664875" lon="9.901772589954914"><ele>204.0</ele><time>2026-05-01T16:00:11.002Z</time></trkpt><trkpt lat="44.807224481028044" lon="9.901935831770581"><ele>204.39999999999998</ele><time>2026-05-01T16:00:13.002Z</time></trkpt><trkpt lat="44.80726686829592" lon="9.902089639273285"><ele>204.8</ele><time>2026-05-01T16:00:15.002Z</time></trkpt><trkpt lat="44.80730631929151" lon="9.902183049006002"><ele>205.2</ele><time>2026-05-01T16:00:16.002Z</time></trkpt><trkpt lat="44.80735833715568" lon="9.902276397568151"><ele>205.60000000000002</ele><time>2026-05-01T16:00:17.002Z</time></trkpt><trkpt lat="44.80741996644966" lon="9.902367206776393"><ele>206.0</ele><time>2026-05-01T16:00:18.002Z</time></trkpt><trkpt lat="44.80748889054957" lon="9.902458945457091"><ele>206.0</ele><time>2026-05-01T16:00:19.002Z</time></trkpt><trkpt lat="44.80754130333749" lon="9.90254665389423"><ele>206.0</ele><time>2026-05-01T16:00:20.002Z</time></trkpt><trkpt lat="44.80758612608551" lon="9.90261812516676"><ele>206.0</ele><time>2026-05-01T16:00:21.002Z</time></trkpt><trkpt lat="44.80766324065068" lon="9.902725203642456"><ele>206.0</ele><time>2026-05-01T16:00:23Z</time></trkpt><trkpt lat="44.80773304960476" lon="9.902827954964474"><ele>206.0</ele><time>2026-05-01T16:00:25Z</time></trkpt><trkpt lat="44.80780566286235" lon="9.902922005939793"><ele>205.83333333333334</ele><time>2026-05-01T16:00:27Z</time></trkpt><trkpt lat="44.80789155759523" lon="9.903042235572418"><ele>205.66666666666669</ele><time>2026-05-01T16:00:29Z</time></trkpt><trkpt lat="44.80793853552499" lon="9.903102983495371"><ele>205.5</ele><time>2026-05-01T16:00:30Z</time></trkpt><trkpt lat="44.80798650203614" lon="9.903171028369952"><ele>205.33333333333331</ele><time>2026-05-01T16:00:31Z</time></trkpt><trkpt lat="44.80803817168948" lon="9.903241514324039"><ele>205.16666666666666</ele><time>2026-05-01T16:00:32Z</time></trkpt><trkpt lat="44.808099075018234" lon="9.903317052966463"><ele>205.0</ele><time>2026-05-01T16:00:33Z</time></trkpt><trkpt lat="44.80815800564359" lon="9.903392693015826"><ele>205.8</ele><time>2026-05-01T16:00:34Z</time></trkpt><trkpt lat="44.80822536596467" lon="9.90347265245444"><ele>206.6</ele><time>2026-05-01T16:00:35Z</time></trkpt><trkpt lat="44.80829898174214" lon="9.903551306490485"><ele>207.39999999999998</ele><time>2026-05-01T16:00:36Z</time></trkpt><trkpt lat="44.80839336472238" lon="9.903633325735408"><ele>208.2</ele><time>2026-05-01T16:00:37Z</time></trkpt><trkpt lat="44.808514558044976" lon="9.903737212047167"><ele>209.0</ele><time>2026-05-01T16:00:38Z</time></trkpt><trkpt lat="44.808633095838495" lon="9.903852642730065"><ele>208.0</ele><time>2026-05-01T16:00:39Z</time></trkpt><trkpt lat="44.808754705869845" lon="9.90397253096186"><ele>207.0</ele><time>2026-05-01T16:00:40Z</time></trkpt><trkpt lat="44.80884652960355" lon="9.90409819195909"><ele>206.0</ele><time>2026-05-01T16:00:41Z</time></trkpt><trkpt lat="44.80891241670872" lon="9.904246881396418"><ele>205.0</ele><time>2026-05-01T16:00:42Z</time></trkpt><trkpt lat="44.808977704253216" lon="9.904429459340706"><ele>205.0</ele><time>2026-05-01T16:00:43Z</time></trkpt><trkpt lat="44.80907317492344" lon="9.904638740242945"><ele>205.0</ele><time>2026-05-01T16:00:44Z</time></trkpt><trkpt lat="44.80921133913307" lon="9.904853430836338"><ele>205.0</ele><time>2026-05-01T16:00:45Z</time></trkpt><trkpt lat="44.80932544884914" lon="9.905043036629664"><ele>205.0</ele><time>2026-05-01T16:00:46Z</time></trkpt><trkpt lat="44.80940813597701" lon="9.905233761280746"><ele>205.0</ele><time>2026-05-01T16:00:47Z</time></trkpt><trkpt lat="44.80949452437589" lon="9.905425952611932"><ele>205.0</ele><time>2026-05-01T16:00:48Z</time></trkpt><trkpt lat="44.80959045993782" lon="9.90555734172993"><ele>205.0</ele><time>2026-05-01T16:00:49Z</time></trkpt><trkpt lat="44.80971774582825" lon="9.905673412924742"><ele>205.0</ele><time>2026-05-01T16:00:50Z</time></trkpt><trkpt lat="44.8098763882312" lon="9.905792469857195"><ele>205.0</ele><time>2026-05-01T16:00:51Z</time></trkpt><trkpt lat="44.810009558090876" lon="9.905903372321278"><ele>206.0</ele><time>2026-05-01T16:00:52Z</time></trkpt><trkpt lat="44.810109605754235" lon="9.906023505872598"><ele>207.0</ele><time>2026-05-01T16:00:53Z</time></trkpt><trkpt lat="44.81020634002614" lon="9.90613411346499"><ele>208.0</ele><time>2026-05-01T16:00:54Z</time></trkpt><trkpt lat="44.81032403018623" lon="9.906207020922979"><ele>209.0</ele><time>2026-05-01T16:00:55Z</time></trkpt><trkpt lat="44.81045780611653" lon="9.90624302005706"><ele>207.2</ele><time>2026-05-01T16:00:56Z</time></trkpt><trkpt lat="44.81059876141995" lon="9.906264372508698"><ele>205.39999999999998</ele><time>2026-05-01T16:00:57Z</time></trkpt><trkpt lat="44.810686447067646" lon="9.906350101303964"><ele>203.6</ele><time>2026-05-01T16:00:58Z</time></trkpt><trkpt lat="44.81075273489792" lon="9.906422417795207"><ele>201.8</ele><time>2026-05-01T16:00:59Z</time></trkpt><trkpt lat="44.810815677344245" lon="9.90653540913327"><ele>200.0</ele><time>2026-05-01T16:01:00Z</time></trkpt><trkpt lat="44.810916246930525" lon="9.906679929418962"><ele>198.66666666666669</ele><time>2026-05-01T16:01:01Z</time></trkpt><trkpt lat="44.811035386162224" lon="9.906845656410926"><ele>197.33333333333331</ele><time>2026-05-01T16:01:02Z</time></trkpt><trkpt lat="44.8111641670687" lon="9.907025209547053"><ele>196.0</ele><time>2026-05-01T16:01:03Z</time></trkpt><trkpt lat="44.81130394628026" lon="9.90722255478108"><ele>196.0</ele><time>2026-05-01T16:01:04Z</time></trkpt><trkpt lat="44.811452826106745" lon="9.907408852731404"><ele>196.0</ele><time>2026-05-01T16:01:05Z</time></trkpt><trkpt lat="44.81157881933205" lon="9.90757987005754"><ele>196.0</ele><time>2026-05-01T16:01:06Z</time></trkpt><trkpt lat="44.81168583717749" lon="9.907725371768588"><ele>195.75</ele><time>2026-05-01T16:01:07Z</time></trkpt><trkpt lat="44.81178720050001" lon="9.907860013657267"><ele>195.5</ele><time>2026-05-01T16:01:08.001Z</time></trkpt><trkpt lat="44.811872469330275" lon="9.90798503219816"><ele>195.25</ele><time>2026-05-01T16:01:09.001Z</time></trkpt><trkpt lat="44.81194873487999" lon="9.908101256573891"><ele>195.0</ele><time>2026-05-01T16:01:10.001Z</time></trkpt><trkpt lat="44.81201740040614" lon="9.908213445982984"><ele>194.75</ele><time>2026-05-01T16:01:11.001Z</time></trkpt><trkpt lat="44.812080154581885" lon="9.908357991025797"><ele>194.5</ele><time>2026-05-01T16:01:12.001Z</time></trkpt><trkpt lat="44.81214665986058" lon="9.908553938041365"><ele>194.25</ele><time>2026-05-01T16:01:13.001Z</time></trkpt><trkpt lat="44.812232752328" lon="9.908764935100534"><ele>194.0</ele><time>2026-05-01T16:01:14.001Z</time></trkpt><trkpt lat="44.81234569983821" lon="9.908976078312508"><ele>194.66666666666669</ele><time>2026-05-01T16:01:15.001Z</time></trkpt><trkpt lat="44.81246378405901" lon="9.909201697337648"><ele>195.33333333333331</ele><time>2026-05-01T16:01:16.001Z</time></trkpt><trkpt lat="44.812577364924586" lon="9.909404104412204"><ele>196.0</ele><time>2026-05-01T16:01:17.001Z</time></trkpt><trkpt lat="44.812693371131196" lon="9.909576777971866"><ele>194.66666666666666</ele><time>2026-05-01T16:01:18.001Z</time></trkpt><trkpt lat="44.81280004487055" lon="9.909718778213007"><ele>193.33333333333331</ele><time>2026-05-01T16:01:19.001Z</time></trkpt><trkpt lat="44.81292699929866" lon="9.909858958090336"><ele>192.0</ele><time>2026-05-01T16:01:20.001Z</time></trkpt><trkpt lat="44.81307823357393" lon="9.91000406329577"><ele>192.0</ele><time>2026-05-01T16:01:21.001Z</time></trkpt><trkpt lat="44.81322105623462" lon="9.91015324046645"><ele>192.0</ele><time>2026-05-01T16:01:22.001Z</time></trkpt><trkpt lat="44.81337889156389" lon="9.91033676871817"><ele>192.0</ele><time>2026-05-01T16:01:23.001Z</time></trkpt><trkpt lat="44.81353792594785" lon="9.910527564972048"><ele>192.0</ele><time>2026-05-01T16:01:24.001Z</time></trkpt><trkpt lat="44.81368519045007" lon="9.910693974192125"><ele>192.0</ele><time>2026-05-01T16:01:25.001Z</time></trkpt><trkpt lat="44.813819036201636" lon="9.910822476236044"><ele>192.0</ele><time>2026-05-01T16:01:26.001Z</time></trkpt><trkpt lat="44.813934677944275" lon="9.910948896684957"><ele>191.75</ele><time>2026-05-01T16:01:27.001Z</time></trkpt><trkpt lat="44.8140260738991" lon="9.911071004449214"><ele>191.5</ele><time>2026-05-01T16:01:28.001Z</time></trkpt><trkpt lat="44.81410806502818" lon="9.911204807049652"><ele>191.25</ele><time>2026-05-01T16:01:29.001Z</time></trkpt><trkpt lat="44.81419116945295" lon="9.911373460056977"><ele>191.0</ele><time>2026-05-01T16:01:30.001Z</time></trkpt><trkpt lat="44.81429403324791" lon="9.911564055144204"><ele>190.5</ele><time>2026-05-01T16:01:31.001Z</time></trkpt><trkpt lat="44.814398974391075" lon="9.911734150675107"><ele>190.0</ele><time>2026-05-01T16:01:32.001Z</time></trkpt><trkpt lat="44.81449624206868" lon="9.911893847683714"><ele>189.5</ele><time>2026-05-01T16:01:33.001Z</time></trkpt><trkpt lat="44.81456266635241" lon="9.912042956112309"><ele>189.0</ele><time>2026-05-01T16:01:34.001Z</time></trkpt><trkpt lat="44.814601157638684" lon="9.912194977088935"><ele>189.0</ele><time>2026-05-01T16:01:35.001Z</time></trkpt><trkpt lat="44.81461653315759" lon="9.912358669963206"><ele>189.0</ele><time>2026-05-01T16:01:36.001Z</time></trkpt><trkpt lat="44.81463464645227" lon="9.912491302515"><ele>189.0</ele><time>2026-05-01T16:01:37.001Z</time></trkpt><trkpt lat="44.814684172648754" lon="9.912605708784143"><ele>189.0</ele><time>2026-05-01T16:01:38.001Z</time></trkpt><trkpt lat="44.81476139530344" lon="9.912720975092668"><ele>189.0</ele><time>2026-05-01T16:01:39.001Z</time></trkpt><trkpt lat="44.81487038558832" lon="9.912851554192859"><ele>189.66666666666666</ele><time>2026-05-01T16:01:40.001Z</time></trkpt><trkpt lat="44.81499186607245" lon="9.913002153332018"><ele>190.33333333333331</ele><time>2026-05-01T16:01:41.001Z</time></trkpt><trkpt lat="44.815117263343886" lon="9.913170518952983"><ele>191.0</ele><time>2026-05-01T16:01:42.001Z</time></trkpt><trkpt lat="44.81524035124944" lon="9.913335911778235"><ele>192.5</ele><time>2026-05-01T16:01:43.001Z</time></trkpt><trkpt lat="44.815362127029424" lon="9.913479625351824"><ele>194.0</ele><time>2026-05-01T16:01:44.001Z</time></trkpt><trkpt lat="44.81548776086305" lon="9.913579486271523"><ele>195.5</ele><time>2026-05-01T16:01:45.001Z</time></trkpt><trkpt lat="44.81561917817396" lon="9.913635595032252"><ele>197.0</ele><time>2026-05-01T16:01:46.001Z</time></trkpt><trkpt lat="44.81574218712063" lon="9.913630555538715"><ele>197.0</ele><time>2026-05-01T16:01:47.001Z</time></trkpt><trkpt lat="44.81586555355414" lon="9.913571245608079"><ele>197.0</ele><time>2026-05-01T16:01:48.001Z</time></trkpt><trkpt lat="44.81598602510495" lon="9.913477035163348"><ele>197.0</ele><time>2026-05-01T16:01:49.001Z</time></trkpt><trkpt lat="44.81609080173857" lon="9.913432263135393"><ele>197.0</ele><time>2026-05-01T16:01:50.001Z</time></trkpt><trkpt lat="44.8162008494199" lon="9.913451634135066"><ele>196.0</ele><time>2026-05-01T16:01:51.001Z</time></trkpt><trkpt lat="44.81629956971089" lon="9.91355611473565"><ele>195.0</ele><time>2026-05-01T16:01:52.001Z</time></trkpt><trkpt lat="44.816416574098405" lon="9.913666092694447"><ele>194.0</ele><time>2026-05-01T16:01:53.001Z</time></trkpt><trkpt lat="44.81650205232031" lon="9.91377888312586"><ele>193.0</ele><time>2026-05-01T16:01:54.001Z</time></trkpt><trkpt lat="44.816557378356585" lon="9.913844951558572"><ele>193.00000000000003</ele><time>2026-05-01T16:01:55.001Z</time></trkpt><trkpt lat="44.81660854838378" lon="9.913907091167093"><ele>193.0</ele><time>2026-05-01T16:01:56.001Z</time></trkpt><trkpt lat="44.81666267221976" lon="9.913967075014375"><ele>193.0</ele><time>2026-05-01T16:01:57.001Z</time></trkpt><trkpt lat="44.81671605878919" lon="9.914021322710418"><ele>193.0</ele><time>2026-05-01T16:01:58.001Z</time></trkpt><trkpt lat="44.81676732670129" lon="9.91408165267943"><ele>193.0</ele><time>2026-05-01T16:01:59.001Z</time></trkpt><trkpt lat="44.816829757643276" lon="9.914163849648265"><ele>193.00000000000003</ele><time>2026-05-01T16:02:00.001Z</time></trkpt><trkpt lat="44.8168906016227" lon="9.91425047434771"><ele>193.0</ele><time>2026-05-01T16:02:01.001Z</time></trkpt><trkpt lat="44.8169468039888" lon="9.914344545803896"><ele>192.33333333333331</ele><time>2026-05-01T16:02:02.001Z</time></trkpt><trkpt lat="44.816996637710716" lon="9.914448138514159"><ele>191.66666666666666</ele><time>2026-05-01T16:02:03.001Z</time></trkpt><trkpt lat="44.817039155792294" lon="9.914554092760303"><ele>191.0</ele><time>2026-05-01T16:02:04.001Z</time></trkpt><trkpt lat="44.817074005532035" lon="9.91464405540196"><ele>190.33333333333331</ele><time>2026-05-01T16:02:05.001Z</time></trkpt><trkpt lat="44.81711101849087" lon="9.914724058778166"><ele>189.66666666666666</ele><time>2026-05-01T16:02:06.001Z</time></trkpt><trkpt lat="44.817133801486534" lon="9.914820799501488"><ele>189.0</ele><time>2026-05-01T16:02:07.001Z</time></trkpt><trkpt lat="44.81717920660426" lon="9.914885011273638"><ele>189.0</ele><time>2026-05-01T16:02:08.001Z</time></trkpt><trkpt lat="44.81720209462202" lon="9.914982537677899"><ele>189.0</ele><time>2026-05-01T16:02:09.001Z</time></trkpt><trkpt lat="44.81723470630874" lon="9.915074273472946"><ele>189.0</ele><time>2026-05-01T16:02:10.001Z</time></trkpt><trkpt lat="44.817275094160344" lon="9.915156349762043"><ele>189.0</ele><time>2026-05-01T16:02:11.001Z</time></trkpt><trkpt lat="44.81731481337805" lon="9.915288746904055"><ele>189.0</ele><time>2026-05-01T16:02:13.001Z</time></trkpt><trkpt lat="44.81719227731473" lon="9.915351620870497"><ele>189.0</ele><time>2026-05-01T16:02:18.001Z</time></trkpt><trkpt lat="44.81711219780408" lon="9.915384617036219"><ele>189.5</ele><time>2026-05-01T16:02:19.001Z</time></trkpt><trkpt lat="44.81704012340619" lon="9.915415403679923"><ele>190.0</ele><time>2026-05-01T16:02:20.001Z</time></trkpt><trkpt lat="44.816963230493954" lon="9.915448259313711"><ele>190.5</ele><time>2026-05-01T16:02:21.001Z</time></trkpt><trkpt lat="44.8168942028128" lon="9.915477340403001"><ele>191.0</ele><time>2026-05-01T16:02:22.002Z</time></trkpt><trkpt lat="44.81679395343786" lon="9.915528956320934"><ele>191.5</ele><time>2026-05-01T16:02:23.002Z</time></trkpt><trkpt lat="44.816697296952015" lon="9.915561104150724"><ele>192.0</ele><time>2026-05-01T16:02:24.002Z</time></trkpt><trkpt lat="44.816632165138955" lon="9.915540154600004"><ele>194.25</ele><time>2026-05-01T16:02:26.002Z</time></trkpt><trkpt lat="44.81663922706529" lon="9.915808675998342"><ele>196.5</ele><time>2026-05-01T16:02:31Z</time></trkpt><trkpt lat="44.816638215302696" lon="9.915911640434294"><ele>198.75</ele><time>2026-05-01T16:02:33Z</time></trkpt><trkpt lat="44.81656412301662" lon="9.916052404985258"><ele>201.0</ele><time>2026-05-01T16:02:35Z</time></trkpt><trkpt lat="44.816507236945576" lon="9.916143810163168"><ele>201.0</ele><time>2026-05-01T16:02:36Z</time></trkpt><trkpt lat="44.816465462719876" lon="9.916244184917007"><ele>201.0</ele><time>2026-05-01T16:02:37Z</time></trkpt><trkpt lat="44.81642733274246" lon="9.916336489546788"><ele>201.0</ele><time>2026-05-01T16:02:38Z</time></trkpt><trkpt lat="44.81632402833217" lon="9.916455544267277"><ele>201.0</ele><time>2026-05-01T16:02:40Z</time></trkpt><trkpt lat="44.81625989177261" lon="9.916512914787171"><ele>201.0</ele><time>2026-05-01T16:02:41Z</time></trkpt><trkpt lat="44.8161861072213" lon="9.916542542254048"><ele>201.0</ele><time>2026-05-01T16:02:42Z</time></trkpt><trkpt lat="44.816117435581596" lon="9.916580667788716"><ele>201.0</ele><time>2026-05-01T16:02:43Z</time></trkpt><trkpt lat="44.816040892969085" lon="9.916641946906473"><ele>201.0</ele><time>2026-05-01T16:02:44Z</time></trkpt><trkpt lat="44.81595214921511" lon="9.916709160185833"><ele>201.0</ele><time>2026-05-01T16:02:45Z</time></trkpt><trkpt lat="44.81587689298213" lon="9.916732387271022"><ele>201.0</ele><time>2026-05-01T16:02:46Z</time></trkpt><trkpt lat="44.81581049069" lon="9.916728392995207"><ele>201.0</ele><time>2026-05-01T16:02:47Z</time></trkpt><trkpt lat="44.815761491804814" lon="9.916650866008466"><ele>201.0</ele><time>2026-05-01T16:02:49Z</time></trkpt><trkpt lat="44.81575008704847" lon="9.91648545671754"><ele>204.60000000000002</ele><time>2026-05-01T16:02:51Z</time></trkpt><trkpt lat="44.81576106444452" lon="9.916334212160924"><ele>208.2</ele><time>2026-05-01T16:02:53Z</time></trkpt><trkpt lat="44.8156947327062" lon="9.91622769596027"><ele>211.79999999999998</ele><time>2026-05-01T16:02:55Z</time></trkpt><trkpt lat="44.81563354941138" lon="9.916255031538933"><ele>215.39999999999998</ele><time>2026-05-01T16:02:56Z</time></trkpt><trkpt lat="44.81554078039528" lon="9.916319524753963"><ele>219.0</ele><time>2026-05-01T16:02:57Z</time></trkpt><trkpt lat="44.815444945840895" lon="9.91637209799861"><ele>219.0</ele><time>2026-05-01T16:02:58Z</time></trkpt><trkpt lat="44.81534542000768" lon="9.916406874341071"><ele>218.99999999999997</ele><time>2026-05-01T16:02:59Z</time></trkpt><trkpt lat="44.81527079717086" lon="9.916429690564659"><ele>218.99999999999997</ele><time>2026-05-01T16:03:00Z</time></trkpt><trkpt lat="44.815200618573165" lon="9.916417135056843"><ele>219.0</ele><time>2026-05-01T16:03:45.001Z</time></trkpt><trkpt lat="44.815065827856586" lon="9.916375511548589"><ele>219.0</ele><time>2026-05-01T16:03:47.001Z</time></trkpt><trkpt lat="44.814966528440124" lon="9.916325154045118"><ele>219.39999999999998</ele><time>2026-05-01T16:03:48.001Z</time></trkpt><trkpt lat="44.81486239524167" lon="9.916273386490776"><ele>219.79999999999998</ele><time>2026-05-01T16:03:49.001Z</time></trkpt><trkpt lat="44.814749206465805" lon="9.91621115796429"><ele>220.20000000000002</ele><time>2026-05-01T16:03:50.001Z</time></trkpt><trkpt lat="44.81464191371599" lon="9.916154530418327"><ele>220.60000000000002</ele><time>2026-05-01T16:03:51.001Z</time></trkpt><trkpt lat="44.81455394588839" lon="9.91612079398052"><ele>221.0</ele><time>2026-05-01T16:03:52.001Z</time></trkpt><trkpt lat="44.81446244225166" lon="9.916108523543441"><ele>221.00000000000003</ele><time>2026-05-01T16:03:53.001Z</time></trkpt><trkpt lat="44.814381589214" lon="9.916090605544687"><ele>221.0</ele><time>2026-05-01T16:03:54.001Z</time></trkpt><trkpt lat="44.81429658735526" lon="9.916021705871406"><ele>221.0</ele><time>2026-05-01T16:03:56.001Z</time></trkpt><trkpt lat="44.814239030132995" lon="9.915982505468257"><ele>221.0</ele><time>2026-05-01T16:03:57.001Z</time></trkpt><trkpt lat="44.81419734584274" lon="9.915911253038251"><ele>221.00000000000003</ele><time>2026-05-01T16:04:00.001Z</time></trkpt><trkpt lat="44.81413924839927" lon="9.915843119124405"><ele>221.0</ele><time>2026-05-01T16:04:02.001Z</time></trkpt><trkpt lat="44.81401490321493" lon="9.915847306267832"><ele>224.60000000000002</ele><time>2026-05-01T16:04:05.001Z</time></trkpt><trkpt lat="44.813937339436194" lon="9.91587640628721"><ele>228.20000000000002</ele><time>2026-05-01T16:04:06.001Z</time></trkpt><trkpt lat="44.81384714902714" lon="9.915890502982684"><ele>231.79999999999998</ele><time>2026-05-01T16:04:07.001Z</time></trkpt><trkpt lat="44.81374678088015" lon="9.915887918875553"><ele>235.39999999999998</ele><time>2026-05-01T16:04:08.001Z</time></trkpt><trkpt lat="44.81365159294357" lon="9.915866017352254"><ele>239.0</ele><time>2026-05-01T16:04:09.001Z</time></trkpt><trkpt lat="44.81354931076769" lon="9.915823407895136"><ele>241.66666666666669</ele><time>2026-05-01T16:04:10.001Z</time></trkpt><trkpt lat="44.81347954880272" lon="9.915782739229815"><ele>244.33333333333334</ele><time>2026-05-01T16:04:11.001Z</time></trkpt><trkpt lat="44.813405888314286" lon="9.915723584387509"><ele>247.0</ele><time>2026-05-01T16:04:12.001Z</time></trkpt><trkpt lat="44.813318538624785" lon="9.915688067972598"><ele>249.66666666666669</ele><time>2026-05-01T16:04:13.001Z</time></trkpt><trkpt lat="44.813226030131254" lon="9.915689942900219"><ele>252.33333333333334</ele><time>2026-05-01T16:04:14.001Z</time></trkpt><trkpt lat="44.81315329839143" lon="9.915667419756305"><ele>255.0</ele><time>2026-05-01T16:04:15.001Z</time></trkpt><trkpt lat="44.81308368604691" lon="9.915653037974467"><ele>255.0</ele><time>2026-05-01T16:04:16.001Z</time></trkpt><trkpt lat="44.81301235349686" lon="9.915645309359407"><ele>255.0</ele><time>2026-05-01T16:04:17.001Z</time></trkpt><trkpt lat="44.81292617436054" lon="9.915642288866618"><ele>255.0</ele><time>2026-05-01T16:04:18.001Z</time></trkpt><trkpt lat="44.81283383312615" lon="9.915620349478363"><ele>255.0</ele><time>2026-05-01T16:04:19.001Z</time></trkpt><trkpt lat="44.812734210044574" lon="9.915591992628762"><ele>255.0</ele><time>2026-05-01T16:04:20.001Z</time></trkpt><trkpt lat="44.81264157861186" lon="9.91558058692106"><ele>255.0</ele><time>2026-05-01T16:04:21.001Z</time></trkpt><trkpt lat="44.812545957083756" lon="9.915609657518438"><ele>256.8</ele><time>2026-05-01T16:04:22.001Z</time></trkpt><trkpt lat="44.81245035392132" lon="9.915632151681235"><ele>258.6</ele><time>2026-05-01T16:04:23.001Z</time></trkpt><trkpt lat="44.81235921480728" lon="9.915645457088846"><ele>260.4</ele><time>2026-05-01T16:04:24.001Z</time></trkpt><trkpt lat="44.81226966577997" lon="9.915646916476419"><ele>262.2</ele><time>2026-05-01T16:04:25.001Z</time></trkpt><trkpt lat="44.812170736922575" lon="9.91564590318319"><ele>264.0</ele><time>2026-05-01T16:04:26.002Z</time></trkpt><trkpt lat="44.812056567601495" lon="9.915657182106457"><ele>264.0</ele><time>2026-05-01T16:04:27.002Z</time></trkpt><trkpt lat="44.811972526406024" lon="9.915685837156543"><ele>264.0</ele><time>2026-05-01T16:04:28.002Z</time></trkpt><trkpt lat="44.811902304418936" lon="9.915696987795203"><ele>264.0</ele><time>2026-05-01T16:04:29.002Z</time></trkpt><trkpt lat="44.8118154074382" lon="9.915692915240477"><ele>264.0</ele><time>2026-05-01T16:04:30.002Z</time></trkpt><trkpt lat="44.81173199009882" lon="9.91572715880027"><ele>264.0</ele><time>2026-05-01T16:04:31.002Z</time></trkpt><trkpt lat="44.81165756990631" lon="9.915792703754825"><ele>264.0</ele><time>2026-05-01T16:04:32.002Z</time></trkpt><trkpt lat="44.81158199385588" lon="9.915873518111072"><ele>264.8</ele><time>2026-05-01T16:04:33.002Z</time></trkpt><trkpt lat="44.81149930841606" lon="9.915940226603164"><ele>265.59999999999997</ele><time>2026-05-01T16:04:34Z</time></trkpt><trkpt lat="44.811412943131316" lon="9.915992293564159"><ele>266.4</ele><time>2026-05-01T16:04:35Z</time></trkpt><trkpt lat="44.811313523022065" lon="9.916022211863107"><ele>267.2</ele><time>2026-05-01T16:04:36Z</time></trkpt><trkpt lat="44.81121922736296" lon="9.916016303384504"><ele>268.0</ele><time>2026-05-01T16:04:37Z</time></trkpt><trkpt lat="44.811125309121216" lon="9.915994042369833"><ele>268.0</ele><time>2026-05-01T16:04:38Z</time></trkpt><trkpt lat="44.81102206269391" lon="9.915964134871842"><ele>268.0</ele><time>2026-05-01T16:04:39Z</time></trkpt><trkpt lat="44.81091245549946" lon="9.91593435015307"><ele>268.0</ele><time>2026-05-01T16:04:40Z</time></trkpt><trkpt lat="44.81079681108101" lon="9.915916250502708"><ele>268.0</ele><time>2026-05-01T16:04:41Z</time></trkpt><trkpt lat="44.810700027418946" lon="9.915896106682403"><ele>268.0</ele><time>2026-05-01T16:04:42Z</time></trkpt><trkpt lat="44.81060614747293" lon="9.915878659509344"><ele>273.4</ele><time>2026-05-01T16:04:43Z</time></trkpt><trkpt lat="44.81051908241348" lon="9.915878865709237"><ele>278.8</ele><time>2026-05-01T16:04:44Z</time></trkpt><trkpt lat="44.81042258976414" lon="9.915865944912102"><ele>284.2</ele><time>2026-05-01T16:04:45Z</time></trkpt><trkpt lat="44.81033215137791" lon="9.91584547126314"><ele>289.6</ele><time>2026-05-01T16:04:46Z</time></trkpt><trkpt lat="44.81026559599413" lon="9.915815705256895"><ele>295.0</ele><time>2026-05-01T16:04:47Z</time></trkpt><trkpt lat="44.81015908530458" lon="9.91576463294979"><ele>297.8</ele><time>2026-05-01T16:04:49Z</time></trkpt><trkpt lat="44.810043593130835" lon="9.9157693507921"><ele>300.6</ele><time>2026-05-01T16:04:51Z</time></trkpt><trkpt lat="44.809962884831315" lon="9.915770237536766"><ele>303.4</ele><time>2026-05-01T16:04:52Z</time></trkpt><trkpt lat="44.80984292181845" lon="9.915791869713814"><ele>306.2</ele><time>2026-05-01T16:04:54Z</time></trkpt><trkpt lat="44.80977637643291" lon="9.915715788089132"><ele>309.0</ele><time>2026-05-01T16:04:56Z</time></trkpt><trkpt lat="44.809703042594734" lon="9.915610898411877"><ele>309.0</ele><time>2026-05-01T16:04:58Z</time></trkpt><trkpt lat="44.809603701610854" lon="9.915590983326846"><ele>309.0</ele><time>2026-05-01T16:05:00Z</time></trkpt><trkpt lat="44.809536565724855" lon="9.915592934089018"><ele>309.0</ele><time>2026-05-01T16:05:01Z</time></trkpt><trkpt lat="44.809430375419" lon="9.91561497840771"><ele>309.0</ele><time>2026-05-01T16:05:03Z</time></trkpt><trkpt lat="44.80936307484688" lon="9.915641269270239"><ele>309.0</ele><time>2026-05-01T16:05:04Z</time></trkpt><trkpt lat="44.80928481082286" lon="9.91566477059465"><ele>309.0</ele><time>2026-05-01T16:05:05Z</time></trkpt><trkpt lat="44.80919461211574" lon="9.915672247991107"><ele>311.5</ele><time>2026-05-01T16:05:06Z</time></trkpt><trkpt lat="44.80911768540986" lon="9.915659748711652"><ele>314.0</ele><time>2026-05-01T16:05:07Z</time></trkpt><trkpt lat="44.80905634759531" lon="9.915623193048216"><ele>316.5</ele><time>2026-05-01T16:05:08Z</time></trkpt><trkpt lat="44.80898861211262" lon="9.915593927415905"><ele>319.0</ele><time>2026-05-01T16:05:09Z</time></trkpt><trkpt lat="44.80891355066633" lon="9.9155693190312"><ele>321.5</ele><time>2026-05-01T16:05:10Z</time></trkpt><trkpt lat="44.80881751143725" lon="9.915561371517159"><ele>324.0</ele><time>2026-05-01T16:05:13.001Z</time></trkpt><trkpt lat="44.808750170192305" lon="9.915571107865267"><ele>324.0</ele><time>2026-05-01T16:05:15.001Z</time></trkpt><trkpt lat="44.808670302660545" lon="9.91559670579422"><ele>324.0</ele><time>2026-05-01T16:05:17.001Z</time></trkpt><trkpt lat="44.808577134445194" lon="9.915664158308129"><ele>324.0</ele><time>2026-05-01T16:05:19.001Z</time></trkpt><trkpt lat="44.808483009025295" lon="9.915692506537189"><ele>324.0</ele><time>2026-05-01T16:05:21.001Z</time></trkpt><trkpt lat="44.80835297617196" lon="9.915678857765265"><ele>324.0</ele><time>2026-05-01T16:05:23.001Z</time></trkpt><trkpt lat="44.80827564916874" lon="9.915673612961855"><ele>325.5</ele><time>2026-05-01T16:05:24.001Z</time></trkpt><trkpt lat="44.80818544340025" lon="9.915683670193435"><ele>327.0</ele><time>2026-05-01T16:05:25.001Z</time></trkpt><trkpt lat="44.80811738215399" lon="9.915692974556515"><ele>328.5</ele><time>2026-05-01T16:05:26.001Z</time></trkpt><trkpt lat="44.8080033192611" lon="9.91569730097053"><ele>330.0</ele><time>2026-05-01T16:05:28.001Z</time></trkpt><trkpt lat="44.807940068635155" lon="9.915664801276987"><ele>331.5</ele><time>2026-05-01T16:05:29.001Z</time></trkpt><trkpt lat="44.80787959315882" lon="9.915633933425317"><ele>333.0</ele><time>2026-05-01T16:05:30.001Z</time></trkpt><trkpt lat="44.80780380844024" lon="9.91559471955244"><ele>333.0</ele><time>2026-05-01T16:05:32.001Z</time></trkpt><trkpt lat="44.80773463873096" lon="9.915541887267116"><ele>333.0</ele><time>2026-05-01T16:16:39.001Z</time></trkpt><trkpt lat="44.80766800198095" lon="9.915563867947027"><ele>333.0</ele><time>2026-05-01T16:16:42.001Z</time></trkpt><trkpt lat="44.807604513835535" lon="9.915628522128042"><ele>333.0</ele><time>2026-05-01T16:16:46.001Z</time></trkpt><trkpt lat="44.80754286136397" lon="9.915677341177377"><ele>333.0</ele><time>2026-05-01T16:16:53.001Z</time></trkpt><trkpt lat="44.8074866501641" lon="9.915729492799105"><ele>333.0</ele><time>2026-05-01T16:16:55.001Z</time></trkpt><trkpt lat="44.80742864117724" lon="9.91576780400821"><ele>333.0</ele><time>2026-05-01T16:16:57.001Z</time></trkpt><trkpt lat="44.807362161612446" lon="9.915815296599986"><ele>332.6666666666667</ele><time>2026-05-01T16:17:20Z</time></trkpt><trkpt lat="44.80727703985987" lon="9.915877702193018"><ele>332.3333333333333</ele><time>2026-05-01T16:17:23Z</time></trkpt><trkpt lat="44.807203727643774" lon="9.915890509921313"><ele>332.0</ele><time>2026-05-01T16:17:25Z</time></trkpt><trkpt lat="44.80714059497495" lon="9.915892965339864"><ele>331.66666666666663</ele><time>2026-05-01T16:17:27Z</time></trkpt><trkpt lat="44.80707433590959" lon="9.91591916062539"><ele>331.3333333333333</ele><time>2026-05-01T16:17:29Z</time></trkpt><trkpt lat="44.806992939873304" lon="9.91598245378351"><ele>331.0</ele><time>2026-05-01T16:17:31Z</time></trkpt><trkpt lat="44.806943313639515" lon="9.916045676036662"><ele>328.0</ele><time>2026-05-01T16:17:33Z</time></trkpt><trkpt lat="44.80687909598947" lon="9.916137492608096"><ele>325.0</ele><time>2026-05-01T16:17:35Z</time></trkpt><trkpt lat="44.80681183678887" lon="9.91622245572102"><ele>322.0</ele><time>2026-05-01T16:17:37Z</time></trkpt><trkpt lat="44.80676114578933" lon="9.91630233931462"><ele>319.0</ele><time>2026-05-01T16:17:39Z</time></trkpt><trkpt lat="44.8066998400502" lon="9.916391301106385"><ele>316.0</ele><time>2026-05-01T16:17:41Z</time></trkpt><trkpt lat="44.80663012780335" lon="9.916516040264192"><ele>314.8</ele><time>2026-05-01T16:17:43Z</time></trkpt><trkpt lat="44.806575710203795" lon="9.916633798781028"><ele>313.6</ele><time>2026-05-01T16:17:45Z</time></trkpt><trkpt lat="44.80651149251832" lon="9.91676366246532"><ele>312.4</ele><time>2026-05-01T16:17:47Z</time></trkpt><trkpt lat="44.80646783365223" lon="9.916842139053703"><ele>311.2</ele><time>2026-05-01T16:17:48Z</time></trkpt><trkpt lat="44.80640388446695" lon="9.91693844955806"><ele>310.0</ele><time>2026-05-01T16:17:49Z</time></trkpt><trkpt lat="44.80633268934152" lon="9.91703548152005"><ele>308.5</ele><time>2026-05-01T16:17:50Z</time></trkpt><trkpt lat="44.80627612805254" lon="9.917112830595732"><ele>307.0</ele><time>2026-05-01T16:17:51Z</time></trkpt><trkpt lat="44.806214933809166" lon="9.917201124223752"><ele>305.5</ele><time>2026-05-01T16:17:52Z</time></trkpt><trkpt lat="44.80615732153322" lon="9.917282718981689"><ele>304.0</ele><time>2026-05-01T16:17:53Z</time></trkpt><trkpt lat="44.80611137429728" lon="9.917346764361385"><ele>302.5</ele><time>2026-05-01T16:17:54Z</time></trkpt><trkpt lat="44.806055367756166" lon="9.917443526541756"><ele>301.0</ele><time>2026-05-01T16:17:56Z</time></trkpt><trkpt lat="44.806001793821544" lon="9.917545375955552"><ele>303.66666666666663</ele><time>2026-05-01T16:18:00Z</time></trkpt><trkpt lat="44.80595431000822" lon="9.917669636636292"><ele>306.3333333333333</ele><time>2026-05-01T16:18:02Z</time></trkpt><trkpt lat="44.80591986496196" lon="9.917778683164077"><ele>309.0</ele><time>2026-05-01T16:18:05Z</time></trkpt><trkpt lat="44.805887043701134" lon="9.917863283859345"><ele>311.6666666666667</ele><time>2026-05-01T16:18:07Z</time></trkpt><trkpt lat="44.80583948175214" lon="9.917964202320006"><ele>314.33333333333337</ele><time>2026-05-01T16:18:10Z</time></trkpt><trkpt lat="44.80585653956891" lon="9.918072788637732"><ele>317.0</ele><time>2026-05-01T16:21:28.999Z</time></trkpt><trkpt lat="44.805870012042874" lon="9.918185733041396"><ele>317.0</ele><time>2026-05-01T16:21:30.999Z</time></trkpt><trkpt lat="44.805897572314144" lon="9.918362151871696"><ele>317.0</ele><time>2026-05-01T16:21:32.999Z</time></trkpt><trkpt lat="44.80592096436275" lon="9.918457823607215"><ele>317.0</ele><time>2026-05-01T16:21:33.999Z</time></trkpt><trkpt lat="44.80595996448615" lon="9.918617998467404"><ele>317.0</ele><time>2026-05-01T16:21:35.999Z</time></trkpt><trkpt lat="44.80598424058445" lon="9.918709054283513"><ele>317.0</ele><time>2026-05-01T16:21:36.999Z</time></trkpt><trkpt lat="44.80600827058862" lon="9.918848644634794"><ele>317.0</ele><time>2026-05-01T16:21:39Z</time></trkpt><trkpt lat="44.80601778734761" lon="9.918944608272296"><ele>317.0</ele><time>2026-05-01T16:21:40Z</time></trkpt><trkpt lat="44.806038822247146" lon="9.91909217558931"><ele>317.0</ele><time>2026-05-01T16:21:42Z</time></trkpt><trkpt lat="44.80606499576808" lon="9.919211026743234"><ele>317.0</ele><time>2026-05-01T16:21:44Z</time></trkpt><trkpt lat="44.806099811610565" lon="9.919340940825617"><ele>317.0</ele><time>2026-05-01T16:21:46Z</time></trkpt><trkpt lat="44.80612525353299" lon="9.9194484870727"><ele>317.0</ele><time>2026-05-01T16:21:48Z</time></trkpt><trkpt lat="44.806160452891234" lon="9.919583935334602"><ele>317.0</ele><time>2026-05-01T16:21:50Z</time></trkpt><trkpt lat="44.80619881525379" lon="9.9197085112111"><ele>317.0</ele><time>2026-05-01T16:21:52Z</time></trkpt><trkpt lat="44.806261966969316" lon="9.919834377547447"><ele>317.0</ele><time>2026-05-01T16:21:54Z</time></trkpt><trkpt lat="44.806302926918306" lon="9.919918039577162"><ele>317.0</ele><time>2026-05-01T16:21:55Z</time></trkpt><trkpt lat="44.80636779316557" lon="9.920047313974298"><ele>317.0</ele><time>2026-05-01T16:21:57Z</time></trkpt><trkpt lat="44.80640703259634" lon="9.920160461645171"><ele>318.0</ele><time>2026-05-01T16:21:59Z</time></trkpt><trkpt lat="44.80641534625841" lon="9.920296958791196"><ele>319.0</ele><time>2026-05-01T16:22:01Z</time></trkpt><trkpt lat="44.80640417503738" lon="9.920416409766146"><ele>320.0</ele><time>2026-05-01T16:22:03Z</time></trkpt><trkpt lat="44.806347317360895" lon="9.9205370906477"><ele>321.0</ele><time>2026-05-01T16:22:06Z</time></trkpt><trkpt lat="44.80625746119644" lon="9.920612530168974"><ele>322.0</ele><time>2026-05-01T16:22:08Z</time></trkpt><trkpt lat="44.8061738695481" lon="9.920722241886754"><ele>322.0</ele><time>2026-05-01T16:22:10Z</time></trkpt><trkpt lat="44.80610662556174" lon="9.920841137745471"><ele>322.0</ele><time>2026-05-01T16:22:12Z</time></trkpt><trkpt lat="44.806023580893964" lon="9.920951433547936"><ele>322.0</ele><time>2026-05-01T16:22:14Z</time></trkpt><trkpt lat="44.805960454367046" lon="9.921027435100589"><ele>322.0</ele><time>2026-05-01T16:22:16Z</time></trkpt><trkpt lat="44.805917482039504" lon="9.921095691041169"><ele>322.0</ele><time>2026-05-01T16:22:19Z</time></trkpt><trkpt lat="44.8058748560876" lon="9.921197902169277"><ele>324.16666666666663</ele><time>2026-05-01T16:22:22Z</time></trkpt><trkpt lat="44.80582653127202" lon="9.921255884652643"><ele>326.3333333333333</ele><time>2026-05-01T16:22:24Z</time></trkpt><trkpt lat="44.80577810377043" lon="9.921354002518994"><ele>328.5</ele><time>2026-05-01T16:22:26Z</time></trkpt><trkpt lat="44.80572934389366" lon="9.921410588528126"><ele>330.6666666666667</ele><time>2026-05-01T16:22:28Z</time></trkpt><trkpt lat="44.80565003078159" lon="9.921476076901117"><ele>332.83333333333337</ele><time>2026-05-01T16:22:30Z</time></trkpt><trkpt lat="44.80558323863025" lon="9.921530659429566"><ele>335.0</ele><time>2026-05-01T16:22:31Z</time></trkpt><trkpt lat="44.80551327475376" lon="9.921598876985769"><ele>335.0</ele><time>2026-05-01T16:22:33Z</time></trkpt><trkpt lat="44.805438120930816" lon="9.921661442599587"><ele>335.0</ele><time>2026-05-01T16:22:35Z</time></trkpt><trkpt lat="44.80536321390565" lon="9.921766552019042"><ele>335.0</ele><time>2026-05-01T16:22:37.001Z</time></trkpt><trkpt lat="44.805282658755814" lon="9.921878241688846"><ele>335.0</ele><time>2026-05-01T16:22:39.001Z</time></trkpt><trkpt lat="44.80521480694519" lon="9.921957993712454"><ele>335.0</ele><time>2026-05-01T16:22:42.001Z</time></trkpt><trkpt lat="44.805140063469224" lon="9.922049082409732"><ele>336.2857142857143</ele><time>2026-05-01T16:22:44.001Z</time></trkpt><trkpt lat="44.80508068365542" lon="9.922108356047666"><ele>337.57142857142856</ele><time>2026-05-01T16:22:45.001Z</time></trkpt><trkpt lat="44.805023553668356" lon="9.922182869244322"><ele>338.8571428571429</ele><time>2026-05-01T16:22:46.001Z</time></trkpt><trkpt lat="44.80497172624028" lon="9.922258251271524"><ele>340.1428571428571</ele><time>2026-05-01T16:22:47.001Z</time></trkpt><trkpt lat="44.80494745946454" lon="9.922357232667181"><ele>341.42857142857144</ele><time>2026-05-01T16:22:50.001Z</time></trkpt><trkpt lat="44.804945395551506" lon="9.9224589218715"><ele>342.7142857142857</ele><time>2026-05-01T16:22:52.001Z</time></trkpt><trkpt lat="44.804926926611664" lon="9.922556237523008"><ele>344.0</ele><time>2026-05-01T16:22:54.001Z</time></trkpt><trkpt lat="44.80489334283349" lon="9.922698695125865"><ele>344.6</ele><time>2026-05-01T16:22:56.001Z</time></trkpt><trkpt lat="44.80485779567342" lon="9.92285754748363"><ele>345.2</ele><time>2026-05-01T16:22:58.001Z</time></trkpt><trkpt lat="44.80480584299227" lon="9.922991606341148"><ele>345.8</ele><time>2026-05-01T16:23:00.001Z</time></trkpt><trkpt lat="44.80476780744192" lon="9.92307689765462"><ele>346.40000000000003</ele><time>2026-05-01T16:23:02.001Z</time></trkpt><trkpt lat="44.80477667605928" lon="9.923228475902684"><ele>347.0</ele><time>2026-05-01T16:23:05.001Z</time></trkpt><trkpt lat="44.80481283827553" lon="9.923331448040347"><ele>348.1666666666667</ele><time>2026-05-01T16:23:07.001Z</time></trkpt><trkpt lat="44.80485662115977" lon="9.923413709128607"><ele>349.33333333333337</ele><time>2026-05-01T16:23:08.001Z</time></trkpt><trkpt lat="44.80490409157817" lon="9.923498240113569"><ele>350.5</ele><time>2026-05-01T16:23:09.001Z</time></trkpt><trkpt lat="44.80496288597431" lon="9.923607433529394"><ele>351.6666666666667</ele><time>2026-05-01T16:23:10.001Z</time></trkpt><trkpt lat="44.80501214874433" lon="9.923702639085265"><ele>352.8333333333333</ele><time>2026-05-01T16:23:11.001Z</time></trkpt><trkpt lat="44.80504534212694" lon="9.923797074654034"><ele>354.0</ele><time>2026-05-01T16:23:12.001Z</time></trkpt><trkpt lat="44.80509443574577" lon="9.923934652967908"><ele>354.0</ele><time>2026-05-01T16:23:14.001Z</time></trkpt><trkpt lat="44.805095847471385" lon="9.9240293563111"><ele>354.0</ele><time>2026-05-01T16:23:16.001Z</time></trkpt><trkpt lat="44.80504993158604" lon="9.924139735321496"><ele>354.0</ele><time>2026-05-01T16:23:18.001Z</time></trkpt><trkpt lat="44.80500758627848" lon="9.924208640010766"><ele>354.0</ele><time>2026-05-01T16:23:19.001Z</time></trkpt><trkpt lat="44.804961115926616" lon="9.924282528451421"><ele>354.0</ele><time>2026-05-01T16:23:20.001Z</time></trkpt><trkpt lat="44.80495279558637" lon="9.924407572303812"><ele>354.0</ele><time>2026-05-01T16:23:22.001Z</time></trkpt><trkpt lat="44.8050465753168" lon="9.924532934141414"><ele>353.6666666666667</ele><time>2026-05-01T16:23:24.001Z</time></trkpt><trkpt lat="44.80511768615539" lon="9.92454571698688"><ele>353.3333333333333</ele><time>2026-05-01T16:23:25.001Z</time></trkpt><trkpt lat="44.8052012051248" lon="9.924545934446476"><ele>353.0</ele><time>2026-05-01T16:23:26.001Z</time></trkpt><trkpt lat="44.80524866348384" lon="9.924621794926622"><ele>352.66666666666663</ele><time>2026-05-01T16:23:27.998Z</time></trkpt><trkpt lat="44.805277585736015" lon="9.924704518197046"><ele>352.3333333333333</ele><time>2026-05-01T16:23:28.998Z</time></trkpt><trkpt lat="44.80534585062465" lon="9.924817207417028"><ele>352.0</ele><time>2026-05-01T16:23:29.998Z</time></trkpt><trkpt lat="44.80544045703908" lon="9.924930105143337"><ele>352.0</ele><time>2026-05-01T16:23:30.998Z</time></trkpt><trkpt lat="44.80553373759781" lon="9.924985326706354"><ele>352.0</ele><time>2026-05-01T16:23:31.998Z</time></trkpt><trkpt lat="44.8056106420689" lon="9.925042122866266"><ele>352.0</ele><time>2026-05-01T16:23:32.999Z</time></trkpt><trkpt lat="44.80569469276888" lon="9.925093119560799"><ele>352.0</ele><time>2026-05-01T16:23:33.999Z</time></trkpt><trkpt lat="44.805773207336706" lon="9.925130137033735"><ele>352.0</ele><time>2026-05-01T16:23:34.999Z</time></trkpt><trkpt lat="44.80584336296515" lon="9.925168704539386"><ele>352.0</ele><time>2026-05-01T16:23:35.999Z</time></trkpt><trkpt lat="44.805954119000475" lon="9.925250426085507"><ele>352.8333333333333</ele><time>2026-05-01T16:23:37.999Z</time></trkpt><trkpt lat="44.80602283920961" lon="9.925284536365439"><ele>353.66666666666663</ele><time>2026-05-01T16:23:38.999Z</time></trkpt><trkpt lat="44.80609174566496" lon="9.925323426943233"><ele>354.5</ele><time>2026-05-01T16:23:39.999Z</time></trkpt><trkpt lat="44.80618330186786" lon="9.92535083385552"><ele>355.3333333333333</ele><time>2026-05-01T16:23:40.999Z</time></trkpt><trkpt lat="44.80625471707138" lon="9.925382936241594"><ele>356.1666666666667</ele><time>2026-05-01T16:23:41.999Z</time></trkpt><trkpt lat="44.8063358454767" lon="9.925431492558133"><ele>357.0</ele><time>2026-05-01T16:23:42.999Z</time></trkpt><trkpt lat="44.806431026645484" lon="9.925488740804198"><ele>357.0</ele><time>2026-05-01T16:23:43.999Z</time></trkpt><trkpt lat="44.806520196675294" lon="9.925545898994777"><ele>357.0</ele><time>2026-05-01T16:23:44.999Z</time></trkpt><trkpt lat="44.8065764271903" lon="9.925588592256586"><ele>357.0</ele><time>2026-05-01T16:23:45.999Z</time></trkpt><trkpt lat="44.80666944106554" lon="9.925666552019239"><ele>357.0</ele><time>2026-05-01T16:23:47.999Z</time></trkpt><trkpt lat="44.80674844722915" lon="9.925818595729451"><ele>357.0</ele><time>2026-05-01T16:23:49.999Z</time></trkpt><trkpt lat="44.80678213938919" lon="9.925933524826858"><ele>356.8333333333333</ele><time>2026-05-01T16:23:50.999Z</time></trkpt><trkpt lat="44.80682106811691" lon="9.926010211930139"><ele>356.6666666666667</ele><time>2026-05-01T16:23:51.999Z</time></trkpt><trkpt lat="44.80691088046024" lon="9.926179269375568"><ele>356.5</ele><time>2026-05-01T16:23:53.999Z</time></trkpt><trkpt lat="44.806957547791654" lon="9.926288268791975"><ele>356.33333333333337</ele><time>2026-05-01T16:23:54.999Z</time></trkpt><trkpt lat="44.806999714221654" lon="9.926362467420686"><ele>356.1666666666667</ele><time>2026-05-01T16:23:55.999Z</time></trkpt><trkpt lat="44.80704517478418" lon="9.926434121458934"><ele>356.0</ele><time>2026-05-01T16:23:56.999Z</time></trkpt><trkpt lat="44.807101501804816" lon="9.926518333798166"><ele>356.0</ele><time>2026-05-01T16:23:57.999Z</time></trkpt><trkpt lat="44.80716639219771" lon="9.926606980708305"><ele>356.0</ele><time>2026-05-01T16:23:59Z</time></trkpt><trkpt lat="44.807216556695856" lon="9.92668453549644"><ele>356.0</ele><time>2026-05-01T16:24:00Z</time></trkpt><trkpt lat="44.80727230776276" lon="9.92676865318132"><ele>356.0</ele><time>2026-05-01T16:24:01Z</time></trkpt><trkpt lat="44.80733128512965" lon="9.926862130987011"><ele>356.0</ele><time>2026-05-01T16:24:02Z</time></trkpt><trkpt lat="44.807382460876056" lon="9.926948176546345"><ele>356.0</ele><time>2026-05-01T16:24:03Z</time></trkpt><trkpt lat="44.8075023665029" lon="9.927009374083203"><ele>356.5</ele><time>2026-05-01T16:24:05Z</time></trkpt><trkpt lat="44.80757913548318" lon="9.927088085859102"><ele>357.0</ele><time>2026-05-01T16:24:07Z</time></trkpt><trkpt lat="44.80766475884369" lon="9.927118944566965"><ele>357.5</ele><time>2026-05-01T16:24:10Z</time></trkpt><trkpt lat="44.80773708989841" lon="9.927110864762723"><ele>358.0</ele><time>2026-05-01T16:24:12Z</time></trkpt><trkpt lat="44.80782091771817" lon="9.927106628885207"><ele>358.5</ele><time>2026-05-01T16:24:14Z</time></trkpt><trkpt lat="44.80789982404725" lon="9.927162352785711"><ele>359.0</ele><time>2026-05-01T16:24:16Z</time></trkpt><trkpt lat="44.80797572349785" lon="9.927217390271133"><ele>359.0</ele><time>2026-05-01T16:24:18Z</time></trkpt><trkpt lat="44.8080577296532" lon="9.927270424271999"><ele>359.0</ele><time>2026-05-01T16:24:20Z</time></trkpt><trkpt lat="44.8081453883906" lon="9.927316931514131"><ele>359.0</ele><time>2026-05-01T16:24:22Z</time></trkpt><trkpt lat="44.808210931922844" lon="9.927371472592139"><ele>359.0</ele><time>2026-05-01T16:24:24Z</time></trkpt><trkpt lat="44.80830912904999" lon="9.927453326781968"><ele>359.0</ele><time>2026-05-01T16:24:26Z</time></trkpt><trkpt lat="44.80835922456743" lon="9.927526184715415"><ele>359.0</ele><time>2026-05-01T16:24:27Z</time></trkpt><trkpt lat="44.8084039375313" lon="9.927624703454798"><ele>359.83333333333337</ele><time>2026-05-01T16:24:28Z</time></trkpt><trkpt lat="44.808438279260514" lon="9.927728334272343"><ele>360.6666666666667</ele><time>2026-05-01T16:24:29Z</time></trkpt><trkpt lat="44.80846566643687" lon="9.92783360619582"><ele>361.5</ele><time>2026-05-01T16:24:30Z</time></trkpt><trkpt lat="44.80847771521168" lon="9.927940027395326"><ele>362.3333333333333</ele><time>2026-05-01T16:24:31Z</time></trkpt><trkpt lat="44.80848395328218" lon="9.928097196534754"><ele>363.16666666666663</ele><time>2026-05-01T16:24:33Z</time></trkpt><trkpt lat="44.8084409411165" lon="9.92817153162564"><ele>364.0</ele><time>2026-05-01T16:24:35Z</time></trkpt><trkpt lat="44.8083839704923" lon="9.928044309146689"><ele>364.0</ele><time>2026-05-01T16:24:38Z</time></trkpt><trkpt lat="44.80830519790878" lon="9.927902481062953"><ele>364.0</ele><time>2026-05-01T16:24:40Z</time></trkpt><trkpt lat="44.80825507708945" lon="9.927829260661893"><ele>364.0</ele><time>2026-05-01T16:24:41Z</time></trkpt><trkpt lat="44.80818623634089" lon="9.927782398779268"><ele>364.0</ele><time>2026-05-01T16:24:42Z</time></trkpt><trkpt lat="44.80810986881895" lon="9.927745507556498"><ele>364.0</ele><time>2026-05-01T16:24:43Z</time></trkpt><trkpt lat="44.80805550180692" lon="9.92769111043066"><ele>364.0</ele><time>2026-05-01T16:24:44Z</time></trkpt><trkpt lat="44.80798427899191" lon="9.92765083006725"><ele>364.0</ele><time>2026-05-01T16:24:45.001Z</time></trkpt><trkpt lat="44.80791699020075" lon="9.927613042270044"><ele>364.0</ele><time>2026-05-01T16:24:46.001Z</time></trkpt><trkpt lat="44.807850540650996" lon="9.927572992825331"><ele>364.0</ele><time>2026-05-01T16:24:47.001Z</time></trkpt><trkpt lat="44.80778552361897" lon="9.927535791349591"><ele>364.0</ele><time>2026-05-01T16:24:48.001Z</time></trkpt><trkpt lat="44.80770790319247" lon="9.927518168456366"><ele>364.0</ele><time>2026-05-01T16:24:49.001Z</time></trkpt><trkpt lat="44.80763544732835" lon="9.927495422675728"><ele>364.0</ele><time>2026-05-01T16:24:50.001Z</time></trkpt><trkpt lat="44.80755056415173" lon="9.927481871145124"><ele>364.16666666666663</ele><time>2026-05-01T16:24:51.001Z</time></trkpt><trkpt lat="44.80745742016871" lon="9.927497962963002"><ele>364.3333333333333</ele><time>2026-05-01T16:24:52.001Z</time></trkpt><trkpt lat="44.80736952429326" lon="9.9275244586123"><ele>364.5</ele><time>2026-05-01T16:24:53.001Z</time></trkpt><trkpt lat="44.80728825689666" lon="9.927564238179912"><ele>364.6666666666667</ele><time>2026-05-01T16:24:54.001Z</time></trkpt><trkpt lat="44.807208789825395" lon="9.927569958877116"><ele>364.83333333333337</ele><time>2026-05-01T16:24:55.001Z</time></trkpt><trkpt lat="44.807137047713496" lon="9.927594554558732"><ele>365.0</ele><time>2026-05-01T16:24:56.001Z</time></trkpt><trkpt lat="44.807082036948934" lon="9.927535722310726"><ele>365.6</ele><time>2026-05-01T16:24:57.001Z</time></trkpt><trkpt lat="44.80703064686715" lon="9.92744008260501"><ele>366.2</ele><time>2026-05-01T16:24:58.001Z</time></trkpt><trkpt lat="44.80696143460506" lon="9.927304714067654"><ele>366.79999999999995</ele><time>2026-05-01T16:24:59.001Z</time></trkpt><trkpt lat="44.806894494563785" lon="9.927156683680158"><ele>367.4</ele><time>2026-05-01T16:25:00.001Z</time></trkpt><trkpt lat="44.80683275527928" lon="9.927010174186995"><ele>368.0</ele><time>2026-05-01T16:25:01.001Z</time></trkpt><trkpt lat="44.80673507433669" lon="9.926881324056856"><ele>368.0</ele><time>2026-05-01T16:25:02.001Z</time></trkpt><trkpt lat="44.80665197253616" lon="9.926777594838573"><ele>368.0</ele><time>2026-05-01T16:25:03.001Z</time></trkpt><trkpt lat="44.80658281054535" lon="9.926698106166162"><ele>368.0</ele><time>2026-05-01T16:25:04.001Z</time></trkpt><trkpt lat="44.80651976533734" lon="9.926625136459508"><ele>368.0</ele><time>2026-05-01T16:25:05.001Z</time></trkpt><trkpt lat="44.80646425410352" lon="9.926562619744486"><ele>368.0</ele><time>2026-05-01T16:25:06.001Z</time></trkpt><trkpt lat="44.806383960989066" lon="9.92647856658135"><ele>368.0</ele><time>2026-05-01T16:25:08.001Z</time></trkpt></trkseg></trk></gpx>